<?xml version="1.0" encoding="UTF-8" standalone="no" ?>
<gpx xmlns="http://www.topografix.com/GPX/1/1" xmlns:xsi="http://www.w3.org/2001/XMLSchema-instance" xsi:schemaLocation="http://www.topografix.com/GPX/1/1 http://www.topografix.com/GPX/1/1/gpx.xsd" version="1.1" creator="VisuGPX - https://www.visugpx.com">
  <metadata>
    <name>Les Chemins du Soleil 2013 - Etape 1</name>
    <desc><![CDATA[De Nyons à Villeperdrix. Epreuve très engagée. Manque le dernier tronçon vers La Motte-Chalancon]]></desc>
  </metadata>
  <trk>
    <name><![CDATA[Raid Les Chemins du Soleil]]></name>
    <trkseg>
      <trkpt lat="44.36025" lon="5.13984">
        <ele>259.60000610352</ele>
        <time>2013-05-10T06:44:00Z</time>
      </trkpt>
      <trkpt lat="44.36034" lon="5.13995">
        <ele>259.60000610352</ele>
        <time>2013-05-10T06:44:03Z</time>
      </trkpt>
      <trkpt lat="44.36049" lon="5.14015">
        <ele>259.60000610352</ele>
        <time>2013-05-10T06:44:08Z</time>
      </trkpt>
      <trkpt lat="44.36051" lon="5.1403">
        <ele>259.60000610352</ele>
        <time>2013-05-10T06:44:11Z</time>
      </trkpt>
      <trkpt lat="44.36053" lon="5.14048">
        <ele>259.60000610352</ele>
        <time>2013-05-10T06:44:14Z</time>
      </trkpt>
      <trkpt lat="44.36055" lon="5.14064">
        <ele>259.60000610352</ele>
        <time>2013-05-10T06:44:17Z</time>
      </trkpt>
      <trkpt lat="44.36059" lon="5.14075">
        <ele>260.20001220703</ele>
        <time>2013-05-10T06:44:19Z</time>
      </trkpt>
      <trkpt lat="44.36061" lon="5.1408">
        <ele>260.60000610352</ele>
        <time>2013-05-10T06:44:20Z</time>
      </trkpt>
      <trkpt lat="44.36062" lon="5.14084">
        <ele>261</ele>
        <time>2013-05-10T06:44:21Z</time>
      </trkpt>
      <trkpt lat="44.36065" lon="5.14094">
        <ele>261.79998779297</ele>
        <time>2013-05-10T06:44:23Z</time>
      </trkpt>
      <trkpt lat="44.36072" lon="5.14122">
        <ele>261.79998779297</ele>
        <time>2013-05-10T06:44:29Z</time>
      </trkpt>
      <trkpt lat="44.36079" lon="5.14144">
        <ele>262.39999389648</ele>
        <time>2013-05-10T06:44:34Z</time>
      </trkpt>
      <trkpt lat="44.36081" lon="5.14149">
        <ele>262.79998779297</ele>
        <time>2013-05-10T06:44:35Z</time>
      </trkpt>
      <trkpt lat="44.36082" lon="5.14154">
        <ele>263.20001220703</ele>
        <time>2013-05-10T06:44:36Z</time>
      </trkpt>
      <trkpt lat="44.36083" lon="5.14166">
        <ele>264</ele>
        <time>2013-05-10T06:44:38Z</time>
      </trkpt>
      <trkpt lat="44.36082" lon="5.1419">
        <ele>264</ele>
        <time>2013-05-10T06:44:43Z</time>
      </trkpt>
      <trkpt lat="44.36073" lon="5.14213">
        <ele>264</ele>
        <time>2013-05-10T06:44:47Z</time>
      </trkpt>
      <trkpt lat="44.36066" lon="5.14266">
        <ele>264</ele>
        <time>2013-05-10T06:44:55Z</time>
      </trkpt>
      <trkpt lat="44.36059" lon="5.14297">
        <ele>264</ele>
        <time>2013-05-10T06:45:00Z</time>
      </trkpt>
      <trkpt lat="44.36056" lon="5.14313">
        <ele>264.39999389648</ele>
        <time>2013-05-10T06:45:03Z</time>
      </trkpt>
      <trkpt lat="44.3605" lon="5.14322">
        <ele>265.39999389648</ele>
        <time>2013-05-10T06:45:05Z</time>
      </trkpt>
      <trkpt lat="44.36048" lon="5.14327">
        <ele>265.79998779297</ele>
        <time>2013-05-10T06:45:06Z</time>
      </trkpt>
      <trkpt lat="44.36047" lon="5.14332">
        <ele>266.39999389648</ele>
        <time>2013-05-10T06:45:07Z</time>
      </trkpt>
      <trkpt lat="44.36042" lon="5.14343">
        <ele>266.39999389648</ele>
        <time>2013-05-10T06:45:09Z</time>
      </trkpt>
      <trkpt lat="44.36036" lon="5.1437">
        <ele>266.39999389648</ele>
        <time>2013-05-10T06:45:14Z</time>
      </trkpt>
      <trkpt lat="44.36037" lon="5.14382">
        <ele>266.39999389648</ele>
        <time>2013-05-10T06:45:16Z</time>
      </trkpt>
      <trkpt lat="44.36034" lon="5.14398">
        <ele>266.39999389648</ele>
        <time>2013-05-10T06:45:19Z</time>
      </trkpt>
      <trkpt lat="44.3603" lon="5.14412">
        <ele>266.39999389648</ele>
        <time>2013-05-10T06:45:22Z</time>
      </trkpt>
      <trkpt lat="44.36012" lon="5.14411">
        <ele>266.39999389648</ele>
        <time>2013-05-10T06:45:28Z</time>
      </trkpt>
      <trkpt lat="44.36008" lon="5.1441">
        <ele>266.79998779297</ele>
        <time>2013-05-10T06:45:29Z</time>
      </trkpt>
      <trkpt lat="44.35996" lon="5.1441">
        <ele>268.20001220703</ele>
        <time>2013-05-10T06:45:32Z</time>
      </trkpt>
      <trkpt lat="44.3598" lon="5.14411">
        <ele>268.60000610352</ele>
        <time>2013-05-10T06:45:36Z</time>
      </trkpt>
      <trkpt lat="44.35965" lon="5.1441">
        <ele>268.60000610352</ele>
        <time>2013-05-10T06:45:39Z</time>
      </trkpt>
      <trkpt lat="44.35956" lon="5.14402">
        <ele>268.60000610352</ele>
        <time>2013-05-10T06:45:41Z</time>
      </trkpt>
      <trkpt lat="44.35949" lon="5.14392">
        <ele>268.60000610352</ele>
        <time>2013-05-10T06:45:43Z</time>
      </trkpt>
      <trkpt lat="44.35937" lon="5.14374">
        <ele>268.60000610352</ele>
        <time>2013-05-10T06:45:46Z</time>
      </trkpt>
      <trkpt lat="44.35921" lon="5.14353">
        <ele>268.60000610352</ele>
        <time>2013-05-10T06:45:52Z</time>
      </trkpt>
      <trkpt lat="44.35924" lon="5.14362">
        <ele>268.60000610352</ele>
        <time>2013-05-10T06:45:58Z</time>
      </trkpt>
      <trkpt lat="44.3593" lon="5.14389">
        <ele>268.60000610352</ele>
        <time>2013-05-10T06:46:04Z</time>
      </trkpt>
      <trkpt lat="44.35934" lon="5.14427">
        <ele>268.60000610352</ele>
        <time>2013-05-10T06:46:07Z</time>
      </trkpt>
      <trkpt lat="44.35925" lon="5.14487">
        <ele>268.60000610352</ele>
        <time>2013-05-10T06:46:14Z</time>
      </trkpt>
      <trkpt lat="44.35921" lon="5.14506">
        <ele>268.60000610352</ele>
        <time>2013-05-10T06:46:16Z</time>
      </trkpt>
      <trkpt lat="44.35919" lon="5.14522">
        <ele>268.60000610352</ele>
        <time>2013-05-10T06:46:18Z</time>
      </trkpt>
      <trkpt lat="44.35917" lon="5.14548">
        <ele>268.60000610352</ele>
        <time>2013-05-10T06:46:21Z</time>
      </trkpt>
      <trkpt lat="44.35915" lon="5.14565">
        <ele>268.20001220703</ele>
        <time>2013-05-10T06:46:23Z</time>
      </trkpt>
      <trkpt lat="44.35915" lon="5.14574">
        <ele>267.79998779297</ele>
        <time>2013-05-10T06:46:24Z</time>
      </trkpt>
      <trkpt lat="44.35914" lon="5.14582">
        <ele>267.39999389648</ele>
        <time>2013-05-10T06:46:25Z</time>
      </trkpt>
      <trkpt lat="44.3591" lon="5.14594">
        <ele>266.60000610352</ele>
        <time>2013-05-10T06:46:27Z</time>
      </trkpt>
      <trkpt lat="44.359" lon="5.1461">
        <ele>266.60000610352</ele>
        <time>2013-05-10T06:46:31Z</time>
      </trkpt>
      <trkpt lat="44.35899" lon="5.14614">
        <ele>266.60000610352</ele>
        <time>2013-05-10T06:46:32Z</time>
      </trkpt>
      <trkpt lat="44.35892" lon="5.14629">
        <ele>266.60000610352</ele>
        <time>2013-05-10T06:46:35Z</time>
      </trkpt>
      <trkpt lat="44.35891" lon="5.14634">
        <ele>267</ele>
        <time>2013-05-10T06:46:36Z</time>
      </trkpt>
      <trkpt lat="44.3589" lon="5.14644">
        <ele>267.79998779297</ele>
        <time>2013-05-10T06:46:38Z</time>
      </trkpt>
      <trkpt lat="44.35891" lon="5.14649">
        <ele>268.20001220703</ele>
        <time>2013-05-10T06:46:39Z</time>
      </trkpt>
      <trkpt lat="44.35892" lon="5.14654">
        <ele>268.60000610352</ele>
        <time>2013-05-10T06:46:40Z</time>
      </trkpt>
      <trkpt lat="44.35894" lon="5.14665">
        <ele>268.60000610352</ele>
        <time>2013-05-10T06:46:42Z</time>
      </trkpt>
      <trkpt lat="44.35903" lon="5.14694">
        <ele>268.60000610352</ele>
        <time>2013-05-10T06:46:48Z</time>
      </trkpt>
      <trkpt lat="44.35907" lon="5.14717">
        <ele>268.60000610352</ele>
        <time>2013-05-10T06:46:52Z</time>
      </trkpt>
      <trkpt lat="44.35915" lon="5.14734">
        <ele>268.60000610352</ele>
        <time>2013-05-10T06:46:55Z</time>
      </trkpt>
      <trkpt lat="44.35917" lon="5.14762">
        <ele>269</ele>
        <time>2013-05-10T06:47:00Z</time>
      </trkpt>
      <trkpt lat="44.35918" lon="5.14776">
        <ele>269.79998779297</ele>
        <time>2013-05-10T06:47:02Z</time>
      </trkpt>
      <trkpt lat="44.35919" lon="5.14784">
        <ele>270.20001220703</ele>
        <time>2013-05-10T06:47:03Z</time>
      </trkpt>
      <trkpt lat="44.3592" lon="5.14791">
        <ele>270.60000610352</ele>
        <time>2013-05-10T06:47:04Z</time>
      </trkpt>
      <trkpt lat="44.35921" lon="5.14809">
        <ele>270.60000610352</ele>
        <time>2013-05-10T06:47:07Z</time>
      </trkpt>
      <trkpt lat="44.35908" lon="5.14833">
        <ele>270.60000610352</ele>
        <time>2013-05-10T06:47:12Z</time>
      </trkpt>
      <trkpt lat="44.35895" lon="5.14865">
        <ele>271.20001220703</ele>
        <time>2013-05-10T06:47:18Z</time>
      </trkpt>
      <trkpt lat="44.35893" lon="5.14871">
        <ele>271.60000610352</ele>
        <time>2013-05-10T06:47:19Z</time>
      </trkpt>
      <trkpt lat="44.35892" lon="5.14882">
        <ele>272.60000610352</ele>
        <time>2013-05-10T06:47:21Z</time>
      </trkpt>
      <trkpt lat="44.3589" lon="5.14908">
        <ele>273.39999389648</ele>
        <time>2013-05-10T06:47:26Z</time>
      </trkpt>
      <trkpt lat="44.3589" lon="5.14914">
        <ele>273.79998779297</ele>
        <time>2013-05-10T06:47:27Z</time>
      </trkpt>
      <trkpt lat="44.35892" lon="5.14925">
        <ele>274.79998779297</ele>
        <time>2013-05-10T06:47:29Z</time>
      </trkpt>
      <trkpt lat="44.35898" lon="5.14941">
        <ele>275.60000610352</ele>
        <time>2013-05-10T06:47:32Z</time>
      </trkpt>
      <trkpt lat="44.35901" lon="5.14952">
        <ele>276.60000610352</ele>
        <time>2013-05-10T06:47:34Z</time>
      </trkpt>
      <trkpt lat="44.35903" lon="5.14963">
        <ele>277.60000610352</ele>
        <time>2013-05-10T06:47:36Z</time>
      </trkpt>
      <trkpt lat="44.35909" lon="5.14976">
        <ele>277.60000610352</ele>
        <time>2013-05-10T06:47:38Z</time>
      </trkpt>
      <trkpt lat="44.35912" lon="5.14987">
        <ele>277.60000610352</ele>
        <time>2013-05-10T06:47:40Z</time>
      </trkpt>
      <trkpt lat="44.35919" lon="5.15003">
        <ele>277.60000610352</ele>
        <time>2013-05-10T06:47:43Z</time>
      </trkpt>
      <trkpt lat="44.35945" lon="5.1504">
        <ele>277.20001220703</ele>
        <time>2013-05-10T06:47:49Z</time>
      </trkpt>
      <trkpt lat="44.35954" lon="5.15056">
        <ele>276.39999389648</ele>
        <time>2013-05-10T06:47:51Z</time>
      </trkpt>
      <trkpt lat="44.35958" lon="5.15063">
        <ele>276</ele>
        <time>2013-05-10T06:47:52Z</time>
      </trkpt>
      <trkpt lat="44.35965" lon="5.1507">
        <ele>275.60000610352</ele>
        <time>2013-05-10T06:47:53Z</time>
      </trkpt>
      <trkpt lat="44.35976" lon="5.15089">
        <ele>275.20001220703</ele>
        <time>2013-05-10T06:47:56Z</time>
      </trkpt>
      <trkpt lat="44.35983" lon="5.15095">
        <ele>274.60000610352</ele>
        <time>2013-05-10T06:47:57Z</time>
      </trkpt>
      <trkpt lat="44.35994" lon="5.15106">
        <ele>273.79998779297</ele>
        <time>2013-05-10T06:47:59Z</time>
      </trkpt>
      <trkpt lat="44.35999" lon="5.15111">
        <ele>273.20001220703</ele>
        <time>2013-05-10T06:48:00Z</time>
      </trkpt>
      <trkpt lat="44.36005" lon="5.15117">
        <ele>273.20001220703</ele>
        <time>2013-05-10T06:48:01Z</time>
      </trkpt>
      <trkpt lat="44.36018" lon="5.15128">
        <ele>272.79998779297</ele>
        <time>2013-05-10T06:48:03Z</time>
      </trkpt>
      <trkpt lat="44.36031" lon="5.1514">
        <ele>272</ele>
        <time>2013-05-10T06:48:05Z</time>
      </trkpt>
      <trkpt lat="44.36045" lon="5.15151">
        <ele>271</ele>
        <time>2013-05-10T06:48:07Z</time>
      </trkpt>
      <trkpt lat="44.36055" lon="5.15159">
        <ele>271</ele>
        <time>2013-05-10T06:48:09Z</time>
      </trkpt>
      <trkpt lat="44.36094" lon="5.15175">
        <ele>271</ele>
        <time>2013-05-10T06:48:15Z</time>
      </trkpt>
      <trkpt lat="44.36132" lon="5.15181">
        <ele>271</ele>
        <time>2013-05-10T06:48:21Z</time>
      </trkpt>
      <trkpt lat="44.3614" lon="5.15181">
        <ele>271</ele>
        <time>2013-05-10T06:48:22Z</time>
      </trkpt>
      <trkpt lat="44.36165" lon="5.15181">
        <ele>271</ele>
        <time>2013-05-10T06:48:26Z</time>
      </trkpt>
      <trkpt lat="44.36171" lon="5.1518">
        <ele>271</ele>
        <time>2013-05-10T06:48:27Z</time>
      </trkpt>
      <trkpt lat="44.36189" lon="5.15177">
        <ele>271</ele>
        <time>2013-05-10T06:48:30Z</time>
      </trkpt>
      <trkpt lat="44.36195" lon="5.15177">
        <ele>271</ele>
        <time>2013-05-10T06:48:31Z</time>
      </trkpt>
      <trkpt lat="44.36226" lon="5.15179">
        <ele>271</ele>
        <time>2013-05-10T06:48:36Z</time>
      </trkpt>
      <trkpt lat="44.36231" lon="5.15182">
        <ele>271</ele>
        <time>2013-05-10T06:48:37Z</time>
      </trkpt>
      <trkpt lat="44.36255" lon="5.15203">
        <ele>271</ele>
        <time>2013-05-10T06:48:42Z</time>
      </trkpt>
      <trkpt lat="44.36286" lon="5.15222">
        <ele>271</ele>
        <time>2013-05-10T06:48:48Z</time>
      </trkpt>
      <trkpt lat="44.36293" lon="5.15225">
        <ele>271</ele>
        <time>2013-05-10T06:48:49Z</time>
      </trkpt>
      <trkpt lat="44.36306" lon="5.15235">
        <ele>271</ele>
        <time>2013-05-10T06:48:51Z</time>
      </trkpt>
      <trkpt lat="44.36312" lon="5.15243">
        <ele>271</ele>
        <time>2013-05-10T06:48:52Z</time>
      </trkpt>
      <trkpt lat="44.36316" lon="5.15251">
        <ele>270.60000610352</ele>
        <time>2013-05-10T06:48:53Z</time>
      </trkpt>
      <trkpt lat="44.3632" lon="5.15261">
        <ele>270</ele>
        <time>2013-05-10T06:48:54Z</time>
      </trkpt>
      <trkpt lat="44.36324" lon="5.15272">
        <ele>269.60000610352</ele>
        <time>2013-05-10T06:48:55Z</time>
      </trkpt>
      <trkpt lat="44.36327" lon="5.15284">
        <ele>269</ele>
        <time>2013-05-10T06:48:56Z</time>
      </trkpt>
      <trkpt lat="44.3633" lon="5.15295">
        <ele>268.20001220703</ele>
        <time>2013-05-10T06:48:57Z</time>
      </trkpt>
      <trkpt lat="44.36333" lon="5.15307">
        <ele>267.60000610352</ele>
        <time>2013-05-10T06:48:58Z</time>
      </trkpt>
      <trkpt lat="44.36335" lon="5.15318">
        <ele>266.79998779297</ele>
        <time>2013-05-10T06:48:59Z</time>
      </trkpt>
      <trkpt lat="44.36338" lon="5.1533">
        <ele>266.20001220703</ele>
        <time>2013-05-10T06:49:00Z</time>
      </trkpt>
      <trkpt lat="44.36341" lon="5.1535">
        <ele>266.20001220703</ele>
        <time>2013-05-10T06:49:02Z</time>
      </trkpt>
      <trkpt lat="44.36349" lon="5.15389">
        <ele>266.20001220703</ele>
        <time>2013-05-10T06:49:06Z</time>
      </trkpt>
      <trkpt lat="44.36353" lon="5.15417">
        <ele>266.20001220703</ele>
        <time>2013-05-10T06:49:09Z</time>
      </trkpt>
      <trkpt lat="44.36351" lon="5.15434">
        <ele>266.20001220703</ele>
        <time>2013-05-10T06:49:11Z</time>
      </trkpt>
      <trkpt lat="44.36348" lon="5.1546">
        <ele>266.20001220703</ele>
        <time>2013-05-10T06:49:15Z</time>
      </trkpt>
      <trkpt lat="44.36354" lon="5.15479">
        <ele>266.60000610352</ele>
        <time>2013-05-10T06:49:18Z</time>
      </trkpt>
      <trkpt lat="44.36356" lon="5.15485">
        <ele>267</ele>
        <time>2013-05-10T06:49:19Z</time>
      </trkpt>
      <trkpt lat="44.36358" lon="5.1549">
        <ele>267.39999389648</ele>
        <time>2013-05-10T06:49:20Z</time>
      </trkpt>
      <trkpt lat="44.36361" lon="5.15503">
        <ele>268.20001220703</ele>
        <time>2013-05-10T06:49:22Z</time>
      </trkpt>
      <trkpt lat="44.36362" lon="5.15516">
        <ele>268.20001220703</ele>
        <time>2013-05-10T06:49:24Z</time>
      </trkpt>
      <trkpt lat="44.36385" lon="5.15544">
        <ele>268.20001220703</ele>
        <time>2013-05-10T06:49:31Z</time>
      </trkpt>
      <trkpt lat="44.36398" lon="5.15556">
        <ele>268.20001220703</ele>
        <time>2013-05-10T06:49:34Z</time>
      </trkpt>
      <trkpt lat="44.36401" lon="5.1556">
        <ele>268.20001220703</ele>
        <time>2013-05-10T06:49:35Z</time>
      </trkpt>
      <trkpt lat="44.36412" lon="5.15572">
        <ele>269.20001220703</ele>
        <time>2013-05-10T06:49:38Z</time>
      </trkpt>
      <trkpt lat="44.3642" lon="5.15577">
        <ele>270</ele>
        <time>2013-05-10T06:49:40Z</time>
      </trkpt>
      <trkpt lat="44.36435" lon="5.15583">
        <ele>270.39999389648</ele>
        <time>2013-05-10T06:49:43Z</time>
      </trkpt>
      <trkpt lat="44.36463" lon="5.15601">
        <ele>270.39999389648</ele>
        <time>2013-05-10T06:49:49Z</time>
      </trkpt>
      <trkpt lat="44.36483" lon="5.1561">
        <ele>270.39999389648</ele>
        <time>2013-05-10T06:49:53Z</time>
      </trkpt>
      <trkpt lat="44.36488" lon="5.15611">
        <ele>270.39999389648</ele>
        <time>2013-05-10T06:49:54Z</time>
      </trkpt>
      <trkpt lat="44.36488" lon="5.15609">
        <ele>271</ele>
        <time>2013-05-10T06:49:57Z</time>
      </trkpt>
      <trkpt lat="44.3649" lon="5.15609">
        <ele>271.39999389648</ele>
        <time>2013-05-10T06:49:58Z</time>
      </trkpt>
      <trkpt lat="44.36503" lon="5.15608">
        <ele>272.79998779297</ele>
        <time>2013-05-10T06:50:01Z</time>
      </trkpt>
      <trkpt lat="44.36522" lon="5.15608">
        <ele>272.79998779297</ele>
        <time>2013-05-10T06:50:05Z</time>
      </trkpt>
      <trkpt lat="44.36533" lon="5.15611">
        <ele>272.79998779297</ele>
        <time>2013-05-10T06:50:07Z</time>
      </trkpt>
      <trkpt lat="44.3655" lon="5.15614">
        <ele>272.79998779297</ele>
        <time>2013-05-10T06:50:10Z</time>
      </trkpt>
      <trkpt lat="44.36582" lon="5.1561">
        <ele>272.79998779297</ele>
        <time>2013-05-10T06:50:15Z</time>
      </trkpt>
      <trkpt lat="44.36611" lon="5.15601">
        <ele>272.39999389648</ele>
        <time>2013-05-10T06:50:19Z</time>
      </trkpt>
      <trkpt lat="44.36619" lon="5.15598">
        <ele>272</ele>
        <time>2013-05-10T06:50:20Z</time>
      </trkpt>
      <trkpt lat="44.36626" lon="5.15595">
        <ele>271.60000610352</ele>
        <time>2013-05-10T06:50:21Z</time>
      </trkpt>
      <trkpt lat="44.36634" lon="5.15592">
        <ele>271.20001220703</ele>
        <time>2013-05-10T06:50:22Z</time>
      </trkpt>
      <trkpt lat="44.36642" lon="5.15588">
        <ele>270.60000610352</ele>
        <time>2013-05-10T06:50:23Z</time>
      </trkpt>
      <trkpt lat="44.36664" lon="5.15577">
        <ele>270.20001220703</ele>
        <time>2013-05-10T06:50:26Z</time>
      </trkpt>
      <trkpt lat="44.36671" lon="5.15571">
        <ele>269.79998779297</ele>
        <time>2013-05-10T06:50:27Z</time>
      </trkpt>
      <trkpt lat="44.36678" lon="5.15563">
        <ele>269.39999389648</ele>
        <time>2013-05-10T06:50:28Z</time>
      </trkpt>
      <trkpt lat="44.36684" lon="5.15554">
        <ele>269</ele>
        <time>2013-05-10T06:50:29Z</time>
      </trkpt>
      <trkpt lat="44.36689" lon="5.15545">
        <ele>268.39999389648</ele>
        <time>2013-05-10T06:50:30Z</time>
      </trkpt>
      <trkpt lat="44.3669" lon="5.15533">
        <ele>268</ele>
        <time>2013-05-10T06:50:31Z</time>
      </trkpt>
      <trkpt lat="44.36692" lon="5.15523">
        <ele>267.39999389648</ele>
        <time>2013-05-10T06:50:32Z</time>
      </trkpt>
      <trkpt lat="44.36694" lon="5.15514">
        <ele>267</ele>
        <time>2013-05-10T06:50:33Z</time>
      </trkpt>
      <trkpt lat="44.36697" lon="5.15506">
        <ele>266.39999389648</ele>
        <time>2013-05-10T06:50:34Z</time>
      </trkpt>
      <trkpt lat="44.36709" lon="5.15484">
        <ele>266.39999389648</ele>
        <time>2013-05-10T06:50:37Z</time>
      </trkpt>
      <trkpt lat="44.36714" lon="5.15477">
        <ele>266.39999389648</ele>
        <time>2013-05-10T06:50:38Z</time>
      </trkpt>
      <trkpt lat="44.36738" lon="5.15434">
        <ele>266.39999389648</ele>
        <time>2013-05-10T06:50:44Z</time>
      </trkpt>
      <trkpt lat="44.36748" lon="5.1542">
        <ele>266.39999389648</ele>
        <time>2013-05-10T06:50:46Z</time>
      </trkpt>
      <trkpt lat="44.36763" lon="5.15404">
        <ele>266.39999389648</ele>
        <time>2013-05-10T06:50:49Z</time>
      </trkpt>
      <trkpt lat="44.36769" lon="5.15399">
        <ele>266.39999389648</ele>
        <time>2013-05-10T06:50:50Z</time>
      </trkpt>
      <trkpt lat="44.36787" lon="5.1539">
        <ele>266.39999389648</ele>
        <time>2013-05-10T06:50:53Z</time>
      </trkpt>
      <trkpt lat="44.3683" lon="5.15378">
        <ele>266.39999389648</ele>
        <time>2013-05-10T06:51:01Z</time>
      </trkpt>
      <trkpt lat="44.36848" lon="5.15381">
        <ele>266.79998779297</ele>
        <time>2013-05-10T06:51:05Z</time>
      </trkpt>
      <trkpt lat="44.36853" lon="5.15382">
        <ele>267.39999389648</ele>
        <time>2013-05-10T06:51:06Z</time>
      </trkpt>
      <trkpt lat="44.36861" lon="5.15381">
        <ele>268.20001220703</ele>
        <time>2013-05-10T06:51:08Z</time>
      </trkpt>
      <trkpt lat="44.36874" lon="5.15378">
        <ele>269</ele>
        <time>2013-05-10T06:51:11Z</time>
      </trkpt>
      <trkpt lat="44.36883" lon="5.15376">
        <ele>270</ele>
        <time>2013-05-10T06:51:13Z</time>
      </trkpt>
      <trkpt lat="44.36892" lon="5.15376">
        <ele>270.79998779297</ele>
        <time>2013-05-10T06:51:15Z</time>
      </trkpt>
      <trkpt lat="44.36908" lon="5.15373">
        <ele>270.79998779297</ele>
        <time>2013-05-10T06:51:19Z</time>
      </trkpt>
      <trkpt lat="44.3692" lon="5.15371">
        <ele>271.20001220703</ele>
        <time>2013-05-10T06:51:22Z</time>
      </trkpt>
      <trkpt lat="44.36929" lon="5.1537">
        <ele>272.20001220703</ele>
        <time>2013-05-10T06:51:24Z</time>
      </trkpt>
      <trkpt lat="44.36932" lon="5.1537">
        <ele>272.60000610352</ele>
        <time>2013-05-10T06:51:25Z</time>
      </trkpt>
      <trkpt lat="44.36959" lon="5.15371">
        <ele>273</ele>
        <time>2013-05-10T06:51:31Z</time>
      </trkpt>
      <trkpt lat="44.36972" lon="5.15373">
        <ele>273</ele>
        <time>2013-05-10T06:51:34Z</time>
      </trkpt>
      <trkpt lat="44.3699" lon="5.1538">
        <ele>273</ele>
        <time>2013-05-10T06:51:38Z</time>
      </trkpt>
      <trkpt lat="44.36998" lon="5.15385">
        <ele>273</ele>
        <time>2013-05-10T06:51:40Z</time>
      </trkpt>
      <trkpt lat="44.37014" lon="5.15399">
        <ele>273</ele>
        <time>2013-05-10T06:51:44Z</time>
      </trkpt>
      <trkpt lat="44.37019" lon="5.15404">
        <ele>273</ele>
        <time>2013-05-10T06:51:45Z</time>
      </trkpt>
      <trkpt lat="44.37031" lon="5.15419">
        <ele>273</ele>
        <time>2013-05-10T06:51:48Z</time>
      </trkpt>
      <trkpt lat="44.37038" lon="5.15431">
        <ele>273</ele>
        <time>2013-05-10T06:51:50Z</time>
      </trkpt>
      <trkpt lat="44.37043" lon="5.15443">
        <ele>273</ele>
        <time>2013-05-10T06:51:52Z</time>
      </trkpt>
      <trkpt lat="44.37044" lon="5.1545">
        <ele>273</ele>
        <time>2013-05-10T06:51:53Z</time>
      </trkpt>
      <trkpt lat="44.37045" lon="5.15464">
        <ele>273</ele>
        <time>2013-05-10T06:51:55Z</time>
      </trkpt>
      <trkpt lat="44.37045" lon="5.15471">
        <ele>273</ele>
        <time>2013-05-10T06:51:56Z</time>
      </trkpt>
      <trkpt lat="44.37044" lon="5.15525">
        <ele>273</ele>
        <time>2013-05-10T06:52:04Z</time>
      </trkpt>
      <trkpt lat="44.37043" lon="5.15546">
        <ele>273</ele>
        <time>2013-05-10T06:52:07Z</time>
      </trkpt>
      <trkpt lat="44.37045" lon="5.15559">
        <ele>273</ele>
        <time>2013-05-10T06:52:09Z</time>
      </trkpt>
      <trkpt lat="44.37045" lon="5.15565">
        <ele>273.39999389648</ele>
        <time>2013-05-10T06:52:10Z</time>
      </trkpt>
      <trkpt lat="44.37046" lon="5.15571">
        <ele>274</ele>
        <time>2013-05-10T06:52:11Z</time>
      </trkpt>
      <trkpt lat="44.37049" lon="5.15583">
        <ele>275</ele>
        <time>2013-05-10T06:52:13Z</time>
      </trkpt>
      <trkpt lat="44.37052" lon="5.15589">
        <ele>275.39999389648</ele>
        <time>2013-05-10T06:52:14Z</time>
      </trkpt>
      <trkpt lat="44.37053" lon="5.15594">
        <ele>275.39999389648</ele>
        <time>2013-05-10T06:52:15Z</time>
      </trkpt>
      <trkpt lat="44.37066" lon="5.15621">
        <ele>275.39999389648</ele>
        <time>2013-05-10T06:52:21Z</time>
      </trkpt>
      <trkpt lat="44.37071" lon="5.15632">
        <ele>275.79998779297</ele>
        <time>2013-05-10T06:52:23Z</time>
      </trkpt>
      <trkpt lat="44.37075" lon="5.15644">
        <ele>276.60000610352</ele>
        <time>2013-05-10T06:52:25Z</time>
      </trkpt>
      <trkpt lat="44.37078" lon="5.1565">
        <ele>277.20001220703</ele>
        <time>2013-05-10T06:52:26Z</time>
      </trkpt>
      <trkpt lat="44.3709" lon="5.15693">
        <ele>277.60000610352</ele>
        <time>2013-05-10T06:52:33Z</time>
      </trkpt>
      <trkpt lat="44.37094" lon="5.15706">
        <ele>277.60000610352</ele>
        <time>2013-05-10T06:52:35Z</time>
      </trkpt>
      <trkpt lat="44.37098" lon="5.1572">
        <ele>277.60000610352</ele>
        <time>2013-05-10T06:52:37Z</time>
      </trkpt>
      <trkpt lat="44.37107" lon="5.1574">
        <ele>277.60000610352</ele>
        <time>2013-05-10T06:52:40Z</time>
      </trkpt>
      <trkpt lat="44.37124" lon="5.15784">
        <ele>277.60000610352</ele>
        <time>2013-05-10T06:52:47Z</time>
      </trkpt>
      <trkpt lat="44.37136" lon="5.15821">
        <ele>277.60000610352</ele>
        <time>2013-05-10T06:52:54Z</time>
      </trkpt>
      <trkpt lat="44.37156" lon="5.15866">
        <ele>277.60000610352</ele>
        <time>2013-05-10T06:53:03Z</time>
      </trkpt>
      <trkpt lat="44.3716" lon="5.15876">
        <ele>278</ele>
        <time>2013-05-10T06:53:05Z</time>
      </trkpt>
      <trkpt lat="44.37163" lon="5.15881">
        <ele>278.39999389648</ele>
        <time>2013-05-10T06:53:06Z</time>
      </trkpt>
      <trkpt lat="44.37168" lon="5.15893">
        <ele>279.39999389648</ele>
        <time>2013-05-10T06:53:08Z</time>
      </trkpt>
      <trkpt lat="44.37171" lon="5.15898">
        <ele>279.79998779297</ele>
        <time>2013-05-10T06:53:09Z</time>
      </trkpt>
      <trkpt lat="44.37177" lon="5.1591">
        <ele>279.79998779297</ele>
        <time>2013-05-10T06:53:11Z</time>
      </trkpt>
      <trkpt lat="44.37188" lon="5.15937">
        <ele>279.79998779297</ele>
        <time>2013-05-10T06:53:15Z</time>
      </trkpt>
      <trkpt lat="44.37197" lon="5.15964">
        <ele>279.79998779297</ele>
        <time>2013-05-10T06:53:19Z</time>
      </trkpt>
      <trkpt lat="44.37197" lon="5.15976">
        <ele>279.79998779297</ele>
        <time>2013-05-10T06:53:21Z</time>
      </trkpt>
      <trkpt lat="44.37195" lon="5.16009">
        <ele>279.79998779297</ele>
        <time>2013-05-10T06:53:26Z</time>
      </trkpt>
      <trkpt lat="44.37194" lon="5.16015">
        <ele>279.79998779297</ele>
        <time>2013-05-10T06:53:27Z</time>
      </trkpt>
      <trkpt lat="44.37189" lon="5.1605">
        <ele>279.79998779297</ele>
        <time>2013-05-10T06:53:32Z</time>
      </trkpt>
      <trkpt lat="44.37175" lon="5.16094">
        <ele>279.79998779297</ele>
        <time>2013-05-10T06:53:39Z</time>
      </trkpt>
      <trkpt lat="44.37157" lon="5.16108">
        <ele>279.79998779297</ele>
        <time>2013-05-10T06:53:43Z</time>
      </trkpt>
      <trkpt lat="44.37152" lon="5.1611">
        <ele>279.79998779297</ele>
        <time>2013-05-10T06:53:44Z</time>
      </trkpt>
      <trkpt lat="44.37147" lon="5.16112">
        <ele>279.79998779297</ele>
        <time>2013-05-10T06:53:45Z</time>
      </trkpt>
      <trkpt lat="44.3713" lon="5.16113">
        <ele>279.79998779297</ele>
        <time>2013-05-10T06:53:48Z</time>
      </trkpt>
      <trkpt lat="44.37101" lon="5.16117">
        <ele>279.79998779297</ele>
        <time>2013-05-10T06:53:53Z</time>
      </trkpt>
      <trkpt lat="44.37088" lon="5.16135">
        <ele>279.79998779297</ele>
        <time>2013-05-10T06:53:56Z</time>
      </trkpt>
      <trkpt lat="44.37084" lon="5.16151">
        <ele>279.79998779297</ele>
        <time>2013-05-10T06:53:58Z</time>
      </trkpt>
      <trkpt lat="44.37077" lon="5.16167">
        <ele>279</ele>
        <time>2013-05-10T06:54:00Z</time>
      </trkpt>
      <trkpt lat="44.37073" lon="5.16176">
        <ele>278.60000610352</ele>
        <time>2013-05-10T06:54:01Z</time>
      </trkpt>
      <trkpt lat="44.37069" lon="5.16187">
        <ele>278.20001220703</ele>
        <time>2013-05-10T06:54:02Z</time>
      </trkpt>
      <trkpt lat="44.37066" lon="5.16197">
        <ele>277.79998779297</ele>
        <time>2013-05-10T06:54:03Z</time>
      </trkpt>
      <trkpt lat="44.37064" lon="5.16207">
        <ele>277.20001220703</ele>
        <time>2013-05-10T06:54:04Z</time>
      </trkpt>
      <trkpt lat="44.37061" lon="5.16217">
        <ele>276.79998779297</ele>
        <time>2013-05-10T06:54:05Z</time>
      </trkpt>
      <trkpt lat="44.3706" lon="5.16227">
        <ele>276.39999389648</ele>
        <time>2013-05-10T06:54:06Z</time>
      </trkpt>
      <trkpt lat="44.37058" lon="5.16237">
        <ele>275.79998779297</ele>
        <time>2013-05-10T06:54:07Z</time>
      </trkpt>
      <trkpt lat="44.37057" lon="5.16247">
        <ele>275.39999389648</ele>
        <time>2013-05-10T06:54:08Z</time>
      </trkpt>
      <trkpt lat="44.37051" lon="5.16272">
        <ele>275.39999389648</ele>
        <time>2013-05-10T06:54:11Z</time>
      </trkpt>
      <trkpt lat="44.37042" lon="5.16318">
        <ele>275.39999389648</ele>
        <time>2013-05-10T06:54:18Z</time>
      </trkpt>
      <trkpt lat="44.37042" lon="5.16324">
        <ele>275.79998779297</ele>
        <time>2013-05-10T06:54:19Z</time>
      </trkpt>
      <trkpt lat="44.37042" lon="5.1633">
        <ele>276.39999389648</ele>
        <time>2013-05-10T06:54:20Z</time>
      </trkpt>
      <trkpt lat="44.37043" lon="5.16342">
        <ele>277.20001220703</ele>
        <time>2013-05-10T06:54:22Z</time>
      </trkpt>
      <trkpt lat="44.37048" lon="5.16368">
        <ele>278.20001220703</ele>
        <time>2013-05-10T06:54:27Z</time>
      </trkpt>
      <trkpt lat="44.37049" lon="5.16373">
        <ele>278.60000610352</ele>
        <time>2013-05-10T06:54:28Z</time>
      </trkpt>
      <trkpt lat="44.3705" lon="5.16378">
        <ele>279</ele>
        <time>2013-05-10T06:54:29Z</time>
      </trkpt>
      <trkpt lat="44.37053" lon="5.16388">
        <ele>279.79998779297</ele>
        <time>2013-05-10T06:54:31Z</time>
      </trkpt>
      <trkpt lat="44.37061" lon="5.16412">
        <ele>280.20001220703</ele>
        <time>2013-05-10T06:54:36Z</time>
      </trkpt>
      <trkpt lat="44.37071" lon="5.16422">
        <ele>281.39999389648</ele>
        <time>2013-05-10T06:54:39Z</time>
      </trkpt>
      <trkpt lat="44.37091" lon="5.16429">
        <ele>281.79998779297</ele>
        <time>2013-05-10T06:54:43Z</time>
      </trkpt>
      <trkpt lat="44.37097" lon="5.16431">
        <ele>281.79998779297</ele>
        <time>2013-05-10T06:54:44Z</time>
      </trkpt>
      <trkpt lat="44.3712" lon="5.1644">
        <ele>281.79998779297</ele>
        <time>2013-05-10T06:54:48Z</time>
      </trkpt>
      <trkpt lat="44.37126" lon="5.16443">
        <ele>281.39999389648</ele>
        <time>2013-05-10T06:54:49Z</time>
      </trkpt>
      <trkpt lat="44.37133" lon="5.16447">
        <ele>281</ele>
        <time>2013-05-10T06:54:50Z</time>
      </trkpt>
      <trkpt lat="44.37139" lon="5.16452">
        <ele>280.60000610352</ele>
        <time>2013-05-10T06:54:51Z</time>
      </trkpt>
      <trkpt lat="44.37146" lon="5.16458">
        <ele>280.20001220703</ele>
        <time>2013-05-10T06:54:52Z</time>
      </trkpt>
      <trkpt lat="44.37153" lon="5.16462">
        <ele>279.79998779297</ele>
        <time>2013-05-10T06:54:53Z</time>
      </trkpt>
      <trkpt lat="44.37166" lon="5.16472">
        <ele>279.79998779297</ele>
        <time>2013-05-10T06:54:55Z</time>
      </trkpt>
      <trkpt lat="44.37187" lon="5.16488">
        <ele>279.39999389648</ele>
        <time>2013-05-10T06:54:58Z</time>
      </trkpt>
      <trkpt lat="44.37194" lon="5.16495">
        <ele>279</ele>
        <time>2013-05-10T06:54:59Z</time>
      </trkpt>
      <trkpt lat="44.37202" lon="5.16502">
        <ele>278.39999389648</ele>
        <time>2013-05-10T06:55:00Z</time>
      </trkpt>
      <trkpt lat="44.37208" lon="5.1651">
        <ele>277.60000610352</ele>
        <time>2013-05-10T06:55:01Z</time>
      </trkpt>
      <trkpt lat="44.37217" lon="5.16529">
        <ele>277.60000610352</ele>
        <time>2013-05-10T06:55:03Z</time>
      </trkpt>
      <trkpt lat="44.37221" lon="5.16538">
        <ele>277.20001220703</ele>
        <time>2013-05-10T06:55:04Z</time>
      </trkpt>
      <trkpt lat="44.37225" lon="5.16547">
        <ele>276.79998779297</ele>
        <time>2013-05-10T06:55:05Z</time>
      </trkpt>
      <trkpt lat="44.37228" lon="5.16556">
        <ele>276.39999389648</ele>
        <time>2013-05-10T06:55:06Z</time>
      </trkpt>
      <trkpt lat="44.37231" lon="5.16565">
        <ele>276</ele>
        <time>2013-05-10T06:55:07Z</time>
      </trkpt>
      <trkpt lat="44.37233" lon="5.16573">
        <ele>275.60000610352</ele>
        <time>2013-05-10T06:55:08Z</time>
      </trkpt>
      <trkpt lat="44.37233" lon="5.16596">
        <ele>275.60000610352</ele>
        <time>2013-05-10T06:55:11Z</time>
      </trkpt>
      <trkpt lat="44.3723" lon="5.16631">
        <ele>275.60000610352</ele>
        <time>2013-05-10T06:55:16Z</time>
      </trkpt>
      <trkpt lat="44.37231" lon="5.16647">
        <ele>275.60000610352</ele>
        <time>2013-05-10T06:55:18Z</time>
      </trkpt>
      <trkpt lat="44.37234" lon="5.16663">
        <ele>275.60000610352</ele>
        <time>2013-05-10T06:55:20Z</time>
      </trkpt>
      <trkpt lat="44.37239" lon="5.16678">
        <ele>275.60000610352</ele>
        <time>2013-05-10T06:55:22Z</time>
      </trkpt>
      <trkpt lat="44.37241" lon="5.16686">
        <ele>275.60000610352</ele>
        <time>2013-05-10T06:55:23Z</time>
      </trkpt>
      <trkpt lat="44.37249" lon="5.16715">
        <ele>275.60000610352</ele>
        <time>2013-05-10T06:55:27Z</time>
      </trkpt>
      <trkpt lat="44.37259" lon="5.1674">
        <ele>276</ele>
        <time>2013-05-10T06:55:31Z</time>
      </trkpt>
      <trkpt lat="44.37262" lon="5.16747">
        <ele>276</ele>
        <time>2013-05-10T06:55:32Z</time>
      </trkpt>
      <trkpt lat="44.37266" lon="5.16754">
        <ele>276.39999389648</ele>
        <time>2013-05-10T06:55:33Z</time>
      </trkpt>
      <trkpt lat="44.37273" lon="5.16766">
        <ele>277.20001220703</ele>
        <time>2013-05-10T06:55:35Z</time>
      </trkpt>
      <trkpt lat="44.37276" lon="5.16771">
        <ele>277.60000610352</ele>
        <time>2013-05-10T06:55:36Z</time>
      </trkpt>
      <trkpt lat="44.37293" lon="5.16791">
        <ele>277.60000610352</ele>
        <time>2013-05-10T06:55:40Z</time>
      </trkpt>
      <trkpt lat="44.37318" lon="5.16826">
        <ele>277.60000610352</ele>
        <time>2013-05-10T06:55:46Z</time>
      </trkpt>
      <trkpt lat="44.37343" lon="5.16871">
        <ele>277.60000610352</ele>
        <time>2013-05-10T06:55:53Z</time>
      </trkpt>
      <trkpt lat="44.37349" lon="5.16897">
        <ele>277.60000610352</ele>
        <time>2013-05-10T06:55:57Z</time>
      </trkpt>
      <trkpt lat="44.3736" lon="5.16938">
        <ele>277.60000610352</ele>
        <time>2013-05-10T06:56:04Z</time>
      </trkpt>
      <trkpt lat="44.37366" lon="5.16957">
        <ele>277.60000610352</ele>
        <time>2013-05-10T06:56:07Z</time>
      </trkpt>
      <trkpt lat="44.37368" lon="5.16971">
        <ele>277.60000610352</ele>
        <time>2013-05-10T06:56:09Z</time>
      </trkpt>
      <trkpt lat="44.3737" lon="5.16999">
        <ele>277.60000610352</ele>
        <time>2013-05-10T06:56:13Z</time>
      </trkpt>
      <trkpt lat="44.37368" lon="5.17015">
        <ele>277.60000610352</ele>
        <time>2013-05-10T06:56:15Z</time>
      </trkpt>
      <trkpt lat="44.37368" lon="5.17051">
        <ele>278</ele>
        <time>2013-05-10T06:56:21Z</time>
      </trkpt>
      <trkpt lat="44.37371" lon="5.17055">
        <ele>278.39999389648</ele>
        <time>2013-05-10T06:56:22Z</time>
      </trkpt>
      <trkpt lat="44.37384" lon="5.1706">
        <ele>279.60000610352</ele>
        <time>2013-05-10T06:56:25Z</time>
      </trkpt>
      <trkpt lat="44.37415" lon="5.17061">
        <ele>279.60000610352</ele>
        <time>2013-05-10T06:56:31Z</time>
      </trkpt>
      <trkpt lat="44.37436" lon="5.17062">
        <ele>279.60000610352</ele>
        <time>2013-05-10T06:56:35Z</time>
      </trkpt>
      <trkpt lat="44.37445" lon="5.17064">
        <ele>279.60000610352</ele>
        <time>2013-05-10T06:56:37Z</time>
      </trkpt>
      <trkpt lat="44.37454" lon="5.1708">
        <ele>279.60000610352</ele>
        <time>2013-05-10T06:56:40Z</time>
      </trkpt>
      <trkpt lat="44.37465" lon="5.17117">
        <ele>279.60000610352</ele>
        <time>2013-05-10T06:56:46Z</time>
      </trkpt>
      <trkpt lat="44.37468" lon="5.17125">
        <ele>279.60000610352</ele>
        <time>2013-05-10T06:56:47Z</time>
      </trkpt>
      <trkpt lat="44.37481" lon="5.1715">
        <ele>279.60000610352</ele>
        <time>2013-05-10T06:56:50Z</time>
      </trkpt>
      <trkpt lat="44.37489" lon="5.17156">
        <ele>279.60000610352</ele>
        <time>2013-05-10T06:56:52Z</time>
      </trkpt>
      <trkpt lat="44.375" lon="5.17153">
        <ele>279.60000610352</ele>
        <time>2013-05-10T06:56:55Z</time>
      </trkpt>
      <trkpt lat="44.37504" lon="5.17149">
        <ele>279.60000610352</ele>
        <time>2013-05-10T06:56:56Z</time>
      </trkpt>
      <trkpt lat="44.37515" lon="5.17138">
        <ele>279.60000610352</ele>
        <time>2013-05-10T06:56:59Z</time>
      </trkpt>
      <trkpt lat="44.37521" lon="5.1713">
        <ele>280</ele>
        <time>2013-05-10T06:57:01Z</time>
      </trkpt>
      <trkpt lat="44.37531" lon="5.17118">
        <ele>281.39999389648</ele>
        <time>2013-05-10T06:57:04Z</time>
      </trkpt>
      <trkpt lat="44.37539" lon="5.17107">
        <ele>281.79998779297</ele>
        <time>2013-05-10T06:57:07Z</time>
      </trkpt>
      <trkpt lat="44.37546" lon="5.17095">
        <ele>281.79998779297</ele>
        <time>2013-05-10T06:57:10Z</time>
      </trkpt>
      <trkpt lat="44.37552" lon="5.17081">
        <ele>281.79998779297</ele>
        <time>2013-05-10T06:57:13Z</time>
      </trkpt>
      <trkpt lat="44.37564" lon="5.17053">
        <ele>281.79998779297</ele>
        <time>2013-05-10T06:57:19Z</time>
      </trkpt>
      <trkpt lat="44.37578" lon="5.17042">
        <ele>282.20001220703</ele>
        <time>2013-05-10T06:57:23Z</time>
      </trkpt>
      <trkpt lat="44.37581" lon="5.17041">
        <ele>282.20001220703</ele>
        <time>2013-05-10T06:57:24Z</time>
      </trkpt>
      <trkpt lat="44.3759" lon="5.17049">
        <ele>282.60000610352</ele>
        <time>2013-05-10T06:57:28Z</time>
      </trkpt>
      <trkpt lat="44.37592" lon="5.17053">
        <ele>282.60000610352</ele>
        <time>2013-05-10T06:57:29Z</time>
      </trkpt>
      <trkpt lat="44.37597" lon="5.17065">
        <ele>283.39999389648</ele>
        <time>2013-05-10T06:57:33Z</time>
      </trkpt>
      <trkpt lat="44.37599" lon="5.17072">
        <ele>283.39999389648</ele>
        <time>2013-05-10T06:57:35Z</time>
      </trkpt>
      <trkpt lat="44.37603" lon="5.17082">
        <ele>284.20001220703</ele>
        <time>2013-05-10T06:57:38Z</time>
      </trkpt>
      <trkpt lat="44.3761" lon="5.17097">
        <ele>284.20001220703</ele>
        <time>2013-05-10T06:57:42Z</time>
      </trkpt>
      <trkpt lat="44.3762" lon="5.171">
        <ele>285.20001220703</ele>
        <time>2013-05-10T06:57:45Z</time>
      </trkpt>
      <trkpt lat="44.37623" lon="5.17099">
        <ele>285.20001220703</ele>
        <time>2013-05-10T06:57:46Z</time>
      </trkpt>
      <trkpt lat="44.37632" lon="5.17093">
        <ele>287</ele>
        <time>2013-05-10T06:57:49Z</time>
      </trkpt>
      <trkpt lat="44.37638" lon="5.17088">
        <ele>289.79998779297</ele>
        <time>2013-05-10T06:57:51Z</time>
      </trkpt>
      <trkpt lat="44.37641" lon="5.17086">
        <ele>290.60000610352</ele>
        <time>2013-05-10T06:57:52Z</time>
      </trkpt>
      <trkpt lat="44.37666" lon="5.17066">
        <ele>290.60000610352</ele>
        <time>2013-05-10T06:58:01Z</time>
      </trkpt>
      <trkpt lat="44.37683" lon="5.17058">
        <ele>291</ele>
        <time>2013-05-10T06:58:06Z</time>
      </trkpt>
      <trkpt lat="44.37694" lon="5.17055">
        <ele>292.20001220703</ele>
        <time>2013-05-10T06:58:09Z</time>
      </trkpt>
      <trkpt lat="44.37706" lon="5.17053">
        <ele>292.60000610352</ele>
        <time>2013-05-10T06:58:12Z</time>
      </trkpt>
      <trkpt lat="44.37737" lon="5.17063">
        <ele>292.60000610352</ele>
        <time>2013-05-10T06:58:20Z</time>
      </trkpt>
      <trkpt lat="44.37746" lon="5.17064">
        <ele>292.60000610352</ele>
        <time>2013-05-10T06:58:22Z</time>
      </trkpt>
      <trkpt lat="44.37754" lon="5.17058">
        <ele>292.60000610352</ele>
        <time>2013-05-10T06:58:24Z</time>
      </trkpt>
      <trkpt lat="44.37759" lon="5.17041">
        <ele>292.60000610352</ele>
        <time>2013-05-10T06:58:27Z</time>
      </trkpt>
      <trkpt lat="44.3775" lon="5.17028">
        <ele>292.60000610352</ele>
        <time>2013-05-10T06:58:30Z</time>
      </trkpt>
      <trkpt lat="44.37733" lon="5.17024">
        <ele>292.60000610352</ele>
        <time>2013-05-10T06:58:34Z</time>
      </trkpt>
      <trkpt lat="44.3773" lon="5.17021">
        <ele>292.60000610352</ele>
        <time>2013-05-10T06:58:35Z</time>
      </trkpt>
      <trkpt lat="44.37724" lon="5.17011">
        <ele>292.60000610352</ele>
        <time>2013-05-10T06:58:37Z</time>
      </trkpt>
      <trkpt lat="44.37719" lon="5.16997">
        <ele>292.60000610352</ele>
        <time>2013-05-10T06:58:39Z</time>
      </trkpt>
      <trkpt lat="44.37711" lon="5.16969">
        <ele>292.60000610352</ele>
        <time>2013-05-10T06:58:43Z</time>
      </trkpt>
      <trkpt lat="44.37699" lon="5.1693">
        <ele>292.20001220703</ele>
        <time>2013-05-10T06:58:48Z</time>
      </trkpt>
      <trkpt lat="44.37695" lon="5.16914">
        <ele>291.39999389648</ele>
        <time>2013-05-10T06:58:50Z</time>
      </trkpt>
      <trkpt lat="44.37692" lon="5.16905">
        <ele>291</ele>
        <time>2013-05-10T06:58:51Z</time>
      </trkpt>
      <trkpt lat="44.3769" lon="5.16897">
        <ele>290.60000610352</ele>
        <time>2013-05-10T06:58:52Z</time>
      </trkpt>
      <trkpt lat="44.3768" lon="5.16863">
        <ele>290.60000610352</ele>
        <time>2013-05-10T06:58:56Z</time>
      </trkpt>
      <trkpt lat="44.37678" lon="5.16855">
        <ele>290.60000610352</ele>
        <time>2013-05-10T06:58:57Z</time>
      </trkpt>
      <trkpt lat="44.3767" lon="5.16824">
        <ele>290.60000610352</ele>
        <time>2013-05-10T06:59:01Z</time>
      </trkpt>
      <trkpt lat="44.37672" lon="5.16818">
        <ele>290.60000610352</ele>
        <time>2013-05-10T06:59:02Z</time>
      </trkpt>
      <trkpt lat="44.37681" lon="5.16802">
        <ele>290.60000610352</ele>
        <time>2013-05-10T06:59:05Z</time>
      </trkpt>
      <trkpt lat="44.37684" lon="5.168">
        <ele>290.60000610352</ele>
        <time>2013-05-10T06:59:06Z</time>
      </trkpt>
      <trkpt lat="44.37693" lon="5.16785">
        <ele>290.60000610352</ele>
        <time>2013-05-10T06:59:10Z</time>
      </trkpt>
      <trkpt lat="44.377" lon="5.16771">
        <ele>290.60000610352</ele>
        <time>2013-05-10T06:59:13Z</time>
      </trkpt>
      <trkpt lat="44.37717" lon="5.16758">
        <ele>290.60000610352</ele>
        <time>2013-05-10T06:59:18Z</time>
      </trkpt>
      <trkpt lat="44.37736" lon="5.16737">
        <ele>290.60000610352</ele>
        <time>2013-05-10T06:59:24Z</time>
      </trkpt>
      <trkpt lat="44.37742" lon="5.16727">
        <ele>291</ele>
        <time>2013-05-10T06:59:27Z</time>
      </trkpt>
      <trkpt lat="44.3775" lon="5.16718">
        <ele>292.60000610352</ele>
        <time>2013-05-10T06:59:31Z</time>
      </trkpt>
      <trkpt lat="44.37754" lon="5.16718">
        <ele>292.60000610352</ele>
        <time>2013-05-10T06:59:33Z</time>
      </trkpt>
      <trkpt lat="44.37757" lon="5.16721">
        <ele>292.60000610352</ele>
        <time>2013-05-10T06:59:34Z</time>
      </trkpt>
      <trkpt lat="44.37774" lon="5.16733">
        <ele>292.60000610352</ele>
        <time>2013-05-10T06:59:38Z</time>
      </trkpt>
      <trkpt lat="44.37799" lon="5.16722">
        <ele>292.60000610352</ele>
        <time>2013-05-10T06:59:43Z</time>
      </trkpt>
      <trkpt lat="44.3782" lon="5.16714">
        <ele>292.60000610352</ele>
        <time>2013-05-10T06:59:48Z</time>
      </trkpt>
      <trkpt lat="44.37841" lon="5.16716">
        <ele>292.60000610352</ele>
        <time>2013-05-10T06:59:54Z</time>
      </trkpt>
      <trkpt lat="44.37852" lon="5.16713">
        <ele>293.79998779297</ele>
        <time>2013-05-10T06:59:57Z</time>
      </trkpt>
      <trkpt lat="44.37863" lon="5.16709">
        <ele>294.60000610352</ele>
        <time>2013-05-10T07:00:00Z</time>
      </trkpt>
      <trkpt lat="44.3788" lon="5.16695">
        <ele>294.60000610352</ele>
        <time>2013-05-10T07:00:06Z</time>
      </trkpt>
      <trkpt lat="44.37888" lon="5.16687">
        <ele>295.20001220703</ele>
        <time>2013-05-10T07:00:09Z</time>
      </trkpt>
      <trkpt lat="44.37891" lon="5.16684">
        <ele>295.60000610352</ele>
        <time>2013-05-10T07:00:10Z</time>
      </trkpt>
      <trkpt lat="44.37898" lon="5.16678">
        <ele>296.39999389648</ele>
        <time>2013-05-10T07:00:12Z</time>
      </trkpt>
      <trkpt lat="44.37902" lon="5.16675">
        <ele>296.79998779297</ele>
        <time>2013-05-10T07:00:13Z</time>
      </trkpt>
      <trkpt lat="44.37922" lon="5.16659">
        <ele>296.79998779297</ele>
        <time>2013-05-10T07:00:19Z</time>
      </trkpt>
      <trkpt lat="44.37938" lon="5.16639">
        <ele>296.79998779297</ele>
        <time>2013-05-10T07:00:24Z</time>
      </trkpt>
      <trkpt lat="44.37942" lon="5.1663">
        <ele>297.60000610352</ele>
        <time>2013-05-10T07:00:26Z</time>
      </trkpt>
      <trkpt lat="44.37943" lon="5.16626">
        <ele>298</ele>
        <time>2013-05-10T07:00:27Z</time>
      </trkpt>
      <trkpt lat="44.37946" lon="5.16617">
        <ele>298.79998779297</ele>
        <time>2013-05-10T07:00:29Z</time>
      </trkpt>
      <trkpt lat="44.37948" lon="5.16608">
        <ele>298.79998779297</ele>
        <time>2013-05-10T07:00:31Z</time>
      </trkpt>
      <trkpt lat="44.37958" lon="5.16584">
        <ele>298.79998779297</ele>
        <time>2013-05-10T07:00:37Z</time>
      </trkpt>
      <trkpt lat="44.37968" lon="5.16571">
        <ele>299.39999389648</ele>
        <time>2013-05-10T07:00:41Z</time>
      </trkpt>
      <trkpt lat="44.3797" lon="5.16568">
        <ele>299.79998779297</ele>
        <time>2013-05-10T07:00:42Z</time>
      </trkpt>
      <trkpt lat="44.37977" lon="5.1656">
        <ele>301.20001220703</ele>
        <time>2013-05-10T07:00:45Z</time>
      </trkpt>
      <trkpt lat="44.37983" lon="5.16555">
        <ele>301.20001220703</ele>
        <time>2013-05-10T07:00:47Z</time>
      </trkpt>
      <trkpt lat="44.37993" lon="5.16545">
        <ele>301.60000610352</ele>
        <time>2013-05-10T07:00:51Z</time>
      </trkpt>
      <trkpt lat="44.38002" lon="5.16539">
        <ele>303</ele>
        <time>2013-05-10T07:00:54Z</time>
      </trkpt>
      <trkpt lat="44.38021" lon="5.1653">
        <ele>303.39999389648</ele>
        <time>2013-05-10T07:01:00Z</time>
      </trkpt>
      <trkpt lat="44.38031" lon="5.16522">
        <ele>304.20001220703</ele>
        <time>2013-05-10T07:01:04Z</time>
      </trkpt>
      <trkpt lat="44.38034" lon="5.1652">
        <ele>304.60000610352</ele>
        <time>2013-05-10T07:01:05Z</time>
      </trkpt>
      <trkpt lat="44.38041" lon="5.16515">
        <ele>305.39999389648</ele>
        <time>2013-05-10T07:01:07Z</time>
      </trkpt>
      <trkpt lat="44.38057" lon="5.16501">
        <ele>305.39999389648</ele>
        <time>2013-05-10T07:01:12Z</time>
      </trkpt>
      <trkpt lat="44.38065" lon="5.16494">
        <ele>305.39999389648</ele>
        <time>2013-05-10T07:01:14Z</time>
      </trkpt>
      <trkpt lat="44.38092" lon="5.16457">
        <ele>305.39999389648</ele>
        <time>2013-05-10T07:01:23Z</time>
      </trkpt>
      <trkpt lat="44.38103" lon="5.16442">
        <ele>305.79998779297</ele>
        <time>2013-05-10T07:01:26Z</time>
      </trkpt>
      <trkpt lat="44.38106" lon="5.16437">
        <ele>306.20001220703</ele>
        <time>2013-05-10T07:01:27Z</time>
      </trkpt>
      <trkpt lat="44.38113" lon="5.16429">
        <ele>307</ele>
        <time>2013-05-10T07:01:29Z</time>
      </trkpt>
      <trkpt lat="44.38137" lon="5.16399">
        <ele>307.39999389648</ele>
        <time>2013-05-10T07:01:37Z</time>
      </trkpt>
      <trkpt lat="44.38151" lon="5.16389">
        <ele>307.79998779297</ele>
        <time>2013-05-10T07:01:41Z</time>
      </trkpt>
      <trkpt lat="44.38161" lon="5.16381">
        <ele>309</ele>
        <time>2013-05-10T07:01:44Z</time>
      </trkpt>
      <trkpt lat="44.38165" lon="5.16378">
        <ele>309.39999389648</ele>
        <time>2013-05-10T07:01:45Z</time>
      </trkpt>
      <trkpt lat="44.38181" lon="5.16365">
        <ele>309.79998779297</ele>
        <time>2013-05-10T07:01:50Z</time>
      </trkpt>
      <trkpt lat="44.38186" lon="5.16356">
        <ele>310.60000610352</ele>
        <time>2013-05-10T07:01:52Z</time>
      </trkpt>
      <trkpt lat="44.38192" lon="5.16349">
        <ele>311.39999389648</ele>
        <time>2013-05-10T07:01:54Z</time>
      </trkpt>
      <trkpt lat="44.38211" lon="5.16317">
        <ele>311.39999389648</ele>
        <time>2013-05-10T07:02:01Z</time>
      </trkpt>
      <trkpt lat="44.38221" lon="5.16279">
        <ele>311.39999389648</ele>
        <time>2013-05-10T07:02:08Z</time>
      </trkpt>
      <trkpt lat="44.38226" lon="5.16258">
        <ele>311.79998779297</ele>
        <time>2013-05-10T07:02:13Z</time>
      </trkpt>
      <trkpt lat="44.38227" lon="5.1625">
        <ele>312.79998779297</ele>
        <time>2013-05-10T07:02:15Z</time>
      </trkpt>
      <trkpt lat="44.38233" lon="5.16222">
        <ele>313.60000610352</ele>
        <time>2013-05-10T07:02:22Z</time>
      </trkpt>
      <trkpt lat="44.38237" lon="5.16204">
        <ele>314</ele>
        <time>2013-05-10T07:02:26Z</time>
      </trkpt>
      <trkpt lat="44.3824" lon="5.162">
        <ele>314.39999389648</ele>
        <time>2013-05-10T07:02:27Z</time>
      </trkpt>
      <trkpt lat="44.38241" lon="5.16195">
        <ele>314.79998779297</ele>
        <time>2013-05-10T07:02:28Z</time>
      </trkpt>
      <trkpt lat="44.38244" lon="5.16186">
        <ele>315.60000610352</ele>
        <time>2013-05-10T07:02:30Z</time>
      </trkpt>
      <trkpt lat="44.38246" lon="5.1616">
        <ele>315.60000610352</ele>
        <time>2013-05-10T07:02:35Z</time>
      </trkpt>
      <trkpt lat="44.38248" lon="5.16147">
        <ele>315.60000610352</ele>
        <time>2013-05-10T07:02:37Z</time>
      </trkpt>
      <trkpt lat="44.38251" lon="5.16136">
        <ele>315.60000610352</ele>
        <time>2013-05-10T07:02:39Z</time>
      </trkpt>
      <trkpt lat="44.38256" lon="5.16117">
        <ele>315.60000610352</ele>
        <time>2013-05-10T07:02:44Z</time>
      </trkpt>
      <trkpt lat="44.3826" lon="5.16104">
        <ele>315.60000610352</ele>
        <time>2013-05-10T07:02:50Z</time>
      </trkpt>
      <trkpt lat="44.38264" lon="5.16083">
        <ele>315.60000610352</ele>
        <time>2013-05-10T07:02:57Z</time>
      </trkpt>
      <trkpt lat="44.38287" lon="5.16067">
        <ele>315.60000610352</ele>
        <time>2013-05-10T07:03:03Z</time>
      </trkpt>
      <trkpt lat="44.38291" lon="5.16067">
        <ele>315.60000610352</ele>
        <time>2013-05-10T07:03:04Z</time>
      </trkpt>
      <trkpt lat="44.38301" lon="5.1606">
        <ele>316.20001220703</ele>
        <time>2013-05-10T07:03:08Z</time>
      </trkpt>
      <trkpt lat="44.38312" lon="5.16049">
        <ele>318.20001220703</ele>
        <time>2013-05-10T07:03:15Z</time>
      </trkpt>
      <trkpt lat="44.3832" lon="5.16038">
        <ele>320.20001220703</ele>
        <time>2013-05-10T07:03:20Z</time>
      </trkpt>
      <trkpt lat="44.38324" lon="5.16031">
        <ele>320.60000610352</ele>
        <time>2013-05-10T07:03:23Z</time>
      </trkpt>
      <trkpt lat="44.38324" lon="5.16027">
        <ele>321</ele>
        <time>2013-05-10T07:03:24Z</time>
      </trkpt>
      <trkpt lat="44.38326" lon="5.16018">
        <ele>321.79998779297</ele>
        <time>2013-05-10T07:03:26Z</time>
      </trkpt>
      <trkpt lat="44.38335" lon="5.15979">
        <ele>322.20001220703</ele>
        <time>2013-05-10T07:03:36Z</time>
      </trkpt>
      <trkpt lat="44.38337" lon="5.15969">
        <ele>323</ele>
        <time>2013-05-10T07:03:39Z</time>
      </trkpt>
      <trkpt lat="44.38338" lon="5.15958">
        <ele>324.20001220703</ele>
        <time>2013-05-10T07:03:42Z</time>
      </trkpt>
      <trkpt lat="44.38345" lon="5.1593">
        <ele>324.20001220703</ele>
        <time>2013-05-10T07:03:51Z</time>
      </trkpt>
      <trkpt lat="44.38346" lon="5.15909">
        <ele>324.60000610352</ele>
        <time>2013-05-10T07:03:56Z</time>
      </trkpt>
      <trkpt lat="44.38346" lon="5.15898">
        <ele>325.79998779297</ele>
        <time>2013-05-10T07:03:59Z</time>
      </trkpt>
      <trkpt lat="44.38341" lon="5.15879">
        <ele>326.20001220703</ele>
        <time>2013-05-10T07:04:03Z</time>
      </trkpt>
      <trkpt lat="44.3833" lon="5.15857">
        <ele>326.20001220703</ele>
        <time>2013-05-10T07:04:08Z</time>
      </trkpt>
      <trkpt lat="44.38329" lon="5.15855">
        <ele>325.79998779297</ele>
        <time>2013-05-10T07:04:09Z</time>
      </trkpt>
      <trkpt lat="44.38327" lon="5.15849">
        <ele>325</ele>
        <time>2013-05-10T07:04:11Z</time>
      </trkpt>
      <trkpt lat="44.38333" lon="5.15837">
        <ele>324</ele>
        <time>2013-05-10T07:04:16Z</time>
      </trkpt>
      <trkpt lat="44.38341" lon="5.15839">
        <ele>325</ele>
        <time>2013-05-10T07:04:20Z</time>
      </trkpt>
      <trkpt lat="44.38343" lon="5.1584">
        <ele>325.60000610352</ele>
        <time>2013-05-10T07:04:21Z</time>
      </trkpt>
      <trkpt lat="44.3835" lon="5.1584">
        <ele>326.60000610352</ele>
        <time>2013-05-10T07:04:24Z</time>
      </trkpt>
      <trkpt lat="44.38354" lon="5.15841">
        <ele>327</ele>
        <time>2013-05-10T07:04:26Z</time>
      </trkpt>
      <trkpt lat="44.3836" lon="5.15839">
        <ele>328.60000610352</ele>
        <time>2013-05-10T07:04:29Z</time>
      </trkpt>
      <trkpt lat="44.38361" lon="5.15836">
        <ele>329</ele>
        <time>2013-05-10T07:04:30Z</time>
      </trkpt>
      <trkpt lat="44.38361" lon="5.15823">
        <ele>329</ele>
        <time>2013-05-10T07:04:35Z</time>
      </trkpt>
      <trkpt lat="44.38361" lon="5.1582">
        <ele>329.60000610352</ele>
        <time>2013-05-10T07:04:36Z</time>
      </trkpt>
      <trkpt lat="44.38359" lon="5.15814">
        <ele>330.39999389648</ele>
        <time>2013-05-10T07:04:38Z</time>
      </trkpt>
      <trkpt lat="44.38359" lon="5.1581">
        <ele>331.20001220703</ele>
        <time>2013-05-10T07:04:40Z</time>
      </trkpt>
      <trkpt lat="44.38358" lon="5.15788">
        <ele>331.60000610352</ele>
        <time>2013-05-10T07:04:49Z</time>
      </trkpt>
      <trkpt lat="44.38359" lon="5.1578">
        <ele>332.79998779297</ele>
        <time>2013-05-10T07:04:52Z</time>
      </trkpt>
      <trkpt lat="44.38358" lon="5.15759">
        <ele>333.20001220703</ele>
        <time>2013-05-10T07:05:01Z</time>
      </trkpt>
      <trkpt lat="44.38358" lon="5.15749">
        <ele>334.39999389648</ele>
        <time>2013-05-10T07:05:05Z</time>
      </trkpt>
      <trkpt lat="44.38359" lon="5.15739">
        <ele>335.20001220703</ele>
        <time>2013-05-10T07:05:09Z</time>
      </trkpt>
      <trkpt lat="44.38363" lon="5.15717">
        <ele>335.79998779297</ele>
        <time>2013-05-10T07:05:17Z</time>
      </trkpt>
      <trkpt lat="44.38363" lon="5.15708">
        <ele>337.20001220703</ele>
        <time>2013-05-10T07:05:20Z</time>
      </trkpt>
      <trkpt lat="44.38364" lon="5.15696">
        <ele>338</ele>
        <time>2013-05-10T07:05:25Z</time>
      </trkpt>
      <trkpt lat="44.38366" lon="5.15689">
        <ele>339.20001220703</ele>
        <time>2013-05-10T07:05:28Z</time>
      </trkpt>
      <trkpt lat="44.38366" lon="5.15677">
        <ele>340.20001220703</ele>
        <time>2013-05-10T07:05:33Z</time>
      </trkpt>
      <trkpt lat="44.38366" lon="5.15668">
        <ele>341.79998779297</ele>
        <time>2013-05-10T07:05:37Z</time>
      </trkpt>
      <trkpt lat="44.38367" lon="5.1566">
        <ele>342.60000610352</ele>
        <time>2013-05-10T07:05:41Z</time>
      </trkpt>
      <trkpt lat="44.38369" lon="5.15648">
        <ele>344.39999389648</ele>
        <time>2013-05-10T07:05:46Z</time>
      </trkpt>
      <trkpt lat="44.3837" lon="5.15643">
        <ele>345.20001220703</ele>
        <time>2013-05-10T07:05:48Z</time>
      </trkpt>
      <trkpt lat="44.38372" lon="5.15638">
        <ele>346</ele>
        <time>2013-05-10T07:05:50Z</time>
      </trkpt>
      <trkpt lat="44.3838" lon="5.15626">
        <ele>346.39999389648</ele>
        <time>2013-05-10T07:05:56Z</time>
      </trkpt>
      <trkpt lat="44.38384" lon="5.1562">
        <ele>347.60000610352</ele>
        <time>2013-05-10T07:05:59Z</time>
      </trkpt>
      <trkpt lat="44.38391" lon="5.15607">
        <ele>348</ele>
        <time>2013-05-10T07:06:05Z</time>
      </trkpt>
      <trkpt lat="44.38396" lon="5.15599">
        <ele>349</ele>
        <time>2013-05-10T07:06:09Z</time>
      </trkpt>
      <trkpt lat="44.384" lon="5.15596">
        <ele>350</ele>
        <time>2013-05-10T07:06:11Z</time>
      </trkpt>
      <trkpt lat="44.38413" lon="5.15584">
        <ele>351</ele>
        <time>2013-05-10T07:06:18Z</time>
      </trkpt>
      <trkpt lat="44.38415" lon="5.15578">
        <ele>351.79998779297</ele>
        <time>2013-05-10T07:06:20Z</time>
      </trkpt>
      <trkpt lat="44.38422" lon="5.15555">
        <ele>352.60000610352</ele>
        <time>2013-05-10T07:06:27Z</time>
      </trkpt>
      <trkpt lat="44.38428" lon="5.15532">
        <ele>352.60000610352</ele>
        <time>2013-05-10T07:06:34Z</time>
      </trkpt>
      <trkpt lat="44.38431" lon="5.15518">
        <ele>353</ele>
        <time>2013-05-10T07:06:38Z</time>
      </trkpt>
      <trkpt lat="44.38432" lon="5.15508">
        <ele>354.20001220703</ele>
        <time>2013-05-10T07:06:41Z</time>
      </trkpt>
      <trkpt lat="44.38434" lon="5.15498">
        <ele>354.60000610352</ele>
        <time>2013-05-10T07:06:44Z</time>
      </trkpt>
      <trkpt lat="44.38435" lon="5.15489">
        <ele>355.60000610352</ele>
        <time>2013-05-10T07:06:47Z</time>
      </trkpt>
      <trkpt lat="44.38437" lon="5.15479">
        <ele>357</ele>
        <time>2013-05-10T07:06:50Z</time>
      </trkpt>
      <trkpt lat="44.38443" lon="5.1545">
        <ele>357</ele>
        <time>2013-05-10T07:06:59Z</time>
      </trkpt>
      <trkpt lat="44.38444" lon="5.15443">
        <ele>357.60000610352</ele>
        <time>2013-05-10T07:07:01Z</time>
      </trkpt>
      <trkpt lat="44.38445" lon="5.1544">
        <ele>358</ele>
        <time>2013-05-10T07:07:02Z</time>
      </trkpt>
      <trkpt lat="44.38447" lon="5.15428">
        <ele>359.20001220703</ele>
        <time>2013-05-10T07:07:05Z</time>
      </trkpt>
      <trkpt lat="44.38453" lon="5.15416">
        <ele>359.20001220703</ele>
        <time>2013-05-10T07:07:09Z</time>
      </trkpt>
      <trkpt lat="44.38475" lon="5.15401">
        <ele>359.60000610352</ele>
        <time>2013-05-10T07:07:18Z</time>
      </trkpt>
      <trkpt lat="44.3848" lon="5.15399">
        <ele>360.60000610352</ele>
        <time>2013-05-10T07:07:20Z</time>
      </trkpt>
      <trkpt lat="44.38482" lon="5.15398">
        <ele>361</ele>
        <time>2013-05-10T07:07:21Z</time>
      </trkpt>
      <trkpt lat="44.38492" lon="5.15388">
        <ele>361.39999389648</ele>
        <time>2013-05-10T07:07:25Z</time>
      </trkpt>
      <trkpt lat="44.38498" lon="5.15374">
        <ele>361.39999389648</ele>
        <time>2013-05-10T07:07:29Z</time>
      </trkpt>
      <trkpt lat="44.38501" lon="5.15367">
        <ele>361.39999389648</ele>
        <time>2013-05-10T07:07:31Z</time>
      </trkpt>
      <trkpt lat="44.38504" lon="5.15359">
        <ele>361.79998779297</ele>
        <time>2013-05-10T07:07:33Z</time>
      </trkpt>
      <trkpt lat="44.38506" lon="5.15348">
        <ele>363.20001220703</ele>
        <time>2013-05-10T07:07:36Z</time>
      </trkpt>
      <trkpt lat="44.3851" lon="5.15315">
        <ele>363.60000610352</ele>
        <time>2013-05-10T07:07:44Z</time>
      </trkpt>
      <trkpt lat="44.38512" lon="5.15307">
        <ele>364</ele>
        <time>2013-05-10T07:07:46Z</time>
      </trkpt>
      <trkpt lat="44.38514" lon="5.153">
        <ele>365</ele>
        <time>2013-05-10T07:07:48Z</time>
      </trkpt>
      <trkpt lat="44.38523" lon="5.15271">
        <ele>366.20001220703</ele>
        <time>2013-05-10T07:07:57Z</time>
      </trkpt>
      <trkpt lat="44.38524" lon="5.15268">
        <ele>366.60000610352</ele>
        <time>2013-05-10T07:07:58Z</time>
      </trkpt>
      <trkpt lat="44.38525" lon="5.15258">
        <ele>367.79998779297</ele>
        <time>2013-05-10T07:08:01Z</time>
      </trkpt>
      <trkpt lat="44.38526" lon="5.15248">
        <ele>367.79998779297</ele>
        <time>2013-05-10T07:08:04Z</time>
      </trkpt>
      <trkpt lat="44.38531" lon="5.15228">
        <ele>368.39999389648</ele>
        <time>2013-05-10T07:08:10Z</time>
      </trkpt>
      <trkpt lat="44.38534" lon="5.15219">
        <ele>369.79998779297</ele>
        <time>2013-05-10T07:08:13Z</time>
      </trkpt>
      <trkpt lat="44.38541" lon="5.15211">
        <ele>370.39999389648</ele>
        <time>2013-05-10T07:08:17Z</time>
      </trkpt>
      <trkpt lat="44.38546" lon="5.1521">
        <ele>370.79998779297</ele>
        <time>2013-05-10T07:08:20Z</time>
      </trkpt>
      <trkpt lat="44.38551" lon="5.1521">
        <ele>371.60000610352</ele>
        <time>2013-05-10T07:08:22Z</time>
      </trkpt>
      <trkpt lat="44.38569" lon="5.15213">
        <ele>372.39999389648</ele>
        <time>2013-05-10T07:08:29Z</time>
      </trkpt>
      <trkpt lat="44.38574" lon="5.15214">
        <ele>372.79998779297</ele>
        <time>2013-05-10T07:08:31Z</time>
      </trkpt>
      <trkpt lat="44.38582" lon="5.15214">
        <ele>374.39999389648</ele>
        <time>2013-05-10T07:08:34Z</time>
      </trkpt>
      <trkpt lat="44.38598" lon="5.15193">
        <ele>374.79998779297</ele>
        <time>2013-05-10T07:08:42Z</time>
      </trkpt>
      <trkpt lat="44.38599" lon="5.15189">
        <ele>375.20001220703</ele>
        <time>2013-05-10T07:08:43Z</time>
      </trkpt>
      <trkpt lat="44.38601" lon="5.15182">
        <ele>376</ele>
        <time>2013-05-10T07:08:45Z</time>
      </trkpt>
      <trkpt lat="44.38602" lon="5.15179">
        <ele>376.39999389648</ele>
        <time>2013-05-10T07:08:46Z</time>
      </trkpt>
      <trkpt lat="44.38606" lon="5.15169">
        <ele>377</ele>
        <time>2013-05-10T07:08:49Z</time>
      </trkpt>
      <trkpt lat="44.38619" lon="5.15146">
        <ele>377.39999389648</ele>
        <time>2013-05-10T07:08:56Z</time>
      </trkpt>
      <trkpt lat="44.38621" lon="5.15143">
        <ele>377.79998779297</ele>
        <time>2013-05-10T07:08:57Z</time>
      </trkpt>
      <trkpt lat="44.38625" lon="5.15137">
        <ele>378.60000610352</ele>
        <time>2013-05-10T07:08:59Z</time>
      </trkpt>
      <trkpt lat="44.38634" lon="5.15123">
        <ele>379</ele>
        <time>2013-05-10T07:09:03Z</time>
      </trkpt>
      <trkpt lat="44.38646" lon="5.15097">
        <ele>379</ele>
        <time>2013-05-10T07:09:09Z</time>
      </trkpt>
      <trkpt lat="44.38651" lon="5.15073">
        <ele>379</ele>
        <time>2013-05-10T07:09:13Z</time>
      </trkpt>
      <trkpt lat="44.38653" lon="5.15061">
        <ele>379</ele>
        <time>2013-05-10T07:09:15Z</time>
      </trkpt>
      <trkpt lat="44.38655" lon="5.15048">
        <ele>379</ele>
        <time>2013-05-10T07:09:17Z</time>
      </trkpt>
      <trkpt lat="44.38658" lon="5.15022">
        <ele>379</ele>
        <time>2013-05-10T07:09:21Z</time>
      </trkpt>
      <trkpt lat="44.38662" lon="5.15009">
        <ele>379</ele>
        <time>2013-05-10T07:09:23Z</time>
      </trkpt>
      <trkpt lat="44.38667" lon="5.14989">
        <ele>379</ele>
        <time>2013-05-10T07:09:26Z</time>
      </trkpt>
      <trkpt lat="44.38677" lon="5.14947">
        <ele>379</ele>
        <time>2013-05-10T07:09:32Z</time>
      </trkpt>
      <trkpt lat="44.38691" lon="5.14906">
        <ele>379</ele>
        <time>2013-05-10T07:09:38Z</time>
      </trkpt>
      <trkpt lat="44.38704" lon="5.14876">
        <ele>379</ele>
        <time>2013-05-10T07:09:42Z</time>
      </trkpt>
      <trkpt lat="44.38708" lon="5.14869">
        <ele>379</ele>
        <time>2013-05-10T07:09:43Z</time>
      </trkpt>
      <trkpt lat="44.38726" lon="5.14842">
        <ele>379</ele>
        <time>2013-05-10T07:09:47Z</time>
      </trkpt>
      <trkpt lat="44.38729" lon="5.14834">
        <ele>379</ele>
        <time>2013-05-10T07:09:48Z</time>
      </trkpt>
      <trkpt lat="44.38736" lon="5.14817">
        <ele>378.60000610352</ele>
        <time>2013-05-10T07:09:50Z</time>
      </trkpt>
      <trkpt lat="44.38739" lon="5.14807">
        <ele>378.20001220703</ele>
        <time>2013-05-10T07:09:51Z</time>
      </trkpt>
      <trkpt lat="44.3874" lon="5.14797">
        <ele>377.79998779297</ele>
        <time>2013-05-10T07:09:52Z</time>
      </trkpt>
      <trkpt lat="44.38741" lon="5.14789">
        <ele>377.20001220703</ele>
        <time>2013-05-10T07:09:53Z</time>
      </trkpt>
      <trkpt lat="44.38742" lon="5.1478">
        <ele>376.79998779297</ele>
        <time>2013-05-10T07:09:54Z</time>
      </trkpt>
      <trkpt lat="44.38745" lon="5.14742">
        <ele>376.79998779297</ele>
        <time>2013-05-10T07:09:58Z</time>
      </trkpt>
      <trkpt lat="44.38745" lon="5.14733">
        <ele>376.79998779297</ele>
        <time>2013-05-10T07:09:59Z</time>
      </trkpt>
      <trkpt lat="44.38763" lon="5.14689">
        <ele>376.79998779297</ele>
        <time>2013-05-10T07:10:05Z</time>
      </trkpt>
      <trkpt lat="44.38777" lon="5.14668">
        <ele>376.79998779297</ele>
        <time>2013-05-10T07:10:09Z</time>
      </trkpt>
      <trkpt lat="44.38784" lon="5.14654">
        <ele>377.20001220703</ele>
        <time>2013-05-10T07:10:12Z</time>
      </trkpt>
      <trkpt lat="44.38787" lon="5.14646">
        <ele>378</ele>
        <time>2013-05-10T07:10:14Z</time>
      </trkpt>
      <trkpt lat="44.38791" lon="5.14638">
        <ele>379</ele>
        <time>2013-05-10T07:10:16Z</time>
      </trkpt>
      <trkpt lat="44.38801" lon="5.14617">
        <ele>379</ele>
        <time>2013-05-10T07:10:21Z</time>
      </trkpt>
      <trkpt lat="44.38805" lon="5.14608">
        <ele>379.39999389648</ele>
        <time>2013-05-10T07:10:23Z</time>
      </trkpt>
      <trkpt lat="44.3881" lon="5.14597">
        <ele>380.20001220703</ele>
        <time>2013-05-10T07:10:25Z</time>
      </trkpt>
      <trkpt lat="44.38812" lon="5.14592">
        <ele>380.60000610352</ele>
        <time>2013-05-10T07:10:26Z</time>
      </trkpt>
      <trkpt lat="44.38815" lon="5.14588">
        <ele>381</ele>
        <time>2013-05-10T07:10:27Z</time>
      </trkpt>
      <trkpt lat="44.3882" lon="5.1458">
        <ele>381</ele>
        <time>2013-05-10T07:10:29Z</time>
      </trkpt>
      <trkpt lat="44.38829" lon="5.14563">
        <ele>381.39999389648</ele>
        <time>2013-05-10T07:10:33Z</time>
      </trkpt>
      <trkpt lat="44.38831" lon="5.1456">
        <ele>382</ele>
        <time>2013-05-10T07:10:34Z</time>
      </trkpt>
      <trkpt lat="44.38839" lon="5.14547">
        <ele>383.20001220703</ele>
        <time>2013-05-10T07:10:37Z</time>
      </trkpt>
      <trkpt lat="44.38855" lon="5.14523">
        <ele>383.20001220703</ele>
        <time>2013-05-10T07:10:44Z</time>
      </trkpt>
      <trkpt lat="44.38857" lon="5.14519">
        <ele>383.60000610352</ele>
        <time>2013-05-10T07:10:45Z</time>
      </trkpt>
      <trkpt lat="44.38862" lon="5.14513">
        <ele>384.39999389648</ele>
        <time>2013-05-10T07:10:47Z</time>
      </trkpt>
      <trkpt lat="44.38866" lon="5.14507">
        <ele>385.20001220703</ele>
        <time>2013-05-10T07:10:49Z</time>
      </trkpt>
      <trkpt lat="44.38871" lon="5.14497">
        <ele>385.20001220703</ele>
        <time>2013-05-10T07:10:52Z</time>
      </trkpt>
      <trkpt lat="44.38878" lon="5.14482">
        <ele>385.60000610352</ele>
        <time>2013-05-10T07:10:56Z</time>
      </trkpt>
      <trkpt lat="44.38879" lon="5.14478">
        <ele>386</ele>
        <time>2013-05-10T07:10:57Z</time>
      </trkpt>
      <trkpt lat="44.38881" lon="5.14475">
        <ele>386.39999389648</ele>
        <time>2013-05-10T07:10:58Z</time>
      </trkpt>
      <trkpt lat="44.38885" lon="5.14468">
        <ele>387.39999389648</ele>
        <time>2013-05-10T07:11:00Z</time>
      </trkpt>
      <trkpt lat="44.38895" lon="5.14454">
        <ele>387.39999389648</ele>
        <time>2013-05-10T07:11:06Z</time>
      </trkpt>
      <trkpt lat="44.38899" lon="5.14446">
        <ele>387.79998779297</ele>
        <time>2013-05-10T07:11:09Z</time>
      </trkpt>
      <trkpt lat="44.389" lon="5.14443">
        <ele>388.20001220703</ele>
        <time>2013-05-10T07:11:10Z</time>
      </trkpt>
      <trkpt lat="44.38903" lon="5.14437">
        <ele>389.20001220703</ele>
        <time>2013-05-10T07:11:12Z</time>
      </trkpt>
      <trkpt lat="44.38906" lon="5.14427">
        <ele>389.60000610352</ele>
        <time>2013-05-10T07:11:15Z</time>
      </trkpt>
      <trkpt lat="44.38911" lon="5.14398">
        <ele>389.60000610352</ele>
        <time>2013-05-10T07:11:22Z</time>
      </trkpt>
      <trkpt lat="44.38911" lon="5.14384">
        <ele>389.60000610352</ele>
        <time>2013-05-10T07:11:25Z</time>
      </trkpt>
      <trkpt lat="44.38909" lon="5.14378">
        <ele>389.60000610352</ele>
        <time>2013-05-10T07:11:26Z</time>
      </trkpt>
      <trkpt lat="44.38901" lon="5.14362">
        <ele>389.60000610352</ele>
        <time>2013-05-10T07:11:29Z</time>
      </trkpt>
      <trkpt lat="44.38896" lon="5.14351">
        <ele>390</ele>
        <time>2013-05-10T07:11:31Z</time>
      </trkpt>
      <trkpt lat="44.38894" lon="5.14345">
        <ele>390.39999389648</ele>
        <time>2013-05-10T07:11:32Z</time>
      </trkpt>
      <trkpt lat="44.38894" lon="5.14338">
        <ele>390.79998779297</ele>
        <time>2013-05-10T07:11:33Z</time>
      </trkpt>
      <trkpt lat="44.38898" lon="5.14325">
        <ele>391.60000610352</ele>
        <time>2013-05-10T07:11:35Z</time>
      </trkpt>
      <trkpt lat="44.38901" lon="5.1432">
        <ele>391.60000610352</ele>
        <time>2013-05-10T07:11:36Z</time>
      </trkpt>
      <trkpt lat="44.3892" lon="5.14293">
        <ele>391.60000610352</ele>
        <time>2013-05-10T07:11:41Z</time>
      </trkpt>
      <trkpt lat="44.38927" lon="5.14271">
        <ele>391.60000610352</ele>
        <time>2013-05-10T07:11:44Z</time>
      </trkpt>
      <trkpt lat="44.38942" lon="5.14263">
        <ele>391.60000610352</ele>
        <time>2013-05-10T07:11:47Z</time>
      </trkpt>
      <trkpt lat="44.38952" lon="5.14263">
        <ele>391.60000610352</ele>
        <time>2013-05-10T07:11:49Z</time>
      </trkpt>
      <trkpt lat="44.38975" lon="5.14251">
        <ele>391.60000610352</ele>
        <time>2013-05-10T07:11:53Z</time>
      </trkpt>
      <trkpt lat="44.38991" lon="5.1422">
        <ele>391.60000610352</ele>
        <time>2013-05-10T07:11:58Z</time>
      </trkpt>
      <trkpt lat="44.38998" lon="5.14202">
        <ele>392</ele>
        <time>2013-05-10T07:12:01Z</time>
      </trkpt>
      <trkpt lat="44.39" lon="5.14196">
        <ele>392.39999389648</ele>
        <time>2013-05-10T07:12:02Z</time>
      </trkpt>
      <trkpt lat="44.39001" lon="5.1419">
        <ele>392.79998779297</ele>
        <time>2013-05-10T07:12:03Z</time>
      </trkpt>
      <trkpt lat="44.39002" lon="5.14184">
        <ele>393.39999389648</ele>
        <time>2013-05-10T07:12:04Z</time>
      </trkpt>
      <trkpt lat="44.39005" lon="5.14179">
        <ele>393.79998779297</ele>
        <time>2013-05-10T07:12:05Z</time>
      </trkpt>
      <trkpt lat="44.39015" lon="5.14142">
        <ele>393.79998779297</ele>
        <time>2013-05-10T07:12:13Z</time>
      </trkpt>
      <trkpt lat="44.39027" lon="5.14133">
        <ele>394.20001220703</ele>
        <time>2013-05-10T07:12:17Z</time>
      </trkpt>
      <trkpt lat="44.39031" lon="5.14132">
        <ele>394.60000610352</ele>
        <time>2013-05-10T07:12:18Z</time>
      </trkpt>
      <trkpt lat="44.39052" lon="5.14125">
        <ele>396.39999389648</ele>
        <time>2013-05-10T07:12:26Z</time>
      </trkpt>
      <trkpt lat="44.39061" lon="5.14118">
        <ele>398</ele>
        <time>2013-05-10T07:12:30Z</time>
      </trkpt>
      <trkpt lat="44.39071" lon="5.14106">
        <ele>398</ele>
        <time>2013-05-10T07:12:34Z</time>
      </trkpt>
      <trkpt lat="44.39075" lon="5.14099">
        <ele>398</ele>
        <time>2013-05-10T07:12:36Z</time>
      </trkpt>
      <trkpt lat="44.39082" lon="5.14088">
        <ele>399</ele>
        <time>2013-05-10T07:12:39Z</time>
      </trkpt>
      <trkpt lat="44.39087" lon="5.14078">
        <ele>400.20001220703</ele>
        <time>2013-05-10T07:12:42Z</time>
      </trkpt>
      <trkpt lat="44.39098" lon="5.14062">
        <ele>400.60000610352</ele>
        <time>2013-05-10T07:12:48Z</time>
      </trkpt>
      <trkpt lat="44.39101" lon="5.1406">
        <ele>401.39999389648</ele>
        <time>2013-05-10T07:12:50Z</time>
      </trkpt>
      <trkpt lat="44.39116" lon="5.14051">
        <ele>402.39999389648</ele>
        <time>2013-05-10T07:12:56Z</time>
      </trkpt>
      <trkpt lat="44.3912" lon="5.1405">
        <ele>402.79998779297</ele>
        <time>2013-05-10T07:12:58Z</time>
      </trkpt>
      <trkpt lat="44.39122" lon="5.14047">
        <ele>403.20001220703</ele>
        <time>2013-05-10T07:12:59Z</time>
      </trkpt>
      <trkpt lat="44.39132" lon="5.14026">
        <ele>404.39999389648</ele>
        <time>2013-05-10T07:13:07Z</time>
      </trkpt>
      <trkpt lat="44.39139" lon="5.14003">
        <ele>404.79998779297</ele>
        <time>2013-05-10T07:13:14Z</time>
      </trkpt>
      <trkpt lat="44.3914" lon="5.13999">
        <ele>405.20001220703</ele>
        <time>2013-05-10T07:13:15Z</time>
      </trkpt>
      <trkpt lat="44.39157" lon="5.13978">
        <ele>406.39999389648</ele>
        <time>2013-05-10T07:13:25Z</time>
      </trkpt>
      <trkpt lat="44.39162" lon="5.13974">
        <ele>407</ele>
        <time>2013-05-10T07:13:28Z</time>
      </trkpt>
      <trkpt lat="44.39171" lon="5.13968">
        <ele>408.20001220703</ele>
        <time>2013-05-10T07:13:31Z</time>
      </trkpt>
      <trkpt lat="44.39182" lon="5.13952">
        <ele>408.60000610352</ele>
        <time>2013-05-10T07:13:38Z</time>
      </trkpt>
      <trkpt lat="44.39184" lon="5.1395">
        <ele>409.20001220703</ele>
        <time>2013-05-10T07:13:39Z</time>
      </trkpt>
      <trkpt lat="44.39191" lon="5.13942">
        <ele>410.39999389648</ele>
        <time>2013-05-10T07:13:42Z</time>
      </trkpt>
      <trkpt lat="44.39192" lon="5.1394">
        <ele>411</ele>
        <time>2013-05-10T07:13:43Z</time>
      </trkpt>
      <trkpt lat="44.392" lon="5.13926">
        <ele>411</ele>
        <time>2013-05-10T07:13:48Z</time>
      </trkpt>
      <trkpt lat="44.39205" lon="5.13918">
        <ele>412.60000610352</ele>
        <time>2013-05-10T07:13:51Z</time>
      </trkpt>
      <trkpt lat="44.39208" lon="5.13909">
        <ele>413</ele>
        <time>2013-05-10T07:13:55Z</time>
      </trkpt>
      <trkpt lat="44.39217" lon="5.13895">
        <ele>413.39999389648</ele>
        <time>2013-05-10T07:14:00Z</time>
      </trkpt>
      <trkpt lat="44.39218" lon="5.13889">
        <ele>414.20001220703</ele>
        <time>2013-05-10T07:14:02Z</time>
      </trkpt>
      <trkpt lat="44.39219" lon="5.13871">
        <ele>415</ele>
        <time>2013-05-10T07:14:09Z</time>
      </trkpt>
      <trkpt lat="44.39218" lon="5.13868">
        <ele>415</ele>
        <time>2013-05-10T07:14:10Z</time>
      </trkpt>
      <trkpt lat="44.39214" lon="5.1386">
        <ele>416</ele>
        <time>2013-05-10T07:14:13Z</time>
      </trkpt>
      <trkpt lat="44.39209" lon="5.13856">
        <ele>416.79998779297</ele>
        <time>2013-05-10T07:14:15Z</time>
      </trkpt>
      <trkpt lat="44.39197" lon="5.13859">
        <ele>417.60000610352</ele>
        <time>2013-05-10T07:14:21Z</time>
      </trkpt>
      <trkpt lat="44.39195" lon="5.13861">
        <ele>418</ele>
        <time>2013-05-10T07:14:22Z</time>
      </trkpt>
      <trkpt lat="44.39189" lon="5.13872">
        <ele>419.20001220703</ele>
        <time>2013-05-10T07:14:26Z</time>
      </trkpt>
      <trkpt lat="44.39186" lon="5.1389">
        <ele>419.20001220703</ele>
        <time>2013-05-10T07:14:32Z</time>
      </trkpt>
      <trkpt lat="44.39188" lon="5.139">
        <ele>419.60000610352</ele>
        <time>2013-05-10T07:14:35Z</time>
      </trkpt>
      <trkpt lat="44.39188" lon="5.13912">
        <ele>421.39999389648</ele>
        <time>2013-05-10T07:14:39Z</time>
      </trkpt>
      <trkpt lat="44.39177" lon="5.13924">
        <ele>421.79998779297</ele>
        <time>2013-05-10T07:14:45Z</time>
      </trkpt>
      <trkpt lat="44.39157" lon="5.13941">
        <ele>423.60000610352</ele>
        <time>2013-05-10T07:14:55Z</time>
      </trkpt>
      <trkpt lat="44.39149" lon="5.13947">
        <ele>425.60000610352</ele>
        <time>2013-05-10T07:15:00Z</time>
      </trkpt>
      <trkpt lat="44.39135" lon="5.13954">
        <ele>426</ele>
        <time>2013-05-10T07:15:07Z</time>
      </trkpt>
      <trkpt lat="44.3913" lon="5.13958">
        <ele>427.20001220703</ele>
        <time>2013-05-10T07:15:10Z</time>
      </trkpt>
      <trkpt lat="44.39124" lon="5.13964">
        <ele>427.60000610352</ele>
        <time>2013-05-10T07:15:14Z</time>
      </trkpt>
      <trkpt lat="44.39119" lon="5.1397">
        <ele>428.20001220703</ele>
        <time>2013-05-10T07:15:17Z</time>
      </trkpt>
      <trkpt lat="44.39117" lon="5.13972">
        <ele>428.60000610352</ele>
        <time>2013-05-10T07:15:18Z</time>
      </trkpt>
      <trkpt lat="44.39109" lon="5.13975">
        <ele>429.79998779297</ele>
        <time>2013-05-10T07:15:21Z</time>
      </trkpt>
      <trkpt lat="44.39094" lon="5.13962">
        <ele>429.79998779297</ele>
        <time>2013-05-10T07:15:27Z</time>
      </trkpt>
      <trkpt lat="44.39095" lon="5.13949">
        <ele>430.20001220703</ele>
        <time>2013-05-10T07:15:31Z</time>
      </trkpt>
      <trkpt lat="44.39095" lon="5.1394">
        <ele>432</ele>
        <time>2013-05-10T07:15:35Z</time>
      </trkpt>
      <trkpt lat="44.39098" lon="5.1393">
        <ele>432</ele>
        <time>2013-05-10T07:15:39Z</time>
      </trkpt>
      <trkpt lat="44.39103" lon="5.13915">
        <ele>432.60000610352</ele>
        <time>2013-05-10T07:15:45Z</time>
      </trkpt>
      <trkpt lat="44.39106" lon="5.13908">
        <ele>434</ele>
        <time>2013-05-10T07:15:48Z</time>
      </trkpt>
      <trkpt lat="44.3911" lon="5.13887">
        <ele>434.39999389648</ele>
        <time>2013-05-10T07:15:56Z</time>
      </trkpt>
      <trkpt lat="44.3911" lon="5.13877">
        <ele>434.79998779297</ele>
        <time>2013-05-10T07:15:59Z</time>
      </trkpt>
      <trkpt lat="44.3911" lon="5.13867">
        <ele>436</ele>
        <time>2013-05-10T07:16:02Z</time>
      </trkpt>
      <trkpt lat="44.39109" lon="5.13857">
        <ele>437.20001220703</ele>
        <time>2013-05-10T07:16:05Z</time>
      </trkpt>
      <trkpt lat="44.39109" lon="5.13849">
        <ele>438.20001220703</ele>
        <time>2013-05-10T07:16:07Z</time>
      </trkpt>
      <trkpt lat="44.39107" lon="5.13834">
        <ele>438.60000610352</ele>
        <time>2013-05-10T07:16:12Z</time>
      </trkpt>
      <trkpt lat="44.39106" lon="5.13828">
        <ele>439.39999389648</ele>
        <time>2013-05-10T07:16:14Z</time>
      </trkpt>
      <trkpt lat="44.39102" lon="5.1382">
        <ele>440.79998779297</ele>
        <time>2013-05-10T07:16:17Z</time>
      </trkpt>
      <trkpt lat="44.39099" lon="5.13813">
        <ele>440.79998779297</ele>
        <time>2013-05-10T07:16:20Z</time>
      </trkpt>
      <trkpt lat="44.39093" lon="5.13789">
        <ele>440.79998779297</ele>
        <time>2013-05-10T07:16:29Z</time>
      </trkpt>
      <trkpt lat="44.39093" lon="5.13779">
        <ele>442.39999389648</ele>
        <time>2013-05-10T07:16:33Z</time>
      </trkpt>
      <trkpt lat="44.39095" lon="5.13768">
        <ele>443.39999389648</ele>
        <time>2013-05-10T07:16:38Z</time>
      </trkpt>
      <trkpt lat="44.39096" lon="5.13758">
        <ele>445.20001220703</ele>
        <time>2013-05-10T07:16:42Z</time>
      </trkpt>
      <trkpt lat="44.39095" lon="5.13746">
        <ele>445.60000610352</ele>
        <time>2013-05-10T07:16:47Z</time>
      </trkpt>
      <trkpt lat="44.39093" lon="5.13739">
        <ele>446.79998779297</ele>
        <time>2013-05-10T07:16:50Z</time>
      </trkpt>
      <trkpt lat="44.39092" lon="5.13724">
        <ele>447.20001220703</ele>
        <time>2013-05-10T07:16:57Z</time>
      </trkpt>
      <trkpt lat="44.39089" lon="5.13712">
        <ele>448</ele>
        <time>2013-05-10T07:17:03Z</time>
      </trkpt>
      <trkpt lat="44.39088" lon="5.1371">
        <ele>448.39999389648</ele>
        <time>2013-05-10T07:17:04Z</time>
      </trkpt>
      <trkpt lat="44.39085" lon="5.13699">
        <ele>450</ele>
        <time>2013-05-10T07:17:09Z</time>
      </trkpt>
      <trkpt lat="44.3908" lon="5.13676">
        <ele>451.39999389648</ele>
        <time>2013-05-10T07:17:20Z</time>
      </trkpt>
      <trkpt lat="44.3908" lon="5.13669">
        <ele>451.79998779297</ele>
        <time>2013-05-10T07:17:23Z</time>
      </trkpt>
      <trkpt lat="44.3908" lon="5.13656">
        <ele>453.60000610352</ele>
        <time>2013-05-10T07:17:29Z</time>
      </trkpt>
      <trkpt lat="44.39079" lon="5.13642">
        <ele>454.20001220703</ele>
        <time>2013-05-10T07:17:35Z</time>
      </trkpt>
      <trkpt lat="44.39079" lon="5.13639">
        <ele>454.60000610352</ele>
        <time>2013-05-10T07:17:36Z</time>
      </trkpt>
      <trkpt lat="44.39079" lon="5.13621">
        <ele>456.39999389648</ele>
        <time>2013-05-10T07:17:44Z</time>
      </trkpt>
      <trkpt lat="44.39079" lon="5.13619">
        <ele>456.79998779297</ele>
        <time>2013-05-10T07:17:45Z</time>
      </trkpt>
      <trkpt lat="44.39082" lon="5.13606">
        <ele>458.20001220703</ele>
        <time>2013-05-10T07:17:51Z</time>
      </trkpt>
      <trkpt lat="44.39087" lon="5.13597">
        <ele>458.60000610352</ele>
        <time>2013-05-10T07:17:56Z</time>
      </trkpt>
      <trkpt lat="44.39091" lon="5.1359">
        <ele>460.39999389648</ele>
        <time>2013-05-10T07:18:00Z</time>
      </trkpt>
      <trkpt lat="44.39096" lon="5.13585">
        <ele>460.39999389648</ele>
        <time>2013-05-10T07:18:03Z</time>
      </trkpt>
      <trkpt lat="44.39113" lon="5.13565">
        <ele>460.39999389648</ele>
        <time>2013-05-10T07:18:12Z</time>
      </trkpt>
      <trkpt lat="44.39134" lon="5.13531">
        <ele>460.39999389648</ele>
        <time>2013-05-10T07:18:22Z</time>
      </trkpt>
      <trkpt lat="44.39146" lon="5.13498">
        <ele>460.39999389648</ele>
        <time>2013-05-10T07:18:30Z</time>
      </trkpt>
      <trkpt lat="44.39148" lon="5.13489">
        <ele>461.20001220703</ele>
        <time>2013-05-10T07:18:32Z</time>
      </trkpt>
      <trkpt lat="44.39148" lon="5.13479">
        <ele>462</ele>
        <time>2013-05-10T07:18:34Z</time>
      </trkpt>
      <trkpt lat="44.39149" lon="5.13469">
        <ele>462.39999389648</ele>
        <time>2013-05-10T07:18:36Z</time>
      </trkpt>
      <trkpt lat="44.39154" lon="5.13442">
        <ele>462.39999389648</ele>
        <time>2013-05-10T07:18:42Z</time>
      </trkpt>
      <trkpt lat="44.39165" lon="5.13409">
        <ele>462.39999389648</ele>
        <time>2013-05-10T07:18:50Z</time>
      </trkpt>
      <trkpt lat="44.39185" lon="5.13382">
        <ele>462.39999389648</ele>
        <time>2013-05-10T07:18:58Z</time>
      </trkpt>
      <trkpt lat="44.39209" lon="5.13354">
        <ele>462.39999389648</ele>
        <time>2013-05-10T07:19:07Z</time>
      </trkpt>
      <trkpt lat="44.39233" lon="5.13332">
        <ele>462.39999389648</ele>
        <time>2013-05-10T07:19:15Z</time>
      </trkpt>
      <trkpt lat="44.39252" lon="5.13329">
        <ele>462.39999389648</ele>
        <time>2013-05-10T07:19:20Z</time>
      </trkpt>
      <trkpt lat="44.39265" lon="5.13326">
        <ele>462.39999389648</ele>
        <time>2013-05-10T07:19:23Z</time>
      </trkpt>
      <trkpt lat="44.39276" lon="5.13315">
        <ele>462</ele>
        <time>2013-05-10T07:19:26Z</time>
      </trkpt>
      <trkpt lat="44.39284" lon="5.13304">
        <ele>461.20001220703</ele>
        <time>2013-05-10T07:19:28Z</time>
      </trkpt>
      <trkpt lat="44.39288" lon="5.13299">
        <ele>460.60000610352</ele>
        <time>2013-05-10T07:19:29Z</time>
      </trkpt>
      <trkpt lat="44.39292" lon="5.13293">
        <ele>460.20001220703</ele>
        <time>2013-05-10T07:19:30Z</time>
      </trkpt>
      <trkpt lat="44.39297" lon="5.13288">
        <ele>460.20001220703</ele>
        <time>2013-05-10T07:19:31Z</time>
      </trkpt>
      <trkpt lat="44.39309" lon="5.13279">
        <ele>459.79998779297</ele>
        <time>2013-05-10T07:19:33Z</time>
      </trkpt>
      <trkpt lat="44.39315" lon="5.13276">
        <ele>459.39999389648</ele>
        <time>2013-05-10T07:19:34Z</time>
      </trkpt>
      <trkpt lat="44.39321" lon="5.13272">
        <ele>459</ele>
        <time>2013-05-10T07:19:35Z</time>
      </trkpt>
      <trkpt lat="44.39327" lon="5.13269">
        <ele>458.60000610352</ele>
        <time>2013-05-10T07:19:36Z</time>
      </trkpt>
      <trkpt lat="44.39334" lon="5.13267">
        <ele>458</ele>
        <time>2013-05-10T07:19:37Z</time>
      </trkpt>
      <trkpt lat="44.3935" lon="5.13266">
        <ele>457.60000610352</ele>
        <time>2013-05-10T07:19:39Z</time>
      </trkpt>
      <trkpt lat="44.39363" lon="5.13268">
        <ele>456.39999389648</ele>
        <time>2013-05-10T07:19:41Z</time>
      </trkpt>
      <trkpt lat="44.39367" lon="5.13273">
        <ele>455.60000610352</ele>
        <time>2013-05-10T07:19:42Z</time>
      </trkpt>
      <trkpt lat="44.3937" lon="5.13286">
        <ele>454.20001220703</ele>
        <time>2013-05-10T07:19:44Z</time>
      </trkpt>
      <trkpt lat="44.39367" lon="5.13291">
        <ele>453.39999389648</ele>
        <time>2013-05-10T07:19:45Z</time>
      </trkpt>
      <trkpt lat="44.39357" lon="5.13299">
        <ele>453.39999389648</ele>
        <time>2013-05-10T07:19:48Z</time>
      </trkpt>
      <trkpt lat="44.39342" lon="5.13311">
        <ele>453.79998779297</ele>
        <time>2013-05-10T07:19:54Z</time>
      </trkpt>
      <trkpt lat="44.39339" lon="5.13317">
        <ele>454.79998779297</ele>
        <time>2013-05-10T07:19:56Z</time>
      </trkpt>
      <trkpt lat="44.39337" lon="5.13323">
        <ele>455.60000610352</ele>
        <time>2013-05-10T07:19:58Z</time>
      </trkpt>
      <trkpt lat="44.39339" lon="5.13342">
        <ele>455.60000610352</ele>
        <time>2013-05-10T07:20:03Z</time>
      </trkpt>
      <trkpt lat="44.39341" lon="5.13344">
        <ele>455.60000610352</ele>
        <time>2013-05-10T07:20:04Z</time>
      </trkpt>
      <trkpt lat="44.39351" lon="5.13345">
        <ele>456</ele>
        <time>2013-05-10T07:20:07Z</time>
      </trkpt>
      <trkpt lat="44.3936" lon="5.1334">
        <ele>457.20001220703</ele>
        <time>2013-05-10T07:20:10Z</time>
      </trkpt>
      <trkpt lat="44.39362" lon="5.13338">
        <ele>457.60000610352</ele>
        <time>2013-05-10T07:20:11Z</time>
      </trkpt>
      <trkpt lat="44.39383" lon="5.13331">
        <ele>458.20001220703</ele>
        <time>2013-05-10T07:20:19Z</time>
      </trkpt>
      <trkpt lat="44.39388" lon="5.1333">
        <ele>459</ele>
        <time>2013-05-10T07:20:21Z</time>
      </trkpt>
      <trkpt lat="44.3939" lon="5.1333">
        <ele>459.60000610352</ele>
        <time>2013-05-10T07:20:22Z</time>
      </trkpt>
      <trkpt lat="44.39392" lon="5.1333">
        <ele>460</ele>
        <time>2013-05-10T07:20:23Z</time>
      </trkpt>
      <trkpt lat="44.39409" lon="5.1334">
        <ele>460</ele>
        <time>2013-05-10T07:20:32Z</time>
      </trkpt>
      <trkpt lat="44.39418" lon="5.13342">
        <ele>460</ele>
        <time>2013-05-10T07:20:37Z</time>
      </trkpt>
      <trkpt lat="44.39421" lon="5.13342">
        <ele>461.20001220703</ele>
        <time>2013-05-10T07:20:39Z</time>
      </trkpt>
      <trkpt lat="44.39428" lon="5.1334">
        <ele>462.60000610352</ele>
        <time>2013-05-10T07:20:44Z</time>
      </trkpt>
      <trkpt lat="44.3943" lon="5.1334">
        <ele>463.39999389648</ele>
        <time>2013-05-10T07:20:46Z</time>
      </trkpt>
      <trkpt lat="44.3944" lon="5.13335">
        <ele>466.39999389648</ele>
        <time>2013-05-10T07:20:55Z</time>
      </trkpt>
      <trkpt lat="44.39451" lon="5.1333">
        <ele>467.20001220703</ele>
        <time>2013-05-10T07:21:04Z</time>
      </trkpt>
      <trkpt lat="44.39452" lon="5.1333">
        <ele>467.60000610352</ele>
        <time>2013-05-10T07:21:05Z</time>
      </trkpt>
      <trkpt lat="44.39462" lon="5.13326">
        <ele>469.20001220703</ele>
        <time>2013-05-10T07:21:13Z</time>
      </trkpt>
      <trkpt lat="44.39472" lon="5.13319">
        <ele>470.39999389648</ele>
        <time>2013-05-10T07:21:21Z</time>
      </trkpt>
      <trkpt lat="44.39484" lon="5.13314">
        <ele>473</ele>
        <time>2013-05-10T07:21:31Z</time>
      </trkpt>
      <trkpt lat="44.39491" lon="5.13312">
        <ele>475</ele>
        <time>2013-05-10T07:21:37Z</time>
      </trkpt>
      <trkpt lat="44.39497" lon="5.1331">
        <ele>476.60000610352</ele>
        <time>2013-05-10T07:21:43Z</time>
      </trkpt>
      <trkpt lat="44.39505" lon="5.13307">
        <ele>477.20001220703</ele>
        <time>2013-05-10T07:21:49Z</time>
      </trkpt>
      <trkpt lat="44.39515" lon="5.13305">
        <ele>479.39999389648</ele>
        <time>2013-05-10T07:22:00Z</time>
      </trkpt>
      <trkpt lat="44.39521" lon="5.13304">
        <ele>481</ele>
        <time>2013-05-10T07:22:06Z</time>
      </trkpt>
      <trkpt lat="44.39542" lon="5.13303">
        <ele>483.20001220703</ele>
        <time>2013-05-10T07:22:24Z</time>
      </trkpt>
      <trkpt lat="44.39547" lon="5.133">
        <ele>485.39999389648</ele>
        <time>2013-05-10T07:22:31Z</time>
      </trkpt>
      <trkpt lat="44.39551" lon="5.13298">
        <ele>486</ele>
        <time>2013-05-10T07:22:34Z</time>
      </trkpt>
      <trkpt lat="44.39569" lon="5.13292">
        <ele>488.20001220703</ele>
        <time>2013-05-10T07:22:50Z</time>
      </trkpt>
      <trkpt lat="44.39571" lon="5.13291">
        <ele>489.20001220703</ele>
        <time>2013-05-10T07:22:52Z</time>
      </trkpt>
      <trkpt lat="44.39574" lon="5.1329">
        <ele>490.20001220703</ele>
        <time>2013-05-10T07:22:54Z</time>
      </trkpt>
      <trkpt lat="44.39582" lon="5.13286">
        <ele>490.20001220703</ele>
        <time>2013-05-10T07:23:00Z</time>
      </trkpt>
      <trkpt lat="44.39586" lon="5.13279">
        <ele>491.79998779297</ele>
        <time>2013-05-10T07:23:04Z</time>
      </trkpt>
      <trkpt lat="44.39589" lon="5.13262">
        <ele>492.20001220703</ele>
        <time>2013-05-10T07:23:11Z</time>
      </trkpt>
      <trkpt lat="44.39589" lon="5.13258">
        <ele>492.20001220703</ele>
        <time>2013-05-10T07:23:13Z</time>
      </trkpt>
      <trkpt lat="44.3959" lon="5.13243">
        <ele>492.20001220703</ele>
        <time>2013-05-10T07:23:21Z</time>
      </trkpt>
      <trkpt lat="44.3959" lon="5.13239">
        <ele>493</ele>
        <time>2013-05-10T07:23:23Z</time>
      </trkpt>
      <trkpt lat="44.39594" lon="5.13228">
        <ele>494.20001220703</ele>
        <time>2013-05-10T07:23:29Z</time>
      </trkpt>
      <trkpt lat="44.39596" lon="5.1322">
        <ele>495.60000610352</ele>
        <time>2013-05-10T07:23:33Z</time>
      </trkpt>
      <trkpt lat="44.396" lon="5.13208">
        <ele>496.60000610352</ele>
        <time>2013-05-10T07:23:39Z</time>
      </trkpt>
      <trkpt lat="44.39603" lon="5.132">
        <ele>497</ele>
        <time>2013-05-10T07:23:44Z</time>
      </trkpt>
      <trkpt lat="44.39607" lon="5.13183">
        <ele>498.79998779297</ele>
        <time>2013-05-10T07:23:53Z</time>
      </trkpt>
      <trkpt lat="44.39609" lon="5.1318">
        <ele>499.20001220703</ele>
        <time>2013-05-10T07:23:55Z</time>
      </trkpt>
      <trkpt lat="44.3961" lon="5.13174">
        <ele>500.39999389648</ele>
        <time>2013-05-10T07:23:58Z</time>
      </trkpt>
      <trkpt lat="44.39614" lon="5.13162">
        <ele>501.39999389648</ele>
        <time>2013-05-10T07:24:05Z</time>
      </trkpt>
      <trkpt lat="44.39615" lon="5.13159">
        <ele>502.20001220703</ele>
        <time>2013-05-10T07:24:07Z</time>
      </trkpt>
      <trkpt lat="44.39621" lon="5.13146">
        <ele>503.20001220703</ele>
        <time>2013-05-10T07:24:16Z</time>
      </trkpt>
      <trkpt lat="44.39623" lon="5.13139">
        <ele>504.79998779297</ele>
        <time>2013-05-10T07:24:20Z</time>
      </trkpt>
      <trkpt lat="44.39629" lon="5.13125">
        <ele>505.60000610352</ele>
        <time>2013-05-10T07:24:29Z</time>
      </trkpt>
      <trkpt lat="44.39631" lon="5.13122">
        <ele>506.39999389648</ele>
        <time>2013-05-10T07:24:31Z</time>
      </trkpt>
      <trkpt lat="44.39632" lon="5.13118">
        <ele>507.20001220703</ele>
        <time>2013-05-10T07:24:33Z</time>
      </trkpt>
      <trkpt lat="44.39637" lon="5.13109">
        <ele>507.20001220703</ele>
        <time>2013-05-10T07:24:39Z</time>
      </trkpt>
      <trkpt lat="44.39641" lon="5.13101">
        <ele>509.20001220703</ele>
        <time>2013-05-10T07:24:44Z</time>
      </trkpt>
      <trkpt lat="44.39647" lon="5.13095">
        <ele>509.20001220703</ele>
        <time>2013-05-10T07:24:49Z</time>
      </trkpt>
      <trkpt lat="44.39652" lon="5.13083">
        <ele>509.20001220703</ele>
        <time>2013-05-10T07:24:56Z</time>
      </trkpt>
      <trkpt lat="44.39654" lon="5.13079">
        <ele>510.20001220703</ele>
        <time>2013-05-10T07:24:58Z</time>
      </trkpt>
      <trkpt lat="44.39658" lon="5.13069">
        <ele>511.60000610352</ele>
        <time>2013-05-10T07:25:03Z</time>
      </trkpt>
      <trkpt lat="44.39666" lon="5.13046">
        <ele>511.60000610352</ele>
        <time>2013-05-10T07:25:13Z</time>
      </trkpt>
      <trkpt lat="44.39669" lon="5.1304">
        <ele>512.79998779297</ele>
        <time>2013-05-10T07:25:16Z</time>
      </trkpt>
      <trkpt lat="44.39671" lon="5.13036">
        <ele>513.59997558594</ele>
        <time>2013-05-10T07:25:18Z</time>
      </trkpt>
      <trkpt lat="44.39676" lon="5.13024">
        <ele>513.59997558594</ele>
        <time>2013-05-10T07:25:25Z</time>
      </trkpt>
      <trkpt lat="44.39678" lon="5.13019">
        <ele>514.40002441406</ele>
        <time>2013-05-10T07:25:28Z</time>
      </trkpt>
      <trkpt lat="44.39681" lon="5.13011">
        <ele>516</ele>
        <time>2013-05-10T07:25:33Z</time>
      </trkpt>
      <trkpt lat="44.39682" lon="5.13009">
        <ele>516.59997558594</ele>
        <time>2013-05-10T07:25:34Z</time>
      </trkpt>
      <trkpt lat="44.39692" lon="5.12994">
        <ele>517.79998779297</ele>
        <time>2013-05-10T07:25:44Z</time>
      </trkpt>
      <trkpt lat="44.39694" lon="5.1299">
        <ele>519.20001220703</ele>
        <time>2013-05-10T07:25:47Z</time>
      </trkpt>
      <trkpt lat="44.39702" lon="5.12977">
        <ele>520.40002441406</ele>
        <time>2013-05-10T07:25:57Z</time>
      </trkpt>
      <trkpt lat="44.39713" lon="5.12956">
        <ele>522.59997558594</ele>
        <time>2013-05-10T07:26:12Z</time>
      </trkpt>
      <trkpt lat="44.39717" lon="5.12949">
        <ele>524.40002441406</ele>
        <time>2013-05-10T07:26:16Z</time>
      </trkpt>
      <trkpt lat="44.39721" lon="5.12943">
        <ele>524.40002441406</ele>
        <time>2013-05-10T07:26:20Z</time>
      </trkpt>
      <trkpt lat="44.39724" lon="5.12937">
        <ele>524.79998779297</ele>
        <time>2013-05-10T07:26:24Z</time>
      </trkpt>
      <trkpt lat="44.39728" lon="5.1293">
        <ele>526.59997558594</ele>
        <time>2013-05-10T07:26:29Z</time>
      </trkpt>
      <trkpt lat="44.39735" lon="5.12919">
        <ele>527</ele>
        <time>2013-05-10T07:26:38Z</time>
      </trkpt>
      <trkpt lat="44.39744" lon="5.12911">
        <ele>529.20001220703</ele>
        <time>2013-05-10T07:26:47Z</time>
      </trkpt>
      <trkpt lat="44.39745" lon="5.1291">
        <ele>529.59997558594</ele>
        <time>2013-05-10T07:26:48Z</time>
      </trkpt>
      <trkpt lat="44.39754" lon="5.12899">
        <ele>531.40002441406</ele>
        <time>2013-05-10T07:26:57Z</time>
      </trkpt>
      <trkpt lat="44.3976" lon="5.12888">
        <ele>533.59997558594</ele>
        <time>2013-05-10T07:27:05Z</time>
      </trkpt>
      <trkpt lat="44.39764" lon="5.12879">
        <ele>535.40002441406</ele>
        <time>2013-05-10T07:27:11Z</time>
      </trkpt>
      <trkpt lat="44.39769" lon="5.1287">
        <ele>537</ele>
        <time>2013-05-10T07:27:19Z</time>
      </trkpt>
      <trkpt lat="44.39775" lon="5.12862">
        <ele>538</ele>
        <time>2013-05-10T07:27:27Z</time>
      </trkpt>
      <trkpt lat="44.39779" lon="5.1286">
        <ele>539.20001220703</ele>
        <time>2013-05-10T07:27:30Z</time>
      </trkpt>
      <trkpt lat="44.3978" lon="5.12859">
        <ele>539.59997558594</ele>
        <time>2013-05-10T07:27:31Z</time>
      </trkpt>
      <trkpt lat="44.39791" lon="5.12854">
        <ele>541</ele>
        <time>2013-05-10T07:27:40Z</time>
      </trkpt>
      <trkpt lat="44.39802" lon="5.12843">
        <ele>542.20001220703</ele>
        <time>2013-05-10T07:27:52Z</time>
      </trkpt>
      <trkpt lat="44.39815" lon="5.12834">
        <ele>544.40002441406</ele>
        <time>2013-05-10T07:28:05Z</time>
      </trkpt>
      <trkpt lat="44.39828" lon="5.12829">
        <ele>546.59997558594</ele>
        <time>2013-05-10T07:28:16Z</time>
      </trkpt>
      <trkpt lat="44.3983" lon="5.12827">
        <ele>547.79998779297</ele>
        <time>2013-05-10T07:28:19Z</time>
      </trkpt>
      <trkpt lat="44.3984" lon="5.12824">
        <ele>548.59997558594</ele>
        <time>2013-05-10T07:28:28Z</time>
      </trkpt>
      <trkpt lat="44.39863" lon="5.12818">
        <ele>550.79998779297</ele>
        <time>2013-05-10T07:28:46Z</time>
      </trkpt>
      <trkpt lat="44.39871" lon="5.1282">
        <ele>552.59997558594</ele>
        <time>2013-05-10T07:28:53Z</time>
      </trkpt>
      <trkpt lat="44.39874" lon="5.12821">
        <ele>553</ele>
        <time>2013-05-10T07:28:56Z</time>
      </trkpt>
      <trkpt lat="44.39881" lon="5.12824">
        <ele>554.79998779297</ele>
        <time>2013-05-10T07:29:02Z</time>
      </trkpt>
      <trkpt lat="44.39891" lon="5.12828">
        <ele>557.59997558594</ele>
        <time>2013-05-10T07:29:12Z</time>
      </trkpt>
      <trkpt lat="44.39902" lon="5.12825">
        <ele>559</ele>
        <time>2013-05-10T07:29:20Z</time>
      </trkpt>
      <trkpt lat="44.39906" lon="5.1282">
        <ele>560.79998779297</ele>
        <time>2013-05-10T07:29:24Z</time>
      </trkpt>
      <trkpt lat="44.39909" lon="5.12809">
        <ele>561.20001220703</ele>
        <time>2013-05-10T07:29:30Z</time>
      </trkpt>
      <trkpt lat="44.39911" lon="5.12793">
        <ele>561.20001220703</ele>
        <time>2013-05-10T07:29:38Z</time>
      </trkpt>
      <trkpt lat="44.39913" lon="5.1279">
        <ele>562</ele>
        <time>2013-05-10T07:29:40Z</time>
      </trkpt>
      <trkpt lat="44.39922" lon="5.1278">
        <ele>563.20001220703</ele>
        <time>2013-05-10T07:29:46Z</time>
      </trkpt>
      <trkpt lat="44.39926" lon="5.12762">
        <ele>563.20001220703</ele>
        <time>2013-05-10T07:29:53Z</time>
      </trkpt>
      <trkpt lat="44.39922" lon="5.1275">
        <ele>563.20001220703</ele>
        <time>2013-05-10T07:29:58Z</time>
      </trkpt>
      <trkpt lat="44.3992" lon="5.12736">
        <ele>563.79998779297</ele>
        <time>2013-05-10T07:30:07Z</time>
      </trkpt>
      <trkpt lat="44.39923" lon="5.12723">
        <ele>565.79998779297</ele>
        <time>2013-05-10T07:30:15Z</time>
      </trkpt>
      <trkpt lat="44.39926" lon="5.12719">
        <ele>567.20001220703</ele>
        <time>2013-05-10T07:30:18Z</time>
      </trkpt>
      <trkpt lat="44.39933" lon="5.12704">
        <ele>567.59997558594</ele>
        <time>2013-05-10T07:30:27Z</time>
      </trkpt>
      <trkpt lat="44.39934" lon="5.12698">
        <ele>568</ele>
        <time>2013-05-10T07:30:30Z</time>
      </trkpt>
      <trkpt lat="44.39936" lon="5.12682">
        <ele>570</ele>
        <time>2013-05-10T07:30:39Z</time>
      </trkpt>
      <trkpt lat="44.39936" lon="5.12679">
        <ele>571</ele>
        <time>2013-05-10T07:30:41Z</time>
      </trkpt>
      <trkpt lat="44.39936" lon="5.1267">
        <ele>572.20001220703</ele>
        <time>2013-05-10T07:30:47Z</time>
      </trkpt>
      <trkpt lat="44.39936" lon="5.1266">
        <ele>573.79998779297</ele>
        <time>2013-05-10T07:30:53Z</time>
      </trkpt>
      <trkpt lat="44.3994" lon="5.12649">
        <ele>574.20001220703</ele>
        <time>2013-05-10T07:31:00Z</time>
      </trkpt>
      <trkpt lat="44.3994" lon="5.12648">
        <ele>574.59997558594</ele>
        <time>2013-05-10T07:31:01Z</time>
      </trkpt>
      <trkpt lat="44.39945" lon="5.1264">
        <ele>576</ele>
        <time>2013-05-10T07:31:08Z</time>
      </trkpt>
      <trkpt lat="44.39951" lon="5.12635">
        <ele>577.79998779297</ele>
        <time>2013-05-10T07:31:15Z</time>
      </trkpt>
      <trkpt lat="44.39957" lon="5.12627">
        <ele>578.59997558594</ele>
        <time>2013-05-10T07:31:23Z</time>
      </trkpt>
      <trkpt lat="44.39961" lon="5.12624">
        <ele>580</ele>
        <time>2013-05-10T07:31:26Z</time>
      </trkpt>
      <trkpt lat="44.39968" lon="5.12619">
        <ele>581</ele>
        <time>2013-05-10T07:31:32Z</time>
      </trkpt>
      <trkpt lat="44.3997" lon="5.12617">
        <ele>581.79998779297</ele>
        <time>2013-05-10T07:31:34Z</time>
      </trkpt>
      <trkpt lat="44.39974" lon="5.12609">
        <ele>583.40002441406</ele>
        <time>2013-05-10T07:31:41Z</time>
      </trkpt>
      <trkpt lat="44.39978" lon="5.12587">
        <ele>584.79998779297</ele>
        <time>2013-05-10T07:31:53Z</time>
      </trkpt>
      <trkpt lat="44.39981" lon="5.12569">
        <ele>584.79998779297</ele>
        <time>2013-05-10T07:32:01Z</time>
      </trkpt>
      <trkpt lat="44.39985" lon="5.12552">
        <ele>585.20001220703</ele>
        <time>2013-05-10T07:32:09Z</time>
      </trkpt>
      <trkpt lat="44.39987" lon="5.12549">
        <ele>586</ele>
        <time>2013-05-10T07:32:11Z</time>
      </trkpt>
      <trkpt lat="44.39991" lon="5.12543">
        <ele>586.79998779297</ele>
        <time>2013-05-10T07:32:15Z</time>
      </trkpt>
      <trkpt lat="44.39997" lon="5.12536">
        <ele>587.20001220703</ele>
        <time>2013-05-10T07:32:22Z</time>
      </trkpt>
      <trkpt lat="44.40001" lon="5.12533">
        <ele>588.59997558594</ele>
        <time>2013-05-10T07:32:25Z</time>
      </trkpt>
      <trkpt lat="44.40011" lon="5.12524">
        <ele>589.40002441406</ele>
        <time>2013-05-10T07:32:33Z</time>
      </trkpt>
      <trkpt lat="44.40014" lon="5.1252">
        <ele>590.79998779297</ele>
        <time>2013-05-10T07:32:36Z</time>
      </trkpt>
      <trkpt lat="44.40025" lon="5.12509">
        <ele>591.20001220703</ele>
        <time>2013-05-10T07:32:45Z</time>
      </trkpt>
      <trkpt lat="44.4003" lon="5.12502">
        <ele>593.20001220703</ele>
        <time>2013-05-10T07:32:51Z</time>
      </trkpt>
      <trkpt lat="44.40034" lon="5.12497">
        <ele>593.59997558594</ele>
        <time>2013-05-10T07:32:55Z</time>
      </trkpt>
      <trkpt lat="44.40041" lon="5.12492">
        <ele>595.20001220703</ele>
        <time>2013-05-10T07:33:01Z</time>
      </trkpt>
      <trkpt lat="44.40047" lon="5.12484">
        <ele>595.59997558594</ele>
        <time>2013-05-10T07:33:08Z</time>
      </trkpt>
      <trkpt lat="44.40049" lon="5.1248">
        <ele>597</ele>
        <time>2013-05-10T07:33:11Z</time>
      </trkpt>
      <trkpt lat="44.4005" lon="5.12478">
        <ele>597.40002441406</ele>
        <time>2013-05-10T07:33:12Z</time>
      </trkpt>
      <trkpt lat="44.40067" lon="5.12459">
        <ele>597.40002441406</ele>
        <time>2013-05-10T07:33:28Z</time>
      </trkpt>
      <trkpt lat="44.40071" lon="5.12451">
        <ele>598.20001220703</ele>
        <time>2013-05-10T07:33:33Z</time>
      </trkpt>
      <trkpt lat="44.40072" lon="5.12449">
        <ele>598.79998779297</ele>
        <time>2013-05-10T07:33:34Z</time>
      </trkpt>
      <trkpt lat="44.40077" lon="5.12437">
        <ele>599.59997558594</ele>
        <time>2013-05-10T07:33:42Z</time>
      </trkpt>
      <trkpt lat="44.40079" lon="5.12428">
        <ele>600</ele>
        <time>2013-05-10T07:33:47Z</time>
      </trkpt>
      <trkpt lat="44.4008" lon="5.12423">
        <ele>601.40002441406</ele>
        <time>2013-05-10T07:33:50Z</time>
      </trkpt>
      <trkpt lat="44.40086" lon="5.1241">
        <ele>601.79998779297</ele>
        <time>2013-05-10T07:33:57Z</time>
      </trkpt>
      <trkpt lat="44.40086" lon="5.12409">
        <ele>602.20001220703</ele>
        <time>2013-05-10T07:33:58Z</time>
      </trkpt>
      <trkpt lat="44.40091" lon="5.12399">
        <ele>604</ele>
        <time>2013-05-10T07:34:04Z</time>
      </trkpt>
      <trkpt lat="44.40099" lon="5.12388">
        <ele>604.40002441406</ele>
        <time>2013-05-10T07:34:13Z</time>
      </trkpt>
      <trkpt lat="44.401" lon="5.12385">
        <ele>605.40002441406</ele>
        <time>2013-05-10T07:34:15Z</time>
      </trkpt>
      <trkpt lat="44.40107" lon="5.12372">
        <ele>606.40002441406</ele>
        <time>2013-05-10T07:34:24Z</time>
      </trkpt>
      <trkpt lat="44.40108" lon="5.12369">
        <ele>607.20001220703</ele>
        <time>2013-05-10T07:34:26Z</time>
      </trkpt>
      <trkpt lat="44.40112" lon="5.12358">
        <ele>608.40002441406</ele>
        <time>2013-05-10T07:34:33Z</time>
      </trkpt>
      <trkpt lat="44.40117" lon="5.12349">
        <ele>610.40002441406</ele>
        <time>2013-05-10T07:34:41Z</time>
      </trkpt>
      <trkpt lat="44.4012" lon="5.12344">
        <ele>611.20001220703</ele>
        <time>2013-05-10T07:34:45Z</time>
      </trkpt>
      <trkpt lat="44.40126" lon="5.12333">
        <ele>612.40002441406</ele>
        <time>2013-05-10T07:34:54Z</time>
      </trkpt>
      <trkpt lat="44.40129" lon="5.12329">
        <ele>612.79998779297</ele>
        <time>2013-05-10T07:34:57Z</time>
      </trkpt>
      <trkpt lat="44.4013" lon="5.12327">
        <ele>613.59997558594</ele>
        <time>2013-05-10T07:34:59Z</time>
      </trkpt>
      <trkpt lat="44.40141" lon="5.1231">
        <ele>614.40002441406</ele>
        <time>2013-05-10T07:35:12Z</time>
      </trkpt>
      <trkpt lat="44.40147" lon="5.123">
        <ele>614.79998779297</ele>
        <time>2013-05-10T07:35:19Z</time>
      </trkpt>
      <trkpt lat="44.40154" lon="5.12288">
        <ele>616.59997558594</ele>
        <time>2013-05-10T07:35:28Z</time>
      </trkpt>
      <trkpt lat="44.40158" lon="5.12278">
        <ele>617</ele>
        <time>2013-05-10T07:35:34Z</time>
      </trkpt>
      <trkpt lat="44.40161" lon="5.12275">
        <ele>618.40002441406</ele>
        <time>2013-05-10T07:35:37Z</time>
      </trkpt>
      <trkpt lat="44.40165" lon="5.12268">
        <ele>618.79998779297</ele>
        <time>2013-05-10T07:35:42Z</time>
      </trkpt>
      <trkpt lat="44.4017" lon="5.1226">
        <ele>620</ele>
        <time>2013-05-10T07:35:49Z</time>
      </trkpt>
      <trkpt lat="44.40171" lon="5.12259">
        <ele>620.40002441406</ele>
        <time>2013-05-10T07:35:50Z</time>
      </trkpt>
      <trkpt lat="44.40177" lon="5.12248">
        <ele>621.20001220703</ele>
        <time>2013-05-10T07:35:59Z</time>
      </trkpt>
      <trkpt lat="44.40184" lon="5.12232">
        <ele>622.79998779297</ele>
        <time>2013-05-10T07:36:09Z</time>
      </trkpt>
      <trkpt lat="44.40188" lon="5.12226">
        <ele>623.20001220703</ele>
        <time>2013-05-10T07:36:14Z</time>
      </trkpt>
      <trkpt lat="44.40191" lon="5.1222">
        <ele>625</ele>
        <time>2013-05-10T07:36:18Z</time>
      </trkpt>
      <trkpt lat="44.40202" lon="5.12211">
        <ele>625</ele>
        <time>2013-05-10T07:36:26Z</time>
      </trkpt>
      <trkpt lat="44.40205" lon="5.12194">
        <ele>625</ele>
        <time>2013-05-10T07:36:33Z</time>
      </trkpt>
      <trkpt lat="44.40207" lon="5.12186">
        <ele>625.40002441406</ele>
        <time>2013-05-10T07:36:36Z</time>
      </trkpt>
      <trkpt lat="44.4021" lon="5.12179">
        <ele>626.79998779297</ele>
        <time>2013-05-10T07:36:39Z</time>
      </trkpt>
      <trkpt lat="44.40211" lon="5.12177">
        <ele>627.20001220703</ele>
        <time>2013-05-10T07:36:40Z</time>
      </trkpt>
      <trkpt lat="44.40218" lon="5.12167">
        <ele>627.20001220703</ele>
        <time>2013-05-10T07:36:47Z</time>
      </trkpt>
      <trkpt lat="44.40231" lon="5.12156">
        <ele>627.20001220703</ele>
        <time>2013-05-10T07:36:56Z</time>
      </trkpt>
      <trkpt lat="44.40243" lon="5.1215">
        <ele>629.40002441406</ele>
        <time>2013-05-10T07:37:05Z</time>
      </trkpt>
      <trkpt lat="44.40253" lon="5.12141">
        <ele>629.79998779297</ele>
        <time>2013-05-10T07:37:13Z</time>
      </trkpt>
      <trkpt lat="44.40254" lon="5.1214">
        <ele>630.20001220703</ele>
        <time>2013-05-10T07:37:14Z</time>
      </trkpt>
      <trkpt lat="44.40263" lon="5.1213">
        <ele>631.59997558594</ele>
        <time>2013-05-10T07:37:21Z</time>
      </trkpt>
      <trkpt lat="44.40273" lon="5.12119">
        <ele>633.59997558594</ele>
        <time>2013-05-10T07:37:30Z</time>
      </trkpt>
      <trkpt lat="44.4028" lon="5.1211">
        <ele>634.59997558594</ele>
        <time>2013-05-10T07:37:37Z</time>
      </trkpt>
      <trkpt lat="44.40281" lon="5.12109">
        <ele>635</ele>
        <time>2013-05-10T07:37:38Z</time>
      </trkpt>
      <trkpt lat="44.40293" lon="5.121">
        <ele>636.20001220703</ele>
        <time>2013-05-10T07:37:47Z</time>
      </trkpt>
      <trkpt lat="44.40303" lon="5.1209">
        <ele>637.79998779297</ele>
        <time>2013-05-10T07:37:56Z</time>
      </trkpt>
      <trkpt lat="44.40312" lon="5.12082">
        <ele>637.79998779297</ele>
        <time>2013-05-10T07:38:04Z</time>
      </trkpt>
      <trkpt lat="44.40314" lon="5.12079">
        <ele>638.59997558594</ele>
        <time>2013-05-10T07:38:06Z</time>
      </trkpt>
      <trkpt lat="44.40322" lon="5.12071">
        <ele>640.20001220703</ele>
        <time>2013-05-10T07:38:13Z</time>
      </trkpt>
      <trkpt lat="44.40323" lon="5.1207">
        <ele>640.59997558594</ele>
        <time>2013-05-10T07:38:14Z</time>
      </trkpt>
      <trkpt lat="44.40331" lon="5.12061">
        <ele>642</ele>
        <time>2013-05-10T07:38:21Z</time>
      </trkpt>
      <trkpt lat="44.40332" lon="5.12058">
        <ele>642</ele>
        <time>2013-05-10T07:38:23Z</time>
      </trkpt>
      <trkpt lat="44.40334" lon="5.1205">
        <ele>642</ele>
        <time>2013-05-10T07:38:28Z</time>
      </trkpt>
      <trkpt lat="44.40344" lon="5.12043">
        <ele>642</ele>
        <time>2013-05-10T07:38:37Z</time>
      </trkpt>
      <trkpt lat="44.40345" lon="5.12039">
        <ele>644</ele>
        <time>2013-05-10T07:39:06Z</time>
      </trkpt>
      <trkpt lat="44.40341" lon="5.12026">
        <ele>644</ele>
        <time>2013-05-10T07:40:36Z</time>
      </trkpt>
      <trkpt lat="44.40348" lon="5.12">
        <ele>643.40002441406</ele>
        <time>2013-05-10T07:40:42Z</time>
      </trkpt>
      <trkpt lat="44.40351" lon="5.11988">
        <ele>642.59997558594</ele>
        <time>2013-05-10T07:40:44Z</time>
      </trkpt>
      <trkpt lat="44.4035" lon="5.11982">
        <ele>642.20001220703</ele>
        <time>2013-05-10T07:40:45Z</time>
      </trkpt>
      <trkpt lat="44.40347" lon="5.11975">
        <ele>641.79998779297</ele>
        <time>2013-05-10T07:40:46Z</time>
      </trkpt>
      <trkpt lat="44.40345" lon="5.11968">
        <ele>641.79998779297</ele>
        <time>2013-05-10T07:40:47Z</time>
      </trkpt>
      <trkpt lat="44.4034" lon="5.11959">
        <ele>641</ele>
        <time>2013-05-10T07:40:49Z</time>
      </trkpt>
      <trkpt lat="44.40338" lon="5.11956">
        <ele>640.59997558594</ele>
        <time>2013-05-10T07:40:50Z</time>
      </trkpt>
      <trkpt lat="44.40335" lon="5.11949">
        <ele>639.79998779297</ele>
        <time>2013-05-10T07:40:52Z</time>
      </trkpt>
      <trkpt lat="44.40328" lon="5.11932">
        <ele>639.79998779297</ele>
        <time>2013-05-10T07:40:58Z</time>
      </trkpt>
      <trkpt lat="44.40321" lon="5.11921">
        <ele>639.79998779297</ele>
        <time>2013-05-10T07:41:05Z</time>
      </trkpt>
      <trkpt lat="44.40317" lon="5.11919">
        <ele>639.79998779297</ele>
        <time>2013-05-10T07:41:11Z</time>
      </trkpt>
      <trkpt lat="44.40319" lon="5.11908">
        <ele>641.79998779297</ele>
        <time>2013-05-10T07:45:13Z</time>
      </trkpt>
      <trkpt lat="44.40321" lon="5.11901">
        <ele>641.79998779297</ele>
        <time>2013-05-10T07:45:23Z</time>
      </trkpt>
      <trkpt lat="44.40321" lon="5.11899">
        <ele>641.79998779297</ele>
        <time>2013-05-10T07:45:27Z</time>
      </trkpt>
      <trkpt lat="44.40323" lon="5.11885">
        <ele>641.79998779297</ele>
        <time>2013-05-10T07:45:37Z</time>
      </trkpt>
      <trkpt lat="44.40326" lon="5.1187">
        <ele>641.79998779297</ele>
        <time>2013-05-10T07:45:44Z</time>
      </trkpt>
      <trkpt lat="44.40326" lon="5.11867">
        <ele>641.79998779297</ele>
        <time>2013-05-10T07:45:46Z</time>
      </trkpt>
      <trkpt lat="44.40332" lon="5.11857">
        <ele>641.79998779297</ele>
        <time>2013-05-10T07:45:53Z</time>
      </trkpt>
      <trkpt lat="44.40335" lon="5.11847">
        <ele>643.79998779297</ele>
        <time>2013-05-10T07:46:04Z</time>
      </trkpt>
      <trkpt lat="44.40338" lon="5.1184">
        <ele>643.79998779297</ele>
        <time>2013-05-10T07:46:52Z</time>
      </trkpt>
      <trkpt lat="44.40342" lon="5.11834">
        <ele>643.79998779297</ele>
        <time>2013-05-10T07:47:27Z</time>
      </trkpt>
      <trkpt lat="44.40347" lon="5.11829">
        <ele>643.79998779297</ele>
        <time>2013-05-10T07:47:55Z</time>
      </trkpt>
      <trkpt lat="44.40352" lon="5.11821">
        <ele>646.20001220703</ele>
        <time>2013-05-10T07:48:04Z</time>
      </trkpt>
      <trkpt lat="44.40354" lon="5.11816">
        <ele>646.20001220703</ele>
        <time>2013-05-10T07:48:09Z</time>
      </trkpt>
      <trkpt lat="44.40364" lon="5.11812">
        <ele>644</ele>
        <time>2013-05-10T07:48:47Z</time>
      </trkpt>
      <trkpt lat="44.40366" lon="5.11809">
        <ele>643.59997558594</ele>
        <time>2013-05-10T07:48:52Z</time>
      </trkpt>
      <trkpt lat="44.4037" lon="5.11804">
        <ele>642</ele>
        <time>2013-05-10T07:49:39Z</time>
      </trkpt>
      <trkpt lat="44.40374" lon="5.11799">
        <ele>642</ele>
        <time>2013-05-10T07:49:48Z</time>
      </trkpt>
      <trkpt lat="44.40384" lon="5.11794">
        <ele>642</ele>
        <time>2013-05-10T07:50:03Z</time>
      </trkpt>
      <trkpt lat="44.4039" lon="5.11789">
        <ele>642</ele>
        <time>2013-05-10T07:50:26Z</time>
      </trkpt>
      <trkpt lat="44.4039" lon="5.11788">
        <ele>642</ele>
        <time>2013-05-10T07:50:41Z</time>
      </trkpt>
      <trkpt lat="44.40396" lon="5.11779">
        <ele>641.20001220703</ele>
        <time>2013-05-10T07:50:53Z</time>
      </trkpt>
      <trkpt lat="44.40401" lon="5.11771">
        <ele>639.79998779297</ele>
        <time>2013-05-10T07:51:03Z</time>
      </trkpt>
      <trkpt lat="44.40403" lon="5.11769">
        <ele>639.79998779297</ele>
        <time>2013-05-10T07:51:08Z</time>
      </trkpt>
      <trkpt lat="44.40408" lon="5.11759">
        <ele>638.79998779297</ele>
        <time>2013-05-10T07:51:18Z</time>
      </trkpt>
      <trkpt lat="44.40411" lon="5.11754">
        <ele>637.40002441406</ele>
        <time>2013-05-10T07:51:27Z</time>
      </trkpt>
      <trkpt lat="44.40417" lon="5.11743">
        <ele>637.40002441406</ele>
        <time>2013-05-10T07:51:35Z</time>
      </trkpt>
      <trkpt lat="44.4042" lon="5.1174">
        <ele>637</ele>
        <time>2013-05-10T07:51:37Z</time>
      </trkpt>
      <trkpt lat="44.40421" lon="5.11738">
        <ele>636.59997558594</ele>
        <time>2013-05-10T07:51:38Z</time>
      </trkpt>
      <trkpt lat="44.40422" lon="5.11729">
        <ele>635.40002441406</ele>
        <time>2013-05-10T07:52:09Z</time>
      </trkpt>
      <trkpt lat="44.40421" lon="5.1172">
        <ele>635.40002441406</ele>
        <time>2013-05-10T07:52:50Z</time>
      </trkpt>
      <trkpt lat="44.40419" lon="5.1172">
        <ele>635</ele>
        <time>2013-05-10T07:52:52Z</time>
      </trkpt>
      <trkpt lat="44.40418" lon="5.11721">
        <ele>634.59997558594</ele>
        <time>2013-05-10T07:52:53Z</time>
      </trkpt>
      <trkpt lat="44.40411" lon="5.1172">
        <ele>631.20001220703</ele>
        <time>2013-05-10T07:53:40Z</time>
      </trkpt>
      <trkpt lat="44.40409" lon="5.11717">
        <ele>631.20001220703</ele>
        <time>2013-05-10T07:54:14Z</time>
      </trkpt>
      <trkpt lat="44.4041" lon="5.11716">
        <ele>628.59997558594</ele>
        <time>2013-05-10T07:54:50Z</time>
      </trkpt>
      <trkpt lat="44.40416" lon="5.11709">
        <ele>628.59997558594</ele>
        <time>2013-05-10T07:55:19Z</time>
      </trkpt>
      <trkpt lat="44.40423" lon="5.117">
        <ele>628.59997558594</ele>
        <time>2013-05-10T07:55:24Z</time>
      </trkpt>
      <trkpt lat="44.40424" lon="5.11697">
        <ele>628.59997558594</ele>
        <time>2013-05-10T07:55:26Z</time>
      </trkpt>
      <trkpt lat="44.40432" lon="5.11685">
        <ele>626.40002441406</ele>
        <time>2013-05-10T07:55:44Z</time>
      </trkpt>
      <trkpt lat="44.40437" lon="5.11677">
        <ele>626</ele>
        <time>2013-05-10T07:55:52Z</time>
      </trkpt>
      <trkpt lat="44.40441" lon="5.11673">
        <ele>624.79998779297</ele>
        <time>2013-05-10T07:55:55Z</time>
      </trkpt>
      <trkpt lat="44.40443" lon="5.1167">
        <ele>624.40002441406</ele>
        <time>2013-05-10T07:56:22Z</time>
      </trkpt>
      <trkpt lat="44.40452" lon="5.11658">
        <ele>624.40002441406</ele>
        <time>2013-05-10T07:56:49Z</time>
      </trkpt>
      <trkpt lat="44.40457" lon="5.1165">
        <ele>622.20001220703</ele>
        <time>2013-05-10T07:56:57Z</time>
      </trkpt>
      <trkpt lat="44.4046" lon="5.11645">
        <ele>621</ele>
        <time>2013-05-10T07:57:07Z</time>
      </trkpt>
      <trkpt lat="44.40463" lon="5.11638">
        <ele>620.20001220703</ele>
        <time>2013-05-10T07:57:20Z</time>
      </trkpt>
      <trkpt lat="44.40469" lon="5.11628">
        <ele>618.59997558594</ele>
        <time>2013-05-10T07:57:25Z</time>
      </trkpt>
      <trkpt lat="44.4047" lon="5.11626">
        <ele>618.20001220703</ele>
        <time>2013-05-10T07:57:26Z</time>
      </trkpt>
      <trkpt lat="44.40474" lon="5.1162">
        <ele>615.40002441406</ele>
        <time>2013-05-10T07:57:32Z</time>
      </trkpt>
      <trkpt lat="44.4048" lon="5.11608">
        <ele>613</ele>
        <time>2013-05-10T07:57:44Z</time>
      </trkpt>
      <trkpt lat="44.40484" lon="5.11599">
        <ele>610.79998779297</ele>
        <time>2013-05-10T07:57:54Z</time>
      </trkpt>
      <trkpt lat="44.4049" lon="5.1159">
        <ele>608.40002441406</ele>
        <time>2013-05-10T07:58:05Z</time>
      </trkpt>
      <trkpt lat="44.4049" lon="5.11589">
        <ele>608</ele>
        <time>2013-05-10T07:58:06Z</time>
      </trkpt>
      <trkpt lat="44.4049" lon="5.11589">
        <ele>607.59997558594</ele>
        <time>2013-05-10T07:58:07Z</time>
      </trkpt>
      <trkpt lat="44.4049" lon="5.11588">
        <ele>606.79998779297</ele>
        <time>2013-05-10T07:58:13Z</time>
      </trkpt>
      <trkpt lat="44.40498" lon="5.11574">
        <ele>606.20001220703</ele>
        <time>2013-05-10T07:58:31Z</time>
      </trkpt>
      <trkpt lat="44.40501" lon="5.11567">
        <ele>604.59997558594</ele>
        <time>2013-05-10T07:58:41Z</time>
      </trkpt>
      <trkpt lat="44.40504" lon="5.1156">
        <ele>603</ele>
        <time>2013-05-10T07:58:47Z</time>
      </trkpt>
      <trkpt lat="44.4051" lon="5.11552">
        <ele>600.79998779297</ele>
        <time>2013-05-10T07:58:56Z</time>
      </trkpt>
      <trkpt lat="44.40514" lon="5.11549">
        <ele>600.40002441406</ele>
        <time>2013-05-10T07:59:07Z</time>
      </trkpt>
      <trkpt lat="44.40519" lon="5.1154">
        <ele>598.40002441406</ele>
        <time>2013-05-10T07:59:15Z</time>
      </trkpt>
      <trkpt lat="44.40521" lon="5.11538">
        <ele>598.40002441406</ele>
        <time>2013-05-10T07:59:18Z</time>
      </trkpt>
      <trkpt lat="44.40525" lon="5.11526">
        <ele>597.79998779297</ele>
        <time>2013-05-10T07:59:47Z</time>
      </trkpt>
      <trkpt lat="44.40528" lon="5.1152">
        <ele>595.79998779297</ele>
        <time>2013-05-10T07:59:53Z</time>
      </trkpt>
      <trkpt lat="44.40532" lon="5.11519">
        <ele>595.79998779297</ele>
        <time>2013-05-10T08:00:00Z</time>
      </trkpt>
      <trkpt lat="44.40541" lon="5.11504">
        <ele>593.40002441406</ele>
        <time>2013-05-10T08:01:24Z</time>
      </trkpt>
      <trkpt lat="44.40544" lon="5.11499">
        <ele>591.20001220703</ele>
        <time>2013-05-10T08:01:34Z</time>
      </trkpt>
      <trkpt lat="44.40551" lon="5.1149">
        <ele>589.20001220703</ele>
        <time>2013-05-10T08:03:02Z</time>
      </trkpt>
      <trkpt lat="44.40557" lon="5.1148">
        <ele>585.59997558594</ele>
        <time>2013-05-10T08:03:17Z</time>
      </trkpt>
      <trkpt lat="44.40561" lon="5.11473">
        <ele>584.79998779297</ele>
        <time>2013-05-10T08:03:22Z</time>
      </trkpt>
      <trkpt lat="44.40563" lon="5.11467">
        <ele>584.79998779297</ele>
        <time>2013-05-10T08:03:24Z</time>
      </trkpt>
      <trkpt lat="44.40567" lon="5.11456">
        <ele>581.79998779297</ele>
        <time>2013-05-10T08:03:37Z</time>
      </trkpt>
      <trkpt lat="44.4057" lon="5.11452">
        <ele>580</ele>
        <time>2013-05-10T08:03:41Z</time>
      </trkpt>
      <trkpt lat="44.40572" lon="5.11447">
        <ele>580</ele>
        <time>2013-05-10T08:03:46Z</time>
      </trkpt>
      <trkpt lat="44.40577" lon="5.11438">
        <ele>577.59997558594</ele>
        <time>2013-05-10T08:04:02Z</time>
      </trkpt>
      <trkpt lat="44.40578" lon="5.11426">
        <ele>574.79998779297</ele>
        <time>2013-05-10T08:04:11Z</time>
      </trkpt>
      <trkpt lat="44.4058" lon="5.1142">
        <ele>574</ele>
        <time>2013-05-10T08:04:15Z</time>
      </trkpt>
      <trkpt lat="44.40581" lon="5.11419">
        <ele>573.20001220703</ele>
        <time>2013-05-10T08:04:17Z</time>
      </trkpt>
      <trkpt lat="44.40587" lon="5.1141">
        <ele>570.59997558594</ele>
        <time>2013-05-10T08:04:29Z</time>
      </trkpt>
      <trkpt lat="44.4059" lon="5.11405">
        <ele>569</ele>
        <time>2013-05-10T08:04:45Z</time>
      </trkpt>
      <trkpt lat="44.40594" lon="5.114">
        <ele>567.40002441406</ele>
        <time>2013-05-10T08:04:50Z</time>
      </trkpt>
      <trkpt lat="44.40602" lon="5.11396">
        <ele>566.79998779297</ele>
        <time>2013-05-10T08:04:54Z</time>
      </trkpt>
      <trkpt lat="44.40612" lon="5.11389">
        <ele>565</ele>
        <time>2013-05-10T08:05:03Z</time>
      </trkpt>
      <trkpt lat="44.40609" lon="5.1138">
        <ele>560.59997558594</ele>
        <time>2013-05-10T08:05:34Z</time>
      </trkpt>
      <trkpt lat="44.406" lon="5.11378">
        <ele>559.79998779297</ele>
        <time>2013-05-10T08:05:37Z</time>
      </trkpt>
      <trkpt lat="44.40591" lon="5.11365">
        <ele>558</ele>
        <time>2013-05-10T08:05:49Z</time>
      </trkpt>
      <trkpt lat="44.40601" lon="5.11356">
        <ele>558.40002441406</ele>
        <time>2013-05-10T08:06:16Z</time>
      </trkpt>
      <trkpt lat="44.40603" lon="5.11343">
        <ele>558.40002441406</ele>
        <time>2013-05-10T08:06:21Z</time>
      </trkpt>
      <trkpt lat="44.4061" lon="5.11333">
        <ele>558.79998779297</ele>
        <time>2013-05-10T08:06:27Z</time>
      </trkpt>
      <trkpt lat="44.40613" lon="5.11328">
        <ele>559.59997558594</ele>
        <time>2013-05-10T08:06:30Z</time>
      </trkpt>
      <trkpt lat="44.40614" lon="5.11319">
        <ele>561.40002441406</ele>
        <time>2013-05-10T08:06:38Z</time>
      </trkpt>
      <trkpt lat="44.40619" lon="5.11304">
        <ele>563.40002441406</ele>
        <time>2013-05-10T08:06:49Z</time>
      </trkpt>
      <trkpt lat="44.4062" lon="5.11292">
        <ele>564.79998779297</ele>
        <time>2013-05-10T08:07:02Z</time>
      </trkpt>
      <trkpt lat="44.40636" lon="5.11289">
        <ele>564.79998779297</ele>
        <time>2013-05-10T08:07:11Z</time>
      </trkpt>
      <trkpt lat="44.40641" lon="5.11286">
        <ele>564.79998779297</ele>
        <time>2013-05-10T08:07:13Z</time>
      </trkpt>
      <trkpt lat="44.40656" lon="5.11273">
        <ele>564.20001220703</ele>
        <time>2013-05-10T08:07:19Z</time>
      </trkpt>
      <trkpt lat="44.40657" lon="5.11269">
        <ele>563.79998779297</ele>
        <time>2013-05-10T08:07:20Z</time>
      </trkpt>
      <trkpt lat="44.4066" lon="5.11259">
        <ele>562.20001220703</ele>
        <time>2013-05-10T08:07:23Z</time>
      </trkpt>
      <trkpt lat="44.40664" lon="5.11248">
        <ele>560.40002441406</ele>
        <time>2013-05-10T08:07:26Z</time>
      </trkpt>
      <trkpt lat="44.40668" lon="5.11238">
        <ele>558.59997558594</ele>
        <time>2013-05-10T08:07:29Z</time>
      </trkpt>
      <trkpt lat="44.4067" lon="5.11235">
        <ele>558</ele>
        <time>2013-05-10T08:07:30Z</time>
      </trkpt>
      <trkpt lat="44.40673" lon="5.11229">
        <ele>557</ele>
        <time>2013-05-10T08:07:32Z</time>
      </trkpt>
      <trkpt lat="44.40677" lon="5.11219">
        <ele>555</ele>
        <time>2013-05-10T08:07:36Z</time>
      </trkpt>
      <trkpt lat="44.40676" lon="5.11208">
        <ele>551.59997558594</ele>
        <time>2013-05-10T08:07:47Z</time>
      </trkpt>
      <trkpt lat="44.40678" lon="5.11198">
        <ele>551.20001220703</ele>
        <time>2013-05-10T08:07:49Z</time>
      </trkpt>
      <trkpt lat="44.40685" lon="5.1118">
        <ele>550.20001220703</ele>
        <time>2013-05-10T08:07:54Z</time>
      </trkpt>
      <trkpt lat="44.40686" lon="5.11166">
        <ele>548.79998779297</ele>
        <time>2013-05-10T08:07:58Z</time>
      </trkpt>
      <trkpt lat="44.40688" lon="5.11158">
        <ele>548.79998779297</ele>
        <time>2013-05-10T08:08:08Z</time>
      </trkpt>
      <trkpt lat="44.40688" lon="5.11148">
        <ele>548.79998779297</ele>
        <time>2013-05-10T08:08:14Z</time>
      </trkpt>
      <trkpt lat="44.40691" lon="5.11143">
        <ele>548.79998779297</ele>
        <time>2013-05-10T08:08:18Z</time>
      </trkpt>
      <trkpt lat="44.40693" lon="5.11139">
        <ele>548</ele>
        <time>2013-05-10T08:08:20Z</time>
      </trkpt>
      <trkpt lat="44.40701" lon="5.11132">
        <ele>546.40002441406</ele>
        <time>2013-05-10T08:08:23Z</time>
      </trkpt>
      <trkpt lat="44.40704" lon="5.11129">
        <ele>545.79998779297</ele>
        <time>2013-05-10T08:08:24Z</time>
      </trkpt>
      <trkpt lat="44.4071" lon="5.11119">
        <ele>545.20001220703</ele>
        <time>2013-05-10T08:08:26Z</time>
      </trkpt>
      <trkpt lat="44.40712" lon="5.11114">
        <ele>543.79998779297</ele>
        <time>2013-05-10T08:08:27Z</time>
      </trkpt>
      <trkpt lat="44.40715" lon="5.11109">
        <ele>543.20001220703</ele>
        <time>2013-05-10T08:08:28Z</time>
      </trkpt>
      <trkpt lat="44.40718" lon="5.11093">
        <ele>540.59997558594</ele>
        <time>2013-05-10T08:08:31Z</time>
      </trkpt>
      <trkpt lat="44.40719" lon="5.11087">
        <ele>539.79998779297</ele>
        <time>2013-05-10T08:08:32Z</time>
      </trkpt>
      <trkpt lat="44.40718" lon="5.11075">
        <ele>539</ele>
        <time>2013-05-10T08:08:34Z</time>
      </trkpt>
      <trkpt lat="44.40719" lon="5.11069">
        <ele>537.79998779297</ele>
        <time>2013-05-10T08:08:35Z</time>
      </trkpt>
      <trkpt lat="44.40722" lon="5.11057">
        <ele>536.79998779297</ele>
        <time>2013-05-10T08:08:37Z</time>
      </trkpt>
      <trkpt lat="44.40725" lon="5.11045">
        <ele>535.40002441406</ele>
        <time>2013-05-10T08:08:39Z</time>
      </trkpt>
      <trkpt lat="44.40727" lon="5.11039">
        <ele>534.79998779297</ele>
        <time>2013-05-10T08:08:40Z</time>
      </trkpt>
      <trkpt lat="44.40731" lon="5.11024">
        <ele>533.79998779297</ele>
        <time>2013-05-10T08:08:42Z</time>
      </trkpt>
      <trkpt lat="44.40735" lon="5.11011">
        <ele>532</ele>
        <time>2013-05-10T08:08:44Z</time>
      </trkpt>
      <trkpt lat="44.40737" lon="5.11002">
        <ele>531</ele>
        <time>2013-05-10T08:08:45Z</time>
      </trkpt>
      <trkpt lat="44.40741" lon="5.10989">
        <ele>529</ele>
        <time>2013-05-10T08:08:47Z</time>
      </trkpt>
      <trkpt lat="44.40748" lon="5.10976">
        <ele>527.59997558594</ele>
        <time>2013-05-10T08:08:49Z</time>
      </trkpt>
      <trkpt lat="44.4075" lon="5.10969">
        <ele>527.59997558594</ele>
        <time>2013-05-10T08:08:50Z</time>
      </trkpt>
      <trkpt lat="44.40753" lon="5.10957">
        <ele>526.20001220703</ele>
        <time>2013-05-10T08:08:52Z</time>
      </trkpt>
      <trkpt lat="44.40754" lon="5.10946">
        <ele>525</ele>
        <time>2013-05-10T08:08:54Z</time>
      </trkpt>
      <trkpt lat="44.40757" lon="5.10936">
        <ele>523.79998779297</ele>
        <time>2013-05-10T08:08:56Z</time>
      </trkpt>
      <trkpt lat="44.4076" lon="5.10924">
        <ele>523</ele>
        <time>2013-05-10T08:08:58Z</time>
      </trkpt>
      <trkpt lat="44.40762" lon="5.10919">
        <ele>521.79998779297</ele>
        <time>2013-05-10T08:08:59Z</time>
      </trkpt>
      <trkpt lat="44.40763" lon="5.10907">
        <ele>520.40002441406</ele>
        <time>2013-05-10T08:09:01Z</time>
      </trkpt>
      <trkpt lat="44.40765" lon="5.10895">
        <ele>519</ele>
        <time>2013-05-10T08:09:03Z</time>
      </trkpt>
      <trkpt lat="44.40766" lon="5.10889">
        <ele>518.20001220703</ele>
        <time>2013-05-10T08:09:04Z</time>
      </trkpt>
      <trkpt lat="44.40769" lon="5.10878">
        <ele>517.79998779297</ele>
        <time>2013-05-10T08:09:06Z</time>
      </trkpt>
      <trkpt lat="44.4077" lon="5.10874">
        <ele>517.40002441406</ele>
        <time>2013-05-10T08:09:07Z</time>
      </trkpt>
      <trkpt lat="44.40771" lon="5.10866">
        <ele>515.79998779297</ele>
        <time>2013-05-10T08:09:09Z</time>
      </trkpt>
      <trkpt lat="44.40772" lon="5.10857">
        <ele>515</ele>
        <time>2013-05-10T08:09:11Z</time>
      </trkpt>
      <trkpt lat="44.40783" lon="5.10864">
        <ele>511.20001220703</ele>
        <time>2013-05-10T08:09:17Z</time>
      </trkpt>
      <trkpt lat="44.40788" lon="5.10873">
        <ele>509.79998779297</ele>
        <time>2013-05-10T08:09:19Z</time>
      </trkpt>
      <trkpt lat="44.40791" lon="5.10884">
        <ele>509</ele>
        <time>2013-05-10T08:09:21Z</time>
      </trkpt>
      <trkpt lat="44.40795" lon="5.10893">
        <ele>506.39999389648</ele>
        <time>2013-05-10T08:09:23Z</time>
      </trkpt>
      <trkpt lat="44.408" lon="5.10904">
        <ele>503.60000610352</ele>
        <time>2013-05-10T08:09:26Z</time>
      </trkpt>
      <trkpt lat="44.40804" lon="5.10911">
        <ele>502</ele>
        <time>2013-05-10T08:09:28Z</time>
      </trkpt>
      <trkpt lat="44.40809" lon="5.10921">
        <ele>499.60000610352</ele>
        <time>2013-05-10T08:09:31Z</time>
      </trkpt>
      <trkpt lat="44.40812" lon="5.10923">
        <ele>498.79998779297</ele>
        <time>2013-05-10T08:09:32Z</time>
      </trkpt>
      <trkpt lat="44.40823" lon="5.10937">
        <ele>495.60000610352</ele>
        <time>2013-05-10T08:09:36Z</time>
      </trkpt>
      <trkpt lat="44.40826" lon="5.10942">
        <ele>495</ele>
        <time>2013-05-10T08:09:37Z</time>
      </trkpt>
      <trkpt lat="44.40837" lon="5.10953">
        <ele>493.79998779297</ele>
        <time>2013-05-10T08:09:41Z</time>
      </trkpt>
      <trkpt lat="44.4084" lon="5.10954">
        <ele>492.79998779297</ele>
        <time>2013-05-10T08:09:42Z</time>
      </trkpt>
      <trkpt lat="44.40847" lon="5.10961">
        <ele>492</ele>
        <time>2013-05-10T08:09:45Z</time>
      </trkpt>
      <trkpt lat="44.40851" lon="5.10964">
        <ele>491</ele>
        <time>2013-05-10T08:09:46Z</time>
      </trkpt>
      <trkpt lat="44.40862" lon="5.10973">
        <ele>487.20001220703</ele>
        <time>2013-05-10T08:09:51Z</time>
      </trkpt>
      <trkpt lat="44.40863" lon="5.10982">
        <ele>487.20001220703</ele>
        <time>2013-05-10T08:09:54Z</time>
      </trkpt>
      <trkpt lat="44.40863" lon="5.10994">
        <ele>487.20001220703</ele>
        <time>2013-05-10T08:09:58Z</time>
      </trkpt>
      <trkpt lat="44.40864" lon="5.11">
        <ele>488</ele>
        <time>2013-05-10T08:10:00Z</time>
      </trkpt>
      <trkpt lat="44.40869" lon="5.1101">
        <ele>489.20001220703</ele>
        <time>2013-05-10T08:10:03Z</time>
      </trkpt>
      <trkpt lat="44.40872" lon="5.11017">
        <ele>489.20001220703</ele>
        <time>2013-05-10T08:10:05Z</time>
      </trkpt>
      <trkpt lat="44.40878" lon="5.11033">
        <ele>490.20001220703</ele>
        <time>2013-05-10T08:10:10Z</time>
      </trkpt>
      <trkpt lat="44.40881" lon="5.11041">
        <ele>491</ele>
        <time>2013-05-10T08:10:12Z</time>
      </trkpt>
      <trkpt lat="44.40886" lon="5.11053">
        <ele>491.39999389648</ele>
        <time>2013-05-10T08:10:17Z</time>
      </trkpt>
      <trkpt lat="44.40891" lon="5.11063">
        <ele>491.79998779297</ele>
        <time>2013-05-10T08:10:36Z</time>
      </trkpt>
      <trkpt lat="44.40901" lon="5.11079">
        <ele>493.60000610352</ele>
        <time>2013-05-10T08:13:48Z</time>
      </trkpt>
      <trkpt lat="44.40903" lon="5.11082">
        <ele>493.60000610352</ele>
        <time>2013-05-10T08:13:49Z</time>
      </trkpt>
      <trkpt lat="44.40908" lon="5.1109">
        <ele>495.39999389648</ele>
        <time>2013-05-10T08:13:54Z</time>
      </trkpt>
      <trkpt lat="44.40912" lon="5.11095">
        <ele>496</ele>
        <time>2013-05-10T08:13:57Z</time>
      </trkpt>
      <trkpt lat="44.40917" lon="5.111">
        <ele>497.20001220703</ele>
        <time>2013-05-10T08:14:01Z</time>
      </trkpt>
      <trkpt lat="44.4092" lon="5.11104">
        <ele>498</ele>
        <time>2013-05-10T08:14:04Z</time>
      </trkpt>
      <trkpt lat="44.40932" lon="5.11114">
        <ele>498.60000610352</ele>
        <time>2013-05-10T08:14:14Z</time>
      </trkpt>
      <trkpt lat="44.4094" lon="5.11122">
        <ele>501</ele>
        <time>2013-05-10T08:14:23Z</time>
      </trkpt>
      <trkpt lat="44.40951" lon="5.11129">
        <ele>502.60000610352</ele>
        <time>2013-05-10T08:14:34Z</time>
      </trkpt>
      <trkpt lat="44.40956" lon="5.1111">
        <ele>504.79998779297</ele>
        <time>2013-05-10T08:14:49Z</time>
      </trkpt>
      <trkpt lat="44.4096" lon="5.1111">
        <ele>506.39999389648</ele>
        <time>2013-05-10T08:14:54Z</time>
      </trkpt>
      <trkpt lat="44.4096" lon="5.11114">
        <ele>506.79998779297</ele>
        <time>2013-05-10T08:15:27Z</time>
      </trkpt>
      <trkpt lat="44.4096" lon="5.11112">
        <ele>506.79998779297</ele>
        <time>2013-05-10T08:16:11Z</time>
      </trkpt>
      <trkpt lat="44.40958" lon="5.1111">
        <ele>506.79998779297</ele>
        <time>2013-05-10T08:16:26Z</time>
      </trkpt>
      <trkpt lat="44.40963" lon="5.11103">
        <ele>506.79998779297</ele>
        <time>2013-05-10T08:17:38Z</time>
      </trkpt>
      <trkpt lat="44.40967" lon="5.11097">
        <ele>506.79998779297</ele>
        <time>2013-05-10T08:17:42Z</time>
      </trkpt>
      <trkpt lat="44.4097" lon="5.11094">
        <ele>507.60000610352</ele>
        <time>2013-05-10T08:17:45Z</time>
      </trkpt>
      <trkpt lat="44.40978" lon="5.11089">
        <ele>508.79998779297</ele>
        <time>2013-05-10T08:17:51Z</time>
      </trkpt>
      <trkpt lat="44.40982" lon="5.11086">
        <ele>509.39999389648</ele>
        <time>2013-05-10T08:17:54Z</time>
      </trkpt>
      <trkpt lat="44.4099" lon="5.11079">
        <ele>510.79998779297</ele>
        <time>2013-05-10T08:18:01Z</time>
      </trkpt>
      <trkpt lat="44.40997" lon="5.1107">
        <ele>513</ele>
        <time>2013-05-10T08:18:09Z</time>
      </trkpt>
      <trkpt lat="44.41001" lon="5.11063">
        <ele>514.20001220703</ele>
        <time>2013-05-10T08:18:14Z</time>
      </trkpt>
      <trkpt lat="44.41004" lon="5.1106">
        <ele>515.59997558594</ele>
        <time>2013-05-10T08:18:17Z</time>
      </trkpt>
      <trkpt lat="44.4101" lon="5.11054">
        <ele>515.59997558594</ele>
        <time>2013-05-10T08:18:23Z</time>
      </trkpt>
      <trkpt lat="44.41014" lon="5.11049">
        <ele>516.40002441406</ele>
        <time>2013-05-10T08:18:26Z</time>
      </trkpt>
      <trkpt lat="44.41031" lon="5.11032">
        <ele>518</ele>
        <time>2013-05-10T08:18:39Z</time>
      </trkpt>
      <trkpt lat="44.41035" lon="5.11029">
        <ele>519.20001220703</ele>
        <time>2013-05-10T08:18:42Z</time>
      </trkpt>
      <trkpt lat="44.41047" lon="5.11014">
        <ele>519.59997558594</ele>
        <time>2013-05-10T08:18:53Z</time>
      </trkpt>
      <trkpt lat="44.41049" lon="5.1101">
        <ele>521</ele>
        <time>2013-05-10T08:18:56Z</time>
      </trkpt>
      <trkpt lat="44.4105" lon="5.11006">
        <ele>521.79998779297</ele>
        <time>2013-05-10T08:18:58Z</time>
      </trkpt>
      <trkpt lat="44.41054" lon="5.10997">
        <ele>522.40002441406</ele>
        <time>2013-05-10T08:19:04Z</time>
      </trkpt>
      <trkpt lat="44.41057" lon="5.10988">
        <ele>524</ele>
        <time>2013-05-10T08:19:10Z</time>
      </trkpt>
      <trkpt lat="44.41059" lon="5.10979">
        <ele>525.79998779297</ele>
        <time>2013-05-10T08:19:15Z</time>
      </trkpt>
      <trkpt lat="44.4106" lon="5.10977">
        <ele>526.20001220703</ele>
        <time>2013-05-10T08:19:16Z</time>
      </trkpt>
      <trkpt lat="44.41063" lon="5.1096">
        <ele>526.59997558594</ele>
        <time>2013-05-10T08:19:24Z</time>
      </trkpt>
      <trkpt lat="44.41063" lon="5.10958">
        <ele>527</ele>
        <time>2013-05-10T08:19:25Z</time>
      </trkpt>
      <trkpt lat="44.41059" lon="5.10943">
        <ele>528.40002441406</ele>
        <time>2013-05-10T08:19:33Z</time>
      </trkpt>
      <trkpt lat="44.41059" lon="5.10939">
        <ele>528.79998779297</ele>
        <time>2013-05-10T08:19:35Z</time>
      </trkpt>
      <trkpt lat="44.41063" lon="5.10918">
        <ele>530.59997558594</ele>
        <time>2013-05-10T08:19:45Z</time>
      </trkpt>
      <trkpt lat="44.41064" lon="5.10909">
        <ele>531.40002441406</ele>
        <time>2013-05-10T08:19:48Z</time>
      </trkpt>
      <trkpt lat="44.41059" lon="5.10891">
        <ele>532.79998779297</ele>
        <time>2013-05-10T08:19:54Z</time>
      </trkpt>
      <trkpt lat="44.41055" lon="5.10865">
        <ele>532.79998779297</ele>
        <time>2013-05-10T08:19:59Z</time>
      </trkpt>
      <trkpt lat="44.41048" lon="5.10851">
        <ele>532.79998779297</ele>
        <time>2013-05-10T08:20:04Z</time>
      </trkpt>
      <trkpt lat="44.41047" lon="5.1085">
        <ele>533.20001220703</ele>
        <time>2013-05-10T08:20:05Z</time>
      </trkpt>
      <trkpt lat="44.41039" lon="5.10839">
        <ele>534.79998779297</ele>
        <time>2013-05-10T08:20:09Z</time>
      </trkpt>
      <trkpt lat="44.41035" lon="5.10828">
        <ele>534.79998779297</ele>
        <time>2013-05-10T08:20:11Z</time>
      </trkpt>
      <trkpt lat="44.41037" lon="5.10812">
        <ele>534.79998779297</ele>
        <time>2013-05-10T08:20:13Z</time>
      </trkpt>
      <trkpt lat="44.41049" lon="5.10798">
        <ele>534.79998779297</ele>
        <time>2013-05-10T08:20:16Z</time>
      </trkpt>
      <trkpt lat="44.41053" lon="5.10793">
        <ele>534.79998779297</ele>
        <time>2013-05-10T08:20:17Z</time>
      </trkpt>
      <trkpt lat="44.41063" lon="5.1078">
        <ele>534.79998779297</ele>
        <time>2013-05-10T08:20:21Z</time>
      </trkpt>
      <trkpt lat="44.4107" lon="5.10772">
        <ele>534.79998779297</ele>
        <time>2013-05-10T08:20:25Z</time>
      </trkpt>
      <trkpt lat="44.41072" lon="5.1077">
        <ele>534.79998779297</ele>
        <time>2013-05-10T08:20:26Z</time>
      </trkpt>
      <trkpt lat="44.4108" lon="5.10761">
        <ele>536.20001220703</ele>
        <time>2013-05-10T08:20:31Z</time>
      </trkpt>
      <trkpt lat="44.41082" lon="5.10759">
        <ele>536.59997558594</ele>
        <time>2013-05-10T08:20:32Z</time>
      </trkpt>
      <trkpt lat="44.41091" lon="5.10749">
        <ele>537</ele>
        <time>2013-05-10T08:20:38Z</time>
      </trkpt>
      <trkpt lat="44.41098" lon="5.1074">
        <ele>539</ele>
        <time>2013-05-10T08:20:43Z</time>
      </trkpt>
      <trkpt lat="44.411" lon="5.10736">
        <ele>539</ele>
        <time>2013-05-10T08:20:45Z</time>
      </trkpt>
      <trkpt lat="44.41108" lon="5.10727">
        <ele>539.59997558594</ele>
        <time>2013-05-10T08:20:51Z</time>
      </trkpt>
      <trkpt lat="44.41111" lon="5.10724">
        <ele>540.79998779297</ele>
        <time>2013-05-10T08:20:54Z</time>
      </trkpt>
      <trkpt lat="44.41116" lon="5.10719">
        <ele>541.79998779297</ele>
        <time>2013-05-10T08:20:58Z</time>
      </trkpt>
      <trkpt lat="44.41127" lon="5.10705">
        <ele>543.79998779297</ele>
        <time>2013-05-10T08:21:09Z</time>
      </trkpt>
      <trkpt lat="44.4113" lon="5.10699">
        <ele>545.59997558594</ele>
        <time>2013-05-10T08:21:13Z</time>
      </trkpt>
      <trkpt lat="44.41139" lon="5.10689">
        <ele>547.59997558594</ele>
        <time>2013-05-10T08:21:21Z</time>
      </trkpt>
      <trkpt lat="44.41143" lon="5.10686">
        <ele>547.59997558594</ele>
        <time>2013-05-10T08:21:24Z</time>
      </trkpt>
      <trkpt lat="44.41153" lon="5.1068">
        <ele>549.59997558594</ele>
        <time>2013-05-10T08:21:34Z</time>
      </trkpt>
      <trkpt lat="44.41161" lon="5.10677">
        <ele>551</ele>
        <time>2013-05-10T08:21:41Z</time>
      </trkpt>
      <trkpt lat="44.41171" lon="5.1067">
        <ele>553.59997558594</ele>
        <time>2013-05-10T08:21:50Z</time>
      </trkpt>
      <trkpt lat="44.4118" lon="5.10665">
        <ele>555.59997558594</ele>
        <time>2013-05-10T08:22:00Z</time>
      </trkpt>
      <trkpt lat="44.41187" lon="5.10659">
        <ele>556.40002441406</ele>
        <time>2013-05-10T08:22:09Z</time>
      </trkpt>
      <trkpt lat="44.41194" lon="5.1065">
        <ele>558.40002441406</ele>
        <time>2013-05-10T08:22:18Z</time>
      </trkpt>
      <trkpt lat="44.41201" lon="5.10638">
        <ele>560.20001220703</ele>
        <time>2013-05-10T08:22:28Z</time>
      </trkpt>
      <trkpt lat="44.41209" lon="5.1063">
        <ele>562.20001220703</ele>
        <time>2013-05-10T08:22:36Z</time>
      </trkpt>
      <trkpt lat="44.41213" lon="5.10624">
        <ele>562.79998779297</ele>
        <time>2013-05-10T08:22:41Z</time>
      </trkpt>
      <trkpt lat="44.41219" lon="5.10617">
        <ele>564.59997558594</ele>
        <time>2013-05-10T08:22:48Z</time>
      </trkpt>
      <trkpt lat="44.41225" lon="5.1061">
        <ele>565.20001220703</ele>
        <time>2013-05-10T08:22:54Z</time>
      </trkpt>
      <trkpt lat="44.41226" lon="5.10609">
        <ele>565.59997558594</ele>
        <time>2013-05-10T08:22:55Z</time>
      </trkpt>
      <trkpt lat="44.41235" lon="5.106">
        <ele>567</ele>
        <time>2013-05-10T08:23:05Z</time>
      </trkpt>
      <trkpt lat="44.41241" lon="5.10594">
        <ele>569.20001220703</ele>
        <time>2013-05-10T08:23:11Z</time>
      </trkpt>
      <trkpt lat="44.41245" lon="5.10589">
        <ele>569.59997558594</ele>
        <time>2013-05-10T08:23:16Z</time>
      </trkpt>
      <trkpt lat="44.41253" lon="5.1058">
        <ele>571.20001220703</ele>
        <time>2013-05-10T08:23:24Z</time>
      </trkpt>
      <trkpt lat="44.4126" lon="5.10569">
        <ele>572</ele>
        <time>2013-05-10T08:23:33Z</time>
      </trkpt>
      <trkpt lat="44.4127" lon="5.10555">
        <ele>573.59997558594</ele>
        <time>2013-05-10T08:23:45Z</time>
      </trkpt>
      <trkpt lat="44.41283" lon="5.10544">
        <ele>575.40002441406</ele>
        <time>2013-05-10T08:23:56Z</time>
      </trkpt>
      <trkpt lat="44.41286" lon="5.10539">
        <ele>576.59997558594</ele>
        <time>2013-05-10T08:24:00Z</time>
      </trkpt>
      <trkpt lat="44.41293" lon="5.10534">
        <ele>577.40002441406</ele>
        <time>2013-05-10T08:24:06Z</time>
      </trkpt>
      <trkpt lat="44.41297" lon="5.1053">
        <ele>577.79998779297</ele>
        <time>2013-05-10T08:24:10Z</time>
      </trkpt>
      <trkpt lat="44.41301" lon="5.10525">
        <ele>579.40002441406</ele>
        <time>2013-05-10T08:24:14Z</time>
      </trkpt>
      <trkpt lat="44.41308" lon="5.10517">
        <ele>580</ele>
        <time>2013-05-10T08:24:22Z</time>
      </trkpt>
      <trkpt lat="44.41311" lon="5.10513">
        <ele>581.40002441406</ele>
        <time>2013-05-10T08:24:25Z</time>
      </trkpt>
      <trkpt lat="44.41322" lon="5.10503">
        <ele>582.20001220703</ele>
        <time>2013-05-10T08:24:35Z</time>
      </trkpt>
      <trkpt lat="44.41325" lon="5.105">
        <ele>583.40002441406</ele>
        <time>2013-05-10T08:24:38Z</time>
      </trkpt>
      <trkpt lat="44.41331" lon="5.10493">
        <ele>584.20001220703</ele>
        <time>2013-05-10T08:24:45Z</time>
      </trkpt>
      <trkpt lat="44.41335" lon="5.1049">
        <ele>586</ele>
        <time>2013-05-10T08:24:49Z</time>
      </trkpt>
      <trkpt lat="44.41344" lon="5.1048">
        <ele>586.59997558594</ele>
        <time>2013-05-10T08:25:00Z</time>
      </trkpt>
      <trkpt lat="44.41359" lon="5.10463">
        <ele>588.79998779297</ele>
        <time>2013-05-10T08:25:16Z</time>
      </trkpt>
      <trkpt lat="44.4136" lon="5.10461">
        <ele>589.59997558594</ele>
        <time>2013-05-10T08:25:18Z</time>
      </trkpt>
      <trkpt lat="44.41361" lon="5.10459">
        <ele>590.20001220703</ele>
        <time>2013-05-10T08:25:19Z</time>
      </trkpt>
      <trkpt lat="44.41365" lon="5.10449">
        <ele>591.40002441406</ele>
        <time>2013-05-10T08:25:27Z</time>
      </trkpt>
      <trkpt lat="44.4137" lon="5.10437">
        <ele>592.79998779297</ele>
        <time>2013-05-10T08:25:36Z</time>
      </trkpt>
      <trkpt lat="44.41371" lon="5.10432">
        <ele>593.20001220703</ele>
        <time>2013-05-10T08:25:39Z</time>
      </trkpt>
      <trkpt lat="44.41372" lon="5.10429">
        <ele>594.20001220703</ele>
        <time>2013-05-10T08:25:41Z</time>
      </trkpt>
      <trkpt lat="44.41379" lon="5.10415">
        <ele>595.40002441406</ele>
        <time>2013-05-10T08:25:51Z</time>
      </trkpt>
      <trkpt lat="44.41381" lon="5.10413">
        <ele>596.40002441406</ele>
        <time>2013-05-10T08:25:53Z</time>
      </trkpt>
      <trkpt lat="44.41386" lon="5.10405">
        <ele>597.59997558594</ele>
        <time>2013-05-10T08:25:59Z</time>
      </trkpt>
      <trkpt lat="44.41397" lon="5.10392">
        <ele>599.79998779297</ele>
        <time>2013-05-10T08:26:11Z</time>
      </trkpt>
      <trkpt lat="44.414" lon="5.10389">
        <ele>601</ele>
        <time>2013-05-10T08:26:14Z</time>
      </trkpt>
      <trkpt lat="44.41401" lon="5.10388">
        <ele>601.40002441406</ele>
        <time>2013-05-10T08:26:15Z</time>
      </trkpt>
      <trkpt lat="44.4141" lon="5.1038">
        <ele>603.20001220703</ele>
        <time>2013-05-10T08:26:25Z</time>
      </trkpt>
      <trkpt lat="44.4142" lon="5.10375">
        <ele>604.40002441406</ele>
        <time>2013-05-10T08:26:34Z</time>
      </trkpt>
      <trkpt lat="44.41433" lon="5.10372">
        <ele>606.20001220703</ele>
        <time>2013-05-10T08:26:45Z</time>
      </trkpt>
      <trkpt lat="44.41436" lon="5.1037">
        <ele>607.40002441406</ele>
        <time>2013-05-10T08:26:48Z</time>
      </trkpt>
      <trkpt lat="44.41444" lon="5.10363">
        <ele>608.40002441406</ele>
        <time>2013-05-10T08:26:55Z</time>
      </trkpt>
      <trkpt lat="44.41447" lon="5.1036">
        <ele>610</ele>
        <time>2013-05-10T08:26:59Z</time>
      </trkpt>
      <trkpt lat="44.41454" lon="5.10351">
        <ele>610.40002441406</ele>
        <time>2013-05-10T08:27:07Z</time>
      </trkpt>
      <trkpt lat="44.41455" lon="5.10349">
        <ele>610.79998779297</ele>
        <time>2013-05-10T08:27:08Z</time>
      </trkpt>
      <trkpt lat="44.41461" lon="5.1034">
        <ele>612.20001220703</ele>
        <time>2013-05-10T08:27:16Z</time>
      </trkpt>
      <trkpt lat="44.41469" lon="5.10325">
        <ele>614.20001220703</ele>
        <time>2013-05-10T08:27:28Z</time>
      </trkpt>
      <trkpt lat="44.41471" lon="5.10322">
        <ele>614.59997558594</ele>
        <time>2013-05-10T08:27:30Z</time>
      </trkpt>
      <trkpt lat="44.41473" lon="5.1032">
        <ele>615.59997558594</ele>
        <time>2013-05-10T08:27:32Z</time>
      </trkpt>
      <trkpt lat="44.4148" lon="5.1031">
        <ele>616.79998779297</ele>
        <time>2013-05-10T08:27:41Z</time>
      </trkpt>
      <trkpt lat="44.41492" lon="5.10293">
        <ele>618.40002441406</ele>
        <time>2013-05-10T08:27:56Z</time>
      </trkpt>
      <trkpt lat="44.415" lon="5.10296">
        <ele>618.40002441406</ele>
        <time>2013-05-10T08:28:03Z</time>
      </trkpt>
      <trkpt lat="44.41498" lon="5.10302">
        <ele>618.79998779297</ele>
        <time>2013-05-10T08:28:07Z</time>
      </trkpt>
      <trkpt lat="44.41489" lon="5.10314">
        <ele>619.59997558594</ele>
        <time>2013-05-10T08:28:16Z</time>
      </trkpt>
      <trkpt lat="44.41485" lon="5.10322">
        <ele>620</ele>
        <time>2013-05-10T08:28:21Z</time>
      </trkpt>
      <trkpt lat="44.41482" lon="5.10331">
        <ele>621.20001220703</ele>
        <time>2013-05-10T08:28:26Z</time>
      </trkpt>
      <trkpt lat="44.4148" lon="5.10341">
        <ele>622.20001220703</ele>
        <time>2013-05-10T08:28:32Z</time>
      </trkpt>
      <trkpt lat="44.41479" lon="5.10354">
        <ele>623.20001220703</ele>
        <time>2013-05-10T08:28:38Z</time>
      </trkpt>
      <trkpt lat="44.41479" lon="5.10361">
        <ele>625</ele>
        <time>2013-05-10T08:28:42Z</time>
      </trkpt>
      <trkpt lat="44.41476" lon="5.10371">
        <ele>625</ele>
        <time>2013-05-10T08:28:48Z</time>
      </trkpt>
      <trkpt lat="44.41473" lon="5.1038">
        <ele>625.40002441406</ele>
        <time>2013-05-10T08:28:53Z</time>
      </trkpt>
      <trkpt lat="44.41471" lon="5.10401">
        <ele>627.20001220703</ele>
        <time>2013-05-10T08:29:04Z</time>
      </trkpt>
      <trkpt lat="44.41478" lon="5.10399">
        <ele>627.59997558594</ele>
        <time>2013-05-10T08:29:08Z</time>
      </trkpt>
      <trkpt lat="44.41481" lon="5.10396">
        <ele>629.20001220703</ele>
        <time>2013-05-10T08:29:11Z</time>
      </trkpt>
      <trkpt lat="44.41483" lon="5.10389">
        <ele>629.59997558594</ele>
        <time>2013-05-10T08:29:15Z</time>
      </trkpt>
      <trkpt lat="44.41488" lon="5.10379">
        <ele>630</ele>
        <time>2013-05-10T08:29:22Z</time>
      </trkpt>
      <trkpt lat="44.4149" lon="5.10375">
        <ele>631.20001220703</ele>
        <time>2013-05-10T08:29:25Z</time>
      </trkpt>
      <trkpt lat="44.41495" lon="5.10369">
        <ele>632</ele>
        <time>2013-05-10T08:29:31Z</time>
      </trkpt>
      <trkpt lat="44.41502" lon="5.10359">
        <ele>634.20001220703</ele>
        <time>2013-05-10T08:29:40Z</time>
      </trkpt>
      <trkpt lat="44.41509" lon="5.10349">
        <ele>636.79998779297</ele>
        <time>2013-05-10T08:29:49Z</time>
      </trkpt>
      <trkpt lat="44.4151" lon="5.10348">
        <ele>637.20001220703</ele>
        <time>2013-05-10T08:29:50Z</time>
      </trkpt>
      <trkpt lat="44.41516" lon="5.1034">
        <ele>639.20001220703</ele>
        <time>2013-05-10T08:29:58Z</time>
      </trkpt>
      <trkpt lat="44.41521" lon="5.10333">
        <ele>640.79998779297</ele>
        <time>2013-05-10T08:30:05Z</time>
      </trkpt>
      <trkpt lat="44.41523" lon="5.10329">
        <ele>642.20001220703</ele>
        <time>2013-05-10T08:30:08Z</time>
      </trkpt>
      <trkpt lat="44.41531" lon="5.10318">
        <ele>645</ele>
        <time>2013-05-10T08:30:18Z</time>
      </trkpt>
      <trkpt lat="44.4154" lon="5.10314">
        <ele>649.20001220703</ele>
        <time>2013-05-10T08:30:27Z</time>
      </trkpt>
      <trkpt lat="44.4155" lon="5.10309">
        <ele>649.59997558594</ele>
        <time>2013-05-10T08:30:36Z</time>
      </trkpt>
      <trkpt lat="44.41563" lon="5.10293">
        <ele>651.20001220703</ele>
        <time>2013-05-10T08:30:51Z</time>
      </trkpt>
      <trkpt lat="44.41565" lon="5.10289">
        <ele>652.40002441406</ele>
        <time>2013-05-10T08:30:54Z</time>
      </trkpt>
      <trkpt lat="44.41572" lon="5.10274">
        <ele>653.40002441406</ele>
        <time>2013-05-10T08:31:08Z</time>
      </trkpt>
      <trkpt lat="44.41575" lon="5.10269">
        <ele>655</ele>
        <time>2013-05-10T08:31:12Z</time>
      </trkpt>
      <trkpt lat="44.41582" lon="5.10261">
        <ele>655.40002441406</ele>
        <time>2013-05-10T08:31:21Z</time>
      </trkpt>
      <trkpt lat="44.41582" lon="5.1026">
        <ele>655.79998779297</ele>
        <time>2013-05-10T08:31:22Z</time>
      </trkpt>
      <trkpt lat="44.41594" lon="5.10245">
        <ele>658</ele>
        <time>2013-05-10T08:31:40Z</time>
      </trkpt>
      <trkpt lat="44.41599" lon="5.1024">
        <ele>659.59997558594</ele>
        <time>2013-05-10T08:31:47Z</time>
      </trkpt>
      <trkpt lat="44.41604" lon="5.10233">
        <ele>660</ele>
        <time>2013-05-10T08:31:55Z</time>
      </trkpt>
      <trkpt lat="44.41607" lon="5.1023">
        <ele>661.79998779297</ele>
        <time>2013-05-10T08:31:59Z</time>
      </trkpt>
      <trkpt lat="44.41612" lon="5.10226">
        <ele>661.79998779297</ele>
        <time>2013-05-10T08:32:05Z</time>
      </trkpt>
      <trkpt lat="44.41621" lon="5.10219">
        <ele>664</ele>
        <time>2013-05-10T08:32:15Z</time>
      </trkpt>
      <trkpt lat="44.4163" lon="5.10213">
        <ele>664.79998779297</ele>
        <time>2013-05-10T08:32:26Z</time>
      </trkpt>
      <trkpt lat="44.41638" lon="5.10208">
        <ele>666</ele>
        <time>2013-05-10T08:32:34Z</time>
      </trkpt>
      <trkpt lat="44.41645" lon="5.10206">
        <ele>666.40002441406</ele>
        <time>2013-05-10T08:32:40Z</time>
      </trkpt>
      <trkpt lat="44.41651" lon="5.10205">
        <ele>668</ele>
        <time>2013-05-10T08:32:45Z</time>
      </trkpt>
      <trkpt lat="44.41659" lon="5.10193">
        <ele>668</ele>
        <time>2013-05-10T08:32:56Z</time>
      </trkpt>
      <trkpt lat="44.41656" lon="5.10181">
        <ele>668.40002441406</ele>
        <time>2013-05-10T08:33:04Z</time>
      </trkpt>
      <trkpt lat="44.41657" lon="5.10179">
        <ele>668.79998779297</ele>
        <time>2013-05-10T08:33:05Z</time>
      </trkpt>
      <trkpt lat="44.41664" lon="5.1017">
        <ele>670.20001220703</ele>
        <time>2013-05-10T08:33:16Z</time>
      </trkpt>
      <trkpt lat="44.41668" lon="5.10166">
        <ele>670.79998779297</ele>
        <time>2013-05-10T08:33:22Z</time>
      </trkpt>
      <trkpt lat="44.4167" lon="5.10163">
        <ele>670.79998779297</ele>
        <time>2013-05-10T08:33:25Z</time>
      </trkpt>
      <trkpt lat="44.41675" lon="5.10158">
        <ele>672.20001220703</ele>
        <time>2013-05-10T08:33:32Z</time>
      </trkpt>
      <trkpt lat="44.41683" lon="5.10148">
        <ele>673.59997558594</ele>
        <time>2013-05-10T08:33:42Z</time>
      </trkpt>
      <trkpt lat="44.41688" lon="5.10138">
        <ele>675</ele>
        <time>2013-05-10T08:33:52Z</time>
      </trkpt>
      <trkpt lat="44.4169" lon="5.10135">
        <ele>675</ele>
        <time>2013-05-10T08:33:55Z</time>
      </trkpt>
      <trkpt lat="44.41694" lon="5.10127">
        <ele>676.59997558594</ele>
        <time>2013-05-10T08:34:02Z</time>
      </trkpt>
      <trkpt lat="44.41698" lon="5.10115">
        <ele>679.79998779297</ele>
        <time>2013-05-10T08:34:12Z</time>
      </trkpt>
      <trkpt lat="44.417" lon="5.10109">
        <ele>681</ele>
        <time>2013-05-10T08:34:17Z</time>
      </trkpt>
      <trkpt lat="44.41701" lon="5.10107">
        <ele>681.59997558594</ele>
        <time>2013-05-10T08:34:18Z</time>
      </trkpt>
      <trkpt lat="44.41703" lon="5.10099">
        <ele>683.59997558594</ele>
        <time>2013-05-10T08:34:24Z</time>
      </trkpt>
      <trkpt lat="44.41705" lon="5.10089">
        <ele>685.40002441406</ele>
        <time>2013-05-10T08:34:32Z</time>
      </trkpt>
      <trkpt lat="44.41709" lon="5.1008">
        <ele>687.40002441406</ele>
        <time>2013-05-10T08:34:40Z</time>
      </trkpt>
      <trkpt lat="44.4171" lon="5.10077">
        <ele>688.79998779297</ele>
        <time>2013-05-10T08:34:43Z</time>
      </trkpt>
      <trkpt lat="44.41718" lon="5.10069">
        <ele>689.20001220703</ele>
        <time>2013-05-10T08:34:52Z</time>
      </trkpt>
      <trkpt lat="44.41722" lon="5.10067">
        <ele>689.79998779297</ele>
        <time>2013-05-10T08:34:56Z</time>
      </trkpt>
      <trkpt lat="44.41735" lon="5.10065">
        <ele>691.59997558594</ele>
        <time>2013-05-10T08:35:08Z</time>
      </trkpt>
      <trkpt lat="44.41741" lon="5.10063">
        <ele>692</ele>
        <time>2013-05-10T08:35:14Z</time>
      </trkpt>
      <trkpt lat="44.41754" lon="5.10057">
        <ele>693.79998779297</ele>
        <time>2013-05-10T08:35:25Z</time>
      </trkpt>
      <trkpt lat="44.4176" lon="5.10048">
        <ele>693.79998779297</ele>
        <time>2013-05-10T08:35:33Z</time>
      </trkpt>
      <trkpt lat="44.4176" lon="5.10045">
        <ele>694.59997558594</ele>
        <time>2013-05-10T08:35:35Z</time>
      </trkpt>
      <trkpt lat="44.4176" lon="5.10043">
        <ele>695</ele>
        <time>2013-05-10T08:35:36Z</time>
      </trkpt>
      <trkpt lat="44.4176" lon="5.10042">
        <ele>695.40002441406</ele>
        <time>2013-05-10T08:35:37Z</time>
      </trkpt>
      <trkpt lat="44.41759" lon="5.10039">
        <ele>696</ele>
        <time>2013-05-10T08:35:39Z</time>
      </trkpt>
      <trkpt lat="44.41757" lon="5.1003">
        <ele>696.79998779297</ele>
        <time>2013-05-10T08:35:46Z</time>
      </trkpt>
      <trkpt lat="44.41759" lon="5.10019">
        <ele>698</ele>
        <time>2013-05-10T08:35:54Z</time>
      </trkpt>
      <trkpt lat="44.41761" lon="5.10016">
        <ele>698</ele>
        <time>2013-05-10T08:35:56Z</time>
      </trkpt>
      <trkpt lat="44.41772" lon="5.10007">
        <ele>698</ele>
        <time>2013-05-10T08:36:07Z</time>
      </trkpt>
      <trkpt lat="44.41778" lon="5.1">
        <ele>700.20001220703</ele>
        <time>2013-05-10T08:36:12Z</time>
      </trkpt>
      <trkpt lat="44.41781" lon="5.09995">
        <ele>700.20001220703</ele>
        <time>2013-05-10T08:36:14Z</time>
      </trkpt>
      <trkpt lat="44.41788" lon="5.0998">
        <ele>700.20001220703</ele>
        <time>2013-05-10T08:36:19Z</time>
      </trkpt>
      <trkpt lat="44.41791" lon="5.09973">
        <ele>699.79998779297</ele>
        <time>2013-05-10T08:36:21Z</time>
      </trkpt>
      <trkpt lat="44.41792" lon="5.09969">
        <ele>699.40002441406</ele>
        <time>2013-05-10T08:36:22Z</time>
      </trkpt>
      <trkpt lat="44.41795" lon="5.0996">
        <ele>698.59997558594</ele>
        <time>2013-05-10T08:36:24Z</time>
      </trkpt>
      <trkpt lat="44.41802" lon="5.0995">
        <ele>698.20001220703</ele>
        <time>2013-05-10T08:36:27Z</time>
      </trkpt>
      <trkpt lat="44.41826" lon="5.09945">
        <ele>697.59997558594</ele>
        <time>2013-05-10T08:36:35Z</time>
      </trkpt>
      <trkpt lat="44.41832" lon="5.09945">
        <ele>696.79998779297</ele>
        <time>2013-05-10T08:36:37Z</time>
      </trkpt>
      <trkpt lat="44.41845" lon="5.09951">
        <ele>696</ele>
        <time>2013-05-10T08:36:42Z</time>
      </trkpt>
      <trkpt lat="44.41851" lon="5.09952">
        <ele>696</ele>
        <time>2013-05-10T08:36:44Z</time>
      </trkpt>
      <trkpt lat="44.41858" lon="5.09946">
        <ele>696</ele>
        <time>2013-05-10T08:36:47Z</time>
      </trkpt>
      <trkpt lat="44.41859" lon="5.09928">
        <ele>696</ele>
        <time>2013-05-10T08:36:52Z</time>
      </trkpt>
      <trkpt lat="44.41863" lon="5.09919">
        <ele>696</ele>
        <time>2013-05-10T08:36:56Z</time>
      </trkpt>
      <trkpt lat="44.41872" lon="5.09908">
        <ele>696</ele>
        <time>2013-05-10T08:37:01Z</time>
      </trkpt>
      <trkpt lat="44.41872" lon="5.09888">
        <ele>696</ele>
        <time>2013-05-10T08:37:07Z</time>
      </trkpt>
      <trkpt lat="44.41873" lon="5.09869">
        <ele>696</ele>
        <time>2013-05-10T08:37:13Z</time>
      </trkpt>
      <trkpt lat="44.41874" lon="5.09852">
        <ele>696</ele>
        <time>2013-05-10T08:37:18Z</time>
      </trkpt>
      <trkpt lat="44.41873" lon="5.09824">
        <ele>696</ele>
        <time>2013-05-10T08:37:25Z</time>
      </trkpt>
      <trkpt lat="44.41873" lon="5.09798">
        <ele>696</ele>
        <time>2013-05-10T08:37:31Z</time>
      </trkpt>
      <trkpt lat="44.41877" lon="5.09783">
        <ele>696</ele>
        <time>2013-05-10T08:37:35Z</time>
      </trkpt>
      <trkpt lat="44.41879" lon="5.09767">
        <ele>696</ele>
        <time>2013-05-10T08:37:41Z</time>
      </trkpt>
      <trkpt lat="44.41879" lon="5.09755">
        <ele>695.59997558594</ele>
        <time>2013-05-10T08:37:44Z</time>
      </trkpt>
      <trkpt lat="44.41879" lon="5.09746">
        <ele>694.79998779297</ele>
        <time>2013-05-10T08:37:46Z</time>
      </trkpt>
      <trkpt lat="44.41877" lon="5.09737">
        <ele>693.40002441406</ele>
        <time>2013-05-10T08:37:48Z</time>
      </trkpt>
      <trkpt lat="44.41875" lon="5.09728">
        <ele>692</ele>
        <time>2013-05-10T08:37:50Z</time>
      </trkpt>
      <trkpt lat="44.41876" lon="5.09715">
        <ele>690.59997558594</ele>
        <time>2013-05-10T08:37:52Z</time>
      </trkpt>
      <trkpt lat="44.41877" lon="5.09709">
        <ele>690</ele>
        <time>2013-05-10T08:37:53Z</time>
      </trkpt>
      <trkpt lat="44.4188" lon="5.09687">
        <ele>688.79998779297</ele>
        <time>2013-05-10T08:37:57Z</time>
      </trkpt>
      <trkpt lat="44.41876" lon="5.09677">
        <ele>687.79998779297</ele>
        <time>2013-05-10T08:37:59Z</time>
      </trkpt>
      <trkpt lat="44.41869" lon="5.09668">
        <ele>686.79998779297</ele>
        <time>2013-05-10T08:38:01Z</time>
      </trkpt>
      <trkpt lat="44.4186" lon="5.09658">
        <ele>684.79998779297</ele>
        <time>2013-05-10T08:38:04Z</time>
      </trkpt>
      <trkpt lat="44.41854" lon="5.09648">
        <ele>684.20001220703</ele>
        <time>2013-05-10T08:38:07Z</time>
      </trkpt>
      <trkpt lat="44.41845" lon="5.09622">
        <ele>684.20001220703</ele>
        <time>2013-05-10T08:38:14Z</time>
      </trkpt>
      <trkpt lat="44.41844" lon="5.09617">
        <ele>684.20001220703</ele>
        <time>2013-05-10T08:38:16Z</time>
      </trkpt>
      <trkpt lat="44.41843" lon="5.09609">
        <ele>684.20001220703</ele>
        <time>2013-05-10T08:38:20Z</time>
      </trkpt>
      <trkpt lat="44.41846" lon="5.09599">
        <ele>686.40002441406</ele>
        <time>2013-05-10T08:43:10Z</time>
      </trkpt>
      <trkpt lat="44.41844" lon="5.0959">
        <ele>686.40002441406</ele>
        <time>2013-05-10T08:44:38Z</time>
      </trkpt>
      <trkpt lat="44.41845" lon="5.09578">
        <ele>686.40002441406</ele>
        <time>2013-05-10T08:45:05Z</time>
      </trkpt>
      <trkpt lat="44.41846" lon="5.09565">
        <ele>686.40002441406</ele>
        <time>2013-05-10T08:45:26Z</time>
      </trkpt>
      <trkpt lat="44.41847" lon="5.09559">
        <ele>686.40002441406</ele>
        <time>2013-05-10T08:45:36Z</time>
      </trkpt>
      <trkpt lat="44.41853" lon="5.09537">
        <ele>686.40002441406</ele>
        <time>2013-05-10T08:45:47Z</time>
      </trkpt>
      <trkpt lat="44.41853" lon="5.09527">
        <ele>686.40002441406</ele>
        <time>2013-05-10T08:46:00Z</time>
      </trkpt>
      <trkpt lat="44.41853" lon="5.09518">
        <ele>688.59997558594</ele>
        <time>2013-05-10T08:47:24Z</time>
      </trkpt>
      <trkpt lat="44.41852" lon="5.09509">
        <ele>688.59997558594</ele>
        <time>2013-05-10T08:48:20Z</time>
      </trkpt>
      <trkpt lat="44.41849" lon="5.09501">
        <ele>688.59997558594</ele>
        <time>2013-05-10T08:48:28Z</time>
      </trkpt>
      <trkpt lat="44.41849" lon="5.09498">
        <ele>688.59997558594</ele>
        <time>2013-05-10T08:48:32Z</time>
      </trkpt>
      <trkpt lat="44.41851" lon="5.09496">
        <ele>688.59997558594</ele>
        <time>2013-05-10T08:49:02Z</time>
      </trkpt>
      <trkpt lat="44.41856" lon="5.09487">
        <ele>688.59997558594</ele>
        <time>2013-05-10T08:49:10Z</time>
      </trkpt>
      <trkpt lat="44.41861" lon="5.09483">
        <ele>687.40002441406</ele>
        <time>2013-05-10T08:49:18Z</time>
      </trkpt>
      <trkpt lat="44.41862" lon="5.09479">
        <ele>686.59997558594</ele>
        <time>2013-05-10T08:50:13Z</time>
      </trkpt>
      <trkpt lat="44.41864" lon="5.09466">
        <ele>686</ele>
        <time>2013-05-10T08:51:35Z</time>
      </trkpt>
      <trkpt lat="44.41867" lon="5.09458">
        <ele>683.79998779297</ele>
        <time>2013-05-10T08:51:46Z</time>
      </trkpt>
      <trkpt lat="44.4187" lon="5.09452">
        <ele>682.20001220703</ele>
        <time>2013-05-10T08:51:50Z</time>
      </trkpt>
      <trkpt lat="44.41873" lon="5.09449">
        <ele>682.20001220703</ele>
        <time>2013-05-10T08:51:52Z</time>
      </trkpt>
      <trkpt lat="44.41883" lon="5.09446">
        <ele>680</ele>
        <time>2013-05-10T08:52:12Z</time>
      </trkpt>
      <trkpt lat="44.41885" lon="5.09439">
        <ele>680</ele>
        <time>2013-05-10T08:52:40Z</time>
      </trkpt>
      <trkpt lat="44.41883" lon="5.09425">
        <ele>678</ele>
        <time>2013-05-10T08:53:50Z</time>
      </trkpt>
      <trkpt lat="44.41886" lon="5.0942">
        <ele>677.59997558594</ele>
        <time>2013-05-10T08:53:55Z</time>
      </trkpt>
      <trkpt lat="44.41886" lon="5.0942">
        <ele>677.20001220703</ele>
        <time>2013-05-10T08:53:56Z</time>
      </trkpt>
      <trkpt lat="44.41886" lon="5.0942">
        <ele>676</ele>
        <time>2013-05-10T08:54:12Z</time>
      </trkpt>
      <trkpt lat="44.41889" lon="5.0941">
        <ele>675</ele>
        <time>2013-05-10T08:55:05Z</time>
      </trkpt>
      <trkpt lat="44.41891" lon="5.09409">
        <ele>674</ele>
        <time>2013-05-10T08:55:07Z</time>
      </trkpt>
      <trkpt lat="44.41901" lon="5.09405">
        <ele>669</ele>
        <time>2013-05-10T08:55:58Z</time>
      </trkpt>
      <trkpt lat="44.41912" lon="5.09392">
        <ele>667</ele>
        <time>2013-05-10T08:56:10Z</time>
      </trkpt>
      <trkpt lat="44.41912" lon="5.09388">
        <ele>667</ele>
        <time>2013-05-10T08:56:14Z</time>
      </trkpt>
      <trkpt lat="44.41924" lon="5.09376">
        <ele>664.79998779297</ele>
        <time>2013-05-10T08:56:33Z</time>
      </trkpt>
      <trkpt lat="44.41928" lon="5.09368">
        <ele>664.20001220703</ele>
        <time>2013-05-10T08:56:43Z</time>
      </trkpt>
      <trkpt lat="44.4193" lon="5.09364">
        <ele>663</ele>
        <time>2013-05-10T08:56:46Z</time>
      </trkpt>
      <trkpt lat="44.41934" lon="5.09356">
        <ele>662</ele>
        <time>2013-05-10T08:56:52Z</time>
      </trkpt>
      <trkpt lat="44.41941" lon="5.09349">
        <ele>659.20001220703</ele>
        <time>2013-05-10T08:56:57Z</time>
      </trkpt>
      <trkpt lat="44.41949" lon="5.09339">
        <ele>656.79998779297</ele>
        <time>2013-05-10T08:57:03Z</time>
      </trkpt>
      <trkpt lat="44.4195" lon="5.09336">
        <ele>656</ele>
        <time>2013-05-10T08:57:05Z</time>
      </trkpt>
      <trkpt lat="44.41955" lon="5.09329">
        <ele>654.40002441406</ele>
        <time>2013-05-10T08:57:08Z</time>
      </trkpt>
      <trkpt lat="44.41961" lon="5.09326">
        <ele>652.40002441406</ele>
        <time>2013-05-10T08:57:11Z</time>
      </trkpt>
      <trkpt lat="44.4197" lon="5.09318">
        <ele>647.79998779297</ele>
        <time>2013-05-10T08:57:17Z</time>
      </trkpt>
      <trkpt lat="44.41976" lon="5.09308">
        <ele>645.40002441406</ele>
        <time>2013-05-10T08:57:21Z</time>
      </trkpt>
      <trkpt lat="44.4198" lon="5.093">
        <ele>643</ele>
        <time>2013-05-10T08:57:25Z</time>
      </trkpt>
      <trkpt lat="44.41983" lon="5.093">
        <ele>642.20001220703</ele>
        <time>2013-05-10T08:57:26Z</time>
      </trkpt>
      <trkpt lat="44.41991" lon="5.09296">
        <ele>639.40002441406</ele>
        <time>2013-05-10T08:57:30Z</time>
      </trkpt>
      <trkpt lat="44.41995" lon="5.09289">
        <ele>637.20001220703</ele>
        <time>2013-05-10T08:57:34Z</time>
      </trkpt>
      <trkpt lat="44.41999" lon="5.09278">
        <ele>636.40002441406</ele>
        <time>2013-05-10T08:57:41Z</time>
      </trkpt>
      <trkpt lat="44.42" lon="5.09275">
        <ele>635.40002441406</ele>
        <time>2013-05-10T08:57:43Z</time>
      </trkpt>
      <trkpt lat="44.42004" lon="5.09269">
        <ele>635</ele>
        <time>2013-05-10T08:57:48Z</time>
      </trkpt>
      <trkpt lat="44.4201" lon="5.09259">
        <ele>633</ele>
        <time>2013-05-10T08:58:03Z</time>
      </trkpt>
      <trkpt lat="44.42015" lon="5.09252">
        <ele>633</ele>
        <time>2013-05-10T08:58:09Z</time>
      </trkpt>
      <trkpt lat="44.42026" lon="5.09236">
        <ele>633</ele>
        <time>2013-05-10T08:58:16Z</time>
      </trkpt>
      <trkpt lat="44.42031" lon="5.09229">
        <ele>631.40002441406</ele>
        <time>2013-05-10T08:58:19Z</time>
      </trkpt>
      <trkpt lat="44.42034" lon="5.09219">
        <ele>629.59997558594</ele>
        <time>2013-05-10T08:58:22Z</time>
      </trkpt>
      <trkpt lat="44.42039" lon="5.09209">
        <ele>627.40002441406</ele>
        <time>2013-05-10T08:58:25Z</time>
      </trkpt>
      <trkpt lat="44.42041" lon="5.09207">
        <ele>626.79998779297</ele>
        <time>2013-05-10T08:58:26Z</time>
      </trkpt>
      <trkpt lat="44.42051" lon="5.09204">
        <ele>624.20001220703</ele>
        <time>2013-05-10T08:58:30Z</time>
      </trkpt>
      <trkpt lat="44.42059" lon="5.09198">
        <ele>621.79998779297</ele>
        <time>2013-05-10T08:58:33Z</time>
      </trkpt>
      <trkpt lat="44.4206" lon="5.09197">
        <ele>621</ele>
        <time>2013-05-10T08:58:34Z</time>
      </trkpt>
      <trkpt lat="44.42066" lon="5.09189">
        <ele>618.59997558594</ele>
        <time>2013-05-10T08:58:37Z</time>
      </trkpt>
      <trkpt lat="44.42071" lon="5.09185">
        <ele>617.20001220703</ele>
        <time>2013-05-10T08:58:39Z</time>
      </trkpt>
      <trkpt lat="44.42081" lon="5.09181">
        <ele>613.59997558594</ele>
        <time>2013-05-10T08:58:44Z</time>
      </trkpt>
      <trkpt lat="44.42084" lon="5.09179">
        <ele>613</ele>
        <time>2013-05-10T08:58:45Z</time>
      </trkpt>
      <trkpt lat="44.4209" lon="5.09168">
        <ele>611</ele>
        <time>2013-05-10T08:58:48Z</time>
      </trkpt>
      <trkpt lat="44.421" lon="5.09158">
        <ele>609.20001220703</ele>
        <time>2013-05-10T08:58:51Z</time>
      </trkpt>
      <trkpt lat="44.42101" lon="5.09157">
        <ele>608.59997558594</ele>
        <time>2013-05-10T08:58:52Z</time>
      </trkpt>
      <trkpt lat="44.42107" lon="5.09149">
        <ele>607</ele>
        <time>2013-05-10T08:58:55Z</time>
      </trkpt>
      <trkpt lat="44.4211" lon="5.09142">
        <ele>606.20001220703</ele>
        <time>2013-05-10T08:58:57Z</time>
      </trkpt>
      <trkpt lat="44.4211" lon="5.09139">
        <ele>605.79998779297</ele>
        <time>2013-05-10T08:58:58Z</time>
      </trkpt>
      <trkpt lat="44.42111" lon="5.09136">
        <ele>605.40002441406</ele>
        <time>2013-05-10T08:58:59Z</time>
      </trkpt>
      <trkpt lat="44.42114" lon="5.09129">
        <ele>604.20001220703</ele>
        <time>2013-05-10T08:59:02Z</time>
      </trkpt>
      <trkpt lat="44.42122" lon="5.09123">
        <ele>602.40002441406</ele>
        <time>2013-05-10T08:59:07Z</time>
      </trkpt>
      <trkpt lat="44.42125" lon="5.09119">
        <ele>601.40002441406</ele>
        <time>2013-05-10T08:59:09Z</time>
      </trkpt>
      <trkpt lat="44.42133" lon="5.0911">
        <ele>599.40002441406</ele>
        <time>2013-05-10T08:59:13Z</time>
      </trkpt>
      <trkpt lat="44.42136" lon="5.09109">
        <ele>598.79998779297</ele>
        <time>2013-05-10T08:59:14Z</time>
      </trkpt>
      <trkpt lat="44.42141" lon="5.09105">
        <ele>597.79998779297</ele>
        <time>2013-05-10T08:59:17Z</time>
      </trkpt>
      <trkpt lat="44.42146" lon="5.091">
        <ele>596.59997558594</ele>
        <time>2013-05-10T08:59:20Z</time>
      </trkpt>
      <trkpt lat="44.4215" lon="5.09092">
        <ele>596.20001220703</ele>
        <time>2013-05-10T08:59:21Z</time>
      </trkpt>
      <trkpt lat="44.42152" lon="5.09089">
        <ele>595.79998779297</ele>
        <time>2013-05-10T08:59:22Z</time>
      </trkpt>
      <trkpt lat="44.42158" lon="5.09079">
        <ele>594</ele>
        <time>2013-05-10T08:59:26Z</time>
      </trkpt>
      <trkpt lat="44.4216" lon="5.09074">
        <ele>593.20001220703</ele>
        <time>2013-05-10T08:59:28Z</time>
      </trkpt>
      <trkpt lat="44.42164" lon="5.09069">
        <ele>591.79998779297</ele>
        <time>2013-05-10T08:59:31Z</time>
      </trkpt>
      <trkpt lat="44.4217" lon="5.09058">
        <ele>589.40002441406</ele>
        <time>2013-05-10T08:59:36Z</time>
      </trkpt>
      <trkpt lat="44.42171" lon="5.09056">
        <ele>589</ele>
        <time>2013-05-10T08:59:37Z</time>
      </trkpt>
      <trkpt lat="44.42176" lon="5.09048">
        <ele>588</ele>
        <time>2013-05-10T08:59:39Z</time>
      </trkpt>
      <trkpt lat="44.42179" lon="5.09039">
        <ele>586.59997558594</ele>
        <time>2013-05-10T08:59:42Z</time>
      </trkpt>
      <trkpt lat="44.42181" lon="5.09036">
        <ele>586.20001220703</ele>
        <time>2013-05-10T08:59:43Z</time>
      </trkpt>
      <trkpt lat="44.42182" lon="5.0903">
        <ele>584.79998779297</ele>
        <time>2013-05-10T08:59:46Z</time>
      </trkpt>
      <trkpt lat="44.42188" lon="5.09019">
        <ele>583</ele>
        <time>2013-05-10T08:59:51Z</time>
      </trkpt>
      <trkpt lat="44.42189" lon="5.09007">
        <ele>581.20001220703</ele>
        <time>2013-05-10T08:59:55Z</time>
      </trkpt>
      <trkpt lat="44.42191" lon="5.08997">
        <ele>580.40002441406</ele>
        <time>2013-05-10T08:59:57Z</time>
      </trkpt>
      <trkpt lat="44.42194" lon="5.08988">
        <ele>580</ele>
        <time>2013-05-10T08:59:59Z</time>
      </trkpt>
      <trkpt lat="44.422" lon="5.08978">
        <ele>578.20001220703</ele>
        <time>2013-05-10T09:00:02Z</time>
      </trkpt>
      <trkpt lat="44.42207" lon="5.08965">
        <ele>576.20001220703</ele>
        <time>2013-05-10T09:00:05Z</time>
      </trkpt>
      <trkpt lat="44.42212" lon="5.08955">
        <ele>575</ele>
        <time>2013-05-10T09:00:07Z</time>
      </trkpt>
      <trkpt lat="44.42216" lon="5.08946">
        <ele>573.79998779297</ele>
        <time>2013-05-10T09:00:09Z</time>
      </trkpt>
      <trkpt lat="44.42223" lon="5.08939">
        <ele>572.79998779297</ele>
        <time>2013-05-10T09:00:11Z</time>
      </trkpt>
      <trkpt lat="44.42231" lon="5.08926">
        <ele>571</ele>
        <time>2013-05-10T09:00:14Z</time>
      </trkpt>
      <trkpt lat="44.42234" lon="5.08915">
        <ele>570</ele>
        <time>2013-05-10T09:00:16Z</time>
      </trkpt>
      <trkpt lat="44.42235" lon="5.0891">
        <ele>570</ele>
        <time>2013-05-10T09:00:17Z</time>
      </trkpt>
      <trkpt lat="44.4224" lon="5.08899">
        <ele>569.20001220703</ele>
        <time>2013-05-10T09:00:19Z</time>
      </trkpt>
      <trkpt lat="44.42242" lon="5.08893">
        <ele>568.59997558594</ele>
        <time>2013-05-10T09:00:20Z</time>
      </trkpt>
      <trkpt lat="44.42243" lon="5.08887">
        <ele>568.20001220703</ele>
        <time>2013-05-10T09:00:21Z</time>
      </trkpt>
      <trkpt lat="44.42244" lon="5.0888">
        <ele>567.79998779297</ele>
        <time>2013-05-10T09:00:22Z</time>
      </trkpt>
      <trkpt lat="44.42252" lon="5.08866">
        <ele>565.79998779297</ele>
        <time>2013-05-10T09:00:26Z</time>
      </trkpt>
      <trkpt lat="44.4226" lon="5.08858">
        <ele>565</ele>
        <time>2013-05-10T09:00:29Z</time>
      </trkpt>
      <trkpt lat="44.42267" lon="5.08849">
        <ele>563.59997558594</ele>
        <time>2013-05-10T09:00:31Z</time>
      </trkpt>
      <trkpt lat="44.42272" lon="5.08839">
        <ele>562.40002441406</ele>
        <time>2013-05-10T09:00:33Z</time>
      </trkpt>
      <trkpt lat="44.42274" lon="5.08829">
        <ele>561.20001220703</ele>
        <time>2013-05-10T09:00:35Z</time>
      </trkpt>
      <trkpt lat="44.42277" lon="5.08819">
        <ele>560</ele>
        <time>2013-05-10T09:00:37Z</time>
      </trkpt>
      <trkpt lat="44.42281" lon="5.08809">
        <ele>559</ele>
        <time>2013-05-10T09:00:39Z</time>
      </trkpt>
      <trkpt lat="44.4229" lon="5.08798">
        <ele>557.79998779297</ele>
        <time>2013-05-10T09:00:42Z</time>
      </trkpt>
      <trkpt lat="44.42292" lon="5.08794">
        <ele>557.20001220703</ele>
        <time>2013-05-10T09:00:43Z</time>
      </trkpt>
      <trkpt lat="44.42295" lon="5.08786">
        <ele>556</ele>
        <time>2013-05-10T09:00:45Z</time>
      </trkpt>
      <trkpt lat="44.423" lon="5.08779">
        <ele>554.79998779297</ele>
        <time>2013-05-10T09:00:47Z</time>
      </trkpt>
      <trkpt lat="44.42301" lon="5.08776">
        <ele>554.20001220703</ele>
        <time>2013-05-10T09:00:48Z</time>
      </trkpt>
      <trkpt lat="44.42308" lon="5.08769">
        <ele>552.20001220703</ele>
        <time>2013-05-10T09:00:51Z</time>
      </trkpt>
      <trkpt lat="44.42312" lon="5.08764">
        <ele>551.79998779297</ele>
        <time>2013-05-10T09:00:53Z</time>
      </trkpt>
      <trkpt lat="44.42315" lon="5.08759">
        <ele>550.79998779297</ele>
        <time>2013-05-10T09:00:55Z</time>
      </trkpt>
      <trkpt lat="44.4232" lon="5.08753">
        <ele>522</ele>
        <time>2013-05-10T09:03:47Z</time>
      </trkpt>
      <trkpt lat="44.42329" lon="5.08746">
        <ele>523.40002441406</ele>
        <time>2013-05-10T09:05:14Z</time>
      </trkpt>
      <trkpt lat="44.42331" lon="5.08744">
        <ele>523.40002441406</ele>
        <time>2013-05-10T09:05:15Z</time>
      </trkpt>
      <trkpt lat="44.42336" lon="5.08738">
        <ele>523</ele>
        <time>2013-05-10T09:05:19Z</time>
      </trkpt>
      <trkpt lat="44.4234" lon="5.08734">
        <ele>521.40002441406</ele>
        <time>2013-05-10T09:06:03Z</time>
      </trkpt>
      <trkpt lat="44.42348" lon="5.08728">
        <ele>521.40002441406</ele>
        <time>2013-05-10T09:06:26Z</time>
      </trkpt>
      <trkpt lat="44.42351" lon="5.08728">
        <ele>521.40002441406</ele>
        <time>2013-05-10T09:07:07Z</time>
      </trkpt>
      <trkpt lat="44.42364" lon="5.08718">
        <ele>521.40002441406</ele>
        <time>2013-05-10T09:07:19Z</time>
      </trkpt>
      <trkpt lat="44.4237" lon="5.08714">
        <ele>519.40002441406</ele>
        <time>2013-05-10T09:07:44Z</time>
      </trkpt>
      <trkpt lat="44.42376" lon="5.08709">
        <ele>518.20001220703</ele>
        <time>2013-05-10T09:07:51Z</time>
      </trkpt>
      <trkpt lat="44.42383" lon="5.08705">
        <ele>517.20001220703</ele>
        <time>2013-05-10T09:07:54Z</time>
      </trkpt>
      <trkpt lat="44.42388" lon="5.08699">
        <ele>517.20001220703</ele>
        <time>2013-05-10T09:08:03Z</time>
      </trkpt>
      <trkpt lat="44.4239" lon="5.08698">
        <ele>516.20001220703</ele>
        <time>2013-05-10T09:08:07Z</time>
      </trkpt>
      <trkpt lat="44.42401" lon="5.08694">
        <ele>514.79998779297</ele>
        <time>2013-05-10T09:08:47Z</time>
      </trkpt>
      <trkpt lat="44.4241" lon="5.0869">
        <ele>512.59997558594</ele>
        <time>2013-05-10T09:09:22Z</time>
      </trkpt>
      <trkpt lat="44.42421" lon="5.08685">
        <ele>512.59997558594</ele>
        <time>2013-05-10T09:09:28Z</time>
      </trkpt>
      <trkpt lat="44.42431" lon="5.08682">
        <ele>512.59997558594</ele>
        <time>2013-05-10T09:09:35Z</time>
      </trkpt>
      <trkpt lat="44.42436" lon="5.08677">
        <ele>512.20001220703</ele>
        <time>2013-05-10T09:09:41Z</time>
      </trkpt>
      <trkpt lat="44.4244" lon="5.0867">
        <ele>511</ele>
        <time>2013-05-10T09:09:46Z</time>
      </trkpt>
      <trkpt lat="44.42443" lon="5.08667">
        <ele>510.60000610352</ele>
        <time>2013-05-10T09:09:48Z</time>
      </trkpt>
      <trkpt lat="44.42452" lon="5.08663">
        <ele>508.20001220703</ele>
        <time>2013-05-10T09:09:58Z</time>
      </trkpt>
      <trkpt lat="44.42453" lon="5.08658">
        <ele>508.20001220703</ele>
        <time>2013-05-10T09:10:03Z</time>
      </trkpt>
      <trkpt lat="44.42453" lon="5.08648">
        <ele>509.20001220703</ele>
        <time>2013-05-10T09:10:17Z</time>
      </trkpt>
      <trkpt lat="44.42454" lon="5.08639">
        <ele>510.39999389648</ele>
        <time>2013-05-10T09:10:36Z</time>
      </trkpt>
      <trkpt lat="44.4246" lon="5.08633">
        <ele>510</ele>
        <time>2013-05-10T09:10:48Z</time>
      </trkpt>
      <trkpt lat="44.42464" lon="5.0863">
        <ele>507.79998779297</ele>
        <time>2013-05-10T09:10:55Z</time>
      </trkpt>
      <trkpt lat="44.4247" lon="5.08634">
        <ele>505.79998779297</ele>
        <time>2013-05-10T09:11:36Z</time>
      </trkpt>
      <trkpt lat="44.42481" lon="5.08643">
        <ele>505.79998779297</ele>
        <time>2013-05-10T09:11:43Z</time>
      </trkpt>
      <trkpt lat="44.42493" lon="5.08642">
        <ele>505.79998779297</ele>
        <time>2013-05-10T09:11:52Z</time>
      </trkpt>
      <trkpt lat="44.42503" lon="5.08644">
        <ele>505.79998779297</ele>
        <time>2013-05-10T09:11:57Z</time>
      </trkpt>
      <trkpt lat="44.42511" lon="5.08649">
        <ele>505.79998779297</ele>
        <time>2013-05-10T09:12:04Z</time>
      </trkpt>
      <trkpt lat="44.42509" lon="5.08639">
        <ele>503.79998779297</ele>
        <time>2013-05-10T09:12:15Z</time>
      </trkpt>
      <trkpt lat="44.42509" lon="5.08624">
        <ele>503.79998779297</ele>
        <time>2013-05-10T09:12:27Z</time>
      </trkpt>
      <trkpt lat="44.42509" lon="5.08616">
        <ele>503.79998779297</ele>
        <time>2013-05-10T09:12:33Z</time>
      </trkpt>
      <trkpt lat="44.42514" lon="5.08598">
        <ele>503.79998779297</ele>
        <time>2013-05-10T09:12:43Z</time>
      </trkpt>
      <trkpt lat="44.42516" lon="5.08589">
        <ele>505.20001220703</ele>
        <time>2013-05-10T09:12:48Z</time>
      </trkpt>
      <trkpt lat="44.42521" lon="5.08582">
        <ele>506</ele>
        <time>2013-05-10T09:12:52Z</time>
      </trkpt>
      <trkpt lat="44.42531" lon="5.08573">
        <ele>506</ele>
        <time>2013-05-10T09:12:58Z</time>
      </trkpt>
      <trkpt lat="44.42543" lon="5.08561">
        <ele>506</ele>
        <time>2013-05-10T09:13:05Z</time>
      </trkpt>
      <trkpt lat="44.42546" lon="5.08551">
        <ele>506</ele>
        <time>2013-05-10T09:13:09Z</time>
      </trkpt>
      <trkpt lat="44.42545" lon="5.08548">
        <ele>506</ele>
        <time>2013-05-10T09:13:10Z</time>
      </trkpt>
      <trkpt lat="44.42542" lon="5.08536">
        <ele>506.79998779297</ele>
        <time>2013-05-10T09:13:13Z</time>
      </trkpt>
      <trkpt lat="44.4254" lon="5.0853">
        <ele>506.79998779297</ele>
        <time>2013-05-10T09:13:14Z</time>
      </trkpt>
      <trkpt lat="44.42529" lon="5.08497">
        <ele>506.60000610352</ele>
        <time>2013-05-10T09:13:18Z</time>
      </trkpt>
      <trkpt lat="44.42522" lon="5.08477">
        <ele>506</ele>
        <time>2013-05-10T09:13:20Z</time>
      </trkpt>
      <trkpt lat="44.42519" lon="5.08457">
        <ele>505.39999389648</ele>
        <time>2013-05-10T09:13:22Z</time>
      </trkpt>
      <trkpt lat="44.42519" lon="5.08448">
        <ele>504.79998779297</ele>
        <time>2013-05-10T09:13:23Z</time>
      </trkpt>
      <trkpt lat="44.42521" lon="5.08428">
        <ele>503.39999389648</ele>
        <time>2013-05-10T09:13:25Z</time>
      </trkpt>
      <trkpt lat="44.42527" lon="5.08414">
        <ele>502.79998779297</ele>
        <time>2013-05-10T09:13:27Z</time>
      </trkpt>
      <trkpt lat="44.42535" lon="5.08403">
        <ele>502.79998779297</ele>
        <time>2013-05-10T09:13:29Z</time>
      </trkpt>
      <trkpt lat="44.42538" lon="5.08398">
        <ele>501.39999389648</ele>
        <time>2013-05-10T09:13:30Z</time>
      </trkpt>
      <trkpt lat="44.42542" lon="5.08394">
        <ele>501.39999389648</ele>
        <time>2013-05-10T09:13:31Z</time>
      </trkpt>
      <trkpt lat="44.42554" lon="5.08402">
        <ele>501.39999389648</ele>
        <time>2013-05-10T09:13:37Z</time>
      </trkpt>
      <trkpt lat="44.42568" lon="5.0842">
        <ele>501.39999389648</ele>
        <time>2013-05-10T09:13:45Z</time>
      </trkpt>
      <trkpt lat="44.42571" lon="5.0842">
        <ele>501.39999389648</ele>
        <time>2013-05-10T09:13:46Z</time>
      </trkpt>
      <trkpt lat="44.42577" lon="5.08423">
        <ele>501.39999389648</ele>
        <time>2013-05-10T09:13:49Z</time>
      </trkpt>
      <trkpt lat="44.42589" lon="5.08424">
        <ele>501.79998779297</ele>
        <time>2013-05-10T09:13:54Z</time>
      </trkpt>
      <trkpt lat="44.42591" lon="5.08425">
        <ele>502.20001220703</ele>
        <time>2013-05-10T09:13:55Z</time>
      </trkpt>
      <trkpt lat="44.42602" lon="5.08428">
        <ele>503.60000610352</ele>
        <time>2013-05-10T09:14:00Z</time>
      </trkpt>
      <trkpt lat="44.4261" lon="5.0843">
        <ele>504.79998779297</ele>
        <time>2013-05-10T09:14:04Z</time>
      </trkpt>
      <trkpt lat="44.42622" lon="5.08431">
        <ele>505.60000610352</ele>
        <time>2013-05-10T09:14:10Z</time>
      </trkpt>
      <trkpt lat="44.42631" lon="5.08432">
        <ele>506</ele>
        <time>2013-05-10T09:14:16Z</time>
      </trkpt>
      <trkpt lat="44.42641" lon="5.08433">
        <ele>508</ele>
        <time>2013-05-10T09:14:22Z</time>
      </trkpt>
      <trkpt lat="44.42652" lon="5.08434">
        <ele>510</ele>
        <time>2013-05-10T09:14:29Z</time>
      </trkpt>
      <trkpt lat="44.42662" lon="5.08435">
        <ele>511</ele>
        <time>2013-05-10T09:14:36Z</time>
      </trkpt>
      <trkpt lat="44.42671" lon="5.08436">
        <ele>512.40002441406</ele>
        <time>2013-05-10T09:14:41Z</time>
      </trkpt>
      <trkpt lat="44.42683" lon="5.08438">
        <ele>513.59997558594</ele>
        <time>2013-05-10T09:14:48Z</time>
      </trkpt>
      <trkpt lat="44.42698" lon="5.08436">
        <ele>514.40002441406</ele>
        <time>2013-05-10T09:14:56Z</time>
      </trkpt>
      <trkpt lat="44.42704" lon="5.08435">
        <ele>515</ele>
        <time>2013-05-10T09:15:00Z</time>
      </trkpt>
      <trkpt lat="44.42713" lon="5.08433">
        <ele>516.79998779297</ele>
        <time>2013-05-10T09:15:08Z</time>
      </trkpt>
      <trkpt lat="44.42717" lon="5.08429">
        <ele>517.59997558594</ele>
        <time>2013-05-10T09:15:13Z</time>
      </trkpt>
      <trkpt lat="44.42722" lon="5.08426">
        <ele>519</ele>
        <time>2013-05-10T09:15:17Z</time>
      </trkpt>
      <trkpt lat="44.42736" lon="5.08423">
        <ele>520.79998779297</ele>
        <time>2013-05-10T09:15:29Z</time>
      </trkpt>
      <trkpt lat="44.42746" lon="5.08418">
        <ele>522.20001220703</ele>
        <time>2013-05-10T09:15:37Z</time>
      </trkpt>
      <trkpt lat="44.42751" lon="5.08415">
        <ele>523.59997558594</ele>
        <time>2013-05-10T09:15:42Z</time>
      </trkpt>
      <trkpt lat="44.42761" lon="5.08413">
        <ele>523.59997558594</ele>
        <time>2013-05-10T09:15:50Z</time>
      </trkpt>
      <trkpt lat="44.42776" lon="5.08406">
        <ele>523.59997558594</ele>
        <time>2013-05-10T09:16:03Z</time>
      </trkpt>
      <trkpt lat="44.42782" lon="5.08405">
        <ele>524.20001220703</ele>
        <time>2013-05-10T09:16:08Z</time>
      </trkpt>
      <trkpt lat="44.42791" lon="5.08406">
        <ele>527.20001220703</ele>
        <time>2013-05-10T09:16:14Z</time>
      </trkpt>
      <trkpt lat="44.428" lon="5.08404">
        <ele>531.40002441406</ele>
        <time>2013-05-10T09:16:22Z</time>
      </trkpt>
      <trkpt lat="44.42812" lon="5.08407">
        <ele>532.59997558594</ele>
        <time>2013-05-10T09:16:33Z</time>
      </trkpt>
      <trkpt lat="44.42817" lon="5.08411">
        <ele>533.79998779297</ele>
        <time>2013-05-10T09:16:37Z</time>
      </trkpt>
      <trkpt lat="44.42821" lon="5.08415">
        <ele>534.79998779297</ele>
        <time>2013-05-10T09:16:41Z</time>
      </trkpt>
      <trkpt lat="44.42831" lon="5.08419">
        <ele>536</ele>
        <time>2013-05-10T09:16:49Z</time>
      </trkpt>
      <trkpt lat="44.42834" lon="5.08421">
        <ele>537</ele>
        <time>2013-05-10T09:16:51Z</time>
      </trkpt>
      <trkpt lat="44.42841" lon="5.08426">
        <ele>537.79998779297</ele>
        <time>2013-05-10T09:16:58Z</time>
      </trkpt>
      <trkpt lat="44.42852" lon="5.08433">
        <ele>539.59997558594</ele>
        <time>2013-05-10T09:17:08Z</time>
      </trkpt>
      <trkpt lat="44.4286" lon="5.08437">
        <ele>541.20001220703</ele>
        <time>2013-05-10T09:17:15Z</time>
      </trkpt>
      <trkpt lat="44.42864" lon="5.08442">
        <ele>541.20001220703</ele>
        <time>2013-05-10T09:17:19Z</time>
      </trkpt>
      <trkpt lat="44.42872" lon="5.08449">
        <ele>542.79998779297</ele>
        <time>2013-05-10T09:17:27Z</time>
      </trkpt>
      <trkpt lat="44.42879" lon="5.08453">
        <ele>543.20001220703</ele>
        <time>2013-05-10T09:17:35Z</time>
      </trkpt>
      <trkpt lat="44.42881" lon="5.08454">
        <ele>543.59997558594</ele>
        <time>2013-05-10T09:17:37Z</time>
      </trkpt>
      <trkpt lat="44.42896" lon="5.08461">
        <ele>545.20001220703</ele>
        <time>2013-05-10T09:17:50Z</time>
      </trkpt>
      <trkpt lat="44.42902" lon="5.08465">
        <ele>547.40002441406</ele>
        <time>2013-05-10T09:17:56Z</time>
      </trkpt>
      <trkpt lat="44.42907" lon="5.08472">
        <ele>548.59997558594</ele>
        <time>2013-05-10T09:18:03Z</time>
      </trkpt>
      <trkpt lat="44.4291" lon="5.08477">
        <ele>549</ele>
        <time>2013-05-10T09:18:06Z</time>
      </trkpt>
      <trkpt lat="44.42912" lon="5.08482">
        <ele>549.40002441406</ele>
        <time>2013-05-10T09:18:09Z</time>
      </trkpt>
      <trkpt lat="44.42924" lon="5.085">
        <ele>549.79998779297</ele>
        <time>2013-05-10T09:18:20Z</time>
      </trkpt>
      <trkpt lat="44.42931" lon="5.08507">
        <ele>551</ele>
        <time>2013-05-10T09:18:25Z</time>
      </trkpt>
      <trkpt lat="44.4294" lon="5.08513">
        <ele>551.40002441406</ele>
        <time>2013-05-10T09:18:31Z</time>
      </trkpt>
      <trkpt lat="44.42957" lon="5.08526">
        <ele>551.40002441406</ele>
        <time>2013-05-10T09:18:42Z</time>
      </trkpt>
      <trkpt lat="44.42961" lon="5.08531">
        <ele>552.40002441406</ele>
        <time>2013-05-10T09:18:46Z</time>
      </trkpt>
      <trkpt lat="44.42976" lon="5.08536">
        <ele>555</ele>
        <time>2013-05-10T09:18:59Z</time>
      </trkpt>
      <trkpt lat="44.4298" lon="5.08538">
        <ele>556</ele>
        <time>2013-05-10T09:19:03Z</time>
      </trkpt>
      <trkpt lat="44.42987" lon="5.08541">
        <ele>558.59997558594</ele>
        <time>2013-05-10T09:19:11Z</time>
      </trkpt>
      <trkpt lat="44.43002" lon="5.08552">
        <ele>558.59997558594</ele>
        <time>2013-05-10T09:19:22Z</time>
      </trkpt>
      <trkpt lat="44.43011" lon="5.08555">
        <ele>561</ele>
        <time>2013-05-10T09:19:31Z</time>
      </trkpt>
      <trkpt lat="44.43019" lon="5.08561">
        <ele>561.40002441406</ele>
        <time>2013-05-10T09:19:37Z</time>
      </trkpt>
      <trkpt lat="44.43021" lon="5.08562">
        <ele>561.79998779297</ele>
        <time>2013-05-10T09:19:38Z</time>
      </trkpt>
      <trkpt lat="44.43032" lon="5.08566">
        <ele>563.59997558594</ele>
        <time>2013-05-10T09:19:49Z</time>
      </trkpt>
      <trkpt lat="44.4305" lon="5.08577">
        <ele>565.59997558594</ele>
        <time>2013-05-10T09:20:01Z</time>
      </trkpt>
      <trkpt lat="44.43057" lon="5.0858">
        <ele>566.79998779297</ele>
        <time>2013-05-10T09:20:05Z</time>
      </trkpt>
      <trkpt lat="44.43071" lon="5.08582">
        <ele>567.20001220703</ele>
        <time>2013-05-10T09:20:14Z</time>
      </trkpt>
      <trkpt lat="44.43086" lon="5.08585">
        <ele>568.59997558594</ele>
        <time>2013-05-10T09:20:26Z</time>
      </trkpt>
      <trkpt lat="44.43091" lon="5.08586">
        <ele>569.59997558594</ele>
        <time>2013-05-10T09:20:30Z</time>
      </trkpt>
      <trkpt lat="44.43102" lon="5.08589">
        <ele>569.59997558594</ele>
        <time>2013-05-10T09:20:38Z</time>
      </trkpt>
      <trkpt lat="44.43106" lon="5.08592">
        <ele>570</ele>
        <time>2013-05-10T09:20:41Z</time>
      </trkpt>
      <trkpt lat="44.43111" lon="5.086">
        <ele>571.59997558594</ele>
        <time>2013-05-10T09:20:46Z</time>
      </trkpt>
      <trkpt lat="44.4311" lon="5.08602">
        <ele>572</ele>
        <time>2013-05-10T09:20:47Z</time>
      </trkpt>
      <trkpt lat="44.4311" lon="5.08604">
        <ele>572</ele>
        <time>2013-05-10T09:20:48Z</time>
      </trkpt>
      <trkpt lat="44.43098" lon="5.08608">
        <ele>575</ele>
        <time>2013-05-10T09:20:58Z</time>
      </trkpt>
      <trkpt lat="44.43085" lon="5.08613">
        <ele>575</ele>
        <time>2013-05-10T09:21:08Z</time>
      </trkpt>
      <trkpt lat="44.43079" lon="5.08617">
        <ele>576.20001220703</ele>
        <time>2013-05-10T09:21:13Z</time>
      </trkpt>
      <trkpt lat="44.43076" lon="5.0862">
        <ele>576.59997558594</ele>
        <time>2013-05-10T09:21:15Z</time>
      </trkpt>
      <trkpt lat="44.43068" lon="5.08625">
        <ele>577</ele>
        <time>2013-05-10T09:21:21Z</time>
      </trkpt>
      <trkpt lat="44.4305" lon="5.08637">
        <ele>579.20001220703</ele>
        <time>2013-05-10T09:21:38Z</time>
      </trkpt>
      <trkpt lat="44.43042" lon="5.08642">
        <ele>579.20001220703</ele>
        <time>2013-05-10T09:21:45Z</time>
      </trkpt>
      <trkpt lat="44.43036" lon="5.08646">
        <ele>579.59997558594</ele>
        <time>2013-05-10T09:21:49Z</time>
      </trkpt>
      <trkpt lat="44.43029" lon="5.08651">
        <ele>581.20001220703</ele>
        <time>2013-05-10T09:21:56Z</time>
      </trkpt>
      <trkpt lat="44.4302" lon="5.08652">
        <ele>581.20001220703</ele>
        <time>2013-05-10T09:22:03Z</time>
      </trkpt>
      <trkpt lat="44.4301" lon="5.08653">
        <ele>583.40002441406</ele>
        <time>2013-05-10T09:22:10Z</time>
      </trkpt>
      <trkpt lat="44.43" lon="5.08661">
        <ele>584.79998779297</ele>
        <time>2013-05-10T09:22:18Z</time>
      </trkpt>
      <trkpt lat="44.42997" lon="5.08664">
        <ele>585.20001220703</ele>
        <time>2013-05-10T09:22:20Z</time>
      </trkpt>
      <trkpt lat="44.42981" lon="5.08678">
        <ele>586.20001220703</ele>
        <time>2013-05-10T09:22:30Z</time>
      </trkpt>
      <trkpt lat="44.4298" lon="5.0868">
        <ele>586.20001220703</ele>
        <time>2013-05-10T09:22:31Z</time>
      </trkpt>
      <trkpt lat="44.42978" lon="5.08681">
        <ele>586.59997558594</ele>
        <time>2013-05-10T09:22:32Z</time>
      </trkpt>
      <trkpt lat="44.42969" lon="5.08688">
        <ele>587.79998779297</ele>
        <time>2013-05-10T09:22:37Z</time>
      </trkpt>
      <trkpt lat="44.42966" lon="5.08691">
        <ele>587.79998779297</ele>
        <time>2013-05-10T09:22:39Z</time>
      </trkpt>
      <trkpt lat="44.42963" lon="5.08701">
        <ele>587.79998779297</ele>
        <time>2013-05-10T09:22:44Z</time>
      </trkpt>
      <trkpt lat="44.42972" lon="5.08707">
        <ele>589</ele>
        <time>2013-05-10T09:22:54Z</time>
      </trkpt>
      <trkpt lat="44.42981" lon="5.08703">
        <ele>590.20001220703</ele>
        <time>2013-05-10T09:23:01Z</time>
      </trkpt>
      <trkpt lat="44.42991" lon="5.087">
        <ele>592.20001220703</ele>
        <time>2013-05-10T09:23:09Z</time>
      </trkpt>
      <trkpt lat="44.43" lon="5.08697">
        <ele>593.20001220703</ele>
        <time>2013-05-10T09:23:17Z</time>
      </trkpt>
      <trkpt lat="44.4301" lon="5.08698">
        <ele>594.59997558594</ele>
        <time>2013-05-10T09:23:25Z</time>
      </trkpt>
      <trkpt lat="44.43025" lon="5.087">
        <ele>596.59997558594</ele>
        <time>2013-05-10T09:23:38Z</time>
      </trkpt>
      <trkpt lat="44.43031" lon="5.087">
        <ele>597.59997558594</ele>
        <time>2013-05-10T09:23:42Z</time>
      </trkpt>
      <trkpt lat="44.43046" lon="5.08702">
        <ele>599</ele>
        <time>2013-05-10T09:23:54Z</time>
      </trkpt>
      <trkpt lat="44.43052" lon="5.08702">
        <ele>599.79998779297</ele>
        <time>2013-05-10T09:23:58Z</time>
      </trkpt>
      <trkpt lat="44.43061" lon="5.08702">
        <ele>601.59997558594</ele>
        <time>2013-05-10T09:24:07Z</time>
      </trkpt>
      <trkpt lat="44.43071" lon="5.08704">
        <ele>603.40002441406</ele>
        <time>2013-05-10T09:24:15Z</time>
      </trkpt>
      <trkpt lat="44.43081" lon="5.08708">
        <ele>605.59997558594</ele>
        <time>2013-05-10T09:24:26Z</time>
      </trkpt>
      <trkpt lat="44.43086" lon="5.0871">
        <ele>606</ele>
        <time>2013-05-10T09:24:32Z</time>
      </trkpt>
      <trkpt lat="44.43092" lon="5.08713">
        <ele>607</ele>
        <time>2013-05-10T09:24:37Z</time>
      </trkpt>
      <trkpt lat="44.43095" lon="5.0872">
        <ele>609.40002441406</ele>
        <time>2013-05-10T09:24:45Z</time>
      </trkpt>
      <trkpt lat="44.43088" lon="5.08725">
        <ele>611.59997558594</ele>
        <time>2013-05-10T09:24:53Z</time>
      </trkpt>
      <trkpt lat="44.43077" lon="5.0873">
        <ele>612</ele>
        <time>2013-05-10T09:25:04Z</time>
      </trkpt>
      <trkpt lat="44.43068" lon="5.08735">
        <ele>614.40002441406</ele>
        <time>2013-05-10T09:25:14Z</time>
      </trkpt>
      <trkpt lat="44.43062" lon="5.0874">
        <ele>615.59997558594</ele>
        <time>2013-05-10T09:25:22Z</time>
      </trkpt>
      <trkpt lat="44.4306" lon="5.08741">
        <ele>616</ele>
        <time>2013-05-10T09:25:25Z</time>
      </trkpt>
      <trkpt lat="44.43049" lon="5.08748">
        <ele>618.59997558594</ele>
        <time>2013-05-10T09:25:36Z</time>
      </trkpt>
      <trkpt lat="44.4304" lon="5.08753">
        <ele>619.20001220703</ele>
        <time>2013-05-10T09:25:46Z</time>
      </trkpt>
      <trkpt lat="44.43039" lon="5.08755">
        <ele>620.20001220703</ele>
        <time>2013-05-10T09:25:48Z</time>
      </trkpt>
      <trkpt lat="44.43028" lon="5.08763">
        <ele>622</ele>
        <time>2013-05-10T09:25:58Z</time>
      </trkpt>
      <trkpt lat="44.43019" lon="5.08772">
        <ele>623.20001220703</ele>
        <time>2013-05-10T09:26:09Z</time>
      </trkpt>
      <trkpt lat="44.43007" lon="5.08784">
        <ele>626</ele>
        <time>2013-05-10T09:26:24Z</time>
      </trkpt>
      <trkpt lat="44.43" lon="5.08789">
        <ele>627.59997558594</ele>
        <time>2013-05-10T09:26:32Z</time>
      </trkpt>
      <trkpt lat="44.42997" lon="5.08795">
        <ele>628.20001220703</ele>
        <time>2013-05-10T09:26:37Z</time>
      </trkpt>
      <trkpt lat="44.42993" lon="5.08801">
        <ele>629.40002441406</ele>
        <time>2013-05-10T09:26:43Z</time>
      </trkpt>
      <trkpt lat="44.42988" lon="5.08806">
        <ele>630.40002441406</ele>
        <time>2013-05-10T09:26:50Z</time>
      </trkpt>
      <trkpt lat="44.42984" lon="5.08811">
        <ele>631.59997558594</ele>
        <time>2013-05-10T09:26:55Z</time>
      </trkpt>
      <trkpt lat="44.42976" lon="5.08815">
        <ele>632.40002441406</ele>
        <time>2013-05-10T09:27:03Z</time>
      </trkpt>
      <trkpt lat="44.42971" lon="5.08823">
        <ele>634.20001220703</ele>
        <time>2013-05-10T09:27:10Z</time>
      </trkpt>
      <trkpt lat="44.42968" lon="5.08826">
        <ele>634.20001220703</ele>
        <time>2013-05-10T09:27:13Z</time>
      </trkpt>
      <trkpt lat="44.4297" lon="5.08836">
        <ele>634.79998779297</ele>
        <time>2013-05-10T09:27:21Z</time>
      </trkpt>
      <trkpt lat="44.42981" lon="5.0883">
        <ele>636.59997558594</ele>
        <time>2013-05-10T09:27:32Z</time>
      </trkpt>
      <trkpt lat="44.42986" lon="5.08829">
        <ele>637.59997558594</ele>
        <time>2013-05-10T09:27:36Z</time>
      </trkpt>
      <trkpt lat="44.42992" lon="5.08831">
        <ele>638</ele>
        <time>2013-05-10T09:27:41Z</time>
      </trkpt>
      <trkpt lat="44.43001" lon="5.08831">
        <ele>638.79998779297</ele>
        <time>2013-05-10T09:27:49Z</time>
      </trkpt>
      <trkpt lat="44.43012" lon="5.08834">
        <ele>640.59997558594</ele>
        <time>2013-05-10T09:27:59Z</time>
      </trkpt>
      <trkpt lat="44.43027" lon="5.08836">
        <ele>643.20001220703</ele>
        <time>2013-05-10T09:28:12Z</time>
      </trkpt>
      <trkpt lat="44.43031" lon="5.08836">
        <ele>644</ele>
        <time>2013-05-10T09:28:15Z</time>
      </trkpt>
      <trkpt lat="44.43041" lon="5.08836">
        <ele>645.79998779297</ele>
        <time>2013-05-10T09:28:25Z</time>
      </trkpt>
      <trkpt lat="44.4305" lon="5.08839">
        <ele>647.40002441406</ele>
        <time>2013-05-10T09:28:34Z</time>
      </trkpt>
      <trkpt lat="44.43063" lon="5.08838">
        <ele>649</ele>
        <time>2013-05-10T09:28:47Z</time>
      </trkpt>
      <trkpt lat="44.43071" lon="5.0884">
        <ele>650</ele>
        <time>2013-05-10T09:28:54Z</time>
      </trkpt>
      <trkpt lat="44.43073" lon="5.08841">
        <ele>650.40002441406</ele>
        <time>2013-05-10T09:28:56Z</time>
      </trkpt>
      <trkpt lat="44.43075" lon="5.08852">
        <ele>651.59997558594</ele>
        <time>2013-05-10T09:29:04Z</time>
      </trkpt>
      <trkpt lat="44.4307" lon="5.08857">
        <ele>653.40002441406</ele>
        <time>2013-05-10T09:29:11Z</time>
      </trkpt>
      <trkpt lat="44.43059" lon="5.0886">
        <ele>654.59997558594</ele>
        <time>2013-05-10T09:29:20Z</time>
      </trkpt>
      <trkpt lat="44.43047" lon="5.08867">
        <ele>656</ele>
        <time>2013-05-10T09:29:33Z</time>
      </trkpt>
      <trkpt lat="44.43039" lon="5.08872">
        <ele>657.79998779297</ele>
        <time>2013-05-10T09:29:42Z</time>
      </trkpt>
      <trkpt lat="44.4303" lon="5.08882">
        <ele>660.40002441406</ele>
        <time>2013-05-10T09:29:50Z</time>
      </trkpt>
      <trkpt lat="44.43017" lon="5.08892">
        <ele>660.40002441406</ele>
        <time>2013-05-10T09:30:01Z</time>
      </trkpt>
      <trkpt lat="44.4301" lon="5.08898">
        <ele>662</ele>
        <time>2013-05-10T09:30:08Z</time>
      </trkpt>
      <trkpt lat="44.43" lon="5.08909">
        <ele>662.79998779297</ele>
        <time>2013-05-10T09:30:17Z</time>
      </trkpt>
      <trkpt lat="44.42999" lon="5.0891">
        <ele>662.79998779297</ele>
        <time>2013-05-10T09:30:18Z</time>
      </trkpt>
      <trkpt lat="44.42998" lon="5.08911">
        <ele>663.40002441406</ele>
        <time>2013-05-10T09:30:19Z</time>
      </trkpt>
      <trkpt lat="44.42984" lon="5.08926">
        <ele>664.59997558594</ele>
        <time>2013-05-10T09:30:33Z</time>
      </trkpt>
      <trkpt lat="44.42979" lon="5.08932">
        <ele>665.59997558594</ele>
        <time>2013-05-10T09:30:38Z</time>
      </trkpt>
      <trkpt lat="44.42971" lon="5.08944">
        <ele>667</ele>
        <time>2013-05-10T09:30:48Z</time>
      </trkpt>
      <trkpt lat="44.42968" lon="5.08949">
        <ele>667.40002441406</ele>
        <time>2013-05-10T09:30:52Z</time>
      </trkpt>
      <trkpt lat="44.42966" lon="5.08952">
        <ele>667.79998779297</ele>
        <time>2013-05-10T09:30:54Z</time>
      </trkpt>
      <trkpt lat="44.42958" lon="5.08966">
        <ele>669</ele>
        <time>2013-05-10T09:31:03Z</time>
      </trkpt>
      <trkpt lat="44.42956" lon="5.08973">
        <ele>669.40002441406</ele>
        <time>2013-05-10T09:31:07Z</time>
      </trkpt>
      <trkpt lat="44.42951" lon="5.08981">
        <ele>670.79998779297</ele>
        <time>2013-05-10T09:31:12Z</time>
      </trkpt>
      <trkpt lat="44.42949" lon="5.08984">
        <ele>671.20001220703</ele>
        <time>2013-05-10T09:31:14Z</time>
      </trkpt>
      <trkpt lat="44.42943" lon="5.08999">
        <ele>671.59997558594</ele>
        <time>2013-05-10T09:31:21Z</time>
      </trkpt>
      <trkpt lat="44.42942" lon="5.09">
        <ele>672</ele>
        <time>2013-05-10T09:31:23Z</time>
      </trkpt>
      <trkpt lat="44.42938" lon="5.09003">
        <ele>672.79998779297</ele>
        <time>2013-05-10T09:31:26Z</time>
      </trkpt>
      <trkpt lat="44.42928" lon="5.09016">
        <ele>673.20001220703</ele>
        <time>2013-05-10T09:31:36Z</time>
      </trkpt>
      <trkpt lat="44.42923" lon="5.09021">
        <ele>673.59997558594</ele>
        <time>2013-05-10T09:31:40Z</time>
      </trkpt>
      <trkpt lat="44.4292" lon="5.09025">
        <ele>675</ele>
        <time>2013-05-10T09:31:43Z</time>
      </trkpt>
      <trkpt lat="44.42911" lon="5.0904">
        <ele>675.40002441406</ele>
        <time>2013-05-10T09:31:51Z</time>
      </trkpt>
      <trkpt lat="44.429" lon="5.09053">
        <ele>675.40002441406</ele>
        <time>2013-05-10T09:31:58Z</time>
      </trkpt>
      <trkpt lat="44.42893" lon="5.09062">
        <ele>675.40002441406</ele>
        <time>2013-05-10T09:32:03Z</time>
      </trkpt>
      <trkpt lat="44.42883" lon="5.09078">
        <ele>675.40002441406</ele>
        <time>2013-05-10T09:32:08Z</time>
      </trkpt>
      <trkpt lat="44.42875" lon="5.09093">
        <ele>675.40002441406</ele>
        <time>2013-05-10T09:32:14Z</time>
      </trkpt>
      <trkpt lat="44.42859" lon="5.09104">
        <ele>675.40002441406</ele>
        <time>2013-05-10T09:32:21Z</time>
      </trkpt>
      <trkpt lat="44.42848" lon="5.09124">
        <ele>675.40002441406</ele>
        <time>2013-05-10T09:32:27Z</time>
      </trkpt>
      <trkpt lat="44.42842" lon="5.09154">
        <ele>675.40002441406</ele>
        <time>2013-05-10T09:32:34Z</time>
      </trkpt>
      <trkpt lat="44.42837" lon="5.09192">
        <ele>675.40002441406</ele>
        <time>2013-05-10T09:32:42Z</time>
      </trkpt>
      <trkpt lat="44.4284" lon="5.09217">
        <ele>675.40002441406</ele>
        <time>2013-05-10T09:32:48Z</time>
      </trkpt>
      <trkpt lat="44.42833" lon="5.09244">
        <ele>675.40002441406</ele>
        <time>2013-05-10T09:32:55Z</time>
      </trkpt>
      <trkpt lat="44.42823" lon="5.09238">
        <ele>675.40002441406</ele>
        <time>2013-05-10T09:32:57Z</time>
      </trkpt>
      <trkpt lat="44.42819" lon="5.09236">
        <ele>675.40002441406</ele>
        <time>2013-05-10T09:32:58Z</time>
      </trkpt>
      <trkpt lat="44.42799" lon="5.09238">
        <ele>675.40002441406</ele>
        <time>2013-05-10T09:33:04Z</time>
      </trkpt>
      <trkpt lat="44.42789" lon="5.09249">
        <ele>675.40002441406</ele>
        <time>2013-05-10T09:33:08Z</time>
      </trkpt>
      <trkpt lat="44.42786" lon="5.09274">
        <ele>675.40002441406</ele>
        <time>2013-05-10T09:33:14Z</time>
      </trkpt>
      <trkpt lat="44.42783" lon="5.09306">
        <ele>675.40002441406</ele>
        <time>2013-05-10T09:33:21Z</time>
      </trkpt>
      <trkpt lat="44.42777" lon="5.09327">
        <ele>675.40002441406</ele>
        <time>2013-05-10T09:33:26Z</time>
      </trkpt>
      <trkpt lat="44.42771" lon="5.0935">
        <ele>675.40002441406</ele>
        <time>2013-05-10T09:33:31Z</time>
      </trkpt>
      <trkpt lat="44.42759" lon="5.09374">
        <ele>675.40002441406</ele>
        <time>2013-05-10T09:33:38Z</time>
      </trkpt>
      <trkpt lat="44.4274" lon="5.09395">
        <ele>675.40002441406</ele>
        <time>2013-05-10T09:33:46Z</time>
      </trkpt>
      <trkpt lat="44.42732" lon="5.0941">
        <ele>675.40002441406</ele>
        <time>2013-05-10T09:33:50Z</time>
      </trkpt>
      <trkpt lat="44.42724" lon="5.09421">
        <ele>676</ele>
        <time>2013-05-10T09:33:54Z</time>
      </trkpt>
      <trkpt lat="44.42716" lon="5.09432">
        <ele>677.20001220703</ele>
        <time>2013-05-10T09:33:58Z</time>
      </trkpt>
      <trkpt lat="44.42704" lon="5.09448">
        <ele>677.59997558594</ele>
        <time>2013-05-10T09:34:04Z</time>
      </trkpt>
      <trkpt lat="44.42695" lon="5.09463">
        <ele>678.20001220703</ele>
        <time>2013-05-10T09:34:10Z</time>
      </trkpt>
      <trkpt lat="44.42691" lon="5.09472">
        <ele>679</ele>
        <time>2013-05-10T09:34:13Z</time>
      </trkpt>
      <trkpt lat="44.42689" lon="5.09477">
        <ele>679.40002441406</ele>
        <time>2013-05-10T09:34:15Z</time>
      </trkpt>
      <trkpt lat="44.42687" lon="5.09483">
        <ele>679.40002441406</ele>
        <time>2013-05-10T09:34:17Z</time>
      </trkpt>
      <trkpt lat="44.42686" lon="5.09501">
        <ele>680.79998779297</ele>
        <time>2013-05-10T09:34:23Z</time>
      </trkpt>
      <trkpt lat="44.42688" lon="5.09515">
        <ele>682</ele>
        <time>2013-05-10T09:34:28Z</time>
      </trkpt>
      <trkpt lat="44.42688" lon="5.0952">
        <ele>682</ele>
        <time>2013-05-10T09:34:30Z</time>
      </trkpt>
      <trkpt lat="44.42691" lon="5.09537">
        <ele>682</ele>
        <time>2013-05-10T09:34:36Z</time>
      </trkpt>
      <trkpt lat="44.42691" lon="5.09561">
        <ele>682</ele>
        <time>2013-05-10T09:34:42Z</time>
      </trkpt>
      <trkpt lat="44.42694" lon="5.09585">
        <ele>682.40002441406</ele>
        <time>2013-05-10T09:34:49Z</time>
      </trkpt>
      <trkpt lat="44.42695" lon="5.09594">
        <ele>683.20001220703</ele>
        <time>2013-05-10T09:34:52Z</time>
      </trkpt>
      <trkpt lat="44.42697" lon="5.09604">
        <ele>683.59997558594</ele>
        <time>2013-05-10T09:34:55Z</time>
      </trkpt>
      <trkpt lat="44.42699" lon="5.0961">
        <ele>684</ele>
        <time>2013-05-10T09:34:57Z</time>
      </trkpt>
      <trkpt lat="44.42709" lon="5.09634">
        <ele>684</ele>
        <time>2013-05-10T09:35:04Z</time>
      </trkpt>
      <trkpt lat="44.42713" lon="5.0964">
        <ele>684.40002441406</ele>
        <time>2013-05-10T09:35:07Z</time>
      </trkpt>
      <trkpt lat="44.42721" lon="5.09651">
        <ele>686.20001220703</ele>
        <time>2013-05-10T09:35:14Z</time>
      </trkpt>
      <trkpt lat="44.4273" lon="5.09659">
        <ele>687.79998779297</ele>
        <time>2013-05-10T09:35:22Z</time>
      </trkpt>
      <trkpt lat="44.42731" lon="5.09661">
        <ele>688.20001220703</ele>
        <time>2013-05-10T09:35:23Z</time>
      </trkpt>
      <trkpt lat="44.42744" lon="5.09676">
        <ele>688.20001220703</ele>
        <time>2013-05-10T09:35:33Z</time>
      </trkpt>
      <trkpt lat="44.42752" lon="5.09689">
        <ele>688.59997558594</ele>
        <time>2013-05-10T09:35:40Z</time>
      </trkpt>
      <trkpt lat="44.42753" lon="5.09691">
        <ele>688.59997558594</ele>
        <time>2013-05-10T09:35:41Z</time>
      </trkpt>
      <trkpt lat="44.4276" lon="5.09704">
        <ele>690.40002441406</ele>
        <time>2013-05-10T09:35:49Z</time>
      </trkpt>
      <trkpt lat="44.42768" lon="5.09724">
        <ele>690.40002441406</ele>
        <time>2013-05-10T09:35:59Z</time>
      </trkpt>
      <trkpt lat="44.4277" lon="5.09727">
        <ele>690.79998779297</ele>
        <time>2013-05-10T09:36:01Z</time>
      </trkpt>
      <trkpt lat="44.42772" lon="5.0973">
        <ele>691.20001220703</ele>
        <time>2013-05-10T09:36:03Z</time>
      </trkpt>
      <trkpt lat="44.42778" lon="5.0974">
        <ele>692.59997558594</ele>
        <time>2013-05-10T09:36:09Z</time>
      </trkpt>
      <trkpt lat="44.42785" lon="5.09753">
        <ele>692.59997558594</ele>
        <time>2013-05-10T09:36:18Z</time>
      </trkpt>
      <trkpt lat="44.42788" lon="5.09761">
        <ele>693.20001220703</ele>
        <time>2013-05-10T09:36:23Z</time>
      </trkpt>
      <trkpt lat="44.42791" lon="5.09769">
        <ele>694.79998779297</ele>
        <time>2013-05-10T09:36:28Z</time>
      </trkpt>
      <trkpt lat="44.42792" lon="5.09771">
        <ele>694.79998779297</ele>
        <time>2013-05-10T09:36:29Z</time>
      </trkpt>
      <trkpt lat="44.42801" lon="5.0978">
        <ele>695.20001220703</ele>
        <time>2013-05-10T09:36:37Z</time>
      </trkpt>
      <trkpt lat="44.42805" lon="5.09781">
        <ele>696</ele>
        <time>2013-05-10T09:36:40Z</time>
      </trkpt>
      <trkpt lat="44.42812" lon="5.09792">
        <ele>696.79998779297</ele>
        <time>2013-05-10T09:36:49Z</time>
      </trkpt>
      <trkpt lat="44.4281" lon="5.09802">
        <ele>698.79998779297</ele>
        <time>2013-05-10T09:36:56Z</time>
      </trkpt>
      <trkpt lat="44.42804" lon="5.09811">
        <ele>699.20001220703</ele>
        <time>2013-05-10T09:37:02Z</time>
      </trkpt>
      <trkpt lat="44.42794" lon="5.09821">
        <ele>699.20001220703</ele>
        <time>2013-05-10T09:37:10Z</time>
      </trkpt>
      <trkpt lat="44.42788" lon="5.09827">
        <ele>699.59997558594</ele>
        <time>2013-05-10T09:37:14Z</time>
      </trkpt>
      <trkpt lat="44.42783" lon="5.09832">
        <ele>700.59997558594</ele>
        <time>2013-05-10T09:37:18Z</time>
      </trkpt>
      <trkpt lat="44.42779" lon="5.09838">
        <ele>701.40002441406</ele>
        <time>2013-05-10T09:37:23Z</time>
      </trkpt>
      <trkpt lat="44.42774" lon="5.09847">
        <ele>702</ele>
        <time>2013-05-10T09:37:30Z</time>
      </trkpt>
      <trkpt lat="44.42772" lon="5.09851">
        <ele>702.40002441406</ele>
        <time>2013-05-10T09:37:32Z</time>
      </trkpt>
      <trkpt lat="44.4277" lon="5.09858">
        <ele>703.79998779297</ele>
        <time>2013-05-10T09:37:37Z</time>
      </trkpt>
      <trkpt lat="44.42768" lon="5.09863">
        <ele>703.79998779297</ele>
        <time>2013-05-10T09:37:41Z</time>
      </trkpt>
      <trkpt lat="44.42768" lon="5.0987">
        <ele>705</ele>
        <time>2013-05-10T09:37:45Z</time>
      </trkpt>
      <trkpt lat="44.42768" lon="5.09882">
        <ele>706.40002441406</ele>
        <time>2013-05-10T09:37:52Z</time>
      </trkpt>
      <trkpt lat="44.4276" lon="5.09892">
        <ele>708.40002441406</ele>
        <time>2013-05-10T09:38:04Z</time>
      </trkpt>
      <trkpt lat="44.4276" lon="5.09892">
        <ele>708.79998779297</ele>
        <time>2013-05-10T09:38:06Z</time>
      </trkpt>
      <trkpt lat="44.42757" lon="5.0989">
        <ele>709.59997558594</ele>
        <time>2013-05-10T09:38:09Z</time>
      </trkpt>
      <trkpt lat="44.42746" lon="5.09883">
        <ele>710.40002441406</ele>
        <time>2013-05-10T09:38:19Z</time>
      </trkpt>
      <trkpt lat="44.42738" lon="5.09882">
        <ele>712.20001220703</ele>
        <time>2013-05-10T09:38:25Z</time>
      </trkpt>
      <trkpt lat="44.42727" lon="5.09883">
        <ele>712.20001220703</ele>
        <time>2013-05-10T09:38:36Z</time>
      </trkpt>
      <trkpt lat="44.42722" lon="5.09879">
        <ele>714</ele>
        <time>2013-05-10T09:38:42Z</time>
      </trkpt>
      <trkpt lat="44.42719" lon="5.09878">
        <ele>714.40002441406</ele>
        <time>2013-05-10T09:38:45Z</time>
      </trkpt>
      <trkpt lat="44.42709" lon="5.09875">
        <ele>716.40002441406</ele>
        <time>2013-05-10T09:38:55Z</time>
      </trkpt>
      <trkpt lat="44.42698" lon="5.09872">
        <ele>717.79998779297</ele>
        <time>2013-05-10T09:39:06Z</time>
      </trkpt>
      <trkpt lat="44.4269" lon="5.0988">
        <ele>718.59997558594</ele>
        <time>2013-05-10T09:39:14Z</time>
      </trkpt>
      <trkpt lat="44.42688" lon="5.09882">
        <ele>719</ele>
        <time>2013-05-10T09:39:16Z</time>
      </trkpt>
      <trkpt lat="44.42687" lon="5.0989">
        <ele>719.79998779297</ele>
        <time>2013-05-10T09:39:21Z</time>
      </trkpt>
      <trkpt lat="44.42694" lon="5.09895">
        <ele>720.59997558594</ele>
        <time>2013-05-10T09:39:29Z</time>
      </trkpt>
      <trkpt lat="44.42699" lon="5.099">
        <ele>722.40002441406</ele>
        <time>2013-05-10T09:39:36Z</time>
      </trkpt>
      <trkpt lat="44.42702" lon="5.09902">
        <ele>722.40002441406</ele>
        <time>2013-05-10T09:39:38Z</time>
      </trkpt>
      <trkpt lat="44.42708" lon="5.09911">
        <ele>724.20001220703</ele>
        <time>2013-05-10T09:39:45Z</time>
      </trkpt>
      <trkpt lat="44.4271" lon="5.09914">
        <ele>725.20001220703</ele>
        <time>2013-05-10T09:39:48Z</time>
      </trkpt>
      <trkpt lat="44.42717" lon="5.09921">
        <ele>726.79998779297</ele>
        <time>2013-05-10T09:39:55Z</time>
      </trkpt>
      <trkpt lat="44.42721" lon="5.09924">
        <ele>727.20001220703</ele>
        <time>2013-05-10T09:40:00Z</time>
      </trkpt>
      <trkpt lat="44.42731" lon="5.09927">
        <ele>729.40002441406</ele>
        <time>2013-05-10T09:40:09Z</time>
      </trkpt>
      <trkpt lat="44.42737" lon="5.0993">
        <ele>729.79998779297</ele>
        <time>2013-05-10T09:40:16Z</time>
      </trkpt>
      <trkpt lat="44.42741" lon="5.09934">
        <ele>731.20001220703</ele>
        <time>2013-05-10T09:40:21Z</time>
      </trkpt>
      <trkpt lat="44.42751" lon="5.09946">
        <ele>734.40002441406</ele>
        <time>2013-05-10T09:40:35Z</time>
      </trkpt>
      <trkpt lat="44.42757" lon="5.09954">
        <ele>734.40002441406</ele>
        <time>2013-05-10T09:40:43Z</time>
      </trkpt>
      <trkpt lat="44.42765" lon="5.09957">
        <ele>734.79998779297</ele>
        <time>2013-05-10T09:40:51Z</time>
      </trkpt>
      <trkpt lat="44.4277" lon="5.0996">
        <ele>736.40002441406</ele>
        <time>2013-05-10T09:40:56Z</time>
      </trkpt>
      <trkpt lat="44.42773" lon="5.0996">
        <ele>736.40002441406</ele>
        <time>2013-05-10T09:40:59Z</time>
      </trkpt>
      <trkpt lat="44.4278" lon="5.09964">
        <ele>738.79998779297</ele>
        <time>2013-05-10T09:41:06Z</time>
      </trkpt>
      <trkpt lat="44.42791" lon="5.09971">
        <ele>739.20001220703</ele>
        <time>2013-05-10T09:41:18Z</time>
      </trkpt>
      <trkpt lat="44.42801" lon="5.09973">
        <ele>742.20001220703</ele>
        <time>2013-05-10T09:41:30Z</time>
      </trkpt>
      <trkpt lat="44.42809" lon="5.09982">
        <ele>744</ele>
        <time>2013-05-10T09:41:44Z</time>
      </trkpt>
      <trkpt lat="44.42796" lon="5.09989">
        <ele>745.40002441406</ele>
        <time>2013-05-10T09:41:58Z</time>
      </trkpt>
      <trkpt lat="44.42785" lon="5.09982">
        <ele>745.79998779297</ele>
        <time>2013-05-10T09:42:06Z</time>
      </trkpt>
      <trkpt lat="44.42781" lon="5.0998">
        <ele>746.59997558594</ele>
        <time>2013-05-10T09:42:09Z</time>
      </trkpt>
      <trkpt lat="44.42779" lon="5.09978">
        <ele>747</ele>
        <time>2013-05-10T09:42:11Z</time>
      </trkpt>
      <trkpt lat="44.42768" lon="5.09976">
        <ele>748.20001220703</ele>
        <time>2013-05-10T09:42:19Z</time>
      </trkpt>
      <trkpt lat="44.42757" lon="5.09975">
        <ele>749.59997558594</ele>
        <time>2013-05-10T09:42:27Z</time>
      </trkpt>
      <trkpt lat="44.42749" lon="5.09978">
        <ele>749.59997558594</ele>
        <time>2013-05-10T09:42:34Z</time>
      </trkpt>
      <trkpt lat="44.42738" lon="5.09978">
        <ele>750</ele>
        <time>2013-05-10T09:42:43Z</time>
      </trkpt>
      <trkpt lat="44.42729" lon="5.09976">
        <ele>751.79998779297</ele>
        <time>2013-05-10T09:42:50Z</time>
      </trkpt>
      <trkpt lat="44.42719" lon="5.09977">
        <ele>753.40002441406</ele>
        <time>2013-05-10T09:42:59Z</time>
      </trkpt>
      <trkpt lat="44.42706" lon="5.09983">
        <ele>754.20001220703</ele>
        <time>2013-05-10T09:43:12Z</time>
      </trkpt>
      <trkpt lat="44.42699" lon="5.09986">
        <ele>755</ele>
        <time>2013-05-10T09:43:18Z</time>
      </trkpt>
      <trkpt lat="44.4269" lon="5.09986">
        <ele>757.20001220703</ele>
        <time>2013-05-10T09:43:26Z</time>
      </trkpt>
      <trkpt lat="44.42679" lon="5.09985">
        <ele>760.20001220703</ele>
        <time>2013-05-10T09:43:38Z</time>
      </trkpt>
      <trkpt lat="44.42682" lon="5.09997">
        <ele>760.20001220703</ele>
        <time>2013-05-10T09:43:47Z</time>
      </trkpt>
      <trkpt lat="44.42686" lon="5.10001">
        <ele>761.79998779297</ele>
        <time>2013-05-10T09:43:54Z</time>
      </trkpt>
      <trkpt lat="44.4269" lon="5.10007">
        <ele>763.59997558594</ele>
        <time>2013-05-10T09:44:02Z</time>
      </trkpt>
      <trkpt lat="44.42694" lon="5.10012">
        <ele>764.40002441406</ele>
        <time>2013-05-10T09:44:07Z</time>
      </trkpt>
      <trkpt lat="44.42703" lon="5.10018">
        <ele>764.40002441406</ele>
        <time>2013-05-10T09:44:17Z</time>
      </trkpt>
      <trkpt lat="44.42709" lon="5.10021">
        <ele>766.59997558594</ele>
        <time>2013-05-10T09:44:24Z</time>
      </trkpt>
      <trkpt lat="44.4271" lon="5.10022">
        <ele>767</ele>
        <time>2013-05-10T09:44:26Z</time>
      </trkpt>
      <trkpt lat="44.42723" lon="5.10026">
        <ele>769.59997558594</ele>
        <time>2013-05-10T09:44:47Z</time>
      </trkpt>
      <trkpt lat="44.42735" lon="5.10027">
        <ele>769.59997558594</ele>
        <time>2013-05-10T09:44:56Z</time>
      </trkpt>
      <trkpt lat="44.42743" lon="5.10027">
        <ele>770</ele>
        <time>2013-05-10T09:45:03Z</time>
      </trkpt>
      <trkpt lat="44.42752" lon="5.10027">
        <ele>771.59997558594</ele>
        <time>2013-05-10T09:45:10Z</time>
      </trkpt>
      <trkpt lat="44.42763" lon="5.1003">
        <ele>771.59997558594</ele>
        <time>2013-05-10T09:45:20Z</time>
      </trkpt>
      <trkpt lat="44.4277" lon="5.10036">
        <ele>773.20001220703</ele>
        <time>2013-05-10T09:45:28Z</time>
      </trkpt>
      <trkpt lat="44.42776" lon="5.10041">
        <ele>774</ele>
        <time>2013-05-10T09:45:34Z</time>
      </trkpt>
      <trkpt lat="44.42784" lon="5.10052">
        <ele>775.79998779297</ele>
        <time>2013-05-10T09:45:45Z</time>
      </trkpt>
      <trkpt lat="44.42792" lon="5.10061">
        <ele>777</ele>
        <time>2013-05-10T09:45:56Z</time>
      </trkpt>
      <trkpt lat="44.42802" lon="5.10069">
        <ele>779.20001220703</ele>
        <time>2013-05-10T09:46:08Z</time>
      </trkpt>
      <trkpt lat="44.42803" lon="5.1007">
        <ele>779.20001220703</ele>
        <time>2013-05-10T09:46:09Z</time>
      </trkpt>
      <trkpt lat="44.42813" lon="5.10077">
        <ele>780</ele>
        <time>2013-05-10T09:46:19Z</time>
      </trkpt>
      <trkpt lat="44.42817" lon="5.1008">
        <ele>781.59997558594</ele>
        <time>2013-05-10T09:46:24Z</time>
      </trkpt>
      <trkpt lat="44.4282" lon="5.10081">
        <ele>782.20001220703</ele>
        <time>2013-05-10T09:46:27Z</time>
      </trkpt>
      <trkpt lat="44.42831" lon="5.10086">
        <ele>782.59997558594</ele>
        <time>2013-05-10T09:46:40Z</time>
      </trkpt>
      <trkpt lat="44.42843" lon="5.10091">
        <ele>784.40002441406</ele>
        <time>2013-05-10T09:46:53Z</time>
      </trkpt>
      <trkpt lat="44.42851" lon="5.10096">
        <ele>786.20001220703</ele>
        <time>2013-05-10T09:47:03Z</time>
      </trkpt>
      <trkpt lat="44.42858" lon="5.10104">
        <ele>786.59997558594</ele>
        <time>2013-05-10T09:47:12Z</time>
      </trkpt>
      <trkpt lat="44.42862" lon="5.10105">
        <ele>788</ele>
        <time>2013-05-10T09:47:15Z</time>
      </trkpt>
      <trkpt lat="44.42872" lon="5.10106">
        <ele>789.20001220703</ele>
        <time>2013-05-10T09:47:27Z</time>
      </trkpt>
      <trkpt lat="44.4288" lon="5.101">
        <ele>791.59997558594</ele>
        <time>2013-05-10T09:47:39Z</time>
      </trkpt>
      <trkpt lat="44.42881" lon="5.101">
        <ele>792</ele>
        <time>2013-05-10T09:47:41Z</time>
      </trkpt>
      <trkpt lat="44.42888" lon="5.10112">
        <ele>793.20001220703</ele>
        <time>2013-05-10T09:47:53Z</time>
      </trkpt>
      <trkpt lat="44.42873" lon="5.10121">
        <ele>795</ele>
        <time>2013-05-10T09:49:17Z</time>
      </trkpt>
      <trkpt lat="44.4286" lon="5.10122">
        <ele>795</ele>
        <time>2013-05-10T09:49:25Z</time>
      </trkpt>
      <trkpt lat="44.42851" lon="5.10119">
        <ele>796.20001220703</ele>
        <time>2013-05-10T09:49:31Z</time>
      </trkpt>
      <trkpt lat="44.42849" lon="5.10118">
        <ele>796.20001220703</ele>
        <time>2013-05-10T09:49:33Z</time>
      </trkpt>
      <trkpt lat="44.42839" lon="5.10117">
        <ele>797.59997558594</ele>
        <time>2013-05-10T09:49:41Z</time>
      </trkpt>
      <trkpt lat="44.42828" lon="5.1012">
        <ele>799.40002441406</ele>
        <time>2013-05-10T09:49:48Z</time>
      </trkpt>
      <trkpt lat="44.42825" lon="5.1012">
        <ele>799.40002441406</ele>
        <time>2013-05-10T09:49:50Z</time>
      </trkpt>
      <trkpt lat="44.42814" lon="5.1012">
        <ele>799.79998779297</ele>
        <time>2013-05-10T09:49:57Z</time>
      </trkpt>
      <trkpt lat="44.42811" lon="5.1012">
        <ele>799.79998779297</ele>
        <time>2013-05-10T09:49:59Z</time>
      </trkpt>
      <trkpt lat="44.42809" lon="5.1012">
        <ele>800.59997558594</ele>
        <time>2013-05-10T09:50:00Z</time>
      </trkpt>
      <trkpt lat="44.42791" lon="5.10118">
        <ele>801.40002441406</ele>
        <time>2013-05-10T09:50:13Z</time>
      </trkpt>
      <trkpt lat="44.4278" lon="5.1012">
        <ele>802.20001220703</ele>
        <time>2013-05-10T09:50:21Z</time>
      </trkpt>
      <trkpt lat="44.42764" lon="5.10128">
        <ele>804</ele>
        <time>2013-05-10T09:50:33Z</time>
      </trkpt>
      <trkpt lat="44.42762" lon="5.1013">
        <ele>804.40002441406</ele>
        <time>2013-05-10T09:50:35Z</time>
      </trkpt>
      <trkpt lat="44.42759" lon="5.10131">
        <ele>804.40002441406</ele>
        <time>2013-05-10T09:50:37Z</time>
      </trkpt>
      <trkpt lat="44.42751" lon="5.10142">
        <ele>805.79998779297</ele>
        <time>2013-05-10T09:50:46Z</time>
      </trkpt>
      <trkpt lat="44.42747" lon="5.10146">
        <ele>807.20001220703</ele>
        <time>2013-05-10T09:50:50Z</time>
      </trkpt>
      <trkpt lat="44.42734" lon="5.1016">
        <ele>808</ele>
        <time>2013-05-10T09:51:03Z</time>
      </trkpt>
      <trkpt lat="44.42732" lon="5.10162">
        <ele>809</ele>
        <time>2013-05-10T09:51:05Z</time>
      </trkpt>
      <trkpt lat="44.4273" lon="5.10163">
        <ele>809.40002441406</ele>
        <time>2013-05-10T09:51:07Z</time>
      </trkpt>
      <trkpt lat="44.42719" lon="5.10171">
        <ele>810.79998779297</ele>
        <time>2013-05-10T09:51:17Z</time>
      </trkpt>
      <trkpt lat="44.42707" lon="5.10179">
        <ele>812.79998779297</ele>
        <time>2013-05-10T09:51:29Z</time>
      </trkpt>
      <trkpt lat="44.42698" lon="5.1018">
        <ele>814.59997558594</ele>
        <time>2013-05-10T09:51:36Z</time>
      </trkpt>
      <trkpt lat="44.42694" lon="5.10186">
        <ele>814.59997558594</ele>
        <time>2013-05-10T09:51:40Z</time>
      </trkpt>
      <trkpt lat="44.42694" lon="5.10191">
        <ele>815</ele>
        <time>2013-05-10T09:51:43Z</time>
      </trkpt>
      <trkpt lat="44.427" lon="5.10195">
        <ele>815.79998779297</ele>
        <time>2013-05-10T09:51:48Z</time>
      </trkpt>
      <trkpt lat="44.42712" lon="5.1019">
        <ele>817.59997558594</ele>
        <time>2013-05-10T09:51:58Z</time>
      </trkpt>
      <trkpt lat="44.42713" lon="5.10189">
        <ele>817.59997558594</ele>
        <time>2013-05-10T09:51:59Z</time>
      </trkpt>
      <trkpt lat="44.42723" lon="5.10187">
        <ele>818.79998779297</ele>
        <time>2013-05-10T09:52:07Z</time>
      </trkpt>
      <trkpt lat="44.42731" lon="5.10188">
        <ele>819.20001220703</ele>
        <time>2013-05-10T09:52:15Z</time>
      </trkpt>
      <trkpt lat="44.4273" lon="5.1019">
        <ele>819.79998779297</ele>
        <time>2013-05-10T09:52:16Z</time>
      </trkpt>
      <trkpt lat="44.42717" lon="5.10197">
        <ele>821</ele>
        <time>2013-05-10T09:52:26Z</time>
      </trkpt>
      <trkpt lat="44.42702" lon="5.10205">
        <ele>821.40002441406</ele>
        <time>2013-05-10T09:52:38Z</time>
      </trkpt>
      <trkpt lat="44.42699" lon="5.10206">
        <ele>821.79998779297</ele>
        <time>2013-05-10T09:52:40Z</time>
      </trkpt>
      <trkpt lat="44.42695" lon="5.1021">
        <ele>823.20001220703</ele>
        <time>2013-05-10T09:52:45Z</time>
      </trkpt>
      <trkpt lat="44.42688" lon="5.10216">
        <ele>825</ele>
        <time>2013-05-10T09:52:54Z</time>
      </trkpt>
      <trkpt lat="44.42682" lon="5.10221">
        <ele>826.40002441406</ele>
        <time>2013-05-10T09:53:03Z</time>
      </trkpt>
      <trkpt lat="44.4268" lon="5.10224">
        <ele>827.79998779297</ele>
        <time>2013-05-10T09:53:10Z</time>
      </trkpt>
      <trkpt lat="44.42677" lon="5.1023">
        <ele>829.40002441406</ele>
        <time>2013-05-10T09:53:21Z</time>
      </trkpt>
      <trkpt lat="44.42673" lon="5.1024">
        <ele>833.59997558594</ele>
        <time>2013-05-10T09:53:39Z</time>
      </trkpt>
      <trkpt lat="44.42669" lon="5.10245">
        <ele>835</ele>
        <time>2013-05-10T09:53:47Z</time>
      </trkpt>
      <trkpt lat="44.42659" lon="5.10247">
        <ele>836.79998779297</ele>
        <time>2013-05-10T09:54:03Z</time>
      </trkpt>
      <trkpt lat="44.42659" lon="5.10253">
        <ele>838.79998779297</ele>
        <time>2013-05-10T09:55:32Z</time>
      </trkpt>
      <trkpt lat="44.42656" lon="5.1025">
        <ele>838.79998779297</ele>
        <time>2013-05-10T09:55:37Z</time>
      </trkpt>
      <trkpt lat="44.42658" lon="5.10233">
        <ele>838.79998779297</ele>
        <time>2013-05-10T09:55:55Z</time>
      </trkpt>
      <trkpt lat="44.42655" lon="5.10225">
        <ele>838.79998779297</ele>
        <time>2013-05-10T09:55:57Z</time>
      </trkpt>
      <trkpt lat="44.42644" lon="5.10215">
        <ele>838.40002441406</ele>
        <time>2013-05-10T09:56:01Z</time>
      </trkpt>
      <trkpt lat="44.42639" lon="5.10212">
        <ele>838.40002441406</ele>
        <time>2013-05-10T09:56:02Z</time>
      </trkpt>
      <trkpt lat="44.42625" lon="5.10203">
        <ele>838</ele>
        <time>2013-05-10T09:56:05Z</time>
      </trkpt>
      <trkpt lat="44.42621" lon="5.10197">
        <ele>837.20001220703</ele>
        <time>2013-05-10T09:56:06Z</time>
      </trkpt>
      <trkpt lat="44.42617" lon="5.10187">
        <ele>836.59997558594</ele>
        <time>2013-05-10T09:56:08Z</time>
      </trkpt>
      <trkpt lat="44.42611" lon="5.10166">
        <ele>836.59997558594</ele>
        <time>2013-05-10T09:56:15Z</time>
      </trkpt>
      <trkpt lat="44.42599" lon="5.10146">
        <ele>836.59997558594</ele>
        <time>2013-05-10T09:56:23Z</time>
      </trkpt>
      <trkpt lat="44.42596" lon="5.10139">
        <ele>837.59997558594</ele>
        <time>2013-05-10T09:56:26Z</time>
      </trkpt>
      <trkpt lat="44.42591" lon="5.10127">
        <ele>839</ele>
        <time>2013-05-10T09:56:31Z</time>
      </trkpt>
      <trkpt lat="44.42582" lon="5.10112">
        <ele>839.40002441406</ele>
        <time>2013-05-10T09:56:38Z</time>
      </trkpt>
      <trkpt lat="44.42579" lon="5.10107">
        <ele>840.20001220703</ele>
        <time>2013-05-10T09:56:40Z</time>
      </trkpt>
      <trkpt lat="44.4257" lon="5.10095">
        <ele>841</ele>
        <time>2013-05-10T09:56:45Z</time>
      </trkpt>
      <trkpt lat="44.42566" lon="5.10089">
        <ele>841</ele>
        <time>2013-05-10T09:56:48Z</time>
      </trkpt>
      <trkpt lat="44.42554" lon="5.10079">
        <ele>841</ele>
        <time>2013-05-10T09:56:54Z</time>
      </trkpt>
      <trkpt lat="44.42537" lon="5.10065">
        <ele>841</ele>
        <time>2013-05-10T09:57:02Z</time>
      </trkpt>
      <trkpt lat="44.42528" lon="5.10061">
        <ele>841.79998779297</ele>
        <time>2013-05-10T09:57:07Z</time>
      </trkpt>
      <trkpt lat="44.42519" lon="5.10058">
        <ele>842.59997558594</ele>
        <time>2013-05-10T09:57:12Z</time>
      </trkpt>
      <trkpt lat="44.42504" lon="5.10029">
        <ele>843</ele>
        <time>2013-05-10T09:57:25Z</time>
      </trkpt>
      <trkpt lat="44.42497" lon="5.10015">
        <ele>843.40002441406</ele>
        <time>2013-05-10T09:57:31Z</time>
      </trkpt>
      <trkpt lat="44.42494" lon="5.1001">
        <ele>844.40002441406</ele>
        <time>2013-05-10T09:57:33Z</time>
      </trkpt>
      <trkpt lat="44.42488" lon="5.09999">
        <ele>844.79998779297</ele>
        <time>2013-05-10T09:57:38Z</time>
      </trkpt>
      <trkpt lat="44.4248" lon="5.09986">
        <ele>845.20001220703</ele>
        <time>2013-05-10T09:57:44Z</time>
      </trkpt>
      <trkpt lat="44.42469" lon="5.09978">
        <ele>845.20001220703</ele>
        <time>2013-05-10T09:57:50Z</time>
      </trkpt>
      <trkpt lat="44.42445" lon="5.0997">
        <ele>845.20001220703</ele>
        <time>2013-05-10T09:58:01Z</time>
      </trkpt>
      <trkpt lat="44.42421" lon="5.09968">
        <ele>845.20001220703</ele>
        <time>2013-05-10T09:58:09Z</time>
      </trkpt>
      <trkpt lat="44.42411" lon="5.09972">
        <ele>845.59997558594</ele>
        <time>2013-05-10T09:58:13Z</time>
      </trkpt>
      <trkpt lat="44.42398" lon="5.09979">
        <ele>845.59997558594</ele>
        <time>2013-05-10T09:58:18Z</time>
      </trkpt>
      <trkpt lat="44.42385" lon="5.09986">
        <ele>846.40002441406</ele>
        <time>2013-05-10T09:58:24Z</time>
      </trkpt>
      <trkpt lat="44.42372" lon="5.09992">
        <ele>847.20001220703</ele>
        <time>2013-05-10T09:58:30Z</time>
      </trkpt>
      <trkpt lat="44.4237" lon="5.09993">
        <ele>847.20001220703</ele>
        <time>2013-05-10T09:58:31Z</time>
      </trkpt>
      <trkpt lat="44.4236" lon="5.09998">
        <ele>847.20001220703</ele>
        <time>2013-05-10T09:58:36Z</time>
      </trkpt>
      <trkpt lat="44.42342" lon="5.10001">
        <ele>847.20001220703</ele>
        <time>2013-05-10T09:58:43Z</time>
      </trkpt>
      <trkpt lat="44.42324" lon="5.10007">
        <ele>847.20001220703</ele>
        <time>2013-05-10T09:58:50Z</time>
      </trkpt>
      <trkpt lat="44.42319" lon="5.10009">
        <ele>847.59997558594</ele>
        <time>2013-05-10T09:58:52Z</time>
      </trkpt>
      <trkpt lat="44.42314" lon="5.1001">
        <ele>848</ele>
        <time>2013-05-10T09:58:54Z</time>
      </trkpt>
      <trkpt lat="44.42309" lon="5.10011">
        <ele>848.59997558594</ele>
        <time>2013-05-10T09:58:56Z</time>
      </trkpt>
      <trkpt lat="44.42288" lon="5.10019">
        <ele>850.20001220703</ele>
        <time>2013-05-10T09:59:06Z</time>
      </trkpt>
      <trkpt lat="44.42285" lon="5.1002">
        <ele>850.59997558594</ele>
        <time>2013-05-10T09:59:08Z</time>
      </trkpt>
      <trkpt lat="44.42279" lon="5.10025">
        <ele>851.59997558594</ele>
        <time>2013-05-10T09:59:13Z</time>
      </trkpt>
      <trkpt lat="44.42274" lon="5.10031">
        <ele>853.59997558594</ele>
        <time>2013-05-10T09:59:20Z</time>
      </trkpt>
      <trkpt lat="44.42269" lon="5.10036">
        <ele>855.20001220703</ele>
        <time>2013-05-10T09:59:25Z</time>
      </trkpt>
      <trkpt lat="44.42262" lon="5.10041">
        <ele>855.79998779297</ele>
        <time>2013-05-10T09:59:31Z</time>
      </trkpt>
      <trkpt lat="44.42259" lon="5.10043">
        <ele>856.59997558594</ele>
        <time>2013-05-10T09:59:34Z</time>
      </trkpt>
      <trkpt lat="44.42262" lon="5.10055">
        <ele>858.20001220703</ele>
        <time>2013-05-10T09:59:44Z</time>
      </trkpt>
      <trkpt lat="44.42273" lon="5.10054">
        <ele>859.40002441406</ele>
        <time>2013-05-10T09:59:52Z</time>
      </trkpt>
      <trkpt lat="44.4228" lon="5.10052">
        <ele>860.79998779297</ele>
        <time>2013-05-10T09:59:57Z</time>
      </trkpt>
      <trkpt lat="44.4229" lon="5.10051">
        <ele>862.20001220703</ele>
        <time>2013-05-10T10:00:04Z</time>
      </trkpt>
      <trkpt lat="44.42302" lon="5.1005">
        <ele>862.59997558594</ele>
        <time>2013-05-10T10:00:11Z</time>
      </trkpt>
      <trkpt lat="44.42312" lon="5.10048">
        <ele>863.40002441406</ele>
        <time>2013-05-10T10:00:16Z</time>
      </trkpt>
      <trkpt lat="44.42321" lon="5.10048">
        <ele>864.20001220703</ele>
        <time>2013-05-10T10:00:21Z</time>
      </trkpt>
      <trkpt lat="44.42337" lon="5.10046">
        <ele>864.20001220703</ele>
        <time>2013-05-10T10:00:30Z</time>
      </trkpt>
      <trkpt lat="44.42347" lon="5.10045">
        <ele>864.59997558594</ele>
        <time>2013-05-10T10:00:37Z</time>
      </trkpt>
      <trkpt lat="44.4235" lon="5.10045">
        <ele>864.59997558594</ele>
        <time>2013-05-10T10:00:39Z</time>
      </trkpt>
      <trkpt lat="44.42362" lon="5.1004">
        <ele>867.20001220703</ele>
        <time>2013-05-10T10:00:48Z</time>
      </trkpt>
      <trkpt lat="44.42365" lon="5.10039">
        <ele>867.79998779297</ele>
        <time>2013-05-10T10:00:50Z</time>
      </trkpt>
      <trkpt lat="44.42371" lon="5.10038">
        <ele>869</ele>
        <time>2013-05-10T10:00:55Z</time>
      </trkpt>
      <trkpt lat="44.42381" lon="5.10038">
        <ele>870.79998779297</ele>
        <time>2013-05-10T10:01:03Z</time>
      </trkpt>
      <trkpt lat="44.42388" lon="5.1004">
        <ele>874.40002441406</ele>
        <time>2013-05-10T10:01:29Z</time>
      </trkpt>
      <trkpt lat="44.4239" lon="5.10041">
        <ele>875.20001220703</ele>
        <time>2013-05-10T10:01:32Z</time>
      </trkpt>
      <trkpt lat="44.42401" lon="5.10048">
        <ele>877.79998779297</ele>
        <time>2013-05-10T10:01:54Z</time>
      </trkpt>
      <trkpt lat="44.42403" lon="5.1005">
        <ele>878.59997558594</ele>
        <time>2013-05-10T10:02:01Z</time>
      </trkpt>
      <trkpt lat="44.42418" lon="5.10065">
        <ele>879.79998779297</ele>
        <time>2013-05-10T10:02:15Z</time>
      </trkpt>
      <trkpt lat="44.42421" lon="5.1007">
        <ele>880.20001220703</ele>
        <time>2013-05-10T10:02:18Z</time>
      </trkpt>
      <trkpt lat="44.42422" lon="5.10071">
        <ele>880.20001220703</ele>
        <time>2013-05-10T10:02:19Z</time>
      </trkpt>
      <trkpt lat="44.42429" lon="5.10082">
        <ele>881.79998779297</ele>
        <time>2013-05-10T10:02:27Z</time>
      </trkpt>
      <trkpt lat="44.42432" lon="5.10088">
        <ele>882.20001220703</ele>
        <time>2013-05-10T10:02:32Z</time>
      </trkpt>
      <trkpt lat="44.42433" lon="5.10091">
        <ele>882.59997558594</ele>
        <time>2013-05-10T10:02:34Z</time>
      </trkpt>
      <trkpt lat="44.42438" lon="5.10101">
        <ele>884</ele>
        <time>2013-05-10T10:02:42Z</time>
      </trkpt>
      <trkpt lat="44.42441" lon="5.10109">
        <ele>884.40002441406</ele>
        <time>2013-05-10T10:02:47Z</time>
      </trkpt>
      <trkpt lat="44.42443" lon="5.10111">
        <ele>884.79998779297</ele>
        <time>2013-05-10T10:02:49Z</time>
      </trkpt>
      <trkpt lat="44.4245" lon="5.10122">
        <ele>886.40002441406</ele>
        <time>2013-05-10T10:02:59Z</time>
      </trkpt>
      <trkpt lat="44.42451" lon="5.10126">
        <ele>887</ele>
        <time>2013-05-10T10:03:02Z</time>
      </trkpt>
      <trkpt lat="44.42454" lon="5.10131">
        <ele>888.20001220703</ele>
        <time>2013-05-10T10:03:07Z</time>
      </trkpt>
      <trkpt lat="44.42461" lon="5.10144">
        <ele>888.79998779297</ele>
        <time>2013-05-10T10:03:23Z</time>
      </trkpt>
      <trkpt lat="44.42467" lon="5.10152">
        <ele>891.79998779297</ele>
        <time>2013-05-10T10:03:33Z</time>
      </trkpt>
      <trkpt lat="44.4247" lon="5.1016">
        <ele>893.20001220703</ele>
        <time>2013-05-10T10:03:41Z</time>
      </trkpt>
      <trkpt lat="44.42477" lon="5.10173">
        <ele>894.79998779297</ele>
        <time>2013-05-10T10:03:53Z</time>
      </trkpt>
      <trkpt lat="44.42481" lon="5.10174">
        <ele>895.20001220703</ele>
        <time>2013-05-10T10:03:57Z</time>
      </trkpt>
      <trkpt lat="44.42488" lon="5.10182">
        <ele>897.40002441406</ele>
        <time>2013-05-10T10:04:14Z</time>
      </trkpt>
      <trkpt lat="44.42491" lon="5.10184">
        <ele>898.40002441406</ele>
        <time>2013-05-10T10:04:18Z</time>
      </trkpt>
      <trkpt lat="44.42496" lon="5.10191">
        <ele>899.20001220703</ele>
        <time>2013-05-10T10:04:28Z</time>
      </trkpt>
      <trkpt lat="44.425" lon="5.10193">
        <ele>900.59997558594</ele>
        <time>2013-05-10T10:04:33Z</time>
      </trkpt>
      <trkpt lat="44.42506" lon="5.10208">
        <ele>901.79998779297</ele>
        <time>2013-05-10T10:04:47Z</time>
      </trkpt>
      <trkpt lat="44.42506" lon="5.10211">
        <ele>901.79998779297</ele>
        <time>2013-05-10T10:04:49Z</time>
      </trkpt>
      <trkpt lat="44.4251" lon="5.10221">
        <ele>903.59997558594</ele>
        <time>2013-05-10T10:04:59Z</time>
      </trkpt>
      <trkpt lat="44.42516" lon="5.10233">
        <ele>905.20001220703</ele>
        <time>2013-05-10T10:05:07Z</time>
      </trkpt>
      <trkpt lat="44.42521" lon="5.10247">
        <ele>906</ele>
        <time>2013-05-10T10:05:19Z</time>
      </trkpt>
      <trkpt lat="44.42522" lon="5.10254">
        <ele>907.59997558594</ele>
        <time>2013-05-10T10:05:25Z</time>
      </trkpt>
      <trkpt lat="44.42524" lon="5.10262">
        <ele>908</ele>
        <time>2013-05-10T10:05:32Z</time>
      </trkpt>
      <trkpt lat="44.4253" lon="5.10274">
        <ele>910</ele>
        <time>2013-05-10T10:05:42Z</time>
      </trkpt>
      <trkpt lat="44.4253" lon="5.10281">
        <ele>910</ele>
        <time>2013-05-10T10:05:52Z</time>
      </trkpt>
      <trkpt lat="44.42532" lon="5.10294">
        <ele>910</ele>
        <time>2013-05-10T10:06:00Z</time>
      </trkpt>
      <trkpt lat="44.42538" lon="5.10306">
        <ele>910</ele>
        <time>2013-05-10T10:06:06Z</time>
      </trkpt>
      <trkpt lat="44.42541" lon="5.1032">
        <ele>910.40002441406</ele>
        <time>2013-05-10T10:06:14Z</time>
      </trkpt>
      <trkpt lat="44.42542" lon="5.10333">
        <ele>911.20001220703</ele>
        <time>2013-05-10T10:06:19Z</time>
      </trkpt>
      <trkpt lat="44.42545" lon="5.10344">
        <ele>913</ele>
        <time>2013-05-10T10:06:26Z</time>
      </trkpt>
      <trkpt lat="44.42545" lon="5.1035">
        <ele>913.79998779297</ele>
        <time>2013-05-10T10:06:29Z</time>
      </trkpt>
      <trkpt lat="44.42548" lon="5.10361">
        <ele>914.20001220703</ele>
        <time>2013-05-10T10:06:34Z</time>
      </trkpt>
      <trkpt lat="44.42547" lon="5.10373">
        <ele>914.20001220703</ele>
        <time>2013-05-10T10:06:40Z</time>
      </trkpt>
      <trkpt lat="44.42548" lon="5.10381">
        <ele>914.59997558594</ele>
        <time>2013-05-10T10:06:48Z</time>
      </trkpt>
      <trkpt lat="44.42552" lon="5.10386">
        <ele>915</ele>
        <time>2013-05-10T10:06:51Z</time>
      </trkpt>
      <trkpt lat="44.42554" lon="5.1039">
        <ele>915.59997558594</ele>
        <time>2013-05-10T10:06:54Z</time>
      </trkpt>
      <trkpt lat="44.42552" lon="5.10404">
        <ele>916.40002441406</ele>
        <time>2013-05-10T10:07:06Z</time>
      </trkpt>
      <trkpt lat="44.42551" lon="5.10413">
        <ele>917.79998779297</ele>
        <time>2013-05-10T10:07:12Z</time>
      </trkpt>
      <trkpt lat="44.42552" lon="5.10429">
        <ele>918.59997558594</ele>
        <time>2013-05-10T10:07:29Z</time>
      </trkpt>
      <trkpt lat="44.4255" lon="5.10437">
        <ele>918.59997558594</ele>
        <time>2013-05-10T10:07:38Z</time>
      </trkpt>
      <trkpt lat="44.42549" lon="5.1045">
        <ele>919</ele>
        <time>2013-05-10T10:07:49Z</time>
      </trkpt>
      <trkpt lat="44.42551" lon="5.10456">
        <ele>920.59997558594</ele>
        <time>2013-05-10T10:07:54Z</time>
      </trkpt>
      <trkpt lat="44.42551" lon="5.10463">
        <ele>921.79998779297</ele>
        <time>2013-05-10T10:07:59Z</time>
      </trkpt>
      <trkpt lat="44.4255" lon="5.10467">
        <ele>922.40002441406</ele>
        <time>2013-05-10T10:08:01Z</time>
      </trkpt>
      <trkpt lat="44.42549" lon="5.10471">
        <ele>923</ele>
        <time>2013-05-10T10:08:03Z</time>
      </trkpt>
      <trkpt lat="44.4255" lon="5.10482">
        <ele>923.59997558594</ele>
        <time>2013-05-10T10:08:11Z</time>
      </trkpt>
      <trkpt lat="44.4255" lon="5.10485">
        <ele>924.40002441406</ele>
        <time>2013-05-10T10:08:15Z</time>
      </trkpt>
      <trkpt lat="44.42554" lon="5.10492">
        <ele>925.40002441406</ele>
        <time>2013-05-10T10:08:22Z</time>
      </trkpt>
      <trkpt lat="44.42557" lon="5.105">
        <ele>927.59997558594</ele>
        <time>2013-05-10T10:08:32Z</time>
      </trkpt>
      <trkpt lat="44.42558" lon="5.10511">
        <ele>929.59997558594</ele>
        <time>2013-05-10T10:08:47Z</time>
      </trkpt>
      <trkpt lat="44.42556" lon="5.10521">
        <ele>930.59997558594</ele>
        <time>2013-05-10T10:08:59Z</time>
      </trkpt>
      <trkpt lat="44.42555" lon="5.10531">
        <ele>931.79998779297</ele>
        <time>2013-05-10T10:09:08Z</time>
      </trkpt>
      <trkpt lat="44.42556" lon="5.10541">
        <ele>933.79998779297</ele>
        <time>2013-05-10T10:09:21Z</time>
      </trkpt>
      <trkpt lat="44.42553" lon="5.10551">
        <ele>935.79998779297</ele>
        <time>2013-05-10T10:09:38Z</time>
      </trkpt>
      <trkpt lat="44.4255" lon="5.1056">
        <ele>938.79998779297</ele>
        <time>2013-05-10T10:09:58Z</time>
      </trkpt>
      <trkpt lat="44.4255" lon="5.10561">
        <ele>938.79998779297</ele>
        <time>2013-05-10T10:10:01Z</time>
      </trkpt>
      <trkpt lat="44.42541" lon="5.10572">
        <ele>941.59997558594</ele>
        <time>2013-05-10T10:10:22Z</time>
      </trkpt>
      <trkpt lat="44.42542" lon="5.1058">
        <ele>942.79998779297</ele>
        <time>2013-05-10T10:10:30Z</time>
      </trkpt>
      <trkpt lat="44.4254" lon="5.10589">
        <ele>943.20001220703</ele>
        <time>2013-05-10T10:10:39Z</time>
      </trkpt>
      <trkpt lat="44.4254" lon="5.10591">
        <ele>943.59997558594</ele>
        <time>2013-05-10T10:10:40Z</time>
      </trkpt>
      <trkpt lat="44.42541" lon="5.10593">
        <ele>944</ele>
        <time>2013-05-10T10:10:42Z</time>
      </trkpt>
      <trkpt lat="44.42546" lon="5.1061">
        <ele>945.20001220703</ele>
        <time>2013-05-10T10:11:01Z</time>
      </trkpt>
      <trkpt lat="44.42545" lon="5.10619">
        <ele>945.20001220703</ele>
        <time>2013-05-10T10:11:07Z</time>
      </trkpt>
      <trkpt lat="44.42546" lon="5.10626">
        <ele>945.20001220703</ele>
        <time>2013-05-10T10:11:09Z</time>
      </trkpt>
      <trkpt lat="44.4255" lon="5.10633">
        <ele>945.20001220703</ele>
        <time>2013-05-10T10:11:13Z</time>
      </trkpt>
      <trkpt lat="44.42551" lon="5.10644">
        <ele>945.20001220703</ele>
        <time>2013-05-10T10:11:19Z</time>
      </trkpt>
      <trkpt lat="44.42553" lon="5.10651">
        <ele>944.20001220703</ele>
        <time>2013-05-10T10:11:23Z</time>
      </trkpt>
      <trkpt lat="44.42554" lon="5.10662">
        <ele>942.79998779297</ele>
        <time>2013-05-10T10:11:28Z</time>
      </trkpt>
      <trkpt lat="44.42554" lon="5.10672">
        <ele>941.20001220703</ele>
        <time>2013-05-10T10:11:33Z</time>
      </trkpt>
      <trkpt lat="44.42553" lon="5.10681">
        <ele>940</ele>
        <time>2013-05-10T10:11:36Z</time>
      </trkpt>
      <trkpt lat="44.42551" lon="5.10693">
        <ele>939.59997558594</ele>
        <time>2013-05-10T10:11:40Z</time>
      </trkpt>
      <trkpt lat="44.42549" lon="5.10704">
        <ele>938.20001220703</ele>
        <time>2013-05-10T10:11:45Z</time>
      </trkpt>
      <trkpt lat="44.42547" lon="5.10719">
        <ele>938.20001220703</ele>
        <time>2013-05-10T10:11:50Z</time>
      </trkpt>
      <trkpt lat="44.4255" lon="5.10734">
        <ele>938.20001220703</ele>
        <time>2013-05-10T10:11:55Z</time>
      </trkpt>
      <trkpt lat="44.42553" lon="5.1074">
        <ele>933.40002441406</ele>
        <time>2013-05-10T10:12:05Z</time>
      </trkpt>
      <trkpt lat="44.42556" lon="5.10754">
        <ele>929.59997558594</ele>
        <time>2013-05-10T10:12:19Z</time>
      </trkpt>
      <trkpt lat="44.42558" lon="5.10773">
        <ele>929.20001220703</ele>
        <time>2013-05-10T10:12:24Z</time>
      </trkpt>
      <trkpt lat="44.42559" lon="5.10783">
        <ele>928.79998779297</ele>
        <time>2013-05-10T10:12:26Z</time>
      </trkpt>
      <trkpt lat="44.42561" lon="5.10799">
        <ele>927.59997558594</ele>
        <time>2013-05-10T10:12:30Z</time>
      </trkpt>
      <trkpt lat="44.42562" lon="5.10802">
        <ele>927.59997558594</ele>
        <time>2013-05-10T10:12:31Z</time>
      </trkpt>
      <trkpt lat="44.42562" lon="5.10812">
        <ele>926</ele>
        <time>2013-05-10T10:12:35Z</time>
      </trkpt>
      <trkpt lat="44.42566" lon="5.10825">
        <ele>926</ele>
        <time>2013-05-10T10:12:40Z</time>
      </trkpt>
      <trkpt lat="44.42568" lon="5.10833">
        <ele>923.40002441406</ele>
        <time>2013-05-10T10:12:43Z</time>
      </trkpt>
      <trkpt lat="44.4257" lon="5.10837">
        <ele>920.40002441406</ele>
        <time>2013-05-10T10:12:45Z</time>
      </trkpt>
      <trkpt lat="44.42572" lon="5.10842">
        <ele>917.20001220703</ele>
        <time>2013-05-10T10:12:47Z</time>
      </trkpt>
      <trkpt lat="44.42578" lon="5.10853">
        <ele>915.40002441406</ele>
        <time>2013-05-10T10:12:51Z</time>
      </trkpt>
      <trkpt lat="44.42583" lon="5.1086">
        <ele>914.59997558594</ele>
        <time>2013-05-10T10:12:54Z</time>
      </trkpt>
      <trkpt lat="44.42592" lon="5.10874">
        <ele>912.59997558594</ele>
        <time>2013-05-10T10:13:00Z</time>
      </trkpt>
      <trkpt lat="44.42597" lon="5.1088">
        <ele>909.40002441406</ele>
        <time>2013-05-10T10:13:03Z</time>
      </trkpt>
      <trkpt lat="44.42601" lon="5.10889">
        <ele>908.20001220703</ele>
        <time>2013-05-10T10:13:06Z</time>
      </trkpt>
      <trkpt lat="44.42603" lon="5.10894">
        <ele>905.59997558594</ele>
        <time>2013-05-10T10:13:08Z</time>
      </trkpt>
      <trkpt lat="44.4261" lon="5.10901">
        <ele>902.79998779297</ele>
        <time>2013-05-10T10:13:13Z</time>
      </trkpt>
      <trkpt lat="44.42618" lon="5.10914">
        <ele>900.40002441406</ele>
        <time>2013-05-10T10:13:18Z</time>
      </trkpt>
      <trkpt lat="44.4262" lon="5.10917">
        <ele>900.40002441406</ele>
        <time>2013-05-10T10:13:19Z</time>
      </trkpt>
      <trkpt lat="44.4263" lon="5.10926">
        <ele>895.79998779297</ele>
        <time>2013-05-10T10:13:22Z</time>
      </trkpt>
      <trkpt lat="44.42635" lon="5.10929">
        <ele>895.79998779297</ele>
        <time>2013-05-10T10:13:24Z</time>
      </trkpt>
      <trkpt lat="44.42638" lon="5.10931">
        <ele>894.40002441406</ele>
        <time>2013-05-10T10:13:25Z</time>
      </trkpt>
      <trkpt lat="44.42643" lon="5.10936">
        <ele>893</ele>
        <time>2013-05-10T10:13:28Z</time>
      </trkpt>
      <trkpt lat="44.42647" lon="5.10941">
        <ele>891.79998779297</ele>
        <time>2013-05-10T10:13:31Z</time>
      </trkpt>
      <trkpt lat="44.42651" lon="5.10945">
        <ele>889.20001220703</ele>
        <time>2013-05-10T10:13:35Z</time>
      </trkpt>
      <trkpt lat="44.42659" lon="5.10953">
        <ele>879.59997558594</ele>
        <time>2013-05-10T10:13:57Z</time>
      </trkpt>
      <trkpt lat="44.42663" lon="5.10957">
        <ele>877.79998779297</ele>
        <time>2013-05-10T10:14:00Z</time>
      </trkpt>
      <trkpt lat="44.42665" lon="5.1096">
        <ele>876.79998779297</ele>
        <time>2013-05-10T10:14:02Z</time>
      </trkpt>
      <trkpt lat="44.4266" lon="5.10971">
        <ele>874.79998779297</ele>
        <time>2013-05-10T10:14:07Z</time>
      </trkpt>
      <trkpt lat="44.42658" lon="5.10975">
        <ele>873.79998779297</ele>
        <time>2013-05-10T10:14:10Z</time>
      </trkpt>
      <trkpt lat="44.42654" lon="5.10984">
        <ele>870.20001220703</ele>
        <time>2013-05-10T10:14:20Z</time>
      </trkpt>
      <trkpt lat="44.4265" lon="5.10988">
        <ele>869.79998779297</ele>
        <time>2013-05-10T10:14:22Z</time>
      </trkpt>
      <trkpt lat="44.42648" lon="5.10991">
        <ele>869.20001220703</ele>
        <time>2013-05-10T10:14:25Z</time>
      </trkpt>
      <trkpt lat="44.42644" lon="5.11001">
        <ele>866.79998779297</ele>
        <time>2013-05-10T10:14:29Z</time>
      </trkpt>
      <trkpt lat="44.42641" lon="5.11014">
        <ele>863</ele>
        <time>2013-05-10T10:14:36Z</time>
      </trkpt>
      <trkpt lat="44.42642" lon="5.1102">
        <ele>860.20001220703</ele>
        <time>2013-05-10T10:14:43Z</time>
      </trkpt>
      <trkpt lat="44.42642" lon="5.11031">
        <ele>857.40002441406</ele>
        <time>2013-05-10T10:14:49Z</time>
      </trkpt>
      <trkpt lat="44.42643" lon="5.1104">
        <ele>856.40002441406</ele>
        <time>2013-05-10T10:14:51Z</time>
      </trkpt>
      <trkpt lat="44.42644" lon="5.1105">
        <ele>855.79998779297</ele>
        <time>2013-05-10T10:14:54Z</time>
      </trkpt>
      <trkpt lat="44.42652" lon="5.11067">
        <ele>855.20001220703</ele>
        <time>2013-05-10T10:15:01Z</time>
      </trkpt>
      <trkpt lat="44.4266" lon="5.11063">
        <ele>853.20001220703</ele>
        <time>2013-05-10T10:15:04Z</time>
      </trkpt>
      <trkpt lat="44.42669" lon="5.11057">
        <ele>852.59997558594</ele>
        <time>2013-05-10T10:15:07Z</time>
      </trkpt>
      <trkpt lat="44.42675" lon="5.11053">
        <ele>852</ele>
        <time>2013-05-10T10:15:09Z</time>
      </trkpt>
      <trkpt lat="44.4268" lon="5.11048">
        <ele>850.40002441406</ele>
        <time>2013-05-10T10:15:11Z</time>
      </trkpt>
      <trkpt lat="44.42688" lon="5.1104">
        <ele>849.59997558594</ele>
        <time>2013-05-10T10:15:15Z</time>
      </trkpt>
      <trkpt lat="44.42696" lon="5.11031">
        <ele>848</ele>
        <time>2013-05-10T10:15:20Z</time>
      </trkpt>
      <trkpt lat="44.42701" lon="5.11029">
        <ele>847.40002441406</ele>
        <time>2013-05-10T10:15:22Z</time>
      </trkpt>
      <trkpt lat="44.42713" lon="5.11027">
        <ele>846.59997558594</ele>
        <time>2013-05-10T10:15:27Z</time>
      </trkpt>
      <trkpt lat="44.42734" lon="5.11024">
        <ele>843.59997558594</ele>
        <time>2013-05-10T10:15:33Z</time>
      </trkpt>
      <trkpt lat="44.42743" lon="5.11019">
        <ele>841</ele>
        <time>2013-05-10T10:15:38Z</time>
      </trkpt>
      <trkpt lat="44.4275" lon="5.11017">
        <ele>838.59997558594</ele>
        <time>2013-05-10T10:15:43Z</time>
      </trkpt>
      <trkpt lat="44.42759" lon="5.11006">
        <ele>836.40002441406</ele>
        <time>2013-05-10T10:15:48Z</time>
      </trkpt>
      <trkpt lat="44.42763" lon="5.11003">
        <ele>835.79998779297</ele>
        <time>2013-05-10T10:15:50Z</time>
      </trkpt>
      <trkpt lat="44.42766" lon="5.10999">
        <ele>835</ele>
        <time>2013-05-10T10:15:52Z</time>
      </trkpt>
      <trkpt lat="44.42773" lon="5.10994">
        <ele>835.40002441406</ele>
        <time>2013-05-10T10:15:57Z</time>
      </trkpt>
      <trkpt lat="44.42782" lon="5.10989">
        <ele>836.40002441406</ele>
        <time>2013-05-10T10:16:02Z</time>
      </trkpt>
      <trkpt lat="44.42789" lon="5.1098">
        <ele>837.20001220703</ele>
        <time>2013-05-10T10:16:07Z</time>
      </trkpt>
      <trkpt lat="44.42797" lon="5.10973">
        <ele>837.20001220703</ele>
        <time>2013-05-10T10:16:12Z</time>
      </trkpt>
      <trkpt lat="44.42812" lon="5.10959">
        <ele>837.20001220703</ele>
        <time>2013-05-10T10:16:21Z</time>
      </trkpt>
      <trkpt lat="44.42826" lon="5.1095">
        <ele>836.79998779297</ele>
        <time>2013-05-10T10:16:38Z</time>
      </trkpt>
      <trkpt lat="44.42831" lon="5.10948">
        <ele>836.79998779297</ele>
        <time>2013-05-10T10:16:40Z</time>
      </trkpt>
      <trkpt lat="44.42841" lon="5.1094">
        <ele>835.20001220703</ele>
        <time>2013-05-10T10:16:44Z</time>
      </trkpt>
      <trkpt lat="44.4286" lon="5.10941">
        <ele>835.40002441406</ele>
        <time>2013-05-10T10:16:51Z</time>
      </trkpt>
      <trkpt lat="44.42865" lon="5.1094">
        <ele>835</ele>
        <time>2013-05-10T10:16:53Z</time>
      </trkpt>
      <trkpt lat="44.4287" lon="5.1094">
        <ele>834.40002441406</ele>
        <time>2013-05-10T10:16:55Z</time>
      </trkpt>
      <trkpt lat="44.42881" lon="5.10945">
        <ele>832</ele>
        <time>2013-05-10T10:17:00Z</time>
      </trkpt>
      <trkpt lat="44.42894" lon="5.10951">
        <ele>830.59997558594</ele>
        <time>2013-05-10T10:17:07Z</time>
      </trkpt>
      <trkpt lat="44.42901" lon="5.10957">
        <ele>829.40002441406</ele>
        <time>2013-05-10T10:17:12Z</time>
      </trkpt>
      <trkpt lat="44.429" lon="5.10962">
        <ele>827.20001220703</ele>
        <time>2013-05-10T10:17:17Z</time>
      </trkpt>
      <trkpt lat="44.42899" lon="5.10969">
        <ele>827.20001220703</ele>
        <time>2013-05-10T10:17:19Z</time>
      </trkpt>
      <trkpt lat="44.42899" lon="5.10973">
        <ele>826.59997558594</ele>
        <time>2013-05-10T10:17:20Z</time>
      </trkpt>
      <trkpt lat="44.42901" lon="5.10985">
        <ele>825.40002441406</ele>
        <time>2013-05-10T10:17:25Z</time>
      </trkpt>
      <trkpt lat="44.42904" lon="5.10996">
        <ele>824.20001220703</ele>
        <time>2013-05-10T10:17:30Z</time>
      </trkpt>
      <trkpt lat="44.42905" lon="5.11001">
        <ele>823.40002441406</ele>
        <time>2013-05-10T10:17:36Z</time>
      </trkpt>
      <trkpt lat="44.42909" lon="5.11016">
        <ele>822.59997558594</ele>
        <time>2013-05-10T10:17:44Z</time>
      </trkpt>
      <trkpt lat="44.4291" lon="5.11017">
        <ele>822.59997558594</ele>
        <time>2013-05-10T10:17:49Z</time>
      </trkpt>
      <trkpt lat="44.42915" lon="5.11028">
        <ele>822.59997558594</ele>
        <time>2013-05-10T10:17:56Z</time>
      </trkpt>
      <trkpt lat="44.42921" lon="5.11043">
        <ele>822.20001220703</ele>
        <time>2013-05-10T10:18:01Z</time>
      </trkpt>
      <trkpt lat="44.42928" lon="5.11054">
        <ele>820.40002441406</ele>
        <time>2013-05-10T10:18:10Z</time>
      </trkpt>
      <trkpt lat="44.4293" lon="5.11057">
        <ele>820.40002441406</ele>
        <time>2013-05-10T10:18:11Z</time>
      </trkpt>
      <trkpt lat="44.42941" lon="5.11067">
        <ele>820.40002441406</ele>
        <time>2013-05-10T10:18:16Z</time>
      </trkpt>
      <trkpt lat="44.42947" lon="5.11074">
        <ele>819.59997558594</ele>
        <time>2013-05-10T10:18:20Z</time>
      </trkpt>
      <trkpt lat="44.42951" lon="5.11077">
        <ele>818.59997558594</ele>
        <time>2013-05-10T10:18:22Z</time>
      </trkpt>
      <trkpt lat="44.42955" lon="5.11081">
        <ele>818.20001220703</ele>
        <time>2013-05-10T10:18:25Z</time>
      </trkpt>
      <trkpt lat="44.42964" lon="5.1109">
        <ele>817.79998779297</ele>
        <time>2013-05-10T10:18:30Z</time>
      </trkpt>
      <trkpt lat="44.42972" lon="5.11102">
        <ele>816.79998779297</ele>
        <time>2013-05-10T10:18:35Z</time>
      </trkpt>
      <trkpt lat="44.42979" lon="5.11113">
        <ele>816</ele>
        <time>2013-05-10T10:18:38Z</time>
      </trkpt>
      <trkpt lat="44.4298" lon="5.11118">
        <ele>815.20001220703</ele>
        <time>2013-05-10T10:18:39Z</time>
      </trkpt>
      <trkpt lat="44.42984" lon="5.11129">
        <ele>814</ele>
        <time>2013-05-10T10:18:42Z</time>
      </trkpt>
      <trkpt lat="44.42986" lon="5.11133">
        <ele>812.79998779297</ele>
        <time>2013-05-10T10:18:44Z</time>
      </trkpt>
      <trkpt lat="44.42991" lon="5.11151">
        <ele>809.40002441406</ele>
        <time>2013-05-10T10:18:49Z</time>
      </trkpt>
      <trkpt lat="44.43" lon="5.11152">
        <ele>808.20001220703</ele>
        <time>2013-05-10T10:18:52Z</time>
      </trkpt>
      <trkpt lat="44.4301" lon="5.11147">
        <ele>805.79998779297</ele>
        <time>2013-05-10T10:18:56Z</time>
      </trkpt>
      <trkpt lat="44.43012" lon="5.11143">
        <ele>805.79998779297</ele>
        <time>2013-05-10T10:18:57Z</time>
      </trkpt>
      <trkpt lat="44.4302" lon="5.11129">
        <ele>802.40002441406</ele>
        <time>2013-05-10T10:19:01Z</time>
      </trkpt>
      <trkpt lat="44.43023" lon="5.11124">
        <ele>801.40002441406</ele>
        <time>2013-05-10T10:19:03Z</time>
      </trkpt>
      <trkpt lat="44.43028" lon="5.11118">
        <ele>800.40002441406</ele>
        <time>2013-05-10T10:19:05Z</time>
      </trkpt>
      <trkpt lat="44.43036" lon="5.1111">
        <ele>799.40002441406</ele>
        <time>2013-05-10T10:19:08Z</time>
      </trkpt>
      <trkpt lat="44.43042" lon="5.11105">
        <ele>798.59997558594</ele>
        <time>2013-05-10T10:19:10Z</time>
      </trkpt>
      <trkpt lat="44.43052" lon="5.11093">
        <ele>798.59997558594</ele>
        <time>2013-05-10T10:19:13Z</time>
      </trkpt>
      <trkpt lat="44.43056" lon="5.11086">
        <ele>797.59997558594</ele>
        <time>2013-05-10T10:19:15Z</time>
      </trkpt>
      <trkpt lat="44.43059" lon="5.11079">
        <ele>797.59997558594</ele>
        <time>2013-05-10T10:19:17Z</time>
      </trkpt>
      <trkpt lat="44.43062" lon="5.11073">
        <ele>796.20001220703</ele>
        <time>2013-05-10T10:19:20Z</time>
      </trkpt>
      <trkpt lat="44.43065" lon="5.11065">
        <ele>796.20001220703</ele>
        <time>2013-05-10T10:19:22Z</time>
      </trkpt>
      <trkpt lat="44.43075" lon="5.11039">
        <ele>796.20001220703</ele>
        <time>2013-05-10T10:19:28Z</time>
      </trkpt>
      <trkpt lat="44.4308" lon="5.11028">
        <ele>795</ele>
        <time>2013-05-10T10:19:32Z</time>
      </trkpt>
      <trkpt lat="44.43087" lon="5.11017">
        <ele>794.20001220703</ele>
        <time>2013-05-10T10:19:35Z</time>
      </trkpt>
      <trkpt lat="44.43091" lon="5.11009">
        <ele>792.40002441406</ele>
        <time>2013-05-10T10:19:37Z</time>
      </trkpt>
      <trkpt lat="44.43093" lon="5.11">
        <ele>791.59997558594</ele>
        <time>2013-05-10T10:19:40Z</time>
      </trkpt>
      <trkpt lat="44.43106" lon="5.11009">
        <ele>788.40002441406</ele>
        <time>2013-05-10T10:20:02Z</time>
      </trkpt>
      <trkpt lat="44.43114" lon="5.11025">
        <ele>788.40002441406</ele>
        <time>2013-05-10T10:20:08Z</time>
      </trkpt>
      <trkpt lat="44.43116" lon="5.11036">
        <ele>788</ele>
        <time>2013-05-10T10:20:11Z</time>
      </trkpt>
      <trkpt lat="44.43119" lon="5.11043">
        <ele>788</ele>
        <time>2013-05-10T10:20:13Z</time>
      </trkpt>
      <trkpt lat="44.43121" lon="5.11047">
        <ele>787.59997558594</ele>
        <time>2013-05-10T10:20:14Z</time>
      </trkpt>
      <trkpt lat="44.43127" lon="5.11053">
        <ele>787.20001220703</ele>
        <time>2013-05-10T10:20:17Z</time>
      </trkpt>
      <trkpt lat="44.43134" lon="5.11073">
        <ele>786.79998779297</ele>
        <time>2013-05-10T10:20:22Z</time>
      </trkpt>
      <trkpt lat="44.4314" lon="5.11084">
        <ele>786.40002441406</ele>
        <time>2013-05-10T10:20:26Z</time>
      </trkpt>
      <trkpt lat="44.43141" lon="5.11098">
        <ele>786.40002441406</ele>
        <time>2013-05-10T10:20:30Z</time>
      </trkpt>
      <trkpt lat="44.43144" lon="5.11105">
        <ele>786</ele>
        <time>2013-05-10T10:20:32Z</time>
      </trkpt>
      <trkpt lat="44.43146" lon="5.11112">
        <ele>785.40002441406</ele>
        <time>2013-05-10T10:20:35Z</time>
      </trkpt>
      <trkpt lat="44.43147" lon="5.11122">
        <ele>784.40002441406</ele>
        <time>2013-05-10T10:20:39Z</time>
      </trkpt>
      <trkpt lat="44.43148" lon="5.11133">
        <ele>784</ele>
        <time>2013-05-10T10:20:42Z</time>
      </trkpt>
      <trkpt lat="44.4315" lon="5.11142">
        <ele>783.40002441406</ele>
        <time>2013-05-10T10:20:44Z</time>
      </trkpt>
      <trkpt lat="44.43151" lon="5.11149">
        <ele>783</ele>
        <time>2013-05-10T10:20:46Z</time>
      </trkpt>
      <trkpt lat="44.43154" lon="5.11161">
        <ele>782.40002441406</ele>
        <time>2013-05-10T10:20:49Z</time>
      </trkpt>
      <trkpt lat="44.43156" lon="5.11178">
        <ele>781.40002441406</ele>
        <time>2013-05-10T10:20:54Z</time>
      </trkpt>
      <trkpt lat="44.43157" lon="5.11183">
        <ele>781.40002441406</ele>
        <time>2013-05-10T10:20:55Z</time>
      </trkpt>
      <trkpt lat="44.4316" lon="5.11188">
        <ele>781.40002441406</ele>
        <time>2013-05-10T10:20:57Z</time>
      </trkpt>
      <trkpt lat="44.43164" lon="5.11191">
        <ele>781.40002441406</ele>
        <time>2013-05-10T10:20:59Z</time>
      </trkpt>
      <trkpt lat="44.43178" lon="5.112">
        <ele>781.40002441406</ele>
        <time>2013-05-10T10:21:03Z</time>
      </trkpt>
      <trkpt lat="44.43187" lon="5.11201">
        <ele>780.79998779297</ele>
        <time>2013-05-10T10:21:06Z</time>
      </trkpt>
      <trkpt lat="44.43191" lon="5.11201">
        <ele>780.79998779297</ele>
        <time>2013-05-10T10:21:07Z</time>
      </trkpt>
      <trkpt lat="44.43201" lon="5.11206">
        <ele>779.20001220703</ele>
        <time>2013-05-10T10:21:11Z</time>
      </trkpt>
      <trkpt lat="44.43213" lon="5.11203">
        <ele>778.20001220703</ele>
        <time>2013-05-10T10:21:18Z</time>
      </trkpt>
      <trkpt lat="44.43221" lon="5.11203">
        <ele>777.79998779297</ele>
        <time>2013-05-10T10:21:20Z</time>
      </trkpt>
      <trkpt lat="44.43234" lon="5.11197">
        <ele>777.40002441406</ele>
        <time>2013-05-10T10:21:24Z</time>
      </trkpt>
      <trkpt lat="44.43245" lon="5.11195">
        <ele>775.79998779297</ele>
        <time>2013-05-10T10:21:27Z</time>
      </trkpt>
      <trkpt lat="44.43252" lon="5.11195">
        <ele>774.40002441406</ele>
        <time>2013-05-10T10:21:30Z</time>
      </trkpt>
      <trkpt lat="44.4326" lon="5.11196">
        <ele>773.79998779297</ele>
        <time>2013-05-10T10:21:33Z</time>
      </trkpt>
      <trkpt lat="44.43272" lon="5.11189">
        <ele>772.59997558594</ele>
        <time>2013-05-10T10:21:37Z</time>
      </trkpt>
      <trkpt lat="44.43274" lon="5.11191">
        <ele>772.59997558594</ele>
        <time>2013-05-10T10:21:38Z</time>
      </trkpt>
      <trkpt lat="44.43277" lon="5.11202">
        <ele>771</ele>
        <time>2013-05-10T10:21:42Z</time>
      </trkpt>
      <trkpt lat="44.4327" lon="5.11214">
        <ele>769.40002441406</ele>
        <time>2013-05-10T10:21:47Z</time>
      </trkpt>
      <trkpt lat="44.43269" lon="5.11217">
        <ele>768.59997558594</ele>
        <time>2013-05-10T10:21:48Z</time>
      </trkpt>
      <trkpt lat="44.43273" lon="5.11231">
        <ele>764.79998779297</ele>
        <time>2013-05-10T10:22:17Z</time>
      </trkpt>
      <trkpt lat="44.43289" lon="5.11252">
        <ele>764.79998779297</ele>
        <time>2013-05-10T10:22:26Z</time>
      </trkpt>
      <trkpt lat="44.43298" lon="5.1127">
        <ele>764.79998779297</ele>
        <time>2013-05-10T10:22:35Z</time>
      </trkpt>
      <trkpt lat="44.43301" lon="5.11277">
        <ele>764.79998779297</ele>
        <time>2013-05-10T10:22:42Z</time>
      </trkpt>
      <trkpt lat="44.43302" lon="5.11282">
        <ele>765.20001220703</ele>
        <time>2013-05-10T10:22:46Z</time>
      </trkpt>
      <trkpt lat="44.4331" lon="5.11288">
        <ele>767.40002441406</ele>
        <time>2013-05-10T10:23:49Z</time>
      </trkpt>
      <trkpt lat="44.43315" lon="5.1129">
        <ele>768.20001220703</ele>
        <time>2013-05-10T10:23:54Z</time>
      </trkpt>
      <trkpt lat="44.4332" lon="5.11292">
        <ele>769.20001220703</ele>
        <time>2013-05-10T10:23:59Z</time>
      </trkpt>
      <trkpt lat="44.43319" lon="5.11298">
        <ele>769.20001220703</ele>
        <time>2013-05-10T10:24:08Z</time>
      </trkpt>
      <trkpt lat="44.4331" lon="5.11303">
        <ele>769.20001220703</ele>
        <time>2013-05-10T10:24:22Z</time>
      </trkpt>
      <trkpt lat="44.43309" lon="5.11304">
        <ele>770</ele>
        <time>2013-05-10T10:24:23Z</time>
      </trkpt>
      <trkpt lat="44.43299" lon="5.11308">
        <ele>772.40002441406</ele>
        <time>2013-05-10T10:24:42Z</time>
      </trkpt>
      <trkpt lat="44.43295" lon="5.11311">
        <ele>773.40002441406</ele>
        <time>2013-05-10T10:24:47Z</time>
      </trkpt>
      <trkpt lat="44.43286" lon="5.11316">
        <ele>775</ele>
        <time>2013-05-10T10:25:02Z</time>
      </trkpt>
      <trkpt lat="44.4328" lon="5.11328">
        <ele>775.40002441406</ele>
        <time>2013-05-10T10:25:14Z</time>
      </trkpt>
      <trkpt lat="44.43274" lon="5.11332">
        <ele>775.79998779297</ele>
        <time>2013-05-10T10:25:21Z</time>
      </trkpt>
      <trkpt lat="44.43269" lon="5.11334">
        <ele>776.59997558594</ele>
        <time>2013-05-10T10:25:27Z</time>
      </trkpt>
      <trkpt lat="44.43258" lon="5.11346">
        <ele>780.40002441406</ele>
        <time>2013-05-10T10:25:46Z</time>
      </trkpt>
      <trkpt lat="44.43256" lon="5.1135">
        <ele>781.20001220703</ele>
        <time>2013-05-10T10:25:51Z</time>
      </trkpt>
      <trkpt lat="44.4325" lon="5.11358">
        <ele>781.59997558594</ele>
        <time>2013-05-10T10:26:02Z</time>
      </trkpt>
      <trkpt lat="44.43248" lon="5.11361">
        <ele>782.59997558594</ele>
        <time>2013-05-10T10:26:05Z</time>
      </trkpt>
      <trkpt lat="44.43242" lon="5.11371">
        <ele>784</ele>
        <time>2013-05-10T10:26:14Z</time>
      </trkpt>
      <trkpt lat="44.43238" lon="5.11374">
        <ele>784.40002441406</ele>
        <time>2013-05-10T10:26:20Z</time>
      </trkpt>
      <trkpt lat="44.43229" lon="5.11385">
        <ele>786.59997558594</ele>
        <time>2013-05-10T10:26:37Z</time>
      </trkpt>
      <trkpt lat="44.43222" lon="5.11392">
        <ele>788.40002441406</ele>
        <time>2013-05-10T10:26:50Z</time>
      </trkpt>
      <trkpt lat="44.4322" lon="5.11398">
        <ele>790.79998779297</ele>
        <time>2013-05-10T10:26:59Z</time>
      </trkpt>
      <trkpt lat="44.4322" lon="5.11399">
        <ele>791.20001220703</ele>
        <time>2013-05-10T10:27:06Z</time>
      </trkpt>
      <trkpt lat="44.4322" lon="5.11401">
        <ele>791.59997558594</ele>
        <time>2013-05-10T10:27:08Z</time>
      </trkpt>
      <trkpt lat="44.4322" lon="5.11402">
        <ele>792</ele>
        <time>2013-05-10T10:27:10Z</time>
      </trkpt>
      <trkpt lat="44.43214" lon="5.11411">
        <ele>793.20001220703</ele>
        <time>2013-05-10T10:27:20Z</time>
      </trkpt>
      <trkpt lat="44.43209" lon="5.11419">
        <ele>795</ele>
        <time>2013-05-10T10:27:30Z</time>
      </trkpt>
      <trkpt lat="44.43208" lon="5.11423">
        <ele>795</ele>
        <time>2013-05-10T10:27:36Z</time>
      </trkpt>
      <trkpt lat="44.43198" lon="5.11434">
        <ele>795</ele>
        <time>2013-05-10T10:27:48Z</time>
      </trkpt>
      <trkpt lat="44.43191" lon="5.11441">
        <ele>795.40002441406</ele>
        <time>2013-05-10T10:28:08Z</time>
      </trkpt>
      <trkpt lat="44.43189" lon="5.11444">
        <ele>796.79998779297</ele>
        <time>2013-05-10T10:28:13Z</time>
      </trkpt>
      <trkpt lat="44.43185" lon="5.1145">
        <ele>797.20001220703</ele>
        <time>2013-05-10T10:28:19Z</time>
      </trkpt>
      <trkpt lat="44.43184" lon="5.1146">
        <ele>799.59997558594</ele>
        <time>2013-05-10T10:28:30Z</time>
      </trkpt>
      <trkpt lat="44.43196" lon="5.11481">
        <ele>799.59997558594</ele>
        <time>2013-05-10T10:30:53Z</time>
      </trkpt>
      <trkpt lat="44.43201" lon="5.11489">
        <ele>796.20001220703</ele>
        <time>2013-05-10T10:31:09Z</time>
      </trkpt>
      <trkpt lat="44.43201" lon="5.1149">
        <ele>795.79998779297</ele>
        <time>2013-05-10T10:31:12Z</time>
      </trkpt>
      <trkpt lat="44.43206" lon="5.11503">
        <ele>794.79998779297</ele>
        <time>2013-05-10T10:31:17Z</time>
      </trkpt>
      <trkpt lat="44.43216" lon="5.11513">
        <ele>793.40002441406</ele>
        <time>2013-05-10T10:31:21Z</time>
      </trkpt>
      <trkpt lat="44.43224" lon="5.11517">
        <ele>792.40002441406</ele>
        <time>2013-05-10T10:31:23Z</time>
      </trkpt>
      <trkpt lat="44.43233" lon="5.11519">
        <ele>790.20001220703</ele>
        <time>2013-05-10T10:31:26Z</time>
      </trkpt>
      <trkpt lat="44.43237" lon="5.11523">
        <ele>789.20001220703</ele>
        <time>2013-05-10T10:31:28Z</time>
      </trkpt>
      <trkpt lat="44.43246" lon="5.11528">
        <ele>788.20001220703</ele>
        <time>2013-05-10T10:31:31Z</time>
      </trkpt>
      <trkpt lat="44.43256" lon="5.11531">
        <ele>786.79998779297</ele>
        <time>2013-05-10T10:31:33Z</time>
      </trkpt>
      <trkpt lat="44.4327" lon="5.11534">
        <ele>785.59997558594</ele>
        <time>2013-05-10T10:31:36Z</time>
      </trkpt>
      <trkpt lat="44.43274" lon="5.11532">
        <ele>784.20001220703</ele>
        <time>2013-05-10T10:31:38Z</time>
      </trkpt>
      <trkpt lat="44.43283" lon="5.11539">
        <ele>782.79998779297</ele>
        <time>2013-05-10T10:31:41Z</time>
      </trkpt>
      <trkpt lat="44.4328" lon="5.11543">
        <ele>782.79998779297</ele>
        <time>2013-05-10T10:31:42Z</time>
      </trkpt>
      <trkpt lat="44.43279" lon="5.11546">
        <ele>780.20001220703</ele>
        <time>2013-05-10T10:31:43Z</time>
      </trkpt>
      <trkpt lat="44.43275" lon="5.11554">
        <ele>779</ele>
        <time>2013-05-10T10:31:47Z</time>
      </trkpt>
      <trkpt lat="44.4327" lon="5.1156">
        <ele>776.40002441406</ele>
        <time>2013-05-10T10:31:50Z</time>
      </trkpt>
      <trkpt lat="44.43267" lon="5.11562">
        <ele>776.79998779297</ele>
        <time>2013-05-10T10:31:52Z</time>
      </trkpt>
      <trkpt lat="44.43263" lon="5.1157">
        <ele>786.40002441406</ele>
        <time>2013-05-10T10:32:50Z</time>
      </trkpt>
      <trkpt lat="44.43241" lon="5.11616">
        <ele>787.20001220703</ele>
        <time>2013-05-10T10:33:00Z</time>
      </trkpt>
      <trkpt lat="44.43238" lon="5.11639">
        <ele>787.20001220703</ele>
        <time>2013-05-10T10:33:06Z</time>
      </trkpt>
      <trkpt lat="44.43236" lon="5.11658">
        <ele>787.20001220703</ele>
        <time>2013-05-10T10:33:10Z</time>
      </trkpt>
      <trkpt lat="44.43236" lon="5.11662">
        <ele>787.20001220703</ele>
        <time>2013-05-10T10:33:11Z</time>
      </trkpt>
      <trkpt lat="44.43232" lon="5.11684">
        <ele>786.79998779297</ele>
        <time>2013-05-10T10:33:18Z</time>
      </trkpt>
      <trkpt lat="44.43231" lon="5.11692">
        <ele>786.40002441406</ele>
        <time>2013-05-10T10:33:21Z</time>
      </trkpt>
      <trkpt lat="44.43232" lon="5.11706">
        <ele>785.20001220703</ele>
        <time>2013-05-10T10:33:26Z</time>
      </trkpt>
      <trkpt lat="44.43234" lon="5.11713">
        <ele>784.59997558594</ele>
        <time>2013-05-10T10:33:28Z</time>
      </trkpt>
      <trkpt lat="44.43229" lon="5.11715">
        <ele>782.79998779297</ele>
        <time>2013-05-10T10:33:33Z</time>
      </trkpt>
      <trkpt lat="44.4322" lon="5.11705">
        <ele>782.79998779297</ele>
        <time>2013-05-10T10:33:38Z</time>
      </trkpt>
      <trkpt lat="44.43212" lon="5.11697">
        <ele>782.79998779297</ele>
        <time>2013-05-10T10:33:43Z</time>
      </trkpt>
      <trkpt lat="44.432" lon="5.11683">
        <ele>782.79998779297</ele>
        <time>2013-05-10T10:33:48Z</time>
      </trkpt>
      <trkpt lat="44.43193" lon="5.11677">
        <ele>781.79998779297</ele>
        <time>2013-05-10T10:33:50Z</time>
      </trkpt>
      <trkpt lat="44.43183" lon="5.11668">
        <ele>781.40002441406</ele>
        <time>2013-05-10T10:33:53Z</time>
      </trkpt>
      <trkpt lat="44.43177" lon="5.11666">
        <ele>780.40002441406</ele>
        <time>2013-05-10T10:33:55Z</time>
      </trkpt>
      <trkpt lat="44.4316" lon="5.11658">
        <ele>779.79998779297</ele>
        <time>2013-05-10T10:34:00Z</time>
      </trkpt>
      <trkpt lat="44.43142" lon="5.11655">
        <ele>778.59997558594</ele>
        <time>2013-05-10T10:34:05Z</time>
      </trkpt>
      <trkpt lat="44.43139" lon="5.11655">
        <ele>778.59997558594</ele>
        <time>2013-05-10T10:34:06Z</time>
      </trkpt>
      <trkpt lat="44.43125" lon="5.11649">
        <ele>777.59997558594</ele>
        <time>2013-05-10T10:34:10Z</time>
      </trkpt>
      <trkpt lat="44.43106" lon="5.11642">
        <ele>777.20001220703</ele>
        <time>2013-05-10T10:34:17Z</time>
      </trkpt>
      <trkpt lat="44.43094" lon="5.11645">
        <ele>775.40002441406</ele>
        <time>2013-05-10T10:34:20Z</time>
      </trkpt>
      <trkpt lat="44.43087" lon="5.11647">
        <ele>775.40002441406</ele>
        <time>2013-05-10T10:34:22Z</time>
      </trkpt>
      <trkpt lat="44.43074" lon="5.11652">
        <ele>773</ele>
        <time>2013-05-10T10:34:25Z</time>
      </trkpt>
      <trkpt lat="44.43066" lon="5.11656">
        <ele>773</ele>
        <time>2013-05-10T10:34:27Z</time>
      </trkpt>
      <trkpt lat="44.43055" lon="5.11659">
        <ele>770.59997558594</ele>
        <time>2013-05-10T10:34:30Z</time>
      </trkpt>
      <trkpt lat="44.43048" lon="5.11658">
        <ele>764.59997558594</ele>
        <time>2013-05-10T10:34:44Z</time>
      </trkpt>
      <trkpt lat="44.43038" lon="5.11658">
        <ele>762.20001220703</ele>
        <time>2013-05-10T10:34:50Z</time>
      </trkpt>
      <trkpt lat="44.43026" lon="5.11661">
        <ele>759.79998779297</ele>
        <time>2013-05-10T10:35:03Z</time>
      </trkpt>
      <trkpt lat="44.4302" lon="5.11662">
        <ele>759.20001220703</ele>
        <time>2013-05-10T10:35:10Z</time>
      </trkpt>
      <trkpt lat="44.43005" lon="5.11667">
        <ele>755.79998779297</ele>
        <time>2013-05-10T10:35:39Z</time>
      </trkpt>
      <trkpt lat="44.42997" lon="5.11664">
        <ele>753.40002441406</ele>
        <time>2013-05-10T10:35:50Z</time>
      </trkpt>
      <trkpt lat="44.42988" lon="5.11661">
        <ele>752.40002441406</ele>
        <time>2013-05-10T10:35:53Z</time>
      </trkpt>
      <trkpt lat="44.42979" lon="5.11667">
        <ele>751.59997558594</ele>
        <time>2013-05-10T10:35:57Z</time>
      </trkpt>
      <trkpt lat="44.42974" lon="5.11671">
        <ele>749.79998779297</ele>
        <time>2013-05-10T10:36:00Z</time>
      </trkpt>
      <trkpt lat="44.42968" lon="5.11684">
        <ele>746.40002441406</ele>
        <time>2013-05-10T10:36:05Z</time>
      </trkpt>
      <trkpt lat="44.42967" lon="5.1167">
        <ele>742.79998779297</ele>
        <time>2013-05-10T10:36:29Z</time>
      </trkpt>
      <trkpt lat="44.42978" lon="5.11649">
        <ele>742.40002441406</ele>
        <time>2013-05-10T10:36:33Z</time>
      </trkpt>
      <trkpt lat="44.42983" lon="5.11644">
        <ele>741.79998779297</ele>
        <time>2013-05-10T10:36:34Z</time>
      </trkpt>
      <trkpt lat="44.42994" lon="5.11637">
        <ele>741</ele>
        <time>2013-05-10T10:36:36Z</time>
      </trkpt>
      <trkpt lat="44.43" lon="5.1163">
        <ele>740.20001220703</ele>
        <time>2013-05-10T10:36:38Z</time>
      </trkpt>
      <trkpt lat="44.43001" lon="5.11625">
        <ele>739.40002441406</ele>
        <time>2013-05-10T10:36:39Z</time>
      </trkpt>
      <trkpt lat="44.42995" lon="5.11621">
        <ele>739.40002441406</ele>
        <time>2013-05-10T10:36:40Z</time>
      </trkpt>
      <trkpt lat="44.42992" lon="5.11618">
        <ele>738.40002441406</ele>
        <time>2013-05-10T10:36:41Z</time>
      </trkpt>
      <trkpt lat="44.42986" lon="5.1162">
        <ele>738.40002441406</ele>
        <time>2013-05-10T10:36:42Z</time>
      </trkpt>
      <trkpt lat="44.4298" lon="5.11622">
        <ele>737.20001220703</ele>
        <time>2013-05-10T10:36:43Z</time>
      </trkpt>
      <trkpt lat="44.42969" lon="5.11629">
        <ele>737.20001220703</ele>
        <time>2013-05-10T10:36:45Z</time>
      </trkpt>
      <trkpt lat="44.42963" lon="5.11634">
        <ele>736</ele>
        <time>2013-05-10T10:36:46Z</time>
      </trkpt>
      <trkpt lat="44.42958" lon="5.11642">
        <ele>736</ele>
        <time>2013-05-10T10:36:47Z</time>
      </trkpt>
      <trkpt lat="44.42953" lon="5.11651">
        <ele>734.59997558594</ele>
        <time>2013-05-10T10:36:48Z</time>
      </trkpt>
      <trkpt lat="44.42948" lon="5.11662">
        <ele>734.59997558594</ele>
        <time>2013-05-10T10:36:49Z</time>
      </trkpt>
      <trkpt lat="44.42942" lon="5.11673">
        <ele>734.59997558594</ele>
        <time>2013-05-10T10:36:50Z</time>
      </trkpt>
      <trkpt lat="44.42935" lon="5.11683">
        <ele>733</ele>
        <time>2013-05-10T10:36:51Z</time>
      </trkpt>
      <trkpt lat="44.42923" lon="5.11706">
        <ele>731.20001220703</ele>
        <time>2013-05-10T10:36:53Z</time>
      </trkpt>
      <trkpt lat="44.42916" lon="5.11715">
        <ele>731.20001220703</ele>
        <time>2013-05-10T10:36:54Z</time>
      </trkpt>
      <trkpt lat="44.42908" lon="5.11722">
        <ele>729.40002441406</ele>
        <time>2013-05-10T10:36:55Z</time>
      </trkpt>
      <trkpt lat="44.42899" lon="5.11725">
        <ele>727.79998779297</ele>
        <time>2013-05-10T10:36:56Z</time>
      </trkpt>
      <trkpt lat="44.42884" lon="5.11733">
        <ele>726</ele>
        <time>2013-05-10T10:36:58Z</time>
      </trkpt>
      <trkpt lat="44.42872" lon="5.11748">
        <ele>724.40002441406</ele>
        <time>2013-05-10T10:37:00Z</time>
      </trkpt>
      <trkpt lat="44.42867" lon="5.11757">
        <ele>724.40002441406</ele>
        <time>2013-05-10T10:37:01Z</time>
      </trkpt>
      <trkpt lat="44.42854" lon="5.11774">
        <ele>722.79998779297</ele>
        <time>2013-05-10T10:37:03Z</time>
      </trkpt>
      <trkpt lat="44.42841" lon="5.11788">
        <ele>720.79998779297</ele>
        <time>2013-05-10T10:37:05Z</time>
      </trkpt>
      <trkpt lat="44.42836" lon="5.11792">
        <ele>720.79998779297</ele>
        <time>2013-05-10T10:37:06Z</time>
      </trkpt>
      <trkpt lat="44.42829" lon="5.11788">
        <ele>718.59997558594</ele>
        <time>2013-05-10T10:37:08Z</time>
      </trkpt>
      <trkpt lat="44.4283" lon="5.11776">
        <ele>716.20001220703</ele>
        <time>2013-05-10T10:37:10Z</time>
      </trkpt>
      <trkpt lat="44.4284" lon="5.11769">
        <ele>712.40002441406</ele>
        <time>2013-05-10T10:37:12Z</time>
      </trkpt>
      <trkpt lat="44.42855" lon="5.11753">
        <ele>710.79998779297</ele>
        <time>2013-05-10T10:37:15Z</time>
      </trkpt>
      <trkpt lat="44.42859" lon="5.11744">
        <ele>710.79998779297</ele>
        <time>2013-05-10T10:37:16Z</time>
      </trkpt>
      <trkpt lat="44.42862" lon="5.11736">
        <ele>709.20001220703</ele>
        <time>2013-05-10T10:37:17Z</time>
      </trkpt>
      <trkpt lat="44.42865" lon="5.11719">
        <ele>707.59997558594</ele>
        <time>2013-05-10T10:37:19Z</time>
      </trkpt>
      <trkpt lat="44.42868" lon="5.11701">
        <ele>706.59997558594</ele>
        <time>2013-05-10T10:37:21Z</time>
      </trkpt>
      <trkpt lat="44.4287" lon="5.11693">
        <ele>705.40002441406</ele>
        <time>2013-05-10T10:37:22Z</time>
      </trkpt>
      <trkpt lat="44.42879" lon="5.11676">
        <ele>703.59997558594</ele>
        <time>2013-05-10T10:37:24Z</time>
      </trkpt>
      <trkpt lat="44.42897" lon="5.11651">
        <ele>702.59997558594</ele>
        <time>2013-05-10T10:37:27Z</time>
      </trkpt>
      <trkpt lat="44.42903" lon="5.1164">
        <ele>702.59997558594</ele>
        <time>2013-05-10T10:37:28Z</time>
      </trkpt>
      <trkpt lat="44.42908" lon="5.1163">
        <ele>701.59997558594</ele>
        <time>2013-05-10T10:37:29Z</time>
      </trkpt>
      <trkpt lat="44.42916" lon="5.11608">
        <ele>700.59997558594</ele>
        <time>2013-05-10T10:37:31Z</time>
      </trkpt>
      <trkpt lat="44.42921" lon="5.11598">
        <ele>699.20001220703</ele>
        <time>2013-05-10T10:37:32Z</time>
      </trkpt>
      <trkpt lat="44.42926" lon="5.11586">
        <ele>699.20001220703</ele>
        <time>2013-05-10T10:37:33Z</time>
      </trkpt>
      <trkpt lat="44.4293" lon="5.11574">
        <ele>699.20001220703</ele>
        <time>2013-05-10T10:37:34Z</time>
      </trkpt>
      <trkpt lat="44.42936" lon="5.1155">
        <ele>699.20001220703</ele>
        <time>2013-05-10T10:37:36Z</time>
      </trkpt>
      <trkpt lat="44.42941" lon="5.11541">
        <ele>697.40002441406</ele>
        <time>2013-05-10T10:37:37Z</time>
      </trkpt>
      <trkpt lat="44.42948" lon="5.11535">
        <ele>695.40002441406</ele>
        <time>2013-05-10T10:37:38Z</time>
      </trkpt>
      <trkpt lat="44.42956" lon="5.11532">
        <ele>693.20001220703</ele>
        <time>2013-05-10T10:37:39Z</time>
      </trkpt>
      <trkpt lat="44.42973" lon="5.11529">
        <ele>693.20001220703</ele>
        <time>2013-05-10T10:37:41Z</time>
      </trkpt>
      <trkpt lat="44.42973" lon="5.11513">
        <ele>691</ele>
        <time>2013-05-10T10:37:44Z</time>
      </trkpt>
      <trkpt lat="44.42968" lon="5.1151">
        <ele>689</ele>
        <time>2013-05-10T10:37:45Z</time>
      </trkpt>
      <trkpt lat="44.42953" lon="5.11506">
        <ele>687</ele>
        <time>2013-05-10T10:37:47Z</time>
      </trkpt>
      <trkpt lat="44.42945" lon="5.11503">
        <ele>687</ele>
        <time>2013-05-10T10:37:48Z</time>
      </trkpt>
      <trkpt lat="44.42937" lon="5.115">
        <ele>685</ele>
        <time>2013-05-10T10:37:49Z</time>
      </trkpt>
      <trkpt lat="44.42916" lon="5.11496">
        <ele>682.79998779297</ele>
        <time>2013-05-10T10:37:52Z</time>
      </trkpt>
      <trkpt lat="44.42909" lon="5.11503">
        <ele>682.79998779297</ele>
        <time>2013-05-10T10:37:53Z</time>
      </trkpt>
      <trkpt lat="44.42903" lon="5.11514">
        <ele>680.40002441406</ele>
        <time>2013-05-10T10:37:54Z</time>
      </trkpt>
      <trkpt lat="44.42889" lon="5.11535">
        <ele>677.79998779297</ele>
        <time>2013-05-10T10:37:56Z</time>
      </trkpt>
      <trkpt lat="44.42881" lon="5.11546">
        <ele>675.20001220703</ele>
        <time>2013-05-10T10:37:57Z</time>
      </trkpt>
      <trkpt lat="44.42872" lon="5.11556">
        <ele>675.20001220703</ele>
        <time>2013-05-10T10:37:58Z</time>
      </trkpt>
      <trkpt lat="44.42862" lon="5.11562">
        <ele>673</ele>
        <time>2013-05-10T10:37:59Z</time>
      </trkpt>
      <trkpt lat="44.42839" lon="5.11569">
        <ele>668.40002441406</ele>
        <time>2013-05-10T10:38:01Z</time>
      </trkpt>
      <trkpt lat="44.42828" lon="5.11574">
        <ele>668.40002441406</ele>
        <time>2013-05-10T10:38:02Z</time>
      </trkpt>
      <trkpt lat="44.42808" lon="5.11584">
        <ele>665.79998779297</ele>
        <time>2013-05-10T10:38:04Z</time>
      </trkpt>
      <trkpt lat="44.42795" lon="5.11597">
        <ele>663</ele>
        <time>2013-05-10T10:38:06Z</time>
      </trkpt>
      <trkpt lat="44.42791" lon="5.11622">
        <ele>663</ele>
        <time>2013-05-10T10:38:08Z</time>
      </trkpt>
      <trkpt lat="44.42789" lon="5.11635">
        <ele>660</ele>
        <time>2013-05-10T10:38:09Z</time>
      </trkpt>
      <trkpt lat="44.42786" lon="5.1165">
        <ele>660</ele>
        <time>2013-05-10T10:38:10Z</time>
      </trkpt>
      <trkpt lat="44.42782" lon="5.11663">
        <ele>657.20001220703</ele>
        <time>2013-05-10T10:38:11Z</time>
      </trkpt>
      <trkpt lat="44.42776" lon="5.11678">
        <ele>657.20001220703</ele>
        <time>2013-05-10T10:38:12Z</time>
      </trkpt>
      <trkpt lat="44.42767" lon="5.11689">
        <ele>654.59997558594</ele>
        <time>2013-05-10T10:38:13Z</time>
      </trkpt>
      <trkpt lat="44.42759" lon="5.11703">
        <ele>651.79998779297</ele>
        <time>2013-05-10T10:38:14Z</time>
      </trkpt>
      <trkpt lat="44.42746" lon="5.11731">
        <ele>649.20001220703</ele>
        <time>2013-05-10T10:38:16Z</time>
      </trkpt>
      <trkpt lat="44.42739" lon="5.11741">
        <ele>649.20001220703</ele>
        <time>2013-05-10T10:38:17Z</time>
      </trkpt>
      <trkpt lat="44.42719" lon="5.11766">
        <ele>644</ele>
        <time>2013-05-10T10:38:20Z</time>
      </trkpt>
      <trkpt lat="44.42711" lon="5.11775">
        <ele>641.40002441406</ele>
        <time>2013-05-10T10:38:21Z</time>
      </trkpt>
      <trkpt lat="44.42704" lon="5.11786">
        <ele>641.40002441406</ele>
        <time>2013-05-10T10:38:22Z</time>
      </trkpt>
      <trkpt lat="44.42696" lon="5.11795">
        <ele>639.20001220703</ele>
        <time>2013-05-10T10:38:23Z</time>
      </trkpt>
      <trkpt lat="44.42678" lon="5.11806">
        <ele>637</ele>
        <time>2013-05-10T10:38:25Z</time>
      </trkpt>
      <trkpt lat="44.42669" lon="5.11806">
        <ele>635</ele>
        <time>2013-05-10T10:38:26Z</time>
      </trkpt>
      <trkpt lat="44.42653" lon="5.11805">
        <ele>633</ele>
        <time>2013-05-10T10:38:28Z</time>
      </trkpt>
      <trkpt lat="44.42641" lon="5.11816">
        <ele>631.20001220703</ele>
        <time>2013-05-10T10:38:30Z</time>
      </trkpt>
      <trkpt lat="44.42635" lon="5.11822">
        <ele>631.20001220703</ele>
        <time>2013-05-10T10:38:31Z</time>
      </trkpt>
      <trkpt lat="44.42628" lon="5.11828">
        <ele>629.40002441406</ele>
        <time>2013-05-10T10:38:32Z</time>
      </trkpt>
      <trkpt lat="44.42621" lon="5.11836">
        <ele>627.79998779297</ele>
        <time>2013-05-10T10:38:33Z</time>
      </trkpt>
      <trkpt lat="44.42614" lon="5.11845">
        <ele>627.79998779297</ele>
        <time>2013-05-10T10:38:34Z</time>
      </trkpt>
      <trkpt lat="44.42607" lon="5.11856">
        <ele>626</ele>
        <time>2013-05-10T10:38:35Z</time>
      </trkpt>
      <trkpt lat="44.42596" lon="5.1188">
        <ele>624.59997558594</ele>
        <time>2013-05-10T10:38:37Z</time>
      </trkpt>
      <trkpt lat="44.42593" lon="5.11891">
        <ele>624.59997558594</ele>
        <time>2013-05-10T10:38:38Z</time>
      </trkpt>
      <trkpt lat="44.42587" lon="5.11904">
        <ele>623</ele>
        <time>2013-05-10T10:38:40Z</time>
      </trkpt>
      <trkpt lat="44.42582" lon="5.11913">
        <ele>621.59997558594</ele>
        <time>2013-05-10T10:38:42Z</time>
      </trkpt>
      <trkpt lat="44.42574" lon="5.11919">
        <ele>620.40002441406</ele>
        <time>2013-05-10T10:38:44Z</time>
      </trkpt>
      <trkpt lat="44.42571" lon="5.1192">
        <ele>619</ele>
        <time>2013-05-10T10:38:45Z</time>
      </trkpt>
      <trkpt lat="44.42569" lon="5.11921">
        <ele>619</ele>
        <time>2013-05-10T10:38:46Z</time>
      </trkpt>
      <trkpt lat="44.42557" lon="5.11927">
        <ele>616.40002441406</ele>
        <time>2013-05-10T10:38:51Z</time>
      </trkpt>
      <trkpt lat="44.42553" lon="5.11932">
        <ele>617.40002441406</ele>
        <time>2013-05-10T10:38:54Z</time>
      </trkpt>
      <trkpt lat="44.42561" lon="5.11938">
        <ele>618.79998779297</ele>
        <time>2013-05-10T10:45:05Z</time>
      </trkpt>
      <trkpt lat="44.42559" lon="5.11942">
        <ele>618.79998779297</ele>
        <time>2013-05-10T10:48:15Z</time>
      </trkpt>
      <trkpt lat="44.42561" lon="5.11943">
        <ele>618.79998779297</ele>
        <time>2013-05-10T10:48:16Z</time>
      </trkpt>
      <trkpt lat="44.42561" lon="5.11953">
        <ele>618.79998779297</ele>
        <time>2013-05-10T10:48:24Z</time>
      </trkpt>
      <trkpt lat="44.42559" lon="5.11959">
        <ele>619.79998779297</ele>
        <time>2013-05-10T10:48:28Z</time>
      </trkpt>
      <trkpt lat="44.42556" lon="5.11963">
        <ele>621</ele>
        <time>2013-05-10T10:48:31Z</time>
      </trkpt>
      <trkpt lat="44.4255" lon="5.11971">
        <ele>622.20001220703</ele>
        <time>2013-05-10T10:48:37Z</time>
      </trkpt>
      <trkpt lat="44.42538" lon="5.11976">
        <ele>625</ele>
        <time>2013-05-10T10:48:48Z</time>
      </trkpt>
      <trkpt lat="44.42529" lon="5.11979">
        <ele>627.20001220703</ele>
        <time>2013-05-10T10:48:57Z</time>
      </trkpt>
      <trkpt lat="44.42527" lon="5.11981">
        <ele>627.59997558594</ele>
        <time>2013-05-10T10:48:59Z</time>
      </trkpt>
      <trkpt lat="44.42519" lon="5.11987">
        <ele>629.79998779297</ele>
        <time>2013-05-10T10:49:09Z</time>
      </trkpt>
      <trkpt lat="44.42513" lon="5.11992">
        <ele>630.59997558594</ele>
        <time>2013-05-10T10:49:14Z</time>
      </trkpt>
      <trkpt lat="44.42509" lon="5.11997">
        <ele>631.59997558594</ele>
        <time>2013-05-10T10:49:19Z</time>
      </trkpt>
      <trkpt lat="44.42503" lon="5.12007">
        <ele>632.59997558594</ele>
        <time>2013-05-10T10:49:28Z</time>
      </trkpt>
      <trkpt lat="44.42501" lon="5.12012">
        <ele>634</ele>
        <time>2013-05-10T10:49:33Z</time>
      </trkpt>
      <trkpt lat="44.425" lon="5.12014">
        <ele>634.59997558594</ele>
        <time>2013-05-10T10:49:35Z</time>
      </trkpt>
      <trkpt lat="44.42494" lon="5.12023">
        <ele>635.59997558594</ele>
        <time>2013-05-10T10:49:42Z</time>
      </trkpt>
      <trkpt lat="44.4249" lon="5.12029">
        <ele>636.79998779297</ele>
        <time>2013-05-10T10:49:47Z</time>
      </trkpt>
      <trkpt lat="44.42488" lon="5.12031">
        <ele>636.79998779297</ele>
        <time>2013-05-10T10:49:49Z</time>
      </trkpt>
      <trkpt lat="44.42479" lon="5.12039">
        <ele>638.40002441406</ele>
        <time>2013-05-10T10:49:59Z</time>
      </trkpt>
      <trkpt lat="44.42476" lon="5.12041">
        <ele>638.79998779297</ele>
        <time>2013-05-10T10:50:02Z</time>
      </trkpt>
      <trkpt lat="44.42467" lon="5.12045">
        <ele>639.40002441406</ele>
        <time>2013-05-10T10:50:11Z</time>
      </trkpt>
      <trkpt lat="44.42461" lon="5.12051">
        <ele>640.59997558594</ele>
        <time>2013-05-10T10:50:18Z</time>
      </trkpt>
      <trkpt lat="44.42457" lon="5.12055">
        <ele>641.59997558594</ele>
        <time>2013-05-10T10:50:21Z</time>
      </trkpt>
      <trkpt lat="44.42452" lon="5.1206">
        <ele>643</ele>
        <time>2013-05-10T10:50:28Z</time>
      </trkpt>
      <trkpt lat="44.42449" lon="5.12063">
        <ele>643</ele>
        <time>2013-05-10T10:50:32Z</time>
      </trkpt>
      <trkpt lat="44.42439" lon="5.12073">
        <ele>645.20001220703</ele>
        <time>2013-05-10T10:50:43Z</time>
      </trkpt>
      <trkpt lat="44.42434" lon="5.12083">
        <ele>646.79998779297</ele>
        <time>2013-05-10T10:50:51Z</time>
      </trkpt>
      <trkpt lat="44.4243" lon="5.1209">
        <ele>648</ele>
        <time>2013-05-10T10:50:57Z</time>
      </trkpt>
      <trkpt lat="44.42422" lon="5.12101">
        <ele>648.79998779297</ele>
        <time>2013-05-10T10:51:06Z</time>
      </trkpt>
      <trkpt lat="44.42418" lon="5.12108">
        <ele>649.59997558594</ele>
        <time>2013-05-10T10:51:10Z</time>
      </trkpt>
      <trkpt lat="44.42416" lon="5.12111">
        <ele>650</ele>
        <time>2013-05-10T10:51:12Z</time>
      </trkpt>
      <trkpt lat="44.42412" lon="5.12127">
        <ele>651.79998779297</ele>
        <time>2013-05-10T10:51:22Z</time>
      </trkpt>
      <trkpt lat="44.42411" lon="5.12135">
        <ele>652.59997558594</ele>
        <time>2013-05-10T10:51:27Z</time>
      </trkpt>
      <trkpt lat="44.4241" lon="5.12138">
        <ele>653</ele>
        <time>2013-05-10T10:51:29Z</time>
      </trkpt>
      <trkpt lat="44.42408" lon="5.12142">
        <ele>653.40002441406</ele>
        <time>2013-05-10T10:51:32Z</time>
      </trkpt>
      <trkpt lat="44.42403" lon="5.12151">
        <ele>654</ele>
        <time>2013-05-10T10:51:41Z</time>
      </trkpt>
      <trkpt lat="44.42402" lon="5.1216">
        <ele>655</ele>
        <time>2013-05-10T10:51:46Z</time>
      </trkpt>
      <trkpt lat="44.42399" lon="5.12175">
        <ele>656.79998779297</ele>
        <time>2013-05-10T10:51:55Z</time>
      </trkpt>
      <trkpt lat="44.42399" lon="5.12181">
        <ele>657.40002441406</ele>
        <time>2013-05-10T10:51:59Z</time>
      </trkpt>
      <trkpt lat="44.42391" lon="5.12195">
        <ele>659</ele>
        <time>2013-05-10T10:52:09Z</time>
      </trkpt>
      <trkpt lat="44.4239" lon="5.12196">
        <ele>659.59997558594</ele>
        <time>2013-05-10T10:52:11Z</time>
      </trkpt>
      <trkpt lat="44.42392" lon="5.12201">
        <ele>660.59997558594</ele>
        <time>2013-05-10T10:52:14Z</time>
      </trkpt>
      <trkpt lat="44.42405" lon="5.12192">
        <ele>661.59997558594</ele>
        <time>2013-05-10T10:52:23Z</time>
      </trkpt>
      <trkpt lat="44.42406" lon="5.12189">
        <ele>661.59997558594</ele>
        <time>2013-05-10T10:52:24Z</time>
      </trkpt>
      <trkpt lat="44.4241" lon="5.12176">
        <ele>663.20001220703</ele>
        <time>2013-05-10T10:52:30Z</time>
      </trkpt>
      <trkpt lat="44.42414" lon="5.12169">
        <ele>664.20001220703</ele>
        <time>2013-05-10T10:52:33Z</time>
      </trkpt>
      <trkpt lat="44.42419" lon="5.12156">
        <ele>665.59997558594</ele>
        <time>2013-05-10T10:52:38Z</time>
      </trkpt>
      <trkpt lat="44.42422" lon="5.12145">
        <ele>665.59997558594</ele>
        <time>2013-05-10T10:52:41Z</time>
      </trkpt>
      <trkpt lat="44.42432" lon="5.12124">
        <ele>665.59997558594</ele>
        <time>2013-05-10T10:52:48Z</time>
      </trkpt>
      <trkpt lat="44.42438" lon="5.1214">
        <ele>666</ele>
        <time>2013-05-10T10:52:57Z</time>
      </trkpt>
      <trkpt lat="44.42432" lon="5.12153">
        <ele>667.40002441406</ele>
        <time>2013-05-10T10:53:02Z</time>
      </trkpt>
      <trkpt lat="44.4243" lon="5.12158">
        <ele>667.40002441406</ele>
        <time>2013-05-10T10:53:04Z</time>
      </trkpt>
      <trkpt lat="44.42427" lon="5.12165">
        <ele>668</ele>
        <time>2013-05-10T10:53:07Z</time>
      </trkpt>
      <trkpt lat="44.42426" lon="5.1218">
        <ele>668.79998779297</ele>
        <time>2013-05-10T10:53:12Z</time>
      </trkpt>
      <trkpt lat="44.42422" lon="5.12196">
        <ele>669.20001220703</ele>
        <time>2013-05-10T10:53:18Z</time>
      </trkpt>
      <trkpt lat="44.4242" lon="5.122">
        <ele>669.59997558594</ele>
        <time>2013-05-10T10:53:20Z</time>
      </trkpt>
      <trkpt lat="44.42418" lon="5.12207">
        <ele>670</ele>
        <time>2013-05-10T10:53:23Z</time>
      </trkpt>
      <trkpt lat="44.42414" lon="5.12222">
        <ele>670</ele>
        <time>2013-05-10T10:53:28Z</time>
      </trkpt>
      <trkpt lat="44.42413" lon="5.12232">
        <ele>670.59997558594</ele>
        <time>2013-05-10T10:53:31Z</time>
      </trkpt>
      <trkpt lat="44.42411" lon="5.1224">
        <ele>671.20001220703</ele>
        <time>2013-05-10T10:53:34Z</time>
      </trkpt>
      <trkpt lat="44.4241" lon="5.12245">
        <ele>671.59997558594</ele>
        <time>2013-05-10T10:53:36Z</time>
      </trkpt>
      <trkpt lat="44.42404" lon="5.12258">
        <ele>672.40002441406</ele>
        <time>2013-05-10T10:53:42Z</time>
      </trkpt>
      <trkpt lat="44.424" lon="5.12262">
        <ele>673</ele>
        <time>2013-05-10T10:53:44Z</time>
      </trkpt>
      <trkpt lat="44.42388" lon="5.12263">
        <ele>675.59997558594</ele>
        <time>2013-05-10T10:53:54Z</time>
      </trkpt>
      <trkpt lat="44.42376" lon="5.1226">
        <ele>677.40002441406</ele>
        <time>2013-05-10T10:54:01Z</time>
      </trkpt>
      <trkpt lat="44.42373" lon="5.12259">
        <ele>678</ele>
        <time>2013-05-10T10:54:03Z</time>
      </trkpt>
      <trkpt lat="44.4237" lon="5.12258">
        <ele>678.40002441406</ele>
        <time>2013-05-10T10:54:05Z</time>
      </trkpt>
      <trkpt lat="44.42359" lon="5.12263">
        <ele>680.20001220703</ele>
        <time>2013-05-10T10:54:13Z</time>
      </trkpt>
      <trkpt lat="44.42356" lon="5.12272">
        <ele>681.20001220703</ele>
        <time>2013-05-10T10:54:20Z</time>
      </trkpt>
      <trkpt lat="44.42355" lon="5.12283">
        <ele>681.20001220703</ele>
        <time>2013-05-10T10:54:27Z</time>
      </trkpt>
      <trkpt lat="44.42351" lon="5.12298">
        <ele>681.79998779297</ele>
        <time>2013-05-10T10:54:35Z</time>
      </trkpt>
      <trkpt lat="44.4235" lon="5.12302">
        <ele>682.20001220703</ele>
        <time>2013-05-10T10:54:38Z</time>
      </trkpt>
      <trkpt lat="44.42344" lon="5.12315">
        <ele>683.59997558594</ele>
        <time>2013-05-10T10:54:46Z</time>
      </trkpt>
      <trkpt lat="44.42342" lon="5.12321">
        <ele>684.20001220703</ele>
        <time>2013-05-10T10:54:50Z</time>
      </trkpt>
      <trkpt lat="44.42339" lon="5.12323">
        <ele>684.59997558594</ele>
        <time>2013-05-10T10:54:52Z</time>
      </trkpt>
      <trkpt lat="44.42326" lon="5.12309">
        <ele>685.79998779297</ele>
        <time>2013-05-10T10:55:07Z</time>
      </trkpt>
      <trkpt lat="44.42319" lon="5.1229">
        <ele>685.79998779297</ele>
        <time>2013-05-10T10:55:18Z</time>
      </trkpt>
      <trkpt lat="44.42311" lon="5.1229">
        <ele>688.20001220703</ele>
        <time>2013-05-10T10:55:30Z</time>
      </trkpt>
      <trkpt lat="44.42319" lon="5.1231">
        <ele>690</ele>
        <time>2013-05-10T10:55:42Z</time>
      </trkpt>
      <trkpt lat="44.4232" lon="5.1232">
        <ele>692.20001220703</ele>
        <time>2013-05-10T10:55:47Z</time>
      </trkpt>
      <trkpt lat="44.4232" lon="5.12324">
        <ele>693</ele>
        <time>2013-05-10T10:55:49Z</time>
      </trkpt>
      <trkpt lat="44.42321" lon="5.1233">
        <ele>693.79998779297</ele>
        <time>2013-05-10T10:55:52Z</time>
      </trkpt>
      <trkpt lat="44.42324" lon="5.12343">
        <ele>693.79998779297</ele>
        <time>2013-05-10T10:55:59Z</time>
      </trkpt>
      <trkpt lat="44.42325" lon="5.1235">
        <ele>694.20001220703</ele>
        <time>2013-05-10T10:56:03Z</time>
      </trkpt>
      <trkpt lat="44.42328" lon="5.12363">
        <ele>696.20001220703</ele>
        <time>2013-05-10T10:56:11Z</time>
      </trkpt>
      <trkpt lat="44.42329" lon="5.1237">
        <ele>696.79998779297</ele>
        <time>2013-05-10T10:56:15Z</time>
      </trkpt>
      <trkpt lat="44.42334" lon="5.1239">
        <ele>698.79998779297</ele>
        <time>2013-05-10T10:56:26Z</time>
      </trkpt>
      <trkpt lat="44.42335" lon="5.12392">
        <ele>698.79998779297</ele>
        <time>2013-05-10T10:56:27Z</time>
      </trkpt>
      <trkpt lat="44.42341" lon="5.12401">
        <ele>701</ele>
        <time>2013-05-10T10:56:34Z</time>
      </trkpt>
      <trkpt lat="44.42361" lon="5.12402">
        <ele>703.20001220703</ele>
        <time>2013-05-10T10:56:51Z</time>
      </trkpt>
      <trkpt lat="44.42363" lon="5.124">
        <ele>703.59997558594</ele>
        <time>2013-05-10T10:56:54Z</time>
      </trkpt>
      <trkpt lat="44.42372" lon="5.124">
        <ele>705</ele>
        <time>2013-05-10T10:57:01Z</time>
      </trkpt>
      <trkpt lat="44.42374" lon="5.12401">
        <ele>706</ele>
        <time>2013-05-10T10:57:03Z</time>
      </trkpt>
      <trkpt lat="44.42377" lon="5.124">
        <ele>706.59997558594</ele>
        <time>2013-05-10T10:57:06Z</time>
      </trkpt>
      <trkpt lat="44.4238" lon="5.12398">
        <ele>707.59997558594</ele>
        <time>2013-05-10T10:57:10Z</time>
      </trkpt>
      <trkpt lat="44.4239" lon="5.12394">
        <ele>709.79998779297</ele>
        <time>2013-05-10T10:57:20Z</time>
      </trkpt>
      <trkpt lat="44.42399" lon="5.1239">
        <ele>712.40002441406</ele>
        <time>2013-05-10T10:57:27Z</time>
      </trkpt>
      <trkpt lat="44.42402" lon="5.12391">
        <ele>712.79998779297</ele>
        <time>2013-05-10T10:57:30Z</time>
      </trkpt>
      <trkpt lat="44.42408" lon="5.12402">
        <ele>714.59997558594</ele>
        <time>2013-05-10T10:57:39Z</time>
      </trkpt>
      <trkpt lat="44.4241" lon="5.12406">
        <ele>715</ele>
        <time>2013-05-10T10:57:42Z</time>
      </trkpt>
      <trkpt lat="44.42414" lon="5.12412">
        <ele>716.59997558594</ele>
        <time>2013-05-10T10:57:47Z</time>
      </trkpt>
      <trkpt lat="44.4242" lon="5.12418">
        <ele>717</ele>
        <time>2013-05-10T10:57:54Z</time>
      </trkpt>
      <trkpt lat="44.42424" lon="5.12421">
        <ele>718.40002441406</ele>
        <time>2013-05-10T10:57:59Z</time>
      </trkpt>
      <trkpt lat="44.42431" lon="5.12426">
        <ele>718.79998779297</ele>
        <time>2013-05-10T10:58:07Z</time>
      </trkpt>
      <trkpt lat="44.42432" lon="5.1243">
        <ele>720.20001220703</ele>
        <time>2013-05-10T10:58:11Z</time>
      </trkpt>
      <trkpt lat="44.42431" lon="5.1244">
        <ele>721</ele>
        <time>2013-05-10T10:58:17Z</time>
      </trkpt>
      <trkpt lat="44.42429" lon="5.12441">
        <ele>721</ele>
        <time>2013-05-10T10:58:19Z</time>
      </trkpt>
      <trkpt lat="44.42411" lon="5.12443">
        <ele>721</ele>
        <time>2013-05-10T10:58:34Z</time>
      </trkpt>
      <trkpt lat="44.42406" lon="5.12441">
        <ele>721</ele>
        <time>2013-05-10T10:58:40Z</time>
      </trkpt>
      <trkpt lat="44.42399" lon="5.1244">
        <ele>722.79998779297</ele>
        <time>2013-05-10T10:58:46Z</time>
      </trkpt>
      <trkpt lat="44.42388" lon="5.12438">
        <ele>724.40002441406</ele>
        <time>2013-05-10T10:58:55Z</time>
      </trkpt>
      <trkpt lat="44.42384" lon="5.12441">
        <ele>724.40002441406</ele>
        <time>2013-05-10T10:58:59Z</time>
      </trkpt>
      <trkpt lat="44.42379" lon="5.12448">
        <ele>725.79998779297</ele>
        <time>2013-05-10T10:59:05Z</time>
      </trkpt>
      <trkpt lat="44.42377" lon="5.12451">
        <ele>725.79998779297</ele>
        <time>2013-05-10T10:59:07Z</time>
      </trkpt>
      <trkpt lat="44.42369" lon="5.1247">
        <ele>728.40002441406</ele>
        <time>2013-05-10T10:59:22Z</time>
      </trkpt>
      <trkpt lat="44.42371" lon="5.12481">
        <ele>729.79998779297</ele>
        <time>2013-05-10T10:59:29Z</time>
      </trkpt>
      <trkpt lat="44.4238" lon="5.12486">
        <ele>732</ele>
        <time>2013-05-10T10:59:46Z</time>
      </trkpt>
      <trkpt lat="44.42379" lon="5.12485">
        <ele>732.40002441406</ele>
        <time>2013-05-10T10:59:49Z</time>
      </trkpt>
      <trkpt lat="44.4238" lon="5.12486">
        <ele>732.40002441406</ele>
        <time>2013-05-10T11:08:47Z</time>
      </trkpt>
      <trkpt lat="44.42393" lon="5.12488">
        <ele>734.79998779297</ele>
        <time>2013-05-10T11:09:11Z</time>
      </trkpt>
      <trkpt lat="44.42397" lon="5.12491">
        <ele>735.20001220703</ele>
        <time>2013-05-10T11:09:14Z</time>
      </trkpt>
      <trkpt lat="44.42402" lon="5.12494">
        <ele>736.59997558594</ele>
        <time>2013-05-10T11:09:19Z</time>
      </trkpt>
      <trkpt lat="44.42411" lon="5.12496">
        <ele>737.40002441406</ele>
        <time>2013-05-10T11:09:26Z</time>
      </trkpt>
      <trkpt lat="44.42424" lon="5.125">
        <ele>739.20001220703</ele>
        <time>2013-05-10T11:09:37Z</time>
      </trkpt>
      <trkpt lat="44.4243" lon="5.12504">
        <ele>740.79998779297</ele>
        <time>2013-05-10T11:09:43Z</time>
      </trkpt>
      <trkpt lat="44.42439" lon="5.12511">
        <ele>743</ele>
        <time>2013-05-10T11:09:52Z</time>
      </trkpt>
      <trkpt lat="44.42445" lon="5.12512">
        <ele>743</ele>
        <time>2013-05-10T11:09:57Z</time>
      </trkpt>
      <trkpt lat="44.4245" lon="5.12511">
        <ele>743.79998779297</ele>
        <time>2013-05-10T11:10:01Z</time>
      </trkpt>
      <trkpt lat="44.42453" lon="5.12509">
        <ele>744.59997558594</ele>
        <time>2013-05-10T11:10:04Z</time>
      </trkpt>
      <trkpt lat="44.42458" lon="5.12499">
        <ele>745.79998779297</ele>
        <time>2013-05-10T11:10:11Z</time>
      </trkpt>
      <trkpt lat="44.42459" lon="5.12488">
        <ele>747</ele>
        <time>2013-05-10T11:10:18Z</time>
      </trkpt>
      <trkpt lat="44.42459" lon="5.12478">
        <ele>747.59997558594</ele>
        <time>2013-05-10T11:10:23Z</time>
      </trkpt>
      <trkpt lat="44.42461" lon="5.12471">
        <ele>748.40002441406</ele>
        <time>2013-05-10T11:10:27Z</time>
      </trkpt>
      <trkpt lat="44.42462" lon="5.12469">
        <ele>748.79998779297</ele>
        <time>2013-05-10T11:10:28Z</time>
      </trkpt>
      <trkpt lat="44.42473" lon="5.12447">
        <ele>749.20001220703</ele>
        <time>2013-05-10T11:10:41Z</time>
      </trkpt>
      <trkpt lat="44.42479" lon="5.12435">
        <ele>749.20001220703</ele>
        <time>2013-05-10T11:10:48Z</time>
      </trkpt>
      <trkpt lat="44.42481" lon="5.12433">
        <ele>749.59997558594</ele>
        <time>2013-05-10T11:10:50Z</time>
      </trkpt>
      <trkpt lat="44.42484" lon="5.12428">
        <ele>750.59997558594</ele>
        <time>2013-05-10T11:10:53Z</time>
      </trkpt>
      <trkpt lat="44.42493" lon="5.12413">
        <ele>752</ele>
        <time>2013-05-10T11:11:03Z</time>
      </trkpt>
      <trkpt lat="44.42496" lon="5.12408">
        <ele>753</ele>
        <time>2013-05-10T11:11:06Z</time>
      </trkpt>
      <trkpt lat="44.425" lon="5.12402">
        <ele>753.79998779297</ele>
        <time>2013-05-10T11:11:10Z</time>
      </trkpt>
      <trkpt lat="44.42503" lon="5.12398">
        <ele>754.40002441406</ele>
        <time>2013-05-10T11:11:13Z</time>
      </trkpt>
      <trkpt lat="44.42511" lon="5.12387">
        <ele>756.40002441406</ele>
        <time>2013-05-10T11:11:21Z</time>
      </trkpt>
      <trkpt lat="44.42517" lon="5.12375">
        <ele>756.40002441406</ele>
        <time>2013-05-10T11:11:28Z</time>
      </trkpt>
      <trkpt lat="44.42521" lon="5.12375">
        <ele>757.40002441406</ele>
        <time>2013-05-10T11:11:32Z</time>
      </trkpt>
      <trkpt lat="44.42523" lon="5.12382">
        <ele>758.79998779297</ele>
        <time>2013-05-10T11:11:37Z</time>
      </trkpt>
      <trkpt lat="44.42522" lon="5.12394">
        <ele>759.40002441406</ele>
        <time>2013-05-10T11:11:44Z</time>
      </trkpt>
      <trkpt lat="44.4252" lon="5.124">
        <ele>760.20001220703</ele>
        <time>2013-05-10T11:11:48Z</time>
      </trkpt>
      <trkpt lat="44.4252" lon="5.12402">
        <ele>760.79998779297</ele>
        <time>2013-05-10T11:11:49Z</time>
      </trkpt>
      <trkpt lat="44.42519" lon="5.12411">
        <ele>761.79998779297</ele>
        <time>2013-05-10T11:11:54Z</time>
      </trkpt>
      <trkpt lat="44.42517" lon="5.12423">
        <ele>763.40002441406</ele>
        <time>2013-05-10T11:12:01Z</time>
      </trkpt>
      <trkpt lat="44.42516" lon="5.12431">
        <ele>765.20001220703</ele>
        <time>2013-05-10T11:12:06Z</time>
      </trkpt>
      <trkpt lat="44.42514" lon="5.12444">
        <ele>766.20001220703</ele>
        <time>2013-05-10T11:12:14Z</time>
      </trkpt>
      <trkpt lat="44.42512" lon="5.12453">
        <ele>766.20001220703</ele>
        <time>2013-05-10T11:12:20Z</time>
      </trkpt>
      <trkpt lat="44.42511" lon="5.1246">
        <ele>767.20001220703</ele>
        <time>2013-05-10T11:12:25Z</time>
      </trkpt>
      <trkpt lat="44.4251" lon="5.12469">
        <ele>768.40002441406</ele>
        <time>2013-05-10T11:12:30Z</time>
      </trkpt>
      <trkpt lat="44.4251" lon="5.12474">
        <ele>768.79998779297</ele>
        <time>2013-05-10T11:12:34Z</time>
      </trkpt>
      <trkpt lat="44.4251" lon="5.1248">
        <ele>769.59997558594</ele>
        <time>2013-05-10T11:12:38Z</time>
      </trkpt>
      <trkpt lat="44.42508" lon="5.12492">
        <ele>771.59997558594</ele>
        <time>2013-05-10T11:12:46Z</time>
      </trkpt>
      <trkpt lat="44.42508" lon="5.12507">
        <ele>773.20001220703</ele>
        <time>2013-05-10T11:12:55Z</time>
      </trkpt>
      <trkpt lat="44.42507" lon="5.12511">
        <ele>773.20001220703</ele>
        <time>2013-05-10T11:12:57Z</time>
      </trkpt>
      <trkpt lat="44.42503" lon="5.12524">
        <ele>774.79998779297</ele>
        <time>2013-05-10T11:13:08Z</time>
      </trkpt>
      <trkpt lat="44.42503" lon="5.12531">
        <ele>776.20001220703</ele>
        <time>2013-05-10T11:13:12Z</time>
      </trkpt>
      <trkpt lat="44.42502" lon="5.12542">
        <ele>777.40002441406</ele>
        <time>2013-05-10T11:13:20Z</time>
      </trkpt>
      <trkpt lat="44.42501" lon="5.12551">
        <ele>778.40002441406</ele>
        <time>2013-05-10T11:13:26Z</time>
      </trkpt>
      <trkpt lat="44.42501" lon="5.12563">
        <ele>779.79998779297</ele>
        <time>2013-05-10T11:13:34Z</time>
      </trkpt>
      <trkpt lat="44.425" lon="5.12569">
        <ele>780.20001220703</ele>
        <time>2013-05-10T11:13:38Z</time>
      </trkpt>
      <trkpt lat="44.425" lon="5.12574">
        <ele>780.59997558594</ele>
        <time>2013-05-10T11:13:42Z</time>
      </trkpt>
      <trkpt lat="44.42501" lon="5.12583">
        <ele>781.79998779297</ele>
        <time>2013-05-10T11:13:47Z</time>
      </trkpt>
      <trkpt lat="44.42502" lon="5.12592">
        <ele>783</ele>
        <time>2013-05-10T11:13:52Z</time>
      </trkpt>
      <trkpt lat="44.42504" lon="5.12603">
        <ele>784</ele>
        <time>2013-05-10T11:13:59Z</time>
      </trkpt>
      <trkpt lat="44.42503" lon="5.12612">
        <ele>785.59997558594</ele>
        <time>2013-05-10T11:14:03Z</time>
      </trkpt>
      <trkpt lat="44.42499" lon="5.12629">
        <ele>786</ele>
        <time>2013-05-10T11:14:11Z</time>
      </trkpt>
      <trkpt lat="44.42495" lon="5.12637">
        <ele>786.79998779297</ele>
        <time>2013-05-10T11:14:15Z</time>
      </trkpt>
      <trkpt lat="44.42488" lon="5.12636">
        <ele>787.59997558594</ele>
        <time>2013-05-10T11:14:20Z</time>
      </trkpt>
      <trkpt lat="44.42479" lon="5.12633">
        <ele>788.20001220703</ele>
        <time>2013-05-10T11:14:26Z</time>
      </trkpt>
      <trkpt lat="44.42468" lon="5.12629">
        <ele>789</ele>
        <time>2013-05-10T11:14:32Z</time>
      </trkpt>
      <trkpt lat="44.42453" lon="5.12623">
        <ele>790.59997558594</ele>
        <time>2013-05-10T11:14:44Z</time>
      </trkpt>
      <trkpt lat="44.42447" lon="5.12625">
        <ele>791.79998779297</ele>
        <time>2013-05-10T11:14:49Z</time>
      </trkpt>
      <trkpt lat="44.42442" lon="5.12631">
        <ele>792.20001220703</ele>
        <time>2013-05-10T11:14:55Z</time>
      </trkpt>
      <trkpt lat="44.42445" lon="5.12641">
        <ele>793.20001220703</ele>
        <time>2013-05-10T11:15:01Z</time>
      </trkpt>
      <trkpt lat="44.42451" lon="5.12655">
        <ele>794.59997558594</ele>
        <time>2013-05-10T11:15:11Z</time>
      </trkpt>
      <trkpt lat="44.42452" lon="5.12661">
        <ele>796.40002441406</ele>
        <time>2013-05-10T11:15:15Z</time>
      </trkpt>
      <trkpt lat="44.4245" lon="5.12673">
        <ele>797.40002441406</ele>
        <time>2013-05-10T11:15:22Z</time>
      </trkpt>
      <trkpt lat="44.42445" lon="5.12688">
        <ele>797.40002441406</ele>
        <time>2013-05-10T11:15:28Z</time>
      </trkpt>
      <trkpt lat="44.42444" lon="5.1269">
        <ele>798</ele>
        <time>2013-05-10T11:15:29Z</time>
      </trkpt>
      <trkpt lat="44.4244" lon="5.12698">
        <ele>798.40002441406</ele>
        <time>2013-05-10T11:15:32Z</time>
      </trkpt>
      <trkpt lat="44.42438" lon="5.12701">
        <ele>798.79998779297</ele>
        <time>2013-05-10T11:15:34Z</time>
      </trkpt>
      <trkpt lat="44.4243" lon="5.12712">
        <ele>799.59997558594</ele>
        <time>2013-05-10T11:15:41Z</time>
      </trkpt>
      <trkpt lat="44.42428" lon="5.12714">
        <ele>800</ele>
        <time>2013-05-10T11:15:43Z</time>
      </trkpt>
      <trkpt lat="44.42421" lon="5.1272">
        <ele>801.40002441406</ele>
        <time>2013-05-10T11:15:49Z</time>
      </trkpt>
      <trkpt lat="44.42418" lon="5.12724">
        <ele>801.79998779297</ele>
        <time>2013-05-10T11:15:52Z</time>
      </trkpt>
      <trkpt lat="44.42409" lon="5.1273">
        <ele>801.79998779297</ele>
        <time>2013-05-10T11:15:59Z</time>
      </trkpt>
      <trkpt lat="44.42404" lon="5.12731">
        <ele>802.20001220703</ele>
        <time>2013-05-10T11:16:02Z</time>
      </trkpt>
      <trkpt lat="44.424" lon="5.12731">
        <ele>802.79998779297</ele>
        <time>2013-05-10T11:16:05Z</time>
      </trkpt>
      <trkpt lat="44.42391" lon="5.12743">
        <ele>804.20001220703</ele>
        <time>2013-05-10T11:16:17Z</time>
      </trkpt>
      <trkpt lat="44.42396" lon="5.1275">
        <ele>804.20001220703</ele>
        <time>2013-05-10T11:16:23Z</time>
      </trkpt>
      <trkpt lat="44.42398" lon="5.1275">
        <ele>804.20001220703</ele>
        <time>2013-05-10T11:16:24Z</time>
      </trkpt>
      <trkpt lat="44.424" lon="5.1275">
        <ele>804.20001220703</ele>
        <time>2013-05-10T11:16:26Z</time>
      </trkpt>
      <trkpt lat="44.42411" lon="5.12747">
        <ele>805.79998779297</ele>
        <time>2013-05-10T11:16:32Z</time>
      </trkpt>
      <trkpt lat="44.42438" lon="5.12726">
        <ele>807.79998779297</ele>
        <time>2013-05-10T11:16:44Z</time>
      </trkpt>
      <trkpt lat="44.42443" lon="5.12721">
        <ele>808.20001220703</ele>
        <time>2013-05-10T11:16:47Z</time>
      </trkpt>
      <trkpt lat="44.42447" lon="5.12717">
        <ele>808.79998779297</ele>
        <time>2013-05-10T11:16:49Z</time>
      </trkpt>
      <trkpt lat="44.42451" lon="5.12713">
        <ele>809.20001220703</ele>
        <time>2013-05-10T11:16:51Z</time>
      </trkpt>
      <trkpt lat="44.42469" lon="5.12701">
        <ele>809.20001220703</ele>
        <time>2013-05-10T11:17:00Z</time>
      </trkpt>
      <trkpt lat="44.42479" lon="5.12692">
        <ele>810.20001220703</ele>
        <time>2013-05-10T11:17:06Z</time>
      </trkpt>
      <trkpt lat="44.4248" lon="5.1269">
        <ele>810.20001220703</ele>
        <time>2013-05-10T11:17:07Z</time>
      </trkpt>
      <trkpt lat="44.4249" lon="5.12686">
        <ele>810.20001220703</ele>
        <time>2013-05-10T11:17:12Z</time>
      </trkpt>
      <trkpt lat="44.42494" lon="5.12703">
        <ele>810.20001220703</ele>
        <time>2013-05-10T11:17:20Z</time>
      </trkpt>
      <trkpt lat="44.42489" lon="5.12707">
        <ele>810.59997558594</ele>
        <time>2013-05-10T11:17:23Z</time>
      </trkpt>
      <trkpt lat="44.42487" lon="5.12711">
        <ele>811.40002441406</ele>
        <time>2013-05-10T11:17:25Z</time>
      </trkpt>
      <trkpt lat="44.4248" lon="5.12719">
        <ele>813.79998779297</ele>
        <time>2013-05-10T11:17:31Z</time>
      </trkpt>
      <trkpt lat="44.42475" lon="5.12724">
        <ele>815.20001220703</ele>
        <time>2013-05-10T11:17:34Z</time>
      </trkpt>
      <trkpt lat="44.42467" lon="5.12732">
        <ele>817.20001220703</ele>
        <time>2013-05-10T11:17:41Z</time>
      </trkpt>
      <trkpt lat="44.42459" lon="5.12742">
        <ele>818.59997558594</ele>
        <time>2013-05-10T11:17:48Z</time>
      </trkpt>
      <trkpt lat="44.42452" lon="5.12751">
        <ele>821</ele>
        <time>2013-05-10T11:17:55Z</time>
      </trkpt>
      <trkpt lat="44.42449" lon="5.12754">
        <ele>821.40002441406</ele>
        <time>2013-05-10T11:17:58Z</time>
      </trkpt>
      <trkpt lat="44.42442" lon="5.12763">
        <ele>823.20001220703</ele>
        <time>2013-05-10T11:18:05Z</time>
      </trkpt>
      <trkpt lat="44.42435" lon="5.12771">
        <ele>823.20001220703</ele>
        <time>2013-05-10T11:18:11Z</time>
      </trkpt>
      <trkpt lat="44.42423" lon="5.12783">
        <ele>823.20001220703</ele>
        <time>2013-05-10T11:18:20Z</time>
      </trkpt>
      <trkpt lat="44.42419" lon="5.12788">
        <ele>823.59997558594</ele>
        <time>2013-05-10T11:18:24Z</time>
      </trkpt>
      <trkpt lat="44.42416" lon="5.1279">
        <ele>824.20001220703</ele>
        <time>2013-05-10T11:18:26Z</time>
      </trkpt>
      <trkpt lat="44.42409" lon="5.12796">
        <ele>825.59997558594</ele>
        <time>2013-05-10T11:18:33Z</time>
      </trkpt>
      <trkpt lat="44.42402" lon="5.128">
        <ele>827.20001220703</ele>
        <time>2013-05-10T11:18:38Z</time>
      </trkpt>
      <trkpt lat="44.424" lon="5.12802">
        <ele>828.20001220703</ele>
        <time>2013-05-10T11:18:40Z</time>
      </trkpt>
      <trkpt lat="44.42384" lon="5.12807">
        <ele>828.20001220703</ele>
        <time>2013-05-10T11:18:53Z</time>
      </trkpt>
      <trkpt lat="44.4237" lon="5.12805">
        <ele>828.20001220703</ele>
        <time>2013-05-10T11:19:01Z</time>
      </trkpt>
      <trkpt lat="44.42363" lon="5.12806">
        <ele>828.59997558594</ele>
        <time>2013-05-10T11:19:05Z</time>
      </trkpt>
      <trkpt lat="44.42357" lon="5.12811">
        <ele>829.59997558594</ele>
        <time>2013-05-10T11:19:08Z</time>
      </trkpt>
      <trkpt lat="44.4235" lon="5.12817">
        <ele>830.40002441406</ele>
        <time>2013-05-10T11:19:13Z</time>
      </trkpt>
      <trkpt lat="44.42347" lon="5.1282">
        <ele>830.40002441406</ele>
        <time>2013-05-10T11:19:15Z</time>
      </trkpt>
      <trkpt lat="44.42337" lon="5.12827">
        <ele>831.20001220703</ele>
        <time>2013-05-10T11:19:22Z</time>
      </trkpt>
      <trkpt lat="44.42334" lon="5.1283">
        <ele>831.20001220703</ele>
        <time>2013-05-10T11:19:24Z</time>
      </trkpt>
      <trkpt lat="44.42326" lon="5.12835">
        <ele>832.40002441406</ele>
        <time>2013-05-10T11:19:31Z</time>
      </trkpt>
      <trkpt lat="44.4232" lon="5.12839">
        <ele>833</ele>
        <time>2013-05-10T11:19:36Z</time>
      </trkpt>
      <trkpt lat="44.42316" lon="5.12842">
        <ele>833.79998779297</ele>
        <time>2013-05-10T11:19:39Z</time>
      </trkpt>
      <trkpt lat="44.42303" lon="5.12858">
        <ele>834.79998779297</ele>
        <time>2013-05-10T11:19:52Z</time>
      </trkpt>
      <trkpt lat="44.42297" lon="5.12869">
        <ele>834.79998779297</ele>
        <time>2013-05-10T11:19:58Z</time>
      </trkpt>
      <trkpt lat="44.42291" lon="5.12881">
        <ele>835.40002441406</ele>
        <time>2013-05-10T11:20:03Z</time>
      </trkpt>
      <trkpt lat="44.42289" lon="5.12885">
        <ele>835.79998779297</ele>
        <time>2013-05-10T11:20:05Z</time>
      </trkpt>
      <trkpt lat="44.42285" lon="5.12891">
        <ele>836.40002441406</ele>
        <time>2013-05-10T11:20:08Z</time>
      </trkpt>
      <trkpt lat="44.42278" lon="5.12899">
        <ele>837.40002441406</ele>
        <time>2013-05-10T11:20:13Z</time>
      </trkpt>
      <trkpt lat="44.42275" lon="5.12902">
        <ele>838.59997558594</ele>
        <time>2013-05-10T11:20:15Z</time>
      </trkpt>
      <trkpt lat="44.42269" lon="5.12906">
        <ele>839.20001220703</ele>
        <time>2013-05-10T11:20:18Z</time>
      </trkpt>
      <trkpt lat="44.42257" lon="5.12915">
        <ele>839.79998779297</ele>
        <time>2013-05-10T11:20:25Z</time>
      </trkpt>
      <trkpt lat="44.42247" lon="5.12923">
        <ele>839.79998779297</ele>
        <time>2013-05-10T11:20:31Z</time>
      </trkpt>
      <trkpt lat="44.42237" lon="5.1293">
        <ele>840.79998779297</ele>
        <time>2013-05-10T11:20:37Z</time>
      </trkpt>
      <trkpt lat="44.4223" lon="5.12938">
        <ele>841.59997558594</ele>
        <time>2013-05-10T11:20:41Z</time>
      </trkpt>
      <trkpt lat="44.42224" lon="5.12941">
        <ele>842.59997558594</ele>
        <time>2013-05-10T11:20:44Z</time>
      </trkpt>
      <trkpt lat="44.42217" lon="5.12946">
        <ele>843.20001220703</ele>
        <time>2013-05-10T11:20:48Z</time>
      </trkpt>
      <trkpt lat="44.42205" lon="5.12953">
        <ele>844.20001220703</ele>
        <time>2013-05-10T11:20:54Z</time>
      </trkpt>
      <trkpt lat="44.42198" lon="5.12957">
        <ele>844.20001220703</ele>
        <time>2013-05-10T11:20:57Z</time>
      </trkpt>
      <trkpt lat="44.42184" lon="5.12969">
        <ele>844.20001220703</ele>
        <time>2013-05-10T11:21:05Z</time>
      </trkpt>
      <trkpt lat="44.42169" lon="5.12988">
        <ele>844.59997558594</ele>
        <time>2013-05-10T11:21:15Z</time>
      </trkpt>
      <trkpt lat="44.42163" lon="5.13004">
        <ele>844.59997558594</ele>
        <time>2013-05-10T11:21:23Z</time>
      </trkpt>
      <trkpt lat="44.4216" lon="5.13018">
        <ele>845.59997558594</ele>
        <time>2013-05-10T11:21:30Z</time>
      </trkpt>
      <trkpt lat="44.42157" lon="5.13025">
        <ele>846.79998779297</ele>
        <time>2013-05-10T11:21:33Z</time>
      </trkpt>
      <trkpt lat="44.42155" lon="5.13037">
        <ele>846.79998779297</ele>
        <time>2013-05-10T11:21:37Z</time>
      </trkpt>
      <trkpt lat="44.42154" lon="5.1306">
        <ele>846.79998779297</ele>
        <time>2013-05-10T11:21:42Z</time>
      </trkpt>
      <trkpt lat="44.42163" lon="5.13093">
        <ele>846.79998779297</ele>
        <time>2013-05-10T11:21:47Z</time>
      </trkpt>
      <trkpt lat="44.42164" lon="5.13106">
        <ele>846.79998779297</ele>
        <time>2013-05-10T11:21:49Z</time>
      </trkpt>
      <trkpt lat="44.42159" lon="5.1312">
        <ele>846.79998779297</ele>
        <time>2013-05-10T11:21:51Z</time>
      </trkpt>
      <trkpt lat="44.42152" lon="5.13142">
        <ele>848.20001220703</ele>
        <time>2013-05-10T11:21:55Z</time>
      </trkpt>
      <trkpt lat="44.42151" lon="5.13158">
        <ele>851</ele>
        <time>2013-05-10T11:22:00Z</time>
      </trkpt>
      <trkpt lat="44.42151" lon="5.13161">
        <ele>851.59997558594</ele>
        <time>2013-05-10T11:22:01Z</time>
      </trkpt>
      <trkpt lat="44.42153" lon="5.13173">
        <ele>853.79998779297</ele>
        <time>2013-05-10T11:22:06Z</time>
      </trkpt>
      <trkpt lat="44.42154" lon="5.13185">
        <ele>854.79998779297</ele>
        <time>2013-05-10T11:22:11Z</time>
      </trkpt>
      <trkpt lat="44.42153" lon="5.1319">
        <ele>855.40002441406</ele>
        <time>2013-05-10T11:22:13Z</time>
      </trkpt>
      <trkpt lat="44.42153" lon="5.13201">
        <ele>857</ele>
        <time>2013-05-10T11:22:18Z</time>
      </trkpt>
      <trkpt lat="44.42152" lon="5.13212">
        <ele>857.79998779297</ele>
        <time>2013-05-10T11:22:23Z</time>
      </trkpt>
      <trkpt lat="44.42152" lon="5.1322">
        <ele>859</ele>
        <time>2013-05-10T11:22:27Z</time>
      </trkpt>
      <trkpt lat="44.42152" lon="5.1323">
        <ele>860.79998779297</ele>
        <time>2013-05-10T11:22:32Z</time>
      </trkpt>
      <trkpt lat="44.42149" lon="5.13239">
        <ele>860.79998779297</ele>
        <time>2013-05-10T11:22:36Z</time>
      </trkpt>
      <trkpt lat="44.42146" lon="5.13246">
        <ele>861.20001220703</ele>
        <time>2013-05-10T11:22:40Z</time>
      </trkpt>
      <trkpt lat="44.42142" lon="5.13251">
        <ele>861.59997558594</ele>
        <time>2013-05-10T11:22:44Z</time>
      </trkpt>
      <trkpt lat="44.42139" lon="5.13263">
        <ele>862.79998779297</ele>
        <time>2013-05-10T11:22:51Z</time>
      </trkpt>
      <trkpt lat="44.4214" lon="5.13283">
        <ele>863.40002441406</ele>
        <time>2013-05-10T11:23:01Z</time>
      </trkpt>
      <trkpt lat="44.42139" lon="5.13297">
        <ele>863.40002441406</ele>
        <time>2013-05-10T11:23:09Z</time>
      </trkpt>
      <trkpt lat="44.42146" lon="5.13306">
        <ele>863.40002441406</ele>
        <time>2013-05-10T11:23:17Z</time>
      </trkpt>
      <trkpt lat="44.42152" lon="5.13291">
        <ele>863.40002441406</ele>
        <time>2013-05-10T11:23:26Z</time>
      </trkpt>
      <trkpt lat="44.42155" lon="5.1328">
        <ele>863.40002441406</ele>
        <time>2013-05-10T11:23:31Z</time>
      </trkpt>
      <trkpt lat="44.42161" lon="5.13268">
        <ele>863.40002441406</ele>
        <time>2013-05-10T11:23:39Z</time>
      </trkpt>
      <trkpt lat="44.42168" lon="5.13256">
        <ele>863.40002441406</ele>
        <time>2013-05-10T11:23:47Z</time>
      </trkpt>
      <trkpt lat="44.42178" lon="5.13242">
        <ele>863.40002441406</ele>
        <time>2013-05-10T11:23:57Z</time>
      </trkpt>
      <trkpt lat="44.42183" lon="5.13231">
        <ele>864.40002441406</ele>
        <time>2013-05-10T11:24:04Z</time>
      </trkpt>
      <trkpt lat="44.42184" lon="5.13229">
        <ele>864.40002441406</ele>
        <time>2013-05-10T11:24:05Z</time>
      </trkpt>
      <trkpt lat="44.42189" lon="5.13218">
        <ele>870.40002441406</ele>
        <time>2013-05-10T11:24:12Z</time>
      </trkpt>
      <trkpt lat="44.42191" lon="5.13214">
        <ele>872.59997558594</ele>
        <time>2013-05-10T11:24:14Z</time>
      </trkpt>
      <trkpt lat="44.42193" lon="5.13209">
        <ele>874.79998779297</ele>
        <time>2013-05-10T11:24:17Z</time>
      </trkpt>
      <trkpt lat="44.42202" lon="5.1319">
        <ele>876.79998779297</ele>
        <time>2013-05-10T11:24:29Z</time>
      </trkpt>
      <trkpt lat="44.42209" lon="5.13205">
        <ele>876.79998779297</ele>
        <time>2013-05-10T11:24:40Z</time>
      </trkpt>
      <trkpt lat="44.42202" lon="5.13226">
        <ele>876.79998779297</ele>
        <time>2013-05-10T11:24:53Z</time>
      </trkpt>
      <trkpt lat="44.42203" lon="5.13245">
        <ele>876.79998779297</ele>
        <time>2013-05-10T11:25:04Z</time>
      </trkpt>
      <trkpt lat="44.42206" lon="5.13261">
        <ele>876.79998779297</ele>
        <time>2013-05-10T11:25:14Z</time>
      </trkpt>
      <trkpt lat="44.42209" lon="5.13272">
        <ele>879</ele>
        <time>2013-05-10T11:25:21Z</time>
      </trkpt>
      <trkpt lat="44.42208" lon="5.13288">
        <ele>879</ele>
        <time>2013-05-10T11:25:30Z</time>
      </trkpt>
      <trkpt lat="44.42208" lon="5.13292">
        <ele>881</ele>
        <time>2013-05-10T11:25:32Z</time>
      </trkpt>
      <trkpt lat="44.42205" lon="5.13301">
        <ele>886.79998779297</ele>
        <time>2013-05-10T11:25:38Z</time>
      </trkpt>
      <trkpt lat="44.422" lon="5.13306">
        <ele>890.40002441406</ele>
        <time>2013-05-10T11:25:43Z</time>
      </trkpt>
      <trkpt lat="44.42194" lon="5.13314">
        <ele>892.20001220703</ele>
        <time>2013-05-10T11:25:49Z</time>
      </trkpt>
      <trkpt lat="44.42188" lon="5.13326">
        <ele>892.59997558594</ele>
        <time>2013-05-10T11:25:56Z</time>
      </trkpt>
      <trkpt lat="44.42187" lon="5.13332">
        <ele>892.59997558594</ele>
        <time>2013-05-10T11:25:59Z</time>
      </trkpt>
      <trkpt lat="44.42184" lon="5.13343">
        <ele>893.59997558594</ele>
        <time>2013-05-10T11:26:04Z</time>
      </trkpt>
      <trkpt lat="44.42182" lon="5.13356">
        <ele>894.59997558594</ele>
        <time>2013-05-10T11:26:11Z</time>
      </trkpt>
      <trkpt lat="44.42183" lon="5.13362">
        <ele>895</ele>
        <time>2013-05-10T11:26:14Z</time>
      </trkpt>
      <trkpt lat="44.42181" lon="5.1337">
        <ele>895.40002441406</ele>
        <time>2013-05-10T11:26:18Z</time>
      </trkpt>
      <trkpt lat="44.42179" lon="5.13378">
        <ele>896.20001220703</ele>
        <time>2013-05-10T11:26:21Z</time>
      </trkpt>
      <trkpt lat="44.42179" lon="5.13385">
        <ele>896.59997558594</ele>
        <time>2013-05-10T11:26:24Z</time>
      </trkpt>
      <trkpt lat="44.42176" lon="5.13393">
        <ele>897.59997558594</ele>
        <time>2013-05-10T11:26:29Z</time>
      </trkpt>
      <trkpt lat="44.42174" lon="5.13403">
        <ele>898.79998779297</ele>
        <time>2013-05-10T11:26:35Z</time>
      </trkpt>
      <trkpt lat="44.42171" lon="5.13414">
        <ele>900</ele>
        <time>2013-05-10T11:26:41Z</time>
      </trkpt>
      <trkpt lat="44.4217" lon="5.13417">
        <ele>900.79998779297</ele>
        <time>2013-05-10T11:26:43Z</time>
      </trkpt>
      <trkpt lat="44.42169" lon="5.13421">
        <ele>900.79998779297</ele>
        <time>2013-05-10T11:26:45Z</time>
      </trkpt>
      <trkpt lat="44.42168" lon="5.13431">
        <ele>900.79998779297</ele>
        <time>2013-05-10T11:26:50Z</time>
      </trkpt>
      <trkpt lat="44.42169" lon="5.13442">
        <ele>901.79998779297</ele>
        <time>2013-05-10T11:26:55Z</time>
      </trkpt>
      <trkpt lat="44.4217" lon="5.13448">
        <ele>902.20001220703</ele>
        <time>2013-05-10T11:26:58Z</time>
      </trkpt>
      <trkpt lat="44.42171" lon="5.13453">
        <ele>902.59997558594</ele>
        <time>2013-05-10T11:27:00Z</time>
      </trkpt>
      <trkpt lat="44.42174" lon="5.13466">
        <ele>903.59997558594</ele>
        <time>2013-05-10T11:27:07Z</time>
      </trkpt>
      <trkpt lat="44.42175" lon="5.13472">
        <ele>904.20001220703</ele>
        <time>2013-05-10T11:27:10Z</time>
      </trkpt>
      <trkpt lat="44.42176" lon="5.13482">
        <ele>905.20001220703</ele>
        <time>2013-05-10T11:27:15Z</time>
      </trkpt>
      <trkpt lat="44.42178" lon="5.1349">
        <ele>906.40002441406</ele>
        <time>2013-05-10T11:27:19Z</time>
      </trkpt>
      <trkpt lat="44.42179" lon="5.13518">
        <ele>908.20001220703</ele>
        <time>2013-05-10T11:27:34Z</time>
      </trkpt>
      <trkpt lat="44.42178" lon="5.13521">
        <ele>908.59997558594</ele>
        <time>2013-05-10T11:27:36Z</time>
      </trkpt>
      <trkpt lat="44.42176" lon="5.13531">
        <ele>909.40002441406</ele>
        <time>2013-05-10T11:27:41Z</time>
      </trkpt>
      <trkpt lat="44.42175" lon="5.13551">
        <ele>910.40002441406</ele>
        <time>2013-05-10T11:27:51Z</time>
      </trkpt>
      <trkpt lat="44.42179" lon="5.13563">
        <ele>912</ele>
        <time>2013-05-10T11:27:58Z</time>
      </trkpt>
      <trkpt lat="44.42181" lon="5.13572">
        <ele>912</ele>
        <time>2013-05-10T11:28:02Z</time>
      </trkpt>
      <trkpt lat="44.42182" lon="5.13584">
        <ele>913.20001220703</ele>
        <time>2013-05-10T11:28:08Z</time>
      </trkpt>
      <trkpt lat="44.42178" lon="5.13603">
        <ele>914</ele>
        <time>2013-05-10T11:28:17Z</time>
      </trkpt>
      <trkpt lat="44.42173" lon="5.13617">
        <ele>914.40002441406</ele>
        <time>2013-05-10T11:28:24Z</time>
      </trkpt>
      <trkpt lat="44.42173" lon="5.13622">
        <ele>915</ele>
        <time>2013-05-10T11:28:26Z</time>
      </trkpt>
      <trkpt lat="44.42172" lon="5.13631">
        <ele>915.79998779297</ele>
        <time>2013-05-10T11:28:30Z</time>
      </trkpt>
      <trkpt lat="44.42168" lon="5.13643">
        <ele>916.20001220703</ele>
        <time>2013-05-10T11:28:36Z</time>
      </trkpt>
      <trkpt lat="44.42163" lon="5.13656">
        <ele>916.59997558594</ele>
        <time>2013-05-10T11:28:43Z</time>
      </trkpt>
      <trkpt lat="44.42158" lon="5.13666">
        <ele>917.40002441406</ele>
        <time>2013-05-10T11:28:48Z</time>
      </trkpt>
      <trkpt lat="44.42152" lon="5.13674">
        <ele>918.40002441406</ele>
        <time>2013-05-10T11:28:53Z</time>
      </trkpt>
      <trkpt lat="44.42145" lon="5.13685">
        <ele>918.79998779297</ele>
        <time>2013-05-10T11:29:00Z</time>
      </trkpt>
      <trkpt lat="44.42139" lon="5.13692">
        <ele>919.59997558594</ele>
        <time>2013-05-10T11:29:05Z</time>
      </trkpt>
      <trkpt lat="44.42134" lon="5.137">
        <ele>921</ele>
        <time>2013-05-10T11:29:11Z</time>
      </trkpt>
      <trkpt lat="44.4213" lon="5.13706">
        <ele>922.79998779297</ele>
        <time>2013-05-10T11:29:15Z</time>
      </trkpt>
      <trkpt lat="44.42124" lon="5.13713">
        <ele>924</ele>
        <time>2013-05-10T11:29:22Z</time>
      </trkpt>
      <trkpt lat="44.42118" lon="5.13719">
        <ele>924.79998779297</ele>
        <time>2013-05-10T11:29:28Z</time>
      </trkpt>
      <trkpt lat="44.42111" lon="5.13725">
        <ele>924.79998779297</ele>
        <time>2013-05-10T11:29:34Z</time>
      </trkpt>
      <trkpt lat="44.42108" lon="5.13727">
        <ele>925.40002441406</ele>
        <time>2013-05-10T11:29:37Z</time>
      </trkpt>
      <trkpt lat="44.42103" lon="5.13731">
        <ele>926.59997558594</ele>
        <time>2013-05-10T11:29:42Z</time>
      </trkpt>
      <trkpt lat="44.42099" lon="5.13733">
        <ele>928</ele>
        <time>2013-05-10T11:29:45Z</time>
      </trkpt>
      <trkpt lat="44.42087" lon="5.13741">
        <ele>929.79998779297</ele>
        <time>2013-05-10T11:29:57Z</time>
      </trkpt>
      <trkpt lat="44.42079" lon="5.1375">
        <ele>931.20001220703</ele>
        <time>2013-05-10T11:30:04Z</time>
      </trkpt>
      <trkpt lat="44.42078" lon="5.13755">
        <ele>931.59997558594</ele>
        <time>2013-05-10T11:30:06Z</time>
      </trkpt>
      <trkpt lat="44.4208" lon="5.13768">
        <ele>931.59997558594</ele>
        <time>2013-05-10T11:30:12Z</time>
      </trkpt>
      <trkpt lat="44.4208" lon="5.13771">
        <ele>931.59997558594</ele>
        <time>2013-05-10T11:30:13Z</time>
      </trkpt>
      <trkpt lat="44.4208" lon="5.13777">
        <ele>932.59997558594</ele>
        <time>2013-05-10T11:30:16Z</time>
      </trkpt>
      <trkpt lat="44.4208" lon="5.13779">
        <ele>932.59997558594</ele>
        <time>2013-05-10T11:30:17Z</time>
      </trkpt>
      <trkpt lat="44.4208" lon="5.13784">
        <ele>933.40002441406</ele>
        <time>2013-05-10T11:30:19Z</time>
      </trkpt>
      <trkpt lat="44.42079" lon="5.13797">
        <ele>934</ele>
        <time>2013-05-10T11:30:26Z</time>
      </trkpt>
      <trkpt lat="44.42076" lon="5.13811">
        <ele>934.40002441406</ele>
        <time>2013-05-10T11:30:33Z</time>
      </trkpt>
      <trkpt lat="44.4207" lon="5.13825">
        <ele>936.20001220703</ele>
        <time>2013-05-10T11:30:41Z</time>
      </trkpt>
      <trkpt lat="44.4207" lon="5.13827">
        <ele>936.20001220703</ele>
        <time>2013-05-10T11:30:42Z</time>
      </trkpt>
      <trkpt lat="44.42067" lon="5.13835">
        <ele>936.79998779297</ele>
        <time>2013-05-10T11:30:46Z</time>
      </trkpt>
      <trkpt lat="44.42064" lon="5.13845">
        <ele>937.59997558594</ele>
        <time>2013-05-10T11:30:51Z</time>
      </trkpt>
      <trkpt lat="44.42063" lon="5.13854">
        <ele>938.59997558594</ele>
        <time>2013-05-10T11:30:55Z</time>
      </trkpt>
      <trkpt lat="44.42063" lon="5.13862">
        <ele>938.59997558594</ele>
        <time>2013-05-10T11:30:59Z</time>
      </trkpt>
      <trkpt lat="44.42064" lon="5.13871">
        <ele>939</ele>
        <time>2013-05-10T11:31:04Z</time>
      </trkpt>
      <trkpt lat="44.42063" lon="5.1388">
        <ele>939.59997558594</ele>
        <time>2013-05-10T11:31:09Z</time>
      </trkpt>
      <trkpt lat="44.42057" lon="5.13896">
        <ele>941.20001220703</ele>
        <time>2013-05-10T11:31:18Z</time>
      </trkpt>
      <trkpt lat="44.42044" lon="5.13912">
        <ele>941.20001220703</ele>
        <time>2013-05-10T11:31:27Z</time>
      </trkpt>
      <trkpt lat="44.42038" lon="5.13918">
        <ele>942</ele>
        <time>2013-05-10T11:31:30Z</time>
      </trkpt>
      <trkpt lat="44.42033" lon="5.13923">
        <ele>942.79998779297</ele>
        <time>2013-05-10T11:31:33Z</time>
      </trkpt>
      <trkpt lat="44.4203" lon="5.13927">
        <ele>943.20001220703</ele>
        <time>2013-05-10T11:31:35Z</time>
      </trkpt>
      <trkpt lat="44.42019" lon="5.13944">
        <ele>943.20001220703</ele>
        <time>2013-05-10T11:31:43Z</time>
      </trkpt>
      <trkpt lat="44.42014" lon="5.13954">
        <ele>945</ele>
        <time>2013-05-10T11:31:48Z</time>
      </trkpt>
      <trkpt lat="44.4201" lon="5.13964">
        <ele>946</ele>
        <time>2013-05-10T11:31:53Z</time>
      </trkpt>
      <trkpt lat="44.42009" lon="5.13967">
        <ele>946.40002441406</ele>
        <time>2013-05-10T11:31:55Z</time>
      </trkpt>
      <trkpt lat="44.42009" lon="5.13973">
        <ele>946.79998779297</ele>
        <time>2013-05-10T11:31:58Z</time>
      </trkpt>
      <trkpt lat="44.42006" lon="5.13993">
        <ele>948.59997558594</ele>
        <time>2013-05-10T11:32:10Z</time>
      </trkpt>
      <trkpt lat="44.42007" lon="5.14004">
        <ele>950</ele>
        <time>2013-05-10T11:32:17Z</time>
      </trkpt>
      <trkpt lat="44.42007" lon="5.14012">
        <ele>951.40002441406</ele>
        <time>2013-05-10T11:32:22Z</time>
      </trkpt>
      <trkpt lat="44.42006" lon="5.14023">
        <ele>952.59997558594</ele>
        <time>2013-05-10T11:32:29Z</time>
      </trkpt>
      <trkpt lat="44.42007" lon="5.1404">
        <ele>952.59997558594</ele>
        <time>2013-05-10T11:32:38Z</time>
      </trkpt>
      <trkpt lat="44.42007" lon="5.14042">
        <ele>953.40002441406</ele>
        <time>2013-05-10T11:32:39Z</time>
      </trkpt>
      <trkpt lat="44.42007" lon="5.14053">
        <ele>954.40002441406</ele>
        <time>2013-05-10T11:32:44Z</time>
      </trkpt>
      <trkpt lat="44.42007" lon="5.14081">
        <ele>954.79998779297</ele>
        <time>2013-05-10T11:32:55Z</time>
      </trkpt>
      <trkpt lat="44.42008" lon="5.14102">
        <ele>954.79998779297</ele>
        <time>2013-05-10T11:33:04Z</time>
      </trkpt>
      <trkpt lat="44.42008" lon="5.14112">
        <ele>956.20001220703</ele>
        <time>2013-05-10T11:33:08Z</time>
      </trkpt>
      <trkpt lat="44.42008" lon="5.14124">
        <ele>957.20001220703</ele>
        <time>2013-05-10T11:33:13Z</time>
      </trkpt>
      <trkpt lat="44.42008" lon="5.14137">
        <ele>957.20001220703</ele>
        <time>2013-05-10T11:33:19Z</time>
      </trkpt>
      <trkpt lat="44.42007" lon="5.14153">
        <ele>957.20001220703</ele>
        <time>2013-05-10T11:33:26Z</time>
      </trkpt>
      <trkpt lat="44.42005" lon="5.14162">
        <ele>958.20001220703</ele>
        <time>2013-05-10T11:33:30Z</time>
      </trkpt>
      <trkpt lat="44.41999" lon="5.14174">
        <ele>959.20001220703</ele>
        <time>2013-05-10T11:33:36Z</time>
      </trkpt>
      <trkpt lat="44.4199" lon="5.1418">
        <ele>959.59997558594</ele>
        <time>2013-05-10T11:33:41Z</time>
      </trkpt>
      <trkpt lat="44.41978" lon="5.14188">
        <ele>959.59997558594</ele>
        <time>2013-05-10T11:33:47Z</time>
      </trkpt>
      <trkpt lat="44.41958" lon="5.14202">
        <ele>959.59997558594</ele>
        <time>2013-05-10T11:33:55Z</time>
      </trkpt>
      <trkpt lat="44.41935" lon="5.14224">
        <ele>959.59997558594</ele>
        <time>2013-05-10T11:34:04Z</time>
      </trkpt>
      <trkpt lat="44.41916" lon="5.1424">
        <ele>959.59997558594</ele>
        <time>2013-05-10T11:34:12Z</time>
      </trkpt>
      <trkpt lat="44.41891" lon="5.1426">
        <ele>960</ele>
        <time>2013-05-10T11:34:20Z</time>
      </trkpt>
      <trkpt lat="44.41882" lon="5.14269">
        <ele>961</ele>
        <time>2013-05-10T11:34:23Z</time>
      </trkpt>
      <trkpt lat="44.41878" lon="5.14272">
        <ele>961</ele>
        <time>2013-05-10T11:34:24Z</time>
      </trkpt>
      <trkpt lat="44.41864" lon="5.14282">
        <ele>961.79998779297</ele>
        <time>2013-05-10T11:34:28Z</time>
      </trkpt>
      <trkpt lat="44.41853" lon="5.14291">
        <ele>961.79998779297</ele>
        <time>2013-05-10T11:34:32Z</time>
      </trkpt>
      <trkpt lat="44.41844" lon="5.14297">
        <ele>962.20001220703</ele>
        <time>2013-05-10T11:34:35Z</time>
      </trkpt>
      <trkpt lat="44.41838" lon="5.14302">
        <ele>962.79998779297</ele>
        <time>2013-05-10T11:34:37Z</time>
      </trkpt>
      <trkpt lat="44.41828" lon="5.1431">
        <ele>963.59997558594</ele>
        <time>2013-05-10T11:34:40Z</time>
      </trkpt>
      <trkpt lat="44.4181" lon="5.14329">
        <ele>964</ele>
        <time>2013-05-10T11:34:47Z</time>
      </trkpt>
      <trkpt lat="44.41802" lon="5.14341">
        <ele>965</ele>
        <time>2013-05-10T11:34:52Z</time>
      </trkpt>
      <trkpt lat="44.41799" lon="5.14347">
        <ele>965.59997558594</ele>
        <time>2013-05-10T11:34:54Z</time>
      </trkpt>
      <trkpt lat="44.41795" lon="5.14355">
        <ele>966.59997558594</ele>
        <time>2013-05-10T11:34:57Z</time>
      </trkpt>
      <trkpt lat="44.41785" lon="5.14372">
        <ele>966.59997558594</ele>
        <time>2013-05-10T11:35:03Z</time>
      </trkpt>
      <trkpt lat="44.41777" lon="5.14393">
        <ele>967.40002441406</ele>
        <time>2013-05-10T11:35:09Z</time>
      </trkpt>
      <trkpt lat="44.41774" lon="5.144">
        <ele>967.79998779297</ele>
        <time>2013-05-10T11:35:11Z</time>
      </trkpt>
      <trkpt lat="44.41769" lon="5.14411">
        <ele>968.20001220703</ele>
        <time>2013-05-10T11:35:14Z</time>
      </trkpt>
      <trkpt lat="44.41758" lon="5.14439">
        <ele>968.79998779297</ele>
        <time>2013-05-10T11:35:22Z</time>
      </trkpt>
      <trkpt lat="44.41749" lon="5.14461">
        <ele>968.79998779297</ele>
        <time>2013-05-10T11:35:29Z</time>
      </trkpt>
      <trkpt lat="44.41739" lon="5.1448">
        <ele>968.79998779297</ele>
        <time>2013-05-10T11:35:36Z</time>
      </trkpt>
      <trkpt lat="44.41727" lon="5.14494">
        <ele>970</ele>
        <time>2013-05-10T11:35:43Z</time>
      </trkpt>
      <trkpt lat="44.41725" lon="5.145">
        <ele>971</ele>
        <time>2013-05-10T11:35:46Z</time>
      </trkpt>
      <trkpt lat="44.4173" lon="5.14505">
        <ele>971.40002441406</ele>
        <time>2013-05-10T11:35:50Z</time>
      </trkpt>
      <trkpt lat="44.41735" lon="5.14498">
        <ele>972.40002441406</ele>
        <time>2013-05-10T11:35:54Z</time>
      </trkpt>
      <trkpt lat="44.41746" lon="5.14483">
        <ele>973.40002441406</ele>
        <time>2013-05-10T11:36:04Z</time>
      </trkpt>
      <trkpt lat="44.41749" lon="5.1448">
        <ele>973.79998779297</ele>
        <time>2013-05-10T11:36:07Z</time>
      </trkpt>
      <trkpt lat="44.41751" lon="5.14477">
        <ele>974.20001220703</ele>
        <time>2013-05-10T11:36:09Z</time>
      </trkpt>
      <trkpt lat="44.41764" lon="5.14462">
        <ele>975.40002441406</ele>
        <time>2013-05-10T11:36:22Z</time>
      </trkpt>
      <trkpt lat="44.41768" lon="5.14459">
        <ele>975.79998779297</ele>
        <time>2013-05-10T11:36:25Z</time>
      </trkpt>
      <trkpt lat="44.41771" lon="5.14456">
        <ele>976.20001220703</ele>
        <time>2013-05-10T11:36:28Z</time>
      </trkpt>
      <trkpt lat="44.41778" lon="5.14448">
        <ele>978.79998779297</ele>
        <time>2013-05-10T11:36:35Z</time>
      </trkpt>
      <trkpt lat="44.41782" lon="5.1444">
        <ele>979.79998779297</ele>
        <time>2013-05-10T11:36:42Z</time>
      </trkpt>
      <trkpt lat="44.41784" lon="5.14438">
        <ele>979.79998779297</ele>
        <time>2013-05-10T11:36:44Z</time>
      </trkpt>
      <trkpt lat="44.4179" lon="5.14429">
        <ele>981.40002441406</ele>
        <time>2013-05-10T11:36:53Z</time>
      </trkpt>
      <trkpt lat="44.41802" lon="5.14416">
        <ele>985.20001220703</ele>
        <time>2013-05-10T11:37:09Z</time>
      </trkpt>
      <trkpt lat="44.41811" lon="5.14404">
        <ele>986.79998779297</ele>
        <time>2013-05-10T11:37:21Z</time>
      </trkpt>
      <trkpt lat="44.41813" lon="5.144">
        <ele>987.59997558594</ele>
        <time>2013-05-10T11:37:26Z</time>
      </trkpt>
      <trkpt lat="44.41825" lon="5.14387">
        <ele>990.20001220703</ele>
        <time>2013-05-10T11:37:59Z</time>
      </trkpt>
      <trkpt lat="44.41831" lon="5.14383">
        <ele>990.59997558594</ele>
        <time>2013-05-10T11:38:03Z</time>
      </trkpt>
      <trkpt lat="44.41836" lon="5.14379">
        <ele>991</ele>
        <time>2013-05-10T11:38:08Z</time>
      </trkpt>
      <trkpt lat="44.41841" lon="5.14377">
        <ele>991.79998779297</ele>
        <time>2013-05-10T11:38:13Z</time>
      </trkpt>
      <trkpt lat="44.41852" lon="5.1437">
        <ele>993.20001220703</ele>
        <time>2013-05-10T11:38:24Z</time>
      </trkpt>
      <trkpt lat="44.41853" lon="5.1437">
        <ele>993.20001220703</ele>
        <time>2013-05-10T11:38:25Z</time>
      </trkpt>
      <trkpt lat="44.41867" lon="5.14363">
        <ele>993.59997558594</ele>
        <time>2013-05-10T11:38:38Z</time>
      </trkpt>
      <trkpt lat="44.41878" lon="5.14359">
        <ele>993.59997558594</ele>
        <time>2013-05-10T11:38:48Z</time>
      </trkpt>
      <trkpt lat="44.41891" lon="5.14355">
        <ele>993.59997558594</ele>
        <time>2013-05-10T11:39:01Z</time>
      </trkpt>
      <trkpt lat="44.41903" lon="5.14351">
        <ele>997.59997558594</ele>
        <time>2013-05-10T11:39:13Z</time>
      </trkpt>
      <trkpt lat="44.41908" lon="5.14349">
        <ele>998.79998779297</ele>
        <time>2013-05-10T11:39:18Z</time>
      </trkpt>
      <trkpt lat="44.41912" lon="5.14348">
        <ele>999.20001220703</ele>
        <time>2013-05-10T11:39:22Z</time>
      </trkpt>
      <trkpt lat="44.41922" lon="5.14345">
        <ele>1000.4000244141</ele>
        <time>2013-05-10T11:39:32Z</time>
      </trkpt>
      <trkpt lat="44.41931" lon="5.14341">
        <ele>1001</ele>
        <time>2013-05-10T11:39:42Z</time>
      </trkpt>
      <trkpt lat="44.41935" lon="5.14339">
        <ele>1002</ele>
        <time>2013-05-10T11:39:47Z</time>
      </trkpt>
      <trkpt lat="44.41945" lon="5.14335">
        <ele>1003</ele>
        <time>2013-05-10T11:39:59Z</time>
      </trkpt>
      <trkpt lat="44.41953" lon="5.14333">
        <ele>1004.200012207</ele>
        <time>2013-05-10T11:40:06Z</time>
      </trkpt>
      <trkpt lat="44.41961" lon="5.1433">
        <ele>1005.4000244141</ele>
        <time>2013-05-10T11:40:15Z</time>
      </trkpt>
      <trkpt lat="44.41964" lon="5.14329">
        <ele>1005.799987793</ele>
        <time>2013-05-10T11:40:18Z</time>
      </trkpt>
      <trkpt lat="44.4197" lon="5.14325">
        <ele>1007.200012207</ele>
        <time>2013-05-10T11:40:25Z</time>
      </trkpt>
      <trkpt lat="44.41985" lon="5.14318">
        <ele>1007.5999755859</ele>
        <time>2013-05-10T11:40:39Z</time>
      </trkpt>
      <trkpt lat="44.41991" lon="5.14314">
        <ele>1008.799987793</ele>
        <time>2013-05-10T11:40:46Z</time>
      </trkpt>
      <trkpt lat="44.42001" lon="5.14309">
        <ele>1010.200012207</ele>
        <time>2013-05-10T11:40:58Z</time>
      </trkpt>
      <trkpt lat="44.42011" lon="5.14303">
        <ele>1011.5999755859</ele>
        <time>2013-05-10T11:41:12Z</time>
      </trkpt>
      <trkpt lat="44.42023" lon="5.14298">
        <ele>1012.200012207</ele>
        <time>2013-05-10T11:41:35Z</time>
      </trkpt>
      <trkpt lat="44.42031" lon="5.14293">
        <ele>1012.799987793</ele>
        <time>2013-05-10T11:41:42Z</time>
      </trkpt>
      <trkpt lat="44.42043" lon="5.14289">
        <ele>1014.799987793</ele>
        <time>2013-05-10T11:41:53Z</time>
      </trkpt>
      <trkpt lat="44.4205" lon="5.14286">
        <ele>1016.4000244141</ele>
        <time>2013-05-10T11:42:00Z</time>
      </trkpt>
      <trkpt lat="44.4206" lon="5.14279">
        <ele>1018.799987793</ele>
        <time>2013-05-10T11:42:10Z</time>
      </trkpt>
      <trkpt lat="44.42073" lon="5.14264">
        <ele>1018.799987793</ele>
        <time>2013-05-10T11:42:27Z</time>
      </trkpt>
      <trkpt lat="44.42078" lon="5.14258">
        <ele>1020.200012207</ele>
        <time>2013-05-10T11:42:34Z</time>
      </trkpt>
      <trkpt lat="44.42081" lon="5.14255">
        <ele>1020.799987793</ele>
        <time>2013-05-10T11:42:37Z</time>
      </trkpt>
      <trkpt lat="44.42087" lon="5.14248">
        <ele>1023.200012207</ele>
        <time>2013-05-10T11:42:46Z</time>
      </trkpt>
      <trkpt lat="44.4209" lon="5.14243">
        <ele>1024.1999511719</ele>
        <time>2013-05-10T11:42:51Z</time>
      </trkpt>
      <trkpt lat="44.42092" lon="5.1424">
        <ele>1025.1999511719</ele>
        <time>2013-05-10T11:42:55Z</time>
      </trkpt>
      <trkpt lat="44.42098" lon="5.14227">
        <ele>1026.8000488281</ele>
        <time>2013-05-10T11:43:05Z</time>
      </trkpt>
      <trkpt lat="44.42101" lon="5.14222">
        <ele>1027.5999755859</ele>
        <time>2013-05-10T11:43:10Z</time>
      </trkpt>
      <trkpt lat="44.42103" lon="5.14219">
        <ele>1027.5999755859</ele>
        <time>2013-05-10T11:43:14Z</time>
      </trkpt>
      <trkpt lat="44.4211" lon="5.14208">
        <ele>1028.1999511719</ele>
        <time>2013-05-10T11:43:24Z</time>
      </trkpt>
      <trkpt lat="44.42115" lon="5.14198">
        <ele>1029.8000488281</ele>
        <time>2013-05-10T11:43:33Z</time>
      </trkpt>
      <trkpt lat="44.42119" lon="5.14189">
        <ele>1030.4000244141</ele>
        <time>2013-05-10T11:43:41Z</time>
      </trkpt>
      <trkpt lat="44.42121" lon="5.14184">
        <ele>1031.4000244141</ele>
        <time>2013-05-10T11:43:45Z</time>
      </trkpt>
      <trkpt lat="44.42126" lon="5.14175">
        <ele>1032.1999511719</ele>
        <time>2013-05-10T11:43:54Z</time>
      </trkpt>
      <trkpt lat="44.4213" lon="5.14171">
        <ele>1032.8000488281</ele>
        <time>2013-05-10T11:43:59Z</time>
      </trkpt>
      <trkpt lat="44.42131" lon="5.1417">
        <ele>1032.8000488281</ele>
        <time>2013-05-10T11:44:00Z</time>
      </trkpt>
      <trkpt lat="44.42138" lon="5.14159">
        <ele>1035.4000244141</ele>
        <time>2013-05-10T11:44:12Z</time>
      </trkpt>
      <trkpt lat="44.42142" lon="5.14155">
        <ele>1036.5999755859</ele>
        <time>2013-05-10T11:44:17Z</time>
      </trkpt>
      <trkpt lat="44.42148" lon="5.14146">
        <ele>1037</ele>
        <time>2013-05-10T11:44:26Z</time>
      </trkpt>
      <trkpt lat="44.4215" lon="5.14144">
        <ele>1037.4000244141</ele>
        <time>2013-05-10T11:44:28Z</time>
      </trkpt>
      <trkpt lat="44.42153" lon="5.1414">
        <ele>1037.8000488281</ele>
        <time>2013-05-10T11:44:31Z</time>
      </trkpt>
      <trkpt lat="44.42163" lon="5.14126">
        <ele>1039.1999511719</ele>
        <time>2013-05-10T11:44:43Z</time>
      </trkpt>
      <trkpt lat="44.42171" lon="5.14119">
        <ele>1040.8000488281</ele>
        <time>2013-05-10T11:44:52Z</time>
      </trkpt>
      <trkpt lat="44.42182" lon="5.14109">
        <ele>1040.8000488281</ele>
        <time>2013-05-10T11:45:04Z</time>
      </trkpt>
      <trkpt lat="44.4219" lon="5.14102">
        <ele>1043.4000244141</ele>
        <time>2013-05-10T11:45:14Z</time>
      </trkpt>
      <trkpt lat="44.42196" lon="5.14099">
        <ele>1043.4000244141</ele>
        <time>2013-05-10T11:45:23Z</time>
      </trkpt>
      <trkpt lat="44.42203" lon="5.14094">
        <ele>1043.4000244141</ele>
        <time>2013-05-10T11:45:31Z</time>
      </trkpt>
      <trkpt lat="44.42209" lon="5.14089">
        <ele>1045.4000244141</ele>
        <time>2013-05-10T11:45:38Z</time>
      </trkpt>
      <trkpt lat="44.4221" lon="5.14088">
        <ele>1045.8000488281</ele>
        <time>2013-05-10T11:45:40Z</time>
      </trkpt>
      <trkpt lat="44.42223" lon="5.14079">
        <ele>1048.1999511719</ele>
        <time>2013-05-10T11:45:55Z</time>
      </trkpt>
      <trkpt lat="44.42231" lon="5.14067">
        <ele>1048.5999755859</ele>
        <time>2013-05-10T11:46:07Z</time>
      </trkpt>
      <trkpt lat="44.42245" lon="5.14058">
        <ele>1050.5999755859</ele>
        <time>2013-05-10T11:46:22Z</time>
      </trkpt>
      <trkpt lat="44.42251" lon="5.14053">
        <ele>1052</ele>
        <time>2013-05-10T11:46:30Z</time>
      </trkpt>
      <trkpt lat="44.42255" lon="5.14049">
        <ele>1052.4000244141</ele>
        <time>2013-05-10T11:46:35Z</time>
      </trkpt>
      <trkpt lat="44.42263" lon="5.14038">
        <ele>1053.1999511719</ele>
        <time>2013-05-10T11:46:46Z</time>
      </trkpt>
      <trkpt lat="44.42271" lon="5.14032">
        <ele>1054.5999755859</ele>
        <time>2013-05-10T11:46:54Z</time>
      </trkpt>
      <trkpt lat="44.42274" lon="5.1403">
        <ele>1055</ele>
        <time>2013-05-10T11:47:00Z</time>
      </trkpt>
      <trkpt lat="44.42282" lon="5.14027">
        <ele>1055.4000244141</ele>
        <time>2013-05-10T11:47:05Z</time>
      </trkpt>
      <trkpt lat="44.42287" lon="5.14016">
        <ele>1057</ele>
        <time>2013-05-10T11:47:18Z</time>
      </trkpt>
      <trkpt lat="44.4229" lon="5.14015">
        <ele>1057.5999755859</ele>
        <time>2013-05-10T11:47:22Z</time>
      </trkpt>
      <trkpt lat="44.42297" lon="5.14008">
        <ele>1059.5999755859</ele>
        <time>2013-05-10T11:47:29Z</time>
      </trkpt>
      <trkpt lat="44.423" lon="5.14005">
        <ele>1059.5999755859</ele>
        <time>2013-05-10T11:47:32Z</time>
      </trkpt>
      <trkpt lat="44.42312" lon="5.13993">
        <ele>1059.5999755859</ele>
        <time>2013-05-10T11:47:47Z</time>
      </trkpt>
      <trkpt lat="44.42315" lon="5.13988">
        <ele>1061.4000244141</ele>
        <time>2013-05-10T11:47:53Z</time>
      </trkpt>
      <trkpt lat="44.42323" lon="5.13977">
        <ele>1062.1999511719</ele>
        <time>2013-05-10T11:48:05Z</time>
      </trkpt>
      <trkpt lat="44.4233" lon="5.13971">
        <ele>1063.8000488281</ele>
        <time>2013-05-10T11:48:13Z</time>
      </trkpt>
      <trkpt lat="44.42335" lon="5.13968">
        <ele>1063.8000488281</ele>
        <time>2013-05-10T11:48:17Z</time>
      </trkpt>
      <trkpt lat="44.42344" lon="5.13968">
        <ele>1064.4000244141</ele>
        <time>2013-05-10T11:48:25Z</time>
      </trkpt>
      <trkpt lat="44.42351" lon="5.13967">
        <ele>1066.1999511719</ele>
        <time>2013-05-10T11:48:32Z</time>
      </trkpt>
      <trkpt lat="44.4236" lon="5.13968">
        <ele>1066.5999755859</ele>
        <time>2013-05-10T11:48:47Z</time>
      </trkpt>
      <trkpt lat="44.42378" lon="5.13963">
        <ele>1067.8000488281</ele>
        <time>2013-05-10T11:48:59Z</time>
      </trkpt>
      <trkpt lat="44.4238" lon="5.13959">
        <ele>1068.1999511719</ele>
        <time>2013-05-10T11:49:02Z</time>
      </trkpt>
      <trkpt lat="44.42381" lon="5.13958">
        <ele>1068.8000488281</ele>
        <time>2013-05-10T11:49:03Z</time>
      </trkpt>
      <trkpt lat="44.42388" lon="5.13948">
        <ele>1071.4000244141</ele>
        <time>2013-05-10T11:49:14Z</time>
      </trkpt>
      <trkpt lat="44.42394" lon="5.13941">
        <ele>1071.4000244141</ele>
        <time>2013-05-10T11:49:23Z</time>
      </trkpt>
      <trkpt lat="44.42397" lon="5.13939">
        <ele>1071.4000244141</ele>
        <time>2013-05-10T11:49:31Z</time>
      </trkpt>
      <trkpt lat="44.42406" lon="5.13931">
        <ele>1071.8000488281</ele>
        <time>2013-05-10T11:49:39Z</time>
      </trkpt>
      <trkpt lat="44.4241" lon="5.13926">
        <ele>1073</ele>
        <time>2013-05-10T11:49:42Z</time>
      </trkpt>
      <trkpt lat="44.42416" lon="5.13919">
        <ele>1073.5999755859</ele>
        <time>2013-05-10T11:49:46Z</time>
      </trkpt>
      <trkpt lat="44.4242" lon="5.13914">
        <ele>1074</ele>
        <time>2013-05-10T11:49:49Z</time>
      </trkpt>
      <trkpt lat="44.42435" lon="5.13898">
        <ele>1074</ele>
        <time>2013-05-10T11:49:57Z</time>
      </trkpt>
      <trkpt lat="44.42448" lon="5.13886">
        <ele>1074</ele>
        <time>2013-05-10T11:50:02Z</time>
      </trkpt>
      <trkpt lat="44.42459" lon="5.13874">
        <ele>1074</ele>
        <time>2013-05-10T11:50:09Z</time>
      </trkpt>
      <trkpt lat="44.4246" lon="5.13873">
        <ele>1075.1999511719</ele>
        <time>2013-05-10T11:50:10Z</time>
      </trkpt>
      <trkpt lat="44.42466" lon="5.13885">
        <ele>1076.4000244141</ele>
        <time>2013-05-10T11:50:18Z</time>
      </trkpt>
      <trkpt lat="44.42464" lon="5.1389">
        <ele>1076.4000244141</ele>
        <time>2013-05-10T11:50:20Z</time>
      </trkpt>
      <trkpt lat="44.42459" lon="5.13902">
        <ele>1077</ele>
        <time>2013-05-10T11:50:25Z</time>
      </trkpt>
      <trkpt lat="44.42453" lon="5.13918">
        <ele>1077</ele>
        <time>2013-05-10T11:50:32Z</time>
      </trkpt>
      <trkpt lat="44.42447" lon="5.13933">
        <ele>1077</ele>
        <time>2013-05-10T11:50:39Z</time>
      </trkpt>
      <trkpt lat="44.42441" lon="5.1395">
        <ele>1077</ele>
        <time>2013-05-10T11:50:48Z</time>
      </trkpt>
      <trkpt lat="44.4244" lon="5.13951">
        <ele>1077.4000244141</ele>
        <time>2013-05-10T11:50:49Z</time>
      </trkpt>
      <trkpt lat="44.42438" lon="5.13958">
        <ele>1077.8000488281</ele>
        <time>2013-05-10T11:50:53Z</time>
      </trkpt>
      <trkpt lat="44.42437" lon="5.13961">
        <ele>1078.5999755859</ele>
        <time>2013-05-10T11:50:56Z</time>
      </trkpt>
      <trkpt lat="44.42433" lon="5.13974">
        <ele>1079.8000488281</ele>
        <time>2013-05-10T11:51:03Z</time>
      </trkpt>
      <trkpt lat="44.42429" lon="5.13983">
        <ele>1081.1999511719</ele>
        <time>2013-05-10T11:51:10Z</time>
      </trkpt>
      <trkpt lat="44.42422" lon="5.13998">
        <ele>1081.1999511719</ele>
        <time>2013-05-10T11:51:22Z</time>
      </trkpt>
      <trkpt lat="44.42421" lon="5.14004">
        <ele>1081.5999755859</ele>
        <time>2013-05-10T11:51:26Z</time>
      </trkpt>
      <trkpt lat="44.42419" lon="5.14011">
        <ele>1082.1999511719</ele>
        <time>2013-05-10T11:51:32Z</time>
      </trkpt>
      <trkpt lat="44.42414" lon="5.14023">
        <ele>1084.4000244141</ele>
        <time>2013-05-10T11:51:42Z</time>
      </trkpt>
      <trkpt lat="44.42408" lon="5.14032">
        <ele>1085.8000488281</ele>
        <time>2013-05-10T11:51:52Z</time>
      </trkpt>
      <trkpt lat="44.42407" lon="5.14042">
        <ele>1087</ele>
        <time>2013-05-10T11:51:59Z</time>
      </trkpt>
      <trkpt lat="44.42405" lon="5.1405">
        <ele>1088.1999511719</ele>
        <time>2013-05-10T11:52:06Z</time>
      </trkpt>
      <trkpt lat="44.42402" lon="5.14061">
        <ele>1089.1999511719</ele>
        <time>2013-05-10T11:52:16Z</time>
      </trkpt>
      <trkpt lat="44.424" lon="5.14069">
        <ele>1092.1999511719</ele>
        <time>2013-05-10T11:52:24Z</time>
      </trkpt>
      <trkpt lat="44.42398" lon="5.14074">
        <ele>1093</ele>
        <time>2013-05-10T11:52:27Z</time>
      </trkpt>
      <trkpt lat="44.42394" lon="5.14083">
        <ele>1094.1999511719</ele>
        <time>2013-05-10T11:52:37Z</time>
      </trkpt>
      <trkpt lat="44.42388" lon="5.14096">
        <ele>1095</ele>
        <time>2013-05-10T11:52:47Z</time>
      </trkpt>
      <trkpt lat="44.42386" lon="5.14101">
        <ele>1096</ele>
        <time>2013-05-10T11:52:51Z</time>
      </trkpt>
      <trkpt lat="44.42382" lon="5.1411">
        <ele>1098.4000244141</ele>
        <time>2013-05-10T11:53:02Z</time>
      </trkpt>
      <trkpt lat="44.42379" lon="5.14119">
        <ele>1099.4000244141</ele>
        <time>2013-05-10T11:53:08Z</time>
      </trkpt>
      <trkpt lat="44.42379" lon="5.14121">
        <ele>1099.8000488281</ele>
        <time>2013-05-10T11:53:09Z</time>
      </trkpt>
      <trkpt lat="44.42376" lon="5.1413">
        <ele>1101.1999511719</ele>
        <time>2013-05-10T11:53:16Z</time>
      </trkpt>
      <trkpt lat="44.42375" lon="5.14142">
        <ele>1103</ele>
        <time>2013-05-10T11:53:27Z</time>
      </trkpt>
      <trkpt lat="44.42372" lon="5.14151">
        <ele>1104.1999511719</ele>
        <time>2013-05-10T11:53:34Z</time>
      </trkpt>
      <trkpt lat="44.42366" lon="5.14161">
        <ele>1104.5999755859</ele>
        <time>2013-05-10T11:53:41Z</time>
      </trkpt>
      <trkpt lat="44.42362" lon="5.1417">
        <ele>1105.4000244141</ele>
        <time>2013-05-10T11:53:47Z</time>
      </trkpt>
      <trkpt lat="44.42359" lon="5.14181">
        <ele>1106.8000488281</ele>
        <time>2013-05-10T11:53:55Z</time>
      </trkpt>
      <trkpt lat="44.42356" lon="5.14193">
        <ele>1107.8000488281</ele>
        <time>2013-05-10T11:54:02Z</time>
      </trkpt>
      <trkpt lat="44.42352" lon="5.14203">
        <ele>1108.8000488281</ele>
        <time>2013-05-10T11:54:08Z</time>
      </trkpt>
      <trkpt lat="44.42349" lon="5.14212">
        <ele>1109.1999511719</ele>
        <time>2013-05-10T11:54:21Z</time>
      </trkpt>
      <trkpt lat="44.42344" lon="5.1422">
        <ele>1110.5999755859</ele>
        <time>2013-05-10T11:54:28Z</time>
      </trkpt>
      <trkpt lat="44.42338" lon="5.14234">
        <ele>1111.5999755859</ele>
        <time>2013-05-10T11:54:36Z</time>
      </trkpt>
      <trkpt lat="44.42334" lon="5.14243">
        <ele>1112.8000488281</ele>
        <time>2013-05-10T11:54:42Z</time>
      </trkpt>
      <trkpt lat="44.42327" lon="5.14259">
        <ele>1114.1999511719</ele>
        <time>2013-05-10T11:54:53Z</time>
      </trkpt>
      <trkpt lat="44.42324" lon="5.14264">
        <ele>1114.8000488281</ele>
        <time>2013-05-10T11:54:56Z</time>
      </trkpt>
      <trkpt lat="44.42322" lon="5.14271">
        <ele>1115.8000488281</ele>
        <time>2013-05-10T11:55:00Z</time>
      </trkpt>
      <trkpt lat="44.42318" lon="5.14283">
        <ele>1116.5999755859</ele>
        <time>2013-05-10T11:55:07Z</time>
      </trkpt>
      <trkpt lat="44.42313" lon="5.14293">
        <ele>1117.8000488281</ele>
        <time>2013-05-10T11:55:14Z</time>
      </trkpt>
      <trkpt lat="44.4231" lon="5.14302">
        <ele>1119.1999511719</ele>
        <time>2013-05-10T11:55:20Z</time>
      </trkpt>
      <trkpt lat="44.42307" lon="5.1431">
        <ele>1121</ele>
        <time>2013-05-10T11:55:27Z</time>
      </trkpt>
      <trkpt lat="44.42303" lon="5.14323">
        <ele>1122.4000244141</ele>
        <time>2013-05-10T11:55:34Z</time>
      </trkpt>
      <trkpt lat="44.423" lon="5.14332">
        <ele>1123.5999755859</ele>
        <time>2013-05-10T11:55:39Z</time>
      </trkpt>
      <trkpt lat="44.42299" lon="5.14335">
        <ele>1124.1999511719</ele>
        <time>2013-05-10T11:55:42Z</time>
      </trkpt>
      <trkpt lat="44.42297" lon="5.1434">
        <ele>1125</ele>
        <time>2013-05-10T11:55:46Z</time>
      </trkpt>
      <trkpt lat="44.42287" lon="5.14362">
        <ele>1126.4000244141</ele>
        <time>2013-05-10T11:56:00Z</time>
      </trkpt>
      <trkpt lat="44.42282" lon="5.14373">
        <ele>1127.1999511719</ele>
        <time>2013-05-10T11:56:06Z</time>
      </trkpt>
      <trkpt lat="44.42278" lon="5.14382">
        <ele>1127.8000488281</ele>
        <time>2013-05-10T11:56:10Z</time>
      </trkpt>
      <trkpt lat="44.42274" lon="5.14391">
        <ele>1128.4000244141</ele>
        <time>2013-05-10T11:56:14Z</time>
      </trkpt>
      <trkpt lat="44.4227" lon="5.14398">
        <ele>1129</ele>
        <time>2013-05-10T11:56:17Z</time>
      </trkpt>
      <trkpt lat="44.42267" lon="5.14403">
        <ele>1129</ele>
        <time>2013-05-10T11:56:19Z</time>
      </trkpt>
      <trkpt lat="44.4226" lon="5.14416">
        <ele>1130.8000488281</ele>
        <time>2013-05-10T11:56:25Z</time>
      </trkpt>
      <trkpt lat="44.42254" lon="5.14425">
        <ele>1130.8000488281</ele>
        <time>2013-05-10T11:56:30Z</time>
      </trkpt>
      <trkpt lat="44.42245" lon="5.14442">
        <ele>1130.8000488281</ele>
        <time>2013-05-10T11:56:37Z</time>
      </trkpt>
      <trkpt lat="44.42253" lon="5.14444">
        <ele>1131.1999511719</ele>
        <time>2013-05-10T11:56:43Z</time>
      </trkpt>
      <trkpt lat="44.42256" lon="5.14438">
        <ele>1131.1999511719</ele>
        <time>2013-05-10T11:56:46Z</time>
      </trkpt>
      <trkpt lat="44.4226" lon="5.14432">
        <ele>1131.8000488281</ele>
        <time>2013-05-10T11:56:50Z</time>
      </trkpt>
      <trkpt lat="44.42262" lon="5.1443">
        <ele>1132.1999511719</ele>
        <time>2013-05-10T11:56:51Z</time>
      </trkpt>
      <trkpt lat="44.4227" lon="5.14419">
        <ele>1133.1999511719</ele>
        <time>2013-05-10T11:56:58Z</time>
      </trkpt>
      <trkpt lat="44.42279" lon="5.14408">
        <ele>1133.1999511719</ele>
        <time>2013-05-10T11:57:05Z</time>
      </trkpt>
      <trkpt lat="44.42287" lon="5.14403">
        <ele>1133.5999755859</ele>
        <time>2013-05-10T11:57:12Z</time>
      </trkpt>
      <trkpt lat="44.42292" lon="5.144">
        <ele>1134</ele>
        <time>2013-05-10T11:57:16Z</time>
      </trkpt>
      <trkpt lat="44.42296" lon="5.14398">
        <ele>1134.5999755859</ele>
        <time>2013-05-10T11:57:19Z</time>
      </trkpt>
      <trkpt lat="44.423" lon="5.14393">
        <ele>1135</ele>
        <time>2013-05-10T11:57:23Z</time>
      </trkpt>
      <trkpt lat="44.42307" lon="5.14387">
        <ele>1136.5999755859</ele>
        <time>2013-05-10T11:57:30Z</time>
      </trkpt>
      <trkpt lat="44.4231" lon="5.14384">
        <ele>1137</ele>
        <time>2013-05-10T11:57:33Z</time>
      </trkpt>
      <trkpt lat="44.42319" lon="5.14379">
        <ele>1138.4000244141</ele>
        <time>2013-05-10T11:57:40Z</time>
      </trkpt>
      <trkpt lat="44.42322" lon="5.14377">
        <ele>1138.4000244141</ele>
        <time>2013-05-10T11:57:43Z</time>
      </trkpt>
      <trkpt lat="44.42332" lon="5.14371">
        <ele>1139.8000488281</ele>
        <time>2013-05-10T11:57:52Z</time>
      </trkpt>
      <trkpt lat="44.42342" lon="5.14365">
        <ele>1140.4000244141</ele>
        <time>2013-05-10T11:58:01Z</time>
      </trkpt>
      <trkpt lat="44.42353" lon="5.14359">
        <ele>1141.8000488281</ele>
        <time>2013-05-10T11:58:08Z</time>
      </trkpt>
      <trkpt lat="44.42366" lon="5.14349">
        <ele>1142.4000244141</ele>
        <time>2013-05-10T11:58:19Z</time>
      </trkpt>
      <trkpt lat="44.42374" lon="5.1434">
        <ele>1143.4000244141</ele>
        <time>2013-05-10T11:58:26Z</time>
      </trkpt>
      <trkpt lat="44.42377" lon="5.14338">
        <ele>1143.4000244141</ele>
        <time>2013-05-10T11:58:28Z</time>
      </trkpt>
      <trkpt lat="44.42385" lon="5.14331">
        <ele>1144.8000488281</ele>
        <time>2013-05-10T11:58:33Z</time>
      </trkpt>
      <trkpt lat="44.42392" lon="5.14325">
        <ele>1144.8000488281</ele>
        <time>2013-05-10T11:58:37Z</time>
      </trkpt>
      <trkpt lat="44.42404" lon="5.14317">
        <ele>1146</ele>
        <time>2013-05-10T11:58:43Z</time>
      </trkpt>
      <trkpt lat="44.42411" lon="5.14311">
        <ele>1146.8000488281</ele>
        <time>2013-05-10T11:58:47Z</time>
      </trkpt>
      <trkpt lat="44.42413" lon="5.1431">
        <ele>1146.8000488281</ele>
        <time>2013-05-10T11:58:48Z</time>
      </trkpt>
      <trkpt lat="44.42419" lon="5.14298">
        <ele>1146.8000488281</ele>
        <time>2013-05-10T11:58:53Z</time>
      </trkpt>
      <trkpt lat="44.42427" lon="5.14294">
        <ele>1147.4000244141</ele>
        <time>2013-05-10T11:58:57Z</time>
      </trkpt>
      <trkpt lat="44.42434" lon="5.14289">
        <ele>1147.4000244141</ele>
        <time>2013-05-10T11:59:00Z</time>
      </trkpt>
      <trkpt lat="44.42444" lon="5.14278">
        <ele>1148.8000488281</ele>
        <time>2013-05-10T11:59:06Z</time>
      </trkpt>
      <trkpt lat="44.42454" lon="5.14269">
        <ele>1149.4000244141</ele>
        <time>2013-05-10T11:59:13Z</time>
      </trkpt>
      <trkpt lat="44.42471" lon="5.1426">
        <ele>1149.8000488281</ele>
        <time>2013-05-10T11:59:23Z</time>
      </trkpt>
      <trkpt lat="44.42473" lon="5.14256">
        <ele>1151</ele>
        <time>2013-05-10T11:59:25Z</time>
      </trkpt>
      <trkpt lat="44.42478" lon="5.14249">
        <ele>1152.8000488281</ele>
        <time>2013-05-10T11:59:29Z</time>
      </trkpt>
      <trkpt lat="44.42481" lon="5.14245">
        <ele>1152.8000488281</ele>
        <time>2013-05-10T11:59:31Z</time>
      </trkpt>
      <trkpt lat="44.42488" lon="5.14233">
        <ele>1155.4000244141</ele>
        <time>2013-05-10T11:59:36Z</time>
      </trkpt>
      <trkpt lat="44.42492" lon="5.14229">
        <ele>1155.4000244141</ele>
        <time>2013-05-10T11:59:38Z</time>
      </trkpt>
      <trkpt lat="44.42499" lon="5.14214">
        <ele>1156.4000244141</ele>
        <time>2013-05-10T11:59:44Z</time>
      </trkpt>
      <trkpt lat="44.42509" lon="5.14197">
        <ele>1156.4000244141</ele>
        <time>2013-05-10T11:59:51Z</time>
      </trkpt>
      <trkpt lat="44.42521" lon="5.14165">
        <ele>1156.4000244141</ele>
        <time>2013-05-10T11:59:59Z</time>
      </trkpt>
      <trkpt lat="44.42526" lon="5.14158">
        <ele>1155.4000244141</ele>
        <time>2013-05-10T12:00:02Z</time>
      </trkpt>
      <trkpt lat="44.42528" lon="5.1416">
        <ele>1164.8000488281</ele>
        <time>2013-05-10T12:01:12Z</time>
      </trkpt>
      <trkpt lat="44.4253" lon="5.14162">
        <ele>1185.4000244141</ele>
        <time>2013-05-10T12:04:20Z</time>
      </trkpt>
      <trkpt lat="44.42534" lon="5.14176">
        <ele>1185.8000488281</ele>
        <time>2013-05-10T12:04:38Z</time>
      </trkpt>
      <trkpt lat="44.42533" lon="5.14182">
        <ele>1186.4000244141</ele>
        <time>2013-05-10T12:04:41Z</time>
      </trkpt>
      <trkpt lat="44.4254" lon="5.14188">
        <ele>1188.8000488281</ele>
        <time>2013-05-10T12:04:52Z</time>
      </trkpt>
      <trkpt lat="44.42543" lon="5.1419">
        <ele>1189.4000244141</ele>
        <time>2013-05-10T12:04:57Z</time>
      </trkpt>
      <trkpt lat="44.42547" lon="5.1419">
        <ele>1189.8000488281</ele>
        <time>2013-05-10T12:05:04Z</time>
      </trkpt>
      <trkpt lat="44.42551" lon="5.14188">
        <ele>1191.1999511719</ele>
        <time>2013-05-10T12:05:09Z</time>
      </trkpt>
      <trkpt lat="44.4256" lon="5.1419">
        <ele>1193.8000488281</ele>
        <time>2013-05-10T12:05:20Z</time>
      </trkpt>
      <trkpt lat="44.42561" lon="5.1419">
        <ele>1193.8000488281</ele>
        <time>2013-05-10T12:05:21Z</time>
      </trkpt>
      <trkpt lat="44.42568" lon="5.1419">
        <ele>1194.8000488281</ele>
        <time>2013-05-10T12:05:30Z</time>
      </trkpt>
      <trkpt lat="44.42571" lon="5.14189">
        <ele>1195.8000488281</ele>
        <time>2013-05-10T12:05:34Z</time>
      </trkpt>
      <trkpt lat="44.42582" lon="5.14185">
        <ele>1197.1999511719</ele>
        <time>2013-05-10T12:05:48Z</time>
      </trkpt>
      <trkpt lat="44.4259" lon="5.14183">
        <ele>1199</ele>
        <time>2013-05-10T12:05:59Z</time>
      </trkpt>
      <trkpt lat="44.42608" lon="5.14181">
        <ele>1201.4000244141</ele>
        <time>2013-05-10T12:06:09Z</time>
      </trkpt>
      <trkpt lat="44.42611" lon="5.14181">
        <ele>1201.4000244141</ele>
        <time>2013-05-10T12:06:10Z</time>
      </trkpt>
      <trkpt lat="44.42625" lon="5.14184">
        <ele>1202</ele>
        <time>2013-05-10T12:06:17Z</time>
      </trkpt>
      <trkpt lat="44.42632" lon="5.14179">
        <ele>1202</ele>
        <time>2013-05-10T12:06:27Z</time>
      </trkpt>
      <trkpt lat="44.42641" lon="5.14172">
        <ele>1202.5999755859</ele>
        <time>2013-05-10T12:07:37Z</time>
      </trkpt>
      <trkpt lat="44.42642" lon="5.1417">
        <ele>1203.8000488281</ele>
        <time>2013-05-10T12:07:44Z</time>
      </trkpt>
      <trkpt lat="44.4265" lon="5.1416">
        <ele>1206.4000244141</ele>
        <time>2013-05-10T12:08:04Z</time>
      </trkpt>
      <trkpt lat="44.42651" lon="5.1416">
        <ele>1206.4000244141</ele>
        <time>2013-05-10T12:08:06Z</time>
      </trkpt>
      <trkpt lat="44.42661" lon="5.14153">
        <ele>1210.4000244141</ele>
        <time>2013-05-10T12:08:32Z</time>
      </trkpt>
      <trkpt lat="44.42669" lon="5.14144">
        <ele>1213.5999755859</ele>
        <time>2013-05-10T12:09:04Z</time>
      </trkpt>
      <trkpt lat="44.4267" lon="5.1414">
        <ele>1214</ele>
        <time>2013-05-10T12:09:07Z</time>
      </trkpt>
      <trkpt lat="44.4268" lon="5.14124">
        <ele>1220.1999511719</ele>
        <time>2013-05-10T12:10:38Z</time>
      </trkpt>
      <trkpt lat="44.42682" lon="5.14121">
        <ele>1220.1999511719</ele>
        <time>2013-05-10T12:10:39Z</time>
      </trkpt>
      <trkpt lat="44.42685" lon="5.14111">
        <ele>1220.1999511719</ele>
        <time>2013-05-10T12:10:42Z</time>
      </trkpt>
      <trkpt lat="44.42686" lon="5.14104">
        <ele>1220.1999511719</ele>
        <time>2013-05-10T12:10:44Z</time>
      </trkpt>
      <trkpt lat="44.42687" lon="5.14097">
        <ele>1219.8000488281</ele>
        <time>2013-05-10T12:10:46Z</time>
      </trkpt>
      <trkpt lat="44.42688" lon="5.14087">
        <ele>1218.8000488281</ele>
        <time>2013-05-10T12:10:48Z</time>
      </trkpt>
      <trkpt lat="44.42691" lon="5.14077">
        <ele>1218</ele>
        <time>2013-05-10T12:10:50Z</time>
      </trkpt>
      <trkpt lat="44.42691" lon="5.14067">
        <ele>1217.1999511719</ele>
        <time>2013-05-10T12:10:52Z</time>
      </trkpt>
      <trkpt lat="44.4269" lon="5.14063">
        <ele>1216.8000488281</ele>
        <time>2013-05-10T12:10:53Z</time>
      </trkpt>
      <trkpt lat="44.4269" lon="5.14062">
        <ele>1215.4000244141</ele>
        <time>2013-05-10T12:10:57Z</time>
      </trkpt>
      <trkpt lat="44.42691" lon="5.14057">
        <ele>1213.8000488281</ele>
        <time>2013-05-10T12:13:50Z</time>
      </trkpt>
      <trkpt lat="44.4269" lon="5.14057">
        <ele>1211.8000488281</ele>
        <time>2013-05-10T12:13:58Z</time>
      </trkpt>
      <trkpt lat="44.42688" lon="5.14045">
        <ele>1211.8000488281</ele>
        <time>2013-05-10T12:14:03Z</time>
      </trkpt>
      <trkpt lat="44.42687" lon="5.14021">
        <ele>1211.8000488281</ele>
        <time>2013-05-10T12:14:10Z</time>
      </trkpt>
      <trkpt lat="44.42688" lon="5.14016">
        <ele>1211.8000488281</ele>
        <time>2013-05-10T12:14:12Z</time>
      </trkpt>
      <trkpt lat="44.42686" lon="5.14007">
        <ele>1211.5999755859</ele>
        <time>2013-05-10T12:15:20Z</time>
      </trkpt>
      <trkpt lat="44.42685" lon="5.13999">
        <ele>1211.5999755859</ele>
        <time>2013-05-10T12:15:22Z</time>
      </trkpt>
      <trkpt lat="44.42684" lon="5.13975">
        <ele>1211.5999755859</ele>
        <time>2013-05-10T12:15:27Z</time>
      </trkpt>
      <trkpt lat="44.42683" lon="5.13967">
        <ele>1210</ele>
        <time>2013-05-10T12:15:29Z</time>
      </trkpt>
      <trkpt lat="44.42681" lon="5.13957">
        <ele>1208</ele>
        <time>2013-05-10T12:15:31Z</time>
      </trkpt>
      <trkpt lat="44.42679" lon="5.13949">
        <ele>1206</ele>
        <time>2013-05-10T12:15:33Z</time>
      </trkpt>
      <trkpt lat="44.42677" lon="5.13935">
        <ele>1202.8000488281</ele>
        <time>2013-05-10T12:15:36Z</time>
      </trkpt>
      <trkpt lat="44.42677" lon="5.13927">
        <ele>1200.8000488281</ele>
        <time>2013-05-10T12:15:38Z</time>
      </trkpt>
      <trkpt lat="44.42677" lon="5.13919">
        <ele>1199.1999511719</ele>
        <time>2013-05-10T12:15:40Z</time>
      </trkpt>
      <trkpt lat="44.42676" lon="5.13907">
        <ele>1197</ele>
        <time>2013-05-10T12:15:43Z</time>
      </trkpt>
      <trkpt lat="44.42675" lon="5.139">
        <ele>1196</ele>
        <time>2013-05-10T12:15:45Z</time>
      </trkpt>
      <trkpt lat="44.42674" lon="5.13887">
        <ele>1194.8000488281</ele>
        <time>2013-05-10T12:15:48Z</time>
      </trkpt>
      <trkpt lat="44.42672" lon="5.13876">
        <ele>1193.8000488281</ele>
        <time>2013-05-10T12:15:50Z</time>
      </trkpt>
      <trkpt lat="44.4267" lon="5.13866">
        <ele>1192.1999511719</ele>
        <time>2013-05-10T12:15:52Z</time>
      </trkpt>
      <trkpt lat="44.42669" lon="5.13861">
        <ele>1191.4000244141</ele>
        <time>2013-05-10T12:15:53Z</time>
      </trkpt>
      <trkpt lat="44.42668" lon="5.13857">
        <ele>1190.5999755859</ele>
        <time>2013-05-10T12:15:54Z</time>
      </trkpt>
      <trkpt lat="44.42666" lon="5.13848">
        <ele>1188</ele>
        <time>2013-05-10T12:15:58Z</time>
      </trkpt>
      <trkpt lat="44.42666" lon="5.1384">
        <ele>1187.1999511719</ele>
        <time>2013-05-10T12:16:00Z</time>
      </trkpt>
      <trkpt lat="44.42667" lon="5.13811">
        <ele>1187.8000488281</ele>
        <time>2013-05-10T12:16:07Z</time>
      </trkpt>
      <trkpt lat="44.42667" lon="5.13805">
        <ele>1188.1999511719</ele>
        <time>2013-05-10T12:16:08Z</time>
      </trkpt>
      <trkpt lat="44.42666" lon="5.13798">
        <ele>1188.5999755859</ele>
        <time>2013-05-10T12:16:09Z</time>
      </trkpt>
      <trkpt lat="44.42665" lon="5.13785">
        <ele>1188.8000488281</ele>
        <time>2013-05-10T12:16:11Z</time>
      </trkpt>
      <trkpt lat="44.42662" lon="5.13778">
        <ele>1187.1999511719</ele>
        <time>2013-05-10T12:16:13Z</time>
      </trkpt>
      <trkpt lat="44.42663" lon="5.13768">
        <ele>1185</ele>
        <time>2013-05-10T12:16:16Z</time>
      </trkpt>
      <trkpt lat="44.42664" lon="5.13756">
        <ele>1185.8000488281</ele>
        <time>2013-05-10T12:16:19Z</time>
      </trkpt>
      <trkpt lat="44.42665" lon="5.13746">
        <ele>1187.4000244141</ele>
        <time>2013-05-10T12:16:21Z</time>
      </trkpt>
      <trkpt lat="44.42665" lon="5.1374">
        <ele>1188.1999511719</ele>
        <time>2013-05-10T12:16:22Z</time>
      </trkpt>
      <trkpt lat="44.42669" lon="5.13694">
        <ele>1188.8000488281</ele>
        <time>2013-05-10T12:16:29Z</time>
      </trkpt>
      <trkpt lat="44.42671" lon="5.13687">
        <ele>1188.1999511719</ele>
        <time>2013-05-10T12:16:30Z</time>
      </trkpt>
      <trkpt lat="44.42674" lon="5.13673">
        <ele>1186.4000244141</ele>
        <time>2013-05-10T12:16:32Z</time>
      </trkpt>
      <trkpt lat="44.42675" lon="5.13666">
        <ele>1185.1999511719</ele>
        <time>2013-05-10T12:16:33Z</time>
      </trkpt>
      <trkpt lat="44.42677" lon="5.13659">
        <ele>1184</ele>
        <time>2013-05-10T12:16:34Z</time>
      </trkpt>
      <trkpt lat="44.42681" lon="5.13644">
        <ele>1182</ele>
        <time>2013-05-10T12:16:36Z</time>
      </trkpt>
      <trkpt lat="44.42684" lon="5.13635">
        <ele>1180.8000488281</ele>
        <time>2013-05-10T12:16:37Z</time>
      </trkpt>
      <trkpt lat="44.42686" lon="5.13627">
        <ele>1179.8000488281</ele>
        <time>2013-05-10T12:16:38Z</time>
      </trkpt>
      <trkpt lat="44.42691" lon="5.13613">
        <ele>1176.8000488281</ele>
        <time>2013-05-10T12:16:40Z</time>
      </trkpt>
      <trkpt lat="44.42694" lon="5.13607">
        <ele>1175.1999511719</ele>
        <time>2013-05-10T12:16:41Z</time>
      </trkpt>
      <trkpt lat="44.42704" lon="5.13598">
        <ele>1172</ele>
        <time>2013-05-10T12:16:43Z</time>
      </trkpt>
      <trkpt lat="44.42715" lon="5.13588">
        <ele>1169.8000488281</ele>
        <time>2013-05-10T12:16:45Z</time>
      </trkpt>
      <trkpt lat="44.4272" lon="5.13583">
        <ele>1168.5999755859</ele>
        <time>2013-05-10T12:16:46Z</time>
      </trkpt>
      <trkpt lat="44.42725" lon="5.13578">
        <ele>1167.4000244141</ele>
        <time>2013-05-10T12:16:47Z</time>
      </trkpt>
      <trkpt lat="44.4273" lon="5.13571">
        <ele>1166.1999511719</ele>
        <time>2013-05-10T12:16:48Z</time>
      </trkpt>
      <trkpt lat="44.42735" lon="5.13566">
        <ele>1165</ele>
        <time>2013-05-10T12:16:49Z</time>
      </trkpt>
      <trkpt lat="44.42741" lon="5.13561">
        <ele>1163.5999755859</ele>
        <time>2013-05-10T12:16:50Z</time>
      </trkpt>
      <trkpt lat="44.42747" lon="5.13556">
        <ele>1162.1999511719</ele>
        <time>2013-05-10T12:16:51Z</time>
      </trkpt>
      <trkpt lat="44.42754" lon="5.13551">
        <ele>1160.5999755859</ele>
        <time>2013-05-10T12:16:52Z</time>
      </trkpt>
      <trkpt lat="44.42761" lon="5.13546">
        <ele>1159.1999511719</ele>
        <time>2013-05-10T12:16:53Z</time>
      </trkpt>
      <trkpt lat="44.42775" lon="5.13537">
        <ele>1156</ele>
        <time>2013-05-10T12:16:55Z</time>
      </trkpt>
      <trkpt lat="44.42781" lon="5.13532">
        <ele>1154.1999511719</ele>
        <time>2013-05-10T12:16:56Z</time>
      </trkpt>
      <trkpt lat="44.42787" lon="5.13528">
        <ele>1153</ele>
        <time>2013-05-10T12:16:57Z</time>
      </trkpt>
      <trkpt lat="44.42791" lon="5.13524">
        <ele>1151.8000488281</ele>
        <time>2013-05-10T12:16:58Z</time>
      </trkpt>
      <trkpt lat="44.42801" lon="5.13519">
        <ele>1149.4000244141</ele>
        <time>2013-05-10T12:17:00Z</time>
      </trkpt>
      <trkpt lat="44.42812" lon="5.1351">
        <ele>1146.4000244141</ele>
        <time>2013-05-10T12:17:03Z</time>
      </trkpt>
      <trkpt lat="44.4282" lon="5.13505">
        <ele>1144.1999511719</ele>
        <time>2013-05-10T12:17:06Z</time>
      </trkpt>
      <trkpt lat="44.42827" lon="5.13499">
        <ele>1140.5999755859</ele>
        <time>2013-05-10T12:17:10Z</time>
      </trkpt>
      <trkpt lat="44.42831" lon="5.13496">
        <ele>1140.5999755859</ele>
        <time>2013-05-10T12:17:12Z</time>
      </trkpt>
      <trkpt lat="44.42846" lon="5.13486">
        <ele>1140.1999511719</ele>
        <time>2013-05-10T12:17:17Z</time>
      </trkpt>
      <trkpt lat="44.42852" lon="5.1348">
        <ele>1139.1999511719</ele>
        <time>2013-05-10T12:17:19Z</time>
      </trkpt>
      <trkpt lat="44.4286" lon="5.1347">
        <ele>1137.1999511719</ele>
        <time>2013-05-10T12:17:23Z</time>
      </trkpt>
      <trkpt lat="44.42863" lon="5.13467">
        <ele>1136.5999755859</ele>
        <time>2013-05-10T12:17:24Z</time>
      </trkpt>
      <trkpt lat="44.42872" lon="5.1346">
        <ele>1135</ele>
        <time>2013-05-10T12:17:27Z</time>
      </trkpt>
      <trkpt lat="44.42875" lon="5.13457">
        <ele>1134.4000244141</ele>
        <time>2013-05-10T12:17:28Z</time>
      </trkpt>
      <trkpt lat="44.42882" lon="5.13448">
        <ele>1132.5999755859</ele>
        <time>2013-05-10T12:17:31Z</time>
      </trkpt>
      <trkpt lat="44.42888" lon="5.13439">
        <ele>1130</ele>
        <time>2013-05-10T12:17:34Z</time>
      </trkpt>
      <trkpt lat="44.4289" lon="5.13436">
        <ele>1129.1999511719</ele>
        <time>2013-05-10T12:17:35Z</time>
      </trkpt>
      <trkpt lat="44.42901" lon="5.13432">
        <ele>1126.5999755859</ele>
        <time>2013-05-10T12:17:39Z</time>
      </trkpt>
      <trkpt lat="44.42904" lon="5.13429">
        <ele>1125.8000488281</ele>
        <time>2013-05-10T12:17:40Z</time>
      </trkpt>
      <trkpt lat="44.4291" lon="5.1342">
        <ele>1123.8000488281</ele>
        <time>2013-05-10T12:17:43Z</time>
      </trkpt>
      <trkpt lat="44.42913" lon="5.13417">
        <ele>1123</ele>
        <time>2013-05-10T12:17:44Z</time>
      </trkpt>
      <trkpt lat="44.42918" lon="5.13407">
        <ele>1120.5999755859</ele>
        <time>2013-05-10T12:17:47Z</time>
      </trkpt>
      <trkpt lat="44.42921" lon="5.13403">
        <ele>1119.8000488281</ele>
        <time>2013-05-10T12:17:48Z</time>
      </trkpt>
      <trkpt lat="44.42926" lon="5.13394">
        <ele>1118</ele>
        <time>2013-05-10T12:17:50Z</time>
      </trkpt>
      <trkpt lat="44.4293" lon="5.13386">
        <ele>1116.4000244141</ele>
        <time>2013-05-10T12:17:52Z</time>
      </trkpt>
      <trkpt lat="44.42933" lon="5.13383">
        <ele>1116.4000244141</ele>
        <time>2013-05-10T12:17:53Z</time>
      </trkpt>
      <trkpt lat="44.42937" lon="5.13377">
        <ele>1113.4000244141</ele>
        <time>2013-05-10T12:17:55Z</time>
      </trkpt>
      <trkpt lat="44.42941" lon="5.13369">
        <ele>1111.5999755859</ele>
        <time>2013-05-10T12:17:57Z</time>
      </trkpt>
      <trkpt lat="44.42947" lon="5.13357">
        <ele>1108.8000488281</ele>
        <time>2013-05-10T12:18:00Z</time>
      </trkpt>
      <trkpt lat="44.4295" lon="5.13353">
        <ele>1107.5999755859</ele>
        <time>2013-05-10T12:18:01Z</time>
      </trkpt>
      <trkpt lat="44.42951" lon="5.13348">
        <ele>1106.4000244141</ele>
        <time>2013-05-10T12:18:02Z</time>
      </trkpt>
      <trkpt lat="44.42956" lon="5.13336">
        <ele>1103</ele>
        <time>2013-05-10T12:18:05Z</time>
      </trkpt>
      <trkpt lat="44.42958" lon="5.13327">
        <ele>1100.8000488281</ele>
        <time>2013-05-10T12:18:07Z</time>
      </trkpt>
      <trkpt lat="44.4296" lon="5.13319">
        <ele>1098.5999755859</ele>
        <time>2013-05-10T12:18:09Z</time>
      </trkpt>
      <trkpt lat="44.4296" lon="5.13314">
        <ele>1097.4000244141</ele>
        <time>2013-05-10T12:18:10Z</time>
      </trkpt>
      <trkpt lat="44.42961" lon="5.13309">
        <ele>1096.4000244141</ele>
        <time>2013-05-10T12:18:11Z</time>
      </trkpt>
      <trkpt lat="44.42962" lon="5.13298">
        <ele>1094.4000244141</ele>
        <time>2013-05-10T12:18:13Z</time>
      </trkpt>
      <trkpt lat="44.42962" lon="5.13285">
        <ele>1092.4000244141</ele>
        <time>2013-05-10T12:18:15Z</time>
      </trkpt>
      <trkpt lat="44.42963" lon="5.13275">
        <ele>1089.8000488281</ele>
        <time>2013-05-10T12:18:17Z</time>
      </trkpt>
      <trkpt lat="44.42964" lon="5.13264">
        <ele>1088</ele>
        <time>2013-05-10T12:18:19Z</time>
      </trkpt>
      <trkpt lat="44.42963" lon="5.13259">
        <ele>1086.5999755859</ele>
        <time>2013-05-10T12:18:20Z</time>
      </trkpt>
      <trkpt lat="44.42963" lon="5.13248">
        <ele>1084</ele>
        <time>2013-05-10T12:18:22Z</time>
      </trkpt>
      <trkpt lat="44.42963" lon="5.13238">
        <ele>1081.1999511719</ele>
        <time>2013-05-10T12:18:24Z</time>
      </trkpt>
      <trkpt lat="44.42964" lon="5.13225">
        <ele>1078.5999755859</ele>
        <time>2013-05-10T12:18:26Z</time>
      </trkpt>
      <trkpt lat="44.42963" lon="5.13219">
        <ele>1077.4000244141</ele>
        <time>2013-05-10T12:18:27Z</time>
      </trkpt>
      <trkpt lat="44.42966" lon="5.13208">
        <ele>1075</ele>
        <time>2013-05-10T12:18:29Z</time>
      </trkpt>
      <trkpt lat="44.42969" lon="5.13196">
        <ele>1072.4000244141</ele>
        <time>2013-05-10T12:18:31Z</time>
      </trkpt>
      <trkpt lat="44.42969" lon="5.13185">
        <ele>1069.8000488281</ele>
        <time>2013-05-10T12:18:33Z</time>
      </trkpt>
      <trkpt lat="44.42968" lon="5.13179">
        <ele>1068.4000244141</ele>
        <time>2013-05-10T12:18:34Z</time>
      </trkpt>
      <trkpt lat="44.42965" lon="5.13169">
        <ele>1065.8000488281</ele>
        <time>2013-05-10T12:18:36Z</time>
      </trkpt>
      <trkpt lat="44.42962" lon="5.13155">
        <ele>1062</ele>
        <time>2013-05-10T12:18:39Z</time>
      </trkpt>
      <trkpt lat="44.42962" lon="5.1315">
        <ele>1060.5999755859</ele>
        <time>2013-05-10T12:18:40Z</time>
      </trkpt>
      <trkpt lat="44.42962" lon="5.13137">
        <ele>1056.5999755859</ele>
        <time>2013-05-10T12:18:43Z</time>
      </trkpt>
      <trkpt lat="44.42964" lon="5.13128">
        <ele>1054</ele>
        <time>2013-05-10T12:18:45Z</time>
      </trkpt>
      <trkpt lat="44.42965" lon="5.13117">
        <ele>1051.5999755859</ele>
        <time>2013-05-10T12:18:47Z</time>
      </trkpt>
      <trkpt lat="44.42963" lon="5.13107">
        <ele>1048.8000488281</ele>
        <time>2013-05-10T12:18:49Z</time>
      </trkpt>
      <trkpt lat="44.42961" lon="5.13099">
        <ele>1046.1999511719</ele>
        <time>2013-05-10T12:18:51Z</time>
      </trkpt>
      <trkpt lat="44.42963" lon="5.13089">
        <ele>1043.5999755859</ele>
        <time>2013-05-10T12:18:53Z</time>
      </trkpt>
      <trkpt lat="44.42968" lon="5.1308">
        <ele>1037.4000244141</ele>
        <time>2013-05-10T12:18:58Z</time>
      </trkpt>
      <trkpt lat="44.42968" lon="5.13081">
        <ele>1037.4000244141</ele>
        <time>2013-05-10T12:19:01Z</time>
      </trkpt>
      <trkpt lat="44.42967" lon="5.1308">
        <ele>1036</ele>
        <time>2013-05-10T12:19:05Z</time>
      </trkpt>
      <trkpt lat="44.4297" lon="5.13069">
        <ele>1032</ele>
        <time>2013-05-10T12:19:24Z</time>
      </trkpt>
      <trkpt lat="44.4297" lon="5.13068">
        <ele>1031.4000244141</ele>
        <time>2013-05-10T12:19:25Z</time>
      </trkpt>
      <trkpt lat="44.42973" lon="5.13057">
        <ele>1030</ele>
        <time>2013-05-10T12:19:40Z</time>
      </trkpt>
      <trkpt lat="44.42976" lon="5.13048">
        <ele>1028.4000244141</ele>
        <time>2013-05-10T12:19:43Z</time>
      </trkpt>
      <trkpt lat="44.42977" lon="5.13039">
        <ele>1025.8000488281</ele>
        <time>2013-05-10T12:19:47Z</time>
      </trkpt>
      <trkpt lat="44.42978" lon="5.13028">
        <ele>1021.200012207</ele>
        <time>2013-05-10T12:20:41Z</time>
      </trkpt>
      <trkpt lat="44.4298" lon="5.13021">
        <ele>1020.799987793</ele>
        <time>2013-05-10T12:20:43Z</time>
      </trkpt>
      <trkpt lat="44.42982" lon="5.13018">
        <ele>1020.4000244141</ele>
        <time>2013-05-10T12:20:44Z</time>
      </trkpt>
      <trkpt lat="44.42985" lon="5.13007">
        <ele>1018.4000244141</ele>
        <time>2013-05-10T12:20:47Z</time>
      </trkpt>
      <trkpt lat="44.42988" lon="5.12998">
        <ele>1016</ele>
        <time>2013-05-10T12:20:50Z</time>
      </trkpt>
      <trkpt lat="44.42991" lon="5.12993">
        <ele>1014.200012207</ele>
        <time>2013-05-10T12:20:52Z</time>
      </trkpt>
      <trkpt lat="44.42994" lon="5.12988">
        <ele>1012.4000244141</ele>
        <time>2013-05-10T12:20:54Z</time>
      </trkpt>
      <trkpt lat="44.43" lon="5.12977">
        <ele>1008.4000244141</ele>
        <time>2013-05-10T12:21:15Z</time>
      </trkpt>
      <trkpt lat="44.43011" lon="5.1297">
        <ele>1006.5999755859</ele>
        <time>2013-05-10T12:21:25Z</time>
      </trkpt>
      <trkpt lat="44.43021" lon="5.12968">
        <ele>1005.5999755859</ele>
        <time>2013-05-10T12:21:32Z</time>
      </trkpt>
      <trkpt lat="44.43031" lon="5.1297">
        <ele>1002.799987793</ele>
        <time>2013-05-10T12:21:46Z</time>
      </trkpt>
      <trkpt lat="44.4304" lon="5.12973">
        <ele>1000.5999755859</ele>
        <time>2013-05-10T12:21:52Z</time>
      </trkpt>
      <trkpt lat="44.43052" lon="5.12978">
        <ele>998.59997558594</ele>
        <time>2013-05-10T12:21:58Z</time>
      </trkpt>
      <trkpt lat="44.4306" lon="5.12979">
        <ele>997</ele>
        <time>2013-05-10T12:22:01Z</time>
      </trkpt>
      <trkpt lat="44.43073" lon="5.12983">
        <ele>995.79998779297</ele>
        <time>2013-05-10T12:22:03Z</time>
      </trkpt>
      <trkpt lat="44.43092" lon="5.1299">
        <ele>993.79998779297</ele>
        <time>2013-05-10T12:22:06Z</time>
      </trkpt>
      <trkpt lat="44.43099" lon="5.12993">
        <ele>993.20001220703</ele>
        <time>2013-05-10T12:22:07Z</time>
      </trkpt>
      <trkpt lat="44.43106" lon="5.12996">
        <ele>992.40002441406</ele>
        <time>2013-05-10T12:22:08Z</time>
      </trkpt>
      <trkpt lat="44.43114" lon="5.12999">
        <ele>991.40002441406</ele>
        <time>2013-05-10T12:22:09Z</time>
      </trkpt>
      <trkpt lat="44.43122" lon="5.13">
        <ele>990.59997558594</ele>
        <time>2013-05-10T12:22:10Z</time>
      </trkpt>
      <trkpt lat="44.43131" lon="5.13">
        <ele>989.79998779297</ele>
        <time>2013-05-10T12:22:11Z</time>
      </trkpt>
      <trkpt lat="44.43149" lon="5.12993">
        <ele>988</ele>
        <time>2013-05-10T12:22:13Z</time>
      </trkpt>
      <trkpt lat="44.43159" lon="5.12987">
        <ele>987</ele>
        <time>2013-05-10T12:22:14Z</time>
      </trkpt>
      <trkpt lat="44.43167" lon="5.12982">
        <ele>986.20001220703</ele>
        <time>2013-05-10T12:22:15Z</time>
      </trkpt>
      <trkpt lat="44.43176" lon="5.12975">
        <ele>985.40002441406</ele>
        <time>2013-05-10T12:22:16Z</time>
      </trkpt>
      <trkpt lat="44.43184" lon="5.12969">
        <ele>984.59997558594</ele>
        <time>2013-05-10T12:22:17Z</time>
      </trkpt>
      <trkpt lat="44.43193" lon="5.12964">
        <ele>983.79998779297</ele>
        <time>2013-05-10T12:22:19Z</time>
      </trkpt>
      <trkpt lat="44.43202" lon="5.12968">
        <ele>982</ele>
        <time>2013-05-10T12:22:22Z</time>
      </trkpt>
      <trkpt lat="44.43212" lon="5.12969">
        <ele>982.79998779297</ele>
        <time>2013-05-10T12:22:26Z</time>
      </trkpt>
      <trkpt lat="44.43221" lon="5.12971">
        <ele>984</ele>
        <time>2013-05-10T12:22:29Z</time>
      </trkpt>
      <trkpt lat="44.4323" lon="5.12973">
        <ele>985.79998779297</ele>
        <time>2013-05-10T12:22:34Z</time>
      </trkpt>
      <trkpt lat="44.4324" lon="5.12974">
        <ele>987</ele>
        <time>2013-05-10T12:22:44Z</time>
      </trkpt>
      <trkpt lat="44.43252" lon="5.12975">
        <ele>989.59997558594</ele>
        <time>2013-05-10T12:23:03Z</time>
      </trkpt>
      <trkpt lat="44.43262" lon="5.12974">
        <ele>990.40002441406</ele>
        <time>2013-05-10T12:23:13Z</time>
      </trkpt>
      <trkpt lat="44.43272" lon="5.12985">
        <ele>990.40002441406</ele>
        <time>2013-05-10T12:23:26Z</time>
      </trkpt>
      <trkpt lat="44.43273" lon="5.12993">
        <ele>990.40002441406</ele>
        <time>2013-05-10T12:23:34Z</time>
      </trkpt>
      <trkpt lat="44.43275" lon="5.13007">
        <ele>990.40002441406</ele>
        <time>2013-05-10T12:23:40Z</time>
      </trkpt>
      <trkpt lat="44.43274" lon="5.13011">
        <ele>990.40002441406</ele>
        <time>2013-05-10T12:23:44Z</time>
      </trkpt>
      <trkpt lat="44.43273" lon="5.1302">
        <ele>987.40002441406</ele>
        <time>2013-05-10T12:23:52Z</time>
      </trkpt>
      <trkpt lat="44.43278" lon="5.13037">
        <ele>983.40002441406</ele>
        <time>2013-05-10T12:24:29Z</time>
      </trkpt>
      <trkpt lat="44.4328" lon="5.13042">
        <ele>982</ele>
        <time>2013-05-10T12:24:33Z</time>
      </trkpt>
      <trkpt lat="44.43285" lon="5.13052">
        <ele>980</ele>
        <time>2013-05-10T12:24:40Z</time>
      </trkpt>
      <trkpt lat="44.43294" lon="5.13067">
        <ele>978.59997558594</ele>
        <time>2013-05-10T12:24:47Z</time>
      </trkpt>
      <trkpt lat="44.43296" lon="5.13071">
        <ele>977.59997558594</ele>
        <time>2013-05-10T12:24:49Z</time>
      </trkpt>
      <trkpt lat="44.43295" lon="5.1308">
        <ele>970.40002441406</ele>
        <time>2013-05-10T12:24:59Z</time>
      </trkpt>
      <trkpt lat="44.43287" lon="5.13085">
        <ele>970.40002441406</ele>
        <time>2013-05-10T12:25:10Z</time>
      </trkpt>
      <trkpt lat="44.43283" lon="5.13095">
        <ele>970.40002441406</ele>
        <time>2013-05-10T12:25:13Z</time>
      </trkpt>
      <trkpt lat="44.43288" lon="5.13109">
        <ele>970.40002441406</ele>
        <time>2013-05-10T12:25:18Z</time>
      </trkpt>
      <trkpt lat="44.4329" lon="5.13117">
        <ele>969.40002441406</ele>
        <time>2013-05-10T12:25:20Z</time>
      </trkpt>
      <trkpt lat="44.43292" lon="5.13125">
        <ele>968.20001220703</ele>
        <time>2013-05-10T12:25:23Z</time>
      </trkpt>
      <trkpt lat="44.43293" lon="5.13134">
        <ele>967.59997558594</ele>
        <time>2013-05-10T12:25:26Z</time>
      </trkpt>
      <trkpt lat="44.43293" lon="5.13143">
        <ele>967.59997558594</ele>
        <time>2013-05-10T12:25:28Z</time>
      </trkpt>
      <trkpt lat="44.43293" lon="5.13151">
        <ele>966.20001220703</ele>
        <time>2013-05-10T12:25:30Z</time>
      </trkpt>
      <trkpt lat="44.43299" lon="5.13167">
        <ele>963.20001220703</ele>
        <time>2013-05-10T12:26:11Z</time>
      </trkpt>
      <trkpt lat="44.43307" lon="5.13188">
        <ele>963.20001220703</ele>
        <time>2013-05-10T12:26:16Z</time>
      </trkpt>
      <trkpt lat="44.43311" lon="5.13199">
        <ele>962.20001220703</ele>
        <time>2013-05-10T12:26:19Z</time>
      </trkpt>
      <trkpt lat="44.43317" lon="5.13213">
        <ele>961</ele>
        <time>2013-05-10T12:26:23Z</time>
      </trkpt>
      <trkpt lat="44.4332" lon="5.13222">
        <ele>960</ele>
        <time>2013-05-10T12:26:26Z</time>
      </trkpt>
      <trkpt lat="44.43324" lon="5.13236">
        <ele>959.40002441406</ele>
        <time>2013-05-10T12:26:30Z</time>
      </trkpt>
      <trkpt lat="44.43329" lon="5.13246">
        <ele>958.79998779297</ele>
        <time>2013-05-10T12:26:33Z</time>
      </trkpt>
      <trkpt lat="44.43331" lon="5.13249">
        <ele>958.79998779297</ele>
        <time>2013-05-10T12:26:34Z</time>
      </trkpt>
      <trkpt lat="44.43337" lon="5.13259">
        <ele>958.40002441406</ele>
        <time>2013-05-10T12:26:37Z</time>
      </trkpt>
      <trkpt lat="44.43344" lon="5.13269">
        <ele>958.40002441406</ele>
        <time>2013-05-10T12:26:41Z</time>
      </trkpt>
      <trkpt lat="44.43356" lon="5.13289">
        <ele>958.40002441406</ele>
        <time>2013-05-10T12:26:47Z</time>
      </trkpt>
      <trkpt lat="44.43357" lon="5.13293">
        <ele>957.40002441406</ele>
        <time>2013-05-10T12:26:48Z</time>
      </trkpt>
      <trkpt lat="44.43363" lon="5.13315">
        <ele>956.40002441406</ele>
        <time>2013-05-10T12:26:52Z</time>
      </trkpt>
      <trkpt lat="44.4337" lon="5.13327">
        <ele>956</ele>
        <time>2013-05-10T12:26:55Z</time>
      </trkpt>
      <trkpt lat="44.43375" lon="5.13334">
        <ele>956</ele>
        <time>2013-05-10T12:26:58Z</time>
      </trkpt>
      <trkpt lat="44.43381" lon="5.13349">
        <ele>955.20001220703</ele>
        <time>2013-05-10T12:27:02Z</time>
      </trkpt>
      <trkpt lat="44.43384" lon="5.13353">
        <ele>955.20001220703</ele>
        <time>2013-05-10T12:27:03Z</time>
      </trkpt>
      <trkpt lat="44.4339" lon="5.13364">
        <ele>954.40002441406</ele>
        <time>2013-05-10T12:27:06Z</time>
      </trkpt>
      <trkpt lat="44.43396" lon="5.13374">
        <ele>954</ele>
        <time>2013-05-10T12:27:09Z</time>
      </trkpt>
      <trkpt lat="44.4341" lon="5.13399">
        <ele>954</ele>
        <time>2013-05-10T12:27:15Z</time>
      </trkpt>
      <trkpt lat="44.4344" lon="5.13431">
        <ele>954</ele>
        <time>2013-05-10T12:27:22Z</time>
      </trkpt>
      <trkpt lat="44.43443" lon="5.13435">
        <ele>953.59997558594</ele>
        <time>2013-05-10T12:27:23Z</time>
      </trkpt>
      <trkpt lat="44.43456" lon="5.13449">
        <ele>952.40002441406</ele>
        <time>2013-05-10T12:27:28Z</time>
      </trkpt>
      <trkpt lat="44.43458" lon="5.13453">
        <ele>951.79998779297</ele>
        <time>2013-05-10T12:27:29Z</time>
      </trkpt>
      <trkpt lat="44.43463" lon="5.1346">
        <ele>950.20001220703</ele>
        <time>2013-05-10T12:27:31Z</time>
      </trkpt>
      <trkpt lat="44.43471" lon="5.13468">
        <ele>950.20001220703</ele>
        <time>2013-05-10T12:27:34Z</time>
      </trkpt>
      <trkpt lat="44.43491" lon="5.13476">
        <ele>947.59997558594</ele>
        <time>2013-05-10T12:27:38Z</time>
      </trkpt>
      <trkpt lat="44.43521" lon="5.1349">
        <ele>946.40002441406</ele>
        <time>2013-05-10T12:27:42Z</time>
      </trkpt>
      <trkpt lat="44.43531" lon="5.13493">
        <ele>946.40002441406</ele>
        <time>2013-05-10T12:27:43Z</time>
      </trkpt>
      <trkpt lat="44.43542" lon="5.13498">
        <ele>943.59997558594</ele>
        <time>2013-05-10T12:27:44Z</time>
      </trkpt>
      <trkpt lat="44.4356" lon="5.13506">
        <ele>943.59997558594</ele>
        <time>2013-05-10T12:27:46Z</time>
      </trkpt>
      <trkpt lat="44.43573" lon="5.13509">
        <ele>942.20001220703</ele>
        <time>2013-05-10T12:27:48Z</time>
      </trkpt>
      <trkpt lat="44.43585" lon="5.13508">
        <ele>939.59997558594</ele>
        <time>2013-05-10T12:27:50Z</time>
      </trkpt>
      <trkpt lat="44.43591" lon="5.13509">
        <ele>939.59997558594</ele>
        <time>2013-05-10T12:27:51Z</time>
      </trkpt>
      <trkpt lat="44.43602" lon="5.13514">
        <ele>939.59997558594</ele>
        <time>2013-05-10T12:27:53Z</time>
      </trkpt>
      <trkpt lat="44.43611" lon="5.13515">
        <ele>938.20001220703</ele>
        <time>2013-05-10T12:27:55Z</time>
      </trkpt>
      <trkpt lat="44.43621" lon="5.13514">
        <ele>936.59997558594</ele>
        <time>2013-05-10T12:27:57Z</time>
      </trkpt>
      <trkpt lat="44.43637" lon="5.13515">
        <ele>935.20001220703</ele>
        <time>2013-05-10T12:28:00Z</time>
      </trkpt>
      <trkpt lat="44.43642" lon="5.13516">
        <ele>935.20001220703</ele>
        <time>2013-05-10T12:28:01Z</time>
      </trkpt>
      <trkpt lat="44.43653" lon="5.13518">
        <ele>935.20001220703</ele>
        <time>2013-05-10T12:28:03Z</time>
      </trkpt>
      <trkpt lat="44.43676" lon="5.13523">
        <ele>934.40002441406</ele>
        <time>2013-05-10T12:28:08Z</time>
      </trkpt>
      <trkpt lat="44.43697" lon="5.13532">
        <ele>934.40002441406</ele>
        <time>2013-05-10T12:28:13Z</time>
      </trkpt>
      <trkpt lat="44.43724" lon="5.13543">
        <ele>934.40002441406</ele>
        <time>2013-05-10T12:28:20Z</time>
      </trkpt>
      <trkpt lat="44.4374" lon="5.13552">
        <ele>934.40002441406</ele>
        <time>2013-05-10T12:28:25Z</time>
      </trkpt>
      <trkpt lat="44.4375" lon="5.13565">
        <ele>933.59997558594</ele>
        <time>2013-05-10T12:28:30Z</time>
      </trkpt>
      <trkpt lat="44.43751" lon="5.13572">
        <ele>932.79998779297</ele>
        <time>2013-05-10T12:28:32Z</time>
      </trkpt>
      <trkpt lat="44.43755" lon="5.13587">
        <ele>931.79998779297</ele>
        <time>2013-05-10T12:28:35Z</time>
      </trkpt>
      <trkpt lat="44.43768" lon="5.13594">
        <ele>931.20001220703</ele>
        <time>2013-05-10T12:28:39Z</time>
      </trkpt>
      <trkpt lat="44.43774" lon="5.13588">
        <ele>930.40002441406</ele>
        <time>2013-05-10T12:28:42Z</time>
      </trkpt>
      <trkpt lat="44.43783" lon="5.13584">
        <ele>929.79998779297</ele>
        <time>2013-05-10T12:28:45Z</time>
      </trkpt>
      <trkpt lat="44.43797" lon="5.13573">
        <ele>927.59997558594</ele>
        <time>2013-05-10T12:28:49Z</time>
      </trkpt>
      <trkpt lat="44.43814" lon="5.1357">
        <ele>926.20001220703</ele>
        <time>2013-05-10T12:28:53Z</time>
      </trkpt>
      <trkpt lat="44.43825" lon="5.13566">
        <ele>923.20001220703</ele>
        <time>2013-05-10T12:28:56Z</time>
      </trkpt>
      <trkpt lat="44.43831" lon="5.13561">
        <ele>923.20001220703</ele>
        <time>2013-05-10T12:28:58Z</time>
      </trkpt>
      <trkpt lat="44.43834" lon="5.13559">
        <ele>923.20001220703</ele>
        <time>2013-05-10T12:28:59Z</time>
      </trkpt>
      <trkpt lat="44.43844" lon="5.13556">
        <ele>920.20001220703</ele>
        <time>2013-05-10T12:29:03Z</time>
      </trkpt>
      <trkpt lat="44.43853" lon="5.13557">
        <ele>918.40002441406</ele>
        <time>2013-05-10T12:29:07Z</time>
      </trkpt>
      <trkpt lat="44.43861" lon="5.13555">
        <ele>915.20001220703</ele>
        <time>2013-05-10T12:29:10Z</time>
      </trkpt>
      <trkpt lat="44.43881" lon="5.13552">
        <ele>912</ele>
        <time>2013-05-10T12:29:16Z</time>
      </trkpt>
      <trkpt lat="44.43894" lon="5.13549">
        <ele>907.20001220703</ele>
        <time>2013-05-10T12:29:20Z</time>
      </trkpt>
      <trkpt lat="44.43913" lon="5.13547">
        <ele>904.79998779297</ele>
        <time>2013-05-10T12:29:24Z</time>
      </trkpt>
      <trkpt lat="44.43928" lon="5.13547">
        <ele>903.40002441406</ele>
        <time>2013-05-10T12:29:28Z</time>
      </trkpt>
      <trkpt lat="44.43931" lon="5.13546">
        <ele>903.40002441406</ele>
        <time>2013-05-10T12:29:29Z</time>
      </trkpt>
      <trkpt lat="44.43945" lon="5.1355">
        <ele>900.79998779297</ele>
        <time>2013-05-10T12:29:34Z</time>
      </trkpt>
      <trkpt lat="44.4396" lon="5.13556">
        <ele>898</ele>
        <time>2013-05-10T12:29:38Z</time>
      </trkpt>
      <trkpt lat="44.43978" lon="5.13564">
        <ele>897</ele>
        <time>2013-05-10T12:29:42Z</time>
      </trkpt>
      <trkpt lat="44.43992" lon="5.1357">
        <ele>896</ele>
        <time>2013-05-10T12:29:45Z</time>
      </trkpt>
      <trkpt lat="44.44017" lon="5.13573">
        <ele>896</ele>
        <time>2013-05-10T12:29:51Z</time>
      </trkpt>
      <trkpt lat="44.4402" lon="5.13574">
        <ele>894.79998779297</ele>
        <time>2013-05-10T12:29:52Z</time>
      </trkpt>
      <trkpt lat="44.44034" lon="5.13575">
        <ele>893.79998779297</ele>
        <time>2013-05-10T12:29:56Z</time>
      </trkpt>
      <trkpt lat="44.44042" lon="5.13575">
        <ele>893.79998779297</ele>
        <time>2013-05-10T12:29:58Z</time>
      </trkpt>
      <trkpt lat="44.4405" lon="5.13574">
        <ele>891.79998779297</ele>
        <time>2013-05-10T12:30:00Z</time>
      </trkpt>
      <trkpt lat="44.44064" lon="5.13576">
        <ele>890.79998779297</ele>
        <time>2013-05-10T12:30:03Z</time>
      </trkpt>
      <trkpt lat="44.44078" lon="5.13581">
        <ele>889.59997558594</ele>
        <time>2013-05-10T12:30:06Z</time>
      </trkpt>
      <trkpt lat="44.44082" lon="5.13581">
        <ele>888.40002441406</ele>
        <time>2013-05-10T12:30:07Z</time>
      </trkpt>
      <trkpt lat="44.44091" lon="5.1358">
        <ele>886.20001220703</ele>
        <time>2013-05-10T12:30:10Z</time>
      </trkpt>
      <trkpt lat="44.44105" lon="5.13578">
        <ele>882.20001220703</ele>
        <time>2013-05-10T12:30:17Z</time>
      </trkpt>
      <trkpt lat="44.44113" lon="5.13579">
        <ele>882.20001220703</ele>
        <time>2013-05-10T12:30:20Z</time>
      </trkpt>
      <trkpt lat="44.44124" lon="5.13582">
        <ele>882.20001220703</ele>
        <time>2013-05-10T12:30:24Z</time>
      </trkpt>
      <trkpt lat="44.44133" lon="5.13581">
        <ele>882.20001220703</ele>
        <time>2013-05-10T12:30:28Z</time>
      </trkpt>
      <trkpt lat="44.44143" lon="5.13579">
        <ele>882.20001220703</ele>
        <time>2013-05-10T12:30:34Z</time>
      </trkpt>
      <trkpt lat="44.44152" lon="5.13576">
        <ele>880.79998779297</ele>
        <time>2013-05-10T12:30:40Z</time>
      </trkpt>
      <trkpt lat="44.44165" lon="5.13576">
        <ele>880.79998779297</ele>
        <time>2013-05-10T12:30:46Z</time>
      </trkpt>
      <trkpt lat="44.44181" lon="5.13576">
        <ele>880.79998779297</ele>
        <time>2013-05-10T12:30:51Z</time>
      </trkpt>
      <trkpt lat="44.44195" lon="5.13569">
        <ele>880.79998779297</ele>
        <time>2013-05-10T12:30:58Z</time>
      </trkpt>
      <trkpt lat="44.44204" lon="5.13562">
        <ele>878.20001220703</ele>
        <time>2013-05-10T12:31:01Z</time>
      </trkpt>
      <trkpt lat="44.44211" lon="5.13559">
        <ele>878.20001220703</ele>
        <time>2013-05-10T12:31:04Z</time>
      </trkpt>
      <trkpt lat="44.44226" lon="5.13549">
        <ele>878.20001220703</ele>
        <time>2013-05-10T12:31:12Z</time>
      </trkpt>
      <trkpt lat="44.44237" lon="5.13541">
        <ele>878.20001220703</ele>
        <time>2013-05-10T12:31:17Z</time>
      </trkpt>
      <trkpt lat="44.44257" lon="5.13535">
        <ele>878.20001220703</ele>
        <time>2013-05-10T12:31:23Z</time>
      </trkpt>
      <trkpt lat="44.44268" lon="5.13539">
        <ele>878.20001220703</ele>
        <time>2013-05-10T12:31:28Z</time>
      </trkpt>
      <trkpt lat="44.44284" lon="5.1355">
        <ele>878.20001220703</ele>
        <time>2013-05-10T12:31:34Z</time>
      </trkpt>
      <trkpt lat="44.44287" lon="5.13556">
        <ele>867.59997558594</ele>
        <time>2013-05-10T12:31:36Z</time>
      </trkpt>
      <trkpt lat="44.44292" lon="5.13562">
        <ele>867.59997558594</ele>
        <time>2013-05-10T12:31:39Z</time>
      </trkpt>
      <trkpt lat="44.44299" lon="5.13571">
        <ele>867.59997558594</ele>
        <time>2013-05-10T12:31:45Z</time>
      </trkpt>
      <trkpt lat="44.44302" lon="5.13574">
        <ele>867.59997558594</ele>
        <time>2013-05-10T12:31:51Z</time>
      </trkpt>
      <trkpt lat="44.44316" lon="5.13592">
        <ele>861</ele>
        <time>2013-05-10T12:32:14Z</time>
      </trkpt>
      <trkpt lat="44.44337" lon="5.13613">
        <ele>861</ele>
        <time>2013-05-10T12:32:20Z</time>
      </trkpt>
      <trkpt lat="44.44341" lon="5.13619">
        <ele>854.79998779297</ele>
        <time>2013-05-10T12:32:22Z</time>
      </trkpt>
      <trkpt lat="44.44347" lon="5.13627">
        <ele>854.79998779297</ele>
        <time>2013-05-10T12:32:25Z</time>
      </trkpt>
      <trkpt lat="44.44352" lon="5.1363">
        <ele>854.79998779297</ele>
        <time>2013-05-10T12:32:28Z</time>
      </trkpt>
      <trkpt lat="44.44364" lon="5.13648">
        <ele>854.79998779297</ele>
        <time>2013-05-10T12:32:39Z</time>
      </trkpt>
      <trkpt lat="44.44365" lon="5.13651">
        <ele>854.79998779297</ele>
        <time>2013-05-10T12:32:41Z</time>
      </trkpt>
      <trkpt lat="44.44373" lon="5.13655">
        <ele>854.79998779297</ele>
        <time>2013-05-10T12:32:48Z</time>
      </trkpt>
      <trkpt lat="44.44384" lon="5.13659">
        <ele>854.79998779297</ele>
        <time>2013-05-10T12:32:56Z</time>
      </trkpt>
      <trkpt lat="44.4439" lon="5.13654">
        <ele>840</ele>
        <time>2013-05-10T12:33:03Z</time>
      </trkpt>
      <trkpt lat="44.4439" lon="5.13654">
        <ele>840</ele>
        <time>2013-05-10T12:33:04Z</time>
      </trkpt>
      <trkpt lat="44.44394" lon="5.13654">
        <ele>840</ele>
        <time>2013-05-10T12:33:13Z</time>
      </trkpt>
      <trkpt lat="44.44401" lon="5.13652">
        <ele>840</ele>
        <time>2013-05-10T12:33:16Z</time>
      </trkpt>
      <trkpt lat="44.44405" lon="5.1365">
        <ele>840</ele>
        <time>2013-05-10T12:33:18Z</time>
      </trkpt>
      <trkpt lat="44.44417" lon="5.13638">
        <ele>840</ele>
        <time>2013-05-10T12:33:24Z</time>
      </trkpt>
      <trkpt lat="44.44434" lon="5.13627">
        <ele>840</ele>
        <time>2013-05-10T12:33:31Z</time>
      </trkpt>
      <trkpt lat="44.44442" lon="5.13629">
        <ele>840</ele>
        <time>2013-05-10T12:33:34Z</time>
      </trkpt>
      <trkpt lat="44.44448" lon="5.1364">
        <ele>840</ele>
        <time>2013-05-10T12:33:37Z</time>
      </trkpt>
      <trkpt lat="44.44451" lon="5.13643">
        <ele>840</ele>
        <time>2013-05-10T12:33:38Z</time>
      </trkpt>
      <trkpt lat="44.4446" lon="5.13654">
        <ele>840</ele>
        <time>2013-05-10T12:33:43Z</time>
      </trkpt>
      <trkpt lat="44.44471" lon="5.13661">
        <ele>831.40002441406</ele>
        <time>2013-05-10T12:33:47Z</time>
      </trkpt>
      <trkpt lat="44.44481" lon="5.13662">
        <ele>831.40002441406</ele>
        <time>2013-05-10T12:33:50Z</time>
      </trkpt>
      <trkpt lat="44.44493" lon="5.13662">
        <ele>831.40002441406</ele>
        <time>2013-05-10T12:33:54Z</time>
      </trkpt>
      <trkpt lat="44.44501" lon="5.13663">
        <ele>831.40002441406</ele>
        <time>2013-05-10T12:33:57Z</time>
      </trkpt>
      <trkpt lat="44.44512" lon="5.13661">
        <ele>831.40002441406</ele>
        <time>2013-05-10T12:34:02Z</time>
      </trkpt>
      <trkpt lat="44.44526" lon="5.13654">
        <ele>822.79998779297</ele>
        <time>2013-05-10T12:34:13Z</time>
      </trkpt>
      <trkpt lat="44.44538" lon="5.1365">
        <ele>822.79998779297</ele>
        <time>2013-05-10T12:34:21Z</time>
      </trkpt>
      <trkpt lat="44.44538" lon="5.13648">
        <ele>822.79998779297</ele>
        <time>2013-05-10T12:34:26Z</time>
      </trkpt>
      <trkpt lat="44.44541" lon="5.13646">
        <ele>813.59997558594</ele>
        <time>2013-05-10T12:34:34Z</time>
      </trkpt>
      <trkpt lat="44.44547" lon="5.13629">
        <ele>813.59997558594</ele>
        <time>2013-05-10T12:34:45Z</time>
      </trkpt>
      <trkpt lat="44.44553" lon="5.13616">
        <ele>813.59997558594</ele>
        <time>2013-05-10T12:34:49Z</time>
      </trkpt>
      <trkpt lat="44.44557" lon="5.13607">
        <ele>805.20001220703</ele>
        <time>2013-05-10T12:34:52Z</time>
      </trkpt>
      <trkpt lat="44.44563" lon="5.13596">
        <ele>805.20001220703</ele>
        <time>2013-05-10T12:34:56Z</time>
      </trkpt>
      <trkpt lat="44.44578" lon="5.1358">
        <ele>805.20001220703</ele>
        <time>2013-05-10T12:35:02Z</time>
      </trkpt>
      <trkpt lat="44.44588" lon="5.1357">
        <ele>805.20001220703</ele>
        <time>2013-05-10T12:35:07Z</time>
      </trkpt>
      <trkpt lat="44.446" lon="5.13561">
        <ele>805.20001220703</ele>
        <time>2013-05-10T12:35:10Z</time>
      </trkpt>
      <trkpt lat="44.44604" lon="5.13558">
        <ele>805.20001220703</ele>
        <time>2013-05-10T12:35:11Z</time>
      </trkpt>
      <trkpt lat="44.44624" lon="5.13536">
        <ele>797</ele>
        <time>2013-05-10T12:35:17Z</time>
      </trkpt>
      <trkpt lat="44.44641" lon="5.13515">
        <ele>797</ele>
        <time>2013-05-10T12:35:24Z</time>
      </trkpt>
      <trkpt lat="44.44655" lon="5.13505">
        <ele>797</ele>
        <time>2013-05-10T12:35:31Z</time>
      </trkpt>
      <trkpt lat="44.44664" lon="5.13497">
        <ele>788.79998779297</ele>
        <time>2013-05-10T12:35:38Z</time>
      </trkpt>
      <trkpt lat="44.44673" lon="5.13489">
        <ele>788.79998779297</ele>
        <time>2013-05-10T12:35:42Z</time>
      </trkpt>
      <trkpt lat="44.44683" lon="5.13478">
        <ele>788.79998779297</ele>
        <time>2013-05-10T12:35:47Z</time>
      </trkpt>
      <trkpt lat="44.44691" lon="5.13476">
        <ele>788.79998779297</ele>
        <time>2013-05-10T12:35:52Z</time>
      </trkpt>
      <trkpt lat="44.44705" lon="5.13484">
        <ele>788.79998779297</ele>
        <time>2013-05-10T12:35:57Z</time>
      </trkpt>
      <trkpt lat="44.44715" lon="5.13494">
        <ele>788.79998779297</ele>
        <time>2013-05-10T12:36:01Z</time>
      </trkpt>
      <trkpt lat="44.44725" lon="5.13506">
        <ele>788.79998779297</ele>
        <time>2013-05-10T12:36:04Z</time>
      </trkpt>
      <trkpt lat="44.4473" lon="5.13514">
        <ele>788.79998779297</ele>
        <time>2013-05-10T12:36:06Z</time>
      </trkpt>
      <trkpt lat="44.44732" lon="5.13517">
        <ele>779</ele>
        <time>2013-05-10T12:36:07Z</time>
      </trkpt>
      <trkpt lat="44.44744" lon="5.13517">
        <ele>779</ele>
        <time>2013-05-10T12:36:15Z</time>
      </trkpt>
      <trkpt lat="44.44748" lon="5.1352">
        <ele>751.59997558594</ele>
        <time>2013-05-10T12:37:19Z</time>
      </trkpt>
      <trkpt lat="44.44751" lon="5.13529">
        <ele>751.59997558594</ele>
        <time>2013-05-10T12:38:25Z</time>
      </trkpt>
      <trkpt lat="44.44753" lon="5.13533">
        <ele>751.59997558594</ele>
        <time>2013-05-10T12:38:26Z</time>
      </trkpt>
      <trkpt lat="44.44767" lon="5.13564">
        <ele>751.59997558594</ele>
        <time>2013-05-10T12:38:34Z</time>
      </trkpt>
      <trkpt lat="44.44781" lon="5.13599">
        <ele>746.40002441406</ele>
        <time>2013-05-10T12:38:39Z</time>
      </trkpt>
      <trkpt lat="44.44783" lon="5.13611">
        <ele>746.40002441406</ele>
        <time>2013-05-10T12:38:41Z</time>
      </trkpt>
      <trkpt lat="44.44794" lon="5.13621">
        <ele>746.40002441406</ele>
        <time>2013-05-10T12:38:45Z</time>
      </trkpt>
      <trkpt lat="44.44801" lon="5.13628">
        <ele>746.40002441406</ele>
        <time>2013-05-10T12:38:49Z</time>
      </trkpt>
      <trkpt lat="44.44807" lon="5.13637">
        <ele>742.79998779297</ele>
        <time>2013-05-10T12:38:56Z</time>
      </trkpt>
      <trkpt lat="44.44817" lon="5.13636">
        <ele>742.79998779297</ele>
        <time>2013-05-10T12:39:07Z</time>
      </trkpt>
      <trkpt lat="44.44834" lon="5.13625">
        <ele>742.79998779297</ele>
        <time>2013-05-10T12:39:18Z</time>
      </trkpt>
      <trkpt lat="44.44855" lon="5.13618">
        <ele>742.79998779297</ele>
        <time>2013-05-10T12:39:26Z</time>
      </trkpt>
      <trkpt lat="44.44861" lon="5.13615">
        <ele>742.79998779297</ele>
        <time>2013-05-10T12:39:31Z</time>
      </trkpt>
      <trkpt lat="44.44873" lon="5.13616">
        <ele>735.40002441406</ele>
        <time>2013-05-10T12:39:54Z</time>
      </trkpt>
      <trkpt lat="44.4488" lon="5.13622">
        <ele>735.40002441406</ele>
        <time>2013-05-10T12:40:04Z</time>
      </trkpt>
      <trkpt lat="44.44883" lon="5.13621">
        <ele>735.40002441406</ele>
        <time>2013-05-10T12:40:05Z</time>
      </trkpt>
      <trkpt lat="44.44891" lon="5.13618">
        <ele>735.40002441406</ele>
        <time>2013-05-10T12:40:08Z</time>
      </trkpt>
      <trkpt lat="44.44907" lon="5.13601">
        <ele>726.40002441406</ele>
        <time>2013-05-10T12:40:15Z</time>
      </trkpt>
      <trkpt lat="44.44915" lon="5.13599">
        <ele>726.40002441406</ele>
        <time>2013-05-10T12:40:19Z</time>
      </trkpt>
      <trkpt lat="44.4493" lon="5.13604">
        <ele>726.40002441406</ele>
        <time>2013-05-10T12:40:23Z</time>
      </trkpt>
      <trkpt lat="44.44936" lon="5.13609">
        <ele>721.40002441406</ele>
        <time>2013-05-10T12:40:25Z</time>
      </trkpt>
      <trkpt lat="44.44938" lon="5.13612">
        <ele>717.20001220703</ele>
        <time>2013-05-10T12:40:26Z</time>
      </trkpt>
      <trkpt lat="44.44942" lon="5.13621">
        <ele>717.20001220703</ele>
        <time>2013-05-10T12:40:28Z</time>
      </trkpt>
      <trkpt lat="44.44946" lon="5.13608">
        <ele>705.59997558594</ele>
        <time>2013-05-10T12:40:37Z</time>
      </trkpt>
      <trkpt lat="44.4494" lon="5.13588">
        <ele>701.59997558594</ele>
        <time>2013-05-10T12:40:40Z</time>
      </trkpt>
      <trkpt lat="44.4495" lon="5.13592">
        <ele>696.20001220703</ele>
        <time>2013-05-10T12:40:47Z</time>
      </trkpt>
      <trkpt lat="44.44956" lon="5.13606">
        <ele>695</ele>
        <time>2013-05-10T12:40:49Z</time>
      </trkpt>
      <trkpt lat="44.44958" lon="5.13614">
        <ele>695</ele>
        <time>2013-05-10T12:40:50Z</time>
      </trkpt>
      <trkpt lat="44.4496" lon="5.13621">
        <ele>693.79998779297</ele>
        <time>2013-05-10T12:40:51Z</time>
      </trkpt>
      <trkpt lat="44.44965" lon="5.13639">
        <ele>693.79998779297</ele>
        <time>2013-05-10T12:40:53Z</time>
      </trkpt>
      <trkpt lat="44.44967" lon="5.13648">
        <ele>692.59997558594</ele>
        <time>2013-05-10T12:40:54Z</time>
      </trkpt>
      <trkpt lat="44.4497" lon="5.13657">
        <ele>691.40002441406</ele>
        <time>2013-05-10T12:40:55Z</time>
      </trkpt>
      <trkpt lat="44.44974" lon="5.13664">
        <ele>691.40002441406</ele>
        <time>2013-05-10T12:40:56Z</time>
      </trkpt>
      <trkpt lat="44.44984" lon="5.1368">
        <ele>690.40002441406</ele>
        <time>2013-05-10T12:40:58Z</time>
      </trkpt>
      <trkpt lat="44.44999" lon="5.13696">
        <ele>689</ele>
        <time>2013-05-10T12:41:01Z</time>
      </trkpt>
      <trkpt lat="44.45005" lon="5.13702">
        <ele>687.79998779297</ele>
        <time>2013-05-10T12:41:02Z</time>
      </trkpt>
      <trkpt lat="44.45018" lon="5.13711">
        <ele>687.79998779297</ele>
        <time>2013-05-10T12:41:04Z</time>
      </trkpt>
      <trkpt lat="44.45024" lon="5.13715">
        <ele>686.40002441406</ele>
        <time>2013-05-10T12:41:05Z</time>
      </trkpt>
      <trkpt lat="44.45032" lon="5.13718">
        <ele>686.40002441406</ele>
        <time>2013-05-10T12:41:06Z</time>
      </trkpt>
      <trkpt lat="44.45039" lon="5.13721">
        <ele>685.20001220703</ele>
        <time>2013-05-10T12:41:07Z</time>
      </trkpt>
      <trkpt lat="44.45047" lon="5.13722">
        <ele>683.79998779297</ele>
        <time>2013-05-10T12:41:08Z</time>
      </trkpt>
      <trkpt lat="44.45061" lon="5.13731">
        <ele>683.79998779297</ele>
        <time>2013-05-10T12:41:10Z</time>
      </trkpt>
      <trkpt lat="44.45074" lon="5.13758">
        <ele>680.79998779297</ele>
        <time>2013-05-10T12:41:13Z</time>
      </trkpt>
      <trkpt lat="44.45081" lon="5.1377">
        <ele>680.79998779297</ele>
        <time>2013-05-10T12:41:16Z</time>
      </trkpt>
      <trkpt lat="44.45085" lon="5.13764">
        <ele>677</ele>
        <time>2013-05-10T12:41:17Z</time>
      </trkpt>
      <trkpt lat="44.45086" lon="5.13755">
        <ele>675</ele>
        <time>2013-05-10T12:41:20Z</time>
      </trkpt>
      <trkpt lat="44.45086" lon="5.13742">
        <ele>675</ele>
        <time>2013-05-10T12:41:22Z</time>
      </trkpt>
      <trkpt lat="44.45082" lon="5.13726">
        <ele>671.79998779297</ele>
        <time>2013-05-10T12:41:24Z</time>
      </trkpt>
      <trkpt lat="44.45069" lon="5.1371">
        <ele>671.79998779297</ele>
        <time>2013-05-10T12:41:26Z</time>
      </trkpt>
      <trkpt lat="44.4507" lon="5.13702">
        <ele>669.20001220703</ele>
        <time>2013-05-10T12:41:27Z</time>
      </trkpt>
      <trkpt lat="44.45054" lon="5.13669">
        <ele>666.40002441406</ele>
        <time>2013-05-10T12:41:31Z</time>
      </trkpt>
      <trkpt lat="44.45055" lon="5.13657">
        <ele>663.79998779297</ele>
        <time>2013-05-10T12:41:34Z</time>
      </trkpt>
      <trkpt lat="44.45063" lon="5.13663">
        <ele>663.79998779297</ele>
        <time>2013-05-10T12:41:35Z</time>
      </trkpt>
      <trkpt lat="44.45073" lon="5.13677">
        <ele>661.20001220703</ele>
        <time>2013-05-10T12:41:38Z</time>
      </trkpt>
      <trkpt lat="44.45083" lon="5.1369">
        <ele>661.20001220703</ele>
        <time>2013-05-10T12:41:40Z</time>
      </trkpt>
      <trkpt lat="44.45103" lon="5.13723">
        <ele>658.79998779297</ele>
        <time>2013-05-10T12:41:44Z</time>
      </trkpt>
      <trkpt lat="44.45111" lon="5.13731">
        <ele>655.79998779297</ele>
        <time>2013-05-10T12:41:46Z</time>
      </trkpt>
      <trkpt lat="44.45116" lon="5.13725">
        <ele>652.40002441406</ele>
        <time>2013-05-10T12:41:48Z</time>
      </trkpt>
      <trkpt lat="44.45117" lon="5.13719">
        <ele>652.40002441406</ele>
        <time>2013-05-10T12:41:49Z</time>
      </trkpt>
      <trkpt lat="44.45109" lon="5.13701">
        <ele>649.59997558594</ele>
        <time>2013-05-10T12:41:52Z</time>
      </trkpt>
      <trkpt lat="44.45107" lon="5.13693">
        <ele>649.59997558594</ele>
        <time>2013-05-10T12:41:53Z</time>
      </trkpt>
      <trkpt lat="44.45112" lon="5.13681">
        <ele>649.59997558594</ele>
        <time>2013-05-10T12:41:54Z</time>
      </trkpt>
      <trkpt lat="44.45113" lon="5.13672">
        <ele>647.20001220703</ele>
        <time>2013-05-10T12:41:55Z</time>
      </trkpt>
      <trkpt lat="44.4512" lon="5.13636">
        <ele>644.59997558594</ele>
        <time>2013-05-10T12:41:59Z</time>
      </trkpt>
      <trkpt lat="44.45124" lon="5.13627">
        <ele>644.59997558594</ele>
        <time>2013-05-10T12:42:00Z</time>
      </trkpt>
      <trkpt lat="44.45124" lon="5.13615">
        <ele>644.59997558594</ele>
        <time>2013-05-10T12:42:01Z</time>
      </trkpt>
      <trkpt lat="44.45123" lon="5.13605">
        <ele>641.59997558594</ele>
        <time>2013-05-10T12:42:02Z</time>
      </trkpt>
      <trkpt lat="44.45123" lon="5.13595">
        <ele>641.59997558594</ele>
        <time>2013-05-10T12:42:05Z</time>
      </trkpt>
      <trkpt lat="44.45127" lon="5.13601">
        <ele>638.79998779297</ele>
        <time>2013-05-10T12:42:07Z</time>
      </trkpt>
      <trkpt lat="44.45132" lon="5.13613">
        <ele>636.59997558594</ele>
        <time>2013-05-10T12:42:09Z</time>
      </trkpt>
      <trkpt lat="44.45134" lon="5.1362">
        <ele>636.59997558594</ele>
        <time>2013-05-10T12:42:10Z</time>
      </trkpt>
      <trkpt lat="44.45136" lon="5.13644">
        <ele>634.59997558594</ele>
        <time>2013-05-10T12:42:13Z</time>
      </trkpt>
      <trkpt lat="44.45135" lon="5.13652">
        <ele>634.59997558594</ele>
        <time>2013-05-10T12:42:14Z</time>
      </trkpt>
      <trkpt lat="44.45139" lon="5.13665">
        <ele>633.59997558594</ele>
        <time>2013-05-10T12:42:16Z</time>
      </trkpt>
      <trkpt lat="44.45144" lon="5.13702">
        <ele>633.59997558594</ele>
        <time>2013-05-10T12:42:20Z</time>
      </trkpt>
      <trkpt lat="44.45148" lon="5.13724">
        <ele>633</ele>
        <time>2013-05-10T12:42:23Z</time>
      </trkpt>
      <trkpt lat="44.45148" lon="5.13732">
        <ele>632.59997558594</ele>
        <time>2013-05-10T12:42:24Z</time>
      </trkpt>
      <trkpt lat="44.4515" lon="5.13748">
        <ele>632</ele>
        <time>2013-05-10T12:42:27Z</time>
      </trkpt>
      <trkpt lat="44.45157" lon="5.13755">
        <ele>632</ele>
        <time>2013-05-10T12:42:29Z</time>
      </trkpt>
      <trkpt lat="44.45164" lon="5.13765">
        <ele>631</ele>
        <time>2013-05-10T12:42:37Z</time>
      </trkpt>
      <trkpt lat="44.45173" lon="5.13775">
        <ele>631</ele>
        <time>2013-05-10T12:42:45Z</time>
      </trkpt>
      <trkpt lat="44.45174" lon="5.13782">
        <ele>632</ele>
        <time>2013-05-10T12:42:51Z</time>
      </trkpt>
      <trkpt lat="44.4518" lon="5.13789">
        <ele>633.40002441406</ele>
        <time>2013-05-10T12:42:59Z</time>
      </trkpt>
      <trkpt lat="44.45187" lon="5.13796">
        <ele>635.40002441406</ele>
        <time>2013-05-10T12:43:46Z</time>
      </trkpt>
      <trkpt lat="44.45189" lon="5.13802">
        <ele>635.40002441406</ele>
        <time>2013-05-10T12:44:13Z</time>
      </trkpt>
      <trkpt lat="44.4519" lon="5.13809">
        <ele>636.59997558594</ele>
        <time>2013-05-10T12:44:20Z</time>
      </trkpt>
      <trkpt lat="44.45191" lon="5.1381">
        <ele>637</ele>
        <time>2013-05-10T12:44:21Z</time>
      </trkpt>
      <trkpt lat="44.45203" lon="5.13826">
        <ele>637.40002441406</ele>
        <time>2013-05-10T12:44:29Z</time>
      </trkpt>
      <trkpt lat="44.45219" lon="5.13837">
        <ele>637.40002441406</ele>
        <time>2013-05-10T12:44:35Z</time>
      </trkpt>
      <trkpt lat="44.45235" lon="5.13852">
        <ele>637.40002441406</ele>
        <time>2013-05-10T12:44:41Z</time>
      </trkpt>
      <trkpt lat="44.45243" lon="5.13874">
        <ele>637.40002441406</ele>
        <time>2013-05-10T12:44:47Z</time>
      </trkpt>
      <trkpt lat="44.45258" lon="5.13899">
        <ele>637.40002441406</ele>
        <time>2013-05-10T12:44:53Z</time>
      </trkpt>
      <trkpt lat="44.45274" lon="5.13916">
        <ele>637.40002441406</ele>
        <time>2013-05-10T12:44:58Z</time>
      </trkpt>
      <trkpt lat="44.45287" lon="5.13939">
        <ele>637.40002441406</ele>
        <time>2013-05-10T12:45:03Z</time>
      </trkpt>
      <trkpt lat="44.45288" lon="5.13948">
        <ele>637.40002441406</ele>
        <time>2013-05-10T12:45:05Z</time>
      </trkpt>
      <trkpt lat="44.45285" lon="5.13959">
        <ele>637.40002441406</ele>
        <time>2013-05-10T12:45:07Z</time>
      </trkpt>
      <trkpt lat="44.45284" lon="5.13979">
        <ele>637</ele>
        <time>2013-05-10T12:45:10Z</time>
      </trkpt>
      <trkpt lat="44.45285" lon="5.13986">
        <ele>636.59997558594</ele>
        <time>2013-05-10T12:45:11Z</time>
      </trkpt>
      <trkpt lat="44.45285" lon="5.13993">
        <ele>636.20001220703</ele>
        <time>2013-05-10T12:45:12Z</time>
      </trkpt>
      <trkpt lat="44.45283" lon="5.14001">
        <ele>635.59997558594</ele>
        <time>2013-05-10T12:45:13Z</time>
      </trkpt>
      <trkpt lat="44.45282" lon="5.14014">
        <ele>634.40002441406</ele>
        <time>2013-05-10T12:45:15Z</time>
      </trkpt>
      <trkpt lat="44.45282" lon="5.1402">
        <ele>633.79998779297</ele>
        <time>2013-05-10T12:45:16Z</time>
      </trkpt>
      <trkpt lat="44.45286" lon="5.14032">
        <ele>632.20001220703</ele>
        <time>2013-05-10T12:45:18Z</time>
      </trkpt>
      <trkpt lat="44.45285" lon="5.14046">
        <ele>629.79998779297</ele>
        <time>2013-05-10T12:45:21Z</time>
      </trkpt>
      <trkpt lat="44.45286" lon="5.1405">
        <ele>629</ele>
        <time>2013-05-10T12:45:22Z</time>
      </trkpt>
      <trkpt lat="44.45284" lon="5.14063">
        <ele>627.40002441406</ele>
        <time>2013-05-10T12:45:24Z</time>
      </trkpt>
      <trkpt lat="44.45284" lon="5.1407">
        <ele>627</ele>
        <time>2013-05-10T12:45:25Z</time>
      </trkpt>
      <trkpt lat="44.45286" lon="5.14087">
        <ele>625.79998779297</ele>
        <time>2013-05-10T12:45:27Z</time>
      </trkpt>
      <trkpt lat="44.45289" lon="5.14095">
        <ele>625</ele>
        <time>2013-05-10T12:45:28Z</time>
      </trkpt>
      <trkpt lat="44.45292" lon="5.14102">
        <ele>624.40002441406</ele>
        <time>2013-05-10T12:45:29Z</time>
      </trkpt>
      <trkpt lat="44.45295" lon="5.14118">
        <ele>622.79998779297</ele>
        <time>2013-05-10T12:45:31Z</time>
      </trkpt>
      <trkpt lat="44.45296" lon="5.14128">
        <ele>622</ele>
        <time>2013-05-10T12:45:32Z</time>
      </trkpt>
      <trkpt lat="44.45294" lon="5.14138">
        <ele>621.20001220703</ele>
        <time>2013-05-10T12:45:33Z</time>
      </trkpt>
      <trkpt lat="44.45291" lon="5.14144">
        <ele>620.40002441406</ele>
        <time>2013-05-10T12:45:34Z</time>
      </trkpt>
      <trkpt lat="44.45288" lon="5.14148">
        <ele>619.59997558594</ele>
        <time>2013-05-10T12:45:35Z</time>
      </trkpt>
      <trkpt lat="44.45284" lon="5.14153">
        <ele>618</ele>
        <time>2013-05-10T12:45:37Z</time>
      </trkpt>
      <trkpt lat="44.45288" lon="5.14161">
        <ele>617.40002441406</ele>
        <time>2013-05-10T12:45:40Z</time>
      </trkpt>
      <trkpt lat="44.45296" lon="5.14178">
        <ele>617.40002441406</ele>
        <time>2013-05-10T12:45:45Z</time>
      </trkpt>
      <trkpt lat="44.453" lon="5.14201">
        <ele>617.40002441406</ele>
        <time>2013-05-10T12:45:52Z</time>
      </trkpt>
      <trkpt lat="44.453" lon="5.14211">
        <ele>617.40002441406</ele>
        <time>2013-05-10T12:45:54Z</time>
      </trkpt>
      <trkpt lat="44.453" lon="5.14226">
        <ele>617.40002441406</ele>
        <time>2013-05-10T12:45:57Z</time>
      </trkpt>
      <trkpt lat="44.45304" lon="5.14247">
        <ele>617.40002441406</ele>
        <time>2013-05-10T12:46:00Z</time>
      </trkpt>
      <trkpt lat="44.45306" lon="5.14253">
        <ele>616.79998779297</ele>
        <time>2013-05-10T12:46:01Z</time>
      </trkpt>
      <trkpt lat="44.45311" lon="5.14266">
        <ele>615.79998779297</ele>
        <time>2013-05-10T12:46:03Z</time>
      </trkpt>
      <trkpt lat="44.45312" lon="5.14272">
        <ele>615.40002441406</ele>
        <time>2013-05-10T12:46:04Z</time>
      </trkpt>
      <trkpt lat="44.45315" lon="5.14291">
        <ele>614.40002441406</ele>
        <time>2013-05-10T12:46:07Z</time>
      </trkpt>
      <trkpt lat="44.4532" lon="5.143">
        <ele>612.59997558594</ele>
        <time>2013-05-10T12:46:11Z</time>
      </trkpt>
      <trkpt lat="44.45321" lon="5.14302">
        <ele>612</ele>
        <time>2013-05-10T12:46:12Z</time>
      </trkpt>
      <trkpt lat="44.45323" lon="5.14312">
        <ele>609.20001220703</ele>
        <time>2013-05-10T12:46:17Z</time>
      </trkpt>
      <trkpt lat="44.45324" lon="5.14323">
        <ele>607.40002441406</ele>
        <time>2013-05-10T12:46:20Z</time>
      </trkpt>
      <trkpt lat="44.45325" lon="5.14332">
        <ele>605</ele>
        <time>2013-05-10T12:46:23Z</time>
      </trkpt>
      <trkpt lat="44.4532" lon="5.14345">
        <ele>602.40002441406</ele>
        <time>2013-05-10T12:46:28Z</time>
      </trkpt>
      <trkpt lat="44.45315" lon="5.1436">
        <ele>602.40002441406</ele>
        <time>2013-05-10T12:46:35Z</time>
      </trkpt>
      <trkpt lat="44.45316" lon="5.14365">
        <ele>602.40002441406</ele>
        <time>2013-05-10T12:46:41Z</time>
      </trkpt>
      <trkpt lat="44.45311" lon="5.14405">
        <ele>604.59997558594</ele>
        <time>2013-05-10T12:47:19Z</time>
      </trkpt>
      <trkpt lat="44.45309" lon="5.14423">
        <ele>605</ele>
        <time>2013-05-10T12:47:24Z</time>
      </trkpt>
      <trkpt lat="44.45306" lon="5.1443">
        <ele>606.20001220703</ele>
        <time>2013-05-10T12:47:27Z</time>
      </trkpt>
      <trkpt lat="44.45295" lon="5.14442">
        <ele>606.59997558594</ele>
        <time>2013-05-10T12:47:32Z</time>
      </trkpt>
      <trkpt lat="44.4529" lon="5.1445">
        <ele>607</ele>
        <time>2013-05-10T12:47:36Z</time>
      </trkpt>
      <trkpt lat="44.4529" lon="5.1445">
        <ele>607.40002441406</ele>
        <time>2013-05-10T12:47:37Z</time>
      </trkpt>
      <trkpt lat="44.45289" lon="5.14451">
        <ele>608.40002441406</ele>
        <time>2013-05-10T12:47:39Z</time>
      </trkpt>
      <trkpt lat="44.45279" lon="5.14455">
        <ele>610.40002441406</ele>
        <time>2013-05-10T12:47:54Z</time>
      </trkpt>
      <trkpt lat="44.45269" lon="5.14459">
        <ele>610.20001220703</ele>
        <time>2013-05-10T12:47:57Z</time>
      </trkpt>
      <trkpt lat="44.45266" lon="5.14462">
        <ele>609.79998779297</ele>
        <time>2013-05-10T12:47:58Z</time>
      </trkpt>
      <trkpt lat="44.4526" lon="5.14469">
        <ele>608.40002441406</ele>
        <time>2013-05-10T12:48:01Z</time>
      </trkpt>
      <trkpt lat="44.45252" lon="5.1448">
        <ele>608.40002441406</ele>
        <time>2013-05-10T12:48:06Z</time>
      </trkpt>
      <trkpt lat="44.45244" lon="5.14499">
        <ele>608.40002441406</ele>
        <time>2013-05-10T12:48:13Z</time>
      </trkpt>
      <trkpt lat="44.45242" lon="5.145">
        <ele>608.40002441406</ele>
        <time>2013-05-10T12:48:21Z</time>
      </trkpt>
      <trkpt lat="44.45236" lon="5.14503">
        <ele>608.79998779297</ele>
        <time>2013-05-10T12:48:29Z</time>
      </trkpt>
      <trkpt lat="44.45228" lon="5.14516">
        <ele>610.59997558594</ele>
        <time>2013-05-10T12:48:40Z</time>
      </trkpt>
      <trkpt lat="44.45219" lon="5.14527">
        <ele>610.59997558594</ele>
        <time>2013-05-10T12:48:49Z</time>
      </trkpt>
      <trkpt lat="44.45216" lon="5.14531">
        <ele>611.79998779297</ele>
        <time>2013-05-10T12:48:53Z</time>
      </trkpt>
      <trkpt lat="44.45207" lon="5.14547">
        <ele>613.20001220703</ele>
        <time>2013-05-10T12:49:07Z</time>
      </trkpt>
      <trkpt lat="44.45205" lon="5.14553">
        <ele>614</ele>
        <time>2013-05-10T12:49:09Z</time>
      </trkpt>
      <trkpt lat="44.45198" lon="5.1456">
        <ele>615</ele>
        <time>2013-05-10T12:49:18Z</time>
      </trkpt>
      <trkpt lat="44.45185" lon="5.14563">
        <ele>615.40002441406</ele>
        <time>2013-05-10T12:49:35Z</time>
      </trkpt>
      <trkpt lat="44.45169" lon="5.14575">
        <ele>617</ele>
        <time>2013-05-10T12:49:50Z</time>
      </trkpt>
      <trkpt lat="44.45166" lon="5.14586">
        <ele>617</ele>
        <time>2013-05-10T12:50:02Z</time>
      </trkpt>
      <trkpt lat="44.45166" lon="5.14596">
        <ele>618</ele>
        <time>2013-05-10T12:50:10Z</time>
      </trkpt>
      <trkpt lat="44.45166" lon="5.14604">
        <ele>618.40002441406</ele>
        <time>2013-05-10T12:50:15Z</time>
      </trkpt>
      <trkpt lat="44.45169" lon="5.14614">
        <ele>619.40002441406</ele>
        <time>2013-05-10T12:50:25Z</time>
      </trkpt>
      <trkpt lat="44.45171" lon="5.14627">
        <ele>620.40002441406</ele>
        <time>2013-05-10T12:50:35Z</time>
      </trkpt>
      <trkpt lat="44.45171" lon="5.14633">
        <ele>621.20001220703</ele>
        <time>2013-05-10T12:50:40Z</time>
      </trkpt>
      <trkpt lat="44.45169" lon="5.14639">
        <ele>621.79998779297</ele>
        <time>2013-05-10T12:50:45Z</time>
      </trkpt>
      <trkpt lat="44.45171" lon="5.14645">
        <ele>622.40002441406</ele>
        <time>2013-05-10T12:50:50Z</time>
      </trkpt>
      <trkpt lat="44.45171" lon="5.14651">
        <ele>623</ele>
        <time>2013-05-10T12:50:55Z</time>
      </trkpt>
      <trkpt lat="44.45171" lon="5.14665">
        <ele>623.79998779297</ele>
        <time>2013-05-10T12:51:04Z</time>
      </trkpt>
      <trkpt lat="44.45171" lon="5.14673">
        <ele>625.59997558594</ele>
        <time>2013-05-10T12:51:10Z</time>
      </trkpt>
      <trkpt lat="44.45173" lon="5.14681">
        <ele>626.40002441406</ele>
        <time>2013-05-10T12:51:15Z</time>
      </trkpt>
      <trkpt lat="44.45177" lon="5.14695">
        <ele>628</ele>
        <time>2013-05-10T12:51:25Z</time>
      </trkpt>
      <trkpt lat="44.45179" lon="5.14701">
        <ele>630.40002441406</ele>
        <time>2013-05-10T12:51:30Z</time>
      </trkpt>
      <trkpt lat="44.4518" lon="5.14707">
        <ele>631.20001220703</ele>
        <time>2013-05-10T12:51:34Z</time>
      </trkpt>
      <trkpt lat="44.45182" lon="5.14711">
        <ele>632.59997558594</ele>
        <time>2013-05-10T12:51:37Z</time>
      </trkpt>
      <trkpt lat="44.45185" lon="5.14721">
        <ele>633</ele>
        <time>2013-05-10T12:51:46Z</time>
      </trkpt>
      <trkpt lat="44.45191" lon="5.14735">
        <ele>634.79998779297</ele>
        <time>2013-05-10T12:51:56Z</time>
      </trkpt>
      <trkpt lat="44.45192" lon="5.14746">
        <ele>635.20001220703</ele>
        <time>2013-05-10T12:52:03Z</time>
      </trkpt>
      <trkpt lat="44.45192" lon="5.14751">
        <ele>636.59997558594</ele>
        <time>2013-05-10T12:52:06Z</time>
      </trkpt>
      <trkpt lat="44.45193" lon="5.1476">
        <ele>637</ele>
        <time>2013-05-10T12:52:14Z</time>
      </trkpt>
      <trkpt lat="44.45193" lon="5.1477">
        <ele>638.20001220703</ele>
        <time>2013-05-10T12:52:21Z</time>
      </trkpt>
      <trkpt lat="44.45195" lon="5.1478">
        <ele>639.20001220703</ele>
        <time>2013-05-10T12:52:27Z</time>
      </trkpt>
      <trkpt lat="44.45198" lon="5.148">
        <ele>641.20001220703</ele>
        <time>2013-05-10T12:52:40Z</time>
      </trkpt>
      <trkpt lat="44.45197" lon="5.14811">
        <ele>643.20001220703</ele>
        <time>2013-05-10T12:52:47Z</time>
      </trkpt>
      <trkpt lat="44.45197" lon="5.14823">
        <ele>643.20001220703</ele>
        <time>2013-05-10T12:52:56Z</time>
      </trkpt>
      <trkpt lat="44.45198" lon="5.14831">
        <ele>645</ele>
        <time>2013-05-10T12:53:04Z</time>
      </trkpt>
      <trkpt lat="44.45197" lon="5.14859">
        <ele>645.40002441406</ele>
        <time>2013-05-10T12:53:12Z</time>
      </trkpt>
      <trkpt lat="44.45195" lon="5.14866">
        <ele>645.40002441406</ele>
        <time>2013-05-10T12:53:13Z</time>
      </trkpt>
      <trkpt lat="44.45196" lon="5.14889">
        <ele>645.40002441406</ele>
        <time>2013-05-10T12:53:17Z</time>
      </trkpt>
      <trkpt lat="44.4519" lon="5.14909">
        <ele>645.40002441406</ele>
        <time>2013-05-10T12:53:22Z</time>
      </trkpt>
      <trkpt lat="44.4519" lon="5.14913">
        <ele>645.40002441406</ele>
        <time>2013-05-10T12:53:23Z</time>
      </trkpt>
      <trkpt lat="44.45185" lon="5.14952">
        <ele>645.40002441406</ele>
        <time>2013-05-10T12:53:33Z</time>
      </trkpt>
      <trkpt lat="44.45186" lon="5.14965">
        <ele>645</ele>
        <time>2013-05-10T12:53:35Z</time>
      </trkpt>
      <trkpt lat="44.45187" lon="5.14972">
        <ele>644.59997558594</ele>
        <time>2013-05-10T12:53:36Z</time>
      </trkpt>
      <trkpt lat="44.45188" lon="5.14987">
        <ele>643.79998779297</ele>
        <time>2013-05-10T12:53:38Z</time>
      </trkpt>
      <trkpt lat="44.45185" lon="5.14994">
        <ele>643.20001220703</ele>
        <time>2013-05-10T12:53:39Z</time>
      </trkpt>
      <trkpt lat="44.45179" lon="5.15005">
        <ele>642</ele>
        <time>2013-05-10T12:53:41Z</time>
      </trkpt>
      <trkpt lat="44.45177" lon="5.15012">
        <ele>641.40002441406</ele>
        <time>2013-05-10T12:53:42Z</time>
      </trkpt>
      <trkpt lat="44.45176" lon="5.15026">
        <ele>640.20001220703</ele>
        <time>2013-05-10T12:53:44Z</time>
      </trkpt>
      <trkpt lat="44.45176" lon="5.15033">
        <ele>639.59997558594</ele>
        <time>2013-05-10T12:53:45Z</time>
      </trkpt>
      <trkpt lat="44.45174" lon="5.15041">
        <ele>639</ele>
        <time>2013-05-10T12:53:46Z</time>
      </trkpt>
      <trkpt lat="44.45164" lon="5.15056">
        <ele>637.79998779297</ele>
        <time>2013-05-10T12:53:48Z</time>
      </trkpt>
      <trkpt lat="44.45162" lon="5.15064">
        <ele>637.20001220703</ele>
        <time>2013-05-10T12:53:49Z</time>
      </trkpt>
      <trkpt lat="44.45156" lon="5.15071">
        <ele>636.79998779297</ele>
        <time>2013-05-10T12:53:50Z</time>
      </trkpt>
      <trkpt lat="44.45155" lon="5.1509">
        <ele>635.59997558594</ele>
        <time>2013-05-10T12:53:52Z</time>
      </trkpt>
      <trkpt lat="44.45156" lon="5.15101">
        <ele>635</ele>
        <time>2013-05-10T12:53:53Z</time>
      </trkpt>
      <trkpt lat="44.45158" lon="5.1511">
        <ele>634.20001220703</ele>
        <time>2013-05-10T12:53:54Z</time>
      </trkpt>
      <trkpt lat="44.45163" lon="5.15121">
        <ele>633.40002441406</ele>
        <time>2013-05-10T12:53:55Z</time>
      </trkpt>
      <trkpt lat="44.4517" lon="5.15136">
        <ele>632.79998779297</ele>
        <time>2013-05-10T12:53:57Z</time>
      </trkpt>
      <trkpt lat="44.45175" lon="5.15141">
        <ele>630.79998779297</ele>
        <time>2013-05-10T12:53:58Z</time>
      </trkpt>
      <trkpt lat="44.45181" lon="5.15146">
        <ele>630</ele>
        <time>2013-05-10T12:53:59Z</time>
      </trkpt>
      <trkpt lat="44.45186" lon="5.1515">
        <ele>629.20001220703</ele>
        <time>2013-05-10T12:54:00Z</time>
      </trkpt>
      <trkpt lat="44.45193" lon="5.15155">
        <ele>627.40002441406</ele>
        <time>2013-05-10T12:54:02Z</time>
      </trkpt>
      <trkpt lat="44.45201" lon="5.15157">
        <ele>625.79998779297</ele>
        <time>2013-05-10T12:54:04Z</time>
      </trkpt>
      <trkpt lat="44.45209" lon="5.15162">
        <ele>624.20001220703</ele>
        <time>2013-05-10T12:54:06Z</time>
      </trkpt>
      <trkpt lat="44.45213" lon="5.15166">
        <ele>623.40002441406</ele>
        <time>2013-05-10T12:54:07Z</time>
      </trkpt>
      <trkpt lat="44.45217" lon="5.15172">
        <ele>622.40002441406</ele>
        <time>2013-05-10T12:54:08Z</time>
      </trkpt>
      <trkpt lat="44.45221" lon="5.15178">
        <ele>621.40002441406</ele>
        <time>2013-05-10T12:54:09Z</time>
      </trkpt>
      <trkpt lat="44.45225" lon="5.15186">
        <ele>620.59997558594</ele>
        <time>2013-05-10T12:54:10Z</time>
      </trkpt>
      <trkpt lat="44.45229" lon="5.15192">
        <ele>619.59997558594</ele>
        <time>2013-05-10T12:54:11Z</time>
      </trkpt>
      <trkpt lat="44.45233" lon="5.15202">
        <ele>618.79998779297</ele>
        <time>2013-05-10T12:54:12Z</time>
      </trkpt>
      <trkpt lat="44.45234" lon="5.15216">
        <ele>618</ele>
        <time>2013-05-10T12:54:13Z</time>
      </trkpt>
      <trkpt lat="44.45237" lon="5.15228">
        <ele>616.79998779297</ele>
        <time>2013-05-10T12:54:14Z</time>
      </trkpt>
      <trkpt lat="44.45244" lon="5.15249">
        <ele>615.79998779297</ele>
        <time>2013-05-10T12:54:16Z</time>
      </trkpt>
      <trkpt lat="44.45247" lon="5.15263">
        <ele>614.59997558594</ele>
        <time>2013-05-10T12:54:17Z</time>
      </trkpt>
      <trkpt lat="44.45251" lon="5.15276">
        <ele>613.20001220703</ele>
        <time>2013-05-10T12:54:18Z</time>
      </trkpt>
      <trkpt lat="44.45255" lon="5.1529">
        <ele>611.79998779297</ele>
        <time>2013-05-10T12:54:19Z</time>
      </trkpt>
      <trkpt lat="44.45256" lon="5.15302">
        <ele>610.79998779297</ele>
        <time>2013-05-10T12:54:20Z</time>
      </trkpt>
      <trkpt lat="44.45255" lon="5.15313">
        <ele>609.79998779297</ele>
        <time>2013-05-10T12:54:21Z</time>
      </trkpt>
      <trkpt lat="44.45255" lon="5.15325">
        <ele>608.79998779297</ele>
        <time>2013-05-10T12:54:22Z</time>
      </trkpt>
      <trkpt lat="44.45255" lon="5.15335">
        <ele>607.59997558594</ele>
        <time>2013-05-10T12:54:23Z</time>
      </trkpt>
      <trkpt lat="44.45255" lon="5.15345">
        <ele>606.59997558594</ele>
        <time>2013-05-10T12:54:24Z</time>
      </trkpt>
      <trkpt lat="44.45258" lon="5.15362">
        <ele>606.59997558594</ele>
        <time>2013-05-10T12:54:26Z</time>
      </trkpt>
      <trkpt lat="44.45265" lon="5.15377">
        <ele>606.59997558594</ele>
        <time>2013-05-10T12:54:28Z</time>
      </trkpt>
      <trkpt lat="44.4528" lon="5.15393">
        <ele>606.59997558594</ele>
        <time>2013-05-10T12:54:31Z</time>
      </trkpt>
      <trkpt lat="44.45299" lon="5.15411">
        <ele>607</ele>
        <time>2013-05-10T12:54:35Z</time>
      </trkpt>
      <trkpt lat="44.45303" lon="5.15415">
        <ele>607.59997558594</ele>
        <time>2013-05-10T12:54:36Z</time>
      </trkpt>
      <trkpt lat="44.45307" lon="5.1542">
        <ele>608</ele>
        <time>2013-05-10T12:54:37Z</time>
      </trkpt>
      <trkpt lat="44.4531" lon="5.15426">
        <ele>608.40002441406</ele>
        <time>2013-05-10T12:54:38Z</time>
      </trkpt>
      <trkpt lat="44.45314" lon="5.15431">
        <ele>609</ele>
        <time>2013-05-10T12:54:39Z</time>
      </trkpt>
      <trkpt lat="44.45318" lon="5.15441">
        <ele>609</ele>
        <time>2013-05-10T12:54:41Z</time>
      </trkpt>
      <trkpt lat="44.45321" lon="5.1545">
        <ele>609.40002441406</ele>
        <time>2013-05-10T12:54:43Z</time>
      </trkpt>
      <trkpt lat="44.4533" lon="5.15468">
        <ele>611.20001220703</ele>
        <time>2013-05-10T12:54:53Z</time>
      </trkpt>
      <trkpt lat="44.45332" lon="5.15471">
        <ele>612</ele>
        <time>2013-05-10T12:54:55Z</time>
      </trkpt>
      <trkpt lat="44.45333" lon="5.15468">
        <ele>613.40002441406</ele>
        <time>2013-05-10T12:55:21Z</time>
      </trkpt>
      <trkpt lat="44.45345" lon="5.15485">
        <ele>613.79998779297</ele>
        <time>2013-05-10T12:55:39Z</time>
      </trkpt>
      <trkpt lat="44.45346" lon="5.15492">
        <ele>615.59997558594</ele>
        <time>2013-05-10T12:55:46Z</time>
      </trkpt>
      <trkpt lat="44.45349" lon="5.155">
        <ele>621.79998779297</ele>
        <time>2013-05-10T13:24:42Z</time>
      </trkpt>
      <trkpt lat="44.45351" lon="5.15504">
        <ele>621.79998779297</ele>
        <time>2013-05-10T13:25:11Z</time>
      </trkpt>
      <trkpt lat="44.4535" lon="5.15505">
        <ele>621.79998779297</ele>
        <time>2013-05-10T13:28:51Z</time>
      </trkpt>
      <trkpt lat="44.45351" lon="5.15506">
        <ele>621.79998779297</ele>
        <time>2013-05-10T13:29:22Z</time>
      </trkpt>
      <trkpt lat="44.45346" lon="5.15508">
        <ele>621.79998779297</ele>
        <time>2013-05-10T13:29:47Z</time>
      </trkpt>
      <trkpt lat="44.45335" lon="5.15522">
        <ele>621.79998779297</ele>
        <time>2013-05-10T13:29:57Z</time>
      </trkpt>
      <trkpt lat="44.45329" lon="5.15537">
        <ele>621.79998779297</ele>
        <time>2013-05-10T13:30:07Z</time>
      </trkpt>
      <trkpt lat="44.45331" lon="5.15548">
        <ele>621.79998779297</ele>
        <time>2013-05-10T13:30:16Z</time>
      </trkpt>
      <trkpt lat="44.45332" lon="5.15551">
        <ele>623.20001220703</ele>
        <time>2013-05-10T13:30:18Z</time>
      </trkpt>
      <trkpt lat="44.45345" lon="5.15563">
        <ele>623.20001220703</ele>
        <time>2013-05-10T13:30:35Z</time>
      </trkpt>
      <trkpt lat="44.45354" lon="5.15566">
        <ele>626</ele>
        <time>2013-05-10T13:30:47Z</time>
      </trkpt>
      <trkpt lat="44.45362" lon="5.15568">
        <ele>627.59997558594</ele>
        <time>2013-05-10T13:31:00Z</time>
      </trkpt>
      <trkpt lat="44.45368" lon="5.15572">
        <ele>627.59997558594</ele>
        <time>2013-05-10T13:31:09Z</time>
      </trkpt>
      <trkpt lat="44.45372" lon="5.15579">
        <ele>627.59997558594</ele>
        <time>2013-05-10T13:31:17Z</time>
      </trkpt>
      <trkpt lat="44.45369" lon="5.15585">
        <ele>627.59997558594</ele>
        <time>2013-05-10T13:31:25Z</time>
      </trkpt>
      <trkpt lat="44.45356" lon="5.15594">
        <ele>627.59997558594</ele>
        <time>2013-05-10T13:31:43Z</time>
      </trkpt>
      <trkpt lat="44.45348" lon="5.15602">
        <ele>627.59997558594</ele>
        <time>2013-05-10T13:31:56Z</time>
      </trkpt>
      <trkpt lat="44.45342" lon="5.15615">
        <ele>629.79998779297</ele>
        <time>2013-05-10T13:32:11Z</time>
      </trkpt>
      <trkpt lat="44.45344" lon="5.15627">
        <ele>629.79998779297</ele>
        <time>2013-05-10T13:32:23Z</time>
      </trkpt>
      <trkpt lat="44.45346" lon="5.15634">
        <ele>632.79998779297</ele>
        <time>2013-05-10T13:32:31Z</time>
      </trkpt>
      <trkpt lat="44.45349" lon="5.15642">
        <ele>632.79998779297</ele>
        <time>2013-05-10T13:32:39Z</time>
      </trkpt>
      <trkpt lat="44.45349" lon="5.15651">
        <ele>632.79998779297</ele>
        <time>2013-05-10T13:32:47Z</time>
      </trkpt>
      <trkpt lat="44.45345" lon="5.15664">
        <ele>632.79998779297</ele>
        <time>2013-05-10T13:32:59Z</time>
      </trkpt>
      <trkpt lat="44.45339" lon="5.15676">
        <ele>632.79998779297</ele>
        <time>2013-05-10T13:33:13Z</time>
      </trkpt>
      <trkpt lat="44.45335" lon="5.15684">
        <ele>640.59997558594</ele>
        <time>2013-05-10T13:33:23Z</time>
      </trkpt>
      <trkpt lat="44.45331" lon="5.15694">
        <ele>640.59997558594</ele>
        <time>2013-05-10T13:33:36Z</time>
      </trkpt>
      <trkpt lat="44.45329" lon="5.15697">
        <ele>640.59997558594</ele>
        <time>2013-05-10T13:33:40Z</time>
      </trkpt>
      <trkpt lat="44.45326" lon="5.15701">
        <ele>640.59997558594</ele>
        <time>2013-05-10T13:33:46Z</time>
      </trkpt>
      <trkpt lat="44.4532" lon="5.15707">
        <ele>640.59997558594</ele>
        <time>2013-05-10T13:33:57Z</time>
      </trkpt>
      <trkpt lat="44.45315" lon="5.1571">
        <ele>640.59997558594</ele>
        <time>2013-05-10T13:34:07Z</time>
      </trkpt>
      <trkpt lat="44.45306" lon="5.15715">
        <ele>640.59997558594</ele>
        <time>2013-05-10T13:34:21Z</time>
      </trkpt>
      <trkpt lat="44.453" lon="5.15719">
        <ele>640.59997558594</ele>
        <time>2013-05-10T13:34:29Z</time>
      </trkpt>
      <trkpt lat="44.45297" lon="5.15722">
        <ele>640.59997558594</ele>
        <time>2013-05-10T13:34:32Z</time>
      </trkpt>
      <trkpt lat="44.45288" lon="5.15727">
        <ele>645.20001220703</ele>
        <time>2013-05-10T13:34:41Z</time>
      </trkpt>
      <trkpt lat="44.45283" lon="5.15732">
        <ele>645.20001220703</ele>
        <time>2013-05-10T13:34:49Z</time>
      </trkpt>
      <trkpt lat="44.45279" lon="5.15734">
        <ele>645.20001220703</ele>
        <time>2013-05-10T13:34:54Z</time>
      </trkpt>
      <trkpt lat="44.45262" lon="5.15744">
        <ele>654.20001220703</ele>
        <time>2013-05-10T13:35:12Z</time>
      </trkpt>
      <trkpt lat="44.45256" lon="5.15752">
        <ele>662.59997558594</ele>
        <time>2013-05-10T13:35:21Z</time>
      </trkpt>
      <trkpt lat="44.45243" lon="5.1576">
        <ele>662.59997558594</ele>
        <time>2013-05-10T13:35:38Z</time>
      </trkpt>
      <trkpt lat="44.4524" lon="5.15761">
        <ele>668.79998779297</ele>
        <time>2013-05-10T13:35:42Z</time>
      </trkpt>
      <trkpt lat="44.45229" lon="5.15766">
        <ele>668.79998779297</ele>
        <time>2013-05-10T13:35:55Z</time>
      </trkpt>
      <trkpt lat="44.45219" lon="5.15771">
        <ele>674</ele>
        <time>2013-05-10T13:36:08Z</time>
      </trkpt>
      <trkpt lat="44.45206" lon="5.15775">
        <ele>674</ele>
        <time>2013-05-10T13:36:23Z</time>
      </trkpt>
      <trkpt lat="44.45197" lon="5.15775">
        <ele>674</ele>
        <time>2013-05-10T13:36:34Z</time>
      </trkpt>
      <trkpt lat="44.45187" lon="5.15775">
        <ele>674</ele>
        <time>2013-05-10T13:36:46Z</time>
      </trkpt>
      <trkpt lat="44.45177" lon="5.15776">
        <ele>676.79998779297</ele>
        <time>2013-05-10T13:36:57Z</time>
      </trkpt>
      <trkpt lat="44.4517" lon="5.15779">
        <ele>676.79998779297</ele>
        <time>2013-05-10T13:37:14Z</time>
      </trkpt>
      <trkpt lat="44.45158" lon="5.15779">
        <ele>679.59997558594</ele>
        <time>2013-05-10T13:37:23Z</time>
      </trkpt>
      <trkpt lat="44.45145" lon="5.15784">
        <ele>679.59997558594</ele>
        <time>2013-05-10T13:37:32Z</time>
      </trkpt>
      <trkpt lat="44.45135" lon="5.15786">
        <ele>682.59997558594</ele>
        <time>2013-05-10T13:37:38Z</time>
      </trkpt>
      <trkpt lat="44.45127" lon="5.15788">
        <ele>682.59997558594</ele>
        <time>2013-05-10T13:37:44Z</time>
      </trkpt>
      <trkpt lat="44.45115" lon="5.15794">
        <ele>682.59997558594</ele>
        <time>2013-05-10T13:37:55Z</time>
      </trkpt>
      <trkpt lat="44.4511" lon="5.15798">
        <ele>685.59997558594</ele>
        <time>2013-05-10T13:37:59Z</time>
      </trkpt>
      <trkpt lat="44.45105" lon="5.15803">
        <ele>685.59997558594</ele>
        <time>2013-05-10T13:38:03Z</time>
      </trkpt>
      <trkpt lat="44.45095" lon="5.15815">
        <ele>685.59997558594</ele>
        <time>2013-05-10T13:38:11Z</time>
      </trkpt>
      <trkpt lat="44.45086" lon="5.15836">
        <ele>685.59997558594</ele>
        <time>2013-05-10T13:38:23Z</time>
      </trkpt>
      <trkpt lat="44.45077" lon="5.15848">
        <ele>685.59997558594</ele>
        <time>2013-05-10T13:38:32Z</time>
      </trkpt>
      <trkpt lat="44.45065" lon="5.1586">
        <ele>685.59997558594</ele>
        <time>2013-05-10T13:38:41Z</time>
      </trkpt>
      <trkpt lat="44.45053" lon="5.15873">
        <ele>685.59997558594</ele>
        <time>2013-05-10T13:38:52Z</time>
      </trkpt>
      <trkpt lat="44.45047" lon="5.1588">
        <ele>693</ele>
        <time>2013-05-10T13:38:58Z</time>
      </trkpt>
      <trkpt lat="44.45044" lon="5.15884">
        <ele>693</ele>
        <time>2013-05-10T13:39:02Z</time>
      </trkpt>
      <trkpt lat="44.45034" lon="5.15891">
        <ele>693</ele>
        <time>2013-05-10T13:39:11Z</time>
      </trkpt>
      <trkpt lat="44.45029" lon="5.15895">
        <ele>697</ele>
        <time>2013-05-10T13:39:16Z</time>
      </trkpt>
      <trkpt lat="44.45014" lon="5.15891">
        <ele>697</ele>
        <time>2013-05-10T13:39:27Z</time>
      </trkpt>
      <trkpt lat="44.45002" lon="5.15885">
        <ele>697</ele>
        <time>2013-05-10T13:39:37Z</time>
      </trkpt>
      <trkpt lat="44.44999" lon="5.15884">
        <ele>700.79998779297</ele>
        <time>2013-05-10T13:39:39Z</time>
      </trkpt>
      <trkpt lat="44.44984" lon="5.15894">
        <ele>700.79998779297</ele>
        <time>2013-05-10T13:39:52Z</time>
      </trkpt>
      <trkpt lat="44.44977" lon="5.15901">
        <ele>707.79998779297</ele>
        <time>2013-05-10T13:39:59Z</time>
      </trkpt>
      <trkpt lat="44.44968" lon="5.15911">
        <ele>707.79998779297</ele>
        <time>2013-05-10T13:40:09Z</time>
      </trkpt>
      <trkpt lat="44.4496" lon="5.15921">
        <ele>711.20001220703</ele>
        <time>2013-05-10T13:40:18Z</time>
      </trkpt>
      <trkpt lat="44.44949" lon="5.15932">
        <ele>711.20001220703</ele>
        <time>2013-05-10T13:40:29Z</time>
      </trkpt>
      <trkpt lat="44.44936" lon="5.15944">
        <ele>714.20001220703</ele>
        <time>2013-05-10T13:40:40Z</time>
      </trkpt>
      <trkpt lat="44.4493" lon="5.15954">
        <ele>714.20001220703</ele>
        <time>2013-05-10T13:40:48Z</time>
      </trkpt>
      <trkpt lat="44.44926" lon="5.15968">
        <ele>717.40002441406</ele>
        <time>2013-05-10T13:40:57Z</time>
      </trkpt>
      <trkpt lat="44.44925" lon="5.1598">
        <ele>717.40002441406</ele>
        <time>2013-05-10T13:41:06Z</time>
      </trkpt>
      <trkpt lat="44.44915" lon="5.15998">
        <ele>717.40002441406</ele>
        <time>2013-05-10T13:41:21Z</time>
      </trkpt>
      <trkpt lat="44.44912" lon="5.16002">
        <ele>720.59997558594</ele>
        <time>2013-05-10T13:41:25Z</time>
      </trkpt>
      <trkpt lat="44.44909" lon="5.16004">
        <ele>723.79998779297</ele>
        <time>2013-05-10T13:41:28Z</time>
      </trkpt>
      <trkpt lat="44.44899" lon="5.16004">
        <ele>735.79998779297</ele>
        <time>2013-05-10T13:41:55Z</time>
      </trkpt>
      <trkpt lat="44.44889" lon="5.16004">
        <ele>735.79998779297</ele>
        <time>2013-05-10T13:42:03Z</time>
      </trkpt>
      <trkpt lat="44.44886" lon="5.16012">
        <ele>736.40002441406</ele>
        <time>2013-05-10T13:42:09Z</time>
      </trkpt>
      <trkpt lat="44.44883" lon="5.16023">
        <ele>738</ele>
        <time>2013-05-10T13:42:16Z</time>
      </trkpt>
      <trkpt lat="44.44877" lon="5.16034">
        <ele>738</ele>
        <time>2013-05-10T13:42:24Z</time>
      </trkpt>
      <trkpt lat="44.44874" lon="5.16041">
        <ele>739.40002441406</ele>
        <time>2013-05-10T13:42:29Z</time>
      </trkpt>
      <trkpt lat="44.4487" lon="5.16052">
        <ele>740.20001220703</ele>
        <time>2013-05-10T13:42:37Z</time>
      </trkpt>
      <trkpt lat="44.4486" lon="5.16049">
        <ele>744.79998779297</ele>
        <time>2013-05-10T13:42:50Z</time>
      </trkpt>
      <trkpt lat="44.44857" lon="5.16044">
        <ele>744.79998779297</ele>
        <time>2013-05-10T13:42:55Z</time>
      </trkpt>
      <trkpt lat="44.44852" lon="5.16035">
        <ele>745.20001220703</ele>
        <time>2013-05-10T13:43:03Z</time>
      </trkpt>
      <trkpt lat="44.4485" lon="5.16031">
        <ele>746.40002441406</ele>
        <time>2013-05-10T13:43:06Z</time>
      </trkpt>
      <trkpt lat="44.44849" lon="5.1603">
        <ele>747</ele>
        <time>2013-05-10T13:43:07Z</time>
      </trkpt>
      <trkpt lat="44.4484" lon="5.16021">
        <ele>749.40002441406</ele>
        <time>2013-05-10T13:43:17Z</time>
      </trkpt>
      <trkpt lat="44.44839" lon="5.16019">
        <ele>750.20001220703</ele>
        <time>2013-05-10T13:43:19Z</time>
      </trkpt>
      <trkpt lat="44.44828" lon="5.16012">
        <ele>753</ele>
        <time>2013-05-10T13:43:30Z</time>
      </trkpt>
      <trkpt lat="44.44823" lon="5.1601">
        <ele>755.20001220703</ele>
        <time>2013-05-10T13:43:45Z</time>
      </trkpt>
      <trkpt lat="44.44819" lon="5.16006">
        <ele>756</ele>
        <time>2013-05-10T13:43:49Z</time>
      </trkpt>
      <trkpt lat="44.4481" lon="5.15997">
        <ele>758.20001220703</ele>
        <time>2013-05-10T13:44:00Z</time>
      </trkpt>
      <trkpt lat="44.44796" lon="5.15991">
        <ele>762.40002441406</ele>
        <time>2013-05-10T13:44:16Z</time>
      </trkpt>
      <trkpt lat="44.4479" lon="5.15996">
        <ele>762.40002441406</ele>
        <time>2013-05-10T13:44:22Z</time>
      </trkpt>
      <trkpt lat="44.44783" lon="5.16001">
        <ele>762.40002441406</ele>
        <time>2013-05-10T13:44:30Z</time>
      </trkpt>
      <trkpt lat="44.44773" lon="5.16005">
        <ele>762.79998779297</ele>
        <time>2013-05-10T13:44:40Z</time>
      </trkpt>
      <trkpt lat="44.4477" lon="5.16007">
        <ele>764.59997558594</ele>
        <time>2013-05-10T13:44:44Z</time>
      </trkpt>
      <trkpt lat="44.44765" lon="5.1601">
        <ele>764.59997558594</ele>
        <time>2013-05-10T13:44:49Z</time>
      </trkpt>
      <trkpt lat="44.44759" lon="5.16016">
        <ele>766.59997558594</ele>
        <time>2013-05-10T13:45:08Z</time>
      </trkpt>
      <trkpt lat="44.44746" lon="5.16027">
        <ele>767</ele>
        <time>2013-05-10T13:45:19Z</time>
      </trkpt>
      <trkpt lat="44.44743" lon="5.16031">
        <ele>768.40002441406</ele>
        <time>2013-05-10T13:45:22Z</time>
      </trkpt>
      <trkpt lat="44.44736" lon="5.16041">
        <ele>769.40002441406</ele>
        <time>2013-05-10T13:45:30Z</time>
      </trkpt>
      <trkpt lat="44.44725" lon="5.16055">
        <ele>771.59997558594</ele>
        <time>2013-05-10T13:45:41Z</time>
      </trkpt>
      <trkpt lat="44.44719" lon="5.1606">
        <ele>774.20001220703</ele>
        <time>2013-05-10T13:45:46Z</time>
      </trkpt>
      <trkpt lat="44.44718" lon="5.1606">
        <ele>774.59997558594</ele>
        <time>2013-05-10T13:45:47Z</time>
      </trkpt>
      <trkpt lat="44.44709" lon="5.1606">
        <ele>776.40002441406</ele>
        <time>2013-05-10T13:45:54Z</time>
      </trkpt>
      <trkpt lat="44.44705" lon="5.16071">
        <ele>778.20001220703</ele>
        <time>2013-05-10T13:46:02Z</time>
      </trkpt>
      <trkpt lat="44.44707" lon="5.16089">
        <ele>778.59997558594</ele>
        <time>2013-05-10T13:46:11Z</time>
      </trkpt>
      <trkpt lat="44.44707" lon="5.16092">
        <ele>779.20001220703</ele>
        <time>2013-05-10T13:46:12Z</time>
      </trkpt>
      <trkpt lat="44.44711" lon="5.16106">
        <ele>780.40002441406</ele>
        <time>2013-05-10T13:46:20Z</time>
      </trkpt>
      <trkpt lat="44.44711" lon="5.16111">
        <ele>781.20001220703</ele>
        <time>2013-05-10T13:46:23Z</time>
      </trkpt>
      <trkpt lat="44.44713" lon="5.16122">
        <ele>782.59997558594</ele>
        <time>2013-05-10T13:46:29Z</time>
      </trkpt>
      <trkpt lat="44.44717" lon="5.16139">
        <ele>782.59997558594</ele>
        <time>2013-05-10T13:46:39Z</time>
      </trkpt>
      <trkpt lat="44.44718" lon="5.16141">
        <ele>783</ele>
        <time>2013-05-10T13:46:40Z</time>
      </trkpt>
      <trkpt lat="44.4472" lon="5.16147">
        <ele>785.20001220703</ele>
        <time>2013-05-10T13:46:44Z</time>
      </trkpt>
      <trkpt lat="44.44722" lon="5.16151">
        <ele>785.20001220703</ele>
        <time>2013-05-10T13:46:46Z</time>
      </trkpt>
      <trkpt lat="44.44736" lon="5.16167">
        <ele>785.20001220703</ele>
        <time>2013-05-10T13:46:54Z</time>
      </trkpt>
      <trkpt lat="44.44746" lon="5.16181">
        <ele>785.20001220703</ele>
        <time>2013-05-10T13:46:59Z</time>
      </trkpt>
      <trkpt lat="44.44748" lon="5.16193">
        <ele>785.20001220703</ele>
        <time>2013-05-10T13:47:03Z</time>
      </trkpt>
      <trkpt lat="44.44749" lon="5.16201">
        <ele>786</ele>
        <time>2013-05-10T13:47:07Z</time>
      </trkpt>
      <trkpt lat="44.44752" lon="5.16216">
        <ele>787.20001220703</ele>
        <time>2013-05-10T13:47:15Z</time>
      </trkpt>
      <trkpt lat="44.44752" lon="5.16223">
        <ele>787.20001220703</ele>
        <time>2013-05-10T13:47:18Z</time>
      </trkpt>
      <trkpt lat="44.44753" lon="5.16233">
        <ele>787.59997558594</ele>
        <time>2013-05-10T13:47:23Z</time>
      </trkpt>
      <trkpt lat="44.44753" lon="5.16242">
        <ele>789.40002441406</ele>
        <time>2013-05-10T13:47:27Z</time>
      </trkpt>
      <trkpt lat="44.44749" lon="5.16252">
        <ele>789.40002441406</ele>
        <time>2013-05-10T13:47:33Z</time>
      </trkpt>
      <trkpt lat="44.44747" lon="5.1626">
        <ele>791</ele>
        <time>2013-05-10T13:47:38Z</time>
      </trkpt>
      <trkpt lat="44.44743" lon="5.16272">
        <ele>791.40002441406</ele>
        <time>2013-05-10T13:47:48Z</time>
      </trkpt>
      <trkpt lat="44.4474" lon="5.1628">
        <ele>792.59997558594</ele>
        <time>2013-05-10T13:47:53Z</time>
      </trkpt>
      <trkpt lat="44.44739" lon="5.16281">
        <ele>793.20001220703</ele>
        <time>2013-05-10T13:47:54Z</time>
      </trkpt>
      <trkpt lat="44.44741" lon="5.16294">
        <ele>793.59997558594</ele>
        <time>2013-05-10T13:48:01Z</time>
      </trkpt>
      <trkpt lat="44.4475" lon="5.16305">
        <ele>794</ele>
        <time>2013-05-10T13:48:08Z</time>
      </trkpt>
      <trkpt lat="44.44757" lon="5.16312">
        <ele>795.40002441406</ele>
        <time>2013-05-10T13:48:11Z</time>
      </trkpt>
      <trkpt lat="44.44762" lon="5.16314">
        <ele>795.79998779297</ele>
        <time>2013-05-10T13:48:12Z</time>
      </trkpt>
      <trkpt lat="44.44777" lon="5.1632">
        <ele>795.40002441406</ele>
        <time>2013-05-10T13:48:15Z</time>
      </trkpt>
      <trkpt lat="44.44785" lon="5.16324">
        <ele>794.79998779297</ele>
        <time>2013-05-10T13:48:16Z</time>
      </trkpt>
      <trkpt lat="44.44793" lon="5.16327">
        <ele>794.40002441406</ele>
        <time>2013-05-10T13:48:17Z</time>
      </trkpt>
      <trkpt lat="44.44801" lon="5.16331">
        <ele>793.59997558594</ele>
        <time>2013-05-10T13:48:18Z</time>
      </trkpt>
      <trkpt lat="44.44815" lon="5.16339">
        <ele>792.20001220703</ele>
        <time>2013-05-10T13:48:20Z</time>
      </trkpt>
      <trkpt lat="44.4482" lon="5.16344">
        <ele>791.59997558594</ele>
        <time>2013-05-10T13:48:21Z</time>
      </trkpt>
      <trkpt lat="44.4483" lon="5.16353">
        <ele>790.79998779297</ele>
        <time>2013-05-10T13:48:23Z</time>
      </trkpt>
      <trkpt lat="44.4485" lon="5.16374">
        <ele>790.79998779297</ele>
        <time>2013-05-10T13:48:28Z</time>
      </trkpt>
      <trkpt lat="44.44869" lon="5.16396">
        <ele>791.20001220703</ele>
        <time>2013-05-10T13:48:34Z</time>
      </trkpt>
      <trkpt lat="44.44872" lon="5.16399">
        <ele>791.59997558594</ele>
        <time>2013-05-10T13:48:35Z</time>
      </trkpt>
      <trkpt lat="44.44874" lon="5.16403">
        <ele>792</ele>
        <time>2013-05-10T13:48:36Z</time>
      </trkpt>
      <trkpt lat="44.44879" lon="5.1641">
        <ele>793</ele>
        <time>2013-05-10T13:48:38Z</time>
      </trkpt>
      <trkpt lat="44.44888" lon="5.16425">
        <ele>793</ele>
        <time>2013-05-10T13:48:42Z</time>
      </trkpt>
      <trkpt lat="44.44893" lon="5.16442">
        <ele>793.79998779297</ele>
        <time>2013-05-10T13:48:46Z</time>
      </trkpt>
      <trkpt lat="44.44895" lon="5.16451">
        <ele>794.59997558594</ele>
        <time>2013-05-10T13:48:48Z</time>
      </trkpt>
      <trkpt lat="44.44893" lon="5.16479">
        <ele>795</ele>
        <time>2013-05-10T13:48:54Z</time>
      </trkpt>
      <trkpt lat="44.44893" lon="5.16483">
        <ele>795</ele>
        <time>2013-05-10T13:48:55Z</time>
      </trkpt>
      <trkpt lat="44.4489" lon="5.16516">
        <ele>795</ele>
        <time>2013-05-10T13:49:01Z</time>
      </trkpt>
      <trkpt lat="44.44888" lon="5.16544">
        <ele>795</ele>
        <time>2013-05-10T13:49:05Z</time>
      </trkpt>
      <trkpt lat="44.44888" lon="5.16552">
        <ele>794.59997558594</ele>
        <time>2013-05-10T13:49:06Z</time>
      </trkpt>
      <trkpt lat="44.44889" lon="5.16567">
        <ele>793.79998779297</ele>
        <time>2013-05-10T13:49:08Z</time>
      </trkpt>
      <trkpt lat="44.4489" lon="5.16578">
        <ele>793.20001220703</ele>
        <time>2013-05-10T13:49:09Z</time>
      </trkpt>
      <trkpt lat="44.44891" lon="5.16586">
        <ele>792.79998779297</ele>
        <time>2013-05-10T13:49:10Z</time>
      </trkpt>
      <trkpt lat="44.44892" lon="5.16605">
        <ele>792.79998779297</ele>
        <time>2013-05-10T13:49:12Z</time>
      </trkpt>
      <trkpt lat="44.44894" lon="5.16624">
        <ele>791.79998779297</ele>
        <time>2013-05-10T13:49:14Z</time>
      </trkpt>
      <trkpt lat="44.44896" lon="5.16634">
        <ele>791.40002441406</ele>
        <time>2013-05-10T13:49:15Z</time>
      </trkpt>
      <trkpt lat="44.44898" lon="5.16643">
        <ele>791</ele>
        <time>2013-05-10T13:49:16Z</time>
      </trkpt>
      <trkpt lat="44.44901" lon="5.16653">
        <ele>790.40002441406</ele>
        <time>2013-05-10T13:49:17Z</time>
      </trkpt>
      <trkpt lat="44.44905" lon="5.16674">
        <ele>790.40002441406</ele>
        <time>2013-05-10T13:49:19Z</time>
      </trkpt>
      <trkpt lat="44.44907" lon="5.16684">
        <ele>790</ele>
        <time>2013-05-10T13:49:20Z</time>
      </trkpt>
      <trkpt lat="44.44909" lon="5.16695">
        <ele>789.59997558594</ele>
        <time>2013-05-10T13:49:21Z</time>
      </trkpt>
      <trkpt lat="44.44911" lon="5.16704">
        <ele>789.20001220703</ele>
        <time>2013-05-10T13:49:22Z</time>
      </trkpt>
      <trkpt lat="44.44913" lon="5.16713">
        <ele>788.59997558594</ele>
        <time>2013-05-10T13:49:23Z</time>
      </trkpt>
      <trkpt lat="44.44915" lon="5.16722">
        <ele>788.20001220703</ele>
        <time>2013-05-10T13:49:24Z</time>
      </trkpt>
      <trkpt lat="44.44918" lon="5.1675">
        <ele>788.20001220703</ele>
        <time>2013-05-10T13:49:28Z</time>
      </trkpt>
      <trkpt lat="44.44922" lon="5.16769">
        <ele>788.20001220703</ele>
        <time>2013-05-10T13:49:31Z</time>
      </trkpt>
      <trkpt lat="44.44923" lon="5.16781">
        <ele>788.20001220703</ele>
        <time>2013-05-10T13:49:33Z</time>
      </trkpt>
      <trkpt lat="44.44925" lon="5.16798">
        <ele>788.59997558594</ele>
        <time>2013-05-10T13:49:36Z</time>
      </trkpt>
      <trkpt lat="44.44925" lon="5.16803">
        <ele>789</ele>
        <time>2013-05-10T13:49:37Z</time>
      </trkpt>
      <trkpt lat="44.44926" lon="5.16813">
        <ele>790</ele>
        <time>2013-05-10T13:49:39Z</time>
      </trkpt>
      <trkpt lat="44.44928" lon="5.16828">
        <ele>790.40002441406</ele>
        <time>2013-05-10T13:49:42Z</time>
      </trkpt>
      <trkpt lat="44.44928" lon="5.16843">
        <ele>790.79998779297</ele>
        <time>2013-05-10T13:49:45Z</time>
      </trkpt>
      <trkpt lat="44.44928" lon="5.16853">
        <ele>791.59997558594</ele>
        <time>2013-05-10T13:49:47Z</time>
      </trkpt>
      <trkpt lat="44.44928" lon="5.16861">
        <ele>792.40002441406</ele>
        <time>2013-05-10T13:49:49Z</time>
      </trkpt>
      <trkpt lat="44.44928" lon="5.16878">
        <ele>792.40002441406</ele>
        <time>2013-05-10T13:49:53Z</time>
      </trkpt>
      <trkpt lat="44.44928" lon="5.16882">
        <ele>792.40002441406</ele>
        <time>2013-05-10T13:49:54Z</time>
      </trkpt>
      <trkpt lat="44.44928" lon="5.16894">
        <ele>794</ele>
        <time>2013-05-10T13:49:57Z</time>
      </trkpt>
      <trkpt lat="44.44928" lon="5.169">
        <ele>794.40002441406</ele>
        <time>2013-05-10T13:49:59Z</time>
      </trkpt>
      <trkpt lat="44.44921" lon="5.16934">
        <ele>794.40002441406</ele>
        <time>2013-05-10T13:50:09Z</time>
      </trkpt>
      <trkpt lat="44.4492" lon="5.16941">
        <ele>795.40002441406</ele>
        <time>2013-05-10T13:50:11Z</time>
      </trkpt>
      <trkpt lat="44.4492" lon="5.16951">
        <ele>796.59997558594</ele>
        <time>2013-05-10T13:50:14Z</time>
      </trkpt>
      <trkpt lat="44.44928" lon="5.16979">
        <ele>796.59997558594</ele>
        <time>2013-05-10T13:50:23Z</time>
      </trkpt>
      <trkpt lat="44.44939" lon="5.16986">
        <ele>796.59997558594</ele>
        <time>2013-05-10T13:50:28Z</time>
      </trkpt>
      <trkpt lat="44.44952" lon="5.16994">
        <ele>797</ele>
        <time>2013-05-10T13:50:36Z</time>
      </trkpt>
      <trkpt lat="44.44969" lon="5.17006">
        <ele>798.79998779297</ele>
        <time>2013-05-10T13:50:49Z</time>
      </trkpt>
      <trkpt lat="44.44974" lon="5.17009">
        <ele>799.20001220703</ele>
        <time>2013-05-10T13:50:52Z</time>
      </trkpt>
      <trkpt lat="44.44986" lon="5.17011">
        <ele>801.40002441406</ele>
        <time>2013-05-10T13:51:07Z</time>
      </trkpt>
      <trkpt lat="44.44993" lon="5.17013">
        <ele>804</ele>
        <time>2013-05-10T13:51:16Z</time>
      </trkpt>
      <trkpt lat="44.45001" lon="5.17016">
        <ele>806.40002441406</ele>
        <time>2013-05-10T13:51:24Z</time>
      </trkpt>
      <trkpt lat="44.4501" lon="5.17018">
        <ele>809.59997558594</ele>
        <time>2013-05-10T13:51:35Z</time>
      </trkpt>
      <trkpt lat="44.45026" lon="5.17025">
        <ele>810.79998779297</ele>
        <time>2013-05-10T13:51:56Z</time>
      </trkpt>
      <trkpt lat="44.4503" lon="5.17026">
        <ele>812.59997558594</ele>
        <time>2013-05-10T13:52:00Z</time>
      </trkpt>
      <trkpt lat="44.4504" lon="5.17029">
        <ele>815</ele>
        <time>2013-05-10T13:52:11Z</time>
      </trkpt>
      <trkpt lat="44.45052" lon="5.17034">
        <ele>815</ele>
        <time>2013-05-10T13:52:21Z</time>
      </trkpt>
      <trkpt lat="44.45061" lon="5.17037">
        <ele>816.20001220703</ele>
        <time>2013-05-10T13:52:29Z</time>
      </trkpt>
      <trkpt lat="44.45068" lon="5.17043">
        <ele>817</ele>
        <time>2013-05-10T13:52:39Z</time>
      </trkpt>
      <trkpt lat="44.45071" lon="5.17046">
        <ele>817</ele>
        <time>2013-05-10T13:52:42Z</time>
      </trkpt>
      <trkpt lat="44.45082" lon="5.17061">
        <ele>817</ele>
        <time>2013-05-10T13:52:51Z</time>
      </trkpt>
      <trkpt lat="44.45092" lon="5.17071">
        <ele>817.40002441406</ele>
        <time>2013-05-10T13:52:58Z</time>
      </trkpt>
      <trkpt lat="44.451" lon="5.17077">
        <ele>819.59997558594</ele>
        <time>2013-05-10T13:53:06Z</time>
      </trkpt>
      <trkpt lat="44.45104" lon="5.17081">
        <ele>821.20001220703</ele>
        <time>2013-05-10T13:53:10Z</time>
      </trkpt>
      <trkpt lat="44.45111" lon="5.17084">
        <ele>822.59997558594</ele>
        <time>2013-05-10T13:53:15Z</time>
      </trkpt>
      <trkpt lat="44.45123" lon="5.1709">
        <ele>823.79998779297</ele>
        <time>2013-05-10T13:53:24Z</time>
      </trkpt>
      <trkpt lat="44.45125" lon="5.1709">
        <ele>824.59997558594</ele>
        <time>2013-05-10T13:53:26Z</time>
      </trkpt>
      <trkpt lat="44.45133" lon="5.1709">
        <ele>825.79998779297</ele>
        <time>2013-05-10T13:53:37Z</time>
      </trkpt>
      <trkpt lat="44.4514" lon="5.17092">
        <ele>828</ele>
        <time>2013-05-10T13:53:47Z</time>
      </trkpt>
      <trkpt lat="44.45154" lon="5.171">
        <ele>829.59997558594</ele>
        <time>2013-05-10T13:54:03Z</time>
      </trkpt>
      <trkpt lat="44.45161" lon="5.17101">
        <ele>830</ele>
        <time>2013-05-10T13:54:08Z</time>
      </trkpt>
      <trkpt lat="44.45174" lon="5.17104">
        <ele>831.79998779297</ele>
        <time>2013-05-10T13:54:21Z</time>
      </trkpt>
      <trkpt lat="44.45181" lon="5.17106">
        <ele>833.79998779297</ele>
        <time>2013-05-10T13:54:33Z</time>
      </trkpt>
      <trkpt lat="44.45192" lon="5.17108">
        <ele>836.40002441406</ele>
        <time>2013-05-10T13:54:48Z</time>
      </trkpt>
      <trkpt lat="44.45203" lon="5.17108">
        <ele>838.59997558594</ele>
        <time>2013-05-10T13:55:01Z</time>
      </trkpt>
      <trkpt lat="44.45211" lon="5.17108">
        <ele>841</ele>
        <time>2013-05-10T13:55:13Z</time>
      </trkpt>
      <trkpt lat="44.45229" lon="5.17114">
        <ele>843</ele>
        <time>2013-05-10T13:55:30Z</time>
      </trkpt>
      <trkpt lat="44.45236" lon="5.17118">
        <ele>843.40002441406</ele>
        <time>2013-05-10T13:55:38Z</time>
      </trkpt>
      <trkpt lat="44.4524" lon="5.1712">
        <ele>844.20001220703</ele>
        <time>2013-05-10T13:55:42Z</time>
      </trkpt>
      <trkpt lat="44.4525" lon="5.1713">
        <ele>847.20001220703</ele>
        <time>2013-05-10T13:55:55Z</time>
      </trkpt>
      <trkpt lat="44.4526" lon="5.17138">
        <ele>847.20001220703</ele>
        <time>2013-05-10T13:56:06Z</time>
      </trkpt>
      <trkpt lat="44.45266" lon="5.17141">
        <ele>848.59997558594</ele>
        <time>2013-05-10T13:56:12Z</time>
      </trkpt>
      <trkpt lat="44.4527" lon="5.17146">
        <ele>849.40002441406</ele>
        <time>2013-05-10T13:56:21Z</time>
      </trkpt>
      <trkpt lat="44.45274" lon="5.17151">
        <ele>849.40002441406</ele>
        <time>2013-05-10T13:56:28Z</time>
      </trkpt>
      <trkpt lat="44.45281" lon="5.17165">
        <ele>851.40002441406</ele>
        <time>2013-05-10T13:56:36Z</time>
      </trkpt>
      <trkpt lat="44.45281" lon="5.1717">
        <ele>851.40002441406</ele>
        <time>2013-05-10T13:56:39Z</time>
      </trkpt>
      <trkpt lat="44.45284" lon="5.17183">
        <ele>851.40002441406</ele>
        <time>2013-05-10T13:56:47Z</time>
      </trkpt>
      <trkpt lat="44.45287" lon="5.17178">
        <ele>851.40002441406</ele>
        <time>2013-05-10T13:58:06Z</time>
      </trkpt>
      <trkpt lat="44.45284" lon="5.17191">
        <ele>851.40002441406</ele>
        <time>2013-05-10T13:59:04Z</time>
      </trkpt>
      <trkpt lat="44.45277" lon="5.17221">
        <ele>851.40002441406</ele>
        <time>2013-05-10T13:59:09Z</time>
      </trkpt>
      <trkpt lat="44.4527" lon="5.17264">
        <ele>851.40002441406</ele>
        <time>2013-05-10T13:59:14Z</time>
      </trkpt>
      <trkpt lat="44.45262" lon="5.17296">
        <ele>850.40002441406</ele>
        <time>2013-05-10T13:59:17Z</time>
      </trkpt>
      <trkpt lat="44.45252" lon="5.17325">
        <ele>849.40002441406</ele>
        <time>2013-05-10T13:59:20Z</time>
      </trkpt>
      <trkpt lat="44.45247" lon="5.17341">
        <ele>849.40002441406</ele>
        <time>2013-05-10T13:59:22Z</time>
      </trkpt>
      <trkpt lat="44.45243" lon="5.17358">
        <ele>847.40002441406</ele>
        <time>2013-05-10T13:59:24Z</time>
      </trkpt>
      <trkpt lat="44.45242" lon="5.17367">
        <ele>847.40002441406</ele>
        <time>2013-05-10T13:59:25Z</time>
      </trkpt>
      <trkpt lat="44.45238" lon="5.17385">
        <ele>845.20001220703</ele>
        <time>2013-05-10T13:59:27Z</time>
      </trkpt>
      <trkpt lat="44.4523" lon="5.17421">
        <ele>843</ele>
        <time>2013-05-10T13:59:31Z</time>
      </trkpt>
      <trkpt lat="44.45221" lon="5.17451">
        <ele>840.79998779297</ele>
        <time>2013-05-10T13:59:34Z</time>
      </trkpt>
      <trkpt lat="44.45209" lon="5.17494">
        <ele>838.79998779297</ele>
        <time>2013-05-10T13:59:38Z</time>
      </trkpt>
      <trkpt lat="44.45201" lon="5.17515">
        <ele>838.79998779297</ele>
        <time>2013-05-10T13:59:40Z</time>
      </trkpt>
      <trkpt lat="44.45197" lon="5.17527">
        <ele>837.20001220703</ele>
        <time>2013-05-10T13:59:41Z</time>
      </trkpt>
      <trkpt lat="44.45184" lon="5.17563">
        <ele>836.20001220703</ele>
        <time>2013-05-10T13:59:44Z</time>
      </trkpt>
      <trkpt lat="44.4518" lon="5.17576">
        <ele>836.20001220703</ele>
        <time>2013-05-10T13:59:45Z</time>
      </trkpt>
      <trkpt lat="44.45169" lon="5.17599">
        <ele>836.20001220703</ele>
        <time>2013-05-10T13:59:47Z</time>
      </trkpt>
      <trkpt lat="44.45162" lon="5.17609">
        <ele>833.59997558594</ele>
        <time>2013-05-10T13:59:48Z</time>
      </trkpt>
      <trkpt lat="44.45155" lon="5.1762">
        <ele>833.59997558594</ele>
        <time>2013-05-10T13:59:49Z</time>
      </trkpt>
      <trkpt lat="44.45143" lon="5.17644">
        <ele>830.59997558594</ele>
        <time>2013-05-10T13:59:51Z</time>
      </trkpt>
      <trkpt lat="44.45123" lon="5.17682">
        <ele>830.59997558594</ele>
        <time>2013-05-10T13:59:54Z</time>
      </trkpt>
      <trkpt lat="44.45117" lon="5.17695">
        <ele>827.40002441406</ele>
        <time>2013-05-10T13:59:55Z</time>
      </trkpt>
      <trkpt lat="44.45097" lon="5.17733">
        <ele>825.79998779297</ele>
        <time>2013-05-10T13:59:58Z</time>
      </trkpt>
      <trkpt lat="44.45082" lon="5.17759">
        <ele>825.79998779297</ele>
        <time>2013-05-10T14:00:00Z</time>
      </trkpt>
      <trkpt lat="44.45068" lon="5.17785">
        <ele>822.20001220703</ele>
        <time>2013-05-10T14:00:02Z</time>
      </trkpt>
      <trkpt lat="44.4505" lon="5.17824">
        <ele>818.20001220703</ele>
        <time>2013-05-10T14:00:05Z</time>
      </trkpt>
      <trkpt lat="44.45043" lon="5.17836">
        <ele>818.20001220703</ele>
        <time>2013-05-10T14:00:06Z</time>
      </trkpt>
      <trkpt lat="44.45022" lon="5.17876">
        <ele>814.59997558594</ele>
        <time>2013-05-10T14:00:09Z</time>
      </trkpt>
      <trkpt lat="44.4501" lon="5.17903">
        <ele>814.59997558594</ele>
        <time>2013-05-10T14:00:11Z</time>
      </trkpt>
      <trkpt lat="44.45005" lon="5.17916">
        <ele>810.59997558594</ele>
        <time>2013-05-10T14:00:12Z</time>
      </trkpt>
      <trkpt lat="44.44987" lon="5.17974">
        <ele>806.40002441406</ele>
        <time>2013-05-10T14:00:16Z</time>
      </trkpt>
      <trkpt lat="44.4498" lon="5.17998">
        <ele>806.40002441406</ele>
        <time>2013-05-10T14:00:18Z</time>
      </trkpt>
      <trkpt lat="44.44978" lon="5.1801">
        <ele>806.40002441406</ele>
        <time>2013-05-10T14:00:19Z</time>
      </trkpt>
      <trkpt lat="44.44978" lon="5.18023">
        <ele>804.40002441406</ele>
        <time>2013-05-10T14:00:20Z</time>
      </trkpt>
      <trkpt lat="44.4498" lon="5.18049">
        <ele>804.40002441406</ele>
        <time>2013-05-10T14:00:22Z</time>
      </trkpt>
      <trkpt lat="44.44981" lon="5.18062">
        <ele>800</ele>
        <time>2013-05-10T14:00:23Z</time>
      </trkpt>
      <trkpt lat="44.44976" lon="5.18087">
        <ele>800</ele>
        <time>2013-05-10T14:00:25Z</time>
      </trkpt>
      <trkpt lat="44.44971" lon="5.18098">
        <ele>796.20001220703</ele>
        <time>2013-05-10T14:00:26Z</time>
      </trkpt>
      <trkpt lat="44.44961" lon="5.1812">
        <ele>796.20001220703</ele>
        <time>2013-05-10T14:00:28Z</time>
      </trkpt>
      <trkpt lat="44.44949" lon="5.18141">
        <ele>794.40002441406</ele>
        <time>2013-05-10T14:00:30Z</time>
      </trkpt>
      <trkpt lat="44.44942" lon="5.18151">
        <ele>794.40002441406</ele>
        <time>2013-05-10T14:00:31Z</time>
      </trkpt>
      <trkpt lat="44.44928" lon="5.18169">
        <ele>790.79998779297</ele>
        <time>2013-05-10T14:00:33Z</time>
      </trkpt>
      <trkpt lat="44.44912" lon="5.18188">
        <ele>790.79998779297</ele>
        <time>2013-05-10T14:00:35Z</time>
      </trkpt>
      <trkpt lat="44.44897" lon="5.1821">
        <ele>789</ele>
        <time>2013-05-10T14:00:37Z</time>
      </trkpt>
      <trkpt lat="44.44884" lon="5.18231">
        <ele>789</ele>
        <time>2013-05-10T14:00:39Z</time>
      </trkpt>
      <trkpt lat="44.44878" lon="5.18242">
        <ele>785</ele>
        <time>2013-05-10T14:00:40Z</time>
      </trkpt>
      <trkpt lat="44.4486" lon="5.18275">
        <ele>781</ele>
        <time>2013-05-10T14:00:43Z</time>
      </trkpt>
      <trkpt lat="44.44817" lon="5.18318">
        <ele>781</ele>
        <time>2013-05-10T14:00:48Z</time>
      </trkpt>
      <trkpt lat="44.44806" lon="5.18333">
        <ele>779</ele>
        <time>2013-05-10T14:00:50Z</time>
      </trkpt>
      <trkpt lat="44.44802" lon="5.18343">
        <ele>776.79998779297</ele>
        <time>2013-05-10T14:00:51Z</time>
      </trkpt>
      <trkpt lat="44.44801" lon="5.18354">
        <ele>776.79998779297</ele>
        <time>2013-05-10T14:00:52Z</time>
      </trkpt>
      <trkpt lat="44.44798" lon="5.18378">
        <ele>774.59997558594</ele>
        <time>2013-05-10T14:00:54Z</time>
      </trkpt>
      <trkpt lat="44.44798" lon="5.18391">
        <ele>772.59997558594</ele>
        <time>2013-05-10T14:00:55Z</time>
      </trkpt>
      <trkpt lat="44.44797" lon="5.18403">
        <ele>772.59997558594</ele>
        <time>2013-05-10T14:00:56Z</time>
      </trkpt>
      <trkpt lat="44.44794" lon="5.18427">
        <ele>769</ele>
        <time>2013-05-10T14:00:58Z</time>
      </trkpt>
      <trkpt lat="44.44789" lon="5.18457">
        <ele>767.20001220703</ele>
        <time>2013-05-10T14:01:01Z</time>
      </trkpt>
      <trkpt lat="44.44784" lon="5.18483">
        <ele>765.20001220703</ele>
        <time>2013-05-10T14:01:04Z</time>
      </trkpt>
      <trkpt lat="44.44784" lon="5.18491">
        <ele>763.40002441406</ele>
        <time>2013-05-10T14:01:05Z</time>
      </trkpt>
      <trkpt lat="44.4479" lon="5.18521">
        <ele>763.40002441406</ele>
        <time>2013-05-10T14:01:09Z</time>
      </trkpt>
      <trkpt lat="44.44805" lon="5.18542">
        <ele>763.40002441406</ele>
        <time>2013-05-10T14:01:13Z</time>
      </trkpt>
      <trkpt lat="44.44815" lon="5.1855">
        <ele>763.40002441406</ele>
        <time>2013-05-10T14:01:15Z</time>
      </trkpt>
      <trkpt lat="44.44827" lon="5.18562">
        <ele>763.40002441406</ele>
        <time>2013-05-10T14:01:18Z</time>
      </trkpt>
      <trkpt lat="44.44847" lon="5.18586">
        <ele>763.40002441406</ele>
        <time>2013-05-10T14:01:23Z</time>
      </trkpt>
      <trkpt lat="44.44851" lon="5.18592">
        <ele>763.40002441406</ele>
        <time>2013-05-10T14:01:24Z</time>
      </trkpt>
      <trkpt lat="44.44855" lon="5.18614">
        <ele>764</ele>
        <time>2013-05-10T14:01:27Z</time>
      </trkpt>
      <trkpt lat="44.44857" lon="5.18621">
        <ele>764.79998779297</ele>
        <time>2013-05-10T14:01:28Z</time>
      </trkpt>
      <trkpt lat="44.44862" lon="5.18634">
        <ele>764.79998779297</ele>
        <time>2013-05-10T14:01:30Z</time>
      </trkpt>
      <trkpt lat="44.44869" lon="5.1865">
        <ele>765.20001220703</ele>
        <time>2013-05-10T14:01:33Z</time>
      </trkpt>
      <trkpt lat="44.44873" lon="5.18655">
        <ele>765.59997558594</ele>
        <time>2013-05-10T14:01:34Z</time>
      </trkpt>
      <trkpt lat="44.44892" lon="5.18693">
        <ele>765.59997558594</ele>
        <time>2013-05-10T14:01:41Z</time>
      </trkpt>
      <trkpt lat="44.44903" lon="5.18715">
        <ele>765.59997558594</ele>
        <time>2013-05-10T14:01:45Z</time>
      </trkpt>
      <trkpt lat="44.44907" lon="5.18728">
        <ele>765.59997558594</ele>
        <time>2013-05-10T14:01:47Z</time>
      </trkpt>
      <trkpt lat="44.44912" lon="5.18747">
        <ele>765.59997558594</ele>
        <time>2013-05-10T14:01:50Z</time>
      </trkpt>
      <trkpt lat="44.44919" lon="5.18765">
        <ele>765.59997558594</ele>
        <time>2013-05-10T14:01:53Z</time>
      </trkpt>
      <trkpt lat="44.44922" lon="5.18771">
        <ele>765.59997558594</ele>
        <time>2013-05-10T14:01:54Z</time>
      </trkpt>
      <trkpt lat="44.44935" lon="5.18796">
        <ele>765.59997558594</ele>
        <time>2013-05-10T14:01:59Z</time>
      </trkpt>
      <trkpt lat="44.44939" lon="5.18801">
        <ele>765.59997558594</ele>
        <time>2013-05-10T14:02:00Z</time>
      </trkpt>
      <trkpt lat="44.44952" lon="5.18821">
        <ele>765.59997558594</ele>
        <time>2013-05-10T14:02:05Z</time>
      </trkpt>
      <trkpt lat="44.44954" lon="5.18831">
        <ele>765.59997558594</ele>
        <time>2013-05-10T14:02:07Z</time>
      </trkpt>
      <trkpt lat="44.44957" lon="5.18841">
        <ele>765.59997558594</ele>
        <time>2013-05-10T14:02:09Z</time>
      </trkpt>
      <trkpt lat="44.44951" lon="5.18867">
        <ele>765.59997558594</ele>
        <time>2013-05-10T14:02:14Z</time>
      </trkpt>
      <trkpt lat="44.44933" lon="5.18893">
        <ele>765.59997558594</ele>
        <time>2013-05-10T14:02:19Z</time>
      </trkpt>
      <trkpt lat="44.4492" lon="5.18916">
        <ele>765.59997558594</ele>
        <time>2013-05-10T14:02:23Z</time>
      </trkpt>
      <trkpt lat="44.44916" lon="5.18921">
        <ele>765.59997558594</ele>
        <time>2013-05-10T14:02:24Z</time>
      </trkpt>
      <trkpt lat="44.44899" lon="5.18927">
        <ele>765.59997558594</ele>
        <time>2013-05-10T14:02:27Z</time>
      </trkpt>
      <trkpt lat="44.4488" lon="5.18931">
        <ele>765.59997558594</ele>
        <time>2013-05-10T14:02:30Z</time>
      </trkpt>
      <trkpt lat="44.44867" lon="5.18939">
        <ele>765.59997558594</ele>
        <time>2013-05-10T14:02:32Z</time>
      </trkpt>
      <trkpt lat="44.44862" lon="5.18944">
        <ele>765.20001220703</ele>
        <time>2013-05-10T14:02:33Z</time>
      </trkpt>
      <trkpt lat="44.44857" lon="5.1895">
        <ele>765.20001220703</ele>
        <time>2013-05-10T14:02:34Z</time>
      </trkpt>
      <trkpt lat="44.44844" lon="5.1896">
        <ele>764.20001220703</ele>
        <time>2013-05-10T14:02:36Z</time>
      </trkpt>
      <trkpt lat="44.44838" lon="5.18964">
        <ele>764.20001220703</ele>
        <time>2013-05-10T14:02:37Z</time>
      </trkpt>
      <trkpt lat="44.44822" lon="5.18973">
        <ele>763.79998779297</ele>
        <time>2013-05-10T14:02:39Z</time>
      </trkpt>
      <trkpt lat="44.44813" lon="5.18975">
        <ele>763.79998779297</ele>
        <time>2013-05-10T14:02:40Z</time>
      </trkpt>
      <trkpt lat="44.44788" lon="5.18972">
        <ele>763.20001220703</ele>
        <time>2013-05-10T14:02:43Z</time>
      </trkpt>
      <trkpt lat="44.44771" lon="5.18969">
        <ele>763.20001220703</ele>
        <time>2013-05-10T14:02:44Z</time>
      </trkpt>
      <trkpt lat="44.44758" lon="5.18975">
        <ele>763.20001220703</ele>
        <time>2013-05-10T14:02:48Z</time>
      </trkpt>
      <trkpt lat="44.44754" lon="5.18981">
        <ele>762.59997558594</ele>
        <time>2013-05-10T14:02:49Z</time>
      </trkpt>
      <trkpt lat="44.44746" lon="5.18996">
        <ele>762.20001220703</ele>
        <time>2013-05-10T14:02:52Z</time>
      </trkpt>
      <trkpt lat="44.44742" lon="5.19002">
        <ele>761.59997558594</ele>
        <time>2013-05-10T14:02:53Z</time>
      </trkpt>
      <trkpt lat="44.44734" lon="5.19015">
        <ele>761</ele>
        <time>2013-05-10T14:02:55Z</time>
      </trkpt>
      <trkpt lat="44.4473" lon="5.19022">
        <ele>760.59997558594</ele>
        <time>2013-05-10T14:02:56Z</time>
      </trkpt>
      <trkpt lat="44.44726" lon="5.19028">
        <ele>760.59997558594</ele>
        <time>2013-05-10T14:02:57Z</time>
      </trkpt>
      <trkpt lat="44.4472" lon="5.19035">
        <ele>760.59997558594</ele>
        <time>2013-05-10T14:02:58Z</time>
      </trkpt>
      <trkpt lat="44.44715" lon="5.19042">
        <ele>760.20001220703</ele>
        <time>2013-05-10T14:02:59Z</time>
      </trkpt>
      <trkpt lat="44.44699" lon="5.19064">
        <ele>759.40002441406</ele>
        <time>2013-05-10T14:03:02Z</time>
      </trkpt>
      <trkpt lat="44.44695" lon="5.1907">
        <ele>759</ele>
        <time>2013-05-10T14:03:03Z</time>
      </trkpt>
      <trkpt lat="44.4469" lon="5.19076">
        <ele>759</ele>
        <time>2013-05-10T14:03:04Z</time>
      </trkpt>
      <trkpt lat="44.44669" lon="5.19107">
        <ele>759</ele>
        <time>2013-05-10T14:03:09Z</time>
      </trkpt>
      <trkpt lat="44.44664" lon="5.19114">
        <ele>758.59997558594</ele>
        <time>2013-05-10T14:03:10Z</time>
      </trkpt>
      <trkpt lat="44.44654" lon="5.19135">
        <ele>757.59997558594</ele>
        <time>2013-05-10T14:03:13Z</time>
      </trkpt>
      <trkpt lat="44.44643" lon="5.19156">
        <ele>757.20001220703</ele>
        <time>2013-05-10T14:03:16Z</time>
      </trkpt>
      <trkpt lat="44.44638" lon="5.19163">
        <ele>756.79998779297</ele>
        <time>2013-05-10T14:03:17Z</time>
      </trkpt>
      <trkpt lat="44.44617" lon="5.192">
        <ele>756.79998779297</ele>
        <time>2013-05-10T14:03:22Z</time>
      </trkpt>
      <trkpt lat="44.44596" lon="5.1924">
        <ele>755.79998779297</ele>
        <time>2013-05-10T14:03:27Z</time>
      </trkpt>
      <trkpt lat="44.44584" lon="5.19263">
        <ele>755.40002441406</ele>
        <time>2013-05-10T14:03:30Z</time>
      </trkpt>
      <trkpt lat="44.44579" lon="5.19268">
        <ele>755</ele>
        <time>2013-05-10T14:03:31Z</time>
      </trkpt>
      <trkpt lat="44.44568" lon="5.19278">
        <ele>754.40002441406</ele>
        <time>2013-05-10T14:03:33Z</time>
      </trkpt>
      <trkpt lat="44.44563" lon="5.19283">
        <ele>754.40002441406</ele>
        <time>2013-05-10T14:03:34Z</time>
      </trkpt>
      <trkpt lat="44.4455" lon="5.19293">
        <ele>754.40002441406</ele>
        <time>2013-05-10T14:03:36Z</time>
      </trkpt>
      <trkpt lat="44.44535" lon="5.193">
        <ele>753.59997558594</ele>
        <time>2013-05-10T14:03:38Z</time>
      </trkpt>
      <trkpt lat="44.44516" lon="5.19315">
        <ele>752.59997558594</ele>
        <time>2013-05-10T14:03:41Z</time>
      </trkpt>
      <trkpt lat="44.44504" lon="5.19327">
        <ele>752.59997558594</ele>
        <time>2013-05-10T14:03:43Z</time>
      </trkpt>
      <trkpt lat="44.445" lon="5.1933">
        <ele>752</ele>
        <time>2013-05-10T14:03:44Z</time>
      </trkpt>
      <trkpt lat="44.44496" lon="5.19331">
        <ele>751.59997558594</ele>
        <time>2013-05-10T14:03:45Z</time>
      </trkpt>
      <trkpt lat="44.4449" lon="5.19328">
        <ele>750.79998779297</ele>
        <time>2013-05-10T14:03:47Z</time>
      </trkpt>
      <trkpt lat="44.44487" lon="5.19325">
        <ele>750</ele>
        <time>2013-05-10T14:03:48Z</time>
      </trkpt>
      <trkpt lat="44.4448" lon="5.19324">
        <ele>747.79998779297</ele>
        <time>2013-05-10T14:03:54Z</time>
      </trkpt>
      <trkpt lat="44.4446" lon="5.19331">
        <ele>744.79998779297</ele>
        <time>2013-05-10T14:04:37Z</time>
      </trkpt>
      <trkpt lat="44.44442" lon="5.19335">
        <ele>744.20001220703</ele>
        <time>2013-05-10T14:04:40Z</time>
      </trkpt>
      <trkpt lat="44.44434" lon="5.19336">
        <ele>743.40002441406</ele>
        <time>2013-05-10T14:04:41Z</time>
      </trkpt>
      <trkpt lat="44.44413" lon="5.19342">
        <ele>741.79998779297</ele>
        <time>2013-05-10T14:04:44Z</time>
      </trkpt>
      <trkpt lat="44.44407" lon="5.19345">
        <ele>741.79998779297</ele>
        <time>2013-05-10T14:04:45Z</time>
      </trkpt>
      <trkpt lat="44.44394" lon="5.19353">
        <ele>741</ele>
        <time>2013-05-10T14:04:47Z</time>
      </trkpt>
      <trkpt lat="44.44388" lon="5.19359">
        <ele>740.20001220703</ele>
        <time>2013-05-10T14:04:48Z</time>
      </trkpt>
      <trkpt lat="44.44374" lon="5.19381">
        <ele>739.20001220703</ele>
        <time>2013-05-10T14:04:51Z</time>
      </trkpt>
      <trkpt lat="44.4437" lon="5.19389">
        <ele>739.20001220703</ele>
        <time>2013-05-10T14:04:52Z</time>
      </trkpt>
      <trkpt lat="44.44358" lon="5.19403">
        <ele>738.59997558594</ele>
        <time>2013-05-10T14:04:54Z</time>
      </trkpt>
      <trkpt lat="44.44326" lon="5.19404">
        <ele>738.20001220703</ele>
        <time>2013-05-10T14:04:58Z</time>
      </trkpt>
      <trkpt lat="44.44311" lon="5.19394">
        <ele>738.20001220703</ele>
        <time>2013-05-10T14:05:00Z</time>
      </trkpt>
      <trkpt lat="44.44303" lon="5.19391">
        <ele>737</ele>
        <time>2013-05-10T14:05:01Z</time>
      </trkpt>
      <trkpt lat="44.44295" lon="5.19388">
        <ele>735.79998779297</ele>
        <time>2013-05-10T14:05:02Z</time>
      </trkpt>
      <trkpt lat="44.44269" lon="5.1938">
        <ele>732.79998779297</ele>
        <time>2013-05-10T14:05:05Z</time>
      </trkpt>
      <trkpt lat="44.44242" lon="5.19373">
        <ele>731.40002441406</ele>
        <time>2013-05-10T14:05:08Z</time>
      </trkpt>
      <trkpt lat="44.44234" lon="5.19368">
        <ele>730.20001220703</ele>
        <time>2013-05-10T14:05:09Z</time>
      </trkpt>
      <trkpt lat="44.44222" lon="5.19352">
        <ele>730.20001220703</ele>
        <time>2013-05-10T14:05:11Z</time>
      </trkpt>
      <trkpt lat="44.44217" lon="5.19342">
        <ele>727.79998779297</ele>
        <time>2013-05-10T14:05:12Z</time>
      </trkpt>
      <trkpt lat="44.44212" lon="5.19332">
        <ele>727.79998779297</ele>
        <time>2013-05-10T14:05:13Z</time>
      </trkpt>
      <trkpt lat="44.44201" lon="5.1932">
        <ele>726.59997558594</ele>
        <time>2013-05-10T14:05:15Z</time>
      </trkpt>
      <trkpt lat="44.44181" lon="5.19319">
        <ele>726.59997558594</ele>
        <time>2013-05-10T14:05:18Z</time>
      </trkpt>
      <trkpt lat="44.44176" lon="5.1932">
        <ele>724.59997558594</ele>
        <time>2013-05-10T14:05:19Z</time>
      </trkpt>
      <trkpt lat="44.44155" lon="5.19318">
        <ele>723.59997558594</ele>
        <time>2013-05-10T14:05:22Z</time>
      </trkpt>
      <trkpt lat="44.4415" lon="5.19313">
        <ele>723.59997558594</ele>
        <time>2013-05-10T14:05:23Z</time>
      </trkpt>
      <trkpt lat="44.44133" lon="5.19299">
        <ele>722.40002441406</ele>
        <time>2013-05-10T14:05:26Z</time>
      </trkpt>
      <trkpt lat="44.44128" lon="5.19296">
        <ele>722.40002441406</ele>
        <time>2013-05-10T14:05:27Z</time>
      </trkpt>
      <trkpt lat="44.44097" lon="5.19281">
        <ele>722.40002441406</ele>
        <time>2013-05-10T14:05:32Z</time>
      </trkpt>
      <trkpt lat="44.44072" lon="5.19272">
        <ele>722.40002441406</ele>
        <time>2013-05-10T14:05:37Z</time>
      </trkpt>
      <trkpt lat="44.44051" lon="5.19262">
        <ele>722.40002441406</ele>
        <time>2013-05-10T14:05:42Z</time>
      </trkpt>
      <trkpt lat="44.44035" lon="5.19256">
        <ele>723</ele>
        <time>2013-05-10T14:05:46Z</time>
      </trkpt>
      <trkpt lat="44.4402" lon="5.19251">
        <ele>724</ele>
        <time>2013-05-10T14:05:50Z</time>
      </trkpt>
      <trkpt lat="44.44009" lon="5.19247">
        <ele>724.59997558594</ele>
        <time>2013-05-10T14:05:53Z</time>
      </trkpt>
      <trkpt lat="44.43999" lon="5.19241">
        <ele>726.20001220703</ele>
        <time>2013-05-10T14:05:57Z</time>
      </trkpt>
      <trkpt lat="44.43993" lon="5.19237">
        <ele>726.79998779297</ele>
        <time>2013-05-10T14:06:00Z</time>
      </trkpt>
      <trkpt lat="44.4399" lon="5.19235">
        <ele>727.40002441406</ele>
        <time>2013-05-10T14:06:01Z</time>
      </trkpt>
      <trkpt lat="44.43966" lon="5.19222">
        <ele>727.40002441406</ele>
        <time>2013-05-10T14:06:09Z</time>
      </trkpt>
      <trkpt lat="44.43948" lon="5.19211">
        <ele>727.79998779297</ele>
        <time>2013-05-10T14:06:15Z</time>
      </trkpt>
      <trkpt lat="44.43944" lon="5.1921">
        <ele>727.79998779297</ele>
        <time>2013-05-10T14:06:16Z</time>
      </trkpt>
      <trkpt lat="44.43938" lon="5.19207">
        <ele>728.59997558594</ele>
        <time>2013-05-10T14:06:18Z</time>
      </trkpt>
      <trkpt lat="44.43929" lon="5.19201">
        <ele>729.20001220703</ele>
        <time>2013-05-10T14:06:21Z</time>
      </trkpt>
      <trkpt lat="44.43926" lon="5.19199">
        <ele>729.59997558594</ele>
        <time>2013-05-10T14:06:22Z</time>
      </trkpt>
      <trkpt lat="44.43918" lon="5.19194">
        <ele>729.59997558594</ele>
        <time>2013-05-10T14:06:26Z</time>
      </trkpt>
      <trkpt lat="44.43904" lon="5.19189">
        <ele>729.59997558594</ele>
        <time>2013-05-10T14:06:31Z</time>
      </trkpt>
      <trkpt lat="44.43888" lon="5.19189">
        <ele>729.59997558594</ele>
        <time>2013-05-10T14:06:37Z</time>
      </trkpt>
      <trkpt lat="44.43859" lon="5.19193">
        <ele>729.59997558594</ele>
        <time>2013-05-10T14:06:43Z</time>
      </trkpt>
      <trkpt lat="44.43841" lon="5.19194">
        <ele>729</ele>
        <time>2013-05-10T14:06:46Z</time>
      </trkpt>
      <trkpt lat="44.43822" lon="5.19193">
        <ele>728.20001220703</ele>
        <time>2013-05-10T14:06:49Z</time>
      </trkpt>
      <trkpt lat="44.43814" lon="5.19189">
        <ele>728.20001220703</ele>
        <time>2013-05-10T14:06:50Z</time>
      </trkpt>
      <trkpt lat="44.43808" lon="5.19184">
        <ele>728.20001220703</ele>
        <time>2013-05-10T14:06:51Z</time>
      </trkpt>
      <trkpt lat="44.43797" lon="5.19178">
        <ele>725.79998779297</ele>
        <time>2013-05-10T14:06:53Z</time>
      </trkpt>
      <trkpt lat="44.43785" lon="5.19173">
        <ele>724.40002441406</ele>
        <time>2013-05-10T14:06:56Z</time>
      </trkpt>
      <trkpt lat="44.43779" lon="5.19177">
        <ele>721.40002441406</ele>
        <time>2013-05-10T14:07:00Z</time>
      </trkpt>
      <trkpt lat="44.43777" lon="5.1918">
        <ele>720</ele>
        <time>2013-05-10T14:07:03Z</time>
      </trkpt>
      <trkpt lat="44.4377" lon="5.19185">
        <ele>712.79998779297</ele>
        <time>2013-05-10T14:07:17Z</time>
      </trkpt>
      <trkpt lat="44.43761" lon="5.19191">
        <ele>711.40002441406</ele>
        <time>2013-05-10T14:07:24Z</time>
      </trkpt>
      <trkpt lat="44.43758" lon="5.19194">
        <ele>710.40002441406</ele>
        <time>2013-05-10T14:07:26Z</time>
      </trkpt>
      <trkpt lat="44.4375" lon="5.192">
        <ele>709.59997558594</ele>
        <time>2013-05-10T14:07:30Z</time>
      </trkpt>
      <trkpt lat="44.43744" lon="5.19204">
        <ele>708.20001220703</ele>
        <time>2013-05-10T14:07:33Z</time>
      </trkpt>
      <trkpt lat="44.43735" lon="5.1921">
        <ele>703</ele>
        <time>2013-05-10T14:07:40Z</time>
      </trkpt>
      <trkpt lat="44.43727" lon="5.1921">
        <ele>702</ele>
        <time>2013-05-10T14:07:43Z</time>
      </trkpt>
      <trkpt lat="44.43723" lon="5.19208">
        <ele>700.79998779297</ele>
        <time>2013-05-10T14:07:44Z</time>
      </trkpt>
      <trkpt lat="44.43712" lon="5.19199">
        <ele>698.79998779297</ele>
        <time>2013-05-10T14:07:47Z</time>
      </trkpt>
      <trkpt lat="44.43702" lon="5.19193">
        <ele>698.79998779297</ele>
        <time>2013-05-10T14:07:49Z</time>
      </trkpt>
      <trkpt lat="44.43697" lon="5.19192">
        <ele>698</ele>
        <time>2013-05-10T14:07:50Z</time>
      </trkpt>
      <trkpt lat="44.43679" lon="5.19191">
        <ele>697</ele>
        <time>2013-05-10T14:07:53Z</time>
      </trkpt>
      <trkpt lat="44.43675" lon="5.19206">
        <ele>689.79998779297</ele>
        <time>2013-05-10T14:10:05Z</time>
      </trkpt>
      <trkpt lat="44.43678" lon="5.19212">
        <ele>689.79998779297</ele>
        <time>2013-05-10T14:10:07Z</time>
      </trkpt>
      <trkpt lat="44.4368" lon="5.19214">
        <ele>689.40002441406</ele>
        <time>2013-05-10T14:10:08Z</time>
      </trkpt>
      <trkpt lat="44.4369" lon="5.1922">
        <ele>684.59997558594</ele>
        <time>2013-05-10T14:10:19Z</time>
      </trkpt>
      <trkpt lat="44.4369" lon="5.19226">
        <ele>684.59997558594</ele>
        <time>2013-05-10T14:10:46Z</time>
      </trkpt>
      <trkpt lat="44.43695" lon="5.19237">
        <ele>684.59997558594</ele>
        <time>2013-05-10T14:11:09Z</time>
      </trkpt>
      <trkpt lat="44.437" lon="5.19249">
        <ele>684</ele>
        <time>2013-05-10T14:11:12Z</time>
      </trkpt>
      <trkpt lat="44.43701" lon="5.19256">
        <ele>683</ele>
        <time>2013-05-10T14:11:14Z</time>
      </trkpt>
      <trkpt lat="44.43709" lon="5.19268">
        <ele>681.59997558594</ele>
        <time>2013-05-10T14:11:18Z</time>
      </trkpt>
      <trkpt lat="44.43713" lon="5.19276">
        <ele>680.20001220703</ele>
        <time>2013-05-10T14:11:21Z</time>
      </trkpt>
      <trkpt lat="44.43703" lon="5.19291">
        <ele>679.20001220703</ele>
        <time>2013-05-10T14:11:25Z</time>
      </trkpt>
      <trkpt lat="44.43703" lon="5.19302">
        <ele>677.59997558594</ele>
        <time>2013-05-10T14:11:28Z</time>
      </trkpt>
      <trkpt lat="44.43699" lon="5.19309">
        <ele>676</ele>
        <time>2013-05-10T14:11:32Z</time>
      </trkpt>
      <trkpt lat="44.43697" lon="5.19316">
        <ele>675.20001220703</ele>
        <time>2013-05-10T14:11:35Z</time>
      </trkpt>
      <trkpt lat="44.43694" lon="5.19323">
        <ele>675.20001220703</ele>
        <time>2013-05-10T14:11:37Z</time>
      </trkpt>
      <trkpt lat="44.43688" lon="5.19356">
        <ele>675.20001220703</ele>
        <time>2013-05-10T14:11:43Z</time>
      </trkpt>
      <trkpt lat="44.43681" lon="5.19378">
        <ele>675.20001220703</ele>
        <time>2013-05-10T14:11:47Z</time>
      </trkpt>
      <trkpt lat="44.43678" lon="5.19383">
        <ele>675.20001220703</ele>
        <time>2013-05-10T14:11:48Z</time>
      </trkpt>
      <trkpt lat="44.43673" lon="5.19394">
        <ele>674.59997558594</ele>
        <time>2013-05-10T14:11:50Z</time>
      </trkpt>
      <trkpt lat="44.4367" lon="5.19413">
        <ele>673.40002441406</ele>
        <time>2013-05-10T14:11:53Z</time>
      </trkpt>
      <trkpt lat="44.43666" lon="5.19424">
        <ele>671.79998779297</ele>
        <time>2013-05-10T14:11:56Z</time>
      </trkpt>
      <trkpt lat="44.43659" lon="5.19448">
        <ele>671.79998779297</ele>
        <time>2013-05-10T14:12:02Z</time>
      </trkpt>
      <trkpt lat="44.43659" lon="5.19453">
        <ele>670.20001220703</ele>
        <time>2013-05-10T14:12:03Z</time>
      </trkpt>
      <trkpt lat="44.43657" lon="5.19475">
        <ele>670.20001220703</ele>
        <time>2013-05-10T14:12:08Z</time>
      </trkpt>
      <trkpt lat="44.43655" lon="5.19485">
        <ele>669.59997558594</ele>
        <time>2013-05-10T14:12:11Z</time>
      </trkpt>
      <trkpt lat="44.43657" lon="5.19492">
        <ele>669.59997558594</ele>
        <time>2013-05-10T14:12:13Z</time>
      </trkpt>
      <trkpt lat="44.43646" lon="5.19497">
        <ele>665</ele>
        <time>2013-05-10T14:12:18Z</time>
      </trkpt>
      <trkpt lat="44.43639" lon="5.19494">
        <ele>665</ele>
        <time>2013-05-10T14:12:20Z</time>
      </trkpt>
      <trkpt lat="44.43627" lon="5.19485">
        <ele>663.59997558594</ele>
        <time>2013-05-10T14:12:23Z</time>
      </trkpt>
      <trkpt lat="44.43611" lon="5.19485">
        <ele>659.20001220703</ele>
        <time>2013-05-10T14:12:28Z</time>
      </trkpt>
      <trkpt lat="44.43604" lon="5.19486">
        <ele>659.20001220703</ele>
        <time>2013-05-10T14:12:30Z</time>
      </trkpt>
      <trkpt lat="44.43598" lon="5.19487">
        <ele>656.40002441406</ele>
        <time>2013-05-10T14:12:32Z</time>
      </trkpt>
      <trkpt lat="44.43591" lon="5.19491">
        <ele>656.40002441406</ele>
        <time>2013-05-10T14:12:34Z</time>
      </trkpt>
      <trkpt lat="44.43589" lon="5.19494">
        <ele>655</ele>
        <time>2013-05-10T14:12:35Z</time>
      </trkpt>
      <trkpt lat="44.43582" lon="5.19501">
        <ele>655</ele>
        <time>2013-05-10T14:12:38Z</time>
      </trkpt>
      <trkpt lat="44.43561" lon="5.19519">
        <ele>655</ele>
        <time>2013-05-10T14:12:44Z</time>
      </trkpt>
      <trkpt lat="44.43554" lon="5.19526">
        <ele>654.59997558594</ele>
        <time>2013-05-10T14:12:46Z</time>
      </trkpt>
      <trkpt lat="44.4355" lon="5.19532">
        <ele>654.59997558594</ele>
        <time>2013-05-10T14:12:47Z</time>
      </trkpt>
      <trkpt lat="44.43548" lon="5.19538">
        <ele>654</ele>
        <time>2013-05-10T14:12:48Z</time>
      </trkpt>
      <trkpt lat="44.43545" lon="5.19541">
        <ele>653.59997558594</ele>
        <time>2013-05-10T14:12:49Z</time>
      </trkpt>
      <trkpt lat="44.43536" lon="5.19543">
        <ele>653.59997558594</ele>
        <time>2013-05-10T14:12:51Z</time>
      </trkpt>
      <trkpt lat="44.43523" lon="5.19548">
        <ele>652.79998779297</ele>
        <time>2013-05-10T14:12:55Z</time>
      </trkpt>
      <trkpt lat="44.43516" lon="5.19552">
        <ele>652.79998779297</ele>
        <time>2013-05-10T14:12:57Z</time>
      </trkpt>
      <trkpt lat="44.43501" lon="5.19559">
        <ele>652.79998779297</ele>
        <time>2013-05-10T14:13:01Z</time>
      </trkpt>
      <trkpt lat="44.43496" lon="5.1956">
        <ele>652.40002441406</ele>
        <time>2013-05-10T14:13:02Z</time>
      </trkpt>
      <trkpt lat="44.43491" lon="5.19561">
        <ele>652</ele>
        <time>2013-05-10T14:13:03Z</time>
      </trkpt>
      <trkpt lat="44.43475" lon="5.19566">
        <ele>651.40002441406</ele>
        <time>2013-05-10T14:13:06Z</time>
      </trkpt>
      <trkpt lat="44.43464" lon="5.19572">
        <ele>651.40002441406</ele>
        <time>2013-05-10T14:13:08Z</time>
      </trkpt>
      <trkpt lat="44.43459" lon="5.19575">
        <ele>650.59997558594</ele>
        <time>2013-05-10T14:13:09Z</time>
      </trkpt>
      <trkpt lat="44.43439" lon="5.19596">
        <ele>647.79998779297</ele>
        <time>2013-05-10T14:13:13Z</time>
      </trkpt>
      <trkpt lat="44.43435" lon="5.19602">
        <ele>647.79998779297</ele>
        <time>2013-05-10T14:13:14Z</time>
      </trkpt>
      <trkpt lat="44.43425" lon="5.19612">
        <ele>646.79998779297</ele>
        <time>2013-05-10T14:13:16Z</time>
      </trkpt>
      <trkpt lat="44.4342" lon="5.19616">
        <ele>645.79998779297</ele>
        <time>2013-05-10T14:13:17Z</time>
      </trkpt>
      <trkpt lat="44.43411" lon="5.19623">
        <ele>645.79998779297</ele>
        <time>2013-05-10T14:13:19Z</time>
      </trkpt>
      <trkpt lat="44.43407" lon="5.19626">
        <ele>643.79998779297</ele>
        <time>2013-05-10T14:13:20Z</time>
      </trkpt>
      <trkpt lat="44.43394" lon="5.19637">
        <ele>642.79998779297</ele>
        <time>2013-05-10T14:13:23Z</time>
      </trkpt>
      <trkpt lat="44.43389" lon="5.19643">
        <ele>641.59997558594</ele>
        <time>2013-05-10T14:13:24Z</time>
      </trkpt>
      <trkpt lat="44.43376" lon="5.1966">
        <ele>639</ele>
        <time>2013-05-10T14:13:27Z</time>
      </trkpt>
      <trkpt lat="44.43362" lon="5.19677">
        <ele>638</ele>
        <time>2013-05-10T14:13:30Z</time>
      </trkpt>
      <trkpt lat="44.43358" lon="5.19682">
        <ele>637</ele>
        <time>2013-05-10T14:13:31Z</time>
      </trkpt>
      <trkpt lat="44.43344" lon="5.197">
        <ele>635</ele>
        <time>2013-05-10T14:13:34Z</time>
      </trkpt>
      <trkpt lat="44.43339" lon="5.19706">
        <ele>635</ele>
        <time>2013-05-10T14:13:35Z</time>
      </trkpt>
      <trkpt lat="44.43332" lon="5.1972">
        <ele>634.20001220703</ele>
        <time>2013-05-10T14:13:37Z</time>
      </trkpt>
      <trkpt lat="44.43329" lon="5.19728">
        <ele>633.59997558594</ele>
        <time>2013-05-10T14:13:38Z</time>
      </trkpt>
      <trkpt lat="44.43317" lon="5.19747">
        <ele>632.20001220703</ele>
        <time>2013-05-10T14:13:41Z</time>
      </trkpt>
      <trkpt lat="44.43306" lon="5.19767">
        <ele>631.59997558594</ele>
        <time>2013-05-10T14:13:44Z</time>
      </trkpt>
      <trkpt lat="44.43303" lon="5.19773">
        <ele>631</ele>
        <time>2013-05-10T14:13:45Z</time>
      </trkpt>
      <trkpt lat="44.43298" lon="5.19778">
        <ele>631</ele>
        <time>2013-05-10T14:13:46Z</time>
      </trkpt>
      <trkpt lat="44.43294" lon="5.19783">
        <ele>630.40002441406</ele>
        <time>2013-05-10T14:13:47Z</time>
      </trkpt>
      <trkpt lat="44.43283" lon="5.19798">
        <ele>630</ele>
        <time>2013-05-10T14:13:50Z</time>
      </trkpt>
      <trkpt lat="44.43279" lon="5.19804">
        <ele>629.20001220703</ele>
        <time>2013-05-10T14:13:51Z</time>
      </trkpt>
      <trkpt lat="44.43276" lon="5.1981">
        <ele>628.59997558594</ele>
        <time>2013-05-10T14:13:52Z</time>
      </trkpt>
      <trkpt lat="44.4327" lon="5.19826">
        <ele>627.59997558594</ele>
        <time>2013-05-10T14:13:54Z</time>
      </trkpt>
      <trkpt lat="44.43266" lon="5.19833">
        <ele>626.79998779297</ele>
        <time>2013-05-10T14:13:55Z</time>
      </trkpt>
      <trkpt lat="44.4326" lon="5.1986">
        <ele>625.79998779297</ele>
        <time>2013-05-10T14:13:58Z</time>
      </trkpt>
      <trkpt lat="44.43259" lon="5.19867">
        <ele>625.79998779297</ele>
        <time>2013-05-10T14:13:59Z</time>
      </trkpt>
      <trkpt lat="44.43257" lon="5.19884">
        <ele>625</ele>
        <time>2013-05-10T14:14:01Z</time>
      </trkpt>
      <trkpt lat="44.43255" lon="5.19893">
        <ele>624.20001220703</ele>
        <time>2013-05-10T14:14:02Z</time>
      </trkpt>
      <trkpt lat="44.43249" lon="5.19922">
        <ele>623.40002441406</ele>
        <time>2013-05-10T14:14:05Z</time>
      </trkpt>
      <trkpt lat="44.43247" lon="5.19933">
        <ele>623.40002441406</ele>
        <time>2013-05-10T14:14:06Z</time>
      </trkpt>
      <trkpt lat="44.43246" lon="5.19954">
        <ele>622.40002441406</ele>
        <time>2013-05-10T14:14:08Z</time>
      </trkpt>
      <trkpt lat="44.43246" lon="5.19964">
        <ele>621.40002441406</ele>
        <time>2013-05-10T14:14:09Z</time>
      </trkpt>
      <trkpt lat="44.43245" lon="5.19974">
        <ele>621.40002441406</ele>
        <time>2013-05-10T14:14:10Z</time>
      </trkpt>
      <trkpt lat="44.43245" lon="5.19993">
        <ele>620.59997558594</ele>
        <time>2013-05-10T14:14:12Z</time>
      </trkpt>
      <trkpt lat="44.43245" lon="5.20014">
        <ele>620.59997558594</ele>
        <time>2013-05-10T14:14:14Z</time>
      </trkpt>
      <trkpt lat="44.43244" lon="5.20024">
        <ele>619.59997558594</ele>
        <time>2013-05-10T14:14:15Z</time>
      </trkpt>
      <trkpt lat="44.43243" lon="5.20034">
        <ele>619</ele>
        <time>2013-05-10T14:14:16Z</time>
      </trkpt>
      <trkpt lat="44.43243" lon="5.20074">
        <ele>619</ele>
        <time>2013-05-10T14:14:20Z</time>
      </trkpt>
      <trkpt lat="44.43243" lon="5.201">
        <ele>617.40002441406</ele>
        <time>2013-05-10T14:14:23Z</time>
      </trkpt>
      <trkpt lat="44.43241" lon="5.20106">
        <ele>617.40002441406</ele>
        <time>2013-05-10T14:14:24Z</time>
      </trkpt>
      <trkpt lat="44.43234" lon="5.20119">
        <ele>616.20001220703</ele>
        <time>2013-05-10T14:14:26Z</time>
      </trkpt>
      <trkpt lat="44.43226" lon="5.20132">
        <ele>616.20001220703</ele>
        <time>2013-05-10T14:14:28Z</time>
      </trkpt>
      <trkpt lat="44.4322" lon="5.20147">
        <ele>613.59997558594</ele>
        <time>2013-05-10T14:14:30Z</time>
      </trkpt>
      <trkpt lat="44.4322" lon="5.20162">
        <ele>613.59997558594</ele>
        <time>2013-05-10T14:14:32Z</time>
      </trkpt>
      <trkpt lat="44.4323" lon="5.20196">
        <ele>609.40002441406</ele>
        <time>2013-05-10T14:14:37Z</time>
      </trkpt>
      <trkpt lat="44.43237" lon="5.20216">
        <ele>608</ele>
        <time>2013-05-10T14:14:40Z</time>
      </trkpt>
      <trkpt lat="44.43242" lon="5.20232">
        <ele>608</ele>
        <time>2013-05-10T14:14:42Z</time>
      </trkpt>
      <trkpt lat="44.43248" lon="5.20246">
        <ele>605</ele>
        <time>2013-05-10T14:14:44Z</time>
      </trkpt>
      <trkpt lat="44.43256" lon="5.20253">
        <ele>605</ele>
        <time>2013-05-10T14:14:46Z</time>
      </trkpt>
      <trkpt lat="44.43261" lon="5.20255">
        <ele>598.59997558594</ele>
        <time>2013-05-10T14:14:52Z</time>
      </trkpt>
      <trkpt lat="44.4326" lon="5.20252">
        <ele>597</ele>
        <time>2013-05-10T14:15:40Z</time>
      </trkpt>
      <trkpt lat="44.43259" lon="5.20249">
        <ele>597</ele>
        <time>2013-05-10T14:15:48Z</time>
      </trkpt>
      <trkpt lat="44.43261" lon="5.20252">
        <ele>605.20001220703</ele>
        <time>2013-05-10T14:17:00Z</time>
      </trkpt>
      <trkpt lat="44.4327" lon="5.20266">
        <ele>605.79998779297</ele>
        <time>2013-05-10T14:17:04Z</time>
      </trkpt>
      <trkpt lat="44.43278" lon="5.20285">
        <ele>605.20001220703</ele>
        <time>2013-05-10T14:17:07Z</time>
      </trkpt>
      <trkpt lat="44.4328" lon="5.20293">
        <ele>605.20001220703</ele>
        <time>2013-05-10T14:17:08Z</time>
      </trkpt>
      <trkpt lat="44.43281" lon="5.20299">
        <ele>605.20001220703</ele>
        <time>2013-05-10T14:17:09Z</time>
      </trkpt>
      <trkpt lat="44.43287" lon="5.20303">
        <ele>603.79998779297</ele>
        <time>2013-05-10T14:17:12Z</time>
      </trkpt>
      <trkpt lat="44.4329" lon="5.20304">
        <ele>603.79998779297</ele>
        <time>2013-05-10T14:17:13Z</time>
      </trkpt>
      <trkpt lat="44.43298" lon="5.20321">
        <ele>602.20001220703</ele>
        <time>2013-05-10T14:17:17Z</time>
      </trkpt>
      <trkpt lat="44.43292" lon="5.2034">
        <ele>600</ele>
        <time>2013-05-10T14:17:22Z</time>
      </trkpt>
      <trkpt lat="44.43285" lon="5.20343">
        <ele>600</ele>
        <time>2013-05-10T14:17:24Z</time>
      </trkpt>
      <trkpt lat="44.43279" lon="5.20351">
        <ele>597.20001220703</ele>
        <time>2013-05-10T14:17:27Z</time>
      </trkpt>
      <trkpt lat="44.4327" lon="5.20368">
        <ele>597.20001220703</ele>
        <time>2013-05-10T14:17:31Z</time>
      </trkpt>
      <trkpt lat="44.43267" lon="5.20369">
        <ele>594</ele>
        <time>2013-05-10T14:17:32Z</time>
      </trkpt>
      <trkpt lat="44.43265" lon="5.20373">
        <ele>594</ele>
        <time>2013-05-10T14:17:33Z</time>
      </trkpt>
      <trkpt lat="44.43264" lon="5.20394">
        <ele>590.20001220703</ele>
        <time>2013-05-10T14:17:37Z</time>
      </trkpt>
      <trkpt lat="44.43264" lon="5.20403">
        <ele>590.20001220703</ele>
        <time>2013-05-10T14:17:39Z</time>
      </trkpt>
      <trkpt lat="44.43262" lon="5.20417">
        <ele>586.20001220703</ele>
        <time>2013-05-10T14:17:42Z</time>
      </trkpt>
      <trkpt lat="44.43261" lon="5.20429">
        <ele>586.20001220703</ele>
        <time>2013-05-10T14:17:44Z</time>
      </trkpt>
      <trkpt lat="44.43264" lon="5.20448">
        <ele>581.79998779297</ele>
        <time>2013-05-10T14:17:47Z</time>
      </trkpt>
      <trkpt lat="44.4327" lon="5.20468">
        <ele>581.79998779297</ele>
        <time>2013-05-10T14:17:50Z</time>
      </trkpt>
      <trkpt lat="44.4327" lon="5.20476">
        <ele>581.79998779297</ele>
        <time>2013-05-10T14:17:51Z</time>
      </trkpt>
      <trkpt lat="44.43272" lon="5.20484">
        <ele>577.40002441406</ele>
        <time>2013-05-10T14:17:52Z</time>
      </trkpt>
      <trkpt lat="44.4327" lon="5.20518">
        <ele>577.40002441406</ele>
        <time>2013-05-10T14:17:55Z</time>
      </trkpt>
      <trkpt lat="44.43267" lon="5.20543">
        <ele>572.40002441406</ele>
        <time>2013-05-10T14:17:57Z</time>
      </trkpt>
      <trkpt lat="44.43261" lon="5.20581">
        <ele>572.40002441406</ele>
        <time>2013-05-10T14:18:00Z</time>
      </trkpt>
      <trkpt lat="44.43258" lon="5.20605">
        <ele>567</ele>
        <time>2013-05-10T14:18:02Z</time>
      </trkpt>
      <trkpt lat="44.43258" lon="5.20625">
        <ele>567</ele>
        <time>2013-05-10T14:18:04Z</time>
      </trkpt>
      <trkpt lat="44.43259" lon="5.20656">
        <ele>561</ele>
        <time>2013-05-10T14:18:07Z</time>
      </trkpt>
      <trkpt lat="44.43258" lon="5.20679">
        <ele>561</ele>
        <time>2013-05-10T14:18:09Z</time>
      </trkpt>
      <trkpt lat="44.4325" lon="5.20717">
        <ele>554.59997558594</ele>
        <time>2013-05-10T14:18:12Z</time>
      </trkpt>
      <trkpt lat="44.43248" lon="5.20729">
        <ele>554.59997558594</ele>
        <time>2013-05-10T14:18:13Z</time>
      </trkpt>
      <trkpt lat="44.43248" lon="5.20749">
        <ele>554.59997558594</ele>
        <time>2013-05-10T14:18:15Z</time>
      </trkpt>
      <trkpt lat="44.43252" lon="5.20765">
        <ele>547.79998779297</ele>
        <time>2013-05-10T14:18:17Z</time>
      </trkpt>
      <trkpt lat="44.4326" lon="5.20776">
        <ele>547.79998779297</ele>
        <time>2013-05-10T14:18:20Z</time>
      </trkpt>
      <trkpt lat="44.43262" lon="5.20779">
        <ele>547.79998779297</ele>
        <time>2013-05-10T14:18:21Z</time>
      </trkpt>
      <trkpt lat="44.43265" lon="5.20781">
        <ele>541.20001220703</ele>
        <time>2013-05-10T14:18:22Z</time>
      </trkpt>
      <trkpt lat="44.43279" lon="5.20792">
        <ele>541.20001220703</ele>
        <time>2013-05-10T14:18:25Z</time>
      </trkpt>
      <trkpt lat="44.43289" lon="5.20798">
        <ele>535</ele>
        <time>2013-05-10T14:18:27Z</time>
      </trkpt>
      <trkpt lat="44.43295" lon="5.20795">
        <ele>535</ele>
        <time>2013-05-10T14:18:28Z</time>
      </trkpt>
      <trkpt lat="44.43314" lon="5.20773">
        <ele>529.79998779297</ele>
        <time>2013-05-10T14:18:32Z</time>
      </trkpt>
      <trkpt lat="44.43317" lon="5.20768">
        <ele>529.79998779297</ele>
        <time>2013-05-10T14:18:33Z</time>
      </trkpt>
      <trkpt lat="44.43321" lon="5.20761">
        <ele>529.79998779297</ele>
        <time>2013-05-10T14:18:34Z</time>
      </trkpt>
      <trkpt lat="44.43332" lon="5.20748">
        <ele>524.79998779297</ele>
        <time>2013-05-10T14:18:37Z</time>
      </trkpt>
      <trkpt lat="44.43337" lon="5.2075">
        <ele>524.79998779297</ele>
        <time>2013-05-10T14:18:39Z</time>
      </trkpt>
      <trkpt lat="44.43341" lon="5.20749">
        <ele>524.79998779297</ele>
        <time>2013-05-10T14:18:40Z</time>
      </trkpt>
      <trkpt lat="44.4335" lon="5.20754">
        <ele>524.79998779297</ele>
        <time>2013-05-10T14:18:44Z</time>
      </trkpt>
      <trkpt lat="44.43359" lon="5.20775">
        <ele>516.40002441406</ele>
        <time>2013-05-10T14:18:48Z</time>
      </trkpt>
      <trkpt lat="44.43361" lon="5.20784">
        <ele>516.40002441406</ele>
        <time>2013-05-10T14:18:49Z</time>
      </trkpt>
      <trkpt lat="44.43366" lon="5.20806">
        <ele>516.40002441406</ele>
        <time>2013-05-10T14:18:51Z</time>
      </trkpt>
      <trkpt lat="44.43371" lon="5.20816">
        <ele>516.40002441406</ele>
        <time>2013-05-10T14:18:52Z</time>
      </trkpt>
      <trkpt lat="44.43375" lon="5.20825">
        <ele>512.79998779297</ele>
        <time>2013-05-10T14:18:53Z</time>
      </trkpt>
      <trkpt lat="44.43378" lon="5.20833">
        <ele>512.79998779297</ele>
        <time>2013-05-10T14:18:54Z</time>
      </trkpt>
      <trkpt lat="44.4338" lon="5.20842">
        <ele>512.79998779297</ele>
        <time>2013-05-10T14:18:55Z</time>
      </trkpt>
      <trkpt lat="44.4338" lon="5.20853">
        <ele>512.79998779297</ele>
        <time>2013-05-10T14:18:56Z</time>
      </trkpt>
      <trkpt lat="44.43381" lon="5.20874">
        <ele>509</ele>
        <time>2013-05-10T14:18:58Z</time>
      </trkpt>
      <trkpt lat="44.43381" lon="5.20882">
        <ele>509</ele>
        <time>2013-05-10T14:18:59Z</time>
      </trkpt>
      <trkpt lat="44.43385" lon="5.20914">
        <ele>504.60000610352</ele>
        <time>2013-05-10T14:19:03Z</time>
      </trkpt>
      <trkpt lat="44.43402" lon="5.20961">
        <ele>500.20001220703</ele>
        <time>2013-05-10T14:19:08Z</time>
      </trkpt>
      <trkpt lat="44.43419" lon="5.20982">
        <ele>500.20001220703</ele>
        <time>2013-05-10T14:19:12Z</time>
      </trkpt>
      <trkpt lat="44.43424" lon="5.20985">
        <ele>496</ele>
        <time>2013-05-10T14:19:13Z</time>
      </trkpt>
      <trkpt lat="44.43441" lon="5.20994">
        <ele>496</ele>
        <time>2013-05-10T14:19:16Z</time>
      </trkpt>
      <trkpt lat="44.43457" lon="5.21006">
        <ele>491.60000610352</ele>
        <time>2013-05-10T14:19:18Z</time>
      </trkpt>
      <trkpt lat="44.4347" lon="5.21011">
        <ele>491.60000610352</ele>
        <time>2013-05-10T14:19:20Z</time>
      </trkpt>
      <trkpt lat="44.43484" lon="5.21008">
        <ele>491.60000610352</ele>
        <time>2013-05-10T14:19:22Z</time>
      </trkpt>
      <trkpt lat="44.43495" lon="5.21001">
        <ele>491.60000610352</ele>
        <time>2013-05-10T14:19:24Z</time>
      </trkpt>
      <trkpt lat="44.43501" lon="5.20999">
        <ele>483.20001220703</ele>
        <time>2013-05-10T14:19:25Z</time>
      </trkpt>
      <trkpt lat="44.43515" lon="5.20999">
        <ele>483.20001220703</ele>
        <time>2013-05-10T14:19:27Z</time>
      </trkpt>
      <trkpt lat="44.43521" lon="5.21002">
        <ele>483.20001220703</ele>
        <time>2013-05-10T14:19:28Z</time>
      </trkpt>
      <trkpt lat="44.43534" lon="5.21011">
        <ele>475.79998779297</ele>
        <time>2013-05-10T14:19:30Z</time>
      </trkpt>
      <trkpt lat="44.43545" lon="5.21016">
        <ele>475.79998779297</ele>
        <time>2013-05-10T14:19:32Z</time>
      </trkpt>
      <trkpt lat="44.4356" lon="5.21015">
        <ele>472.39999389648</ele>
        <time>2013-05-10T14:19:35Z</time>
      </trkpt>
      <trkpt lat="44.43566" lon="5.21022">
        <ele>465.79998779297</ele>
        <time>2013-05-10T14:19:40Z</time>
      </trkpt>
      <trkpt lat="44.43559" lon="5.2102">
        <ele>453.20001220703</ele>
        <time>2013-05-10T14:20:01Z</time>
      </trkpt>
      <trkpt lat="44.4355" lon="5.21018">
        <ele>453.20001220703</ele>
        <time>2013-05-10T14:20:08Z</time>
      </trkpt>
      <trkpt lat="44.43537" lon="5.21016">
        <ele>456</ele>
        <time>2013-05-10T14:20:20Z</time>
      </trkpt>
      <trkpt lat="44.4353" lon="5.21011">
        <ele>457.79998779297</ele>
        <time>2013-05-10T14:20:31Z</time>
      </trkpt>
      <trkpt lat="44.43532" lon="5.21014">
        <ele>457.79998779297</ele>
        <time>2013-05-10T14:20:36Z</time>
      </trkpt>
      <trkpt lat="44.43541" lon="5.21018">
        <ele>457.79998779297</ele>
        <time>2013-05-10T14:20:46Z</time>
      </trkpt>
      <trkpt lat="44.43557" lon="5.21014">
        <ele>457.79998779297</ele>
        <time>2013-05-10T14:20:50Z</time>
      </trkpt>
      <trkpt lat="44.43564" lon="5.21013">
        <ele>457.79998779297</ele>
        <time>2013-05-10T14:20:52Z</time>
      </trkpt>
      <trkpt lat="44.43565" lon="5.21021">
        <ele>457.20001220703</ele>
        <time>2013-05-10T14:20:54Z</time>
      </trkpt>
      <trkpt lat="44.43554" lon="5.21043">
        <ele>455.39999389648</ele>
        <time>2013-05-10T14:20:59Z</time>
      </trkpt>
      <trkpt lat="44.43538" lon="5.21062">
        <ele>453.20001220703</ele>
        <time>2013-05-10T14:21:04Z</time>
      </trkpt>
      <trkpt lat="44.43529" lon="5.2107">
        <ele>453.20001220703</ele>
        <time>2013-05-10T14:21:06Z</time>
      </trkpt>
      <trkpt lat="44.43525" lon="5.21074">
        <ele>453.20001220703</ele>
        <time>2013-05-10T14:21:07Z</time>
      </trkpt>
      <trkpt lat="44.43519" lon="5.21078">
        <ele>450.39999389648</ele>
        <time>2013-05-10T14:21:09Z</time>
      </trkpt>
      <trkpt lat="44.435" lon="5.21074">
        <ele>447.79998779297</ele>
        <time>2013-05-10T14:21:14Z</time>
      </trkpt>
      <trkpt lat="44.43481" lon="5.21081">
        <ele>447.79998779297</ele>
        <time>2013-05-10T14:21:18Z</time>
      </trkpt>
      <trkpt lat="44.43476" lon="5.21083">
        <ele>446</ele>
        <time>2013-05-10T14:21:19Z</time>
      </trkpt>
      <trkpt lat="44.4345" lon="5.21091">
        <ele>445</ele>
        <time>2013-05-10T14:21:24Z</time>
      </trkpt>
      <trkpt lat="44.43445" lon="5.21093">
        <ele>445</ele>
        <time>2013-05-10T14:21:25Z</time>
      </trkpt>
      <trkpt lat="44.43428" lon="5.21097">
        <ele>444.20001220703</ele>
        <time>2013-05-10T14:21:29Z</time>
      </trkpt>
      <trkpt lat="44.43415" lon="5.21101">
        <ele>444.20001220703</ele>
        <time>2013-05-10T14:21:32Z</time>
      </trkpt>
      <trkpt lat="44.43408" lon="5.21104">
        <ele>443.39999389648</ele>
        <time>2013-05-10T14:21:34Z</time>
      </trkpt>
      <trkpt lat="44.43396" lon="5.21111">
        <ele>443.39999389648</ele>
        <time>2013-05-10T14:21:38Z</time>
      </trkpt>
      <trkpt lat="44.43389" lon="5.21113">
        <ele>442.79998779297</ele>
        <time>2013-05-10T14:21:40Z</time>
      </trkpt>
      <trkpt lat="44.43367" lon="5.21115">
        <ele>442.39999389648</ele>
        <time>2013-05-10T14:21:45Z</time>
      </trkpt>
      <trkpt lat="44.4335" lon="5.21112">
        <ele>442.39999389648</ele>
        <time>2013-05-10T14:21:48Z</time>
      </trkpt>
      <trkpt lat="44.43338" lon="5.21112">
        <ele>442</ele>
        <time>2013-05-10T14:21:50Z</time>
      </trkpt>
      <trkpt lat="44.43326" lon="5.2111">
        <ele>442</ele>
        <time>2013-05-10T14:21:52Z</time>
      </trkpt>
      <trkpt lat="44.43309" lon="5.21105">
        <ele>442</ele>
        <time>2013-05-10T14:21:55Z</time>
      </trkpt>
      <trkpt lat="44.43292" lon="5.21105">
        <ele>447.20001220703</ele>
        <time>2013-05-10T14:22:35Z</time>
      </trkpt>
      <trkpt lat="44.43266" lon="5.21116">
        <ele>447.20001220703</ele>
        <time>2013-05-10T14:22:41Z</time>
      </trkpt>
      <trkpt lat="44.43252" lon="5.21128">
        <ele>447.20001220703</ele>
        <time>2013-05-10T14:22:44Z</time>
      </trkpt>
      <trkpt lat="44.43248" lon="5.21133">
        <ele>447.20001220703</ele>
        <time>2013-05-10T14:22:45Z</time>
      </trkpt>
      <trkpt lat="44.43225" lon="5.21161">
        <ele>447.20001220703</ele>
        <time>2013-05-10T14:22:49Z</time>
      </trkpt>
      <trkpt lat="44.43218" lon="5.21171">
        <ele>446.60000610352</ele>
        <time>2013-05-10T14:22:50Z</time>
      </trkpt>
      <trkpt lat="44.4321" lon="5.21191">
        <ele>446.60000610352</ele>
        <time>2013-05-10T14:22:52Z</time>
      </trkpt>
      <trkpt lat="44.43209" lon="5.21202">
        <ele>446.60000610352</ele>
        <time>2013-05-10T14:22:53Z</time>
      </trkpt>
      <trkpt lat="44.43201" lon="5.21222">
        <ele>446.60000610352</ele>
        <time>2013-05-10T14:22:55Z</time>
      </trkpt>
      <trkpt lat="44.43195" lon="5.21229">
        <ele>446.60000610352</ele>
        <time>2013-05-10T14:22:56Z</time>
      </trkpt>
      <trkpt lat="44.43166" lon="5.21251">
        <ele>446.60000610352</ele>
        <time>2013-05-10T14:23:00Z</time>
      </trkpt>
      <trkpt lat="44.43155" lon="5.2126">
        <ele>445.20001220703</ele>
        <time>2013-05-10T14:23:02Z</time>
      </trkpt>
      <trkpt lat="44.43143" lon="5.21267">
        <ele>445.20001220703</ele>
        <time>2013-05-10T14:23:04Z</time>
      </trkpt>
      <trkpt lat="44.43138" lon="5.21271">
        <ele>443.20001220703</ele>
        <time>2013-05-10T14:23:06Z</time>
      </trkpt>
      <trkpt lat="44.43128" lon="5.21279">
        <ele>438.39999389648</ele>
        <time>2013-05-10T14:23:16Z</time>
      </trkpt>
      <trkpt lat="44.4312" lon="5.21271">
        <ele>431.39999389648</ele>
        <time>2013-05-10T14:23:31Z</time>
      </trkpt>
      <trkpt lat="44.43119" lon="5.2127">
        <ele>431.39999389648</ele>
        <time>2013-05-10T14:23:32Z</time>
      </trkpt>
      <trkpt lat="44.43116" lon="5.21273">
        <ele>431.39999389648</ele>
        <time>2013-05-10T14:23:38Z</time>
      </trkpt>
      <trkpt lat="44.43106" lon="5.21276">
        <ele>431.39999389648</ele>
        <time>2013-05-10T14:23:45Z</time>
      </trkpt>
      <trkpt lat="44.43097" lon="5.21285">
        <ele>431.39999389648</ele>
        <time>2013-05-10T14:23:49Z</time>
      </trkpt>
      <trkpt lat="44.43087" lon="5.21299">
        <ele>431.39999389648</ele>
        <time>2013-05-10T14:23:52Z</time>
      </trkpt>
      <trkpt lat="44.43078" lon="5.21309">
        <ele>431.39999389648</ele>
        <time>2013-05-10T14:23:54Z</time>
      </trkpt>
      <trkpt lat="44.43061" lon="5.21333">
        <ele>431.39999389648</ele>
        <time>2013-05-10T14:23:58Z</time>
      </trkpt>
      <trkpt lat="44.43056" lon="5.2134">
        <ele>431.39999389648</ele>
        <time>2013-05-10T14:23:59Z</time>
      </trkpt>
      <trkpt lat="44.43044" lon="5.21347">
        <ele>431.39999389648</ele>
        <time>2013-05-10T14:24:01Z</time>
      </trkpt>
      <trkpt lat="44.43027" lon="5.21351">
        <ele>431.39999389648</ele>
        <time>2013-05-10T14:24:04Z</time>
      </trkpt>
      <trkpt lat="44.42999" lon="5.21352">
        <ele>431.39999389648</ele>
        <time>2013-05-10T14:24:10Z</time>
      </trkpt>
      <trkpt lat="44.42968" lon="5.21376">
        <ele>431.39999389648</ele>
        <time>2013-05-10T14:24:17Z</time>
      </trkpt>
      <trkpt lat="44.42959" lon="5.21387">
        <ele>431.39999389648</ele>
        <time>2013-05-10T14:24:19Z</time>
      </trkpt>
      <trkpt lat="44.42951" lon="5.21401">
        <ele>431.39999389648</ele>
        <time>2013-05-10T14:24:21Z</time>
      </trkpt>
      <trkpt lat="44.42926" lon="5.21444">
        <ele>431.39999389648</ele>
        <time>2013-05-10T14:24:26Z</time>
      </trkpt>
      <trkpt lat="44.42894" lon="5.21479">
        <ele>430.60000610352</ele>
        <time>2013-05-10T14:24:31Z</time>
      </trkpt>
      <trkpt lat="44.42888" lon="5.21485">
        <ele>430.60000610352</ele>
        <time>2013-05-10T14:24:32Z</time>
      </trkpt>
      <trkpt lat="44.4287" lon="5.21502">
        <ele>430.60000610352</ele>
        <time>2013-05-10T14:24:35Z</time>
      </trkpt>
      <trkpt lat="44.42838" lon="5.21511">
        <ele>430</ele>
        <time>2013-05-10T14:24:40Z</time>
      </trkpt>
      <trkpt lat="44.42841" lon="5.21532">
        <ele>428.39999389648</ele>
        <time>2013-05-10T14:24:44Z</time>
      </trkpt>
      <trkpt lat="44.42844" lon="5.21541">
        <ele>427.60000610352</ele>
        <time>2013-05-10T14:24:45Z</time>
      </trkpt>
      <trkpt lat="44.42847" lon="5.2155">
        <ele>426.79998779297</ele>
        <time>2013-05-10T14:24:46Z</time>
      </trkpt>
      <trkpt lat="44.42852" lon="5.21559">
        <ele>425.79998779297</ele>
        <time>2013-05-10T14:24:47Z</time>
      </trkpt>
      <trkpt lat="44.42856" lon="5.21568">
        <ele>425</ele>
        <time>2013-05-10T14:24:48Z</time>
      </trkpt>
      <trkpt lat="44.42859" lon="5.21576">
        <ele>424</ele>
        <time>2013-05-10T14:24:49Z</time>
      </trkpt>
      <trkpt lat="44.42863" lon="5.21584">
        <ele>423</ele>
        <time>2013-05-10T14:24:50Z</time>
      </trkpt>
      <trkpt lat="44.42862" lon="5.21616">
        <ele>423</ele>
        <time>2013-05-10T14:24:55Z</time>
      </trkpt>
      <trkpt lat="44.42859" lon="5.21623">
        <ele>422.60000610352</ele>
        <time>2013-05-10T14:24:56Z</time>
      </trkpt>
      <trkpt lat="44.42853" lon="5.21637">
        <ele>421.79998779297</ele>
        <time>2013-05-10T14:24:58Z</time>
      </trkpt>
      <trkpt lat="44.42851" lon="5.21643">
        <ele>421.20001220703</ele>
        <time>2013-05-10T14:24:59Z</time>
      </trkpt>
      <trkpt lat="44.42847" lon="5.2165">
        <ele>420.79998779297</ele>
        <time>2013-05-10T14:25:00Z</time>
      </trkpt>
      <trkpt lat="44.42843" lon="5.21655">
        <ele>420.79998779297</ele>
        <time>2013-05-10T14:25:01Z</time>
      </trkpt>
      <trkpt lat="44.42838" lon="5.21663">
        <ele>420.79998779297</ele>
        <time>2013-05-10T14:25:02Z</time>
      </trkpt>
      <trkpt lat="44.42828" lon="5.21675">
        <ele>420</ele>
        <time>2013-05-10T14:25:04Z</time>
      </trkpt>
      <trkpt lat="44.42823" lon="5.21681">
        <ele>419.60000610352</ele>
        <time>2013-05-10T14:25:05Z</time>
      </trkpt>
      <trkpt lat="44.42816" lon="5.21685">
        <ele>419.20001220703</ele>
        <time>2013-05-10T14:25:06Z</time>
      </trkpt>
      <trkpt lat="44.4281" lon="5.21688">
        <ele>418.79998779297</ele>
        <time>2013-05-10T14:25:07Z</time>
      </trkpt>
      <trkpt lat="44.42782" lon="5.21693">
        <ele>418.79998779297</ele>
        <time>2013-05-10T14:25:11Z</time>
      </trkpt>
      <trkpt lat="44.42777" lon="5.21693">
        <ele>418.79998779297</ele>
        <time>2013-05-10T14:25:12Z</time>
      </trkpt>
      <trkpt lat="44.42769" lon="5.21695">
        <ele>418.79998779297</ele>
        <time>2013-05-10T14:25:14Z</time>
      </trkpt>
      <trkpt lat="44.42744" lon="5.21704">
        <ele>418.79998779297</ele>
        <time>2013-05-10T14:25:20Z</time>
      </trkpt>
      <trkpt lat="44.42737" lon="5.21707">
        <ele>418.79998779297</ele>
        <time>2013-05-10T14:25:22Z</time>
      </trkpt>
      <trkpt lat="44.42735" lon="5.2171">
        <ele>418.79998779297</ele>
        <time>2013-05-10T14:25:26Z</time>
      </trkpt>
      <trkpt lat="44.42735" lon="5.21722">
        <ele>418.79998779297</ele>
        <time>2013-05-10T14:25:31Z</time>
      </trkpt>
      <trkpt lat="44.42744" lon="5.21733">
        <ele>418.79998779297</ele>
        <time>2013-05-10T14:25:34Z</time>
      </trkpt>
      <trkpt lat="44.42759" lon="5.21743">
        <ele>418.79998779297</ele>
        <time>2013-05-10T14:25:38Z</time>
      </trkpt>
      <trkpt lat="44.42762" lon="5.21745">
        <ele>418.79998779297</ele>
        <time>2013-05-10T14:25:39Z</time>
      </trkpt>
      <trkpt lat="44.42778" lon="5.21753">
        <ele>418.79998779297</ele>
        <time>2013-05-10T14:25:43Z</time>
      </trkpt>
      <trkpt lat="44.42785" lon="5.21767">
        <ele>418.79998779297</ele>
        <time>2013-05-10T14:25:46Z</time>
      </trkpt>
      <trkpt lat="44.42788" lon="5.21771">
        <ele>418.79998779297</ele>
        <time>2013-05-10T14:25:47Z</time>
      </trkpt>
      <trkpt lat="44.42791" lon="5.21776">
        <ele>419.20001220703</ele>
        <time>2013-05-10T14:25:48Z</time>
      </trkpt>
      <trkpt lat="44.42798" lon="5.21784">
        <ele>420</ele>
        <time>2013-05-10T14:25:50Z</time>
      </trkpt>
      <trkpt lat="44.42801" lon="5.21787">
        <ele>420.39999389648</ele>
        <time>2013-05-10T14:25:51Z</time>
      </trkpt>
      <trkpt lat="44.42804" lon="5.2179">
        <ele>420.79998779297</ele>
        <time>2013-05-10T14:25:52Z</time>
      </trkpt>
      <trkpt lat="44.42812" lon="5.21795">
        <ele>420.79998779297</ele>
        <time>2013-05-10T14:25:54Z</time>
      </trkpt>
      <trkpt lat="44.42835" lon="5.21814">
        <ele>420.79998779297</ele>
        <time>2013-05-10T14:26:00Z</time>
      </trkpt>
      <trkpt lat="44.42858" lon="5.21847">
        <ele>420.79998779297</ele>
        <time>2013-05-10T14:26:08Z</time>
      </trkpt>
      <trkpt lat="44.42875" lon="5.21889">
        <ele>420.79998779297</ele>
        <time>2013-05-10T14:26:16Z</time>
      </trkpt>
      <trkpt lat="44.42879" lon="5.21894">
        <ele>420.79998779297</ele>
        <time>2013-05-10T14:26:17Z</time>
      </trkpt>
      <trkpt lat="44.42884" lon="5.21918">
        <ele>420.79998779297</ele>
        <time>2013-05-10T14:26:21Z</time>
      </trkpt>
      <trkpt lat="44.42886" lon="5.2193">
        <ele>420.79998779297</ele>
        <time>2013-05-10T14:26:23Z</time>
      </trkpt>
      <trkpt lat="44.42889" lon="5.21948">
        <ele>421.20001220703</ele>
        <time>2013-05-10T14:26:26Z</time>
      </trkpt>
      <trkpt lat="44.42889" lon="5.21954">
        <ele>421.60000610352</ele>
        <time>2013-05-10T14:26:27Z</time>
      </trkpt>
      <trkpt lat="44.42891" lon="5.2196">
        <ele>422</ele>
        <time>2013-05-10T14:26:28Z</time>
      </trkpt>
      <trkpt lat="44.42893" lon="5.21977">
        <ele>422.79998779297</ele>
        <time>2013-05-10T14:26:31Z</time>
      </trkpt>
      <trkpt lat="44.42894" lon="5.21988">
        <ele>422.79998779297</ele>
        <time>2013-05-10T14:26:33Z</time>
      </trkpt>
      <trkpt lat="44.42894" lon="5.21994">
        <ele>422.79998779297</ele>
        <time>2013-05-10T14:26:34Z</time>
      </trkpt>
      <trkpt lat="44.42905" lon="5.22029">
        <ele>422.79998779297</ele>
        <time>2013-05-10T14:26:41Z</time>
      </trkpt>
      <trkpt lat="44.42921" lon="5.22054">
        <ele>422.79998779297</ele>
        <time>2013-05-10T14:26:47Z</time>
      </trkpt>
      <trkpt lat="44.42929" lon="5.22066">
        <ele>423.20001220703</ele>
        <time>2013-05-10T14:26:50Z</time>
      </trkpt>
      <trkpt lat="44.42931" lon="5.22071">
        <ele>423.60000610352</ele>
        <time>2013-05-10T14:26:51Z</time>
      </trkpt>
      <trkpt lat="44.42938" lon="5.22084">
        <ele>425</ele>
        <time>2013-05-10T14:26:54Z</time>
      </trkpt>
      <trkpt lat="44.42943" lon="5.22099">
        <ele>425</ele>
        <time>2013-05-10T14:26:57Z</time>
      </trkpt>
      <trkpt lat="44.42958" lon="5.22137">
        <ele>425</ele>
        <time>2013-05-10T14:27:05Z</time>
      </trkpt>
      <trkpt lat="44.42966" lon="5.22159">
        <ele>425.39999389648</ele>
        <time>2013-05-10T14:27:10Z</time>
      </trkpt>
      <trkpt lat="44.42968" lon="5.22164">
        <ele>425.79998779297</ele>
        <time>2013-05-10T14:27:11Z</time>
      </trkpt>
      <trkpt lat="44.42972" lon="5.22174">
        <ele>426.20001220703</ele>
        <time>2013-05-10T14:27:13Z</time>
      </trkpt>
      <trkpt lat="44.42975" lon="5.22183">
        <ele>426.60000610352</ele>
        <time>2013-05-10T14:27:15Z</time>
      </trkpt>
      <trkpt lat="44.42977" lon="5.22193">
        <ele>427</ele>
        <time>2013-05-10T14:27:17Z</time>
      </trkpt>
      <trkpt lat="44.42978" lon="5.22208">
        <ele>427</ele>
        <time>2013-05-10T14:27:20Z</time>
      </trkpt>
      <trkpt lat="44.42976" lon="5.22241">
        <ele>427.39999389648</ele>
        <time>2013-05-10T14:27:27Z</time>
      </trkpt>
      <trkpt lat="44.42976" lon="5.2225">
        <ele>428.20001220703</ele>
        <time>2013-05-10T14:27:29Z</time>
      </trkpt>
      <trkpt lat="44.42974" lon="5.22275">
        <ele>429.20001220703</ele>
        <time>2013-05-10T14:27:35Z</time>
      </trkpt>
      <trkpt lat="44.42973" lon="5.22292">
        <ele>429.60000610352</ele>
        <time>2013-05-10T14:27:39Z</time>
      </trkpt>
      <trkpt lat="44.42973" lon="5.22303">
        <ele>430.79998779297</ele>
        <time>2013-05-10T14:27:42Z</time>
      </trkpt>
      <trkpt lat="44.42973" lon="5.22329">
        <ele>431.20001220703</ele>
        <time>2013-05-10T14:27:49Z</time>
      </trkpt>
      <trkpt lat="44.42973" lon="5.22332">
        <ele>431.60000610352</ele>
        <time>2013-05-10T14:27:50Z</time>
      </trkpt>
      <trkpt lat="44.42974" lon="5.2234">
        <ele>432.39999389648</ele>
        <time>2013-05-10T14:27:52Z</time>
      </trkpt>
      <trkpt lat="44.42976" lon="5.22352">
        <ele>433.39999389648</ele>
        <time>2013-05-10T14:27:55Z</time>
      </trkpt>
      <trkpt lat="44.42979" lon="5.22372">
        <ele>433.39999389648</ele>
        <time>2013-05-10T14:28:00Z</time>
      </trkpt>
      <trkpt lat="44.42984" lon="5.22396">
        <ele>433.79998779297</ele>
        <time>2013-05-10T14:28:07Z</time>
      </trkpt>
      <trkpt lat="44.42985" lon="5.22402">
        <ele>434.60000610352</ele>
        <time>2013-05-10T14:28:09Z</time>
      </trkpt>
      <trkpt lat="44.42989" lon="5.22414">
        <ele>435.39999389648</ele>
        <time>2013-05-10T14:28:12Z</time>
      </trkpt>
      <trkpt lat="44.42995" lon="5.22427">
        <ele>435.39999389648</ele>
        <time>2013-05-10T14:28:15Z</time>
      </trkpt>
      <trkpt lat="44.43018" lon="5.22464">
        <ele>435.39999389648</ele>
        <time>2013-05-10T14:28:23Z</time>
      </trkpt>
      <trkpt lat="44.43043" lon="5.22508">
        <ele>435.39999389648</ele>
        <time>2013-05-10T14:28:33Z</time>
      </trkpt>
      <trkpt lat="44.43059" lon="5.22538">
        <ele>435.39999389648</ele>
        <time>2013-05-10T14:28:40Z</time>
      </trkpt>
      <trkpt lat="44.43064" lon="5.22546">
        <ele>435.39999389648</ele>
        <time>2013-05-10T14:28:42Z</time>
      </trkpt>
      <trkpt lat="44.43074" lon="5.22559">
        <ele>435.79998779297</ele>
        <time>2013-05-10T14:28:46Z</time>
      </trkpt>
      <trkpt lat="44.43076" lon="5.22562">
        <ele>436.20001220703</ele>
        <time>2013-05-10T14:28:47Z</time>
      </trkpt>
      <trkpt lat="44.43082" lon="5.22567">
        <ele>437.20001220703</ele>
        <time>2013-05-10T14:28:49Z</time>
      </trkpt>
      <trkpt lat="44.43093" lon="5.22576">
        <ele>437.60000610352</ele>
        <time>2013-05-10T14:28:53Z</time>
      </trkpt>
      <trkpt lat="44.43111" lon="5.22595">
        <ele>437.60000610352</ele>
        <time>2013-05-10T14:29:00Z</time>
      </trkpt>
      <trkpt lat="44.43121" lon="5.22604">
        <ele>438</ele>
        <time>2013-05-10T14:29:03Z</time>
      </trkpt>
      <trkpt lat="44.43126" lon="5.22611">
        <ele>439</ele>
        <time>2013-05-10T14:29:05Z</time>
      </trkpt>
      <trkpt lat="44.4313" lon="5.22619">
        <ele>439.79998779297</ele>
        <time>2013-05-10T14:29:07Z</time>
      </trkpt>
      <trkpt lat="44.43132" lon="5.22623">
        <ele>439.79998779297</ele>
        <time>2013-05-10T14:29:08Z</time>
      </trkpt>
      <trkpt lat="44.43139" lon="5.22653">
        <ele>439.79998779297</ele>
        <time>2013-05-10T14:29:15Z</time>
      </trkpt>
      <trkpt lat="44.43148" lon="5.22693">
        <ele>439.79998779297</ele>
        <time>2013-05-10T14:29:24Z</time>
      </trkpt>
      <trkpt lat="44.43157" lon="5.22722">
        <ele>440.20001220703</ele>
        <time>2013-05-10T14:29:30Z</time>
      </trkpt>
      <trkpt lat="44.43161" lon="5.22731">
        <ele>441.20001220703</ele>
        <time>2013-05-10T14:29:32Z</time>
      </trkpt>
      <trkpt lat="44.43177" lon="5.22779">
        <ele>442</ele>
        <time>2013-05-10T14:29:42Z</time>
      </trkpt>
      <trkpt lat="44.43188" lon="5.22812">
        <ele>442</ele>
        <time>2013-05-10T14:29:49Z</time>
      </trkpt>
      <trkpt lat="44.43192" lon="5.22825">
        <ele>442</ele>
        <time>2013-05-10T14:29:52Z</time>
      </trkpt>
      <trkpt lat="44.43199" lon="5.22852">
        <ele>442.79998779297</ele>
        <time>2013-05-10T14:29:58Z</time>
      </trkpt>
      <trkpt lat="44.43201" lon="5.22861">
        <ele>443.60000610352</ele>
        <time>2013-05-10T14:30:00Z</time>
      </trkpt>
      <trkpt lat="44.43205" lon="5.22895">
        <ele>444</ele>
        <time>2013-05-10T14:30:08Z</time>
      </trkpt>
      <trkpt lat="44.43209" lon="5.22924">
        <ele>444</ele>
        <time>2013-05-10T14:30:14Z</time>
      </trkpt>
      <trkpt lat="44.4321" lon="5.22934">
        <ele>444.39999389648</ele>
        <time>2013-05-10T14:30:16Z</time>
      </trkpt>
      <trkpt lat="44.4321" lon="5.22942">
        <ele>445.39999389648</ele>
        <time>2013-05-10T14:30:18Z</time>
      </trkpt>
      <trkpt lat="44.4321" lon="5.22947">
        <ele>445.79998779297</ele>
        <time>2013-05-10T14:30:19Z</time>
      </trkpt>
      <trkpt lat="44.43211" lon="5.22952">
        <ele>446.20001220703</ele>
        <time>2013-05-10T14:30:20Z</time>
      </trkpt>
      <trkpt lat="44.43212" lon="5.2296">
        <ele>446.20001220703</ele>
        <time>2013-05-10T14:30:22Z</time>
      </trkpt>
      <trkpt lat="44.43221" lon="5.22981">
        <ele>446.20001220703</ele>
        <time>2013-05-10T14:30:27Z</time>
      </trkpt>
      <trkpt lat="44.43237" lon="5.22998">
        <ele>446.20001220703</ele>
        <time>2013-05-10T14:30:33Z</time>
      </trkpt>
      <trkpt lat="44.43248" lon="5.23008">
        <ele>446.60000610352</ele>
        <time>2013-05-10T14:30:37Z</time>
      </trkpt>
      <trkpt lat="44.43251" lon="5.23011">
        <ele>447</ele>
        <time>2013-05-10T14:30:38Z</time>
      </trkpt>
      <trkpt lat="44.43259" lon="5.23021">
        <ele>448.20001220703</ele>
        <time>2013-05-10T14:30:41Z</time>
      </trkpt>
      <trkpt lat="44.43262" lon="5.23024">
        <ele>448.20001220703</ele>
        <time>2013-05-10T14:30:42Z</time>
      </trkpt>
      <trkpt lat="44.43279" lon="5.23053">
        <ele>448.79998779297</ele>
        <time>2013-05-10T14:30:51Z</time>
      </trkpt>
      <trkpt lat="44.4328" lon="5.23055">
        <ele>449.20001220703</ele>
        <time>2013-05-10T14:30:52Z</time>
      </trkpt>
      <trkpt lat="44.43284" lon="5.23061">
        <ele>450</ele>
        <time>2013-05-10T14:30:54Z</time>
      </trkpt>
      <trkpt lat="44.43297" lon="5.23083">
        <ele>450.39999389648</ele>
        <time>2013-05-10T14:31:02Z</time>
      </trkpt>
      <trkpt lat="44.43308" lon="5.23096">
        <ele>450.79998779297</ele>
        <time>2013-05-10T14:31:07Z</time>
      </trkpt>
      <trkpt lat="44.43311" lon="5.23098">
        <ele>451.20001220703</ele>
        <time>2013-05-10T14:31:08Z</time>
      </trkpt>
      <trkpt lat="44.43313" lon="5.23101">
        <ele>451.60000610352</ele>
        <time>2013-05-10T14:31:09Z</time>
      </trkpt>
      <trkpt lat="44.43332" lon="5.23116">
        <ele>452.39999389648</ele>
        <time>2013-05-10T14:31:17Z</time>
      </trkpt>
      <trkpt lat="44.4334" lon="5.23122">
        <ele>453</ele>
        <time>2013-05-10T14:31:20Z</time>
      </trkpt>
      <trkpt lat="44.43351" lon="5.23129">
        <ele>454.60000610352</ele>
        <time>2013-05-10T14:31:24Z</time>
      </trkpt>
      <trkpt lat="44.43356" lon="5.23133">
        <ele>454.60000610352</ele>
        <time>2013-05-10T14:31:26Z</time>
      </trkpt>
      <trkpt lat="44.4338" lon="5.23146">
        <ele>455.20001220703</ele>
        <time>2013-05-10T14:31:34Z</time>
      </trkpt>
      <trkpt lat="44.43388" lon="5.23152">
        <ele>456.39999389648</ele>
        <time>2013-05-10T14:31:37Z</time>
      </trkpt>
      <trkpt lat="44.43391" lon="5.23154">
        <ele>457</ele>
        <time>2013-05-10T14:31:38Z</time>
      </trkpt>
      <trkpt lat="44.43399" lon="5.23164">
        <ele>457</ele>
        <time>2013-05-10T14:31:42Z</time>
      </trkpt>
      <trkpt lat="44.43404" lon="5.23188">
        <ele>457</ele>
        <time>2013-05-10T14:31:49Z</time>
      </trkpt>
      <trkpt lat="44.43405" lon="5.23194">
        <ele>457.39999389648</ele>
        <time>2013-05-10T14:31:51Z</time>
      </trkpt>
      <trkpt lat="44.43406" lon="5.23201">
        <ele>458.20001220703</ele>
        <time>2013-05-10T14:31:53Z</time>
      </trkpt>
      <trkpt lat="44.43409" lon="5.23219">
        <ele>459</ele>
        <time>2013-05-10T14:31:58Z</time>
      </trkpt>
      <trkpt lat="44.43411" lon="5.23229">
        <ele>459.39999389648</ele>
        <time>2013-05-10T14:32:01Z</time>
      </trkpt>
      <trkpt lat="44.43412" lon="5.23232">
        <ele>459.79998779297</ele>
        <time>2013-05-10T14:32:02Z</time>
      </trkpt>
      <trkpt lat="44.43425" lon="5.23252">
        <ele>461</ele>
        <time>2013-05-10T14:32:11Z</time>
      </trkpt>
      <trkpt lat="44.43427" lon="5.23262">
        <ele>462.20001220703</ele>
        <time>2013-05-10T14:32:14Z</time>
      </trkpt>
      <trkpt lat="44.43427" lon="5.23271">
        <ele>463</ele>
        <time>2013-05-10T14:32:16Z</time>
      </trkpt>
      <trkpt lat="44.43427" lon="5.233">
        <ele>463</ele>
        <time>2013-05-10T14:32:21Z</time>
      </trkpt>
      <trkpt lat="44.43426" lon="5.23329">
        <ele>462.60000610352</ele>
        <time>2013-05-10T14:32:24Z</time>
      </trkpt>
      <trkpt lat="44.43426" lon="5.2334">
        <ele>462.20001220703</ele>
        <time>2013-05-10T14:32:25Z</time>
      </trkpt>
      <trkpt lat="44.43425" lon="5.23351">
        <ele>461.79998779297</ele>
        <time>2013-05-10T14:32:26Z</time>
      </trkpt>
      <trkpt lat="44.43424" lon="5.23362">
        <ele>461.39999389648</ele>
        <time>2013-05-10T14:32:27Z</time>
      </trkpt>
      <trkpt lat="44.43423" lon="5.23374">
        <ele>461</ele>
        <time>2013-05-10T14:32:28Z</time>
      </trkpt>
      <trkpt lat="44.4342" lon="5.23396">
        <ele>460.60000610352</ele>
        <time>2013-05-10T14:32:30Z</time>
      </trkpt>
      <trkpt lat="44.43419" lon="5.23407">
        <ele>460</ele>
        <time>2013-05-10T14:32:31Z</time>
      </trkpt>
      <trkpt lat="44.43419" lon="5.23418">
        <ele>459.60000610352</ele>
        <time>2013-05-10T14:32:32Z</time>
      </trkpt>
      <trkpt lat="44.43419" lon="5.23428">
        <ele>459.20001220703</ele>
        <time>2013-05-10T14:32:33Z</time>
      </trkpt>
      <trkpt lat="44.43421" lon="5.23439">
        <ele>458.79998779297</ele>
        <time>2013-05-10T14:32:34Z</time>
      </trkpt>
      <trkpt lat="44.43423" lon="5.23449">
        <ele>458.79998779297</ele>
        <time>2013-05-10T14:32:35Z</time>
      </trkpt>
      <trkpt lat="44.43433" lon="5.23475">
        <ele>458.79998779297</ele>
        <time>2013-05-10T14:32:38Z</time>
      </trkpt>
      <trkpt lat="44.43436" lon="5.23482">
        <ele>458.79998779297</ele>
        <time>2013-05-10T14:32:39Z</time>
      </trkpt>
      <trkpt lat="44.43455" lon="5.23531">
        <ele>458.79998779297</ele>
        <time>2013-05-10T14:32:46Z</time>
      </trkpt>
      <trkpt lat="44.43468" lon="5.23571">
        <ele>458.79998779297</ele>
        <time>2013-05-10T14:32:52Z</time>
      </trkpt>
      <trkpt lat="44.43471" lon="5.23578">
        <ele>458.79998779297</ele>
        <time>2013-05-10T14:32:53Z</time>
      </trkpt>
      <trkpt lat="44.43479" lon="5.23591">
        <ele>458.79998779297</ele>
        <time>2013-05-10T14:32:55Z</time>
      </trkpt>
      <trkpt lat="44.43481" lon="5.23607">
        <ele>458.79998779297</ele>
        <time>2013-05-10T14:32:57Z</time>
      </trkpt>
      <trkpt lat="44.4348" lon="5.23616">
        <ele>458.39999389648</ele>
        <time>2013-05-10T14:32:58Z</time>
      </trkpt>
      <trkpt lat="44.4348" lon="5.23624">
        <ele>457.79998779297</ele>
        <time>2013-05-10T14:32:59Z</time>
      </trkpt>
      <trkpt lat="44.43481" lon="5.23631">
        <ele>457.39999389648</ele>
        <time>2013-05-10T14:33:00Z</time>
      </trkpt>
      <trkpt lat="44.43484" lon="5.23641">
        <ele>456.39999389648</ele>
        <time>2013-05-10T14:33:02Z</time>
      </trkpt>
      <trkpt lat="44.43495" lon="5.23656">
        <ele>456.39999389648</ele>
        <time>2013-05-10T14:33:08Z</time>
      </trkpt>
      <trkpt lat="44.43499" lon="5.23662">
        <ele>456.39999389648</ele>
        <time>2013-05-10T14:33:11Z</time>
      </trkpt>
      <trkpt lat="44.43502" lon="5.23673">
        <ele>456.39999389648</ele>
        <time>2013-05-10T14:33:15Z</time>
      </trkpt>
      <trkpt lat="44.43514" lon="5.23688">
        <ele>456.39999389648</ele>
        <time>2013-05-10T14:33:20Z</time>
      </trkpt>
      <trkpt lat="44.4352" lon="5.23693">
        <ele>456.39999389648</ele>
        <time>2013-05-10T14:33:22Z</time>
      </trkpt>
      <trkpt lat="44.4353" lon="5.23704">
        <ele>457</ele>
        <time>2013-05-10T14:33:26Z</time>
      </trkpt>
      <trkpt lat="44.43533" lon="5.23707">
        <ele>457</ele>
        <time>2013-05-10T14:33:27Z</time>
      </trkpt>
      <trkpt lat="44.43535" lon="5.23711">
        <ele>457.79998779297</ele>
        <time>2013-05-10T14:33:28Z</time>
      </trkpt>
      <trkpt lat="44.4354" lon="5.23725">
        <ele>458.79998779297</ele>
        <time>2013-05-10T14:33:32Z</time>
      </trkpt>
      <trkpt lat="44.43539" lon="5.23752">
        <ele>459.20001220703</ele>
        <time>2013-05-10T14:33:39Z</time>
      </trkpt>
      <trkpt lat="44.43537" lon="5.23762">
        <ele>460.39999389648</ele>
        <time>2013-05-10T14:33:42Z</time>
      </trkpt>
      <trkpt lat="44.43534" lon="5.23772">
        <ele>461</ele>
        <time>2013-05-10T14:33:46Z</time>
      </trkpt>
      <trkpt lat="44.43531" lon="5.23784">
        <ele>461.39999389648</ele>
        <time>2013-05-10T14:33:50Z</time>
      </trkpt>
      <trkpt lat="44.43531" lon="5.23792">
        <ele>462.79998779297</ele>
        <time>2013-05-10T14:33:53Z</time>
      </trkpt>
      <trkpt lat="44.43533" lon="5.23804">
        <ele>463.20001220703</ele>
        <time>2013-05-10T14:33:57Z</time>
      </trkpt>
      <trkpt lat="44.43537" lon="5.23811">
        <ele>463.60000610352</ele>
        <time>2013-05-10T14:34:00Z</time>
      </trkpt>
      <trkpt lat="44.43541" lon="5.2382">
        <ele>464.79998779297</ele>
        <time>2013-05-10T14:34:03Z</time>
      </trkpt>
      <trkpt lat="44.43541" lon="5.23822">
        <ele>465.20001220703</ele>
        <time>2013-05-10T14:34:04Z</time>
      </trkpt>
      <trkpt lat="44.43546" lon="5.23834">
        <ele>465.60000610352</ele>
        <time>2013-05-10T14:34:10Z</time>
      </trkpt>
      <trkpt lat="44.43546" lon="5.23843">
        <ele>467.39999389648</ele>
        <time>2013-05-10T14:34:14Z</time>
      </trkpt>
      <trkpt lat="44.43545" lon="5.23851">
        <ele>467.39999389648</ele>
        <time>2013-05-10T14:34:17Z</time>
      </trkpt>
      <trkpt lat="44.43542" lon="5.23871">
        <ele>467.39999389648</ele>
        <time>2013-05-10T14:34:23Z</time>
      </trkpt>
      <trkpt lat="44.43547" lon="5.23897">
        <ele>467.39999389648</ele>
        <time>2013-05-10T14:34:31Z</time>
      </trkpt>
      <trkpt lat="44.43548" lon="5.23904">
        <ele>467.79998779297</ele>
        <time>2013-05-10T14:34:33Z</time>
      </trkpt>
      <trkpt lat="44.4355" lon="5.23911">
        <ele>468.79998779297</ele>
        <time>2013-05-10T14:34:35Z</time>
      </trkpt>
      <trkpt lat="44.43552" lon="5.23922">
        <ele>469.60000610352</ele>
        <time>2013-05-10T14:34:39Z</time>
      </trkpt>
      <trkpt lat="44.43557" lon="5.2395">
        <ele>469.60000610352</ele>
        <time>2013-05-10T14:34:48Z</time>
      </trkpt>
      <trkpt lat="44.43559" lon="5.23955">
        <ele>470</ele>
        <time>2013-05-10T14:34:50Z</time>
      </trkpt>
      <trkpt lat="44.43559" lon="5.23961">
        <ele>471</ele>
        <time>2013-05-10T14:34:52Z</time>
      </trkpt>
      <trkpt lat="44.4356" lon="5.23975">
        <ele>471.79998779297</ele>
        <time>2013-05-10T14:34:56Z</time>
      </trkpt>
      <trkpt lat="44.43565" lon="5.23977">
        <ele>471.79998779297</ele>
        <time>2013-05-10T14:34:58Z</time>
      </trkpt>
      <trkpt lat="44.4357" lon="5.23965">
        <ele>471.79998779297</ele>
        <time>2013-05-10T14:35:04Z</time>
      </trkpt>
      <trkpt lat="44.43579" lon="5.2396">
        <ele>472.20001220703</ele>
        <time>2013-05-10T14:35:09Z</time>
      </trkpt>
      <trkpt lat="44.43582" lon="5.23959">
        <ele>472.60000610352</ele>
        <time>2013-05-10T14:35:10Z</time>
      </trkpt>
      <trkpt lat="44.43587" lon="5.2396">
        <ele>473.60000610352</ele>
        <time>2013-05-10T14:35:12Z</time>
      </trkpt>
      <trkpt lat="44.43597" lon="5.23963">
        <ele>474</ele>
        <time>2013-05-10T14:35:17Z</time>
      </trkpt>
      <trkpt lat="44.43607" lon="5.23968">
        <ele>474.39999389648</ele>
        <time>2013-05-10T14:35:21Z</time>
      </trkpt>
      <trkpt lat="44.43612" lon="5.23969">
        <ele>475.20001220703</ele>
        <time>2013-05-10T14:35:23Z</time>
      </trkpt>
      <trkpt lat="44.43638" lon="5.23976">
        <ele>476</ele>
        <time>2013-05-10T14:35:31Z</time>
      </trkpt>
      <trkpt lat="44.43668" lon="5.23984">
        <ele>476</ele>
        <time>2013-05-10T14:35:39Z</time>
      </trkpt>
      <trkpt lat="44.43697" lon="5.23992">
        <ele>476</ele>
        <time>2013-05-10T14:35:46Z</time>
      </trkpt>
      <trkpt lat="44.43709" lon="5.23981">
        <ele>476</ele>
        <time>2013-05-10T14:35:49Z</time>
      </trkpt>
      <trkpt lat="44.43714" lon="5.23958">
        <ele>476</ele>
        <time>2013-05-10T14:35:52Z</time>
      </trkpt>
      <trkpt lat="44.43713" lon="5.23949">
        <ele>476</ele>
        <time>2013-05-10T14:35:53Z</time>
      </trkpt>
      <trkpt lat="44.43713" lon="5.23932">
        <ele>475.60000610352</ele>
        <time>2013-05-10T14:35:55Z</time>
      </trkpt>
      <trkpt lat="44.43715" lon="5.23924">
        <ele>475.20001220703</ele>
        <time>2013-05-10T14:35:56Z</time>
      </trkpt>
      <trkpt lat="44.43718" lon="5.23918">
        <ele>474.79998779297</ele>
        <time>2013-05-10T14:35:57Z</time>
      </trkpt>
      <trkpt lat="44.43723" lon="5.23914">
        <ele>474.39999389648</ele>
        <time>2013-05-10T14:35:58Z</time>
      </trkpt>
      <trkpt lat="44.43737" lon="5.23914">
        <ele>474</ele>
        <time>2013-05-10T14:36:01Z</time>
      </trkpt>
      <trkpt lat="44.43742" lon="5.23913">
        <ele>474</ele>
        <time>2013-05-10T14:36:02Z</time>
      </trkpt>
      <trkpt lat="44.43745" lon="5.23909">
        <ele>474</ele>
        <time>2013-05-10T14:36:03Z</time>
      </trkpt>
      <trkpt lat="44.43758" lon="5.23887">
        <ele>473.60000610352</ele>
        <time>2013-05-10T14:36:07Z</time>
      </trkpt>
      <trkpt lat="44.43762" lon="5.23881">
        <ele>473.20001220703</ele>
        <time>2013-05-10T14:36:08Z</time>
      </trkpt>
      <trkpt lat="44.43766" lon="5.23875">
        <ele>472.79998779297</ele>
        <time>2013-05-10T14:36:09Z</time>
      </trkpt>
      <trkpt lat="44.43774" lon="5.23866">
        <ele>472</ele>
        <time>2013-05-10T14:36:11Z</time>
      </trkpt>
      <trkpt lat="44.43787" lon="5.23856">
        <ele>472</ele>
        <time>2013-05-10T14:36:14Z</time>
      </trkpt>
      <trkpt lat="44.43792" lon="5.23854">
        <ele>472</ele>
        <time>2013-05-10T14:36:15Z</time>
      </trkpt>
      <trkpt lat="44.43805" lon="5.23852">
        <ele>472</ele>
        <time>2013-05-10T14:36:18Z</time>
      </trkpt>
      <trkpt lat="44.43816" lon="5.23855">
        <ele>472</ele>
        <time>2013-05-10T14:36:22Z</time>
      </trkpt>
      <trkpt lat="44.43823" lon="5.23867">
        <ele>472</ele>
        <time>2013-05-10T14:36:26Z</time>
      </trkpt>
      <trkpt lat="44.43824" lon="5.2388">
        <ele>472</ele>
        <time>2013-05-10T14:36:29Z</time>
      </trkpt>
      <trkpt lat="44.43824" lon="5.23889">
        <ele>472</ele>
        <time>2013-05-10T14:36:31Z</time>
      </trkpt>
      <trkpt lat="44.43824" lon="5.23894">
        <ele>472.39999389648</ele>
        <time>2013-05-10T14:36:32Z</time>
      </trkpt>
      <trkpt lat="44.43824" lon="5.23903">
        <ele>473.20001220703</ele>
        <time>2013-05-10T14:36:34Z</time>
      </trkpt>
      <trkpt lat="44.43826" lon="5.23911">
        <ele>474.20001220703</ele>
        <time>2013-05-10T14:36:36Z</time>
      </trkpt>
      <trkpt lat="44.43829" lon="5.23926">
        <ele>474.20001220703</ele>
        <time>2013-05-10T14:36:40Z</time>
      </trkpt>
      <trkpt lat="44.4383" lon="5.2394">
        <ele>474.20001220703</ele>
        <time>2013-05-10T14:36:44Z</time>
      </trkpt>
      <trkpt lat="44.4383" lon="5.23949">
        <ele>474.20001220703</ele>
        <time>2013-05-10T14:36:47Z</time>
      </trkpt>
      <trkpt lat="44.4383" lon="5.23952">
        <ele>474.60000610352</ele>
        <time>2013-05-10T14:36:48Z</time>
      </trkpt>
      <trkpt lat="44.4383" lon="5.23961">
        <ele>476</ele>
        <time>2013-05-10T14:36:51Z</time>
      </trkpt>
      <trkpt lat="44.43832" lon="5.23971">
        <ele>477.20001220703</ele>
        <time>2013-05-10T14:36:55Z</time>
      </trkpt>
      <trkpt lat="44.43841" lon="5.23992">
        <ele>478.39999389648</ele>
        <time>2013-05-10T14:37:03Z</time>
      </trkpt>
      <trkpt lat="44.43851" lon="5.24016">
        <ele>478.79998779297</ele>
        <time>2013-05-10T14:37:13Z</time>
      </trkpt>
      <trkpt lat="44.43853" lon="5.2402">
        <ele>479.79998779297</ele>
        <time>2013-05-10T14:37:15Z</time>
      </trkpt>
      <trkpt lat="44.43856" lon="5.24031">
        <ele>481</ele>
        <time>2013-05-10T14:37:20Z</time>
      </trkpt>
      <trkpt lat="44.43862" lon="5.24048">
        <ele>483.20001220703</ele>
        <time>2013-05-10T14:37:29Z</time>
      </trkpt>
      <trkpt lat="44.43864" lon="5.24051">
        <ele>484</ele>
        <time>2013-05-10T14:37:31Z</time>
      </trkpt>
      <trkpt lat="44.43867" lon="5.24062">
        <ele>485.39999389648</ele>
        <time>2013-05-10T14:37:37Z</time>
      </trkpt>
      <trkpt lat="44.43871" lon="5.24068">
        <ele>486.60000610352</ele>
        <time>2013-05-10T14:37:40Z</time>
      </trkpt>
      <trkpt lat="44.43872" lon="5.24071">
        <ele>487</ele>
        <time>2013-05-10T14:37:42Z</time>
      </trkpt>
      <trkpt lat="44.43881" lon="5.24077">
        <ele>487.39999389648</ele>
        <time>2013-05-10T14:37:49Z</time>
      </trkpt>
      <trkpt lat="44.43894" lon="5.24081">
        <ele>489.20001220703</ele>
        <time>2013-05-10T14:37:59Z</time>
      </trkpt>
      <trkpt lat="44.43901" lon="5.24082">
        <ele>489.60000610352</ele>
        <time>2013-05-10T14:38:04Z</time>
      </trkpt>
      <trkpt lat="44.43917" lon="5.24084">
        <ele>491.20001220703</ele>
        <time>2013-05-10T14:38:14Z</time>
      </trkpt>
      <trkpt lat="44.43923" lon="5.24089">
        <ele>491.79998779297</ele>
        <time>2013-05-10T14:38:18Z</time>
      </trkpt>
      <trkpt lat="44.43928" lon="5.2409">
        <ele>493.39999389648</ele>
        <time>2013-05-10T14:38:22Z</time>
      </trkpt>
      <trkpt lat="44.43935" lon="5.24095">
        <ele>493.79998779297</ele>
        <time>2013-05-10T14:38:28Z</time>
      </trkpt>
      <trkpt lat="44.43937" lon="5.24101">
        <ele>495.60000610352</ele>
        <time>2013-05-10T14:38:32Z</time>
      </trkpt>
      <trkpt lat="44.4394" lon="5.24111">
        <ele>496.79998779297</ele>
        <time>2013-05-10T14:38:39Z</time>
      </trkpt>
      <trkpt lat="44.43941" lon="5.24114">
        <ele>497.60000610352</ele>
        <time>2013-05-10T14:38:41Z</time>
      </trkpt>
      <trkpt lat="44.43944" lon="5.24123">
        <ele>498</ele>
        <time>2013-05-10T14:38:46Z</time>
      </trkpt>
      <trkpt lat="44.4395" lon="5.24137">
        <ele>499.60000610352</ele>
        <time>2013-05-10T14:38:56Z</time>
      </trkpt>
      <trkpt lat="44.43951" lon="5.24143">
        <ele>500</ele>
        <time>2013-05-10T14:39:00Z</time>
      </trkpt>
      <trkpt lat="44.43953" lon="5.24158">
        <ele>502</ele>
        <time>2013-05-10T14:39:10Z</time>
      </trkpt>
      <trkpt lat="44.43953" lon="5.24161">
        <ele>503</ele>
        <time>2013-05-10T14:39:12Z</time>
      </trkpt>
      <trkpt lat="44.43946" lon="5.2417">
        <ele>504</ele>
        <time>2013-05-10T14:39:20Z</time>
      </trkpt>
      <trkpt lat="44.43944" lon="5.24171">
        <ele>504.79998779297</ele>
        <time>2013-05-10T14:39:22Z</time>
      </trkpt>
      <trkpt lat="44.43939" lon="5.24169">
        <ele>506.20001220703</ele>
        <time>2013-05-10T14:39:28Z</time>
      </trkpt>
      <trkpt lat="44.43929" lon="5.24159">
        <ele>508.39999389648</ele>
        <time>2013-05-10T14:39:39Z</time>
      </trkpt>
      <trkpt lat="44.43918" lon="5.24146">
        <ele>509.20001220703</ele>
        <time>2013-05-10T14:39:51Z</time>
      </trkpt>
      <trkpt lat="44.43905" lon="5.24132">
        <ele>510.39999389648</ele>
        <time>2013-05-10T14:40:06Z</time>
      </trkpt>
      <trkpt lat="44.43903" lon="5.2413">
        <ele>511.60000610352</ele>
        <time>2013-05-10T14:40:09Z</time>
      </trkpt>
      <trkpt lat="44.439" lon="5.24129">
        <ele>512.40002441406</ele>
        <time>2013-05-10T14:40:11Z</time>
      </trkpt>
      <trkpt lat="44.43888" lon="5.24124">
        <ele>513</ele>
        <time>2013-05-10T14:40:21Z</time>
      </trkpt>
      <trkpt lat="44.43872" lon="5.24119">
        <ele>514.79998779297</ele>
        <time>2013-05-10T14:40:34Z</time>
      </trkpt>
      <trkpt lat="44.43864" lon="5.24118">
        <ele>514.79998779297</ele>
        <time>2013-05-10T14:40:39Z</time>
      </trkpt>
      <trkpt lat="44.43858" lon="5.2412">
        <ele>516.59997558594</ele>
        <time>2013-05-10T14:40:43Z</time>
      </trkpt>
      <trkpt lat="44.43854" lon="5.24121">
        <ele>517</ele>
        <time>2013-05-10T14:40:46Z</time>
      </trkpt>
      <trkpt lat="44.43842" lon="5.24127">
        <ele>517</ele>
        <time>2013-05-10T14:40:54Z</time>
      </trkpt>
      <trkpt lat="44.4384" lon="5.24128">
        <ele>517.79998779297</ele>
        <time>2013-05-10T14:40:56Z</time>
      </trkpt>
      <trkpt lat="44.4383" lon="5.2413">
        <ele>519.20001220703</ele>
        <time>2013-05-10T14:41:03Z</time>
      </trkpt>
      <trkpt lat="44.43819" lon="5.24132">
        <ele>521.20001220703</ele>
        <time>2013-05-10T14:41:10Z</time>
      </trkpt>
      <trkpt lat="44.43807" lon="5.24131">
        <ele>521.20001220703</ele>
        <time>2013-05-10T14:41:18Z</time>
      </trkpt>
      <trkpt lat="44.43796" lon="5.24139">
        <ele>524</ele>
        <time>2013-05-10T14:41:27Z</time>
      </trkpt>
      <trkpt lat="44.43795" lon="5.2414">
        <ele>524.40002441406</ele>
        <time>2013-05-10T14:41:28Z</time>
      </trkpt>
      <trkpt lat="44.43783" lon="5.24156">
        <ele>525.79998779297</ele>
        <time>2013-05-10T14:41:41Z</time>
      </trkpt>
      <trkpt lat="44.43778" lon="5.24161">
        <ele>526.20001220703</ele>
        <time>2013-05-10T14:41:45Z</time>
      </trkpt>
      <trkpt lat="44.43767" lon="5.24172">
        <ele>528.20001220703</ele>
        <time>2013-05-10T14:41:54Z</time>
      </trkpt>
      <trkpt lat="44.4376" lon="5.24185">
        <ele>530.40002441406</ele>
        <time>2013-05-10T14:42:05Z</time>
      </trkpt>
      <trkpt lat="44.43761" lon="5.24187">
        <ele>530.79998779297</ele>
        <time>2013-05-10T14:42:06Z</time>
      </trkpt>
      <trkpt lat="44.43764" lon="5.24191">
        <ele>532</ele>
        <time>2013-05-10T14:42:09Z</time>
      </trkpt>
      <trkpt lat="44.43783" lon="5.2418">
        <ele>532</ele>
        <time>2013-05-10T14:42:23Z</time>
      </trkpt>
      <trkpt lat="44.43788" lon="5.24178">
        <ele>532.40002441406</ele>
        <time>2013-05-10T14:42:27Z</time>
      </trkpt>
      <trkpt lat="44.43791" lon="5.24178">
        <ele>533.40002441406</ele>
        <time>2013-05-10T14:42:29Z</time>
      </trkpt>
      <trkpt lat="44.43803" lon="5.24185">
        <ele>534.20001220703</ele>
        <time>2013-05-10T14:42:39Z</time>
      </trkpt>
      <trkpt lat="44.43811" lon="5.2419">
        <ele>536</ele>
        <time>2013-05-10T14:42:46Z</time>
      </trkpt>
      <trkpt lat="44.43812" lon="5.24191">
        <ele>536.40002441406</ele>
        <time>2013-05-10T14:42:47Z</time>
      </trkpt>
      <trkpt lat="44.43826" lon="5.24194">
        <ele>537.20001220703</ele>
        <time>2013-05-10T14:42:58Z</time>
      </trkpt>
      <trkpt lat="44.43835" lon="5.24193">
        <ele>538.59997558594</ele>
        <time>2013-05-10T14:43:05Z</time>
      </trkpt>
      <trkpt lat="44.4384" lon="5.24193">
        <ele>539</ele>
        <time>2013-05-10T14:43:09Z</time>
      </trkpt>
      <trkpt lat="44.43856" lon="5.24198">
        <ele>541.20001220703</ele>
        <time>2013-05-10T14:43:21Z</time>
      </trkpt>
      <trkpt lat="44.43859" lon="5.242">
        <ele>543</ele>
        <time>2013-05-10T14:43:25Z</time>
      </trkpt>
      <trkpt lat="44.43869" lon="5.2421">
        <ele>543</ele>
        <time>2013-05-10T14:43:32Z</time>
      </trkpt>
      <trkpt lat="44.4387" lon="5.24212">
        <ele>543</ele>
        <time>2013-05-10T14:43:33Z</time>
      </trkpt>
      <trkpt lat="44.43859" lon="5.24218">
        <ele>543.79998779297</ele>
        <time>2013-05-10T14:43:41Z</time>
      </trkpt>
      <trkpt lat="44.43848" lon="5.2421">
        <ele>545</ele>
        <time>2013-05-10T14:43:50Z</time>
      </trkpt>
      <trkpt lat="44.43839" lon="5.24208">
        <ele>546</ele>
        <time>2013-05-10T14:43:58Z</time>
      </trkpt>
      <trkpt lat="44.43827" lon="5.24213">
        <ele>547.20001220703</ele>
        <time>2013-05-10T14:44:07Z</time>
      </trkpt>
      <trkpt lat="44.4382" lon="5.24216">
        <ele>549.20001220703</ele>
        <time>2013-05-10T14:44:13Z</time>
      </trkpt>
      <trkpt lat="44.43811" lon="5.2422">
        <ele>549.20001220703</ele>
        <time>2013-05-10T14:44:20Z</time>
      </trkpt>
      <trkpt lat="44.43808" lon="5.24221">
        <ele>549.20001220703</ele>
        <time>2013-05-10T14:44:22Z</time>
      </trkpt>
      <trkpt lat="44.438" lon="5.24225">
        <ele>550</ele>
        <time>2013-05-10T14:44:28Z</time>
      </trkpt>
      <trkpt lat="44.43791" lon="5.24234">
        <ele>551.79998779297</ele>
        <time>2013-05-10T14:44:37Z</time>
      </trkpt>
      <trkpt lat="44.43798" lon="5.24242">
        <ele>553.59997558594</ele>
        <time>2013-05-10T14:44:44Z</time>
      </trkpt>
      <trkpt lat="44.43803" lon="5.2424">
        <ele>553.59997558594</ele>
        <time>2013-05-10T14:44:48Z</time>
      </trkpt>
      <trkpt lat="44.43811" lon="5.24234">
        <ele>554.40002441406</ele>
        <time>2013-05-10T14:44:55Z</time>
      </trkpt>
      <trkpt lat="44.43829" lon="5.24233">
        <ele>556</ele>
        <time>2013-05-10T14:45:08Z</time>
      </trkpt>
      <trkpt lat="44.4383" lon="5.24234">
        <ele>556.40002441406</ele>
        <time>2013-05-10T14:45:09Z</time>
      </trkpt>
      <trkpt lat="44.43842" lon="5.24244">
        <ele>558</ele>
        <time>2013-05-10T14:45:20Z</time>
      </trkpt>
      <trkpt lat="44.43857" lon="5.24264">
        <ele>559.59997558594</ele>
        <time>2013-05-10T14:45:35Z</time>
      </trkpt>
      <trkpt lat="44.4386" lon="5.24267">
        <ele>560.79998779297</ele>
        <time>2013-05-10T14:45:38Z</time>
      </trkpt>
      <trkpt lat="44.43867" lon="5.24274">
        <ele>561.59997558594</ele>
        <time>2013-05-10T14:45:45Z</time>
      </trkpt>
      <trkpt lat="44.4387" lon="5.24276">
        <ele>562</ele>
        <time>2013-05-10T14:45:48Z</time>
      </trkpt>
      <trkpt lat="44.43888" lon="5.24287">
        <ele>564.20001220703</ele>
        <time>2013-05-10T14:46:04Z</time>
      </trkpt>
      <trkpt lat="44.43891" lon="5.24289">
        <ele>565.40002441406</ele>
        <time>2013-05-10T14:46:07Z</time>
      </trkpt>
      <trkpt lat="44.43904" lon="5.24298">
        <ele>565.79998779297</ele>
        <time>2013-05-10T14:46:17Z</time>
      </trkpt>
      <trkpt lat="44.43906" lon="5.243">
        <ele>566.20001220703</ele>
        <time>2013-05-10T14:46:19Z</time>
      </trkpt>
      <trkpt lat="44.4391" lon="5.24306">
        <ele>567.40002441406</ele>
        <time>2013-05-10T14:46:23Z</time>
      </trkpt>
      <trkpt lat="44.43918" lon="5.24317">
        <ele>568.20001220703</ele>
        <time>2013-05-10T14:46:30Z</time>
      </trkpt>
      <trkpt lat="44.4392" lon="5.24321">
        <ele>569.40002441406</ele>
        <time>2013-05-10T14:46:33Z</time>
      </trkpt>
      <trkpt lat="44.4391" lon="5.24329">
        <ele>570.20001220703</ele>
        <time>2013-05-10T14:46:41Z</time>
      </trkpt>
      <trkpt lat="44.43902" lon="5.24319">
        <ele>571.79998779297</ele>
        <time>2013-05-10T14:46:49Z</time>
      </trkpt>
      <trkpt lat="44.43895" lon="5.24313">
        <ele>572.40002441406</ele>
        <time>2013-05-10T14:46:55Z</time>
      </trkpt>
      <trkpt lat="44.4389" lon="5.24312">
        <ele>574</ele>
        <time>2013-05-10T14:46:59Z</time>
      </trkpt>
      <trkpt lat="44.43879" lon="5.24308">
        <ele>574</ele>
        <time>2013-05-10T14:47:08Z</time>
      </trkpt>
      <trkpt lat="44.4387" lon="5.2431">
        <ele>576.20001220703</ele>
        <time>2013-05-10T14:47:15Z</time>
      </trkpt>
      <trkpt lat="44.43869" lon="5.24321">
        <ele>577</ele>
        <time>2013-05-10T14:47:21Z</time>
      </trkpt>
      <trkpt lat="44.43871" lon="5.24323">
        <ele>577.40002441406</ele>
        <time>2013-05-10T14:47:22Z</time>
      </trkpt>
      <trkpt lat="44.43884" lon="5.24329">
        <ele>578.20001220703</ele>
        <time>2013-05-10T14:47:32Z</time>
      </trkpt>
      <trkpt lat="44.4389" lon="5.24331">
        <ele>578.59997558594</ele>
        <time>2013-05-10T14:47:38Z</time>
      </trkpt>
      <trkpt lat="44.43901" lon="5.24343">
        <ele>580.79998779297</ele>
        <time>2013-05-10T14:47:49Z</time>
      </trkpt>
      <trkpt lat="44.43905" lon="5.24365">
        <ele>582.79998779297</ele>
        <time>2013-05-10T14:48:02Z</time>
      </trkpt>
      <trkpt lat="44.43906" lon="5.24371">
        <ele>584.20001220703</ele>
        <time>2013-05-10T14:48:05Z</time>
      </trkpt>
      <trkpt lat="44.43908" lon="5.24387">
        <ele>585</ele>
        <time>2013-05-10T14:48:15Z</time>
      </trkpt>
      <trkpt lat="44.43908" lon="5.2439">
        <ele>585.79998779297</ele>
        <time>2013-05-10T14:48:17Z</time>
      </trkpt>
      <trkpt lat="44.43912" lon="5.24407">
        <ele>586.59997558594</ele>
        <time>2013-05-10T14:48:27Z</time>
      </trkpt>
      <trkpt lat="44.43914" lon="5.24412">
        <ele>587</ele>
        <time>2013-05-10T14:48:30Z</time>
      </trkpt>
      <trkpt lat="44.43916" lon="5.24421">
        <ele>588.79998779297</ele>
        <time>2013-05-10T14:48:35Z</time>
      </trkpt>
      <trkpt lat="44.43921" lon="5.24431">
        <ele>589.20001220703</ele>
        <time>2013-05-10T14:48:41Z</time>
      </trkpt>
      <trkpt lat="44.4392" lon="5.24438">
        <ele>590.79998779297</ele>
        <time>2013-05-10T14:48:45Z</time>
      </trkpt>
      <trkpt lat="44.43916" lon="5.24441">
        <ele>590.79998779297</ele>
        <time>2013-05-10T14:48:48Z</time>
      </trkpt>
      <trkpt lat="44.43914" lon="5.24439">
        <ele>590.79998779297</ele>
        <time>2013-05-10T14:48:50Z</time>
      </trkpt>
      <trkpt lat="44.43909" lon="5.24432">
        <ele>592.79998779297</ele>
        <time>2013-05-10T14:48:55Z</time>
      </trkpt>
      <trkpt lat="44.43908" lon="5.24424">
        <ele>592.79998779297</ele>
        <time>2013-05-10T14:48:59Z</time>
      </trkpt>
      <trkpt lat="44.43904" lon="5.24416">
        <ele>592.79998779297</ele>
        <time>2013-05-10T14:49:03Z</time>
      </trkpt>
      <trkpt lat="44.43897" lon="5.24396">
        <ele>593.20001220703</ele>
        <time>2013-05-10T14:49:13Z</time>
      </trkpt>
      <trkpt lat="44.43885" lon="5.24384">
        <ele>594.79998779297</ele>
        <time>2013-05-10T14:49:23Z</time>
      </trkpt>
      <trkpt lat="44.43879" lon="5.24382">
        <ele>596.40002441406</ele>
        <time>2013-05-10T14:49:28Z</time>
      </trkpt>
      <trkpt lat="44.43866" lon="5.24389">
        <ele>597.20001220703</ele>
        <time>2013-05-10T14:49:39Z</time>
      </trkpt>
      <trkpt lat="44.43865" lon="5.2439">
        <ele>597.59997558594</ele>
        <time>2013-05-10T14:49:40Z</time>
      </trkpt>
      <trkpt lat="44.43853" lon="5.24399">
        <ele>599</ele>
        <time>2013-05-10T14:49:49Z</time>
      </trkpt>
      <trkpt lat="44.43845" lon="5.24402">
        <ele>599.40002441406</ele>
        <time>2013-05-10T14:49:55Z</time>
      </trkpt>
      <trkpt lat="44.43838" lon="5.24408">
        <ele>601</ele>
        <time>2013-05-10T14:50:00Z</time>
      </trkpt>
      <trkpt lat="44.43832" lon="5.24414">
        <ele>601</ele>
        <time>2013-05-10T14:50:05Z</time>
      </trkpt>
      <trkpt lat="44.4383" lon="5.24417">
        <ele>602.40002441406</ele>
        <time>2013-05-10T14:50:08Z</time>
      </trkpt>
      <trkpt lat="44.43827" lon="5.24422">
        <ele>603.20001220703</ele>
        <time>2013-05-10T14:50:11Z</time>
      </trkpt>
      <trkpt lat="44.43823" lon="5.24433">
        <ele>603.59997558594</ele>
        <time>2013-05-10T14:50:17Z</time>
      </trkpt>
      <trkpt lat="44.43821" lon="5.2444">
        <ele>605.20001220703</ele>
        <time>2013-05-10T14:50:21Z</time>
      </trkpt>
      <trkpt lat="44.43816" lon="5.24452">
        <ele>605.20001220703</ele>
        <time>2013-05-10T14:50:28Z</time>
      </trkpt>
      <trkpt lat="44.43812" lon="5.24463">
        <ele>605.59997558594</ele>
        <time>2013-05-10T14:50:35Z</time>
      </trkpt>
      <trkpt lat="44.43809" lon="5.24469">
        <ele>607.40002441406</ele>
        <time>2013-05-10T14:50:39Z</time>
      </trkpt>
      <trkpt lat="44.43803" lon="5.24478">
        <ele>607.79998779297</ele>
        <time>2013-05-10T14:50:45Z</time>
      </trkpt>
      <trkpt lat="44.43802" lon="5.2448">
        <ele>608.59997558594</ele>
        <time>2013-05-10T14:50:47Z</time>
      </trkpt>
      <trkpt lat="44.438" lon="5.24483">
        <ele>609.40002441406</ele>
        <time>2013-05-10T14:50:49Z</time>
      </trkpt>
      <trkpt lat="44.43794" lon="5.24493">
        <ele>609.79998779297</ele>
        <time>2013-05-10T14:50:56Z</time>
      </trkpt>
      <trkpt lat="44.4379" lon="5.245">
        <ele>611.59997558594</ele>
        <time>2013-05-10T14:51:00Z</time>
      </trkpt>
      <trkpt lat="44.43787" lon="5.24512">
        <ele>611.59997558594</ele>
        <time>2013-05-10T14:51:07Z</time>
      </trkpt>
      <trkpt lat="44.43793" lon="5.24518">
        <ele>612</ele>
        <time>2013-05-10T14:51:12Z</time>
      </trkpt>
      <trkpt lat="44.43806" lon="5.24515">
        <ele>613.79998779297</ele>
        <time>2013-05-10T14:51:22Z</time>
      </trkpt>
      <trkpt lat="44.4381" lon="5.24509">
        <ele>614.59997558594</ele>
        <time>2013-05-10T14:51:27Z</time>
      </trkpt>
      <trkpt lat="44.43811" lon="5.24508">
        <ele>615</ele>
        <time>2013-05-10T14:51:28Z</time>
      </trkpt>
      <trkpt lat="44.43819" lon="5.24499">
        <ele>616.59997558594</ele>
        <time>2013-05-10T14:51:36Z</time>
      </trkpt>
      <trkpt lat="44.4382" lon="5.24497">
        <ele>617.40002441406</ele>
        <time>2013-05-10T14:51:38Z</time>
      </trkpt>
      <trkpt lat="44.4383" lon="5.24494">
        <ele>617.79998779297</ele>
        <time>2013-05-10T14:51:45Z</time>
      </trkpt>
      <trkpt lat="44.43836" lon="5.245">
        <ele>619.59997558594</ele>
        <time>2013-05-10T14:51:51Z</time>
      </trkpt>
      <trkpt lat="44.43834" lon="5.24518">
        <ele>620.40002441406</ele>
        <time>2013-05-10T14:52:01Z</time>
      </trkpt>
      <trkpt lat="44.43831" lon="5.24521">
        <ele>621.20001220703</ele>
        <time>2013-05-10T14:52:03Z</time>
      </trkpt>
      <trkpt lat="44.43829" lon="5.24523">
        <ele>622</ele>
        <time>2013-05-10T14:52:05Z</time>
      </trkpt>
      <trkpt lat="44.43818" lon="5.24542">
        <ele>622.40002441406</ele>
        <time>2013-05-10T14:52:19Z</time>
      </trkpt>
      <trkpt lat="44.43813" lon="5.24555">
        <ele>624</ele>
        <time>2013-05-10T14:52:29Z</time>
      </trkpt>
      <trkpt lat="44.4381" lon="5.24562">
        <ele>625</ele>
        <time>2013-05-10T14:52:34Z</time>
      </trkpt>
      <trkpt lat="44.438" lon="5.24577">
        <ele>626.59997558594</ele>
        <time>2013-05-10T14:52:44Z</time>
      </trkpt>
      <trkpt lat="44.43799" lon="5.24578">
        <ele>627</ele>
        <time>2013-05-10T14:52:45Z</time>
      </trkpt>
      <trkpt lat="44.43798" lon="5.2458">
        <ele>627.40002441406</ele>
        <time>2013-05-10T14:52:46Z</time>
      </trkpt>
      <trkpt lat="44.43795" lon="5.24601">
        <ele>628.20001220703</ele>
        <time>2013-05-10T14:52:59Z</time>
      </trkpt>
      <trkpt lat="44.43801" lon="5.24607">
        <ele>630.40002441406</ele>
        <time>2013-05-10T14:53:05Z</time>
      </trkpt>
      <trkpt lat="44.43811" lon="5.246">
        <ele>630.40002441406</ele>
        <time>2013-05-10T14:53:13Z</time>
      </trkpt>
      <trkpt lat="44.43816" lon="5.24596">
        <ele>630.79998779297</ele>
        <time>2013-05-10T14:53:18Z</time>
      </trkpt>
      <trkpt lat="44.43821" lon="5.2459">
        <ele>632.40002441406</ele>
        <time>2013-05-10T14:53:22Z</time>
      </trkpt>
      <trkpt lat="44.43828" lon="5.24585">
        <ele>632.40002441406</ele>
        <time>2013-05-10T14:53:28Z</time>
      </trkpt>
      <trkpt lat="44.43834" lon="5.24579">
        <ele>632.79998779297</ele>
        <time>2013-05-10T14:53:34Z</time>
      </trkpt>
      <trkpt lat="44.4385" lon="5.24562">
        <ele>634.59997558594</ele>
        <time>2013-05-10T14:53:47Z</time>
      </trkpt>
      <trkpt lat="44.43859" lon="5.24563">
        <ele>634.59997558594</ele>
        <time>2013-05-10T14:53:53Z</time>
      </trkpt>
      <trkpt lat="44.43863" lon="5.24567">
        <ele>635</ele>
        <time>2013-05-10T14:53:56Z</time>
      </trkpt>
      <trkpt lat="44.43863" lon="5.24571">
        <ele>636</ele>
        <time>2013-05-10T14:53:58Z</time>
      </trkpt>
      <trkpt lat="44.43853" lon="5.24587">
        <ele>637</ele>
        <time>2013-05-10T14:54:10Z</time>
      </trkpt>
      <trkpt lat="44.4385" lon="5.2459">
        <ele>638.20001220703</ele>
        <time>2013-05-10T14:54:13Z</time>
      </trkpt>
      <trkpt lat="44.43843" lon="5.24603">
        <ele>639.40002441406</ele>
        <time>2013-05-10T14:54:22Z</time>
      </trkpt>
      <trkpt lat="44.43839" lon="5.24614">
        <ele>641</ele>
        <time>2013-05-10T14:54:29Z</time>
      </trkpt>
      <trkpt lat="44.43833" lon="5.24628">
        <ele>641</ele>
        <time>2013-05-10T14:54:38Z</time>
      </trkpt>
      <trkpt lat="44.43832" lon="5.24632">
        <ele>641.40002441406</ele>
        <time>2013-05-10T14:54:40Z</time>
      </trkpt>
      <trkpt lat="44.43829" lon="5.24638">
        <ele>643.20001220703</ele>
        <time>2013-05-10T14:54:44Z</time>
      </trkpt>
      <trkpt lat="44.43827" lon="5.24642">
        <ele>643.20001220703</ele>
        <time>2013-05-10T14:54:46Z</time>
      </trkpt>
      <trkpt lat="44.43824" lon="5.24651">
        <ele>643.59997558594</ele>
        <time>2013-05-10T14:54:51Z</time>
      </trkpt>
      <trkpt lat="44.43818" lon="5.24664">
        <ele>645.20001220703</ele>
        <time>2013-05-10T14:55:00Z</time>
      </trkpt>
      <trkpt lat="44.43814" lon="5.24671">
        <ele>646.40002441406</ele>
        <time>2013-05-10T14:55:05Z</time>
      </trkpt>
      <trkpt lat="44.43807" lon="5.24692">
        <ele>647.20001220703</ele>
        <time>2013-05-10T14:55:17Z</time>
      </trkpt>
      <trkpt lat="44.43805" lon="5.24701">
        <ele>648.40002441406</ele>
        <time>2013-05-10T14:55:22Z</time>
      </trkpt>
      <trkpt lat="44.43803" lon="5.24712">
        <ele>649.20001220703</ele>
        <time>2013-05-10T14:55:27Z</time>
      </trkpt>
      <trkpt lat="44.438" lon="5.24728">
        <ele>649.20001220703</ele>
        <time>2013-05-10T14:55:34Z</time>
      </trkpt>
      <trkpt lat="44.43799" lon="5.2473">
        <ele>649.79998779297</ele>
        <time>2013-05-10T14:55:35Z</time>
      </trkpt>
      <trkpt lat="44.43797" lon="5.24745">
        <ele>651.40002441406</ele>
        <time>2013-05-10T14:55:42Z</time>
      </trkpt>
      <trkpt lat="44.4379" lon="5.24763">
        <ele>651.40002441406</ele>
        <time>2013-05-10T14:55:52Z</time>
      </trkpt>
      <trkpt lat="44.43787" lon="5.2477">
        <ele>652.20001220703</ele>
        <time>2013-05-10T14:55:56Z</time>
      </trkpt>
      <trkpt lat="44.43781" lon="5.24785">
        <ele>653.59997558594</ele>
        <time>2013-05-10T14:56:04Z</time>
      </trkpt>
      <trkpt lat="44.43779" lon="5.248">
        <ele>653.59997558594</ele>
        <time>2013-05-10T14:56:11Z</time>
      </trkpt>
      <trkpt lat="44.4378" lon="5.24812">
        <ele>654.79998779297</ele>
        <time>2013-05-10T14:56:16Z</time>
      </trkpt>
      <trkpt lat="44.4378" lon="5.24815">
        <ele>655.20001220703</ele>
        <time>2013-05-10T14:56:17Z</time>
      </trkpt>
      <trkpt lat="44.43782" lon="5.24833">
        <ele>655.59997558594</ele>
        <time>2013-05-10T14:56:25Z</time>
      </trkpt>
      <trkpt lat="44.43793" lon="5.24855">
        <ele>655.59997558594</ele>
        <time>2013-05-10T14:56:33Z</time>
      </trkpt>
      <trkpt lat="44.43806" lon="5.24873">
        <ele>656</ele>
        <time>2013-05-10T14:56:40Z</time>
      </trkpt>
      <trkpt lat="44.43811" lon="5.24878">
        <ele>656.79998779297</ele>
        <time>2013-05-10T14:56:42Z</time>
      </trkpt>
      <trkpt lat="44.43813" lon="5.24881">
        <ele>657.20001220703</ele>
        <time>2013-05-10T14:56:43Z</time>
      </trkpt>
      <trkpt lat="44.43829" lon="5.24902">
        <ele>657.59997558594</ele>
        <time>2013-05-10T14:56:49Z</time>
      </trkpt>
      <trkpt lat="44.43839" lon="5.24918">
        <ele>657.20001220703</ele>
        <time>2013-05-10T14:56:53Z</time>
      </trkpt>
      <trkpt lat="44.43842" lon="5.24923">
        <ele>656.79998779297</ele>
        <time>2013-05-10T14:56:54Z</time>
      </trkpt>
      <trkpt lat="44.43844" lon="5.24933">
        <ele>656</ele>
        <time>2013-05-10T14:56:56Z</time>
      </trkpt>
      <trkpt lat="44.43844" lon="5.24961">
        <ele>655.59997558594</ele>
        <time>2013-05-10T14:57:02Z</time>
      </trkpt>
      <trkpt lat="44.43846" lon="5.24982">
        <ele>655.59997558594</ele>
        <time>2013-05-10T14:57:08Z</time>
      </trkpt>
      <trkpt lat="44.43858" lon="5.25014">
        <ele>655.59997558594</ele>
        <time>2013-05-10T14:57:17Z</time>
      </trkpt>
      <trkpt lat="44.43866" lon="5.25025">
        <ele>655.59997558594</ele>
        <time>2013-05-10T14:57:20Z</time>
      </trkpt>
      <trkpt lat="44.43882" lon="5.25039">
        <ele>655.20001220703</ele>
        <time>2013-05-10T14:57:24Z</time>
      </trkpt>
      <trkpt lat="44.43885" lon="5.25044">
        <ele>654.79998779297</ele>
        <time>2013-05-10T14:57:25Z</time>
      </trkpt>
      <trkpt lat="44.43889" lon="5.25054">
        <ele>653.79998779297</ele>
        <time>2013-05-10T14:57:27Z</time>
      </trkpt>
      <trkpt lat="44.43889" lon="5.25063">
        <ele>653.40002441406</ele>
        <time>2013-05-10T14:57:29Z</time>
      </trkpt>
      <trkpt lat="44.43884" lon="5.25083">
        <ele>653.40002441406</ele>
        <time>2013-05-10T14:57:36Z</time>
      </trkpt>
      <trkpt lat="44.43873" lon="5.25089">
        <ele>653.40002441406</ele>
        <time>2013-05-10T14:57:45Z</time>
      </trkpt>
      <trkpt lat="44.4387" lon="5.2509">
        <ele>655.20001220703</ele>
        <time>2013-05-10T14:57:49Z</time>
      </trkpt>
      <trkpt lat="44.43869" lon="5.2509">
        <ele>655.59997558594</ele>
        <time>2013-05-10T14:57:53Z</time>
      </trkpt>
      <trkpt lat="44.43847" lon="5.25089">
        <ele>669.20001220703</ele>
        <time>2013-05-10T14:59:34Z</time>
      </trkpt>
      <trkpt lat="44.43834" lon="5.25086">
        <ele>670</ele>
        <time>2013-05-10T14:59:36Z</time>
      </trkpt>
      <trkpt lat="44.43827" lon="5.25084">
        <ele>670.40002441406</ele>
        <time>2013-05-10T14:59:37Z</time>
      </trkpt>
      <trkpt lat="44.43807" lon="5.25085">
        <ele>670.40002441406</ele>
        <time>2013-05-10T14:59:41Z</time>
      </trkpt>
      <trkpt lat="44.43786" lon="5.25086">
        <ele>671</ele>
        <time>2013-05-10T14:59:47Z</time>
      </trkpt>
      <trkpt lat="44.43778" lon="5.25083">
        <ele>672.59997558594</ele>
        <time>2013-05-10T14:59:51Z</time>
      </trkpt>
      <trkpt lat="44.43757" lon="5.25066">
        <ele>672.59997558594</ele>
        <time>2013-05-10T15:00:05Z</time>
      </trkpt>
      <trkpt lat="44.4375" lon="5.2506">
        <ele>675.20001220703</ele>
        <time>2013-05-10T15:00:10Z</time>
      </trkpt>
      <trkpt lat="44.43741" lon="5.25049">
        <ele>675.20001220703</ele>
        <time>2013-05-10T15:00:17Z</time>
      </trkpt>
      <trkpt lat="44.43734" lon="5.25039">
        <ele>675.59997558594</ele>
        <time>2013-05-10T15:00:26Z</time>
      </trkpt>
      <trkpt lat="44.43726" lon="5.25027">
        <ele>677.20001220703</ele>
        <time>2013-05-10T15:00:34Z</time>
      </trkpt>
      <trkpt lat="44.43715" lon="5.25012">
        <ele>677.20001220703</ele>
        <time>2013-05-10T15:00:42Z</time>
      </trkpt>
      <trkpt lat="44.43705" lon="5.25002">
        <ele>677.20001220703</ele>
        <time>2013-05-10T15:00:47Z</time>
      </trkpt>
      <trkpt lat="44.4369" lon="5.24987">
        <ele>677.20001220703</ele>
        <time>2013-05-10T15:00:52Z</time>
      </trkpt>
      <trkpt lat="44.43665" lon="5.24963">
        <ele>677.20001220703</ele>
        <time>2013-05-10T15:00:59Z</time>
      </trkpt>
      <trkpt lat="44.43644" lon="5.24941">
        <ele>677.20001220703</ele>
        <time>2013-05-10T15:01:05Z</time>
      </trkpt>
      <trkpt lat="44.4364" lon="5.24939">
        <ele>677.20001220703</ele>
        <time>2013-05-10T15:01:06Z</time>
      </trkpt>
      <trkpt lat="44.43626" lon="5.2493">
        <ele>677.20001220703</ele>
        <time>2013-05-10T15:01:11Z</time>
      </trkpt>
      <trkpt lat="44.43619" lon="5.24927">
        <ele>677.59997558594</ele>
        <time>2013-05-10T15:01:15Z</time>
      </trkpt>
      <trkpt lat="44.43605" lon="5.2492">
        <ele>679.20001220703</ele>
        <time>2013-05-10T15:01:25Z</time>
      </trkpt>
      <trkpt lat="44.436" lon="5.24923">
        <ele>681.40002441406</ele>
        <time>2013-05-10T15:01:32Z</time>
      </trkpt>
      <trkpt lat="44.4359" lon="5.2493">
        <ele>690.20001220703</ele>
        <time>2013-05-10T15:02:31Z</time>
      </trkpt>
      <trkpt lat="44.43581" lon="5.24953">
        <ele>696.59997558594</ele>
        <time>2013-05-10T15:03:15Z</time>
      </trkpt>
      <trkpt lat="44.43571" lon="5.24977">
        <ele>696.59997558594</ele>
        <time>2013-05-10T15:03:21Z</time>
      </trkpt>
      <trkpt lat="44.43563" lon="5.24992">
        <ele>696.59997558594</ele>
        <time>2013-05-10T15:03:25Z</time>
      </trkpt>
      <trkpt lat="44.4356" lon="5.25001">
        <ele>696.59997558594</ele>
        <time>2013-05-10T15:03:27Z</time>
      </trkpt>
      <trkpt lat="44.43552" lon="5.25024">
        <ele>696.59997558594</ele>
        <time>2013-05-10T15:03:34Z</time>
      </trkpt>
      <trkpt lat="44.43547" lon="5.25045">
        <ele>697</ele>
        <time>2013-05-10T15:03:38Z</time>
      </trkpt>
      <trkpt lat="44.43544" lon="5.25052">
        <ele>697.79998779297</ele>
        <time>2013-05-10T15:03:40Z</time>
      </trkpt>
      <trkpt lat="44.43541" lon="5.25061">
        <ele>698.79998779297</ele>
        <time>2013-05-10T15:03:43Z</time>
      </trkpt>
      <trkpt lat="44.43538" lon="5.25072">
        <ele>698.79998779297</ele>
        <time>2013-05-10T15:03:50Z</time>
      </trkpt>
      <trkpt lat="44.43531" lon="5.25093">
        <ele>698.79998779297</ele>
        <time>2013-05-10T15:03:58Z</time>
      </trkpt>
      <trkpt lat="44.4353" lon="5.25097">
        <ele>699.20001220703</ele>
        <time>2013-05-10T15:04:00Z</time>
      </trkpt>
      <trkpt lat="44.43528" lon="5.25101">
        <ele>700</ele>
        <time>2013-05-10T15:04:02Z</time>
      </trkpt>
      <trkpt lat="44.43523" lon="5.25111">
        <ele>701.59997558594</ele>
        <time>2013-05-10T15:04:10Z</time>
      </trkpt>
      <trkpt lat="44.4352" lon="5.25126">
        <ele>703</ele>
        <time>2013-05-10T15:04:20Z</time>
      </trkpt>
      <trkpt lat="44.43517" lon="5.25133">
        <ele>703.40002441406</ele>
        <time>2013-05-10T15:04:25Z</time>
      </trkpt>
      <trkpt lat="44.43513" lon="5.25141">
        <ele>705.20001220703</ele>
        <time>2013-05-10T15:04:29Z</time>
      </trkpt>
      <trkpt lat="44.43508" lon="5.2515">
        <ele>705.20001220703</ele>
        <time>2013-05-10T15:04:37Z</time>
      </trkpt>
      <trkpt lat="44.43502" lon="5.25162">
        <ele>707.59997558594</ele>
        <time>2013-05-10T15:04:44Z</time>
      </trkpt>
      <trkpt lat="44.43496" lon="5.25172">
        <ele>707.59997558594</ele>
        <time>2013-05-10T15:04:52Z</time>
      </trkpt>
      <trkpt lat="44.43492" lon="5.25188">
        <ele>707.59997558594</ele>
        <time>2013-05-10T15:05:00Z</time>
      </trkpt>
      <trkpt lat="44.43491" lon="5.2519">
        <ele>708</ele>
        <time>2013-05-10T15:05:01Z</time>
      </trkpt>
      <trkpt lat="44.4349" lon="5.25192">
        <ele>708.40002441406</ele>
        <time>2013-05-10T15:05:02Z</time>
      </trkpt>
      <trkpt lat="44.43483" lon="5.25203">
        <ele>709.59997558594</ele>
        <time>2013-05-10T15:05:08Z</time>
      </trkpt>
      <trkpt lat="44.43479" lon="5.25216">
        <ele>709.59997558594</ele>
        <time>2013-05-10T15:05:15Z</time>
      </trkpt>
      <trkpt lat="44.43477" lon="5.25221">
        <ele>710.79998779297</ele>
        <time>2013-05-10T15:05:18Z</time>
      </trkpt>
      <trkpt lat="44.43475" lon="5.25231">
        <ele>711.59997558594</ele>
        <time>2013-05-10T15:05:26Z</time>
      </trkpt>
      <trkpt lat="44.43475" lon="5.25242">
        <ele>712</ele>
        <time>2013-05-10T15:05:33Z</time>
      </trkpt>
      <trkpt lat="44.43474" lon="5.25253">
        <ele>714.20001220703</ele>
        <time>2013-05-10T15:05:43Z</time>
      </trkpt>
      <trkpt lat="44.43468" lon="5.25268">
        <ele>716.20001220703</ele>
        <time>2013-05-10T15:05:57Z</time>
      </trkpt>
      <trkpt lat="44.43466" lon="5.2527">
        <ele>717</ele>
        <time>2013-05-10T15:05:59Z</time>
      </trkpt>
      <trkpt lat="44.43454" lon="5.25281">
        <ele>718</ele>
        <time>2013-05-10T15:06:11Z</time>
      </trkpt>
      <trkpt lat="44.43449" lon="5.25287">
        <ele>718.40002441406</ele>
        <time>2013-05-10T15:06:35Z</time>
      </trkpt>
      <trkpt lat="44.4344" lon="5.25291">
        <ele>720.59997558594</ele>
        <time>2013-05-10T15:06:49Z</time>
      </trkpt>
      <trkpt lat="44.4343" lon="5.25295">
        <ele>723</ele>
        <time>2013-05-10T15:07:03Z</time>
      </trkpt>
      <trkpt lat="44.43417" lon="5.253">
        <ele>724.40002441406</ele>
        <time>2013-05-10T15:07:15Z</time>
      </trkpt>
      <trkpt lat="44.43412" lon="5.25314">
        <ele>726.59997558594</ele>
        <time>2013-05-10T15:07:33Z</time>
      </trkpt>
      <trkpt lat="44.43412" lon="5.25321">
        <ele>728.40002441406</ele>
        <time>2013-05-10T15:07:42Z</time>
      </trkpt>
      <trkpt lat="44.43412" lon="5.2533">
        <ele>729.59997558594</ele>
        <time>2013-05-10T15:07:54Z</time>
      </trkpt>
      <trkpt lat="44.43415" lon="5.25341">
        <ele>731.79998779297</ele>
        <time>2013-05-10T15:08:12Z</time>
      </trkpt>
      <trkpt lat="44.43417" lon="5.25351">
        <ele>733.79998779297</ele>
        <time>2013-05-10T15:08:26Z</time>
      </trkpt>
      <trkpt lat="44.4342" lon="5.25363">
        <ele>736.59997558594</ele>
        <time>2013-05-10T15:08:44Z</time>
      </trkpt>
      <trkpt lat="44.43425" lon="5.25372">
        <ele>739</ele>
        <time>2013-05-10T15:08:58Z</time>
      </trkpt>
      <trkpt lat="44.43431" lon="5.25378">
        <ele>740.59997558594</ele>
        <time>2013-05-10T15:09:10Z</time>
      </trkpt>
      <trkpt lat="44.43434" lon="5.25384">
        <ele>741.79998779297</ele>
        <time>2013-05-10T15:09:19Z</time>
      </trkpt>
      <trkpt lat="44.43443" lon="5.25394">
        <ele>743.79998779297</ele>
        <time>2013-05-10T15:09:36Z</time>
      </trkpt>
      <trkpt lat="44.43453" lon="5.25399">
        <ele>746</ele>
        <time>2013-05-10T15:09:50Z</time>
      </trkpt>
      <trkpt lat="44.43455" lon="5.25401">
        <ele>747</ele>
        <time>2013-05-10T15:09:55Z</time>
      </trkpt>
      <trkpt lat="44.4346" lon="5.25404">
        <ele>748</ele>
        <time>2013-05-10T15:10:02Z</time>
      </trkpt>
      <trkpt lat="44.43465" lon="5.2541">
        <ele>749.40002441406</ele>
        <time>2013-05-10T15:10:14Z</time>
      </trkpt>
      <trkpt lat="44.43473" lon="5.25417">
        <ele>750.40002441406</ele>
        <time>2013-05-10T15:10:24Z</time>
      </trkpt>
      <trkpt lat="44.43482" lon="5.25419">
        <ele>751.40002441406</ele>
        <time>2013-05-10T15:10:31Z</time>
      </trkpt>
      <trkpt lat="44.43484" lon="5.25422">
        <ele>752.40002441406</ele>
        <time>2013-05-10T15:10:35Z</time>
      </trkpt>
      <trkpt lat="44.43495" lon="5.25426">
        <ele>753.79998779297</ele>
        <time>2013-05-10T15:10:49Z</time>
      </trkpt>
      <trkpt lat="44.435" lon="5.25429">
        <ele>755</ele>
        <time>2013-05-10T15:10:56Z</time>
      </trkpt>
      <trkpt lat="44.43501" lon="5.25433">
        <ele>755</ele>
        <time>2013-05-10T15:10:59Z</time>
      </trkpt>
      <trkpt lat="44.43512" lon="5.25439">
        <ele>757.40002441406</ele>
        <time>2013-05-10T15:11:10Z</time>
      </trkpt>
      <trkpt lat="44.43516" lon="5.25441">
        <ele>757.40002441406</ele>
        <time>2013-05-10T15:11:17Z</time>
      </trkpt>
      <trkpt lat="44.43521" lon="5.25441">
        <ele>758.20001220703</ele>
        <time>2013-05-10T15:11:24Z</time>
      </trkpt>
      <trkpt lat="44.43534" lon="5.25447">
        <ele>759.59997558594</ele>
        <time>2013-05-10T15:11:39Z</time>
      </trkpt>
      <trkpt lat="44.43538" lon="5.25451">
        <ele>759.59997558594</ele>
        <time>2013-05-10T15:11:44Z</time>
      </trkpt>
      <trkpt lat="44.4354" lon="5.25458">
        <ele>760.40002441406</ele>
        <time>2013-05-10T15:11:50Z</time>
      </trkpt>
      <trkpt lat="44.43542" lon="5.2546">
        <ele>761.59997558594</ele>
        <time>2013-05-10T15:11:55Z</time>
      </trkpt>
      <trkpt lat="44.43554" lon="5.25462">
        <ele>761.59997558594</ele>
        <time>2013-05-10T15:12:05Z</time>
      </trkpt>
      <trkpt lat="44.4356" lon="5.25467">
        <ele>763.40002441406</ele>
        <time>2013-05-10T15:12:13Z</time>
      </trkpt>
      <trkpt lat="44.43561" lon="5.25472">
        <ele>763.79998779297</ele>
        <time>2013-05-10T15:12:24Z</time>
      </trkpt>
      <trkpt lat="44.43557" lon="5.25483">
        <ele>763.79998779297</ele>
        <time>2013-05-10T15:12:34Z</time>
      </trkpt>
      <trkpt lat="44.43558" lon="5.25493">
        <ele>763.79998779297</ele>
        <time>2013-05-10T15:12:42Z</time>
      </trkpt>
      <trkpt lat="44.43559" lon="5.255">
        <ele>763.79998779297</ele>
        <time>2013-05-10T15:12:51Z</time>
      </trkpt>
      <trkpt lat="44.43555" lon="5.2551">
        <ele>763.79998779297</ele>
        <time>2013-05-10T15:13:02Z</time>
      </trkpt>
      <trkpt lat="44.43552" lon="5.25521">
        <ele>763.79998779297</ele>
        <time>2013-05-10T15:13:12Z</time>
      </trkpt>
      <trkpt lat="44.43546" lon="5.25531">
        <ele>763.79998779297</ele>
        <time>2013-05-10T15:13:22Z</time>
      </trkpt>
      <trkpt lat="44.4354" lon="5.25547">
        <ele>763.79998779297</ele>
        <time>2013-05-10T15:13:38Z</time>
      </trkpt>
      <trkpt lat="44.43537" lon="5.25551">
        <ele>764.40002441406</ele>
        <time>2013-05-10T15:13:44Z</time>
      </trkpt>
      <trkpt lat="44.4353" lon="5.25555">
        <ele>772.20001220703</ele>
        <time>2013-05-10T15:13:55Z</time>
      </trkpt>
      <trkpt lat="44.43523" lon="5.2556">
        <ele>775.40002441406</ele>
        <time>2013-05-10T15:14:05Z</time>
      </trkpt>
      <trkpt lat="44.43519" lon="5.25568">
        <ele>776.20001220703</ele>
        <time>2013-05-10T15:14:18Z</time>
      </trkpt>
      <trkpt lat="44.43518" lon="5.25573">
        <ele>777.20001220703</ele>
        <time>2013-05-10T15:14:26Z</time>
      </trkpt>
      <trkpt lat="44.43519" lon="5.25581">
        <ele>778.40002441406</ele>
        <time>2013-05-10T15:14:33Z</time>
      </trkpt>
      <trkpt lat="44.43521" lon="5.25587">
        <ele>778.79998779297</ele>
        <time>2013-05-10T15:14:40Z</time>
      </trkpt>
      <trkpt lat="44.43525" lon="5.25593">
        <ele>780</ele>
        <time>2013-05-10T15:14:47Z</time>
      </trkpt>
      <trkpt lat="44.43526" lon="5.25604">
        <ele>781</ele>
        <time>2013-05-10T15:14:58Z</time>
      </trkpt>
      <trkpt lat="44.43526" lon="5.25613">
        <ele>782.59997558594</ele>
        <time>2013-05-10T15:15:08Z</time>
      </trkpt>
      <trkpt lat="44.43523" lon="5.25622">
        <ele>784</ele>
        <time>2013-05-10T15:15:19Z</time>
      </trkpt>
      <trkpt lat="44.43518" lon="5.25631">
        <ele>785</ele>
        <time>2013-05-10T15:15:33Z</time>
      </trkpt>
      <trkpt lat="44.4351" lon="5.25634">
        <ele>786.59997558594</ele>
        <time>2013-05-10T15:15:44Z</time>
      </trkpt>
      <trkpt lat="44.43498" lon="5.25633">
        <ele>788.59997558594</ele>
        <time>2013-05-10T15:15:56Z</time>
      </trkpt>
      <trkpt lat="44.43487" lon="5.25636">
        <ele>790</ele>
        <time>2013-05-10T15:16:14Z</time>
      </trkpt>
      <trkpt lat="44.4348" lon="5.25637">
        <ele>790.40002441406</ele>
        <time>2013-05-10T15:16:22Z</time>
      </trkpt>
      <trkpt lat="44.43468" lon="5.25642">
        <ele>792.40002441406</ele>
        <time>2013-05-10T15:16:39Z</time>
      </trkpt>
      <trkpt lat="44.43452" lon="5.25641">
        <ele>794.20001220703</ele>
        <time>2013-05-10T15:16:54Z</time>
      </trkpt>
      <trkpt lat="44.43448" lon="5.25646">
        <ele>794.20001220703</ele>
        <time>2013-05-10T15:17:02Z</time>
      </trkpt>
      <trkpt lat="44.43444" lon="5.25651">
        <ele>794.20001220703</ele>
        <time>2013-05-10T15:17:12Z</time>
      </trkpt>
      <trkpt lat="44.43438" lon="5.25653">
        <ele>794.20001220703</ele>
        <time>2013-05-10T15:17:19Z</time>
      </trkpt>
      <trkpt lat="44.4343" lon="5.25658">
        <ele>794.20001220703</ele>
        <time>2013-05-10T15:17:30Z</time>
      </trkpt>
      <trkpt lat="44.4342" lon="5.25666">
        <ele>794.20001220703</ele>
        <time>2013-05-10T15:17:42Z</time>
      </trkpt>
      <trkpt lat="44.43415" lon="5.2567">
        <ele>795</ele>
        <time>2013-05-10T15:17:47Z</time>
      </trkpt>
      <trkpt lat="44.4341" lon="5.25673">
        <ele>795</ele>
        <time>2013-05-10T15:17:53Z</time>
      </trkpt>
      <trkpt lat="44.43401" lon="5.25679">
        <ele>795</ele>
        <time>2013-05-10T15:18:04Z</time>
      </trkpt>
      <trkpt lat="44.4339" lon="5.25688">
        <ele>795</ele>
        <time>2013-05-10T15:18:19Z</time>
      </trkpt>
      <trkpt lat="44.43377" lon="5.25694">
        <ele>795</ele>
        <time>2013-05-10T15:18:30Z</time>
      </trkpt>
      <trkpt lat="44.43369" lon="5.257">
        <ele>795</ele>
        <time>2013-05-10T15:18:39Z</time>
      </trkpt>
      <trkpt lat="44.43368" lon="5.25702">
        <ele>796.20001220703</ele>
        <time>2013-05-10T15:18:43Z</time>
      </trkpt>
      <trkpt lat="44.43378" lon="5.25709">
        <ele>797.79998779297</ele>
        <time>2013-05-10T15:19:11Z</time>
      </trkpt>
      <trkpt lat="44.43387" lon="5.25711">
        <ele>797.79998779297</ele>
        <time>2013-05-10T15:19:20Z</time>
      </trkpt>
      <trkpt lat="44.434" lon="5.25717">
        <ele>797.79998779297</ele>
        <time>2013-05-10T15:19:33Z</time>
      </trkpt>
      <trkpt lat="44.43409" lon="5.25724">
        <ele>799.79998779297</ele>
        <time>2013-05-10T15:19:45Z</time>
      </trkpt>
      <trkpt lat="44.43417" lon="5.25733">
        <ele>799.79998779297</ele>
        <time>2013-05-10T15:19:57Z</time>
      </trkpt>
      <trkpt lat="44.43423" lon="5.25737">
        <ele>804.40002441406</ele>
        <time>2013-05-10T15:20:03Z</time>
      </trkpt>
      <trkpt lat="44.43429" lon="5.25741">
        <ele>810.20001220703</ele>
        <time>2013-05-10T15:20:10Z</time>
      </trkpt>
      <trkpt lat="44.43432" lon="5.25749">
        <ele>814.20001220703</ele>
        <time>2013-05-10T15:20:19Z</time>
      </trkpt>
      <trkpt lat="44.43436" lon="5.25752">
        <ele>815.40002441406</ele>
        <time>2013-05-10T15:20:26Z</time>
      </trkpt>
      <trkpt lat="44.43444" lon="5.25758">
        <ele>816.20001220703</ele>
        <time>2013-05-10T15:20:33Z</time>
      </trkpt>
      <trkpt lat="44.43453" lon="5.25759">
        <ele>816.59997558594</ele>
        <time>2013-05-10T15:20:44Z</time>
      </trkpt>
      <trkpt lat="44.4346" lon="5.2576">
        <ele>817.59997558594</ele>
        <time>2013-05-10T15:20:50Z</time>
      </trkpt>
      <trkpt lat="44.43461" lon="5.2576">
        <ele>818</ele>
        <time>2013-05-10T15:20:51Z</time>
      </trkpt>
      <trkpt lat="44.43479" lon="5.25765">
        <ele>818.59997558594</ele>
        <time>2013-05-10T15:21:05Z</time>
      </trkpt>
      <trkpt lat="44.43484" lon="5.25765">
        <ele>819</ele>
        <time>2013-05-10T15:21:09Z</time>
      </trkpt>
      <trkpt lat="44.43493" lon="5.25766">
        <ele>820.20001220703</ele>
        <time>2013-05-10T15:21:18Z</time>
      </trkpt>
      <trkpt lat="44.43497" lon="5.25771">
        <ele>820.79998779297</ele>
        <time>2013-05-10T15:21:24Z</time>
      </trkpt>
      <trkpt lat="44.43501" lon="5.25776">
        <ele>820.79998779297</ele>
        <time>2013-05-10T15:21:33Z</time>
      </trkpt>
      <trkpt lat="44.43506" lon="5.25782">
        <ele>820.79998779297</ele>
        <time>2013-05-10T15:21:45Z</time>
      </trkpt>
      <trkpt lat="44.43511" lon="5.25783">
        <ele>821.59997558594</ele>
        <time>2013-05-10T15:21:47Z</time>
      </trkpt>
      <trkpt lat="44.43525" lon="5.25791">
        <ele>822.79998779297</ele>
        <time>2013-05-10T15:21:54Z</time>
      </trkpt>
      <trkpt lat="44.43544" lon="5.25801">
        <ele>822.79998779297</ele>
        <time>2013-05-10T15:22:03Z</time>
      </trkpt>
      <trkpt lat="44.43561" lon="5.25798">
        <ele>822.79998779297</ele>
        <time>2013-05-10T15:22:08Z</time>
      </trkpt>
      <trkpt lat="44.43573" lon="5.25804">
        <ele>822.79998779297</ele>
        <time>2013-05-10T15:22:12Z</time>
      </trkpt>
      <trkpt lat="44.43587" lon="5.25815">
        <ele>822.79998779297</ele>
        <time>2013-05-10T15:22:20Z</time>
      </trkpt>
      <trkpt lat="44.43604" lon="5.25824">
        <ele>822.79998779297</ele>
        <time>2013-05-10T15:22:29Z</time>
      </trkpt>
      <trkpt lat="44.43624" lon="5.25831">
        <ele>822.79998779297</ele>
        <time>2013-05-10T15:22:38Z</time>
      </trkpt>
      <trkpt lat="44.43631" lon="5.25837">
        <ele>824.79998779297</ele>
        <time>2013-05-10T15:22:54Z</time>
      </trkpt>
      <trkpt lat="44.43632" lon="5.25841">
        <ele>831</ele>
        <time>2013-05-10T15:23:36Z</time>
      </trkpt>
      <trkpt lat="44.43635" lon="5.2585">
        <ele>837.20001220703</ele>
        <time>2013-05-10T15:24:28Z</time>
      </trkpt>
      <trkpt lat="44.43639" lon="5.2586">
        <ele>845.59997558594</ele>
        <time>2013-05-10T15:25:44Z</time>
      </trkpt>
      <trkpt lat="44.4364" lon="5.25863">
        <ele>848</ele>
        <time>2013-05-10T15:26:08Z</time>
      </trkpt>
      <trkpt lat="44.43654" lon="5.2588">
        <ele>849.79998779297</ele>
        <time>2013-05-10T15:26:25Z</time>
      </trkpt>
      <trkpt lat="44.43662" lon="5.25896">
        <ele>850.59997558594</ele>
        <time>2013-05-10T15:26:29Z</time>
      </trkpt>
      <trkpt lat="44.43665" lon="5.25904">
        <ele>851</ele>
        <time>2013-05-10T15:26:32Z</time>
      </trkpt>
      <trkpt lat="44.43669" lon="5.25914">
        <ele>851</ele>
        <time>2013-05-10T15:26:35Z</time>
      </trkpt>
      <trkpt lat="44.43671" lon="5.25916">
        <ele>851.79998779297</ele>
        <time>2013-05-10T15:26:36Z</time>
      </trkpt>
      <trkpt lat="44.43676" lon="5.25922">
        <ele>852.20001220703</ele>
        <time>2013-05-10T15:26:39Z</time>
      </trkpt>
      <trkpt lat="44.43685" lon="5.25937">
        <ele>853</ele>
        <time>2013-05-10T15:26:43Z</time>
      </trkpt>
      <trkpt lat="44.43693" lon="5.25951">
        <ele>853</ele>
        <time>2013-05-10T15:26:47Z</time>
      </trkpt>
      <trkpt lat="44.43705" lon="5.25969">
        <ele>854</ele>
        <time>2013-05-10T15:26:53Z</time>
      </trkpt>
      <trkpt lat="44.43711" lon="5.25982">
        <ele>854.79998779297</ele>
        <time>2013-05-10T15:26:57Z</time>
      </trkpt>
      <trkpt lat="44.43714" lon="5.25991">
        <ele>855.20001220703</ele>
        <time>2013-05-10T15:27:00Z</time>
      </trkpt>
      <trkpt lat="44.43728" lon="5.26012">
        <ele>855.59997558594</ele>
        <time>2013-05-10T15:27:07Z</time>
      </trkpt>
      <trkpt lat="44.43734" lon="5.26016">
        <ele>855.59997558594</ele>
        <time>2013-05-10T15:27:09Z</time>
      </trkpt>
      <trkpt lat="44.43735" lon="5.2602">
        <ele>856.40002441406</ele>
        <time>2013-05-10T15:27:11Z</time>
      </trkpt>
      <trkpt lat="44.43743" lon="5.26034">
        <ele>857.20001220703</ele>
        <time>2013-05-10T15:27:18Z</time>
      </trkpt>
      <trkpt lat="44.43742" lon="5.26041">
        <ele>857.20001220703</ele>
        <time>2013-05-10T15:27:20Z</time>
      </trkpt>
      <trkpt lat="44.43745" lon="5.26068">
        <ele>857.59997558594</ele>
        <time>2013-05-10T15:27:28Z</time>
      </trkpt>
      <trkpt lat="44.43746" lon="5.2607">
        <ele>857.59997558594</ele>
        <time>2013-05-10T15:27:29Z</time>
      </trkpt>
      <trkpt lat="44.4375" lon="5.26078">
        <ele>858.79998779297</ele>
        <time>2013-05-10T15:27:35Z</time>
      </trkpt>
      <trkpt lat="44.43752" lon="5.26081">
        <ele>858.79998779297</ele>
        <time>2013-05-10T15:27:37Z</time>
      </trkpt>
      <trkpt lat="44.43764" lon="5.26093">
        <ele>859.20001220703</ele>
        <time>2013-05-10T15:27:52Z</time>
      </trkpt>
      <trkpt lat="44.43773" lon="5.261">
        <ele>860.20001220703</ele>
        <time>2013-05-10T15:27:58Z</time>
      </trkpt>
      <trkpt lat="44.43781" lon="5.26106">
        <ele>861</ele>
        <time>2013-05-10T15:28:02Z</time>
      </trkpt>
      <trkpt lat="44.43789" lon="5.26111">
        <ele>861.40002441406</ele>
        <time>2013-05-10T15:28:06Z</time>
      </trkpt>
      <trkpt lat="44.43794" lon="5.26115">
        <ele>861.40002441406</ele>
        <time>2013-05-10T15:28:09Z</time>
      </trkpt>
      <trkpt lat="44.43797" lon="5.26125">
        <ele>861.40002441406</ele>
        <time>2013-05-10T15:28:16Z</time>
      </trkpt>
      <trkpt lat="44.438" lon="5.26135">
        <ele>862.20001220703</ele>
        <time>2013-05-10T15:28:23Z</time>
      </trkpt>
      <trkpt lat="44.43803" lon="5.26138">
        <ele>862.20001220703</ele>
        <time>2013-05-10T15:28:25Z</time>
      </trkpt>
      <trkpt lat="44.4381" lon="5.26143">
        <ele>863.40002441406</ele>
        <time>2013-05-10T15:28:30Z</time>
      </trkpt>
      <trkpt lat="44.43827" lon="5.26154">
        <ele>863.40002441406</ele>
        <time>2013-05-10T15:28:37Z</time>
      </trkpt>
      <trkpt lat="44.4385" lon="5.26162">
        <ele>863.40002441406</ele>
        <time>2013-05-10T15:28:43Z</time>
      </trkpt>
      <trkpt lat="44.43866" lon="5.26165">
        <ele>863</ele>
        <time>2013-05-10T15:28:47Z</time>
      </trkpt>
      <trkpt lat="44.43879" lon="5.2617">
        <ele>861.79998779297</ele>
        <time>2013-05-10T15:28:51Z</time>
      </trkpt>
      <trkpt lat="44.43884" lon="5.2617">
        <ele>861.79998779297</ele>
        <time>2013-05-10T15:28:53Z</time>
      </trkpt>
      <trkpt lat="44.43887" lon="5.2617">
        <ele>861.40002441406</ele>
        <time>2013-05-10T15:28:54Z</time>
      </trkpt>
      <trkpt lat="44.43895" lon="5.26172">
        <ele>860.40002441406</ele>
        <time>2013-05-10T15:28:58Z</time>
      </trkpt>
      <trkpt lat="44.439" lon="5.26174">
        <ele>860</ele>
        <time>2013-05-10T15:29:01Z</time>
      </trkpt>
      <trkpt lat="44.43927" lon="5.26182">
        <ele>858.79998779297</ele>
        <time>2013-05-10T15:33:24Z</time>
      </trkpt>
      <trkpt lat="44.43939" lon="5.2619">
        <ele>858.20001220703</ele>
        <time>2013-05-10T15:33:27Z</time>
      </trkpt>
      <trkpt lat="44.4395" lon="5.26199">
        <ele>858.20001220703</ele>
        <time>2013-05-10T15:33:30Z</time>
      </trkpt>
      <trkpt lat="44.43962" lon="5.26214">
        <ele>857.20001220703</ele>
        <time>2013-05-10T15:33:34Z</time>
      </trkpt>
      <trkpt lat="44.43968" lon="5.26226">
        <ele>856.59997558594</ele>
        <time>2013-05-10T15:33:38Z</time>
      </trkpt>
      <trkpt lat="44.43972" lon="5.26239">
        <ele>856</ele>
        <time>2013-05-10T15:33:42Z</time>
      </trkpt>
      <trkpt lat="44.4398" lon="5.26259">
        <ele>856.40002441406</ele>
        <time>2013-05-10T15:33:49Z</time>
      </trkpt>
      <trkpt lat="44.43984" lon="5.26264">
        <ele>856.79998779297</ele>
        <time>2013-05-10T15:33:52Z</time>
      </trkpt>
      <trkpt lat="44.43988" lon="5.26271">
        <ele>857.20001220703</ele>
        <time>2013-05-10T15:33:55Z</time>
      </trkpt>
      <trkpt lat="44.43991" lon="5.26276">
        <ele>857.59997558594</ele>
        <time>2013-05-10T15:33:57Z</time>
      </trkpt>
      <trkpt lat="44.43995" lon="5.26281">
        <ele>858</ele>
        <time>2013-05-10T15:33:59Z</time>
      </trkpt>
      <trkpt lat="44.44009" lon="5.26296">
        <ele>858</ele>
        <time>2013-05-10T15:34:04Z</time>
      </trkpt>
      <trkpt lat="44.44014" lon="5.263">
        <ele>857.20001220703</ele>
        <time>2013-05-10T15:34:06Z</time>
      </trkpt>
      <trkpt lat="44.44021" lon="5.26307">
        <ele>856.59997558594</ele>
        <time>2013-05-10T15:34:09Z</time>
      </trkpt>
      <trkpt lat="44.4403" lon="5.26313">
        <ele>856</ele>
        <time>2013-05-10T15:34:12Z</time>
      </trkpt>
      <trkpt lat="44.44041" lon="5.2632">
        <ele>854.79998779297</ele>
        <time>2013-05-10T15:34:16Z</time>
      </trkpt>
      <trkpt lat="44.44053" lon="5.26331">
        <ele>853.40002441406</ele>
        <time>2013-05-10T15:34:20Z</time>
      </trkpt>
      <trkpt lat="44.44064" lon="5.26337">
        <ele>853</ele>
        <time>2013-05-10T15:34:24Z</time>
      </trkpt>
      <trkpt lat="44.44068" lon="5.2634">
        <ele>853</ele>
        <time>2013-05-10T15:34:26Z</time>
      </trkpt>
      <trkpt lat="44.44071" lon="5.26341">
        <ele>852</ele>
        <time>2013-05-10T15:34:27Z</time>
      </trkpt>
      <trkpt lat="44.44085" lon="5.26348">
        <ele>851.59997558594</ele>
        <time>2013-05-10T15:34:32Z</time>
      </trkpt>
      <trkpt lat="44.44089" lon="5.2635">
        <ele>851.20001220703</ele>
        <time>2013-05-10T15:34:34Z</time>
      </trkpt>
      <trkpt lat="44.44097" lon="5.26354">
        <ele>851.20001220703</ele>
        <time>2013-05-10T15:34:38Z</time>
      </trkpt>
      <trkpt lat="44.44107" lon="5.26361">
        <ele>851.59997558594</ele>
        <time>2013-05-10T15:34:44Z</time>
      </trkpt>
      <trkpt lat="44.44112" lon="5.26365">
        <ele>852.40002441406</ele>
        <time>2013-05-10T15:34:48Z</time>
      </trkpt>
      <trkpt lat="44.44119" lon="5.26371">
        <ele>853.40002441406</ele>
        <time>2013-05-10T15:34:54Z</time>
      </trkpt>
      <trkpt lat="44.4412" lon="5.26372">
        <ele>853.79998779297</ele>
        <time>2013-05-10T15:34:55Z</time>
      </trkpt>
      <trkpt lat="44.4413" lon="5.26383">
        <ele>856</ele>
        <time>2013-05-10T15:35:06Z</time>
      </trkpt>
      <trkpt lat="44.44132" lon="5.26384">
        <ele>857</ele>
        <time>2013-05-10T15:35:10Z</time>
      </trkpt>
      <trkpt lat="44.44138" lon="5.2639">
        <ele>860.20001220703</ele>
        <time>2013-05-10T15:35:42Z</time>
      </trkpt>
      <trkpt lat="44.4414" lon="5.26393">
        <ele>863</ele>
        <time>2013-05-10T15:36:04Z</time>
      </trkpt>
      <trkpt lat="44.44157" lon="5.26415">
        <ele>887.59997558594</ele>
        <time>2013-05-10T15:38:48Z</time>
      </trkpt>
      <trkpt lat="44.44161" lon="5.2642">
        <ele>888.40002441406</ele>
        <time>2013-05-10T15:38:50Z</time>
      </trkpt>
      <trkpt lat="44.44167" lon="5.26427">
        <ele>889.40002441406</ele>
        <time>2013-05-10T15:38:53Z</time>
      </trkpt>
      <trkpt lat="44.44173" lon="5.26436">
        <ele>889.79998779297</ele>
        <time>2013-05-10T15:38:57Z</time>
      </trkpt>
      <trkpt lat="44.44181" lon="5.26452">
        <ele>889.79998779297</ele>
        <time>2013-05-10T15:39:05Z</time>
      </trkpt>
      <trkpt lat="44.44193" lon="5.26463">
        <ele>891.59997558594</ele>
        <time>2013-05-10T15:39:12Z</time>
      </trkpt>
      <trkpt lat="44.44212" lon="5.2648">
        <ele>892</ele>
        <time>2013-05-10T15:39:23Z</time>
      </trkpt>
      <trkpt lat="44.44222" lon="5.26487">
        <ele>892.40002441406</ele>
        <time>2013-05-10T15:39:29Z</time>
      </trkpt>
      <trkpt lat="44.44228" lon="5.26493">
        <ele>894</ele>
        <time>2013-05-10T15:39:34Z</time>
      </trkpt>
      <trkpt lat="44.44236" lon="5.26498">
        <ele>894</ele>
        <time>2013-05-10T15:39:39Z</time>
      </trkpt>
      <trkpt lat="44.44255" lon="5.26505">
        <ele>894</ele>
        <time>2013-05-10T15:39:49Z</time>
      </trkpt>
      <trkpt lat="44.44265" lon="5.26511">
        <ele>894</ele>
        <time>2013-05-10T15:39:57Z</time>
      </trkpt>
      <trkpt lat="44.44274" lon="5.26521">
        <ele>894</ele>
        <time>2013-05-10T15:40:06Z</time>
      </trkpt>
      <trkpt lat="44.44287" lon="5.2653">
        <ele>894</ele>
        <time>2013-05-10T15:40:12Z</time>
      </trkpt>
      <trkpt lat="44.44297" lon="5.26542">
        <ele>894</ele>
        <time>2013-05-10T15:40:19Z</time>
      </trkpt>
      <trkpt lat="44.4431" lon="5.26557">
        <ele>894</ele>
        <time>2013-05-10T15:40:26Z</time>
      </trkpt>
      <trkpt lat="44.44313" lon="5.26558">
        <ele>894</ele>
        <time>2013-05-10T15:40:27Z</time>
      </trkpt>
      <trkpt lat="44.44325" lon="5.26564">
        <ele>894</ele>
        <time>2013-05-10T15:40:32Z</time>
      </trkpt>
      <trkpt lat="44.44331" lon="5.26566">
        <ele>895.20001220703</ele>
        <time>2013-05-10T15:40:35Z</time>
      </trkpt>
      <trkpt lat="44.4435" lon="5.26568">
        <ele>895.59997558594</ele>
        <time>2013-05-10T15:40:42Z</time>
      </trkpt>
      <trkpt lat="44.44358" lon="5.26574">
        <ele>896.79998779297</ele>
        <time>2013-05-10T15:40:44Z</time>
      </trkpt>
      <trkpt lat="44.44362" lon="5.26577">
        <ele>897.20001220703</ele>
        <time>2013-05-10T15:40:45Z</time>
      </trkpt>
      <trkpt lat="44.44377" lon="5.26578">
        <ele>898.40002441406</ele>
        <time>2013-05-10T15:40:51Z</time>
      </trkpt>
      <trkpt lat="44.44384" lon="5.26577">
        <ele>898.40002441406</ele>
        <time>2013-05-10T15:40:54Z</time>
      </trkpt>
      <trkpt lat="44.44397" lon="5.26579">
        <ele>898.79998779297</ele>
        <time>2013-05-10T15:41:03Z</time>
      </trkpt>
      <trkpt lat="44.44404" lon="5.26578">
        <ele>899.20001220703</ele>
        <time>2013-05-10T15:41:07Z</time>
      </trkpt>
      <trkpt lat="44.4441" lon="5.26575">
        <ele>900.20001220703</ele>
        <time>2013-05-10T15:41:13Z</time>
      </trkpt>
      <trkpt lat="44.44421" lon="5.26575">
        <ele>901.79998779297</ele>
        <time>2013-05-10T15:41:22Z</time>
      </trkpt>
      <trkpt lat="44.44435" lon="5.26578">
        <ele>903.20001220703</ele>
        <time>2013-05-10T15:41:36Z</time>
      </trkpt>
      <trkpt lat="44.44442" lon="5.26576">
        <ele>905.59997558594</ele>
        <time>2013-05-10T15:41:48Z</time>
      </trkpt>
      <trkpt lat="44.44452" lon="5.26579">
        <ele>906.79998779297</ele>
        <time>2013-05-10T15:41:58Z</time>
      </trkpt>
      <trkpt lat="44.44454" lon="5.26581">
        <ele>907.20001220703</ele>
        <time>2013-05-10T15:42:02Z</time>
      </trkpt>
      <trkpt lat="44.44461" lon="5.26584">
        <ele>908</ele>
        <time>2013-05-10T15:42:10Z</time>
      </trkpt>
      <trkpt lat="44.44471" lon="5.26586">
        <ele>909.59997558594</ele>
        <time>2013-05-10T15:42:30Z</time>
      </trkpt>
      <trkpt lat="44.44484" lon="5.26592">
        <ele>912</ele>
        <time>2013-05-10T15:42:46Z</time>
      </trkpt>
      <trkpt lat="44.4449" lon="5.26595">
        <ele>912.59997558594</ele>
        <time>2013-05-10T15:42:53Z</time>
      </trkpt>
      <trkpt lat="44.44502" lon="5.266">
        <ele>915.79998779297</ele>
        <time>2013-05-10T15:43:08Z</time>
      </trkpt>
      <trkpt lat="44.44503" lon="5.266">
        <ele>915.79998779297</ele>
        <time>2013-05-10T15:43:10Z</time>
      </trkpt>
      <trkpt lat="44.4451" lon="5.266">
        <ele>916.79998779297</ele>
        <time>2013-05-10T15:43:21Z</time>
      </trkpt>
      <trkpt lat="44.44512" lon="5.26603">
        <ele>916.79998779297</ele>
        <time>2013-05-10T15:43:25Z</time>
      </trkpt>
      <trkpt lat="44.4452" lon="5.26608">
        <ele>919</ele>
        <time>2013-05-10T15:43:36Z</time>
      </trkpt>
      <trkpt lat="44.44525" lon="5.26612">
        <ele>919.40002441406</ele>
        <time>2013-05-10T15:43:42Z</time>
      </trkpt>
      <trkpt lat="44.4453" lon="5.26611">
        <ele>921.20001220703</ele>
        <time>2013-05-10T15:43:48Z</time>
      </trkpt>
      <trkpt lat="44.44534" lon="5.26607">
        <ele>921.20001220703</ele>
        <time>2013-05-10T15:43:53Z</time>
      </trkpt>
      <trkpt lat="44.44542" lon="5.26609">
        <ele>921.59997558594</ele>
        <time>2013-05-10T15:44:05Z</time>
      </trkpt>
      <trkpt lat="44.44545" lon="5.26611">
        <ele>922.40002441406</ele>
        <time>2013-05-10T15:44:09Z</time>
      </trkpt>
      <trkpt lat="44.44551" lon="5.26613">
        <ele>923.59997558594</ele>
        <time>2013-05-10T15:44:17Z</time>
      </trkpt>
      <trkpt lat="44.44561" lon="5.26614">
        <ele>925.20001220703</ele>
        <time>2013-05-10T15:44:27Z</time>
      </trkpt>
      <trkpt lat="44.44572" lon="5.26616">
        <ele>926.20001220703</ele>
        <time>2013-05-10T15:44:39Z</time>
      </trkpt>
      <trkpt lat="44.44577" lon="5.2661">
        <ele>927.59997558594</ele>
        <time>2013-05-10T15:44:45Z</time>
      </trkpt>
      <trkpt lat="44.44583" lon="5.26597">
        <ele>927.59997558594</ele>
        <time>2013-05-10T15:44:54Z</time>
      </trkpt>
      <trkpt lat="44.44592" lon="5.2659">
        <ele>927.59997558594</ele>
        <time>2013-05-10T15:45:04Z</time>
      </trkpt>
      <trkpt lat="44.44602" lon="5.26575">
        <ele>927.59997558594</ele>
        <time>2013-05-10T15:45:18Z</time>
      </trkpt>
      <trkpt lat="44.4461" lon="5.26567">
        <ele>928</ele>
        <time>2013-05-10T15:45:27Z</time>
      </trkpt>
      <trkpt lat="44.4461" lon="5.26563">
        <ele>929</ele>
        <time>2013-05-10T15:45:30Z</time>
      </trkpt>
      <trkpt lat="44.44611" lon="5.26557">
        <ele>929.79998779297</ele>
        <time>2013-05-10T15:45:34Z</time>
      </trkpt>
      <trkpt lat="44.44616" lon="5.26547">
        <ele>929.79998779297</ele>
        <time>2013-05-10T15:45:41Z</time>
      </trkpt>
      <trkpt lat="44.44623" lon="5.26538">
        <ele>929.79998779297</ele>
        <time>2013-05-10T15:45:48Z</time>
      </trkpt>
      <trkpt lat="44.44627" lon="5.2653">
        <ele>929.79998779297</ele>
        <time>2013-05-10T15:46:00Z</time>
      </trkpt>
      <trkpt lat="44.44643" lon="5.26499">
        <ele>929.79998779297</ele>
        <time>2013-05-10T15:46:12Z</time>
      </trkpt>
      <trkpt lat="44.4465" lon="5.26485">
        <ele>929.40002441406</ele>
        <time>2013-05-10T15:46:18Z</time>
      </trkpt>
      <trkpt lat="44.44652" lon="5.26479">
        <ele>928.40002441406</ele>
        <time>2013-05-10T15:46:21Z</time>
      </trkpt>
      <trkpt lat="44.44652" lon="5.26469">
        <ele>928</ele>
        <time>2013-05-10T15:46:24Z</time>
      </trkpt>
      <trkpt lat="44.44657" lon="5.26452">
        <ele>927.59997558594</ele>
        <time>2013-05-10T15:46:31Z</time>
      </trkpt>
      <trkpt lat="44.44658" lon="5.26449">
        <ele>927.20001220703</ele>
        <time>2013-05-10T15:46:32Z</time>
      </trkpt>
      <trkpt lat="44.44661" lon="5.26437">
        <ele>926.59997558594</ele>
        <time>2013-05-10T15:46:35Z</time>
      </trkpt>
      <trkpt lat="44.44672" lon="5.26424">
        <ele>925.40002441406</ele>
        <time>2013-05-10T15:46:42Z</time>
      </trkpt>
      <trkpt lat="44.44675" lon="5.26418">
        <ele>925.40002441406</ele>
        <time>2013-05-10T15:46:44Z</time>
      </trkpt>
      <trkpt lat="44.44686" lon="5.26395">
        <ele>925.40002441406</ele>
        <time>2013-05-10T15:46:51Z</time>
      </trkpt>
      <trkpt lat="44.4469" lon="5.26384">
        <ele>925.40002441406</ele>
        <time>2013-05-10T15:46:55Z</time>
      </trkpt>
      <trkpt lat="44.44697" lon="5.26375">
        <ele>925.40002441406</ele>
        <time>2013-05-10T15:47:01Z</time>
      </trkpt>
      <trkpt lat="44.44702" lon="5.26362">
        <ele>925.40002441406</ele>
        <time>2013-05-10T15:47:07Z</time>
      </trkpt>
      <trkpt lat="44.44711" lon="5.2635">
        <ele>925.40002441406</ele>
        <time>2013-05-10T15:47:15Z</time>
      </trkpt>
      <trkpt lat="44.44718" lon="5.2634">
        <ele>926.59997558594</ele>
        <time>2013-05-10T15:47:23Z</time>
      </trkpt>
      <trkpt lat="44.44719" lon="5.2633">
        <ele>927.40002441406</ele>
        <time>2013-05-10T15:47:31Z</time>
      </trkpt>
      <trkpt lat="44.4472" lon="5.26331">
        <ele>927.40002441406</ele>
        <time>2013-05-10T15:47:38Z</time>
      </trkpt>
      <trkpt lat="44.4472" lon="5.26334">
        <ele>927.79998779297</ele>
        <time>2013-05-10T15:47:41Z</time>
      </trkpt>
      <trkpt lat="44.44724" lon="5.26341">
        <ele>929.20001220703</ele>
        <time>2013-05-10T15:47:51Z</time>
      </trkpt>
      <trkpt lat="44.44722" lon="5.26338">
        <ele>929.59997558594</ele>
        <time>2013-05-10T15:55:01Z</time>
      </trkpt>
      <trkpt lat="44.44719" lon="5.26335">
        <ele>929.59997558594</ele>
        <time>2013-05-10T15:55:05Z</time>
      </trkpt>
      <trkpt lat="44.44716" lon="5.26323">
        <ele>929.59997558594</ele>
        <time>2013-05-10T15:55:21Z</time>
      </trkpt>
      <trkpt lat="44.44721" lon="5.26307">
        <ele>929.59997558594</ele>
        <time>2013-05-10T15:55:26Z</time>
      </trkpt>
      <trkpt lat="44.44728" lon="5.26291">
        <ele>929.59997558594</ele>
        <time>2013-05-10T15:55:32Z</time>
      </trkpt>
      <trkpt lat="44.44733" lon="5.26268">
        <ele>929.59997558594</ele>
        <time>2013-05-10T15:55:37Z</time>
      </trkpt>
      <trkpt lat="44.44744" lon="5.26243">
        <ele>929.59997558594</ele>
        <time>2013-05-10T15:55:45Z</time>
      </trkpt>
      <trkpt lat="44.44754" lon="5.26226">
        <ele>929.59997558594</ele>
        <time>2013-05-10T15:55:51Z</time>
      </trkpt>
      <trkpt lat="44.44772" lon="5.26203">
        <ele>929.59997558594</ele>
        <time>2013-05-10T15:55:59Z</time>
      </trkpt>
      <trkpt lat="44.44781" lon="5.26181">
        <ele>929.59997558594</ele>
        <time>2013-05-10T15:56:05Z</time>
      </trkpt>
      <trkpt lat="44.44786" lon="5.26161">
        <ele>929.59997558594</ele>
        <time>2013-05-10T15:56:11Z</time>
      </trkpt>
      <trkpt lat="44.44791" lon="5.26126">
        <ele>929.59997558594</ele>
        <time>2013-05-10T15:56:20Z</time>
      </trkpt>
      <trkpt lat="44.44801" lon="5.26109">
        <ele>929.20001220703</ele>
        <time>2013-05-10T15:56:24Z</time>
      </trkpt>
      <trkpt lat="44.44811" lon="5.26099">
        <ele>928.59997558594</ele>
        <time>2013-05-10T15:56:27Z</time>
      </trkpt>
      <trkpt lat="44.44818" lon="5.26089">
        <ele>927.79998779297</ele>
        <time>2013-05-10T15:56:29Z</time>
      </trkpt>
      <trkpt lat="44.44825" lon="5.26077">
        <ele>927</ele>
        <time>2013-05-10T15:56:31Z</time>
      </trkpt>
      <trkpt lat="44.44836" lon="5.26064">
        <ele>926.20001220703</ele>
        <time>2013-05-10T15:56:34Z</time>
      </trkpt>
      <trkpt lat="44.44852" lon="5.26049">
        <ele>923.40002441406</ele>
        <time>2013-05-10T15:56:39Z</time>
      </trkpt>
      <trkpt lat="44.44862" lon="5.2604">
        <ele>921</ele>
        <time>2013-05-10T15:56:43Z</time>
      </trkpt>
      <trkpt lat="44.44867" lon="5.2604">
        <ele>921</ele>
        <time>2013-05-10T15:56:44Z</time>
      </trkpt>
      <trkpt lat="44.44871" lon="5.26042">
        <ele>921</ele>
        <time>2013-05-10T15:56:45Z</time>
      </trkpt>
      <trkpt lat="44.44889" lon="5.26044">
        <ele>918.20001220703</ele>
        <time>2013-05-10T15:56:48Z</time>
      </trkpt>
      <trkpt lat="44.44894" lon="5.26044">
        <ele>916.79998779297</ele>
        <time>2013-05-10T15:56:49Z</time>
      </trkpt>
      <trkpt lat="44.44905" lon="5.26041">
        <ele>915.20001220703</ele>
        <time>2013-05-10T15:56:51Z</time>
      </trkpt>
      <trkpt lat="44.44913" lon="5.26036">
        <ele>913.79998779297</ele>
        <time>2013-05-10T15:56:53Z</time>
      </trkpt>
      <trkpt lat="44.44923" lon="5.26036">
        <ele>913.79998779297</ele>
        <time>2013-05-10T15:56:55Z</time>
      </trkpt>
      <trkpt lat="44.44936" lon="5.26047">
        <ele>911.79998779297</ele>
        <time>2013-05-10T15:57:00Z</time>
      </trkpt>
      <trkpt lat="44.4494" lon="5.26054">
        <ele>911</ele>
        <time>2013-05-10T15:57:03Z</time>
      </trkpt>
      <trkpt lat="44.44945" lon="5.26059">
        <ele>911</ele>
        <time>2013-05-10T15:57:06Z</time>
      </trkpt>
      <trkpt lat="44.44947" lon="5.2606">
        <ele>908.59997558594</ele>
        <time>2013-05-10T15:57:07Z</time>
      </trkpt>
      <trkpt lat="44.44951" lon="5.26062">
        <ele>907.20001220703</ele>
        <time>2013-05-10T15:57:10Z</time>
      </trkpt>
      <trkpt lat="44.4496" lon="5.2607">
        <ele>904.20001220703</ele>
        <time>2013-05-10T15:57:14Z</time>
      </trkpt>
      <trkpt lat="44.44973" lon="5.26077">
        <ele>902.40002441406</ele>
        <time>2013-05-10T15:57:19Z</time>
      </trkpt>
      <trkpt lat="44.44976" lon="5.26081">
        <ele>898.59997558594</ele>
        <time>2013-05-10T15:57:21Z</time>
      </trkpt>
      <trkpt lat="44.44982" lon="5.26086">
        <ele>896.79998779297</ele>
        <time>2013-05-10T15:57:24Z</time>
      </trkpt>
      <trkpt lat="44.44986" lon="5.2609">
        <ele>896.79998779297</ele>
        <time>2013-05-10T15:57:27Z</time>
      </trkpt>
      <trkpt lat="44.44991" lon="5.26094">
        <ele>893.20001220703</ele>
        <time>2013-05-10T15:57:30Z</time>
      </trkpt>
      <trkpt lat="44.45003" lon="5.26101">
        <ele>887.59997558594</ele>
        <time>2013-05-10T15:57:35Z</time>
      </trkpt>
      <trkpt lat="44.45016" lon="5.26107">
        <ele>887.59997558594</ele>
        <time>2013-05-10T15:57:40Z</time>
      </trkpt>
      <trkpt lat="44.45021" lon="5.26109">
        <ele>886</ele>
        <time>2013-05-10T15:57:42Z</time>
      </trkpt>
      <trkpt lat="44.45024" lon="5.26111">
        <ele>884.20001220703</ele>
        <time>2013-05-10T15:57:43Z</time>
      </trkpt>
      <trkpt lat="44.45033" lon="5.26112">
        <ele>880.59997558594</ele>
        <time>2013-05-10T15:57:45Z</time>
      </trkpt>
      <trkpt lat="44.45052" lon="5.26118">
        <ele>876.20001220703</ele>
        <time>2013-05-10T15:57:50Z</time>
      </trkpt>
      <trkpt lat="44.4506" lon="5.26121">
        <ele>876.20001220703</ele>
        <time>2013-05-10T15:57:52Z</time>
      </trkpt>
      <trkpt lat="44.45063" lon="5.26122">
        <ele>875.20001220703</ele>
        <time>2013-05-10T15:57:53Z</time>
      </trkpt>
      <trkpt lat="44.45071" lon="5.26124">
        <ele>872.59997558594</ele>
        <time>2013-05-10T15:57:57Z</time>
      </trkpt>
      <trkpt lat="44.4508" lon="5.26127">
        <ele>871.40002441406</ele>
        <time>2013-05-10T15:58:00Z</time>
      </trkpt>
      <trkpt lat="44.4509" lon="5.26134">
        <ele>871.40002441406</ele>
        <time>2013-05-10T15:58:03Z</time>
      </trkpt>
      <trkpt lat="44.45102" lon="5.2614">
        <ele>866.20001220703</ele>
        <time>2013-05-10T15:58:07Z</time>
      </trkpt>
      <trkpt lat="44.45104" lon="5.26141">
        <ele>866.20001220703</ele>
        <time>2013-05-10T15:58:08Z</time>
      </trkpt>
      <trkpt lat="44.45116" lon="5.26141">
        <ele>862.40002441406</ele>
        <time>2013-05-10T15:58:11Z</time>
      </trkpt>
      <trkpt lat="44.45124" lon="5.26138">
        <ele>862.40002441406</ele>
        <time>2013-05-10T15:58:13Z</time>
      </trkpt>
      <trkpt lat="44.45139" lon="5.26133">
        <ele>855.20001220703</ele>
        <time>2013-05-10T15:58:18Z</time>
      </trkpt>
      <trkpt lat="44.45142" lon="5.26132">
        <ele>855.20001220703</ele>
        <time>2013-05-10T15:58:19Z</time>
      </trkpt>
      <trkpt lat="44.45156" lon="5.26131">
        <ele>849.59997558594</ele>
        <time>2013-05-10T15:58:25Z</time>
      </trkpt>
      <trkpt lat="44.45159" lon="5.26129">
        <ele>849.59997558594</ele>
        <time>2013-05-10T15:58:26Z</time>
      </trkpt>
      <trkpt lat="44.45165" lon="5.26127">
        <ele>848.40002441406</ele>
        <time>2013-05-10T15:58:28Z</time>
      </trkpt>
      <trkpt lat="44.45171" lon="5.26123">
        <ele>847</ele>
        <time>2013-05-10T15:58:31Z</time>
      </trkpt>
      <trkpt lat="44.4518" lon="5.2612">
        <ele>842</ele>
        <time>2013-05-10T15:58:39Z</time>
      </trkpt>
      <trkpt lat="44.45182" lon="5.26119">
        <ele>841.40002441406</ele>
        <time>2013-05-10T15:58:42Z</time>
      </trkpt>
      <trkpt lat="44.45194" lon="5.26116">
        <ele>839.40002441406</ele>
        <time>2013-05-10T15:58:49Z</time>
      </trkpt>
      <trkpt lat="44.45202" lon="5.26116">
        <ele>837.59997558594</ele>
        <time>2013-05-10T15:58:53Z</time>
      </trkpt>
      <trkpt lat="44.45215" lon="5.26114">
        <ele>836.40002441406</ele>
        <time>2013-05-10T15:58:59Z</time>
      </trkpt>
      <trkpt lat="44.45226" lon="5.26113">
        <ele>832.40002441406</ele>
        <time>2013-05-10T15:59:03Z</time>
      </trkpt>
      <trkpt lat="44.45234" lon="5.26109">
        <ele>829.59997558594</ele>
        <time>2013-05-10T15:59:07Z</time>
      </trkpt>
      <trkpt lat="44.4524" lon="5.26104">
        <ele>828.20001220703</ele>
        <time>2013-05-10T15:59:10Z</time>
      </trkpt>
      <trkpt lat="44.45251" lon="5.26098">
        <ele>825.40002441406</ele>
        <time>2013-05-10T15:59:14Z</time>
      </trkpt>
      <trkpt lat="44.45266" lon="5.26096">
        <ele>823.59997558594</ele>
        <time>2013-05-10T15:59:20Z</time>
      </trkpt>
      <trkpt lat="44.45275" lon="5.26095">
        <ele>817.59997558594</ele>
        <time>2013-05-10T15:59:24Z</time>
      </trkpt>
      <trkpt lat="44.45282" lon="5.26095">
        <ele>815.40002441406</ele>
        <time>2013-05-10T15:59:27Z</time>
      </trkpt>
      <trkpt lat="44.45293" lon="5.26093">
        <ele>810</ele>
        <time>2013-05-10T15:59:31Z</time>
      </trkpt>
      <trkpt lat="44.45306" lon="5.26087">
        <ele>805.20001220703</ele>
        <time>2013-05-10T15:59:35Z</time>
      </trkpt>
      <trkpt lat="44.45315" lon="5.26083">
        <ele>803.59997558594</ele>
        <time>2013-05-10T15:59:38Z</time>
      </trkpt>
      <trkpt lat="44.45327" lon="5.26079">
        <ele>798.59997558594</ele>
        <time>2013-05-10T15:59:42Z</time>
      </trkpt>
      <trkpt lat="44.45336" lon="5.26073">
        <ele>798.59997558594</ele>
        <time>2013-05-10T15:59:45Z</time>
      </trkpt>
      <trkpt lat="44.45347" lon="5.2607">
        <ele>793.20001220703</ele>
        <time>2013-05-10T15:59:49Z</time>
      </trkpt>
      <trkpt lat="44.45354" lon="5.2607">
        <ele>793.20001220703</ele>
        <time>2013-05-10T15:59:51Z</time>
      </trkpt>
      <trkpt lat="44.45358" lon="5.26069">
        <ele>790</ele>
        <time>2013-05-10T15:59:52Z</time>
      </trkpt>
      <trkpt lat="44.45378" lon="5.26064">
        <ele>790</ele>
        <time>2013-05-10T15:59:56Z</time>
      </trkpt>
      <trkpt lat="44.45406" lon="5.2606">
        <ele>787.79998779297</ele>
        <time>2013-05-10T16:00:01Z</time>
      </trkpt>
      <trkpt lat="44.45411" lon="5.26062">
        <ele>787.79998779297</ele>
        <time>2013-05-10T16:00:02Z</time>
      </trkpt>
      <trkpt lat="44.45425" lon="5.26073">
        <ele>782.40002441406</ele>
        <time>2013-05-10T16:00:05Z</time>
      </trkpt>
      <trkpt lat="44.45438" lon="5.26078">
        <ele>779.59997558594</ele>
        <time>2013-05-10T16:00:08Z</time>
      </trkpt>
      <trkpt lat="44.4544" lon="5.26081">
        <ele>777.20001220703</ele>
        <time>2013-05-10T16:00:09Z</time>
      </trkpt>
      <trkpt lat="44.4544" lon="5.26094">
        <ele>772.59997558594</ele>
        <time>2013-05-10T16:00:12Z</time>
      </trkpt>
      <trkpt lat="44.45428" lon="5.26112">
        <ele>771.20001220703</ele>
        <time>2013-05-10T16:00:16Z</time>
      </trkpt>
      <trkpt lat="44.45422" lon="5.26123">
        <ele>771.20001220703</ele>
        <time>2013-05-10T16:00:18Z</time>
      </trkpt>
      <trkpt lat="44.45419" lon="5.26129">
        <ele>769.79998779297</ele>
        <time>2013-05-10T16:00:19Z</time>
      </trkpt>
      <trkpt lat="44.45413" lon="5.2614">
        <ele>769.79998779297</ele>
        <time>2013-05-10T16:00:21Z</time>
      </trkpt>
      <trkpt lat="44.45409" lon="5.26144">
        <ele>768.20001220703</ele>
        <time>2013-05-10T16:00:22Z</time>
      </trkpt>
      <trkpt lat="44.45403" lon="5.26156">
        <ele>763.59997558594</ele>
        <time>2013-05-10T16:00:26Z</time>
      </trkpt>
      <trkpt lat="44.45403" lon="5.26161">
        <ele>763.59997558594</ele>
        <time>2013-05-10T16:00:28Z</time>
      </trkpt>
      <trkpt lat="44.45399" lon="5.26164">
        <ele>761</ele>
        <time>2013-05-10T16:00:30Z</time>
      </trkpt>
      <trkpt lat="44.45385" lon="5.26179">
        <ele>757</ele>
        <time>2013-05-10T16:00:36Z</time>
      </trkpt>
      <trkpt lat="44.45377" lon="5.26192">
        <ele>755.79998779297</ele>
        <time>2013-05-10T16:00:40Z</time>
      </trkpt>
      <trkpt lat="44.4537" lon="5.262">
        <ele>755.20001220703</ele>
        <time>2013-05-10T16:00:43Z</time>
      </trkpt>
      <trkpt lat="44.45368" lon="5.26204">
        <ele>754.59997558594</ele>
        <time>2013-05-10T16:00:44Z</time>
      </trkpt>
      <trkpt lat="44.45364" lon="5.26213">
        <ele>754.59997558594</ele>
        <time>2013-05-10T16:00:46Z</time>
      </trkpt>
      <trkpt lat="44.45353" lon="5.26228">
        <ele>753</ele>
        <time>2013-05-10T16:00:50Z</time>
      </trkpt>
      <trkpt lat="44.4535" lon="5.26232">
        <ele>752</ele>
        <time>2013-05-10T16:00:51Z</time>
      </trkpt>
      <trkpt lat="44.45345" lon="5.2624">
        <ele>752</ele>
        <time>2013-05-10T16:00:53Z</time>
      </trkpt>
      <trkpt lat="44.45335" lon="5.26255">
        <ele>749.40002441406</ele>
        <time>2013-05-10T16:00:57Z</time>
      </trkpt>
      <trkpt lat="44.45325" lon="5.26265">
        <ele>746.40002441406</ele>
        <time>2013-05-10T16:01:01Z</time>
      </trkpt>
      <trkpt lat="44.45321" lon="5.26271">
        <ele>744.79998779297</ele>
        <time>2013-05-10T16:01:03Z</time>
      </trkpt>
      <trkpt lat="44.45315" lon="5.26277">
        <ele>742</ele>
        <time>2013-05-10T16:01:05Z</time>
      </trkpt>
      <trkpt lat="44.45304" lon="5.26286">
        <ele>740.59997558594</ele>
        <time>2013-05-10T16:01:08Z</time>
      </trkpt>
      <trkpt lat="44.45295" lon="5.26289">
        <ele>737.20001220703</ele>
        <time>2013-05-10T16:01:12Z</time>
      </trkpt>
      <trkpt lat="44.45289" lon="5.26293">
        <ele>736.20001220703</ele>
        <time>2013-05-10T16:01:15Z</time>
      </trkpt>
      <trkpt lat="44.45277" lon="5.26301">
        <ele>735</ele>
        <time>2013-05-10T16:01:21Z</time>
      </trkpt>
      <trkpt lat="44.45277" lon="5.26299">
        <ele>733.79998779297</ele>
        <time>2013-05-10T16:01:26Z</time>
      </trkpt>
      <trkpt lat="44.45276" lon="5.263">
        <ele>733</ele>
        <time>2013-05-10T16:01:46Z</time>
      </trkpt>
      <trkpt lat="44.45272" lon="5.26311">
        <ele>731</ele>
        <time>2013-05-10T16:02:08Z</time>
      </trkpt>
      <trkpt lat="44.45267" lon="5.26314">
        <ele>730.59997558594</ele>
        <time>2013-05-10T16:02:15Z</time>
      </trkpt>
      <trkpt lat="44.45256" lon="5.26318">
        <ele>730.20001220703</ele>
        <time>2013-05-10T16:02:18Z</time>
      </trkpt>
      <trkpt lat="44.4525" lon="5.26323">
        <ele>728.79998779297</ele>
        <time>2013-05-10T16:02:22Z</time>
      </trkpt>
      <trkpt lat="44.45248" lon="5.26325">
        <ele>728.79998779297</ele>
        <time>2013-05-10T16:02:24Z</time>
      </trkpt>
      <trkpt lat="44.45238" lon="5.2633">
        <ele>727.59997558594</ele>
        <time>2013-05-10T16:02:36Z</time>
      </trkpt>
      <trkpt lat="44.45238" lon="5.2633">
        <ele>727.59997558594</ele>
        <time>2013-05-10T16:02:38Z</time>
      </trkpt>
      <trkpt lat="44.45233" lon="5.2633">
        <ele>726.79998779297</ele>
        <time>2013-05-10T16:02:45Z</time>
      </trkpt>
      <trkpt lat="44.45227" lon="5.26338">
        <ele>726.79998779297</ele>
        <time>2013-05-10T16:03:10Z</time>
      </trkpt>
      <trkpt lat="44.45225" lon="5.26342">
        <ele>725.40002441406</ele>
        <time>2013-05-10T16:03:17Z</time>
      </trkpt>
      <trkpt lat="44.4522" lon="5.26348">
        <ele>724.79998779297</ele>
        <time>2013-05-10T16:03:20Z</time>
      </trkpt>
      <trkpt lat="44.45218" lon="5.2635">
        <ele>724.20001220703</ele>
        <time>2013-05-10T16:03:21Z</time>
      </trkpt>
      <trkpt lat="44.45209" lon="5.2636">
        <ele>723.40002441406</ele>
        <time>2013-05-10T16:03:27Z</time>
      </trkpt>
      <trkpt lat="44.45201" lon="5.26362">
        <ele>720.79998779297</ele>
        <time>2013-05-10T16:03:41Z</time>
      </trkpt>
      <trkpt lat="44.452" lon="5.26362">
        <ele>720.40002441406</ele>
        <time>2013-05-10T16:03:42Z</time>
      </trkpt>
      <trkpt lat="44.45201" lon="5.26363">
        <ele>720</ele>
        <time>2013-05-10T16:03:45Z</time>
      </trkpt>
      <trkpt lat="44.45199" lon="5.26372">
        <ele>720</ele>
        <time>2013-05-10T16:03:52Z</time>
      </trkpt>
      <trkpt lat="44.45195" lon="5.26383">
        <ele>719.40002441406</ele>
        <time>2013-05-10T16:03:56Z</time>
      </trkpt>
      <trkpt lat="44.45187" lon="5.26397">
        <ele>716.59997558594</ele>
        <time>2013-05-10T16:04:03Z</time>
      </trkpt>
      <trkpt lat="44.45185" lon="5.26401">
        <ele>714.79998779297</ele>
        <time>2013-05-10T16:04:09Z</time>
      </trkpt>
      <trkpt lat="44.45176" lon="5.2641">
        <ele>710.59997558594</ele>
        <time>2013-05-10T16:04:30Z</time>
      </trkpt>
      <trkpt lat="44.4517" lon="5.26418">
        <ele>710.20001220703</ele>
        <time>2013-05-10T16:04:38Z</time>
      </trkpt>
      <trkpt lat="44.45159" lon="5.2642">
        <ele>710.20001220703</ele>
        <time>2013-05-10T16:04:50Z</time>
      </trkpt>
      <trkpt lat="44.45145" lon="5.26427">
        <ele>704.40002441406</ele>
        <time>2013-05-10T16:05:06Z</time>
      </trkpt>
      <trkpt lat="44.4514" lon="5.2643">
        <ele>703.40002441406</ele>
        <time>2013-05-10T16:05:16Z</time>
      </trkpt>
      <trkpt lat="44.45127" lon="5.26428">
        <ele>702.20001220703</ele>
        <time>2013-05-10T16:05:43Z</time>
      </trkpt>
      <trkpt lat="44.45126" lon="5.2643">
        <ele>701.79998779297</ele>
        <time>2013-05-10T16:05:44Z</time>
      </trkpt>
      <trkpt lat="44.4512" lon="5.26435">
        <ele>701</ele>
        <time>2013-05-10T16:05:48Z</time>
      </trkpt>
      <trkpt lat="44.45121" lon="5.26432">
        <ele>700.20001220703</ele>
        <time>2013-05-10T16:05:51Z</time>
      </trkpt>
      <trkpt lat="44.45119" lon="5.26433">
        <ele>700.20001220703</ele>
        <time>2013-05-10T16:06:03Z</time>
      </trkpt>
      <trkpt lat="44.45122" lon="5.26451">
        <ele>697.59997558594</ele>
        <time>2013-05-10T16:06:24Z</time>
      </trkpt>
      <trkpt lat="44.45125" lon="5.26467">
        <ele>697.20001220703</ele>
        <time>2013-05-10T16:06:28Z</time>
      </trkpt>
      <trkpt lat="44.45125" lon="5.26471">
        <ele>696.59997558594</ele>
        <time>2013-05-10T16:06:29Z</time>
      </trkpt>
      <trkpt lat="44.45126" lon="5.26481">
        <ele>695.40002441406</ele>
        <time>2013-05-10T16:06:33Z</time>
      </trkpt>
      <trkpt lat="44.45128" lon="5.26497">
        <ele>695.40002441406</ele>
        <time>2013-05-10T16:06:55Z</time>
      </trkpt>
      <trkpt lat="44.45128" lon="5.26504">
        <ele>695.40002441406</ele>
        <time>2013-05-10T16:07:01Z</time>
      </trkpt>
      <trkpt lat="44.45124" lon="5.26511">
        <ele>694.79998779297</ele>
        <time>2013-05-10T16:07:22Z</time>
      </trkpt>
      <trkpt lat="44.45123" lon="5.26521">
        <ele>694.40002441406</ele>
        <time>2013-05-10T16:07:25Z</time>
      </trkpt>
      <trkpt lat="44.45122" lon="5.26536">
        <ele>693</ele>
        <time>2013-05-10T16:07:29Z</time>
      </trkpt>
      <trkpt lat="44.45121" lon="5.26548">
        <ele>691.40002441406</ele>
        <time>2013-05-10T16:07:33Z</time>
      </trkpt>
      <trkpt lat="44.45119" lon="5.26551">
        <ele>691.40002441406</ele>
        <time>2013-05-10T16:07:35Z</time>
      </trkpt>
      <trkpt lat="44.45113" lon="5.2656">
        <ele>688.20001220703</ele>
        <time>2013-05-10T16:07:43Z</time>
      </trkpt>
      <trkpt lat="44.45114" lon="5.2656">
        <ele>687.79998779297</ele>
        <time>2013-05-10T16:07:47Z</time>
      </trkpt>
      <trkpt lat="44.45114" lon="5.26561">
        <ele>687.40002441406</ele>
        <time>2013-05-10T16:07:50Z</time>
      </trkpt>
      <trkpt lat="44.45118" lon="5.26572">
        <ele>685.20001220703</ele>
        <time>2013-05-10T16:08:00Z</time>
      </trkpt>
      <trkpt lat="44.4512" lon="5.26585">
        <ele>682.20001220703</ele>
        <time>2013-05-10T16:08:11Z</time>
      </trkpt>
      <trkpt lat="44.45119" lon="5.26594">
        <ele>682.20001220703</ele>
        <time>2013-05-10T16:08:13Z</time>
      </trkpt>
      <trkpt lat="44.45118" lon="5.26604">
        <ele>681</ele>
        <time>2013-05-10T16:08:15Z</time>
      </trkpt>
      <trkpt lat="44.45116" lon="5.26616">
        <ele>680.40002441406</ele>
        <time>2013-05-10T16:08:18Z</time>
      </trkpt>
      <trkpt lat="44.45114" lon="5.26625">
        <ele>680.40002441406</ele>
        <time>2013-05-10T16:08:20Z</time>
      </trkpt>
      <trkpt lat="44.45111" lon="5.26632">
        <ele>678.59997558594</ele>
        <time>2013-05-10T16:08:22Z</time>
      </trkpt>
      <trkpt lat="44.45108" lon="5.26642">
        <ele>677.40002441406</ele>
        <time>2013-05-10T16:08:25Z</time>
      </trkpt>
      <trkpt lat="44.45102" lon="5.26655">
        <ele>676.40002441406</ele>
        <time>2013-05-10T16:08:28Z</time>
      </trkpt>
      <trkpt lat="44.45099" lon="5.26659">
        <ele>675.20001220703</ele>
        <time>2013-05-10T16:08:30Z</time>
      </trkpt>
      <trkpt lat="44.45097" lon="5.26665">
        <ele>675.20001220703</ele>
        <time>2013-05-10T16:08:32Z</time>
      </trkpt>
      <trkpt lat="44.45091" lon="5.26677">
        <ele>672.79998779297</ele>
        <time>2013-05-10T16:08:36Z</time>
      </trkpt>
      <trkpt lat="44.45089" lon="5.2668">
        <ele>671.79998779297</ele>
        <time>2013-05-10T16:08:37Z</time>
      </trkpt>
      <trkpt lat="44.45083" lon="5.26695">
        <ele>670.59997558594</ele>
        <time>2013-05-10T16:08:41Z</time>
      </trkpt>
      <trkpt lat="44.4508" lon="5.26709">
        <ele>670</ele>
        <time>2013-05-10T16:08:44Z</time>
      </trkpt>
      <trkpt lat="44.45079" lon="5.26721">
        <ele>670</ele>
        <time>2013-05-10T16:08:46Z</time>
      </trkpt>
      <trkpt lat="44.45073" lon="5.26741">
        <ele>668.79998779297</ele>
        <time>2013-05-10T16:08:50Z</time>
      </trkpt>
      <trkpt lat="44.45069" lon="5.26749">
        <ele>668</ele>
        <time>2013-05-10T16:08:52Z</time>
      </trkpt>
      <trkpt lat="44.45068" lon="5.26758">
        <ele>667</ele>
        <time>2013-05-10T16:08:54Z</time>
      </trkpt>
      <trkpt lat="44.45066" lon="5.26771">
        <ele>666.20001220703</ele>
        <time>2013-05-10T16:08:57Z</time>
      </trkpt>
      <trkpt lat="44.4506" lon="5.26791">
        <ele>664.40002441406</ele>
        <time>2013-05-10T16:09:01Z</time>
      </trkpt>
      <trkpt lat="44.45053" lon="5.26802">
        <ele>663.59997558594</ele>
        <time>2013-05-10T16:09:04Z</time>
      </trkpt>
      <trkpt lat="44.45046" lon="5.26816">
        <ele>662</ele>
        <time>2013-05-10T16:09:08Z</time>
      </trkpt>
      <trkpt lat="44.45038" lon="5.26821">
        <ele>661.20001220703</ele>
        <time>2013-05-10T16:09:11Z</time>
      </trkpt>
      <trkpt lat="44.45029" lon="5.26827">
        <ele>660.40002441406</ele>
        <time>2013-05-10T16:09:15Z</time>
      </trkpt>
      <trkpt lat="44.45023" lon="5.26834">
        <ele>660</ele>
        <time>2013-05-10T16:09:18Z</time>
      </trkpt>
      <trkpt lat="44.45011" lon="5.26847">
        <ele>658.20001220703</ele>
        <time>2013-05-10T16:09:22Z</time>
      </trkpt>
      <trkpt lat="44.45008" lon="5.26851">
        <ele>658.20001220703</ele>
        <time>2013-05-10T16:09:23Z</time>
      </trkpt>
      <trkpt lat="44.45002" lon="5.2686">
        <ele>657.59997558594</ele>
        <time>2013-05-10T16:09:25Z</time>
      </trkpt>
      <trkpt lat="44.44998" lon="5.26864">
        <ele>657</ele>
        <time>2013-05-10T16:09:26Z</time>
      </trkpt>
      <trkpt lat="44.44989" lon="5.26876">
        <ele>655.40002441406</ele>
        <time>2013-05-10T16:09:29Z</time>
      </trkpt>
      <trkpt lat="44.44996" lon="5.26892">
        <ele>654.59997558594</ele>
        <time>2013-05-10T16:09:32Z</time>
      </trkpt>
      <trkpt lat="44.45" lon="5.26899">
        <ele>653.59997558594</ele>
        <time>2013-05-10T16:09:33Z</time>
      </trkpt>
      <trkpt lat="44.45011" lon="5.26922">
        <ele>652.40002441406</ele>
        <time>2013-05-10T16:09:36Z</time>
      </trkpt>
      <trkpt lat="44.45013" lon="5.26932">
        <ele>652.40002441406</ele>
        <time>2013-05-10T16:09:37Z</time>
      </trkpt>
      <trkpt lat="44.45018" lon="5.26953">
        <ele>652.40002441406</ele>
        <time>2013-05-10T16:09:39Z</time>
      </trkpt>
      <trkpt lat="44.4502" lon="5.26963">
        <ele>651</ele>
        <time>2013-05-10T16:09:40Z</time>
      </trkpt>
      <trkpt lat="44.45022" lon="5.26975">
        <ele>649.40002441406</ele>
        <time>2013-05-10T16:09:41Z</time>
      </trkpt>
      <trkpt lat="44.45024" lon="5.26986">
        <ele>647.79998779297</ele>
        <time>2013-05-10T16:09:42Z</time>
      </trkpt>
      <trkpt lat="44.45026" lon="5.26995">
        <ele>646</ele>
        <time>2013-05-10T16:09:43Z</time>
      </trkpt>
      <trkpt lat="44.45028" lon="5.27005">
        <ele>644.40002441406</ele>
        <time>2013-05-10T16:09:44Z</time>
      </trkpt>
      <trkpt lat="44.45028" lon="5.27014">
        <ele>642.79998779297</ele>
        <time>2013-05-10T16:09:45Z</time>
      </trkpt>
      <trkpt lat="44.45028" lon="5.27024">
        <ele>642.40002441406</ele>
        <time>2013-05-10T16:09:46Z</time>
      </trkpt>
      <trkpt lat="44.45029" lon="5.27034">
        <ele>641.79998779297</ele>
        <time>2013-05-10T16:09:47Z</time>
      </trkpt>
      <trkpt lat="44.45028" lon="5.27044">
        <ele>641</ele>
        <time>2013-05-10T16:09:48Z</time>
      </trkpt>
      <trkpt lat="44.45028" lon="5.27054">
        <ele>640.20001220703</ele>
        <time>2013-05-10T16:09:49Z</time>
      </trkpt>
      <trkpt lat="44.4503" lon="5.27088">
        <ele>640.20001220703</ele>
        <time>2013-05-10T16:09:52Z</time>
      </trkpt>
      <trkpt lat="44.45028" lon="5.27099">
        <ele>639.20001220703</ele>
        <time>2013-05-10T16:09:53Z</time>
      </trkpt>
      <trkpt lat="44.45021" lon="5.27118">
        <ele>639.20001220703</ele>
        <time>2013-05-10T16:09:55Z</time>
      </trkpt>
      <trkpt lat="44.45018" lon="5.27127">
        <ele>638</ele>
        <time>2013-05-10T16:09:56Z</time>
      </trkpt>
      <trkpt lat="44.45016" lon="5.27136">
        <ele>636.59997558594</ele>
        <time>2013-05-10T16:09:57Z</time>
      </trkpt>
      <trkpt lat="44.45015" lon="5.27157">
        <ele>636.59997558594</ele>
        <time>2013-05-10T16:09:59Z</time>
      </trkpt>
      <trkpt lat="44.45015" lon="5.27167">
        <ele>635</ele>
        <time>2013-05-10T16:10:00Z</time>
      </trkpt>
      <trkpt lat="44.45015" lon="5.27176">
        <ele>635</ele>
        <time>2013-05-10T16:10:01Z</time>
      </trkpt>
      <trkpt lat="44.45014" lon="5.27195">
        <ele>633.40002441406</ele>
        <time>2013-05-10T16:10:03Z</time>
      </trkpt>
      <trkpt lat="44.45013" lon="5.27204">
        <ele>631.59997558594</ele>
        <time>2013-05-10T16:10:04Z</time>
      </trkpt>
      <trkpt lat="44.45012" lon="5.27211">
        <ele>631.59997558594</ele>
        <time>2013-05-10T16:10:05Z</time>
      </trkpt>
      <trkpt lat="44.45006" lon="5.27226">
        <ele>629.79998779297</ele>
        <time>2013-05-10T16:10:07Z</time>
      </trkpt>
      <trkpt lat="44.44994" lon="5.27246">
        <ele>628.20001220703</ele>
        <time>2013-05-10T16:10:10Z</time>
      </trkpt>
      <trkpt lat="44.4499" lon="5.27253">
        <ele>626.79998779297</ele>
        <time>2013-05-10T16:10:11Z</time>
      </trkpt>
      <trkpt lat="44.44981" lon="5.27277">
        <ele>624.20001220703</ele>
        <time>2013-05-10T16:10:14Z</time>
      </trkpt>
      <trkpt lat="44.44971" lon="5.27301">
        <ele>623.20001220703</ele>
        <time>2013-05-10T16:10:17Z</time>
      </trkpt>
      <trkpt lat="44.44969" lon="5.2731">
        <ele>621.79998779297</ele>
        <time>2013-05-10T16:10:18Z</time>
      </trkpt>
      <trkpt lat="44.44964" lon="5.27325">
        <ele>618.59997558594</ele>
        <time>2013-05-10T16:10:21Z</time>
      </trkpt>
      <trkpt lat="44.44955" lon="5.2733">
        <ele>617.20001220703</ele>
        <time>2013-05-10T16:10:24Z</time>
      </trkpt>
      <trkpt lat="44.44949" lon="5.27337">
        <ele>615.79998779297</ele>
        <time>2013-05-10T16:10:26Z</time>
      </trkpt>
      <trkpt lat="44.44943" lon="5.27346">
        <ele>613.40002441406</ele>
        <time>2013-05-10T16:10:28Z</time>
      </trkpt>
      <trkpt lat="44.44933" lon="5.27352">
        <ele>612.40002441406</ele>
        <time>2013-05-10T16:10:32Z</time>
      </trkpt>
      <trkpt lat="44.44929" lon="5.27354">
        <ele>611.40002441406</ele>
        <time>2013-05-10T16:10:33Z</time>
      </trkpt>
      <trkpt lat="44.44921" lon="5.2736">
        <ele>609.59997558594</ele>
        <time>2013-05-10T16:10:36Z</time>
      </trkpt>
      <trkpt lat="44.44919" lon="5.27362">
        <ele>609.59997558594</ele>
        <time>2013-05-10T16:10:37Z</time>
      </trkpt>
      <trkpt lat="44.44908" lon="5.2737">
        <ele>606.59997558594</ele>
        <time>2013-05-10T16:10:43Z</time>
      </trkpt>
      <trkpt lat="44.44901" lon="5.2737">
        <ele>605.79998779297</ele>
        <time>2013-05-10T16:10:46Z</time>
      </trkpt>
      <trkpt lat="44.44902" lon="5.2737">
        <ele>605</ele>
        <time>2013-05-10T16:10:47Z</time>
      </trkpt>
      <trkpt lat="44.44902" lon="5.27373">
        <ele>602</ele>
        <time>2013-05-10T16:11:17Z</time>
      </trkpt>
      <trkpt lat="44.44891" lon="5.27397">
        <ele>602</ele>
        <time>2013-05-10T16:11:27Z</time>
      </trkpt>
      <trkpt lat="44.44891" lon="5.27402">
        <ele>601.59997558594</ele>
        <time>2013-05-10T16:11:28Z</time>
      </trkpt>
      <trkpt lat="44.44891" lon="5.27421">
        <ele>600.40002441406</ele>
        <time>2013-05-10T16:11:32Z</time>
      </trkpt>
      <trkpt lat="44.4489" lon="5.27426">
        <ele>599.79998779297</ele>
        <time>2013-05-10T16:11:33Z</time>
      </trkpt>
      <trkpt lat="44.44884" lon="5.27439">
        <ele>598.20001220703</ele>
        <time>2013-05-10T16:11:36Z</time>
      </trkpt>
      <trkpt lat="44.44883" lon="5.27443">
        <ele>598.20001220703</ele>
        <time>2013-05-10T16:11:37Z</time>
      </trkpt>
      <trkpt lat="44.4488" lon="5.27454">
        <ele>597.20001220703</ele>
        <time>2013-05-10T16:11:39Z</time>
      </trkpt>
      <trkpt lat="44.44878" lon="5.2746">
        <ele>596.40002441406</ele>
        <time>2013-05-10T16:11:40Z</time>
      </trkpt>
      <trkpt lat="44.44875" lon="5.27473">
        <ele>596.40002441406</ele>
        <time>2013-05-10T16:11:42Z</time>
      </trkpt>
      <trkpt lat="44.44871" lon="5.27486">
        <ele>594.20001220703</ele>
        <time>2013-05-10T16:11:45Z</time>
      </trkpt>
      <trkpt lat="44.44869" lon="5.27487">
        <ele>593.20001220703</ele>
        <time>2013-05-10T16:11:46Z</time>
      </trkpt>
      <trkpt lat="44.44867" lon="5.27493">
        <ele>591</ele>
        <time>2013-05-10T16:11:50Z</time>
      </trkpt>
      <trkpt lat="44.44864" lon="5.27504">
        <ele>590.40002441406</ele>
        <time>2013-05-10T16:11:54Z</time>
      </trkpt>
      <trkpt lat="44.44859" lon="5.27518">
        <ele>588.40002441406</ele>
        <time>2013-05-10T16:12:10Z</time>
      </trkpt>
      <trkpt lat="44.44857" lon="5.27527">
        <ele>588</ele>
        <time>2013-05-10T16:12:14Z</time>
      </trkpt>
      <trkpt lat="44.44855" lon="5.27538">
        <ele>588</ele>
        <time>2013-05-10T16:12:19Z</time>
      </trkpt>
      <trkpt lat="44.44853" lon="5.27543">
        <ele>587.20001220703</ele>
        <time>2013-05-10T16:12:21Z</time>
      </trkpt>
      <trkpt lat="44.4485" lon="5.27548">
        <ele>583</ele>
        <time>2013-05-10T16:12:28Z</time>
      </trkpt>
      <trkpt lat="44.44847" lon="5.27558">
        <ele>580.40002441406</ele>
        <time>2013-05-10T16:12:46Z</time>
      </trkpt>
      <trkpt lat="44.44846" lon="5.2756">
        <ele>580</ele>
        <time>2013-05-10T16:12:49Z</time>
      </trkpt>
      <trkpt lat="44.44844" lon="5.27576">
        <ele>578</ele>
        <time>2013-05-10T16:13:00Z</time>
      </trkpt>
      <trkpt lat="44.44844" lon="5.27581">
        <ele>577.20001220703</ele>
        <time>2013-05-10T16:13:06Z</time>
      </trkpt>
      <trkpt lat="44.44837" lon="5.27597">
        <ele>576.40002441406</ele>
        <time>2013-05-10T16:13:10Z</time>
      </trkpt>
      <trkpt lat="44.44835" lon="5.27603">
        <ele>576</ele>
        <time>2013-05-10T16:13:11Z</time>
      </trkpt>
      <trkpt lat="44.44831" lon="5.27619">
        <ele>574.40002441406</ele>
        <time>2013-05-10T16:13:14Z</time>
      </trkpt>
      <trkpt lat="44.44827" lon="5.2763">
        <ele>574.40002441406</ele>
        <time>2013-05-10T16:13:16Z</time>
      </trkpt>
      <trkpt lat="44.44826" lon="5.27635">
        <ele>573.40002441406</ele>
        <time>2013-05-10T16:13:17Z</time>
      </trkpt>
      <trkpt lat="44.44824" lon="5.27641">
        <ele>572.40002441406</ele>
        <time>2013-05-10T16:13:18Z</time>
      </trkpt>
      <trkpt lat="44.44817" lon="5.2765">
        <ele>570</ele>
        <time>2013-05-10T16:13:21Z</time>
      </trkpt>
      <trkpt lat="44.4481" lon="5.2766">
        <ele>567.59997558594</ele>
        <time>2013-05-10T16:13:25Z</time>
      </trkpt>
      <trkpt lat="44.44805" lon="5.27668">
        <ele>567.59997558594</ele>
        <time>2013-05-10T16:13:27Z</time>
      </trkpt>
      <trkpt lat="44.44801" lon="5.27673">
        <ele>565.40002441406</ele>
        <time>2013-05-10T16:13:28Z</time>
      </trkpt>
      <trkpt lat="44.4479" lon="5.27684">
        <ele>564.59997558594</ele>
        <time>2013-05-10T16:13:31Z</time>
      </trkpt>
      <trkpt lat="44.44783" lon="5.27691">
        <ele>563.59997558594</ele>
        <time>2013-05-10T16:13:33Z</time>
      </trkpt>
      <trkpt lat="44.44776" lon="5.27699">
        <ele>561.79998779297</ele>
        <time>2013-05-10T16:13:35Z</time>
      </trkpt>
      <trkpt lat="44.44769" lon="5.27708">
        <ele>560.79998779297</ele>
        <time>2013-05-10T16:13:38Z</time>
      </trkpt>
      <trkpt lat="44.44767" lon="5.2771">
        <ele>559.79998779297</ele>
        <time>2013-05-10T16:13:39Z</time>
      </trkpt>
      <trkpt lat="44.4476" lon="5.27727">
        <ele>554.59997558594</ele>
        <time>2013-05-10T16:13:57Z</time>
      </trkpt>
      <trkpt lat="44.44757" lon="5.27732">
        <ele>554.20001220703</ele>
        <time>2013-05-10T16:13:59Z</time>
      </trkpt>
      <trkpt lat="44.44757" lon="5.27743">
        <ele>553</ele>
        <time>2013-05-10T16:14:03Z</time>
      </trkpt>
      <trkpt lat="44.44757" lon="5.27754">
        <ele>552.40002441406</ele>
        <time>2013-05-10T16:14:06Z</time>
      </trkpt>
      <trkpt lat="44.44754" lon="5.27767">
        <ele>549.79998779297</ele>
        <time>2013-05-10T16:14:10Z</time>
      </trkpt>
      <trkpt lat="44.44751" lon="5.27777">
        <ele>549</ele>
        <time>2013-05-10T16:14:13Z</time>
      </trkpt>
      <trkpt lat="44.4475" lon="5.2778">
        <ele>548.20001220703</ele>
        <time>2013-05-10T16:14:14Z</time>
      </trkpt>
      <trkpt lat="44.44746" lon="5.27794">
        <ele>546.40002441406</ele>
        <time>2013-05-10T16:14:17Z</time>
      </trkpt>
      <trkpt lat="44.4474" lon="5.27809">
        <ele>545.40002441406</ele>
        <time>2013-05-10T16:14:20Z</time>
      </trkpt>
      <trkpt lat="44.44738" lon="5.27813">
        <ele>544.40002441406</ele>
        <time>2013-05-10T16:14:21Z</time>
      </trkpt>
      <trkpt lat="44.44735" lon="5.27824">
        <ele>544.40002441406</ele>
        <time>2013-05-10T16:14:23Z</time>
      </trkpt>
      <trkpt lat="44.44725" lon="5.27844">
        <ele>541</ele>
        <time>2013-05-10T16:14:28Z</time>
      </trkpt>
      <trkpt lat="44.4472" lon="5.27855">
        <ele>539.79998779297</ele>
        <time>2013-05-10T16:14:31Z</time>
      </trkpt>
      <trkpt lat="44.44712" lon="5.27866">
        <ele>538.20001220703</ele>
        <time>2013-05-10T16:14:34Z</time>
      </trkpt>
      <trkpt lat="44.44709" lon="5.27871">
        <ele>536.79998779297</ele>
        <time>2013-05-10T16:14:35Z</time>
      </trkpt>
      <trkpt lat="44.44702" lon="5.27882">
        <ele>535.20001220703</ele>
        <time>2013-05-10T16:14:38Z</time>
      </trkpt>
      <trkpt lat="44.44699" lon="5.27886">
        <ele>532.40002441406</ele>
        <time>2013-05-10T16:14:40Z</time>
      </trkpt>
      <trkpt lat="44.44697" lon="5.27893">
        <ele>529.79998779297</ele>
        <time>2013-05-10T16:14:42Z</time>
      </trkpt>
      <trkpt lat="44.44693" lon="5.27902">
        <ele>529.79998779297</ele>
        <time>2013-05-10T16:14:44Z</time>
      </trkpt>
      <trkpt lat="44.4469" lon="5.27912">
        <ele>528.79998779297</ele>
        <time>2013-05-10T16:14:46Z</time>
      </trkpt>
      <trkpt lat="44.44685" lon="5.2792">
        <ele>527.79998779297</ele>
        <time>2013-05-10T16:14:49Z</time>
      </trkpt>
      <trkpt lat="44.44678" lon="5.27932">
        <ele>523.79998779297</ele>
        <time>2013-05-10T16:14:53Z</time>
      </trkpt>
      <trkpt lat="44.44668" lon="5.27945">
        <ele>519.79998779297</ele>
        <time>2013-05-10T16:15:00Z</time>
      </trkpt>
      <trkpt lat="44.44661" lon="5.27957">
        <ele>518.79998779297</ele>
        <time>2013-05-10T16:15:03Z</time>
      </trkpt>
      <trkpt lat="44.44658" lon="5.27962">
        <ele>518.20001220703</ele>
        <time>2013-05-10T16:15:04Z</time>
      </trkpt>
      <trkpt lat="44.44649" lon="5.27968">
        <ele>518.20001220703</ele>
        <time>2013-05-10T16:15:06Z</time>
      </trkpt>
      <trkpt lat="44.44638" lon="5.2798">
        <ele>516.59997558594</ele>
        <time>2013-05-10T16:15:10Z</time>
      </trkpt>
      <trkpt lat="44.44635" lon="5.27985">
        <ele>515.59997558594</ele>
        <time>2013-05-10T16:15:11Z</time>
      </trkpt>
      <trkpt lat="44.44629" lon="5.27992">
        <ele>514.40002441406</ele>
        <time>2013-05-10T16:15:14Z</time>
      </trkpt>
      <trkpt lat="44.44623" lon="5.28001">
        <ele>512.20001220703</ele>
        <time>2013-05-10T16:15:18Z</time>
      </trkpt>
      <trkpt lat="44.44615" lon="5.28005">
        <ele>511</ele>
        <time>2013-05-10T16:15:21Z</time>
      </trkpt>
      <trkpt lat="44.44609" lon="5.28008">
        <ele>510</ele>
        <time>2013-05-10T16:15:23Z</time>
      </trkpt>
      <trkpt lat="44.44601" lon="5.28016">
        <ele>507.60000610352</ele>
        <time>2013-05-10T16:15:27Z</time>
      </trkpt>
      <trkpt lat="44.44598" lon="5.28025">
        <ele>506.20001220703</ele>
        <time>2013-05-10T16:15:30Z</time>
      </trkpt>
      <trkpt lat="44.44589" lon="5.28039">
        <ele>504</ele>
        <time>2013-05-10T16:15:34Z</time>
      </trkpt>
      <trkpt lat="44.44585" lon="5.28046">
        <ele>504</ele>
        <time>2013-05-10T16:15:36Z</time>
      </trkpt>
      <trkpt lat="44.44582" lon="5.28051">
        <ele>501.79998779297</ele>
        <time>2013-05-10T16:15:38Z</time>
      </trkpt>
      <trkpt lat="44.44579" lon="5.28054">
        <ele>501.79998779297</ele>
        <time>2013-05-10T16:15:40Z</time>
      </trkpt>
      <trkpt lat="44.4458" lon="5.28061">
        <ele>498.39999389648</ele>
        <time>2013-05-10T16:15:45Z</time>
      </trkpt>
      <trkpt lat="44.44593" lon="5.28063">
        <ele>495.60000610352</ele>
        <time>2013-05-10T16:15:52Z</time>
      </trkpt>
      <trkpt lat="44.4459" lon="5.28081">
        <ele>492.60000610352</ele>
        <time>2013-05-10T16:15:59Z</time>
      </trkpt>
      <trkpt lat="44.44577" lon="5.28085">
        <ele>491.60000610352</ele>
        <time>2013-05-10T16:16:04Z</time>
      </trkpt>
      <trkpt lat="44.44564" lon="5.28096">
        <ele>488.20001220703</ele>
        <time>2013-05-10T16:16:09Z</time>
      </trkpt>
      <trkpt lat="44.44561" lon="5.281">
        <ele>488.20001220703</ele>
        <time>2013-05-10T16:16:10Z</time>
      </trkpt>
      <trkpt lat="44.44554" lon="5.2811">
        <ele>485.60000610352</ele>
        <time>2013-05-10T16:16:13Z</time>
      </trkpt>
      <trkpt lat="44.44548" lon="5.28118">
        <ele>484.20001220703</ele>
        <time>2013-05-10T16:16:16Z</time>
      </trkpt>
      <trkpt lat="44.44546" lon="5.28121">
        <ele>484.20001220703</ele>
        <time>2013-05-10T16:16:17Z</time>
      </trkpt>
      <trkpt lat="44.44537" lon="5.28129">
        <ele>481.20001220703</ele>
        <time>2013-05-10T16:16:20Z</time>
      </trkpt>
      <trkpt lat="44.44531" lon="5.28133">
        <ele>481.20001220703</ele>
        <time>2013-05-10T16:16:22Z</time>
      </trkpt>
      <trkpt lat="44.44529" lon="5.28135">
        <ele>479.39999389648</ele>
        <time>2013-05-10T16:16:23Z</time>
      </trkpt>
      <trkpt lat="44.44524" lon="5.28143">
        <ele>476</ele>
        <time>2013-05-10T16:16:27Z</time>
      </trkpt>
      <trkpt lat="44.44519" lon="5.28155">
        <ele>467</ele>
        <time>2013-05-10T16:16:56Z</time>
      </trkpt>
      <trkpt lat="44.44514" lon="5.28176">
        <ele>467</ele>
        <time>2013-05-10T16:17:01Z</time>
      </trkpt>
      <trkpt lat="44.4451" lon="5.28184">
        <ele>465.79998779297</ele>
        <time>2013-05-10T16:17:09Z</time>
      </trkpt>
      <trkpt lat="44.44507" lon="5.2819">
        <ele>464</ele>
        <time>2013-05-10T16:17:26Z</time>
      </trkpt>
      <trkpt lat="44.445" lon="5.28192">
        <ele>461.79998779297</ele>
        <time>2013-05-10T16:17:40Z</time>
      </trkpt>
      <trkpt lat="44.44487" lon="5.28189">
        <ele>462.20001220703</ele>
        <time>2013-05-10T16:17:59Z</time>
      </trkpt>
      <trkpt lat="44.44485" lon="5.28191">
        <ele>462.20001220703</ele>
        <time>2013-05-10T16:18:00Z</time>
      </trkpt>
      <trkpt lat="44.44479" lon="5.28199">
        <ele>465.20001220703</ele>
        <time>2013-05-10T16:18:11Z</time>
      </trkpt>
      <trkpt lat="44.44479" lon="5.28202">
        <ele>466.60000610352</ele>
        <time>2013-05-10T16:18:14Z</time>
      </trkpt>
      <trkpt lat="44.44474" lon="5.28211">
        <ele>469.20001220703</ele>
        <time>2013-05-10T16:18:28Z</time>
      </trkpt>
      <trkpt lat="44.44468" lon="5.28225">
        <ele>471.60000610352</ele>
        <time>2013-05-10T16:18:46Z</time>
      </trkpt>
      <trkpt lat="44.44466" lon="5.28232">
        <ele>472.79998779297</ele>
        <time>2013-05-10T16:18:53Z</time>
      </trkpt>
      <trkpt lat="44.44463" lon="5.28242">
        <ele>474.79998779297</ele>
        <time>2013-05-10T16:19:00Z</time>
      </trkpt>
      <trkpt lat="44.44456" lon="5.28262">
        <ele>475.20001220703</ele>
        <time>2013-05-10T16:19:15Z</time>
      </trkpt>
      <trkpt lat="44.4445" lon="5.28278">
        <ele>478.39999389648</ele>
        <time>2013-05-10T16:19:30Z</time>
      </trkpt>
      <trkpt lat="44.4445" lon="5.28282">
        <ele>478.79998779297</ele>
        <time>2013-05-10T16:19:33Z</time>
      </trkpt>
      <trkpt lat="44.44447" lon="5.28296">
        <ele>480.60000610352</ele>
        <time>2013-05-10T16:19:44Z</time>
      </trkpt>
      <trkpt lat="44.44445" lon="5.28302">
        <ele>482</ele>
        <time>2013-05-10T16:19:51Z</time>
      </trkpt>
      <trkpt lat="44.44443" lon="5.28311">
        <ele>482.39999389648</ele>
        <time>2013-05-10T16:19:58Z</time>
      </trkpt>
      <trkpt lat="44.44439" lon="5.28323">
        <ele>484.79998779297</ele>
        <time>2013-05-10T16:20:09Z</time>
      </trkpt>
      <trkpt lat="44.44434" lon="5.28334">
        <ele>486.20001220703</ele>
        <time>2013-05-10T16:20:19Z</time>
      </trkpt>
      <trkpt lat="44.44432" lon="5.28342">
        <ele>487</ele>
        <time>2013-05-10T16:20:24Z</time>
      </trkpt>
      <trkpt lat="44.4443" lon="5.28351">
        <ele>488.20001220703</ele>
        <time>2013-05-10T16:20:30Z</time>
      </trkpt>
      <trkpt lat="44.44428" lon="5.28357">
        <ele>488.20001220703</ele>
        <time>2013-05-10T16:20:38Z</time>
      </trkpt>
      <trkpt lat="44.44425" lon="5.28369">
        <ele>488.60000610352</ele>
        <time>2013-05-10T16:20:47Z</time>
      </trkpt>
      <trkpt lat="44.44424" lon="5.28373">
        <ele>489.39999389648</ele>
        <time>2013-05-10T16:20:50Z</time>
      </trkpt>
      <trkpt lat="44.44421" lon="5.2838">
        <ele>490.20001220703</ele>
        <time>2013-05-10T16:20:55Z</time>
      </trkpt>
      <trkpt lat="44.44419" lon="5.28393">
        <ele>490.20001220703</ele>
        <time>2013-05-10T16:21:04Z</time>
      </trkpt>
      <trkpt lat="44.44416" lon="5.28401">
        <ele>491.79998779297</ele>
        <time>2013-05-10T16:21:10Z</time>
      </trkpt>
      <trkpt lat="44.44413" lon="5.28412">
        <ele>492.39999389648</ele>
        <time>2013-05-10T16:21:21Z</time>
      </trkpt>
      <trkpt lat="44.44413" lon="5.28425">
        <ele>492.39999389648</ele>
        <time>2013-05-10T16:22:41Z</time>
      </trkpt>
      <trkpt lat="44.44422" lon="5.28424">
        <ele>493.79998779297</ele>
        <time>2013-05-10T16:22:47Z</time>
      </trkpt>
      <trkpt lat="44.44437" lon="5.28418">
        <ele>494.79998779297</ele>
        <time>2013-05-10T16:22:58Z</time>
      </trkpt>
      <trkpt lat="44.44441" lon="5.28417">
        <ele>495.20001220703</ele>
        <time>2013-05-10T16:23:01Z</time>
      </trkpt>
      <trkpt lat="44.4445" lon="5.28414">
        <ele>497</ele>
        <time>2013-05-10T16:23:08Z</time>
      </trkpt>
      <trkpt lat="44.44465" lon="5.28407">
        <ele>497.79998779297</ele>
        <time>2013-05-10T16:23:19Z</time>
      </trkpt>
      <trkpt lat="44.44471" lon="5.28405">
        <ele>498.20001220703</ele>
        <time>2013-05-10T16:23:24Z</time>
      </trkpt>
      <trkpt lat="44.44479" lon="5.28412">
        <ele>501</ele>
        <time>2013-05-10T16:23:33Z</time>
      </trkpt>
      <trkpt lat="44.44477" lon="5.28423">
        <ele>501</ele>
        <time>2013-05-10T16:23:37Z</time>
      </trkpt>
      <trkpt lat="44.44476" lon="5.28441">
        <ele>501</ele>
        <time>2013-05-10T16:23:41Z</time>
      </trkpt>
      <trkpt lat="44.4447" lon="5.28488">
        <ele>501</ele>
        <time>2013-05-10T16:23:49Z</time>
      </trkpt>
      <trkpt lat="44.4446" lon="5.28536">
        <ele>501</ele>
        <time>2013-05-10T16:23:56Z</time>
      </trkpt>
      <trkpt lat="44.44449" lon="5.28552">
        <ele>501</ele>
        <time>2013-05-10T16:24:00Z</time>
      </trkpt>
      <trkpt lat="44.44432" lon="5.28573">
        <ele>501</ele>
        <time>2013-05-10T16:24:06Z</time>
      </trkpt>
      <trkpt lat="44.44414" lon="5.28595">
        <ele>501</ele>
        <time>2013-05-10T16:24:10Z</time>
      </trkpt>
      <trkpt lat="44.44389" lon="5.28637">
        <ele>499.60000610352</ele>
        <time>2013-05-10T16:24:15Z</time>
      </trkpt>
      <trkpt lat="44.44381" lon="5.28664">
        <ele>498.79998779297</ele>
        <time>2013-05-10T16:24:18Z</time>
      </trkpt>
      <trkpt lat="44.44379" lon="5.28672">
        <ele>498.79998779297</ele>
        <time>2013-05-10T16:24:19Z</time>
      </trkpt>
      <trkpt lat="44.44366" lon="5.28692">
        <ele>498.79998779297</ele>
        <time>2013-05-10T16:24:23Z</time>
      </trkpt>
      <trkpt lat="44.44356" lon="5.28686">
        <ele>498.79998779297</ele>
        <time>2013-05-10T16:24:25Z</time>
      </trkpt>
      <trkpt lat="44.44336" lon="5.2867">
        <ele>498.79998779297</ele>
        <time>2013-05-10T16:24:28Z</time>
      </trkpt>
      <trkpt lat="44.44323" lon="5.28644">
        <ele>498.79998779297</ele>
        <time>2013-05-10T16:24:31Z</time>
      </trkpt>
      <trkpt lat="44.44314" lon="5.28629">
        <ele>498.79998779297</ele>
        <time>2013-05-10T16:24:33Z</time>
      </trkpt>
      <trkpt lat="44.44308" lon="5.28624">
        <ele>498.79998779297</ele>
        <time>2013-05-10T16:24:34Z</time>
      </trkpt>
      <trkpt lat="44.44294" lon="5.28616">
        <ele>497</ele>
        <time>2013-05-10T16:24:36Z</time>
      </trkpt>
      <trkpt lat="44.44287" lon="5.28613">
        <ele>497</ele>
        <time>2013-05-10T16:24:37Z</time>
      </trkpt>
      <trkpt lat="44.44274" lon="5.28613">
        <ele>497</ele>
        <time>2013-05-10T16:24:39Z</time>
      </trkpt>
      <trkpt lat="44.44263" lon="5.28617">
        <ele>497</ele>
        <time>2013-05-10T16:24:41Z</time>
      </trkpt>
      <trkpt lat="44.44258" lon="5.28625">
        <ele>497</ele>
        <time>2013-05-10T16:24:43Z</time>
      </trkpt>
      <trkpt lat="44.44246" lon="5.28638">
        <ele>497</ele>
        <time>2013-05-10T16:24:48Z</time>
      </trkpt>
      <trkpt lat="44.4423" lon="5.2865">
        <ele>493.60000610352</ele>
        <time>2013-05-10T16:24:54Z</time>
      </trkpt>
      <trkpt lat="44.44229" lon="5.28652">
        <ele>493.60000610352</ele>
        <time>2013-05-10T16:24:55Z</time>
      </trkpt>
      <trkpt lat="44.44212" lon="5.28662">
        <ele>490.20001220703</ele>
        <time>2013-05-10T16:25:00Z</time>
      </trkpt>
      <trkpt lat="44.44209" lon="5.28665">
        <ele>490.20001220703</ele>
        <time>2013-05-10T16:25:01Z</time>
      </trkpt>
      <trkpt lat="44.44191" lon="5.2868">
        <ele>488.60000610352</ele>
        <time>2013-05-10T16:25:07Z</time>
      </trkpt>
      <trkpt lat="44.44182" lon="5.28695">
        <ele>488.60000610352</ele>
        <time>2013-05-10T16:25:12Z</time>
      </trkpt>
      <trkpt lat="44.4418" lon="5.28699">
        <ele>489.39999389648</ele>
        <time>2013-05-10T16:25:14Z</time>
      </trkpt>
      <trkpt lat="44.44174" lon="5.28705">
        <ele>490</ele>
        <time>2013-05-10T16:25:17Z</time>
      </trkpt>
      <trkpt lat="44.4417" lon="5.28708">
        <ele>491.20001220703</ele>
        <time>2013-05-10T16:25:22Z</time>
      </trkpt>
      <trkpt lat="44.44172" lon="5.28709">
        <ele>495</ele>
        <time>2013-05-10T16:29:54Z</time>
      </trkpt>
    </trkseg>
  </trk>
</gpx>